<?xml version="1.0" encoding="UTF-8"?>
<gpx xmlns="http://www.topografix.com/GPX/1/1" xmlns:gpsies="https://www.gpsies.com/GPX/1/0" creator="AllTrails https://www.alltrails.com/ - Ascoli_Piceno_accensione_course" version="1.1" xmlns:xsi="http://www.w3.org/2001/XMLSchema-instance" xsi:schemaLocation="http://www.topografix.com/GPX/1/1 http://www.topografix.com/GPX/1/1/gpx.xsd https://www.gpsies.com/GPX/1/0 https://www.gpsies.com/gpsies.xsd">
  <metadata>
    <name>Ascoli_Piceno_accensione_course</name>
    <link href="https://www.gpsies.com/">
      <text>Ascoli_Piceno_accensione_course on AllTrails</text>
    </link>
    <time>2024-05-14T08:51:33Z</time>
  </metadata>
  <trk>
    <name>Ascoli_Piceno_accensione_course on AllTrails</name>
    <trkseg>
      <trkpt lat="42.84506097" lon="13.64144615">
        <ele>106.00000</ele>
        <time>2024-02-08T12:00:35Z</time>
      </trkpt>
      <trkpt lat="42.84505116" lon="13.64136334">
        <ele>106.00000</ele>
        <time>2024-02-08T12:00:36Z</time>
      </trkpt>
      <trkpt lat="42.84504161" lon="13.64128313">
        <ele>106.00000</ele>
        <time>2024-02-08T12:00:37Z</time>
      </trkpt>
      <trkpt lat="42.84503046" lon="13.64118573">
        <ele>106.00000</ele>
        <time>2024-02-08T12:00:38Z</time>
      </trkpt>
      <trkpt lat="42.84502040" lon="13.64110233">
        <ele>106.00000</ele>
        <time>2024-02-08T12:00:39Z</time>
      </trkpt>
      <trkpt lat="42.84501143" lon="13.64101918">
        <ele>106.00000</ele>
        <time>2024-02-08T12:00:40Z</time>
      </trkpt>
      <trkpt lat="42.84500188" lon="13.64095338">
        <ele>106.00000</ele>
        <time>2024-02-08T12:00:41Z</time>
      </trkpt>
      <trkpt lat="42.84499098" lon="13.64087149">
        <ele>105.00000</ele>
        <time>2024-02-08T12:00:42Z</time>
      </trkpt>
      <trkpt lat="42.84498092" lon="13.64077183">
        <ele>105.00000</ele>
        <time>2024-02-08T12:00:43Z</time>
      </trkpt>
      <trkpt lat="42.84497564" lon="13.64068801">
        <ele>105.00000</ele>
        <time>2024-02-08T12:00:44Z</time>
      </trkpt>
      <trkpt lat="42.84497288" lon="13.64060495">
        <ele>105.00000</ele>
        <time>2024-02-08T12:00:45Z</time>
      </trkpt>
      <trkpt lat="42.84497137" lon="13.64052121">
        <ele>105.00000</ele>
        <time>2024-02-08T12:00:46Z</time>
      </trkpt>
      <trkpt lat="42.84497078" lon="13.64045524">
        <ele>105.00000</ele>
        <time>2024-02-08T12:00:47Z</time>
      </trkpt>
      <trkpt lat="42.84497103" lon="13.64035726">
        <ele>105.00000</ele>
        <time>2024-02-08T12:00:48Z</time>
      </trkpt>
      <trkpt lat="42.84497246" lon="13.64027420">
        <ele>105.00000</ele>
        <time>2024-02-08T12:00:49Z</time>
      </trkpt>
      <trkpt lat="42.84497338" lon="13.64019080">
        <ele>105.00000</ele>
        <time>2024-02-08T12:00:50Z</time>
      </trkpt>
      <trkpt lat="42.84497648" lon="13.64012332">
        <ele>105.00000</ele>
        <time>2024-02-08T12:00:51Z</time>
      </trkpt>
      <trkpt lat="42.84497765" lon="13.64003866">
        <ele>105.00000</ele>
        <time>2024-02-08T12:00:52Z</time>
      </trkpt>
      <trkpt lat="42.84497933" lon="13.63993657">
        <ele>105.00000</ele>
        <time>2024-02-08T12:00:53Z</time>
      </trkpt>
      <trkpt lat="42.84498235" lon="13.63985183">
        <ele>105.00000</ele>
        <time>2024-02-08T12:00:54Z</time>
      </trkpt>
      <trkpt lat="42.84498696" lon="13.63976676">
        <ele>105.00000</ele>
        <time>2024-02-08T12:00:55Z</time>
      </trkpt>
      <trkpt lat="42.84499031" lon="13.63969853">
        <ele>105.00000</ele>
        <time>2024-02-08T12:00:56Z</time>
      </trkpt>
      <trkpt lat="42.84499442" lon="13.63961303">
        <ele>105.00000</ele>
        <time>2024-02-08T12:00:57Z</time>
      </trkpt>
      <trkpt lat="42.84499777" lon="13.63953106">
        <ele>104.00000</ele>
        <time>2024-02-08T12:00:58Z</time>
      </trkpt>
      <trkpt lat="42.84500355" lon="13.63943047">
        <ele>104.00000</ele>
        <time>2024-02-08T12:00:59Z</time>
      </trkpt>
      <trkpt lat="42.84500917" lon="13.63934188">
        <ele>104.00000</ele>
        <time>2024-02-08T12:01:00Z</time>
      </trkpt>
      <trkpt lat="42.84501420" lon="13.63924917">
        <ele>104.00000</ele>
        <time>2024-02-08T12:01:01Z</time>
      </trkpt>
      <trkpt lat="42.84501730" lon="13.63917374">
        <ele>104.00000</ele>
        <time>2024-02-08T12:01:02Z</time>
      </trkpt>
      <trkpt lat="42.84502199" lon="13.63908086">
        <ele>104.00000</ele>
        <time>2024-02-08T12:01:03Z</time>
      </trkpt>
      <trkpt lat="42.84502811" lon="13.63896938">
        <ele>104.00000</ele>
        <time>2024-02-08T12:01:04Z</time>
      </trkpt>
      <trkpt lat="42.84503272" lon="13.63887618">
        <ele>104.00000</ele>
        <time>2024-02-08T12:01:05Z</time>
      </trkpt>
      <trkpt lat="42.84503624" lon="13.63878163">
        <ele>104.00000</ele>
        <time>2024-02-08T12:01:06Z</time>
      </trkpt>
      <trkpt lat="42.84504169" lon="13.63870670">
        <ele>104.00000</ele>
        <time>2024-02-08T12:01:07Z</time>
      </trkpt>
      <trkpt lat="42.84504714" lon="13.63861357">
        <ele>104.00000</ele>
        <time>2024-02-08T12:01:08Z</time>
      </trkpt>
      <trkpt lat="42.84505452" lon="13.63850285">
        <ele>104.00000</ele>
        <time>2024-02-08T12:01:09Z</time>
      </trkpt>
      <trkpt lat="42.84506063" lon="13.63841182">
        <ele>104.00000</ele>
        <time>2024-02-08T12:01:10Z</time>
      </trkpt>
      <trkpt lat="42.84506659" lon="13.63832063">
        <ele>104.00000</ele>
        <time>2024-02-08T12:01:11Z</time>
      </trkpt>
      <trkpt lat="42.84507187" lon="13.63824494">
        <ele>104.00000</ele>
        <time>2024-02-08T12:01:12Z</time>
      </trkpt>
      <trkpt lat="42.84507832" lon="13.63815223">
        <ele>104.00000</ele>
        <time>2024-02-08T12:01:13Z</time>
      </trkpt>
      <trkpt lat="42.84508410" lon="13.63806037">
        <ele>104.00000</ele>
        <time>2024-02-08T12:01:14Z</time>
      </trkpt>
      <trkpt lat="42.84508788" lon="13.63794998">
        <ele>104.00000</ele>
        <time>2024-02-08T12:01:15Z</time>
      </trkpt>
      <trkpt lat="42.84509140" lon="13.63785744">
        <ele>104.00000</ele>
        <time>2024-02-08T12:01:16Z</time>
      </trkpt>
      <trkpt lat="42.84509567" lon="13.63776298">
        <ele>104.00000</ele>
        <time>2024-02-08T12:01:17Z</time>
      </trkpt>
      <trkpt lat="42.84510120" lon="13.63768637">
        <ele>104.00000</ele>
        <time>2024-02-08T12:01:18Z</time>
      </trkpt>
      <trkpt lat="42.84511143" lon="13.63759408">
        <ele>104.00000</ele>
        <time>2024-02-08T12:01:19Z</time>
      </trkpt>
      <trkpt lat="42.84512300" lon="13.63748302">
        <ele>104.00000</ele>
        <time>2024-02-08T12:01:20Z</time>
      </trkpt>
      <trkpt lat="42.84513473" lon="13.63739099">
        <ele>104.00000</ele>
        <time>2024-02-08T12:01:21Z</time>
      </trkpt>
      <trkpt lat="42.84514730" lon="13.63729954">
        <ele>104.00000</ele>
        <time>2024-02-08T12:01:22Z</time>
      </trkpt>
      <trkpt lat="42.84515669" lon="13.63720801">
        <ele>104.00000</ele>
        <time>2024-02-08T12:01:23Z</time>
      </trkpt>
      <trkpt lat="42.84516356" lon="13.63713333">
        <ele>104.00000</ele>
        <time>2024-02-08T12:01:24Z</time>
      </trkpt>
      <trkpt lat="42.84517354" lon="13.63704037">
        <ele>104.00000</ele>
        <time>2024-02-08T12:01:25Z</time>
      </trkpt>
      <trkpt lat="42.84518670" lon="13.63692948">
        <ele>104.00000</ele>
        <time>2024-02-08T12:01:26Z</time>
      </trkpt>
      <trkpt lat="42.84519810" lon="13.63683711">
        <ele>104.00000</ele>
        <time>2024-02-08T12:01:27Z</time>
      </trkpt>
      <trkpt lat="42.84520782" lon="13.63674424">
        <ele>104.00000</ele>
        <time>2024-02-08T12:01:28Z</time>
      </trkpt>
      <trkpt lat="42.84521335" lon="13.63666889">
        <ele>104.00000</ele>
        <time>2024-02-08T12:01:29Z</time>
      </trkpt>
      <trkpt lat="42.84522475" lon="13.63657191">
        <ele>105.00000</ele>
        <time>2024-02-08T12:01:30Z</time>
      </trkpt>
      <trkpt lat="42.84523950" lon="13.63644995">
        <ele>105.00000</ele>
        <time>2024-02-08T12:01:31Z</time>
      </trkpt>
      <trkpt lat="42.84525392" lon="13.63634208">
        <ele>105.00000</ele>
        <time>2024-02-08T12:01:32Z</time>
      </trkpt>
      <trkpt lat="42.84527102" lon="13.63623035">
        <ele>106.00000</ele>
        <time>2024-02-08T12:01:33Z</time>
      </trkpt>
      <trkpt lat="42.84528527" lon="13.63613781">
        <ele>106.00000</ele>
        <time>2024-02-08T12:01:34Z</time>
      </trkpt>
      <trkpt lat="42.84530371" lon="13.63601929">
        <ele>106.00000</ele>
        <time>2024-02-08T12:01:35Z</time>
      </trkpt>
      <trkpt lat="42.84532877" lon="13.63587956">
        <ele>106.00000</ele>
        <time>2024-02-08T12:01:36Z</time>
      </trkpt>
      <trkpt lat="42.84535015" lon="13.63576482">
        <ele>106.00000</ele>
        <time>2024-02-08T12:01:37Z</time>
      </trkpt>
      <trkpt lat="42.84537001" lon="13.63565074">
        <ele>106.00000</ele>
        <time>2024-02-08T12:01:38Z</time>
      </trkpt>
      <trkpt lat="42.84538862" lon="13.63556164">
        <ele>105.00000</ele>
        <time>2024-02-08T12:01:39Z</time>
      </trkpt>
      <trkpt lat="42.84542080" lon="13.63545862">
        <ele>105.00000</ele>
        <time>2024-02-08T12:01:40Z</time>
      </trkpt>
      <trkpt lat="42.84546556" lon="13.63536257">
        <ele>104.00000</ele>
        <time>2024-02-08T12:01:41Z</time>
      </trkpt>
      <trkpt lat="42.84553212" lon="13.63525453">
        <ele>104.00000</ele>
        <time>2024-02-08T12:01:42Z</time>
      </trkpt>
      <trkpt lat="42.84558911" lon="13.63516760">
        <ele>103.00000</ele>
        <time>2024-02-08T12:01:43Z</time>
      </trkpt>
      <trkpt lat="42.84564292" lon="13.63508136">
        <ele>103.00000</ele>
        <time>2024-02-08T12:01:44Z</time>
      </trkpt>
      <trkpt lat="42.84568299" lon="13.63500868">
        <ele>103.00000</ele>
        <time>2024-02-08T12:01:45Z</time>
      </trkpt>
      <trkpt lat="42.84573689" lon="13.63491950">
        <ele>103.00000</ele>
        <time>2024-02-08T12:01:46Z</time>
      </trkpt>
      <trkpt lat="42.84580637" lon="13.63481900">
        <ele>103.00000</ele>
        <time>2024-02-08T12:01:47Z</time>
      </trkpt>
      <trkpt lat="42.84587251" lon="13.63473971">
        <ele>102.00000</ele>
        <time>2024-02-08T12:01:48Z</time>
      </trkpt>
      <trkpt lat="42.84594995" lon="13.63467098">
        <ele>102.00000</ele>
        <time>2024-02-08T12:01:49Z</time>
      </trkpt>
      <trkpt lat="42.84602346" lon="13.63463410">
        <ele>102.00000</ele>
        <time>2024-02-08T12:01:50Z</time>
      </trkpt>
      <trkpt lat="42.84612086" lon="13.63460937">
        <ele>101.00000</ele>
        <time>2024-02-08T12:01:51Z</time>
      </trkpt>
      <trkpt lat="42.84622396" lon="13.63460610">
        <ele>101.00000</ele>
        <time>2024-02-08T12:01:52Z</time>
      </trkpt>
      <trkpt lat="42.84635757" lon="13.63462027">
        <ele>101.00000</ele>
        <time>2024-02-08T12:01:53Z</time>
      </trkpt>
      <trkpt lat="42.84647055" lon="13.63463762">
        <ele>100.00000</ele>
        <time>2024-02-08T12:01:54Z</time>
      </trkpt>
      <trkpt lat="42.84655873" lon="13.63464742">
        <ele>99.000000</ele>
        <time>2024-02-08T12:01:55Z</time>
      </trkpt>
      <trkpt lat="42.84666820" lon="13.63466075">
        <ele>97.000000</ele>
        <time>2024-02-08T12:01:56Z</time>
      </trkpt>
      <trkpt lat="42.84678001" lon="13.63467995">
        <ele>93.000000</ele>
        <time>2024-02-08T12:01:57Z</time>
      </trkpt>
      <trkpt lat="42.84691220" lon="13.63469981">
        <ele>89.000000</ele>
        <time>2024-02-08T12:01:58Z</time>
      </trkpt>
      <trkpt lat="42.84702208" lon="13.63471699">
        <ele>86.000000</ele>
        <time>2024-02-08T12:01:59Z</time>
      </trkpt>
      <trkpt lat="42.84712895" lon="13.63473610">
        <ele>85.000000</ele>
        <time>2024-02-08T12:02:00Z</time>
      </trkpt>
      <trkpt lat="42.84721420" lon="13.63474759">
        <ele>84.000000</ele>
        <time>2024-02-08T12:02:01Z</time>
      </trkpt>
      <trkpt lat="42.84731729" lon="13.63476024">
        <ele>84.000000</ele>
        <time>2024-02-08T12:02:02Z</time>
      </trkpt>
      <trkpt lat="42.84743011" lon="13.63477357">
        <ele>84.000000</ele>
        <time>2024-02-08T12:02:03Z</time>
      </trkpt>
      <trkpt lat="42.84752173" lon="13.63478598">
        <ele>85.000000</ele>
        <time>2024-02-08T12:02:04Z</time>
      </trkpt>
      <trkpt lat="42.84761091" lon="13.63479704">
        <ele>86.000000</ele>
        <time>2024-02-08T12:02:05Z</time>
      </trkpt>
      <trkpt lat="42.84769766" lon="13.63480953">
        <ele>87.000000</ele>
        <time>2024-02-08T12:02:06Z</time>
      </trkpt>
      <trkpt lat="42.84778282" lon="13.63482110">
        <ele>88.000000</ele>
        <time>2024-02-08T12:02:07Z</time>
      </trkpt>
      <trkpt lat="42.84786840" lon="13.63483183">
        <ele>90.000000</ele>
        <time>2024-02-08T12:02:08Z</time>
      </trkpt>
      <trkpt lat="42.84795298" lon="13.63484457">
        <ele>91.000000</ele>
        <time>2024-02-08T12:02:09Z</time>
      </trkpt>
      <trkpt lat="42.84803688" lon="13.63485840">
        <ele>92.000000</ele>
        <time>2024-02-08T12:02:10Z</time>
      </trkpt>
      <trkpt lat="42.84812489" lon="13.63487902">
        <ele>93.000000</ele>
        <time>2024-02-08T12:02:11Z</time>
      </trkpt>
      <trkpt lat="42.84821282" lon="13.63490995">
        <ele>95.000000</ele>
        <time>2024-02-08T12:02:12Z</time>
      </trkpt>
      <trkpt lat="42.84829588" lon="13.63494624">
        <ele>96.000000</ele>
        <time>2024-02-08T12:02:13Z</time>
      </trkpt>
      <trkpt lat="42.84837677" lon="13.63498421">
        <ele>97.000000</ele>
        <time>2024-02-08T12:02:14Z</time>
      </trkpt>
      <trkpt lat="42.84845732" lon="13.63503165">
        <ele>98.000000</ele>
        <time>2024-02-08T12:02:15Z</time>
      </trkpt>
      <trkpt lat="42.84854172" lon="13.63508605">
        <ele>98.000000</ele>
        <time>2024-02-08T12:02:16Z</time>
      </trkpt>
      <trkpt lat="42.84863158" lon="13.63514330">
        <ele>99.000000</ele>
        <time>2024-02-08T12:02:17Z</time>
      </trkpt>
      <trkpt lat="42.84871456" lon="13.63519870">
        <ele>99.000000</ele>
        <time>2024-02-08T12:02:18Z</time>
      </trkpt>
      <trkpt lat="42.84879318" lon="13.63525394">
        <ele>99.000000</ele>
        <time>2024-02-08T12:02:19Z</time>
      </trkpt>
      <trkpt lat="42.84886811" lon="13.63530532">
        <ele>99.000000</ele>
        <time>2024-02-08T12:02:20Z</time>
      </trkpt>
      <trkpt lat="42.84894363" lon="13.63535628">
        <ele>99.000000</ele>
        <time>2024-02-08T12:02:21Z</time>
      </trkpt>
      <trkpt lat="42.84901731" lon="13.63540817">
        <ele>99.000000</ele>
        <time>2024-02-08T12:02:22Z</time>
      </trkpt>
      <trkpt lat="42.84908889" lon="13.63546022">
        <ele>99.000000</ele>
        <time>2024-02-08T12:02:23Z</time>
      </trkpt>
      <trkpt lat="42.84914866" lon="13.63549852">
        <ele>99.000000</ele>
        <time>2024-02-08T12:02:24Z</time>
      </trkpt>
      <trkpt lat="42.84923566" lon="13.63555242">
        <ele>99.000000</ele>
        <time>2024-02-08T12:02:25Z</time>
      </trkpt>
      <trkpt lat="42.84930397" lon="13.63559483">
        <ele>100.00000</ele>
        <time>2024-02-08T12:02:26Z</time>
      </trkpt>
      <trkpt lat="42.84937480" lon="13.63562610">
        <ele>101.00000</ele>
        <time>2024-02-08T12:02:27Z</time>
      </trkpt>
      <trkpt lat="42.84943833" lon="13.63564043">
        <ele>101.00000</ele>
        <time>2024-02-08T12:02:28Z</time>
      </trkpt>
      <trkpt lat="42.84951059" lon="13.63564529">
        <ele>101.00000</ele>
        <time>2024-02-08T12:02:29Z</time>
      </trkpt>
      <trkpt lat="42.84957856" lon="13.63563238">
        <ele>101.00000</ele>
        <time>2024-02-08T12:02:30Z</time>
      </trkpt>
      <trkpt lat="42.84965551" lon="13.63560598">
        <ele>101.00000</ele>
        <time>2024-02-08T12:02:31Z</time>
      </trkpt>
      <trkpt lat="42.84971712" lon="13.63557144">
        <ele>101.00000</ele>
        <time>2024-02-08T12:02:32Z</time>
      </trkpt>
      <trkpt lat="42.84976112" lon="13.63553356">
        <ele>102.00000</ele>
        <time>2024-02-08T12:02:33Z</time>
      </trkpt>
      <trkpt lat="42.84982231" lon="13.63546424">
        <ele>102.00000</ele>
        <time>2024-02-08T12:02:34Z</time>
      </trkpt>
      <trkpt lat="42.84986271" lon="13.63539861">
        <ele>102.00000</ele>
        <time>2024-02-08T12:02:35Z</time>
      </trkpt>
      <trkpt lat="42.84989548" lon="13.63532770">
        <ele>102.00000</ele>
        <time>2024-02-08T12:02:36Z</time>
      </trkpt>
      <trkpt lat="42.84992155" lon="13.63525444">
        <ele>103.00000</ele>
        <time>2024-02-08T12:02:37Z</time>
      </trkpt>
      <trkpt lat="42.84994301" lon="13.63517825">
        <ele>103.00000</ele>
        <time>2024-02-08T12:02:38Z</time>
      </trkpt>
      <trkpt lat="42.84995961" lon="13.63510097">
        <ele>103.00000</ele>
        <time>2024-02-08T12:02:39Z</time>
      </trkpt>
      <trkpt lat="42.84997184" lon="13.63502126">
        <ele>103.00000</ele>
        <time>2024-02-08T12:02:40Z</time>
      </trkpt>
      <trkpt lat="42.84997964" lon="13.63493685">
        <ele>104.00000</ele>
        <time>2024-02-08T12:02:41Z</time>
      </trkpt>
      <trkpt lat="42.84998701" lon="13.63484859">
        <ele>104.00000</ele>
        <time>2024-02-08T12:02:42Z</time>
      </trkpt>
      <trkpt lat="42.84999271" lon="13.63475874">
        <ele>104.00000</ele>
        <time>2024-02-08T12:02:43Z</time>
      </trkpt>
      <trkpt lat="42.84999816" lon="13.63466913">
        <ele>105.00000</ele>
        <time>2024-02-08T12:02:44Z</time>
      </trkpt>
      <trkpt lat="42.85000017" lon="13.63457869">
        <ele>105.00000</ele>
        <time>2024-02-08T12:02:45Z</time>
      </trkpt>
      <trkpt lat="42.84999841" lon="13.63448683">
        <ele>105.00000</ele>
        <time>2024-02-08T12:02:46Z</time>
      </trkpt>
      <trkpt lat="42.85000017" lon="13.63439697">
        <ele>105.00000</ele>
        <time>2024-02-08T12:02:47Z</time>
      </trkpt>
      <trkpt lat="42.85000260" lon="13.63430930">
        <ele>105.00000</ele>
        <time>2024-02-08T12:02:48Z</time>
      </trkpt>
      <trkpt lat="42.85000730" lon="13.63422196">
        <ele>105.00000</ele>
        <time>2024-02-08T12:02:49Z</time>
      </trkpt>
      <trkpt lat="42.85000973" lon="13.63413227">
        <ele>106.00000</ele>
        <time>2024-02-08T12:02:50Z</time>
      </trkpt>
      <trkpt lat="42.85001182" lon="13.63404141">
        <ele>106.00000</ele>
        <time>2024-02-08T12:02:51Z</time>
      </trkpt>
      <trkpt lat="42.85001543" lon="13.63395340">
        <ele>106.00000</ele>
        <time>2024-02-08T12:02:52Z</time>
      </trkpt>
      <trkpt lat="42.85001970" lon="13.63386791">
        <ele>106.00000</ele>
        <time>2024-02-08T12:02:53Z</time>
      </trkpt>
      <trkpt lat="42.85002348" lon="13.63378032">
        <ele>106.00000</ele>
        <time>2024-02-08T12:02:54Z</time>
      </trkpt>
      <trkpt lat="42.85002599" lon="13.63369465">
        <ele>106.00000</ele>
        <time>2024-02-08T12:02:55Z</time>
      </trkpt>
      <trkpt lat="42.85002574" lon="13.63360924">
        <ele>107.00000</ele>
        <time>2024-02-08T12:02:56Z</time>
      </trkpt>
      <trkpt lat="42.85002767" lon="13.63352425">
        <ele>107.00000</ele>
        <time>2024-02-08T12:02:57Z</time>
      </trkpt>
      <trkpt lat="42.85003035" lon="13.63343984">
        <ele>107.00000</ele>
        <time>2024-02-08T12:02:58Z</time>
      </trkpt>
      <trkpt lat="42.85003622" lon="13.63335703">
        <ele>107.00000</ele>
        <time>2024-02-08T12:02:59Z</time>
      </trkpt>
      <trkpt lat="42.85003655" lon="13.63327313">
        <ele>107.00000</ele>
        <time>2024-02-08T12:03:00Z</time>
      </trkpt>
      <trkpt lat="42.85003806" lon="13.63319031">
        <ele>107.00000</ele>
        <time>2024-02-08T12:03:01Z</time>
      </trkpt>
      <trkpt lat="42.85004359" lon="13.63310909">
        <ele>107.00000</ele>
        <time>2024-02-08T12:03:02Z</time>
      </trkpt>
      <trkpt lat="42.85004787" lon="13.63302695">
        <ele>108.00000</ele>
        <time>2024-02-08T12:03:03Z</time>
      </trkpt>
      <trkpt lat="42.85004946" lon="13.63294531">
        <ele>108.00000</ele>
        <time>2024-02-08T12:03:04Z</time>
      </trkpt>
      <trkpt lat="42.85005122" lon="13.63286686">
        <ele>108.00000</ele>
        <time>2024-02-08T12:03:05Z</time>
      </trkpt>
      <trkpt lat="42.85005080" lon="13.63278279">
        <ele>108.00000</ele>
        <time>2024-02-08T12:03:06Z</time>
      </trkpt>
      <trkpt lat="42.85005331" lon="13.63269997">
        <ele>107.00000</ele>
        <time>2024-02-08T12:03:07Z</time>
      </trkpt>
      <trkpt lat="42.85005700" lon="13.63261423">
        <ele>107.00000</ele>
        <time>2024-02-08T12:03:08Z</time>
      </trkpt>
      <trkpt lat="42.85006203" lon="13.63252974">
        <ele>107.00000</ele>
        <time>2024-02-08T12:03:09Z</time>
      </trkpt>
      <trkpt lat="42.85006916" lon="13.63244340">
        <ele>107.00000</ele>
        <time>2024-02-08T12:03:10Z</time>
      </trkpt>
      <trkpt lat="42.85007536" lon="13.63237207">
        <ele>107.00000</ele>
        <time>2024-02-08T12:03:11Z</time>
      </trkpt>
      <trkpt lat="42.85008022" lon="13.63228138">
        <ele>107.00000</ele>
        <time>2024-02-08T12:03:12Z</time>
      </trkpt>
      <trkpt lat="42.85008240" lon="13.63217032">
        <ele>107.00000</ele>
        <time>2024-02-08T12:03:13Z</time>
      </trkpt>
      <trkpt lat="42.85008299" lon="13.63207804">
        <ele>107.00000</ele>
        <time>2024-02-08T12:03:14Z</time>
      </trkpt>
      <trkpt lat="42.85008181" lon="13.63200277">
        <ele>107.00000</ele>
        <time>2024-02-08T12:03:15Z</time>
      </trkpt>
      <trkpt lat="42.85008181" lon="13.63188927">
        <ele>107.00000</ele>
        <time>2024-02-08T12:03:16Z</time>
      </trkpt>
      <trkpt lat="42.85008466" lon="13.63179473">
        <ele>108.00000</ele>
        <time>2024-02-08T12:03:17Z</time>
      </trkpt>
      <trkpt lat="42.85008634" lon="13.63169901">
        <ele>108.00000</ele>
        <time>2024-02-08T12:03:18Z</time>
      </trkpt>
      <trkpt lat="42.85008902" lon="13.63160295">
        <ele>108.00000</ele>
        <time>2024-02-08T12:03:19Z</time>
      </trkpt>
      <trkpt lat="42.85008978" lon="13.63150781">
        <ele>108.00000</ele>
        <time>2024-02-08T12:03:20Z</time>
      </trkpt>
      <trkpt lat="42.85008827" lon="13.63140941">
        <ele>109.00000</ele>
        <time>2024-02-08T12:03:21Z</time>
      </trkpt>
      <trkpt lat="42.85008852" lon="13.63131143">
        <ele>109.00000</ele>
        <time>2024-02-08T12:03:22Z</time>
      </trkpt>
      <trkpt lat="42.85009212" lon="13.63121369">
        <ele>110.00000</ele>
        <time>2024-02-08T12:03:23Z</time>
      </trkpt>
      <trkpt lat="42.85009497" lon="13.63111554">
        <ele>110.00000</ele>
        <time>2024-02-08T12:03:24Z</time>
      </trkpt>
      <trkpt lat="42.85009732" lon="13.63101672">
        <ele>111.00000</ele>
        <time>2024-02-08T12:03:25Z</time>
      </trkpt>
      <trkpt lat="42.85009933" lon="13.63091630">
        <ele>111.00000</ele>
        <time>2024-02-08T12:03:26Z</time>
      </trkpt>
      <trkpt lat="42.85010176" lon="13.63081539">
        <ele>112.00000</ele>
        <time>2024-02-08T12:03:27Z</time>
      </trkpt>
      <trkpt lat="42.85010268" lon="13.63071497">
        <ele>112.00000</ele>
        <time>2024-02-08T12:03:28Z</time>
      </trkpt>
      <trkpt lat="42.85010243" lon="13.63061447">
        <ele>112.00000</ele>
        <time>2024-02-08T12:03:29Z</time>
      </trkpt>
      <trkpt lat="42.85010478" lon="13.63051640">
        <ele>112.00000</ele>
        <time>2024-02-08T12:03:30Z</time>
      </trkpt>
      <trkpt lat="42.85010562" lon="13.63041741">
        <ele>112.00000</ele>
        <time>2024-02-08T12:03:31Z</time>
      </trkpt>
      <trkpt lat="42.85010595" lon="13.63031800">
        <ele>111.00000</ele>
        <time>2024-02-08T12:03:32Z</time>
      </trkpt>
      <trkpt lat="42.85010503" lon="13.63021868">
        <ele>111.00000</ele>
        <time>2024-02-08T12:03:33Z</time>
      </trkpt>
      <trkpt lat="42.85010444" lon="13.63013788">
        <ele>111.00000</ele>
        <time>2024-02-08T12:03:34Z</time>
      </trkpt>
      <trkpt lat="42.85010587" lon="13.63003578">
        <ele>111.00000</ele>
        <time>2024-02-08T12:03:35Z</time>
      </trkpt>
      <trkpt lat="42.85011350" lon="13.62991743">
        <ele>111.00000</ele>
        <time>2024-02-08T12:03:36Z</time>
      </trkpt>
      <trkpt lat="42.85012054" lon="13.62982129">
        <ele>111.00000</ele>
        <time>2024-02-08T12:03:37Z</time>
      </trkpt>
      <trkpt lat="42.85012221" lon="13.62972079">
        <ele>111.00000</ele>
        <time>2024-02-08T12:03:38Z</time>
      </trkpt>
      <trkpt lat="42.85012263" lon="13.62961585">
        <ele>111.00000</ele>
        <time>2024-02-08T12:03:39Z</time>
      </trkpt>
      <trkpt lat="42.85012330" lon="13.62950940">
        <ele>111.00000</ele>
        <time>2024-02-08T12:03:40Z</time>
      </trkpt>
      <trkpt lat="42.85012515" lon="13.62940580">
        <ele>112.00000</ele>
        <time>2024-02-08T12:03:41Z</time>
      </trkpt>
      <trkpt lat="42.85012967" lon="13.62930329">
        <ele>112.00000</ele>
        <time>2024-02-08T12:03:42Z</time>
      </trkpt>
      <trkpt lat="42.85013437" lon="13.62920246">
        <ele>112.00000</ele>
        <time>2024-02-08T12:03:43Z</time>
      </trkpt>
      <trkpt lat="42.85013814" lon="13.62910162">
        <ele>113.00000</ele>
        <time>2024-02-08T12:03:44Z</time>
      </trkpt>
      <trkpt lat="42.85013990" lon="13.62900054">
        <ele>113.00000</ele>
        <time>2024-02-08T12:03:45Z</time>
      </trkpt>
      <trkpt lat="42.85014493" lon="13.62890071">
        <ele>114.00000</ele>
        <time>2024-02-08T12:03:46Z</time>
      </trkpt>
      <trkpt lat="42.85014912" lon="13.62880398">
        <ele>114.00000</ele>
        <time>2024-02-08T12:03:47Z</time>
      </trkpt>
      <trkpt lat="42.85015138" lon="13.62870709">
        <ele>114.00000</ele>
        <time>2024-02-08T12:03:48Z</time>
      </trkpt>
      <trkpt lat="42.85015247" lon="13.62860944">
        <ele>114.00000</ele>
        <time>2024-02-08T12:03:49Z</time>
      </trkpt>
      <trkpt lat="42.85015289" lon="13.62851229">
        <ele>115.00000</ele>
        <time>2024-02-08T12:03:50Z</time>
      </trkpt>
      <trkpt lat="42.85016027" lon="13.62842277">
        <ele>115.00000</ele>
        <time>2024-02-08T12:03:51Z</time>
      </trkpt>
      <trkpt lat="42.85016421" lon="13.62833091">
        <ele>116.00000</ele>
        <time>2024-02-08T12:03:52Z</time>
      </trkpt>
      <trkpt lat="42.85016655" lon="13.62823527">
        <ele>116.00000</ele>
        <time>2024-02-08T12:03:53Z</time>
      </trkpt>
      <trkpt lat="42.85016940" lon="13.62813904">
        <ele>116.00000</ele>
        <time>2024-02-08T12:03:54Z</time>
      </trkpt>
      <trkpt lat="42.85016974" lon="13.62803997">
        <ele>116.00000</ele>
        <time>2024-02-08T12:03:55Z</time>
      </trkpt>
      <trkpt lat="42.85017267" lon="13.62794324">
        <ele>116.00000</ele>
        <time>2024-02-08T12:03:56Z</time>
      </trkpt>
      <trkpt lat="42.85017301" lon="13.62784375">
        <ele>116.00000</ele>
        <time>2024-02-08T12:03:57Z</time>
      </trkpt>
      <trkpt lat="42.85017569" lon="13.62774501">
        <ele>117.00000</ele>
        <time>2024-02-08T12:03:58Z</time>
      </trkpt>
      <trkpt lat="42.85017846" lon="13.62764535">
        <ele>117.00000</ele>
        <time>2024-02-08T12:03:59Z</time>
      </trkpt>
      <trkpt lat="42.85018365" lon="13.62754452">
        <ele>117.00000</ele>
        <time>2024-02-08T12:04:00Z</time>
      </trkpt>
      <trkpt lat="42.85018952" lon="13.62744469">
        <ele>118.00000</ele>
        <time>2024-02-08T12:04:01Z</time>
      </trkpt>
      <trkpt lat="42.85019690" lon="13.62734561">
        <ele>119.00000</ele>
        <time>2024-02-08T12:04:02Z</time>
      </trkpt>
      <trkpt lat="42.85020461" lon="13.62724771">
        <ele>119.00000</ele>
        <time>2024-02-08T12:04:03Z</time>
      </trkpt>
      <trkpt lat="42.85021366" lon="13.62714990">
        <ele>119.00000</ele>
        <time>2024-02-08T12:04:04Z</time>
      </trkpt>
      <trkpt lat="42.85021726" lon="13.62704789">
        <ele>119.00000</ele>
        <time>2024-02-08T12:04:05Z</time>
      </trkpt>
      <trkpt lat="42.85021509" lon="13.62694479">
        <ele>119.00000</ele>
        <time>2024-02-08T12:04:06Z</time>
      </trkpt>
      <trkpt lat="42.85021676" lon="13.62684463">
        <ele>118.00000</ele>
        <time>2024-02-08T12:04:07Z</time>
      </trkpt>
      <trkpt lat="42.85021844" lon="13.62674371">
        <ele>117.00000</ele>
        <time>2024-02-08T12:04:08Z</time>
      </trkpt>
      <trkpt lat="42.85022095" lon="13.62664137">
        <ele>116.00000</ele>
        <time>2024-02-08T12:04:09Z</time>
      </trkpt>
      <trkpt lat="42.85022405" lon="13.62653793">
        <ele>116.00000</ele>
        <time>2024-02-08T12:04:10Z</time>
      </trkpt>
      <trkpt lat="42.85022330" lon="13.62643408">
        <ele>115.00000</ele>
        <time>2024-02-08T12:04:11Z</time>
      </trkpt>
      <trkpt lat="42.85022296" lon="13.62633065">
        <ele>115.00000</ele>
        <time>2024-02-08T12:04:12Z</time>
      </trkpt>
      <trkpt lat="42.85022481" lon="13.62622772">
        <ele>115.00000</ele>
        <time>2024-02-08T12:04:13Z</time>
      </trkpt>
      <trkpt lat="42.85022749" lon="13.62612546">
        <ele>115.00000</ele>
        <time>2024-02-08T12:04:14Z</time>
      </trkpt>
      <trkpt lat="42.85023017" lon="13.62604332">
        <ele>115.00000</ele>
        <time>2024-02-08T12:04:15Z</time>
      </trkpt>
      <trkpt lat="42.85023185" lon="13.62594064">
        <ele>116.00000</ele>
        <time>2024-02-08T12:04:16Z</time>
      </trkpt>
      <trkpt lat="42.85023235" lon="13.62581709">
        <ele>116.00000</ele>
        <time>2024-02-08T12:04:17Z</time>
      </trkpt>
      <trkpt lat="42.85023411" lon="13.62573528">
        <ele>116.00000</ele>
        <time>2024-02-08T12:04:18Z</time>
      </trkpt>
      <trkpt lat="42.85023772" lon="13.62561140">
        <ele>116.00000</ele>
        <time>2024-02-08T12:04:19Z</time>
      </trkpt>
      <trkpt lat="42.85024157" lon="13.62550972">
        <ele>116.00000</ele>
        <time>2024-02-08T12:04:20Z</time>
      </trkpt>
      <trkpt lat="42.85024493" lon="13.62542951">
        <ele>116.00000</ele>
        <time>2024-02-08T12:04:21Z</time>
      </trkpt>
      <trkpt lat="42.85024803" lon="13.62533077">
        <ele>116.00000</ele>
        <time>2024-02-08T12:04:22Z</time>
      </trkpt>
      <trkpt lat="42.85025130" lon="13.62523220">
        <ele>116.00000</ele>
        <time>2024-02-08T12:04:23Z</time>
      </trkpt>
      <trkpt lat="42.85025322" lon="13.62513212">
        <ele>116.00000</ele>
        <time>2024-02-08T12:04:24Z</time>
      </trkpt>
      <trkpt lat="42.85025540" lon="13.62503254">
        <ele>116.00000</ele>
        <time>2024-02-08T12:04:25Z</time>
      </trkpt>
      <trkpt lat="42.85025951" lon="13.62493179">
        <ele>116.00000</ele>
        <time>2024-02-08T12:04:26Z</time>
      </trkpt>
      <trkpt lat="42.85026119" lon="13.62480891">
        <ele>116.00000</ele>
        <time>2024-02-08T12:04:27Z</time>
      </trkpt>
      <trkpt lat="42.85026504" lon="13.62471101">
        <ele>116.00000</ele>
        <time>2024-02-08T12:04:28Z</time>
      </trkpt>
      <trkpt lat="42.85027284" lon="13.62463918">
        <ele>116.00000</ele>
        <time>2024-02-08T12:04:29Z</time>
      </trkpt>
      <trkpt lat="42.85027870" lon="13.62454614">
        <ele>116.00000</ele>
        <time>2024-02-08T12:04:30Z</time>
      </trkpt>
      <trkpt lat="42.85028248" lon="13.62445553">
        <ele>116.00000</ele>
        <time>2024-02-08T12:04:31Z</time>
      </trkpt>
      <trkpt lat="42.85028533" lon="13.62436484">
        <ele>117.00000</ele>
        <time>2024-02-08T12:04:32Z</time>
      </trkpt>
      <trkpt lat="42.85028859" lon="13.62425537">
        <ele>117.00000</ele>
        <time>2024-02-08T12:04:33Z</time>
      </trkpt>
      <trkpt lat="42.85029228" lon="13.62416669">
        <ele>117.00000</ele>
        <time>2024-02-08T12:04:34Z</time>
      </trkpt>
      <trkpt lat="42.85029605" lon="13.62409729">
        <ele>117.00000</ele>
        <time>2024-02-08T12:04:35Z</time>
      </trkpt>
      <trkpt lat="42.85030268" lon="13.62401247">
        <ele>117.00000</ele>
        <time>2024-02-08T12:04:36Z</time>
      </trkpt>
      <trkpt lat="42.85030720" lon="13.62392814">
        <ele>117.00000</ele>
        <time>2024-02-08T12:04:37Z</time>
      </trkpt>
      <trkpt lat="42.85031156" lon="13.62382790">
        <ele>117.00000</ele>
        <time>2024-02-08T12:04:38Z</time>
      </trkpt>
      <trkpt lat="42.85031215" lon="13.62374332">
        <ele>116.00000</ele>
        <time>2024-02-08T12:04:39Z</time>
      </trkpt>
      <trkpt lat="42.85031701" lon="13.62366252">
        <ele>116.00000</ele>
        <time>2024-02-08T12:04:40Z</time>
      </trkpt>
      <trkpt lat="42.85032514" lon="13.62360083">
        <ele>116.00000</ele>
        <time>2024-02-08T12:04:41Z</time>
      </trkpt>
      <trkpt lat="42.85034299" lon="13.62353151">
        <ele>115.00000</ele>
        <time>2024-02-08T12:04:42Z</time>
      </trkpt>
      <trkpt lat="42.85035959" lon="13.62346462">
        <ele>115.00000</ele>
        <time>2024-02-08T12:04:43Z</time>
      </trkpt>
      <trkpt lat="42.85037694" lon="13.62339464">
        <ele>115.00000</ele>
        <time>2024-02-08T12:04:44Z</time>
      </trkpt>
      <trkpt lat="42.85038172" lon="13.62331744">
        <ele>114.00000</ele>
        <time>2024-02-08T12:04:45Z</time>
      </trkpt>
      <trkpt lat="42.85036973" lon="13.62323630">
        <ele>114.00000</ele>
        <time>2024-02-08T12:04:46Z</time>
      </trkpt>
      <trkpt lat="42.85035448" lon="13.62315516">
        <ele>114.00000</ele>
        <time>2024-02-08T12:04:47Z</time>
      </trkpt>
      <trkpt lat="42.85033780" lon="13.62305316">
        <ele>114.00000</ele>
        <time>2024-02-08T12:04:48Z</time>
      </trkpt>
      <trkpt lat="42.85033428" lon="13.62296163">
        <ele>114.00000</ele>
        <time>2024-02-08T12:04:49Z</time>
      </trkpt>
      <trkpt lat="42.85033889" lon="13.62286498">
        <ele>114.00000</ele>
        <time>2024-02-08T12:04:50Z</time>
      </trkpt>
      <trkpt lat="42.85034249" lon="13.62276884">
        <ele>114.00000</ele>
        <time>2024-02-08T12:04:51Z</time>
      </trkpt>
      <trkpt lat="42.85033805" lon="13.62268947">
        <ele>114.00000</ele>
        <time>2024-02-08T12:04:52Z</time>
      </trkpt>
      <trkpt lat="42.85034123" lon="13.62259450">
        <ele>114.00000</ele>
        <time>2024-02-08T12:04:53Z</time>
      </trkpt>
      <trkpt lat="42.85034157" lon="13.62247581">
        <ele>114.00000</ele>
        <time>2024-02-08T12:04:54Z</time>
      </trkpt>
      <trkpt lat="42.85034358" lon="13.62237833">
        <ele>114.00000</ele>
        <time>2024-02-08T12:04:55Z</time>
      </trkpt>
      <trkpt lat="42.85034249" lon="13.62227926">
        <ele>114.00000</ele>
        <time>2024-02-08T12:04:56Z</time>
      </trkpt>
      <trkpt lat="42.85034425" lon="13.62220181">
        <ele>114.00000</ele>
        <time>2024-02-08T12:04:57Z</time>
      </trkpt>
      <trkpt lat="42.85034576" lon="13.62210500">
        <ele>114.00000</ele>
        <time>2024-02-08T12:04:58Z</time>
      </trkpt>
      <trkpt lat="42.85034827" lon="13.62200810">
        <ele>114.00000</ele>
        <time>2024-02-08T12:04:59Z</time>
      </trkpt>
      <trkpt lat="42.85034903" lon="13.62188925">
        <ele>115.00000</ele>
        <time>2024-02-08T12:05:00Z</time>
      </trkpt>
      <trkpt lat="42.85035230" lon="13.62178833">
        <ele>115.00000</ele>
        <time>2024-02-08T12:05:01Z</time>
      </trkpt>
      <trkpt lat="42.85035473" lon="13.62168498">
        <ele>116.00000</ele>
        <time>2024-02-08T12:05:02Z</time>
      </trkpt>
      <trkpt lat="42.85035481" lon="13.62160258">
        <ele>116.00000</ele>
        <time>2024-02-08T12:05:03Z</time>
      </trkpt>
      <trkpt lat="42.85035565" lon="13.62150024">
        <ele>117.00000</ele>
        <time>2024-02-08T12:05:04Z</time>
      </trkpt>
      <trkpt lat="42.85035758" lon="13.62139983">
        <ele>118.00000</ele>
        <time>2024-02-08T12:05:05Z</time>
      </trkpt>
      <trkpt lat="42.85036043" lon="13.62128030">
        <ele>118.00000</ele>
        <time>2024-02-08T12:05:06Z</time>
      </trkpt>
      <trkpt lat="42.85036412" lon="13.62117880">
        <ele>119.00000</ele>
        <time>2024-02-08T12:05:07Z</time>
      </trkpt>
      <trkpt lat="42.85036856" lon="13.62109850">
        <ele>119.00000</ele>
        <time>2024-02-08T12:05:08Z</time>
      </trkpt>
      <trkpt lat="42.85037308" lon="13.62099842">
        <ele>119.00000</ele>
        <time>2024-02-08T12:05:09Z</time>
      </trkpt>
      <trkpt lat="42.85037660" lon="13.62087721">
        <ele>119.00000</ele>
        <time>2024-02-08T12:05:10Z</time>
      </trkpt>
      <trkpt lat="42.85037803" lon="13.62077554">
        <ele>119.00000</ele>
        <time>2024-02-08T12:05:11Z</time>
      </trkpt>
      <trkpt lat="42.85037987" lon="13.62067169">
        <ele>119.00000</ele>
        <time>2024-02-08T12:05:12Z</time>
      </trkpt>
      <trkpt lat="42.85038256" lon="13.62059097">
        <ele>119.00000</ele>
        <time>2024-02-08T12:05:13Z</time>
      </trkpt>
      <trkpt lat="42.85038608" lon="13.62049072">
        <ele>119.00000</ele>
        <time>2024-02-08T12:05:14Z</time>
      </trkpt>
      <trkpt lat="42.85038985" lon="13.62036927">
        <ele>118.00000</ele>
        <time>2024-02-08T12:05:15Z</time>
      </trkpt>
      <trkpt lat="42.85039194" lon="13.62026601">
        <ele>118.00000</ele>
        <time>2024-02-08T12:05:16Z</time>
      </trkpt>
      <trkpt lat="42.85039463" lon="13.62016182">
        <ele>119.00000</ele>
        <time>2024-02-08T12:05:17Z</time>
      </trkpt>
      <trkpt lat="42.85039882" lon="13.62005797">
        <ele>119.00000</ele>
        <time>2024-02-08T12:05:18Z</time>
      </trkpt>
      <trkpt lat="42.85040284" lon="13.61995361">
        <ele>119.00000</ele>
        <time>2024-02-08T12:05:19Z</time>
      </trkpt>
      <trkpt lat="42.85040711" lon="13.61984993">
        <ele>119.00000</ele>
        <time>2024-02-08T12:05:20Z</time>
      </trkpt>
      <trkpt lat="42.85041189" lon="13.61974960">
        <ele>119.00000</ele>
        <time>2024-02-08T12:05:21Z</time>
      </trkpt>
      <trkpt lat="42.85041307" lon="13.61964960">
        <ele>120.00000</ele>
        <time>2024-02-08T12:05:22Z</time>
      </trkpt>
      <trkpt lat="42.85041709" lon="13.61955069">
        <ele>120.00000</ele>
        <time>2024-02-08T12:05:23Z</time>
      </trkpt>
      <trkpt lat="42.85041768" lon="13.61944634">
        <ele>120.00000</ele>
        <time>2024-02-08T12:05:24Z</time>
      </trkpt>
      <trkpt lat="42.85042002" lon="13.61934383">
        <ele>120.00000</ele>
        <time>2024-02-08T12:05:25Z</time>
      </trkpt>
      <trkpt lat="42.85042069" lon="13.61924358">
        <ele>120.00000</ele>
        <time>2024-02-08T12:05:26Z</time>
      </trkpt>
      <trkpt lat="42.85042086" lon="13.61914685">
        <ele>120.00000</ele>
        <time>2024-02-08T12:05:27Z</time>
      </trkpt>
      <trkpt lat="42.85041885" lon="13.61905382">
        <ele>119.00000</ele>
        <time>2024-02-08T12:05:28Z</time>
      </trkpt>
      <trkpt lat="42.85041382" lon="13.61896136">
        <ele>119.00000</ele>
        <time>2024-02-08T12:05:29Z</time>
      </trkpt>
      <trkpt lat="42.85041172" lon="13.61888542">
        <ele>119.00000</ele>
        <time>2024-02-08T12:05:30Z</time>
      </trkpt>
      <trkpt lat="42.85040795" lon="13.61877193">
        <ele>119.00000</ele>
        <time>2024-02-08T12:05:31Z</time>
      </trkpt>
      <trkpt lat="42.85040326" lon="13.61867386">
        <ele>119.00000</ele>
        <time>2024-02-08T12:05:32Z</time>
      </trkpt>
      <trkpt lat="42.85040217" lon="13.61857621">
        <ele>118.00000</ele>
        <time>2024-02-08T12:05:33Z</time>
      </trkpt>
      <trkpt lat="42.85040133" lon="13.61847965">
        <ele>118.00000</ele>
        <time>2024-02-08T12:05:34Z</time>
      </trkpt>
      <trkpt lat="42.85040158" lon="13.61838318">
        <ele>118.00000</ele>
        <time>2024-02-08T12:05:35Z</time>
      </trkpt>
      <trkpt lat="42.85040368" lon="13.61828788">
        <ele>118.00000</ele>
        <time>2024-02-08T12:05:36Z</time>
      </trkpt>
      <trkpt lat="42.85041038" lon="13.61819366">
        <ele>119.00000</ele>
        <time>2024-02-08T12:05:37Z</time>
      </trkpt>
      <trkpt lat="42.85043478" lon="13.61810859">
        <ele>119.00000</ele>
        <time>2024-02-08T12:05:38Z</time>
      </trkpt>
      <trkpt lat="42.85046411" lon="13.61802678">
        <ele>119.00000</ele>
        <time>2024-02-08T12:05:39Z</time>
      </trkpt>
      <trkpt lat="42.85048213" lon="13.61794514">
        <ele>119.00000</ele>
        <time>2024-02-08T12:05:40Z</time>
      </trkpt>
      <trkpt lat="42.85048465" lon="13.61787934">
        <ele>119.00000</ele>
        <time>2024-02-08T12:05:41Z</time>
      </trkpt>
      <trkpt lat="42.85047844" lon="13.61778530">
        <ele>120.00000</ele>
        <time>2024-02-08T12:05:42Z</time>
      </trkpt>
      <trkpt lat="42.85047275" lon="13.61770567">
        <ele>120.00000</ele>
        <time>2024-02-08T12:05:43Z</time>
      </trkpt>
      <trkpt lat="42.85046973" lon="13.61762210">
        <ele>120.00000</ele>
        <time>2024-02-08T12:05:44Z</time>
      </trkpt>
      <trkpt lat="42.85047057" lon="13.61755169">
        <ele>121.00000</ele>
        <time>2024-02-08T12:05:45Z</time>
      </trkpt>
      <trkpt lat="42.85047627" lon="13.61746184">
        <ele>121.00000</ele>
        <time>2024-02-08T12:05:46Z</time>
      </trkpt>
      <trkpt lat="42.85048649" lon="13.61734986">
        <ele>121.00000</ele>
        <time>2024-02-08T12:05:47Z</time>
      </trkpt>
      <trkpt lat="42.85049621" lon="13.61725615">
        <ele>121.00000</ele>
        <time>2024-02-08T12:05:48Z</time>
      </trkpt>
      <trkpt lat="42.85050451" lon="13.61716026">
        <ele>121.00000</ele>
        <time>2024-02-08T12:05:49Z</time>
      </trkpt>
      <trkpt lat="42.85050275" lon="13.61708197">
        <ele>121.00000</ele>
        <time>2024-02-08T12:05:50Z</time>
      </trkpt>
      <trkpt lat="42.85051130" lon="13.61698390">
        <ele>121.00000</ele>
        <time>2024-02-08T12:05:51Z</time>
      </trkpt>
      <trkpt lat="42.85051910" lon="13.61688609">
        <ele>121.00000</ele>
        <time>2024-02-08T12:05:52Z</time>
      </trkpt>
      <trkpt lat="42.85052027" lon="13.61678576">
        <ele>121.00000</ele>
        <time>2024-02-08T12:05:53Z</time>
      </trkpt>
      <trkpt lat="42.85051918" lon="13.61666464">
        <ele>122.00000</ele>
        <time>2024-02-08T12:05:54Z</time>
      </trkpt>
      <trkpt lat="42.85051591" lon="13.61658719">
        <ele>122.00000</ele>
        <time>2024-02-08T12:05:55Z</time>
      </trkpt>
      <trkpt lat="42.85051390" lon="13.61649205">
        <ele>122.00000</ele>
        <time>2024-02-08T12:05:56Z</time>
      </trkpt>
      <trkpt lat="42.85051482" lon="13.61640153">
        <ele>122.00000</ele>
        <time>2024-02-08T12:05:57Z</time>
      </trkpt>
      <trkpt lat="42.85051608" lon="13.61629500">
        <ele>121.00000</ele>
        <time>2024-02-08T12:05:58Z</time>
      </trkpt>
      <trkpt lat="42.85051591" lon="13.61622350">
        <ele>121.00000</ele>
        <time>2024-02-08T12:05:59Z</time>
      </trkpt>
      <trkpt lat="42.85051717" lon="13.61613909">
        <ele>121.00000</ele>
        <time>2024-02-08T12:06:00Z</time>
      </trkpt>
      <trkpt lat="42.85051650" lon="13.61606139">
        <ele>121.00000</ele>
        <time>2024-02-08T12:06:01Z</time>
      </trkpt>
      <trkpt lat="42.85051558" lon="13.61599442">
        <ele>121.00000</ele>
        <time>2024-02-08T12:06:02Z</time>
      </trkpt>
      <trkpt lat="42.85051248" lon="13.61592502">
        <ele>121.00000</ele>
        <time>2024-02-08T12:06:03Z</time>
      </trkpt>
      <trkpt lat="42.85051407" lon="13.61587816">
        <ele>121.00000</ele>
        <time>2024-02-08T12:06:04Z</time>
      </trkpt>
      <trkpt lat="42.85051734" lon="13.61583089">
        <ele>121.00000</ele>
        <time>2024-02-08T12:06:05Z</time>
      </trkpt>
      <trkpt lat="42.85052119" lon="13.61578982">
        <ele>122.00000</ele>
        <time>2024-02-08T12:06:06Z</time>
      </trkpt>
      <trkpt lat="42.85052983" lon="13.61573156">
        <ele>122.00000</ele>
        <time>2024-02-08T12:06:07Z</time>
      </trkpt>
      <trkpt lat="42.85054047" lon="13.61564808">
        <ele>123.00000</ele>
        <time>2024-02-08T12:06:08Z</time>
      </trkpt>
      <trkpt lat="42.85054433" lon="13.61556460">
        <ele>123.00000</ele>
        <time>2024-02-08T12:06:09Z</time>
      </trkpt>
      <trkpt lat="42.85054567" lon="13.61547675">
        <ele>124.00000</ele>
        <time>2024-02-08T12:06:10Z</time>
      </trkpt>
      <trkpt lat="42.85054634" lon="13.61540811">
        <ele>125.00000</ele>
        <time>2024-02-08T12:06:11Z</time>
      </trkpt>
      <trkpt lat="42.85054751" lon="13.61532504">
        <ele>125.00000</ele>
        <time>2024-02-08T12:06:12Z</time>
      </trkpt>
      <trkpt lat="42.85054977" lon="13.61524349">
        <ele>125.00000</ele>
        <time>2024-02-08T12:06:13Z</time>
      </trkpt>
      <trkpt lat="42.85054676" lon="13.61514793">
        <ele>125.00000</ele>
        <time>2024-02-08T12:06:14Z</time>
      </trkpt>
      <trkpt lat="42.85054734" lon="13.61505892">
        <ele>125.00000</ele>
        <time>2024-02-08T12:06:15Z</time>
      </trkpt>
      <trkpt lat="42.85054701" lon="13.61498264">
        <ele>125.00000</ele>
        <time>2024-02-08T12:06:16Z</time>
      </trkpt>
      <trkpt lat="42.85055254" lon="13.61488793">
        <ele>125.00000</ele>
        <time>2024-02-08T12:06:17Z</time>
      </trkpt>
      <trkpt lat="42.85055732" lon="13.61479606">
        <ele>125.00000</ele>
        <time>2024-02-08T12:06:18Z</time>
      </trkpt>
      <trkpt lat="42.85056260" lon="13.61471375">
        <ele>125.00000</ele>
        <time>2024-02-08T12:06:19Z</time>
      </trkpt>
      <trkpt lat="42.85056184" lon="13.61460856">
        <ele>126.00000</ele>
        <time>2024-02-08T12:06:20Z</time>
      </trkpt>
      <trkpt lat="42.85056503" lon="13.61452113">
        <ele>126.00000</ele>
        <time>2024-02-08T12:06:21Z</time>
      </trkpt>
      <trkpt lat="42.85056972" lon="13.61445173">
        <ele>126.00000</ele>
        <time>2024-02-08T12:06:22Z</time>
      </trkpt>
      <trkpt lat="42.85057693" lon="13.61436364">
        <ele>127.00000</ele>
        <time>2024-02-08T12:06:23Z</time>
      </trkpt>
      <trkpt lat="42.85058238" lon="13.61427462">
        <ele>127.00000</ele>
        <time>2024-02-08T12:06:24Z</time>
      </trkpt>
      <trkpt lat="42.85057878" lon="13.61416331">
        <ele>127.00000</ele>
        <time>2024-02-08T12:06:25Z</time>
      </trkpt>
      <trkpt lat="42.85057903" lon="13.61406750">
        <ele>127.00000</ele>
        <time>2024-02-08T12:06:26Z</time>
      </trkpt>
      <trkpt lat="42.85058137" lon="13.61399031">
        <ele>127.00000</ele>
        <time>2024-02-08T12:06:27Z</time>
      </trkpt>
      <trkpt lat="42.85058422" lon="13.61389626">
        <ele>127.00000</ele>
        <time>2024-02-08T12:06:28Z</time>
      </trkpt>
      <trkpt lat="42.85058531" lon="13.61379979">
        <ele>127.00000</ele>
        <time>2024-02-08T12:06:29Z</time>
      </trkpt>
      <trkpt lat="42.85059202" lon="13.61368445">
        <ele>127.00000</ele>
        <time>2024-02-08T12:06:30Z</time>
      </trkpt>
      <trkpt lat="42.85059730" lon="13.61360885">
        <ele>126.00000</ele>
        <time>2024-02-08T12:06:31Z</time>
      </trkpt>
      <trkpt lat="42.85059923" lon="13.61350600">
        <ele>126.00000</ele>
        <time>2024-02-08T12:06:32Z</time>
      </trkpt>
      <trkpt lat="42.85060141" lon="13.61338010">
        <ele>125.00000</ele>
        <time>2024-02-08T12:06:33Z</time>
      </trkpt>
      <trkpt lat="42.85060183" lon="13.61327491">
        <ele>125.00000</ele>
        <time>2024-02-08T12:06:34Z</time>
      </trkpt>
      <trkpt lat="42.85060040" lon="13.61316938">
        <ele>124.00000</ele>
        <time>2024-02-08T12:06:35Z</time>
      </trkpt>
      <trkpt lat="42.85060149" lon="13.61306662">
        <ele>123.00000</ele>
        <time>2024-02-08T12:06:36Z</time>
      </trkpt>
      <trkpt lat="42.85060568" lon="13.61296302">
        <ele>123.00000</ele>
        <time>2024-02-08T12:06:37Z</time>
      </trkpt>
      <trkpt lat="42.85060954" lon="13.61285950">
        <ele>123.00000</ele>
        <time>2024-02-08T12:06:38Z</time>
      </trkpt>
      <trkpt lat="42.85061264" lon="13.61275565">
        <ele>123.00000</ele>
        <time>2024-02-08T12:06:39Z</time>
      </trkpt>
      <trkpt lat="42.85061616" lon="13.61265080">
        <ele>124.00000</ele>
        <time>2024-02-08T12:06:40Z</time>
      </trkpt>
      <trkpt lat="42.85061909" lon="13.61254686">
        <ele>124.00000</ele>
        <time>2024-02-08T12:06:41Z</time>
      </trkpt>
      <trkpt lat="42.85062236" lon="13.61244326">
        <ele>125.00000</ele>
        <time>2024-02-08T12:06:42Z</time>
      </trkpt>
      <trkpt lat="42.85062471" lon="13.61233714">
        <ele>125.00000</ele>
        <time>2024-02-08T12:06:43Z</time>
      </trkpt>
      <trkpt lat="42.85062798" lon="13.61223053">
        <ele>126.00000</ele>
        <time>2024-02-08T12:06:44Z</time>
      </trkpt>
      <trkpt lat="42.85063552" lon="13.61212550">
        <ele>125.00000</ele>
        <time>2024-02-08T12:06:45Z</time>
      </trkpt>
      <trkpt lat="42.85064550" lon="13.61202299">
        <ele>125.00000</ele>
        <time>2024-02-08T12:06:46Z</time>
      </trkpt>
      <trkpt lat="42.85065765" lon="13.61192149">
        <ele>125.00000</ele>
        <time>2024-02-08T12:06:47Z</time>
      </trkpt>
      <trkpt lat="42.85067383" lon="13.61182199">
        <ele>125.00000</ele>
        <time>2024-02-08T12:06:48Z</time>
      </trkpt>
      <trkpt lat="42.85069772" lon="13.61172485">
        <ele>125.00000</ele>
        <time>2024-02-08T12:06:49Z</time>
      </trkpt>
      <trkpt lat="42.85072194" lon="13.61162820">
        <ele>125.00000</ele>
        <time>2024-02-08T12:06:50Z</time>
      </trkpt>
      <trkpt lat="42.85074692" lon="13.61153349">
        <ele>125.00000</ele>
        <time>2024-02-08T12:06:51Z</time>
      </trkpt>
      <trkpt lat="42.85077014" lon="13.61144196">
        <ele>126.00000</ele>
        <time>2024-02-08T12:06:52Z</time>
      </trkpt>
      <trkpt lat="42.85079654" lon="13.61135135">
        <ele>126.00000</ele>
        <time>2024-02-08T12:06:53Z</time>
      </trkpt>
      <trkpt lat="42.85082428" lon="13.61126233">
        <ele>126.00000</ele>
        <time>2024-02-08T12:06:54Z</time>
      </trkpt>
      <trkpt lat="42.85084825" lon="13.61117340">
        <ele>127.00000</ele>
        <time>2024-02-08T12:06:55Z</time>
      </trkpt>
      <trkpt lat="42.85086913" lon="13.61108187">
        <ele>127.00000</ele>
        <time>2024-02-08T12:06:56Z</time>
      </trkpt>
      <trkpt lat="42.85088991" lon="13.61099378">
        <ele>128.00000</ele>
        <time>2024-02-08T12:06:57Z</time>
      </trkpt>
      <trkpt lat="42.85091103" lon="13.61090635">
        <ele>129.00000</ele>
        <time>2024-02-08T12:06:58Z</time>
      </trkpt>
      <trkpt lat="42.85093459" lon="13.61081851">
        <ele>130.00000</ele>
        <time>2024-02-08T12:06:59Z</time>
      </trkpt>
      <trkpt lat="42.85095990" lon="13.61073402">
        <ele>130.00000</ele>
        <time>2024-02-08T12:07:00Z</time>
      </trkpt>
      <trkpt lat="42.85098304" lon="13.61065196">
        <ele>131.00000</ele>
        <time>2024-02-08T12:07:01Z</time>
      </trkpt>
      <trkpt lat="42.85100776" lon="13.61057208">
        <ele>131.00000</ele>
        <time>2024-02-08T12:07:02Z</time>
      </trkpt>
      <trkpt lat="42.85103023" lon="13.61049287">
        <ele>131.00000</ele>
        <time>2024-02-08T12:07:03Z</time>
      </trkpt>
      <trkpt lat="42.85105277" lon="13.61041367">
        <ele>131.00000</ele>
        <time>2024-02-08T12:07:04Z</time>
      </trkpt>
      <trkpt lat="42.85107725" lon="13.61033714">
        <ele>131.00000</ele>
        <time>2024-02-08T12:07:05Z</time>
      </trkpt>
      <trkpt lat="42.85109912" lon="13.61025852">
        <ele>131.00000</ele>
        <time>2024-02-08T12:07:06Z</time>
      </trkpt>
      <trkpt lat="42.85112469" lon="13.61018283">
        <ele>131.00000</ele>
        <time>2024-02-08T12:07:07Z</time>
      </trkpt>
      <trkpt lat="42.85115101" lon="13.61010915">
        <ele>131.00000</ele>
        <time>2024-02-08T12:07:08Z</time>
      </trkpt>
      <trkpt lat="42.85117180" lon="13.61003137">
        <ele>131.00000</ele>
        <time>2024-02-08T12:07:09Z</time>
      </trkpt>
      <trkpt lat="42.85119359" lon="13.60995258">
        <ele>131.00000</ele>
        <time>2024-02-08T12:07:10Z</time>
      </trkpt>
      <trkpt lat="42.85121496" lon="13.60987412">
        <ele>131.00000</ele>
        <time>2024-02-08T12:07:11Z</time>
      </trkpt>
      <trkpt lat="42.85123768" lon="13.60979651">
        <ele>131.00000</ele>
        <time>2024-02-08T12:07:12Z</time>
      </trkpt>
      <trkpt lat="42.85126048" lon="13.60971990">
        <ele>131.00000</ele>
        <time>2024-02-08T12:07:13Z</time>
      </trkpt>
      <trkpt lat="42.85128353" lon="13.60964002">
        <ele>130.00000</ele>
        <time>2024-02-08T12:07:14Z</time>
      </trkpt>
      <trkpt lat="42.85130809" lon="13.60955905">
        <ele>129.00000</ele>
        <time>2024-02-08T12:07:15Z</time>
      </trkpt>
      <trkpt lat="42.85133357" lon="13.60948084">
        <ele>129.00000</ele>
        <time>2024-02-08T12:07:16Z</time>
      </trkpt>
      <trkpt lat="42.85135528" lon="13.60939954">
        <ele>128.00000</ele>
        <time>2024-02-08T12:07:17Z</time>
      </trkpt>
      <trkpt lat="42.85137975" lon="13.60931807">
        <ele>128.00000</ele>
        <time>2024-02-08T12:07:18Z</time>
      </trkpt>
      <trkpt lat="42.85140196" lon="13.60923559">
        <ele>127.00000</ele>
        <time>2024-02-08T12:07:19Z</time>
      </trkpt>
      <trkpt lat="42.85142417" lon="13.60915470">
        <ele>127.00000</ele>
        <time>2024-02-08T12:07:20Z</time>
      </trkpt>
      <trkpt lat="42.85144857" lon="13.60907290">
        <ele>126.00000</ele>
        <time>2024-02-08T12:07:21Z</time>
      </trkpt>
      <trkpt lat="42.85147438" lon="13.60899318">
        <ele>126.00000</ele>
        <time>2024-02-08T12:07:22Z</time>
      </trkpt>
      <trkpt lat="42.85150079" lon="13.60891398">
        <ele>126.00000</ele>
        <time>2024-02-08T12:07:23Z</time>
      </trkpt>
      <trkpt lat="42.85152526" lon="13.60883569">
        <ele>126.00000</ele>
        <time>2024-02-08T12:07:24Z</time>
      </trkpt>
      <trkpt lat="42.85155099" lon="13.60875606">
        <ele>127.00000</ele>
        <time>2024-02-08T12:07:25Z</time>
      </trkpt>
      <trkpt lat="42.85157446" lon="13.60867769">
        <ele>127.00000</ele>
        <time>2024-02-08T12:07:26Z</time>
      </trkpt>
      <trkpt lat="42.85159592" lon="13.60859957">
        <ele>128.00000</ele>
        <time>2024-02-08T12:07:27Z</time>
      </trkpt>
      <trkpt lat="42.85161922" lon="13.60852187">
        <ele>128.00000</ele>
        <time>2024-02-08T12:07:28Z</time>
      </trkpt>
      <trkpt lat="42.85164336" lon="13.60844442">
        <ele>128.00000</ele>
        <time>2024-02-08T12:07:29Z</time>
      </trkpt>
      <trkpt lat="42.85166767" lon="13.60836639">
        <ele>129.00000</ele>
        <time>2024-02-08T12:07:30Z</time>
      </trkpt>
      <trkpt lat="42.85169307" lon="13.60828885">
        <ele>129.00000</ele>
        <time>2024-02-08T12:07:31Z</time>
      </trkpt>
      <trkpt lat="42.85171612" lon="13.60821132">
        <ele>129.00000</ele>
        <time>2024-02-08T12:07:32Z</time>
      </trkpt>
      <trkpt lat="42.85174101" lon="13.60813236">
        <ele>129.00000</ele>
        <time>2024-02-08T12:07:33Z</time>
      </trkpt>
      <trkpt lat="42.85176440" lon="13.60805450">
        <ele>129.00000</ele>
        <time>2024-02-08T12:07:34Z</time>
      </trkpt>
      <trkpt lat="42.85178728" lon="13.60797621">
        <ele>130.00000</ele>
        <time>2024-02-08T12:07:35Z</time>
      </trkpt>
      <trkpt lat="42.85181226" lon="13.60789583">
        <ele>130.00000</ele>
        <time>2024-02-08T12:07:36Z</time>
      </trkpt>
      <trkpt lat="42.85183799" lon="13.60781737">
        <ele>130.00000</ele>
        <time>2024-02-08T12:07:37Z</time>
      </trkpt>
      <trkpt lat="42.85186314" lon="13.60773967">
        <ele>130.00000</ele>
        <time>2024-02-08T12:07:38Z</time>
      </trkpt>
      <trkpt lat="42.85188702" lon="13.60766021">
        <ele>131.00000</ele>
        <time>2024-02-08T12:07:39Z</time>
      </trkpt>
      <trkpt lat="42.85190815" lon="13.60757983">
        <ele>131.00000</ele>
        <time>2024-02-08T12:07:40Z</time>
      </trkpt>
      <trkpt lat="42.85193145" lon="13.60749785">
        <ele>131.00000</ele>
        <time>2024-02-08T12:07:41Z</time>
      </trkpt>
      <trkpt lat="42.85195433" lon="13.60741747">
        <ele>132.00000</ele>
        <time>2024-02-08T12:07:42Z</time>
      </trkpt>
      <trkpt lat="42.85197755" lon="13.60733893">
        <ele>132.00000</ele>
        <time>2024-02-08T12:07:43Z</time>
      </trkpt>
      <trkpt lat="42.85200320" lon="13.60726065">
        <ele>132.00000</ele>
        <time>2024-02-08T12:07:44Z</time>
      </trkpt>
      <trkpt lat="42.85202918" lon="13.60718294">
        <ele>132.00000</ele>
        <time>2024-02-08T12:07:45Z</time>
      </trkpt>
      <trkpt lat="42.85205449" lon="13.60710441">
        <ele>133.00000</ele>
        <time>2024-02-08T12:07:46Z</time>
      </trkpt>
      <trkpt lat="42.85207947" lon="13.60702461">
        <ele>134.00000</ele>
        <time>2024-02-08T12:07:47Z</time>
      </trkpt>
      <trkpt lat="42.85210403" lon="13.60694465">
        <ele>135.00000</ele>
        <time>2024-02-08T12:07:48Z</time>
      </trkpt>
      <trkpt lat="42.85212566" lon="13.60686242">
        <ele>135.00000</ele>
        <time>2024-02-08T12:07:49Z</time>
      </trkpt>
      <trkpt lat="42.85214904" lon="13.60678061">
        <ele>136.00000</ele>
        <time>2024-02-08T12:07:50Z</time>
      </trkpt>
      <trkpt lat="42.85217402" lon="13.60670090">
        <ele>137.00000</ele>
        <time>2024-02-08T12:07:51Z</time>
      </trkpt>
      <trkpt lat="42.85220000" lon="13.60661884">
        <ele>137.00000</ele>
        <time>2024-02-08T12:07:52Z</time>
      </trkpt>
      <trkpt lat="42.85222087" lon="13.60653377">
        <ele>138.00000</ele>
        <time>2024-02-08T12:07:53Z</time>
      </trkpt>
      <trkpt lat="42.85224460" lon="13.60644953">
        <ele>138.00000</ele>
        <time>2024-02-08T12:07:54Z</time>
      </trkpt>
      <trkpt lat="42.85226999" lon="13.60636831">
        <ele>138.00000</ele>
        <time>2024-02-08T12:07:55Z</time>
      </trkpt>
      <trkpt lat="42.85229413" lon="13.60628793">
        <ele>139.00000</ele>
        <time>2024-02-08T12:07:56Z</time>
      </trkpt>
      <trkpt lat="42.85231911" lon="13.60620746">
        <ele>140.00000</ele>
        <time>2024-02-08T12:07:57Z</time>
      </trkpt>
      <trkpt lat="42.85234577" lon="13.60612741">
        <ele>141.00000</ele>
        <time>2024-02-08T12:07:58Z</time>
      </trkpt>
      <trkpt lat="42.85237502" lon="13.60605097">
        <ele>142.00000</ele>
        <time>2024-02-08T12:07:59Z</time>
      </trkpt>
      <trkpt lat="42.85240637" lon="13.60597771">
        <ele>143.00000</ele>
        <time>2024-02-08T12:08:00Z</time>
      </trkpt>
      <trkpt lat="42.85243880" lon="13.60590596">
        <ele>143.00000</ele>
        <time>2024-02-08T12:08:01Z</time>
      </trkpt>
      <trkpt lat="42.85247325" lon="13.60583589">
        <ele>144.00000</ele>
        <time>2024-02-08T12:08:02Z</time>
      </trkpt>
      <trkpt lat="42.85250988" lon="13.60576707">
        <ele>145.00000</ele>
        <time>2024-02-08T12:08:03Z</time>
      </trkpt>
      <trkpt lat="42.85254936" lon="13.60570228">
        <ele>145.00000</ele>
        <time>2024-02-08T12:08:04Z</time>
      </trkpt>
      <trkpt lat="42.85259052" lon="13.60563950">
        <ele>146.00000</ele>
        <time>2024-02-08T12:08:05Z</time>
      </trkpt>
      <trkpt lat="42.85263243" lon="13.60557974">
        <ele>146.00000</ele>
        <time>2024-02-08T12:08:06Z</time>
      </trkpt>
      <trkpt lat="42.85267526" lon="13.60552132">
        <ele>147.00000</ele>
        <time>2024-02-08T12:08:07Z</time>
      </trkpt>
      <trkpt lat="42.85271993" lon="13.60546784">
        <ele>147.00000</ele>
        <time>2024-02-08T12:08:08Z</time>
      </trkpt>
      <trkpt lat="42.85276570" lon="13.60540984">
        <ele>147.00000</ele>
        <time>2024-02-08T12:08:09Z</time>
      </trkpt>
      <trkpt lat="42.85281037" lon="13.60535066">
        <ele>146.00000</ele>
        <time>2024-02-08T12:08:10Z</time>
      </trkpt>
      <trkpt lat="42.85285673" lon="13.60529551">
        <ele>146.00000</ele>
        <time>2024-02-08T12:08:11Z</time>
      </trkpt>
      <trkpt lat="42.85290341" lon="13.60523801">
        <ele>146.00000</ele>
        <time>2024-02-08T12:08:12Z</time>
      </trkpt>
      <trkpt lat="42.85295044" lon="13.60518068">
        <ele>145.00000</ele>
        <time>2024-02-08T12:08:13Z</time>
      </trkpt>
      <trkpt lat="42.85299612" lon="13.60512359">
        <ele>145.00000</ele>
        <time>2024-02-08T12:08:14Z</time>
      </trkpt>
      <trkpt lat="42.85304171" lon="13.60506551">
        <ele>145.00000</ele>
        <time>2024-02-08T12:08:15Z</time>
      </trkpt>
      <trkpt lat="42.85308731" lon="13.60500667">
        <ele>145.00000</ele>
        <time>2024-02-08T12:08:16Z</time>
      </trkpt>
      <trkpt lat="42.85313425" lon="13.60495210">
        <ele>146.00000</ele>
        <time>2024-02-08T12:08:17Z</time>
      </trkpt>
      <trkpt lat="42.85318287" lon="13.60489770">
        <ele>147.00000</ele>
        <time>2024-02-08T12:08:18Z</time>
      </trkpt>
      <trkpt lat="42.85322939" lon="13.60483735">
        <ele>148.00000</ele>
        <time>2024-02-08T12:08:19Z</time>
      </trkpt>
      <trkpt lat="42.85327255" lon="13.60477910">
        <ele>148.00000</ele>
        <time>2024-02-08T12:08:20Z</time>
      </trkpt>
      <trkpt lat="42.85331698" lon="13.60472126">
        <ele>148.00000</ele>
        <time>2024-02-08T12:08:21Z</time>
      </trkpt>
      <trkpt lat="42.85336048" lon="13.60466301">
        <ele>149.00000</ele>
        <time>2024-02-08T12:08:22Z</time>
      </trkpt>
      <trkpt lat="42.85340314" lon="13.60460576">
        <ele>151.00000</ele>
        <time>2024-02-08T12:08:23Z</time>
      </trkpt>
      <trkpt lat="42.85344480" lon="13.60454558">
        <ele>151.00000</ele>
        <time>2024-02-08T12:08:24Z</time>
      </trkpt>
      <trkpt lat="42.85348344" lon="13.60448196">
        <ele>152.00000</ele>
        <time>2024-02-08T12:08:25Z</time>
      </trkpt>
      <trkpt lat="42.85352359" lon="13.60441683">
        <ele>153.00000</ele>
        <time>2024-02-08T12:08:26Z</time>
      </trkpt>
      <trkpt lat="42.85356424" lon="13.60435447">
        <ele>153.00000</ele>
        <time>2024-02-08T12:08:27Z</time>
      </trkpt>
      <trkpt lat="42.85360288" lon="13.60429010">
        <ele>154.00000</ele>
        <time>2024-02-08T12:08:28Z</time>
      </trkpt>
      <trkpt lat="42.85364169" lon="13.60422145">
        <ele>154.00000</ele>
        <time>2024-02-08T12:08:29Z</time>
      </trkpt>
      <trkpt lat="42.85368025" lon="13.60415071">
        <ele>154.00000</ele>
        <time>2024-02-08T12:08:30Z</time>
      </trkpt>
      <trkpt lat="42.85372031" lon="13.60408198">
        <ele>154.00000</ele>
        <time>2024-02-08T12:08:31Z</time>
      </trkpt>
      <trkpt lat="42.85376021" lon="13.60401274">
        <ele>154.00000</ele>
        <time>2024-02-08T12:08:32Z</time>
      </trkpt>
      <trkpt lat="42.85379927" lon="13.60393865">
        <ele>153.00000</ele>
        <time>2024-02-08T12:08:33Z</time>
      </trkpt>
      <trkpt lat="42.85384093" lon="13.60386279">
        <ele>153.00000</ele>
        <time>2024-02-08T12:08:34Z</time>
      </trkpt>
      <trkpt lat="42.85388435" lon="13.60378693">
        <ele>152.00000</ele>
        <time>2024-02-08T12:08:35Z</time>
      </trkpt>
      <trkpt lat="42.85392953" lon="13.60370722">
        <ele>151.00000</ele>
        <time>2024-02-08T12:08:36Z</time>
      </trkpt>
      <trkpt lat="42.85397445" lon="13.60362793">
        <ele>150.00000</ele>
        <time>2024-02-08T12:08:37Z</time>
      </trkpt>
      <trkpt lat="42.85401812" lon="13.60354662">
        <ele>149.00000</ele>
        <time>2024-02-08T12:08:38Z</time>
      </trkpt>
      <trkpt lat="42.85406146" lon="13.60346582">
        <ele>148.00000</ele>
        <time>2024-02-08T12:08:39Z</time>
      </trkpt>
      <trkpt lat="42.85410563" lon="13.60338276">
        <ele>147.00000</ele>
        <time>2024-02-08T12:08:40Z</time>
      </trkpt>
      <trkpt lat="42.85415072" lon="13.60329559">
        <ele>146.00000</ele>
        <time>2024-02-08T12:08:41Z</time>
      </trkpt>
      <trkpt lat="42.85419674" lon="13.60320959">
        <ele>144.00000</ele>
        <time>2024-02-08T12:08:42Z</time>
      </trkpt>
      <trkpt lat="42.85424209" lon="13.60312242">
        <ele>143.00000</ele>
        <time>2024-02-08T12:08:43Z</time>
      </trkpt>
      <trkpt lat="42.85428877" lon="13.60303399">
        <ele>142.00000</ele>
        <time>2024-02-08T12:08:44Z</time>
      </trkpt>
      <trkpt lat="42.85433487" lon="13.60294313">
        <ele>141.00000</ele>
        <time>2024-02-08T12:08:45Z</time>
      </trkpt>
      <trkpt lat="42.85438408" lon="13.60285252">
        <ele>139.00000</ele>
        <time>2024-02-08T12:08:46Z</time>
      </trkpt>
      <trkpt lat="42.85443143" lon="13.60275940">
        <ele>137.00000</ele>
        <time>2024-02-08T12:08:47Z</time>
      </trkpt>
      <trkpt lat="42.85447728" lon="13.60266552">
        <ele>136.00000</ele>
        <time>2024-02-08T12:08:48Z</time>
      </trkpt>
      <trkpt lat="42.85452732" lon="13.60257701">
        <ele>135.00000</ele>
        <time>2024-02-08T12:08:49Z</time>
      </trkpt>
      <trkpt lat="42.85457787" lon="13.60248304">
        <ele>134.00000</ele>
        <time>2024-02-08T12:08:50Z</time>
      </trkpt>
      <trkpt lat="42.85462740" lon="13.60238556">
        <ele>134.00000</ele>
        <time>2024-02-08T12:08:51Z</time>
      </trkpt>
      <trkpt lat="42.85467845" lon="13.60228708">
        <ele>135.00000</ele>
        <time>2024-02-08T12:08:52Z</time>
      </trkpt>
      <trkpt lat="42.85473125" lon="13.60218641">
        <ele>135.00000</ele>
        <time>2024-02-08T12:08:53Z</time>
      </trkpt>
      <trkpt lat="42.85478523" lon="13.60208541">
        <ele>135.00000</ele>
        <time>2024-02-08T12:08:54Z</time>
      </trkpt>
      <trkpt lat="42.85484139" lon="13.60198935">
        <ele>136.00000</ele>
        <time>2024-02-08T12:08:55Z</time>
      </trkpt>
      <trkpt lat="42.85489596" lon="13.60189396">
        <ele>136.00000</ele>
        <time>2024-02-08T12:08:56Z</time>
      </trkpt>
      <trkpt lat="42.85495069" lon="13.60180118">
        <ele>137.00000</ele>
        <time>2024-02-08T12:08:57Z</time>
      </trkpt>
      <trkpt lat="42.85500610" lon="13.60170763">
        <ele>137.00000</ele>
        <time>2024-02-08T12:08:58Z</time>
      </trkpt>
      <trkpt lat="42.85506133" lon="13.60161124">
        <ele>136.00000</ele>
        <time>2024-02-08T12:08:59Z</time>
      </trkpt>
      <trkpt lat="42.85511355" lon="13.60151594">
        <ele>136.00000</ele>
        <time>2024-02-08T12:09:00Z</time>
      </trkpt>
      <trkpt lat="42.85516611" lon="13.60142357">
        <ele>136.00000</ele>
        <time>2024-02-08T12:09:01Z</time>
      </trkpt>
      <trkpt lat="42.85521875" lon="13.60133087">
        <ele>137.00000</ele>
        <time>2024-02-08T12:09:02Z</time>
      </trkpt>
      <trkpt lat="42.85527155" lon="13.60123758">
        <ele>137.00000</ele>
        <time>2024-02-08T12:09:03Z</time>
      </trkpt>
      <trkpt lat="42.85531958" lon="13.60114303">
        <ele>137.00000</ele>
        <time>2024-02-08T12:09:04Z</time>
      </trkpt>
      <trkpt lat="42.85536962" lon="13.60105368">
        <ele>138.00000</ele>
        <time>2024-02-08T12:09:05Z</time>
      </trkpt>
      <trkpt lat="42.85541748" lon="13.60096483">
        <ele>138.00000</ele>
        <time>2024-02-08T12:09:06Z</time>
      </trkpt>
      <trkpt lat="42.85546920" lon="13.60087573">
        <ele>139.00000</ele>
        <time>2024-02-08T12:09:07Z</time>
      </trkpt>
      <trkpt lat="42.85552200" lon="13.60078705">
        <ele>139.00000</ele>
        <time>2024-02-08T12:09:08Z</time>
      </trkpt>
      <trkpt lat="42.85557397" lon="13.60069812">
        <ele>139.00000</ele>
        <time>2024-02-08T12:09:09Z</time>
      </trkpt>
      <trkpt lat="42.85562736" lon="13.60060877">
        <ele>138.00000</ele>
        <time>2024-02-08T12:09:10Z</time>
      </trkpt>
      <trkpt lat="42.85568436" lon="13.60052134">
        <ele>137.00000</ele>
        <time>2024-02-08T12:09:11Z</time>
      </trkpt>
      <trkpt lat="42.85574630" lon="13.60043987">
        <ele>137.00000</ele>
        <time>2024-02-08T12:09:12Z</time>
      </trkpt>
      <trkpt lat="42.85580866" lon="13.60036217">
        <ele>138.00000</ele>
        <time>2024-02-08T12:09:13Z</time>
      </trkpt>
      <trkpt lat="42.85587253" lon="13.60029143">
        <ele>138.00000</ele>
        <time>2024-02-08T12:09:14Z</time>
      </trkpt>
      <trkpt lat="42.85593934" lon="13.60022370">
        <ele>138.00000</ele>
        <time>2024-02-08T12:09:15Z</time>
      </trkpt>
      <trkpt lat="42.85600539" lon="13.60015832">
        <ele>137.00000</ele>
        <time>2024-02-08T12:09:16Z</time>
      </trkpt>
      <trkpt lat="42.85607152" lon="13.60009462">
        <ele>137.00000</ele>
        <time>2024-02-08T12:09:17Z</time>
      </trkpt>
      <trkpt lat="42.85613858" lon="13.60003025">
        <ele>137.00000</ele>
        <time>2024-02-08T12:09:18Z</time>
      </trkpt>
      <trkpt lat="42.85620521" lon="13.59996713">
        <ele>138.00000</ele>
        <time>2024-02-08T12:09:19Z</time>
      </trkpt>
      <trkpt lat="42.85625835" lon="13.59991776">
        <ele>138.00000</ele>
        <time>2024-02-08T12:09:20Z</time>
      </trkpt>
      <trkpt lat="42.85633572" lon="13.59984149">
        <ele>139.00000</ele>
        <time>2024-02-08T12:09:21Z</time>
      </trkpt>
      <trkpt lat="42.85640303" lon="13.59977737">
        <ele>139.00000</ele>
        <time>2024-02-08T12:09:22Z</time>
      </trkpt>
      <trkpt lat="42.85645742" lon="13.59972615">
        <ele>139.00000</ele>
        <time>2024-02-08T12:09:23Z</time>
      </trkpt>
      <trkpt lat="42.85652414" lon="13.59966262">
        <ele>140.00000</ele>
        <time>2024-02-08T12:09:24Z</time>
      </trkpt>
      <trkpt lat="42.85660218" lon="13.59958802">
        <ele>140.00000</ele>
        <time>2024-02-08T12:09:25Z</time>
      </trkpt>
      <trkpt lat="42.85666823" lon="13.59952549">
        <ele>141.00000</ele>
        <time>2024-02-08T12:09:26Z</time>
      </trkpt>
      <trkpt lat="42.85673336" lon="13.59946195">
        <ele>141.00000</ele>
        <time>2024-02-08T12:09:27Z</time>
      </trkpt>
      <trkpt lat="42.85679806" lon="13.59939901">
        <ele>141.00000</ele>
        <time>2024-02-08T12:09:28Z</time>
      </trkpt>
      <trkpt lat="42.85684995" lon="13.59934863">
        <ele>141.00000</ele>
        <time>2024-02-08T12:09:29Z</time>
      </trkpt>
      <trkpt lat="42.85692882" lon="13.59927101">
        <ele>142.00000</ele>
        <time>2024-02-08T12:09:30Z</time>
      </trkpt>
      <trkpt lat="42.85699588" lon="13.59920765">
        <ele>142.00000</ele>
        <time>2024-02-08T12:09:31Z</time>
      </trkpt>
      <trkpt lat="42.85706243" lon="13.59914797">
        <ele>142.00000</ele>
        <time>2024-02-08T12:09:32Z</time>
      </trkpt>
      <trkpt lat="42.85713175" lon="13.59909080">
        <ele>142.00000</ele>
        <time>2024-02-08T12:09:33Z</time>
      </trkpt>
      <trkpt lat="42.85720316" lon="13.59903439">
        <ele>142.00000</ele>
        <time>2024-02-08T12:09:34Z</time>
      </trkpt>
      <trkpt lat="42.85727583" lon="13.59898092">
        <ele>142.00000</ele>
        <time>2024-02-08T12:09:35Z</time>
      </trkpt>
      <trkpt lat="42.85734993" lon="13.59893306">
        <ele>141.00000</ele>
        <time>2024-02-08T12:09:36Z</time>
      </trkpt>
      <trkpt lat="42.85742143" lon="13.59888914">
        <ele>140.00000</ele>
        <time>2024-02-08T12:09:37Z</time>
      </trkpt>
      <trkpt lat="42.85748060" lon="13.59885904">
        <ele>140.00000</ele>
        <time>2024-02-08T12:09:38Z</time>
      </trkpt>
      <trkpt lat="42.85756191" lon="13.59883189">
        <ele>140.00000</ele>
        <time>2024-02-08T12:09:39Z</time>
      </trkpt>
      <trkpt lat="42.85766174" lon="13.59880817">
        <ele>141.00000</ele>
        <time>2024-02-08T12:09:40Z</time>
      </trkpt>
      <trkpt lat="42.85774555" lon="13.59879442">
        <ele>142.00000</ele>
        <time>2024-02-08T12:09:41Z</time>
      </trkpt>
      <trkpt lat="42.85782963" lon="13.59878478">
        <ele>142.00000</ele>
        <time>2024-02-08T12:09:42Z</time>
      </trkpt>
      <trkpt lat="42.85791135" lon="13.59877992">
        <ele>143.00000</ele>
        <time>2024-02-08T12:09:43Z</time>
      </trkpt>
      <trkpt lat="42.85797455" lon="13.59877891">
        <ele>143.00000</ele>
        <time>2024-02-08T12:09:44Z</time>
      </trkpt>
      <trkpt lat="42.85807094" lon="13.59877707">
        <ele>143.00000</ele>
        <time>2024-02-08T12:09:45Z</time>
      </trkpt>
      <trkpt lat="42.85815300" lon="13.59877087">
        <ele>143.00000</ele>
        <time>2024-02-08T12:09:46Z</time>
      </trkpt>
      <trkpt lat="42.85823388" lon="13.59875603">
        <ele>143.00000</ele>
        <time>2024-02-08T12:09:47Z</time>
      </trkpt>
      <trkpt lat="42.85831569" lon="13.59873223">
        <ele>143.00000</ele>
        <time>2024-02-08T12:09:48Z</time>
      </trkpt>
      <trkpt lat="42.85839540" lon="13.59870616">
        <ele>143.00000</ele>
        <time>2024-02-08T12:09:49Z</time>
      </trkpt>
      <trkpt lat="42.85847134" lon="13.59867992">
        <ele>143.00000</ele>
        <time>2024-02-08T12:09:50Z</time>
      </trkpt>
      <trkpt lat="42.85854678" lon="13.59864807">
        <ele>143.00000</ele>
        <time>2024-02-08T12:09:51Z</time>
      </trkpt>
      <trkpt lat="42.85862021" lon="13.59860977">
        <ele>144.00000</ele>
        <time>2024-02-08T12:09:52Z</time>
      </trkpt>
      <trkpt lat="42.85867754" lon="13.59857305">
        <ele>143.00000</ele>
        <time>2024-02-08T12:09:53Z</time>
      </trkpt>
      <trkpt lat="42.85876312" lon="13.59851019">
        <ele>143.00000</ele>
        <time>2024-02-08T12:09:54Z</time>
      </trkpt>
      <trkpt lat="42.85883009" lon="13.59845470">
        <ele>143.00000</ele>
        <time>2024-02-08T12:09:55Z</time>
      </trkpt>
      <trkpt lat="42.85889228" lon="13.59839544">
        <ele>142.00000</ele>
        <time>2024-02-08T12:09:56Z</time>
      </trkpt>
      <trkpt lat="42.85893989" lon="13.59834448">
        <ele>142.00000</ele>
        <time>2024-02-08T12:09:57Z</time>
      </trkpt>
      <trkpt lat="42.85899505" lon="13.59827709">
        <ele>143.00000</ele>
        <time>2024-02-08T12:09:58Z</time>
      </trkpt>
      <trkpt lat="42.85905933" lon="13.59819302">
        <ele>144.00000</ele>
        <time>2024-02-08T12:09:59Z</time>
      </trkpt>
      <trkpt lat="42.85911021" lon="13.59811850">
        <ele>145.00000</ele>
        <time>2024-02-08T12:10:00Z</time>
      </trkpt>
      <trkpt lat="42.85916268" lon="13.59804634">
        <ele>146.00000</ele>
        <time>2024-02-08T12:10:01Z</time>
      </trkpt>
      <trkpt lat="42.85920342" lon="13.59798758">
        <ele>147.00000</ele>
        <time>2024-02-08T12:10:02Z</time>
      </trkpt>
      <trkpt lat="42.85924910" lon="13.59791072">
        <ele>148.00000</ele>
        <time>2024-02-08T12:10:03Z</time>
      </trkpt>
      <trkpt lat="42.85929059" lon="13.59783109">
        <ele>149.00000</ele>
        <time>2024-02-08T12:10:04Z</time>
      </trkpt>
      <trkpt lat="42.85932873" lon="13.59774945">
        <ele>150.00000</ele>
        <time>2024-02-08T12:10:05Z</time>
      </trkpt>
      <trkpt lat="42.85937407" lon="13.59764836">
        <ele>151.00000</ele>
        <time>2024-02-08T12:10:06Z</time>
      </trkpt>
      <trkpt lat="42.85941196" lon="13.59756086">
        <ele>153.00000</ele>
        <time>2024-02-08T12:10:07Z</time>
      </trkpt>
      <trkpt lat="42.85944180" lon="13.59748508">
        <ele>153.00000</ele>
        <time>2024-02-08T12:10:08Z</time>
      </trkpt>
      <trkpt lat="42.85947583" lon="13.59738701">
        <ele>154.00000</ele>
        <time>2024-02-08T12:10:09Z</time>
      </trkpt>
      <trkpt lat="42.85951187" lon="13.59726615">
        <ele>155.00000</ele>
        <time>2024-02-08T12:10:10Z</time>
      </trkpt>
      <trkpt lat="42.85953769" lon="13.59716422">
        <ele>154.00000</ele>
        <time>2024-02-08T12:10:11Z</time>
      </trkpt>
      <trkpt lat="42.85956979" lon="13.59706180">
        <ele>153.00000</ele>
        <time>2024-02-08T12:10:12Z</time>
      </trkpt>
      <trkpt lat="42.85960013" lon="13.59697982">
        <ele>152.00000</ele>
        <time>2024-02-08T12:10:13Z</time>
      </trkpt>
      <trkpt lat="42.85963995" lon="13.59687823">
        <ele>150.00000</ele>
        <time>2024-02-08T12:10:14Z</time>
      </trkpt>
      <trkpt lat="42.85968731" lon="13.59677648">
        <ele>148.00000</ele>
        <time>2024-02-08T12:10:15Z</time>
      </trkpt>
      <trkpt lat="42.85974866" lon="13.59666148">
        <ele>146.00000</ele>
        <time>2024-02-08T12:10:16Z</time>
      </trkpt>
      <trkpt lat="42.85980323" lon="13.59657372">
        <ele>145.00000</ele>
        <time>2024-02-08T12:10:17Z</time>
      </trkpt>
      <trkpt lat="42.85985964" lon="13.59648470">
        <ele>143.00000</ele>
        <time>2024-02-08T12:10:18Z</time>
      </trkpt>
      <trkpt lat="42.85990616" lon="13.59642050">
        <ele>143.00000</ele>
        <time>2024-02-08T12:10:19Z</time>
      </trkpt>
      <trkpt lat="42.85998076" lon="13.59633861">
        <ele>143.00000</ele>
        <time>2024-02-08T12:10:20Z</time>
      </trkpt>
      <trkpt lat="42.86004832" lon="13.59627750">
        <ele>144.00000</ele>
        <time>2024-02-08T12:10:21Z</time>
      </trkpt>
      <trkpt lat="42.86011587" lon="13.59621715">
        <ele>144.00000</ele>
        <time>2024-02-08T12:10:22Z</time>
      </trkpt>
      <trkpt lat="42.86018276" lon="13.59615873">
        <ele>144.00000</ele>
        <time>2024-02-08T12:10:23Z</time>
      </trkpt>
      <trkpt lat="42.86023515" lon="13.59611347">
        <ele>144.00000</ele>
        <time>2024-02-08T12:10:24Z</time>
      </trkpt>
      <trkpt lat="42.86030162" lon="13.59606184">
        <ele>144.00000</ele>
        <time>2024-02-08T12:10:25Z</time>
      </trkpt>
      <trkpt lat="42.86037680" lon="13.59600165">
        <ele>145.00000</ele>
        <time>2024-02-08T12:10:26Z</time>
      </trkpt>
      <trkpt lat="42.86043623" lon="13.59595723">
        <ele>146.00000</ele>
        <time>2024-02-08T12:10:27Z</time>
      </trkpt>
      <trkpt lat="42.86048401" lon="13.59592513">
        <ele>146.00000</ele>
        <time>2024-02-08T12:10:28Z</time>
      </trkpt>
      <trkpt lat="42.86054218" lon="13.59588389">
        <ele>146.00000</ele>
        <time>2024-02-08T12:10:29Z</time>
      </trkpt>
      <trkpt lat="42.86059708" lon="13.59584357">
        <ele>146.00000</ele>
        <time>2024-02-08T12:10:30Z</time>
      </trkpt>
      <trkpt lat="42.86066346" lon="13.59579470">
        <ele>146.00000</ele>
        <time>2024-02-08T12:10:31Z</time>
      </trkpt>
      <trkpt lat="42.86071593" lon="13.59575271">
        <ele>146.00000</ele>
        <time>2024-02-08T12:10:32Z</time>
      </trkpt>
      <trkpt lat="42.86075575" lon="13.59571860">
        <ele>146.00000</ele>
        <time>2024-02-08T12:10:33Z</time>
      </trkpt>
      <trkpt lat="42.86080453" lon="13.59567677">
        <ele>146.00000</ele>
        <time>2024-02-08T12:10:34Z</time>
      </trkpt>
      <trkpt lat="42.86086304" lon="13.59562941">
        <ele>146.00000</ele>
        <time>2024-02-08T12:10:35Z</time>
      </trkpt>
      <trkpt lat="42.86091165" lon="13.59558910">
        <ele>146.00000</ele>
        <time>2024-02-08T12:10:36Z</time>
      </trkpt>
      <trkpt lat="42.86096060" lon="13.59555087">
        <ele>146.00000</ele>
        <time>2024-02-08T12:10:37Z</time>
      </trkpt>
      <trkpt lat="42.86099857" lon="13.59551919">
        <ele>147.00000</ele>
        <time>2024-02-08T12:10:38Z</time>
      </trkpt>
      <trkpt lat="42.86104660" lon="13.59547678">
        <ele>147.00000</ele>
        <time>2024-02-08T12:10:39Z</time>
      </trkpt>
      <trkpt lat="42.86110301" lon="13.59542255">
        <ele>148.00000</ele>
        <time>2024-02-08T12:10:40Z</time>
      </trkpt>
      <trkpt lat="42.86114760" lon="13.59537335">
        <ele>149.00000</ele>
        <time>2024-02-08T12:10:41Z</time>
      </trkpt>
      <trkpt lat="42.86119270" lon="13.59532297">
        <ele>149.00000</ele>
        <time>2024-02-08T12:10:42Z</time>
      </trkpt>
      <trkpt lat="42.86122933" lon="13.59528408">
        <ele>150.00000</ele>
        <time>2024-02-08T12:10:43Z</time>
      </trkpt>
      <trkpt lat="42.86127459" lon="13.59523504">
        <ele>150.00000</ele>
        <time>2024-02-08T12:10:44Z</time>
      </trkpt>
      <trkpt lat="42.86131868" lon="13.59518744">
        <ele>150.00000</ele>
        <time>2024-02-08T12:10:45Z</time>
      </trkpt>
      <trkpt lat="42.86137416" lon="13.59512826">
        <ele>150.00000</ele>
        <time>2024-02-08T12:10:46Z</time>
      </trkpt>
      <trkpt lat="42.86141381" lon="13.59508492">
        <ele>150.00000</ele>
        <time>2024-02-08T12:10:47Z</time>
      </trkpt>
      <trkpt lat="42.86146276" lon="13.59503111">
        <ele>151.00000</ele>
        <time>2024-02-08T12:10:48Z</time>
      </trkpt>
      <trkpt lat="42.86151397" lon="13.59497814">
        <ele>151.00000</ele>
        <time>2024-02-08T12:10:49Z</time>
      </trkpt>
      <trkpt lat="42.86157818" lon="13.59491402">
        <ele>151.00000</ele>
        <time>2024-02-08T12:10:50Z</time>
      </trkpt>
      <trkpt lat="42.86163283" lon="13.59486297">
        <ele>151.00000</ele>
        <time>2024-02-08T12:10:51Z</time>
      </trkpt>
      <trkpt lat="42.86168932" lon="13.59481570">
        <ele>151.00000</ele>
        <time>2024-02-08T12:10:52Z</time>
      </trkpt>
      <trkpt lat="42.86174490" lon="13.59476591">
        <ele>152.00000</ele>
        <time>2024-02-08T12:10:53Z</time>
      </trkpt>
      <trkpt lat="42.86179561" lon="13.59471361">
        <ele>153.00000</ele>
        <time>2024-02-08T12:10:54Z</time>
      </trkpt>
      <trkpt lat="42.86184925" lon="13.59466088">
        <ele>154.00000</ele>
        <time>2024-02-08T12:10:55Z</time>
      </trkpt>
      <trkpt lat="42.86190273" lon="13.59460615">
        <ele>155.00000</ele>
        <time>2024-02-08T12:10:56Z</time>
      </trkpt>
      <trkpt lat="42.86195411" lon="13.59455276">
        <ele>155.00000</ele>
        <time>2024-02-08T12:10:57Z</time>
      </trkpt>
      <trkpt lat="42.86200733" lon="13.59450574">
        <ele>157.00000</ele>
        <time>2024-02-08T12:10:58Z</time>
      </trkpt>
      <trkpt lat="42.86205754" lon="13.59445477">
        <ele>158.00000</ele>
        <time>2024-02-08T12:10:59Z</time>
      </trkpt>
      <trkpt lat="42.86210440" lon="13.59439903">
        <ele>158.00000</ele>
        <time>2024-02-08T12:11:00Z</time>
      </trkpt>
      <trkpt lat="42.86214832" lon="13.59433726">
        <ele>159.00000</ele>
        <time>2024-02-08T12:11:01Z</time>
      </trkpt>
      <trkpt lat="42.86219283" lon="13.59427054">
        <ele>159.00000</ele>
        <time>2024-02-08T12:11:02Z</time>
      </trkpt>
      <trkpt lat="42.86223675" lon="13.59420348">
        <ele>159.00000</ele>
        <time>2024-02-08T12:11:03Z</time>
      </trkpt>
      <trkpt lat="42.86227748" lon="13.59413484">
        <ele>158.00000</ele>
        <time>2024-02-08T12:11:04Z</time>
      </trkpt>
      <trkpt lat="42.86231746" lon="13.59407038">
        <ele>157.00000</ele>
        <time>2024-02-08T12:11:05Z</time>
      </trkpt>
      <trkpt lat="42.86235175" lon="13.59400358">
        <ele>156.00000</ele>
        <time>2024-02-08T12:11:06Z</time>
      </trkpt>
      <trkpt lat="42.86237840" lon="13.59393468">
        <ele>155.00000</ele>
        <time>2024-02-08T12:11:07Z</time>
      </trkpt>
      <trkpt lat="42.86240053" lon="13.59386469">
        <ele>154.00000</ele>
        <time>2024-02-08T12:11:08Z</time>
      </trkpt>
      <trkpt lat="42.86242710" lon="13.59379621">
        <ele>154.00000</ele>
        <time>2024-02-08T12:11:09Z</time>
      </trkpt>
      <trkpt lat="42.86245535" lon="13.59372706">
        <ele>154.00000</ele>
        <time>2024-02-08T12:11:10Z</time>
      </trkpt>
      <trkpt lat="42.86248552" lon="13.59365765">
        <ele>154.00000</ele>
        <time>2024-02-08T12:11:11Z</time>
      </trkpt>
      <trkpt lat="42.86251662" lon="13.59358842">
        <ele>154.00000</ele>
        <time>2024-02-08T12:11:12Z</time>
      </trkpt>
      <trkpt lat="42.86254520" lon="13.59351860">
        <ele>155.00000</ele>
        <time>2024-02-08T12:11:13Z</time>
      </trkpt>
      <trkpt lat="42.86257202" lon="13.59344534">
        <ele>155.00000</ele>
        <time>2024-02-08T12:11:14Z</time>
      </trkpt>
      <trkpt lat="42.86259541" lon="13.59337292">
        <ele>155.00000</ele>
        <time>2024-02-08T12:11:15Z</time>
      </trkpt>
      <trkpt lat="42.86261485" lon="13.59329941">
        <ele>156.00000</ele>
        <time>2024-02-08T12:11:16Z</time>
      </trkpt>
      <trkpt lat="42.86263396" lon="13.59322347">
        <ele>156.00000</ele>
        <time>2024-02-08T12:11:17Z</time>
      </trkpt>
      <trkpt lat="42.86265215" lon="13.59314921">
        <ele>157.00000</ele>
        <time>2024-02-08T12:11:18Z</time>
      </trkpt>
      <trkpt lat="42.86266783" lon="13.59307427">
        <ele>157.00000</ele>
        <time>2024-02-08T12:11:19Z</time>
      </trkpt>
      <trkpt lat="42.86268291" lon="13.59300361">
        <ele>157.00000</ele>
        <time>2024-02-08T12:11:20Z</time>
      </trkpt>
      <trkpt lat="42.86269599" lon="13.59293228">
        <ele>158.00000</ele>
        <time>2024-02-08T12:11:21Z</time>
      </trkpt>
      <trkpt lat="42.86270739" lon="13.59285903">
        <ele>159.00000</ele>
        <time>2024-02-08T12:11:22Z</time>
      </trkpt>
      <trkpt lat="42.86271753" lon="13.59278845">
        <ele>159.00000</ele>
        <time>2024-02-08T12:11:23Z</time>
      </trkpt>
      <trkpt lat="42.86272918" lon="13.59271880">
        <ele>160.00000</ele>
        <time>2024-02-08T12:11:24Z</time>
      </trkpt>
      <trkpt lat="42.86273497" lon="13.59265870">
        <ele>161.00000</ele>
        <time>2024-02-08T12:11:25Z</time>
      </trkpt>
      <trkpt lat="42.86274083" lon="13.59256792">
        <ele>161.00000</ele>
        <time>2024-02-08T12:11:26Z</time>
      </trkpt>
      <trkpt lat="42.86274880" lon="13.59249718">
        <ele>162.00000</ele>
        <time>2024-02-08T12:11:27Z</time>
      </trkpt>
      <trkpt lat="42.86275575" lon="13.59242577">
        <ele>162.00000</ele>
        <time>2024-02-08T12:11:28Z</time>
      </trkpt>
      <trkpt lat="42.86276422" lon="13.59235226">
        <ele>163.00000</ele>
        <time>2024-02-08T12:11:29Z</time>
      </trkpt>
      <trkpt lat="42.86276715" lon="13.59227539">
        <ele>164.00000</ele>
        <time>2024-02-08T12:11:30Z</time>
      </trkpt>
      <trkpt lat="42.86276497" lon="13.59221228">
        <ele>164.00000</ele>
        <time>2024-02-08T12:11:31Z</time>
      </trkpt>
      <trkpt lat="42.86275601" lon="13.59211714">
        <ele>165.00000</ele>
        <time>2024-02-08T12:11:32Z</time>
      </trkpt>
      <trkpt lat="42.86274863" lon="13.59203492">
        <ele>165.00000</ele>
        <time>2024-02-08T12:11:33Z</time>
      </trkpt>
      <trkpt lat="42.86274008" lon="13.59195386">
        <ele>165.00000</ele>
        <time>2024-02-08T12:11:34Z</time>
      </trkpt>
      <trkpt lat="42.86273119" lon="13.59187214">
        <ele>166.00000</ele>
        <time>2024-02-08T12:11:35Z</time>
      </trkpt>
      <trkpt lat="42.86272021" lon="13.59180551">
        <ele>166.00000</ele>
        <time>2024-02-08T12:11:36Z</time>
      </trkpt>
      <trkpt lat="42.86270161" lon="13.59170610">
        <ele>165.00000</ele>
        <time>2024-02-08T12:11:37Z</time>
      </trkpt>
      <trkpt lat="42.86268903" lon="13.59162345">
        <ele>165.00000</ele>
        <time>2024-02-08T12:11:38Z</time>
      </trkpt>
      <trkpt lat="42.86267428" lon="13.59154298">
        <ele>165.00000</ele>
        <time>2024-02-08T12:11:39Z</time>
      </trkpt>
      <trkpt lat="42.86265936" lon="13.59147744">
        <ele>165.00000</ele>
        <time>2024-02-08T12:11:40Z</time>
      </trkpt>
      <trkpt lat="42.86264679" lon="13.59139831">
        <ele>164.00000</ele>
        <time>2024-02-08T12:11:41Z</time>
      </trkpt>
      <trkpt lat="42.86263782" lon="13.59130402">
        <ele>166.00000</ele>
        <time>2024-02-08T12:11:42Z</time>
      </trkpt>
      <trkpt lat="42.86263153" lon="13.59122489">
        <ele>167.00000</ele>
        <time>2024-02-08T12:11:43Z</time>
      </trkpt>
      <trkpt lat="42.86261335" lon="13.59113898">
        <ele>168.00000</ele>
        <time>2024-02-08T12:11:44Z</time>
      </trkpt>
      <trkpt lat="42.86259591" lon="13.59105532">
        <ele>169.00000</ele>
        <time>2024-02-08T12:11:45Z</time>
      </trkpt>
      <trkpt lat="42.86258728" lon="13.59097427">
        <ele>170.00000</ele>
        <time>2024-02-08T12:11:46Z</time>
      </trkpt>
      <trkpt lat="42.86257403" lon="13.59088886">
        <ele>171.00000</ele>
        <time>2024-02-08T12:11:47Z</time>
      </trkpt>
      <trkpt lat="42.86256188" lon="13.59080286">
        <ele>171.00000</ele>
        <time>2024-02-08T12:11:48Z</time>
      </trkpt>
      <trkpt lat="42.86254545" lon="13.59072097">
        <ele>170.00000</ele>
        <time>2024-02-08T12:11:49Z</time>
      </trkpt>
      <trkpt lat="42.86253011" lon="13.59063874">
        <ele>169.00000</ele>
        <time>2024-02-08T12:11:50Z</time>
      </trkpt>
      <trkpt lat="42.86250974" lon="13.59055157">
        <ele>168.00000</ele>
        <time>2024-02-08T12:11:51Z</time>
      </trkpt>
      <trkpt lat="42.86248988" lon="13.59047027">
        <ele>168.00000</ele>
        <time>2024-02-08T12:11:52Z</time>
      </trkpt>
      <trkpt lat="42.86246842" lon="13.59037941">
        <ele>168.00000</ele>
        <time>2024-02-08T12:11:53Z</time>
      </trkpt>
      <trkpt lat="42.86245040" lon="13.59030758">
        <ele>167.00000</ele>
        <time>2024-02-08T12:11:54Z</time>
      </trkpt>
      <trkpt lat="42.86242760" lon="13.59020163">
        <ele>168.00000</ele>
        <time>2024-02-08T12:11:55Z</time>
      </trkpt>
      <trkpt lat="42.86241092" lon="13.59011957">
        <ele>168.00000</ele>
        <time>2024-02-08T12:11:56Z</time>
      </trkpt>
      <trkpt lat="42.86239357" lon="13.59003835">
        <ele>169.00000</ele>
        <time>2024-02-08T12:11:57Z</time>
      </trkpt>
      <trkpt lat="42.86237387" lon="13.58995503">
        <ele>170.00000</ele>
        <time>2024-02-08T12:11:58Z</time>
      </trkpt>
      <trkpt lat="42.86235971" lon="13.58988932">
        <ele>171.00000</ele>
        <time>2024-02-08T12:11:59Z</time>
      </trkpt>
      <trkpt lat="42.86234236" lon="13.58980282">
        <ele>172.00000</ele>
        <time>2024-02-08T12:12:00Z</time>
      </trkpt>
      <trkpt lat="42.86231939" lon="13.58969578">
        <ele>173.00000</ele>
        <time>2024-02-08T12:12:01Z</time>
      </trkpt>
      <trkpt lat="42.86229676" lon="13.58960643">
        <ele>173.00000</ele>
        <time>2024-02-08T12:12:02Z</time>
      </trkpt>
      <trkpt lat="42.86227631" lon="13.58951800">
        <ele>173.00000</ele>
        <time>2024-02-08T12:12:03Z</time>
      </trkpt>
      <trkpt lat="42.86225963" lon="13.58944608">
        <ele>172.00000</ele>
        <time>2024-02-08T12:12:04Z</time>
      </trkpt>
      <trkpt lat="42.86223851" lon="13.58935480">
        <ele>171.00000</ele>
        <time>2024-02-08T12:12:05Z</time>
      </trkpt>
      <trkpt lat="42.86221160" lon="13.58924240">
        <ele>170.00000</ele>
        <time>2024-02-08T12:12:06Z</time>
      </trkpt>
      <trkpt lat="42.86218729" lon="13.58914677">
        <ele>168.00000</ele>
        <time>2024-02-08T12:12:07Z</time>
      </trkpt>
      <trkpt lat="42.86216584" lon="13.58905431">
        <ele>167.00000</ele>
        <time>2024-02-08T12:12:08Z</time>
      </trkpt>
      <trkpt lat="42.86214949" lon="13.58897988">
        <ele>166.00000</ele>
        <time>2024-02-08T12:12:09Z</time>
      </trkpt>
      <trkpt lat="42.86212745" lon="13.58888366">
        <ele>166.00000</ele>
        <time>2024-02-08T12:12:10Z</time>
      </trkpt>
      <trkpt lat="42.86210607" lon="13.58878802">
        <ele>165.00000</ele>
        <time>2024-02-08T12:12:11Z</time>
      </trkpt>
      <trkpt lat="42.86208126" lon="13.58867193">
        <ele>165.00000</ele>
        <time>2024-02-08T12:12:12Z</time>
      </trkpt>
      <trkpt lat="42.86206634" lon="13.58859214">
        <ele>165.00000</ele>
        <time>2024-02-08T12:12:13Z</time>
      </trkpt>
      <trkpt lat="42.86204463" lon="13.58847085">
        <ele>166.00000</ele>
        <time>2024-02-08T12:12:14Z</time>
      </trkpt>
      <trkpt lat="42.86203759" lon="13.58838083">
        <ele>166.00000</ele>
        <time>2024-02-08T12:12:15Z</time>
      </trkpt>
      <trkpt lat="42.86203047" lon="13.58824211">
        <ele>167.00000</ele>
        <time>2024-02-08T12:12:16Z</time>
      </trkpt>
      <trkpt lat="42.86202435" lon="13.58812484">
        <ele>168.00000</ele>
        <time>2024-02-08T12:12:17Z</time>
      </trkpt>
      <trkpt lat="42.86201857" lon="13.58800783">
        <ele>168.00000</ele>
        <time>2024-02-08T12:12:18Z</time>
      </trkpt>
      <trkpt lat="42.86184992" lon="13.58673169">
        <ele>167.00000</ele>
        <time>2024-02-08T12:12:28Z</time>
      </trkpt>
      <trkpt lat="42.86184757" lon="13.58662247">
        <ele>166.00000</ele>
        <time>2024-02-08T12:12:29Z</time>
      </trkpt>
      <trkpt lat="42.86183626" lon="13.58646355">
        <ele>164.00000</ele>
        <time>2024-02-08T12:12:30Z</time>
      </trkpt>
      <trkpt lat="42.86182478" lon="13.58632726">
        <ele>162.00000</ele>
        <time>2024-02-08T12:12:31Z</time>
      </trkpt>
      <trkpt lat="42.86180667" lon="13.58620774">
        <ele>161.00000</ele>
        <time>2024-02-08T12:12:32Z</time>
      </trkpt>
      <trkpt lat="42.86178655" lon="13.58602685">
        <ele>160.00000</ele>
        <time>2024-02-08T12:12:33Z</time>
      </trkpt>
      <trkpt lat="42.86177256" lon="13.58587321">
        <ele>161.00000</ele>
        <time>2024-02-08T12:12:34Z</time>
      </trkpt>
      <trkpt lat="42.86176208" lon="13.58574732">
        <ele>160.00000</ele>
        <time>2024-02-08T12:12:35Z</time>
      </trkpt>
      <trkpt lat="42.86174297" lon="13.58556007">
        <ele>157.00000</ele>
        <time>2024-02-08T12:12:36Z</time>
      </trkpt>
      <trkpt lat="42.86172570" lon="13.58540265">
        <ele>156.00000</ele>
        <time>2024-02-08T12:12:37Z</time>
      </trkpt>
      <trkpt lat="42.86170869" lon="13.58524600">
        <ele>154.00000</ele>
        <time>2024-02-08T12:12:38Z</time>
      </trkpt>
      <trkpt lat="42.86169125" lon="13.58508900">
        <ele>153.00000</ele>
        <time>2024-02-08T12:12:39Z</time>
      </trkpt>
      <trkpt lat="42.86167432" lon="13.58496302">
        <ele>151.00000</ele>
        <time>2024-02-08T12:12:40Z</time>
      </trkpt>
      <trkpt lat="42.86164716" lon="13.58477720">
        <ele>146.00000</ele>
        <time>2024-02-08T12:12:41Z</time>
      </trkpt>
      <trkpt lat="42.86163082" lon="13.58462582">
        <ele>142.00000</ele>
        <time>2024-02-08T12:12:42Z</time>
      </trkpt>
      <trkpt lat="42.86160450" lon="13.58446975">
        <ele>137.00000</ele>
        <time>2024-02-08T12:12:43Z</time>
      </trkpt>
      <trkpt lat="42.86158380" lon="13.58434360">
        <ele>133.00000</ele>
        <time>2024-02-08T12:12:44Z</time>
      </trkpt>
      <trkpt lat="42.86156293" lon="13.58419138">
        <ele>129.00000</ele>
        <time>2024-02-08T12:12:45Z</time>
      </trkpt>
      <trkpt lat="42.86153786" lon="13.58400841">
        <ele>126.00000</ele>
        <time>2024-02-08T12:12:46Z</time>
      </trkpt>
      <trkpt lat="42.86151607" lon="13.58385678">
        <ele>124.00000</ele>
        <time>2024-02-08T12:12:47Z</time>
      </trkpt>
      <trkpt lat="42.86149470" lon="13.58370607">
        <ele>124.00000</ele>
        <time>2024-02-08T12:12:48Z</time>
      </trkpt>
      <trkpt lat="42.86147232" lon="13.58355511">
        <ele>125.00000</ele>
        <time>2024-02-08T12:12:49Z</time>
      </trkpt>
      <trkpt lat="42.86144885" lon="13.58340701">
        <ele>127.00000</ele>
        <time>2024-02-08T12:12:50Z</time>
      </trkpt>
      <trkpt lat="42.86142488" lon="13.58325990">
        <ele>130.00000</ele>
        <time>2024-02-08T12:12:51Z</time>
      </trkpt>
      <trkpt lat="42.86140291" lon="13.58311205">
        <ele>134.00000</ele>
        <time>2024-02-08T12:12:52Z</time>
      </trkpt>
      <trkpt lat="42.86138657" lon="13.58299411">
        <ele>137.00000</ele>
        <time>2024-02-08T12:12:53Z</time>
      </trkpt>
      <trkpt lat="42.86136444" lon="13.58284827">
        <ele>140.00000</ele>
        <time>2024-02-08T12:12:54Z</time>
      </trkpt>
      <trkpt lat="42.86134357" lon="13.58270360">
        <ele>142.00000</ele>
        <time>2024-02-08T12:12:55Z</time>
      </trkpt>
      <trkpt lat="42.86131826" lon="13.58253235">
        <ele>143.00000</ele>
        <time>2024-02-08T12:12:56Z</time>
      </trkpt>
      <trkpt lat="42.86129722" lon="13.58239196">
        <ele>144.00000</ele>
        <time>2024-02-08T12:12:57Z</time>
      </trkpt>
      <trkpt lat="42.86127953" lon="13.58227939">
        <ele>145.00000</ele>
        <time>2024-02-08T12:12:58Z</time>
      </trkpt>
      <trkpt lat="42.86125732" lon="13.58213899">
        <ele>145.00000</ele>
        <time>2024-02-08T12:12:59Z</time>
      </trkpt>
      <trkpt lat="42.86123092" lon="13.58197303">
        <ele>146.00000</ele>
        <time>2024-02-08T12:13:00Z</time>
      </trkpt>
      <trkpt lat="42.86121265" lon="13.58183825">
        <ele>146.00000</ele>
        <time>2024-02-08T12:13:01Z</time>
      </trkpt>
      <trkpt lat="42.86119303" lon="13.58170338">
        <ele>146.00000</ele>
        <time>2024-02-08T12:13:02Z</time>
      </trkpt>
      <trkpt lat="42.86117753" lon="13.58159325">
        <ele>146.00000</ele>
        <time>2024-02-08T12:13:03Z</time>
      </trkpt>
      <trkpt lat="42.86115758" lon="13.58145704">
        <ele>146.00000</ele>
        <time>2024-02-08T12:13:04Z</time>
      </trkpt>
      <trkpt lat="42.86113821" lon="13.58132276">
        <ele>147.00000</ele>
        <time>2024-02-08T12:13:05Z</time>
      </trkpt>
      <trkpt lat="42.86111843" lon="13.58116284">
        <ele>147.00000</ele>
        <time>2024-02-08T12:13:06Z</time>
      </trkpt>
      <trkpt lat="42.86110234" lon="13.58103124">
        <ele>148.00000</ele>
        <time>2024-02-08T12:13:07Z</time>
      </trkpt>
      <trkpt lat="42.86108859" lon="13.58092538">
        <ele>149.00000</ele>
        <time>2024-02-08T12:13:08Z</time>
      </trkpt>
      <trkpt lat="42.86107116" lon="13.58079537">
        <ele>151.00000</ele>
        <time>2024-02-08T12:13:09Z</time>
      </trkpt>
      <trkpt lat="42.86105255" lon="13.58066688">
        <ele>152.00000</ele>
        <time>2024-02-08T12:13:10Z</time>
      </trkpt>
      <trkpt lat="42.86103101" lon="13.58051290">
        <ele>154.00000</ele>
        <time>2024-02-08T12:13:11Z</time>
      </trkpt>
      <trkpt lat="42.86101433" lon="13.58038801">
        <ele>155.00000</ele>
        <time>2024-02-08T12:13:12Z</time>
      </trkpt>
      <trkpt lat="42.86099656" lon="13.58026337">
        <ele>156.00000</ele>
        <time>2024-02-08T12:13:13Z</time>
      </trkpt>
      <trkpt lat="42.86097963" lon="13.58013689">
        <ele>157.00000</ele>
        <time>2024-02-08T12:13:14Z</time>
      </trkpt>
      <trkpt lat="42.86096521" lon="13.58000982">
        <ele>157.00000</ele>
        <time>2024-02-08T12:13:15Z</time>
      </trkpt>
      <trkpt lat="42.86095222" lon="13.57988451">
        <ele>158.00000</ele>
        <time>2024-02-08T12:13:16Z</time>
      </trkpt>
      <trkpt lat="42.86093906" lon="13.57975727">
        <ele>158.00000</ele>
        <time>2024-02-08T12:13:17Z</time>
      </trkpt>
      <trkpt lat="42.86092976" lon="13.57963054">
        <ele>159.00000</ele>
        <time>2024-02-08T12:13:18Z</time>
      </trkpt>
      <trkpt lat="42.86092624" lon="13.57950548">
        <ele>160.00000</ele>
        <time>2024-02-08T12:13:19Z</time>
      </trkpt>
      <trkpt lat="42.86092632" lon="13.57937959">
        <ele>161.00000</ele>
        <time>2024-02-08T12:13:20Z</time>
      </trkpt>
      <trkpt lat="42.86092699" lon="13.57925302">
        <ele>161.00000</ele>
        <time>2024-02-08T12:13:21Z</time>
      </trkpt>
      <trkpt lat="42.86092841" lon="13.57912721">
        <ele>161.00000</ele>
        <time>2024-02-08T12:13:22Z</time>
      </trkpt>
      <trkpt lat="42.86093269" lon="13.57900483">
        <ele>161.00000</ele>
        <time>2024-02-08T12:13:23Z</time>
      </trkpt>
      <trkpt lat="42.86093780" lon="13.57888287">
        <ele>161.00000</ele>
        <time>2024-02-08T12:13:24Z</time>
      </trkpt>
      <trkpt lat="42.86094551" lon="13.57876243">
        <ele>160.00000</ele>
        <time>2024-02-08T12:13:25Z</time>
      </trkpt>
      <trkpt lat="42.86095415" lon="13.57864600">
        <ele>159.00000</ele>
        <time>2024-02-08T12:13:26Z</time>
      </trkpt>
      <trkpt lat="42.86095934" lon="13.57852865">
        <ele>158.00000</ele>
        <time>2024-02-08T12:13:27Z</time>
      </trkpt>
      <trkpt lat="42.86096555" lon="13.57841156">
        <ele>156.00000</ele>
        <time>2024-02-08T12:13:28Z</time>
      </trkpt>
      <trkpt lat="42.86097200" lon="13.57832020">
        <ele>155.00000</ele>
        <time>2024-02-08T12:13:29Z</time>
      </trkpt>
      <trkpt lat="42.86097996" lon="13.57820863">
        <ele>154.00000</ele>
        <time>2024-02-08T12:13:30Z</time>
      </trkpt>
      <trkpt lat="42.86099304" lon="13.57807821">
        <ele>152.00000</ele>
        <time>2024-02-08T12:13:31Z</time>
      </trkpt>
      <trkpt lat="42.86100394" lon="13.57796975">
        <ele>152.00000</ele>
        <time>2024-02-08T12:13:32Z</time>
      </trkpt>
      <trkpt lat="42.86101626" lon="13.57788744">
        <ele>151.00000</ele>
        <time>2024-02-08T12:13:33Z</time>
      </trkpt>
      <trkpt lat="42.86103579" lon="13.57778686">
        <ele>151.00000</ele>
        <time>2024-02-08T12:13:34Z</time>
      </trkpt>
      <trkpt lat="42.86106864" lon="13.57769147">
        <ele>152.00000</ele>
        <time>2024-02-08T12:13:35Z</time>
      </trkpt>
      <trkpt lat="42.86110712" lon="13.57758200">
        <ele>152.00000</ele>
        <time>2024-02-08T12:13:36Z</time>
      </trkpt>
      <trkpt lat="42.86112614" lon="13.57748771">
        <ele>153.00000</ele>
        <time>2024-02-08T12:13:37Z</time>
      </trkpt>
      <trkpt lat="42.86112799" lon="13.57741076">
        <ele>153.00000</ele>
        <time>2024-02-08T12:13:38Z</time>
      </trkpt>
      <trkpt lat="42.86111894" lon="13.57732987">
        <ele>153.00000</ele>
        <time>2024-02-08T12:13:39Z</time>
      </trkpt>
      <trkpt lat="42.86107334" lon="13.57728922">
        <ele>152.00000</ele>
        <time>2024-02-08T12:13:40Z</time>
      </trkpt>
      <trkpt lat="42.86099388" lon="13.57727631">
        <ele>151.00000</ele>
        <time>2024-02-08T12:13:41Z</time>
      </trkpt>
      <trkpt lat="42.86091450" lon="13.57727824">
        <ele>150.00000</ele>
        <time>2024-02-08T12:13:42Z</time>
      </trkpt>
      <trkpt lat="42.86085608" lon="13.57727112">
        <ele>149.00000</ele>
        <time>2024-02-08T12:13:43Z</time>
      </trkpt>
      <trkpt lat="42.86078265" lon="13.57725561">
        <ele>148.00000</ele>
        <time>2024-02-08T12:13:44Z</time>
      </trkpt>
      <trkpt lat="42.86070747" lon="13.57723851">
        <ele>148.00000</ele>
        <time>2024-02-08T12:13:45Z</time>
      </trkpt>
      <trkpt lat="42.86061460" lon="13.57721948">
        <ele>147.00000</ele>
        <time>2024-02-08T12:13:46Z</time>
      </trkpt>
      <trkpt lat="42.86054595" lon="13.57720532">
        <ele>146.00000</ele>
        <time>2024-02-08T12:13:47Z</time>
      </trkpt>
      <trkpt lat="42.86049147" lon="13.57719912">
        <ele>146.00000</ele>
        <time>2024-02-08T12:13:48Z</time>
      </trkpt>
      <trkpt lat="42.86046020" lon="13.57719023">
        <ele>145.00000</ele>
        <time>2024-02-08T12:13:49Z</time>
      </trkpt>
      <trkpt lat="42.86042458" lon="13.57717967">
        <ele>145.00000</ele>
        <time>2024-02-08T12:13:50Z</time>
      </trkpt>
      <trkpt lat="42.86040555" lon="13.57717632">
        <ele>144.00000</ele>
        <time>2024-02-08T12:13:51Z</time>
      </trkpt>
      <trkpt lat="42.86040027" lon="13.57717649">
        <ele>144.00000</ele>
        <time>2024-02-08T12:13:52Z</time>
      </trkpt>
      <trkpt lat="42.86030824" lon="13.57713818">
        <ele>143.00000</ele>
        <time>2024-02-08T12:14:01Z</time>
      </trkpt>
      <trkpt lat="42.86029282" lon="13.57711203">
        <ele>143.00000</ele>
        <time>2024-02-08T12:14:02Z</time>
      </trkpt>
      <trkpt lat="42.86028720" lon="13.57708563">
        <ele>143.00000</ele>
        <time>2024-02-08T12:14:03Z</time>
      </trkpt>
      <trkpt lat="42.86028712" lon="13.57704481">
        <ele>143.00000</ele>
        <time>2024-02-08T12:14:04Z</time>
      </trkpt>
      <trkpt lat="42.86029114" lon="13.57698043">
        <ele>143.00000</ele>
        <time>2024-02-08T12:14:05Z</time>
      </trkpt>
      <trkpt lat="42.86029885" lon="13.57691975">
        <ele>143.00000</ele>
        <time>2024-02-08T12:14:06Z</time>
      </trkpt>
      <trkpt lat="42.86031025" lon="13.57685403">
        <ele>143.00000</ele>
        <time>2024-02-08T12:14:07Z</time>
      </trkpt>
      <trkpt lat="42.86032232" lon="13.57678991">
        <ele>143.00000</ele>
        <time>2024-02-08T12:14:08Z</time>
      </trkpt>
      <trkpt lat="42.86033280" lon="13.57674331">
        <ele>143.00000</ele>
        <time>2024-02-08T12:14:09Z</time>
      </trkpt>
      <trkpt lat="42.86034244" lon="13.57669025">
        <ele>143.00000</ele>
        <time>2024-02-08T12:14:10Z</time>
      </trkpt>
      <trkpt lat="42.86035208" lon="13.57662496">
        <ele>142.00000</ele>
        <time>2024-02-08T12:14:11Z</time>
      </trkpt>
      <trkpt lat="42.86036104" lon="13.57657366">
        <ele>142.00000</ele>
        <time>2024-02-08T12:14:12Z</time>
      </trkpt>
      <trkpt lat="42.86036549" lon="13.57653301">
        <ele>142.00000</ele>
        <time>2024-02-08T12:14:13Z</time>
      </trkpt>
      <trkpt lat="42.86037043" lon="13.57648464">
        <ele>142.00000</ele>
        <time>2024-02-08T12:14:14Z</time>
      </trkpt>
      <trkpt lat="42.86037630" lon="13.57642957">
        <ele>142.00000</ele>
        <time>2024-02-08T12:14:15Z</time>
      </trkpt>
      <trkpt lat="42.86038510" lon="13.57635648">
        <ele>142.00000</ele>
        <time>2024-02-08T12:14:16Z</time>
      </trkpt>
      <trkpt lat="42.86039658" lon="13.57628624">
        <ele>143.00000</ele>
        <time>2024-02-08T12:14:17Z</time>
      </trkpt>
      <trkpt lat="42.86040589" lon="13.57622313">
        <ele>143.00000</ele>
        <time>2024-02-08T12:14:18Z</time>
      </trkpt>
      <trkpt lat="42.86041435" lon="13.57614099">
        <ele>143.00000</ele>
        <time>2024-02-08T12:14:19Z</time>
      </trkpt>
      <trkpt lat="42.86042198" lon="13.57605415">
        <ele>144.00000</ele>
        <time>2024-02-08T12:14:20Z</time>
      </trkpt>
      <trkpt lat="42.86044285" lon="13.57595558">
        <ele>145.00000</ele>
        <time>2024-02-08T12:14:21Z</time>
      </trkpt>
      <trkpt lat="42.86045945" lon="13.57587025">
        <ele>146.00000</ele>
        <time>2024-02-08T12:14:22Z</time>
      </trkpt>
      <trkpt lat="42.86047294" lon="13.57578266">
        <ele>147.00000</ele>
        <time>2024-02-08T12:14:23Z</time>
      </trkpt>
      <trkpt lat="42.86048099" lon="13.57571502">
        <ele>147.00000</ele>
        <time>2024-02-08T12:14:24Z</time>
      </trkpt>
      <trkpt lat="42.86048979" lon="13.57563086">
        <ele>147.00000</ele>
        <time>2024-02-08T12:14:25Z</time>
      </trkpt>
      <trkpt lat="42.86051058" lon="13.57552500">
        <ele>148.00000</ele>
        <time>2024-02-08T12:14:26Z</time>
      </trkpt>
      <trkpt lat="42.86053522" lon="13.57545442">
        <ele>148.00000</ele>
        <time>2024-02-08T12:14:27Z</time>
      </trkpt>
      <trkpt lat="42.86056204" lon="13.57535267">
        <ele>148.00000</ele>
        <time>2024-02-08T12:14:28Z</time>
      </trkpt>
      <trkpt lat="42.86054737" lon="13.57527279">
        <ele>148.00000</ele>
        <time>2024-02-08T12:14:29Z</time>
      </trkpt>
      <trkpt lat="42.86055986" lon="13.57517707">
        <ele>149.00000</ele>
        <time>2024-02-08T12:14:30Z</time>
      </trkpt>
      <trkpt lat="42.86057529" lon="13.57506022">
        <ele>149.00000</ele>
        <time>2024-02-08T12:14:31Z</time>
      </trkpt>
      <trkpt lat="42.86058744" lon="13.57496366">
        <ele>150.00000</ele>
        <time>2024-02-08T12:14:32Z</time>
      </trkpt>
      <trkpt lat="42.86059205" lon="13.57485990">
        <ele>151.00000</ele>
        <time>2024-02-08T12:14:33Z</time>
      </trkpt>
      <trkpt lat="42.86060186" lon="13.57477675">
        <ele>151.00000</ele>
        <time>2024-02-08T12:14:34Z</time>
      </trkpt>
      <trkpt lat="42.86061828" lon="13.57467516">
        <ele>152.00000</ele>
        <time>2024-02-08T12:14:35Z</time>
      </trkpt>
      <trkpt lat="42.86063295" lon="13.57455521">
        <ele>152.00000</ele>
        <time>2024-02-08T12:14:36Z</time>
      </trkpt>
      <trkpt lat="42.86064251" lon="13.57445513">
        <ele>152.00000</ele>
        <time>2024-02-08T12:14:37Z</time>
      </trkpt>
      <trkpt lat="42.86065584" lon="13.57435966">
        <ele>152.00000</ele>
        <time>2024-02-08T12:14:38Z</time>
      </trkpt>
      <trkpt lat="42.86066698" lon="13.57428205">
        <ele>152.00000</ele>
        <time>2024-02-08T12:14:39Z</time>
      </trkpt>
      <trkpt lat="42.86067780" lon="13.57418339">
        <ele>152.00000</ele>
        <time>2024-02-08T12:14:40Z</time>
      </trkpt>
      <trkpt lat="42.86069196" lon="13.57406336">
        <ele>152.00000</ele>
        <time>2024-02-08T12:14:41Z</time>
      </trkpt>
      <trkpt lat="42.86070210" lon="13.57396404">
        <ele>153.00000</ele>
        <time>2024-02-08T12:14:42Z</time>
      </trkpt>
      <trkpt lat="42.86071199" lon="13.57386454">
        <ele>153.00000</ele>
        <time>2024-02-08T12:14:43Z</time>
      </trkpt>
      <trkpt lat="42.86072398" lon="13.57376287">
        <ele>153.00000</ele>
        <time>2024-02-08T12:14:44Z</time>
      </trkpt>
      <trkpt lat="42.86073027" lon="13.57368157">
        <ele>153.00000</ele>
        <time>2024-02-08T12:14:45Z</time>
      </trkpt>
      <trkpt lat="42.86074066" lon="13.57356145">
        <ele>153.00000</ele>
        <time>2024-02-08T12:14:46Z</time>
      </trkpt>
      <trkpt lat="42.86074812" lon="13.57346347">
        <ele>152.00000</ele>
        <time>2024-02-08T12:14:47Z</time>
      </trkpt>
      <trkpt lat="42.86076103" lon="13.57336758">
        <ele>151.00000</ele>
        <time>2024-02-08T12:14:48Z</time>
      </trkpt>
      <trkpt lat="42.86077377" lon="13.57327303">
        <ele>151.00000</ele>
        <time>2024-02-08T12:14:49Z</time>
      </trkpt>
      <trkpt lat="42.86078693" lon="13.57318159">
        <ele>151.00000</ele>
        <time>2024-02-08T12:14:50Z</time>
      </trkpt>
      <trkpt lat="42.86080143" lon="13.57309081">
        <ele>152.00000</ele>
        <time>2024-02-08T12:14:51Z</time>
      </trkpt>
      <trkpt lat="42.86081643" lon="13.57300121">
        <ele>152.00000</ele>
        <time>2024-02-08T12:14:52Z</time>
      </trkpt>
      <trkpt lat="42.86083118" lon="13.57291563">
        <ele>152.00000</ele>
        <time>2024-02-08T12:14:53Z</time>
      </trkpt>
      <trkpt lat="42.86083831" lon="13.57284748">
        <ele>152.00000</ele>
        <time>2024-02-08T12:14:54Z</time>
      </trkpt>
      <trkpt lat="42.86084116" lon="13.57276291">
        <ele>153.00000</ele>
        <time>2024-02-08T12:14:55Z</time>
      </trkpt>
      <trkpt lat="42.86083060" lon="13.57266820">
        <ele>154.00000</ele>
        <time>2024-02-08T12:14:56Z</time>
      </trkpt>
      <trkpt lat="42.86082121" lon="13.57259745">
        <ele>155.00000</ele>
        <time>2024-02-08T12:14:57Z</time>
      </trkpt>
      <trkpt lat="42.86081987" lon="13.57252386">
        <ele>156.00000</ele>
        <time>2024-02-08T12:14:58Z</time>
      </trkpt>
      <trkpt lat="42.86082657" lon="13.57246711">
        <ele>157.00000</ele>
        <time>2024-02-08T12:14:59Z</time>
      </trkpt>
      <trkpt lat="42.86085147" lon="13.57241774">
        <ele>158.00000</ele>
        <time>2024-02-08T12:15:00Z</time>
      </trkpt>
      <trkpt lat="42.86089564" lon="13.57240006">
        <ele>158.00000</ele>
        <time>2024-02-08T12:15:01Z</time>
      </trkpt>
      <trkpt lat="42.86093395" lon="13.57242202">
        <ele>158.00000</ele>
        <time>2024-02-08T12:15:02Z</time>
      </trkpt>
      <trkpt lat="42.86096622" lon="13.57245965">
        <ele>158.00000</ele>
        <time>2024-02-08T12:15:03Z</time>
      </trkpt>
      <trkpt lat="42.86099078" lon="13.57248949">
        <ele>158.00000</ele>
        <time>2024-02-08T12:15:04Z</time>
      </trkpt>
      <trkpt lat="42.86101659" lon="13.57252813">
        <ele>158.00000</ele>
        <time>2024-02-08T12:15:05Z</time>
      </trkpt>
      <trkpt lat="42.86103704" lon="13.57258253">
        <ele>158.00000</ele>
        <time>2024-02-08T12:15:06Z</time>
      </trkpt>
      <trkpt lat="42.86105414" lon="13.57262603">
        <ele>158.00000</ele>
        <time>2024-02-08T12:15:07Z</time>
      </trkpt>
      <trkpt lat="42.86107736" lon="13.57266417">
        <ele>158.00000</ele>
        <time>2024-02-08T12:15:08Z</time>
      </trkpt>
      <trkpt lat="42.86109857" lon="13.57268789">
        <ele>158.00000</ele>
        <time>2024-02-08T12:15:09Z</time>
      </trkpt>
      <trkpt lat="42.86112229" lon="13.57271597">
        <ele>158.00000</ele>
        <time>2024-02-08T12:15:10Z</time>
      </trkpt>
      <trkpt lat="42.86115598" lon="13.57276744">
        <ele>158.00000</ele>
        <time>2024-02-08T12:15:11Z</time>
      </trkpt>
      <trkpt lat="42.86119362" lon="13.57282720">
        <ele>158.00000</ele>
        <time>2024-02-08T12:15:12Z</time>
      </trkpt>
      <trkpt lat="42.86122664" lon="13.57288453">
        <ele>157.00000</ele>
        <time>2024-02-08T12:15:13Z</time>
      </trkpt>
      <trkpt lat="42.86125045" lon="13.57292862">
        <ele>157.00000</ele>
        <time>2024-02-08T12:15:14Z</time>
      </trkpt>
      <trkpt lat="42.86127434" lon="13.57297556">
        <ele>157.00000</ele>
        <time>2024-02-08T12:15:15Z</time>
      </trkpt>
      <trkpt lat="42.86130225" lon="13.57301873">
        <ele>157.00000</ele>
        <time>2024-02-08T12:15:16Z</time>
      </trkpt>
      <trkpt lat="42.86132379" lon="13.57305485">
        <ele>158.00000</ele>
        <time>2024-02-08T12:15:17Z</time>
      </trkpt>
      <trkpt lat="42.86134575" lon="13.57309400">
        <ele>158.00000</ele>
        <time>2024-02-08T12:15:18Z</time>
      </trkpt>
      <trkpt lat="42.86135941" lon="13.57312576">
        <ele>158.00000</ele>
        <time>2024-02-08T12:15:19Z</time>
      </trkpt>
      <trkpt lat="42.86137936" lon="13.57316709">
        <ele>158.00000</ele>
        <time>2024-02-08T12:15:20Z</time>
      </trkpt>
      <trkpt lat="42.86140283" lon="13.57321654">
        <ele>159.00000</ele>
        <time>2024-02-08T12:15:21Z</time>
      </trkpt>
      <trkpt lat="42.86142957" lon="13.57326574">
        <ele>159.00000</ele>
        <time>2024-02-08T12:15:22Z</time>
      </trkpt>
      <trkpt lat="42.86145622" lon="13.57331871">
        <ele>159.00000</ele>
        <time>2024-02-08T12:15:23Z</time>
      </trkpt>
      <trkpt lat="42.86147626" lon="13.57335878">
        <ele>160.00000</ele>
        <time>2024-02-08T12:15:24Z</time>
      </trkpt>
      <trkpt lat="42.86150006" lon="13.57340111">
        <ele>161.00000</ele>
        <time>2024-02-08T12:15:25Z</time>
      </trkpt>
      <trkpt lat="42.86151892" lon="13.57344411">
        <ele>161.00000</ele>
        <time>2024-02-08T12:15:26Z</time>
      </trkpt>
      <trkpt lat="42.86153568" lon="13.57347923">
        <ele>162.00000</ele>
        <time>2024-02-08T12:15:27Z</time>
      </trkpt>
      <trkpt lat="42.86156133" lon="13.57351217">
        <ele>162.00000</ele>
        <time>2024-02-08T12:15:28Z</time>
      </trkpt>
      <trkpt lat="42.86158933" lon="13.57354201">
        <ele>163.00000</ele>
        <time>2024-02-08T12:15:29Z</time>
      </trkpt>
      <trkpt lat="42.86162445" lon="13.57357679">
        <ele>164.00000</ele>
        <time>2024-02-08T12:15:30Z</time>
      </trkpt>
      <trkpt lat="42.86165228" lon="13.57360747">
        <ele>164.00000</ele>
        <time>2024-02-08T12:15:31Z</time>
      </trkpt>
      <trkpt lat="42.86166845" lon="13.57364444">
        <ele>165.00000</ele>
        <time>2024-02-08T12:15:32Z</time>
      </trkpt>
      <trkpt lat="42.86169729" lon="13.57366673">
        <ele>165.00000</ele>
        <time>2024-02-08T12:15:33Z</time>
      </trkpt>
      <trkpt lat="42.86171866" lon="13.57368660">
        <ele>166.00000</ele>
        <time>2024-02-08T12:15:34Z</time>
      </trkpt>
      <trkpt lat="42.86174062" lon="13.57370336">
        <ele>166.00000</ele>
        <time>2024-02-08T12:15:35Z</time>
      </trkpt>
      <trkpt lat="42.86176409" lon="13.57370772">
        <ele>166.00000</ele>
        <time>2024-02-08T12:15:36Z</time>
      </trkpt>
      <trkpt lat="42.86180206" lon="13.57370973">
        <ele>167.00000</ele>
        <time>2024-02-08T12:15:37Z</time>
      </trkpt>
      <trkpt lat="42.86183333" lon="13.57369347">
        <ele>167.00000</ele>
        <time>2024-02-08T12:15:38Z</time>
      </trkpt>
      <trkpt lat="42.86186417" lon="13.57367117">
        <ele>167.00000</ele>
        <time>2024-02-08T12:15:39Z</time>
      </trkpt>
      <trkpt lat="42.86189150" lon="13.57364804">
        <ele>167.00000</ele>
        <time>2024-02-08T12:15:40Z</time>
      </trkpt>
      <trkpt lat="42.86192435" lon="13.57361510">
        <ele>166.00000</ele>
        <time>2024-02-08T12:15:41Z</time>
      </trkpt>
      <trkpt lat="42.86196593" lon="13.57358266">
        <ele>167.00000</ele>
        <time>2024-02-08T12:15:42Z</time>
      </trkpt>
      <trkpt lat="42.86199945" lon="13.57354905">
        <ele>167.00000</ele>
        <time>2024-02-08T12:15:43Z</time>
      </trkpt>
      <trkpt lat="42.86201999" lon="13.57352114">
        <ele>167.00000</ele>
        <time>2024-02-08T12:15:44Z</time>
      </trkpt>
      <trkpt lat="42.86204757" lon="13.57349390">
        <ele>168.00000</ele>
        <time>2024-02-08T12:15:45Z</time>
      </trkpt>
      <trkpt lat="42.86207858" lon="13.57346967">
        <ele>168.00000</ele>
        <time>2024-02-08T12:15:46Z</time>
      </trkpt>
      <trkpt lat="42.86211345" lon="13.57344101">
        <ele>169.00000</ele>
        <time>2024-02-08T12:15:47Z</time>
      </trkpt>
      <trkpt lat="42.86213952" lon="13.57341469">
        <ele>169.00000</ele>
        <time>2024-02-08T12:15:48Z</time>
      </trkpt>
      <trkpt lat="42.86216156" lon="13.57339465">
        <ele>169.00000</ele>
        <time>2024-02-08T12:15:49Z</time>
      </trkpt>
      <trkpt lat="42.86219140" lon="13.57337311">
        <ele>170.00000</ele>
        <time>2024-02-08T12:15:50Z</time>
      </trkpt>
      <trkpt lat="42.86222560" lon="13.57335560">
        <ele>171.00000</ele>
        <time>2024-02-08T12:15:51Z</time>
      </trkpt>
      <trkpt lat="42.86226449" lon="13.57333766">
        <ele>171.00000</ele>
        <time>2024-02-08T12:15:52Z</time>
      </trkpt>
      <trkpt lat="42.86228553" lon="13.57332743">
        <ele>171.00000</ele>
        <time>2024-02-08T12:15:53Z</time>
      </trkpt>
      <trkpt lat="42.86230674" lon="13.57331478">
        <ele>172.00000</ele>
        <time>2024-02-08T12:15:54Z</time>
      </trkpt>
      <trkpt lat="42.86233599" lon="13.57330245">
        <ele>172.00000</ele>
        <time>2024-02-08T12:15:55Z</time>
      </trkpt>
      <trkpt lat="42.86237848" lon="13.57329206">
        <ele>173.00000</ele>
        <time>2024-02-08T12:15:56Z</time>
      </trkpt>
      <trkpt lat="42.86241905" lon="13.57327966">
        <ele>173.00000</ele>
        <time>2024-02-08T12:15:57Z</time>
      </trkpt>
      <trkpt lat="42.86245862" lon="13.57327278">
        <ele>174.00000</ele>
        <time>2024-02-08T12:15:58Z</time>
      </trkpt>
      <trkpt lat="42.86248980" lon="13.57326650">
        <ele>174.00000</ele>
        <time>2024-02-08T12:15:59Z</time>
      </trkpt>
      <trkpt lat="42.86253011" lon="13.57326138">
        <ele>174.00000</ele>
        <time>2024-02-08T12:16:00Z</time>
      </trkpt>
      <trkpt lat="42.86257361" lon="13.57325929">
        <ele>175.00000</ele>
        <time>2024-02-08T12:16:01Z</time>
      </trkpt>
      <trkpt lat="42.86260924" lon="13.57325962">
        <ele>175.00000</ele>
        <time>2024-02-08T12:16:02Z</time>
      </trkpt>
      <trkpt lat="42.86265115" lon="13.57326641">
        <ele>175.00000</ele>
        <time>2024-02-08T12:16:03Z</time>
      </trkpt>
      <trkpt lat="42.86268560" lon="13.57327463">
        <ele>175.00000</ele>
        <time>2024-02-08T12:16:04Z</time>
      </trkpt>
      <trkpt lat="42.86272415" lon="13.57329064">
        <ele>175.00000</ele>
        <time>2024-02-08T12:16:05Z</time>
      </trkpt>
      <trkpt lat="42.86276615" lon="13.57330874">
        <ele>176.00000</ele>
        <time>2024-02-08T12:16:06Z</time>
      </trkpt>
      <trkpt lat="42.86281803" lon="13.57333154">
        <ele>176.00000</ele>
        <time>2024-02-08T12:16:07Z</time>
      </trkpt>
      <trkpt lat="42.86285684" lon="13.57336322">
        <ele>176.00000</ele>
        <time>2024-02-08T12:16:08Z</time>
      </trkpt>
      <trkpt lat="42.86288836" lon="13.57338703">
        <ele>177.00000</ele>
        <time>2024-02-08T12:16:09Z</time>
      </trkpt>
      <trkpt lat="42.86292750" lon="13.57341410">
        <ele>177.00000</ele>
        <time>2024-02-08T12:16:10Z</time>
      </trkpt>
      <trkpt lat="42.86296304" lon="13.57344352">
        <ele>178.00000</ele>
        <time>2024-02-08T12:16:11Z</time>
      </trkpt>
      <trkpt lat="42.86299573" lon="13.57348652">
        <ele>178.00000</ele>
        <time>2024-02-08T12:16:12Z</time>
      </trkpt>
      <trkpt lat="42.86302196" lon="13.57352114">
        <ele>178.00000</ele>
        <time>2024-02-08T12:16:13Z</time>
      </trkpt>
      <trkpt lat="42.86305071" lon="13.57355793">
        <ele>178.00000</ele>
        <time>2024-02-08T12:16:14Z</time>
      </trkpt>
      <trkpt lat="42.86307385" lon="13.57359171">
        <ele>179.00000</ele>
        <time>2024-02-08T12:16:15Z</time>
      </trkpt>
      <trkpt lat="42.86310033" lon="13.57363329">
        <ele>179.00000</ele>
        <time>2024-02-08T12:16:16Z</time>
      </trkpt>
      <trkpt lat="42.86313604" lon="13.57367629">
        <ele>180.00000</ele>
        <time>2024-02-08T12:16:17Z</time>
      </trkpt>
      <trkpt lat="42.86316613" lon="13.57371359">
        <ele>181.00000</ele>
        <time>2024-02-08T12:16:18Z</time>
      </trkpt>
      <trkpt lat="42.86319228" lon="13.57375340">
        <ele>181.00000</ele>
        <time>2024-02-08T12:16:19Z</time>
      </trkpt>
      <trkpt lat="42.86321072" lon="13.57378684">
        <ele>182.00000</ele>
        <time>2024-02-08T12:16:20Z</time>
      </trkpt>
      <trkpt lat="42.86323470" lon="13.57382423">
        <ele>182.00000</ele>
        <time>2024-02-08T12:16:21Z</time>
      </trkpt>
      <trkpt lat="42.86326420" lon="13.57387209">
        <ele>183.00000</ele>
        <time>2024-02-08T12:16:22Z</time>
      </trkpt>
      <trkpt lat="42.86328876" lon="13.57391651">
        <ele>183.00000</ele>
        <time>2024-02-08T12:16:23Z</time>
      </trkpt>
      <trkpt lat="42.86331240" lon="13.57396144">
        <ele>184.00000</ele>
        <time>2024-02-08T12:16:24Z</time>
      </trkpt>
      <trkpt lat="42.86333327" lon="13.57399547">
        <ele>184.00000</ele>
        <time>2024-02-08T12:16:25Z</time>
      </trkpt>
      <trkpt lat="42.86335347" lon="13.57403956">
        <ele>184.00000</ele>
        <time>2024-02-08T12:16:26Z</time>
      </trkpt>
      <trkpt lat="42.86337928" lon="13.57409404">
        <ele>185.00000</ele>
        <time>2024-02-08T12:16:27Z</time>
      </trkpt>
      <trkpt lat="42.86340300" lon="13.57413721">
        <ele>185.00000</ele>
        <time>2024-02-08T12:16:28Z</time>
      </trkpt>
      <trkpt lat="42.86343142" lon="13.57417568">
        <ele>186.00000</ele>
        <time>2024-02-08T12:16:29Z</time>
      </trkpt>
      <trkpt lat="42.86346277" lon="13.57420141">
        <ele>187.00000</ele>
        <time>2024-02-08T12:16:30Z</time>
      </trkpt>
      <trkpt lat="42.86349470" lon="13.57423746">
        <ele>187.00000</ele>
        <time>2024-02-08T12:16:31Z</time>
      </trkpt>
      <trkpt lat="42.86351826" lon="13.57429076">
        <ele>188.00000</ele>
        <time>2024-02-08T12:16:32Z</time>
      </trkpt>
      <trkpt lat="42.86354935" lon="13.57432555">
        <ele>188.00000</ele>
        <time>2024-02-08T12:16:33Z</time>
      </trkpt>
      <trkpt lat="42.86358389" lon="13.57434826">
        <ele>189.00000</ele>
        <time>2024-02-08T12:16:34Z</time>
      </trkpt>
      <trkpt lat="42.86361205" lon="13.57436922">
        <ele>189.00000</ele>
        <time>2024-02-08T12:16:35Z</time>
      </trkpt>
      <trkpt lat="42.86365161" lon="13.57439788">
        <ele>190.00000</ele>
        <time>2024-02-08T12:16:36Z</time>
      </trkpt>
      <trkpt lat="42.86369218" lon="13.57442865">
        <ele>190.00000</ele>
        <time>2024-02-08T12:16:37Z</time>
      </trkpt>
      <trkpt lat="42.86373049" lon="13.57445681">
        <ele>191.00000</ele>
        <time>2024-02-08T12:16:38Z</time>
      </trkpt>
      <trkpt lat="42.86377415" lon="13.57448145">
        <ele>191.00000</ele>
        <time>2024-02-08T12:16:39Z</time>
      </trkpt>
      <trkpt lat="42.86380860" lon="13.57449981">
        <ele>192.00000</ele>
        <time>2024-02-08T12:16:40Z</time>
      </trkpt>
      <trkpt lat="42.86384926" lon="13.57452278">
        <ele>192.00000</ele>
        <time>2024-02-08T12:16:41Z</time>
      </trkpt>
      <trkpt lat="42.86389896" lon="13.57455203">
        <ele>192.00000</ele>
        <time>2024-02-08T12:16:42Z</time>
      </trkpt>
      <trkpt lat="42.86394406" lon="13.57457801">
        <ele>192.00000</ele>
        <time>2024-02-08T12:16:43Z</time>
      </trkpt>
      <trkpt lat="42.86399150" lon="13.57461087">
        <ele>192.00000</ele>
        <time>2024-02-08T12:16:44Z</time>
      </trkpt>
      <trkpt lat="42.86404103" lon="13.57464406">
        <ele>191.00000</ele>
        <time>2024-02-08T12:16:45Z</time>
      </trkpt>
      <trkpt lat="42.86409158" lon="13.57467818">
        <ele>191.00000</ele>
        <time>2024-02-08T12:16:46Z</time>
      </trkpt>
      <trkpt lat="42.86414279" lon="13.57471246">
        <ele>190.00000</ele>
        <time>2024-02-08T12:16:47Z</time>
      </trkpt>
      <trkpt lat="42.86419962" lon="13.57473467">
        <ele>188.00000</ele>
        <time>2024-02-08T12:16:48Z</time>
      </trkpt>
      <trkpt lat="42.86425276" lon="13.57475437">
        <ele>187.00000</ele>
        <time>2024-02-08T12:16:49Z</time>
      </trkpt>
      <trkpt lat="42.86429610" lon="13.57474842">
        <ele>186.00000</ele>
        <time>2024-02-08T12:16:50Z</time>
      </trkpt>
      <trkpt lat="42.86434731" lon="13.57470693">
        <ele>185.00000</ele>
        <time>2024-02-08T12:16:51Z</time>
      </trkpt>
      <trkpt lat="42.86440121" lon="13.57463551">
        <ele>186.00000</ele>
        <time>2024-02-08T12:16:52Z</time>
      </trkpt>
      <trkpt lat="42.86444890" lon="13.57456158">
        <ele>188.00000</ele>
        <time>2024-02-08T12:16:53Z</time>
      </trkpt>
      <trkpt lat="42.86450003" lon="13.57448271">
        <ele>187.00000</ele>
        <time>2024-02-08T12:16:54Z</time>
      </trkpt>
      <trkpt lat="42.86454051" lon="13.57441348">
        <ele>187.00000</ele>
        <time>2024-02-08T12:16:55Z</time>
      </trkpt>
      <trkpt lat="42.86459240" lon="13.57432798">
        <ele>187.00000</ele>
        <time>2024-02-08T12:16:56Z</time>
      </trkpt>
      <trkpt lat="42.86465350" lon="13.57422279">
        <ele>186.00000</ele>
        <time>2024-02-08T12:16:57Z</time>
      </trkpt>
      <trkpt lat="42.86470924" lon="13.57412908">
        <ele>186.00000</ele>
        <time>2024-02-08T12:16:58Z</time>
      </trkpt>
      <trkpt lat="42.86476498" lon="13.57403319">
        <ele>185.00000</ele>
        <time>2024-02-08T12:16:59Z</time>
      </trkpt>
      <trkpt lat="42.86482122" lon="13.57393688">
        <ele>184.00000</ele>
        <time>2024-02-08T12:17:00Z</time>
      </trkpt>
      <trkpt lat="42.86487956" lon="13.57383965">
        <ele>185.00000</ele>
        <time>2024-02-08T12:17:01Z</time>
      </trkpt>
      <trkpt lat="42.86493823" lon="13.57374234">
        <ele>187.00000</ele>
        <time>2024-02-08T12:17:02Z</time>
      </trkpt>
      <trkpt lat="42.86499917" lon="13.57364661">
        <ele>191.00000</ele>
        <time>2024-02-08T12:17:03Z</time>
      </trkpt>
      <trkpt lat="42.86506195" lon="13.57355291">
        <ele>190.00000</ele>
        <time>2024-02-08T12:17:04Z</time>
      </trkpt>
      <trkpt lat="42.86511233" lon="13.57347747">
        <ele>189.00000</ele>
        <time>2024-02-08T12:17:05Z</time>
      </trkpt>
      <trkpt lat="42.86519036" lon="13.57336733">
        <ele>189.00000</ele>
        <time>2024-02-08T12:17:06Z</time>
      </trkpt>
      <trkpt lat="42.86525641" lon="13.57327580">
        <ele>186.00000</ele>
        <time>2024-02-08T12:17:07Z</time>
      </trkpt>
      <trkpt lat="42.86532992" lon="13.57319005">
        <ele>183.00000</ele>
        <time>2024-02-08T12:17:08Z</time>
      </trkpt>
      <trkpt lat="42.86540066" lon="13.57310137">
        <ele>181.00000</ele>
        <time>2024-02-08T12:17:09Z</time>
      </trkpt>
      <trkpt lat="42.86547384" lon="13.57301319">
        <ele>180.00000</ele>
        <time>2024-02-08T12:17:10Z</time>
      </trkpt>
      <trkpt lat="42.86553419" lon="13.57294044">
        <ele>180.00000</ele>
        <time>2024-02-08T12:17:11Z</time>
      </trkpt>
      <trkpt lat="42.86560962" lon="13.57285100">
        <ele>180.00000</ele>
        <time>2024-02-08T12:17:12Z</time>
      </trkpt>
      <trkpt lat="42.86570141" lon="13.57275042">
        <ele>181.00000</ele>
        <time>2024-02-08T12:17:13Z</time>
      </trkpt>
      <trkpt lat="42.86578103" lon="13.57267180">
        <ele>182.00000</ele>
        <time>2024-02-08T12:17:14Z</time>
      </trkpt>
      <trkpt lat="42.86586594" lon="13.57260500">
        <ele>182.00000</ele>
        <time>2024-02-08T12:17:15Z</time>
      </trkpt>
      <trkpt lat="42.86595362" lon="13.57254867">
        <ele>181.00000</ele>
        <time>2024-02-08T12:17:16Z</time>
      </trkpt>
      <trkpt lat="42.86604699" lon="13.57250089">
        <ele>180.00000</ele>
        <time>2024-02-08T12:17:17Z</time>
      </trkpt>
      <trkpt lat="42.86614523" lon="13.57246569">
        <ele>178.00000</ele>
        <time>2024-02-08T12:17:18Z</time>
      </trkpt>
      <trkpt lat="42.86624489" lon="13.57244373">
        <ele>176.00000</ele>
        <time>2024-02-08T12:17:19Z</time>
      </trkpt>
      <trkpt lat="42.86634379" lon="13.57242604">
        <ele>175.00000</ele>
        <time>2024-02-08T12:17:20Z</time>
      </trkpt>
      <trkpt lat="42.86644362" lon="13.57241632">
        <ele>173.00000</ele>
        <time>2024-02-08T12:17:21Z</time>
      </trkpt>
      <trkpt lat="42.86654580" lon="13.57240668">
        <ele>172.00000</ele>
        <time>2024-02-08T12:17:22Z</time>
      </trkpt>
      <trkpt lat="42.86664462" lon="13.57238179">
        <ele>171.00000</ele>
        <time>2024-02-08T12:17:23Z</time>
      </trkpt>
      <trkpt lat="42.86674026" lon="13.57233577">
        <ele>171.00000</ele>
        <time>2024-02-08T12:17:24Z</time>
      </trkpt>
      <trkpt lat="42.86682953" lon="13.57226964">
        <ele>172.00000</ele>
        <time>2024-02-08T12:17:25Z</time>
      </trkpt>
      <trkpt lat="42.86691502" lon="13.57219261">
        <ele>173.00000</ele>
        <time>2024-02-08T12:17:26Z</time>
      </trkpt>
      <trkpt lat="42.86699909" lon="13.57211348">
        <ele>173.00000</ele>
        <time>2024-02-08T12:17:27Z</time>
      </trkpt>
      <trkpt lat="42.86708417" lon="13.57203662">
        <ele>172.00000</ele>
        <time>2024-02-08T12:17:28Z</time>
      </trkpt>
      <trkpt lat="42.86716891" lon="13.57195657">
        <ele>171.00000</ele>
        <time>2024-02-08T12:17:29Z</time>
      </trkpt>
      <trkpt lat="42.86725038" lon="13.57187711">
        <ele>171.00000</ele>
        <time>2024-02-08T12:17:30Z</time>
      </trkpt>
      <trkpt lat="42.86733135" lon="13.57179765">
        <ele>172.00000</ele>
        <time>2024-02-08T12:17:31Z</time>
      </trkpt>
      <trkpt lat="42.86741282" lon="13.57171760">
        <ele>172.00000</ele>
        <time>2024-02-08T12:17:32Z</time>
      </trkpt>
      <trkpt lat="42.86749404" lon="13.57163630">
        <ele>171.00000</ele>
        <time>2024-02-08T12:17:33Z</time>
      </trkpt>
      <trkpt lat="42.86757577" lon="13.57155357">
        <ele>170.00000</ele>
        <time>2024-02-08T12:17:34Z</time>
      </trkpt>
      <trkpt lat="42.86765472" lon="13.57146481">
        <ele>169.00000</ele>
        <time>2024-02-08T12:17:35Z</time>
      </trkpt>
      <trkpt lat="42.86772631" lon="13.57136900">
        <ele>166.00000</ele>
        <time>2024-02-08T12:17:36Z</time>
      </trkpt>
      <trkpt lat="42.86778749" lon="13.57126448">
        <ele>164.00000</ele>
        <time>2024-02-08T12:17:37Z</time>
      </trkpt>
      <trkpt lat="42.86783552" lon="13.57115032">
        <ele>163.00000</ele>
        <time>2024-02-08T12:17:38Z</time>
      </trkpt>
      <trkpt lat="42.86786142" lon="13.57102945">
        <ele>162.00000</ele>
        <time>2024-02-08T12:17:39Z</time>
      </trkpt>
      <trkpt lat="42.86786620" lon="13.57090900">
        <ele>162.00000</ele>
        <time>2024-02-08T12:17:40Z</time>
      </trkpt>
      <trkpt lat="42.86784843" lon="13.57079559">
        <ele>164.00000</ele>
        <time>2024-02-08T12:17:41Z</time>
      </trkpt>
      <trkpt lat="42.86782060" lon="13.57068378">
        <ele>165.00000</ele>
        <time>2024-02-08T12:17:42Z</time>
      </trkpt>
      <trkpt lat="42.86780065" lon="13.57056618">
        <ele>167.00000</ele>
        <time>2024-02-08T12:17:43Z</time>
      </trkpt>
      <trkpt lat="42.86779453" lon="13.57044548">
        <ele>168.00000</ele>
        <time>2024-02-08T12:17:44Z</time>
      </trkpt>
      <trkpt lat="42.86780158" lon="13.57032353">
        <ele>169.00000</ele>
        <time>2024-02-08T12:17:45Z</time>
      </trkpt>
      <trkpt lat="42.86781951" lon="13.57020241">
        <ele>168.00000</ele>
        <time>2024-02-08T12:17:46Z</time>
      </trkpt>
      <trkpt lat="42.86784893" lon="13.57008213">
        <ele>168.00000</ele>
        <time>2024-02-08T12:17:47Z</time>
      </trkpt>
      <trkpt lat="42.86788405" lon="13.56996218">
        <ele>167.00000</ele>
        <time>2024-02-08T12:17:48Z</time>
      </trkpt>
      <trkpt lat="42.86792865" lon="13.56984819">
        <ele>167.00000</ele>
        <time>2024-02-08T12:17:49Z</time>
      </trkpt>
      <trkpt lat="42.86798237" lon="13.56973989">
        <ele>167.00000</ele>
        <time>2024-02-08T12:17:50Z</time>
      </trkpt>
      <trkpt lat="42.86804230" lon="13.56963998">
        <ele>166.00000</ele>
        <time>2024-02-08T12:17:51Z</time>
      </trkpt>
      <trkpt lat="42.86810726" lon="13.56954334">
        <ele>166.00000</ele>
        <time>2024-02-08T12:17:52Z</time>
      </trkpt>
      <trkpt lat="42.86817541" lon="13.56944879">
        <ele>167.00000</ele>
        <time>2024-02-08T12:17:53Z</time>
      </trkpt>
      <trkpt lat="42.86824565" lon="13.56935357">
        <ele>168.00000</ele>
        <time>2024-02-08T12:17:54Z</time>
      </trkpt>
      <trkpt lat="42.86831698" lon="13.56925819">
        <ele>169.00000</ele>
        <time>2024-02-08T12:17:55Z</time>
      </trkpt>
      <trkpt lat="42.86838965" lon="13.56916255">
        <ele>169.00000</ele>
        <time>2024-02-08T12:17:56Z</time>
      </trkpt>
      <trkpt lat="42.86846224" lon="13.56906792">
        <ele>171.00000</ele>
        <time>2024-02-08T12:17:57Z</time>
      </trkpt>
      <trkpt lat="42.86853390" lon="13.56897127">
        <ele>172.00000</ele>
        <time>2024-02-08T12:17:58Z</time>
      </trkpt>
      <trkpt lat="42.86860582" lon="13.56887714">
        <ele>173.00000</ele>
        <time>2024-02-08T12:17:59Z</time>
      </trkpt>
      <trkpt lat="42.86867799" lon="13.56878561">
        <ele>175.00000</ele>
        <time>2024-02-08T12:18:00Z</time>
      </trkpt>
      <trkpt lat="42.86874856" lon="13.56869744">
        <ele>177.00000</ele>
        <time>2024-02-08T12:18:01Z</time>
      </trkpt>
      <trkpt lat="42.86882056" lon="13.56861756">
        <ele>178.00000</ele>
        <time>2024-02-08T12:18:02Z</time>
      </trkpt>
      <trkpt lat="42.86890145" lon="13.56855561">
        <ele>178.00000</ele>
        <time>2024-02-08T12:18:03Z</time>
      </trkpt>
      <trkpt lat="42.86899114" lon="13.56851731">
        <ele>177.00000</ele>
        <time>2024-02-08T12:18:04Z</time>
      </trkpt>
      <trkpt lat="42.86908510" lon="13.56851119">
        <ele>174.00000</ele>
        <time>2024-02-08T12:18:05Z</time>
      </trkpt>
      <trkpt lat="42.86917503" lon="13.56853986">
        <ele>172.00000</ele>
        <time>2024-02-08T12:18:06Z</time>
      </trkpt>
      <trkpt lat="42.86925382" lon="13.56861094">
        <ele>170.00000</ele>
        <time>2024-02-08T12:18:07Z</time>
      </trkpt>
      <trkpt lat="42.86933287" lon="13.56869434">
        <ele>168.00000</ele>
        <time>2024-02-08T12:18:08Z</time>
      </trkpt>
      <trkpt lat="42.86941526" lon="13.56877220">
        <ele>166.00000</ele>
        <time>2024-02-08T12:18:09Z</time>
      </trkpt>
      <trkpt lat="42.86950092" lon="13.56883850">
        <ele>164.00000</ele>
        <time>2024-02-08T12:18:10Z</time>
      </trkpt>
      <trkpt lat="42.86959698" lon="13.56889072">
        <ele>161.00000</ele>
        <time>2024-02-08T12:18:11Z</time>
      </trkpt>
      <trkpt lat="42.86969488" lon="13.56893464">
        <ele>159.00000</ele>
        <time>2024-02-08T12:18:12Z</time>
      </trkpt>
      <trkpt lat="42.86979035" lon="13.56897194">
        <ele>156.00000</ele>
        <time>2024-02-08T12:18:13Z</time>
      </trkpt>
      <trkpt lat="42.86988280" lon="13.56898418">
        <ele>154.00000</ele>
        <time>2024-02-08T12:18:14Z</time>
      </trkpt>
      <trkpt lat="42.86996251" lon="13.56895158">
        <ele>152.00000</ele>
        <time>2024-02-08T12:18:15Z</time>
      </trkpt>
      <trkpt lat="42.87003200" lon="13.56887455">
        <ele>152.00000</ele>
        <time>2024-02-08T12:18:16Z</time>
      </trkpt>
      <trkpt lat="42.87008606" lon="13.56877673">
        <ele>152.00000</ele>
        <time>2024-02-08T12:18:17Z</time>
      </trkpt>
      <trkpt lat="42.87011582" lon="13.56865712">
        <ele>152.00000</ele>
        <time>2024-02-08T12:18:18Z</time>
      </trkpt>
      <trkpt lat="42.87012596" lon="13.56852301">
        <ele>153.00000</ele>
        <time>2024-02-08T12:18:19Z</time>
      </trkpt>
      <trkpt lat="42.87012889" lon="13.56838454">
        <ele>155.00000</ele>
        <time>2024-02-08T12:18:20Z</time>
      </trkpt>
      <trkpt lat="42.87013359" lon="13.56824892">
        <ele>156.00000</ele>
        <time>2024-02-08T12:18:21Z</time>
      </trkpt>
      <trkpt lat="42.87015153" lon="13.56811481">
        <ele>155.00000</ele>
        <time>2024-02-08T12:18:22Z</time>
      </trkpt>
      <trkpt lat="42.87017541" lon="13.56797768">
        <ele>153.00000</ele>
        <time>2024-02-08T12:18:23Z</time>
      </trkpt>
      <trkpt lat="42.87020567" lon="13.56784215">
        <ele>150.00000</ele>
        <time>2024-02-08T12:18:24Z</time>
      </trkpt>
      <trkpt lat="42.87023509" lon="13.56771751">
        <ele>149.00000</ele>
        <time>2024-02-08T12:18:25Z</time>
      </trkpt>
      <trkpt lat="42.87026435" lon="13.56759019">
        <ele>150.00000</ele>
        <time>2024-02-08T12:18:26Z</time>
      </trkpt>
      <trkpt lat="42.87029511" lon="13.56747200">
        <ele>152.00000</ele>
        <time>2024-02-08T12:18:27Z</time>
      </trkpt>
      <trkpt lat="42.87033207" lon="13.56734912">
        <ele>153.00000</ele>
        <time>2024-02-08T12:18:28Z</time>
      </trkpt>
      <trkpt lat="42.87038220" lon="13.56723505">
        <ele>153.00000</ele>
        <time>2024-02-08T12:18:29Z</time>
      </trkpt>
      <trkpt lat="42.87045478" lon="13.56716103">
        <ele>151.00000</ele>
        <time>2024-02-08T12:18:30Z</time>
      </trkpt>
      <trkpt lat="42.87052804" lon="13.56710303">
        <ele>149.00000</ele>
        <time>2024-02-08T12:18:31Z</time>
      </trkpt>
      <trkpt lat="42.87060549" lon="13.56706121">
        <ele>150.00000</ele>
        <time>2024-02-08T12:18:32Z</time>
      </trkpt>
      <trkpt lat="42.87068478" lon="13.56701871">
        <ele>152.00000</ele>
        <time>2024-02-08T12:18:33Z</time>
      </trkpt>
      <trkpt lat="42.87076357" lon="13.56697722">
        <ele>154.00000</ele>
        <time>2024-02-08T12:18:34Z</time>
      </trkpt>
      <trkpt lat="42.87084689" lon="13.56695777">
        <ele>156.00000</ele>
        <time>2024-02-08T12:18:35Z</time>
      </trkpt>
      <trkpt lat="42.87092392" lon="13.56697705">
        <ele>157.00000</ele>
        <time>2024-02-08T12:18:36Z</time>
      </trkpt>
      <trkpt lat="42.87098309" lon="13.56702919">
        <ele>158.00000</ele>
        <time>2024-02-08T12:18:37Z</time>
      </trkpt>
      <trkpt lat="42.87102492" lon="13.56710387">
        <ele>158.00000</ele>
        <time>2024-02-08T12:18:38Z</time>
      </trkpt>
      <trkpt lat="42.87105719" lon="13.56719012">
        <ele>158.00000</ele>
        <time>2024-02-08T12:18:39Z</time>
      </trkpt>
      <trkpt lat="42.87107923" lon="13.56726338">
        <ele>158.00000</ele>
        <time>2024-02-08T12:18:40Z</time>
      </trkpt>
      <trkpt lat="42.87110907" lon="13.56734929">
        <ele>158.00000</ele>
        <time>2024-02-08T12:18:41Z</time>
      </trkpt>
      <trkpt lat="42.87113648" lon="13.56743185">
        <ele>157.00000</ele>
        <time>2024-02-08T12:18:42Z</time>
      </trkpt>
      <trkpt lat="42.87116984" lon="13.56752615">
        <ele>157.00000</ele>
        <time>2024-02-08T12:18:43Z</time>
      </trkpt>
      <trkpt lat="42.87119340" lon="13.56760343">
        <ele>156.00000</ele>
        <time>2024-02-08T12:18:44Z</time>
      </trkpt>
      <trkpt lat="42.87121561" lon="13.56767971">
        <ele>156.00000</ele>
        <time>2024-02-08T12:18:45Z</time>
      </trkpt>
      <trkpt lat="42.87122751" lon="13.56774123">
        <ele>155.00000</ele>
        <time>2024-02-08T12:18:46Z</time>
      </trkpt>
      <trkpt lat="42.87124436" lon="13.56781616">
        <ele>154.00000</ele>
        <time>2024-02-08T12:18:47Z</time>
      </trkpt>
      <trkpt lat="42.87125676" lon="13.56788942">
        <ele>153.00000</ele>
        <time>2024-02-08T12:18:48Z</time>
      </trkpt>
      <trkpt lat="42.87127696" lon="13.56795832">
        <ele>152.00000</ele>
        <time>2024-02-08T12:18:49Z</time>
      </trkpt>
      <trkpt lat="42.87130001" lon="13.56803694">
        <ele>151.00000</ele>
        <time>2024-02-08T12:18:50Z</time>
      </trkpt>
      <trkpt lat="42.87132734" lon="13.56809486">
        <ele>151.00000</ele>
        <time>2024-02-08T12:18:51Z</time>
      </trkpt>
      <trkpt lat="42.87136489" lon="13.56814582">
        <ele>151.00000</ele>
        <time>2024-02-08T12:18:52Z</time>
      </trkpt>
      <trkpt lat="42.87141216" lon="13.56818128">
        <ele>151.00000</ele>
        <time>2024-02-08T12:18:53Z</time>
      </trkpt>
      <trkpt lat="42.87146489" lon="13.56819779">
        <ele>152.00000</ele>
        <time>2024-02-08T12:18:54Z</time>
      </trkpt>
      <trkpt lat="42.87152105" lon="13.56821196">
        <ele>153.00000</ele>
        <time>2024-02-08T12:18:55Z</time>
      </trkpt>
      <trkpt lat="42.87157729" lon="13.56822637">
        <ele>153.00000</ele>
        <time>2024-02-08T12:18:56Z</time>
      </trkpt>
      <trkpt lat="42.87163588" lon="13.56823333">
        <ele>154.00000</ele>
        <time>2024-02-08T12:18:57Z</time>
      </trkpt>
      <trkpt lat="42.87169547" lon="13.56824330">
        <ele>154.00000</ele>
        <time>2024-02-08T12:18:58Z</time>
      </trkpt>
      <trkpt lat="42.87175280" lon="13.56824180">
        <ele>154.00000</ele>
        <time>2024-02-08T12:18:59Z</time>
      </trkpt>
      <trkpt lat="42.87180544" lon="13.56823023">
        <ele>154.00000</ele>
        <time>2024-02-08T12:19:00Z</time>
      </trkpt>
      <trkpt lat="42.87185121" lon="13.56820274">
        <ele>154.00000</ele>
        <time>2024-02-08T12:19:01Z</time>
      </trkpt>
      <trkpt lat="42.87189605" lon="13.56815630">
        <ele>155.00000</ele>
        <time>2024-02-08T12:19:02Z</time>
      </trkpt>
      <trkpt lat="42.87193997" lon="13.56810844">
        <ele>156.00000</ele>
        <time>2024-02-08T12:19:03Z</time>
      </trkpt>
      <trkpt lat="42.87198423" lon="13.56805639">
        <ele>155.00000</ele>
        <time>2024-02-08T12:19:04Z</time>
      </trkpt>
      <trkpt lat="42.87202505" lon="13.56800962">
        <ele>155.00000</ele>
        <time>2024-02-08T12:19:05Z</time>
      </trkpt>
      <trkpt lat="42.87206872" lon="13.56796167">
        <ele>155.00000</ele>
        <time>2024-02-08T12:19:06Z</time>
      </trkpt>
      <trkpt lat="42.87211205" lon="13.56791364">
        <ele>155.00000</ele>
        <time>2024-02-08T12:19:07Z</time>
      </trkpt>
      <trkpt lat="42.87215296" lon="13.56786511">
        <ele>156.00000</ele>
        <time>2024-02-08T12:19:08Z</time>
      </trkpt>
      <trkpt lat="42.87219168" lon="13.56781977">
        <ele>157.00000</ele>
        <time>2024-02-08T12:19:09Z</time>
      </trkpt>
      <trkpt lat="42.87222906" lon="13.56777484">
        <ele>157.00000</ele>
        <time>2024-02-08T12:19:10Z</time>
      </trkpt>
      <trkpt lat="42.87226687" lon="13.56772740">
        <ele>158.00000</ele>
        <time>2024-02-08T12:19:11Z</time>
      </trkpt>
      <trkpt lat="42.87230266" lon="13.56768339">
        <ele>159.00000</ele>
        <time>2024-02-08T12:19:12Z</time>
      </trkpt>
      <trkpt lat="42.87233778" lon="13.56764014">
        <ele>160.00000</ele>
        <time>2024-02-08T12:19:13Z</time>
      </trkpt>
      <trkpt lat="42.87237156" lon="13.56759597">
        <ele>160.00000</ele>
        <time>2024-02-08T12:19:14Z</time>
      </trkpt>
      <trkpt lat="42.87240425" lon="13.56755096">
        <ele>161.00000</ele>
        <time>2024-02-08T12:19:15Z</time>
      </trkpt>
      <trkpt lat="42.87243920" lon="13.56750863">
        <ele>162.00000</ele>
        <time>2024-02-08T12:19:16Z</time>
      </trkpt>
      <trkpt lat="42.87247591" lon="13.56746655">
        <ele>162.00000</ele>
        <time>2024-02-08T12:19:17Z</time>
      </trkpt>
      <trkpt lat="42.87251346" lon="13.56742355">
        <ele>162.00000</ele>
        <time>2024-02-08T12:19:18Z</time>
      </trkpt>
      <trkpt lat="42.87255093" lon="13.56738190">
        <ele>163.00000</ele>
        <time>2024-02-08T12:19:19Z</time>
      </trkpt>
      <trkpt lat="42.87258706" lon="13.56733823">
        <ele>163.00000</ele>
        <time>2024-02-08T12:19:20Z</time>
      </trkpt>
      <trkpt lat="42.87262234" lon="13.56729682">
        <ele>164.00000</ele>
        <time>2024-02-08T12:19:21Z</time>
      </trkpt>
      <trkpt lat="42.87265562" lon="13.56725248">
        <ele>164.00000</ele>
        <time>2024-02-08T12:19:22Z</time>
      </trkpt>
      <trkpt lat="42.87269141" lon="13.56720739">
        <ele>165.00000</ele>
        <time>2024-02-08T12:19:23Z</time>
      </trkpt>
      <trkpt lat="42.87272896" lon="13.56716313">
        <ele>166.00000</ele>
        <time>2024-02-08T12:19:24Z</time>
      </trkpt>
      <trkpt lat="42.87276743" lon="13.56711896">
        <ele>167.00000</ele>
        <time>2024-02-08T12:19:25Z</time>
      </trkpt>
      <trkpt lat="42.87280381" lon="13.56707420">
        <ele>167.00000</ele>
        <time>2024-02-08T12:19:26Z</time>
      </trkpt>
      <trkpt lat="42.87283902" lon="13.56703069">
        <ele>168.00000</ele>
        <time>2024-02-08T12:19:27Z</time>
      </trkpt>
      <trkpt lat="42.87287464" lon="13.56698803">
        <ele>168.00000</ele>
        <time>2024-02-08T12:19:28Z</time>
      </trkpt>
      <trkpt lat="42.87290959" lon="13.56694445">
        <ele>169.00000</ele>
        <time>2024-02-08T12:19:29Z</time>
      </trkpt>
      <trkpt lat="42.87294555" lon="13.56690153">
        <ele>170.00000</ele>
        <time>2024-02-08T12:19:30Z</time>
      </trkpt>
      <trkpt lat="42.87298394" lon="13.56685878">
        <ele>170.00000</ele>
        <time>2024-02-08T12:19:31Z</time>
      </trkpt>
      <trkpt lat="42.87302006" lon="13.56681394">
        <ele>170.00000</ele>
        <time>2024-02-08T12:19:32Z</time>
      </trkpt>
      <trkpt lat="42.87305175" lon="13.56677446">
        <ele>171.00000</ele>
        <time>2024-02-08T12:19:33Z</time>
      </trkpt>
      <trkpt lat="42.87307782" lon="13.56673666">
        <ele>171.00000</ele>
        <time>2024-02-08T12:19:34Z</time>
      </trkpt>
      <trkpt lat="42.87310581" lon="13.56669290">
        <ele>172.00000</ele>
        <time>2024-02-08T12:19:35Z</time>
      </trkpt>
      <trkpt lat="42.87313557" lon="13.56664303">
        <ele>172.00000</ele>
        <time>2024-02-08T12:19:36Z</time>
      </trkpt>
      <trkpt lat="42.87316482" lon="13.56659173">
        <ele>173.00000</ele>
        <time>2024-02-08T12:19:37Z</time>
      </trkpt>
      <trkpt lat="42.87319223" lon="13.56654178">
        <ele>174.00000</ele>
        <time>2024-02-08T12:19:38Z</time>
      </trkpt>
      <trkpt lat="42.87321846" lon="13.56649224">
        <ele>175.00000</ele>
        <time>2024-02-08T12:19:39Z</time>
      </trkpt>
      <trkpt lat="42.87324755" lon="13.56644120">
        <ele>175.00000</ele>
        <time>2024-02-08T12:19:40Z</time>
      </trkpt>
      <trkpt lat="42.87327496" lon="13.56638889">
        <ele>177.00000</ele>
        <time>2024-02-08T12:19:41Z</time>
      </trkpt>
      <trkpt lat="42.87330145" lon="13.56633642">
        <ele>177.00000</ele>
        <time>2024-02-08T12:19:42Z</time>
      </trkpt>
      <trkpt lat="42.87332676" lon="13.56628437">
        <ele>179.00000</ele>
        <time>2024-02-08T12:19:43Z</time>
      </trkpt>
      <trkpt lat="42.87335249" lon="13.56623358">
        <ele>180.00000</ele>
        <time>2024-02-08T12:19:44Z</time>
      </trkpt>
      <trkpt lat="42.87338074" lon="13.56618454">
        <ele>180.00000</ele>
        <time>2024-02-08T12:19:45Z</time>
      </trkpt>
      <trkpt lat="42.87341049" lon="13.56613811">
        <ele>181.00000</ele>
        <time>2024-02-08T12:19:46Z</time>
      </trkpt>
      <trkpt lat="42.87344209" lon="13.56609569">
        <ele>181.00000</ele>
        <time>2024-02-08T12:19:47Z</time>
      </trkpt>
      <trkpt lat="42.87347529" lon="13.56605563">
        <ele>182.00000</ele>
        <time>2024-02-08T12:19:48Z</time>
      </trkpt>
      <trkpt lat="42.87350219" lon="13.56601498">
        <ele>182.00000</ele>
        <time>2024-02-08T12:19:49Z</time>
      </trkpt>
      <trkpt lat="42.87352164" lon="13.56596644">
        <ele>183.00000</ele>
        <time>2024-02-08T12:19:50Z</time>
      </trkpt>
      <trkpt lat="42.87353103" lon="13.56591523">
        <ele>185.00000</ele>
        <time>2024-02-08T12:19:51Z</time>
      </trkpt>
      <trkpt lat="42.87352734" lon="13.56586234">
        <ele>187.00000</ele>
        <time>2024-02-08T12:19:52Z</time>
      </trkpt>
      <trkpt lat="42.87351326" lon="13.56582228">
        <ele>188.00000</ele>
        <time>2024-02-08T12:19:53Z</time>
      </trkpt>
      <trkpt lat="42.87348886" lon="13.56579554">
        <ele>190.00000</ele>
        <time>2024-02-08T12:19:54Z</time>
      </trkpt>
      <trkpt lat="42.87345433" lon="13.56578732">
        <ele>191.00000</ele>
        <time>2024-02-08T12:19:55Z</time>
      </trkpt>
      <trkpt lat="42.87341485" lon="13.56579872">
        <ele>191.00000</ele>
        <time>2024-02-08T12:19:56Z</time>
      </trkpt>
      <trkpt lat="42.87337705" lon="13.56582596">
        <ele>192.00000</ele>
        <time>2024-02-08T12:19:57Z</time>
      </trkpt>
      <trkpt lat="42.87333791" lon="13.56586779">
        <ele>191.00000</ele>
        <time>2024-02-08T12:19:58Z</time>
      </trkpt>
      <trkpt lat="42.87330111" lon="13.56591649">
        <ele>190.00000</ele>
        <time>2024-02-08T12:19:59Z</time>
      </trkpt>
      <trkpt lat="42.87326867" lon="13.56597231">
        <ele>188.00000</ele>
        <time>2024-02-08T12:20:00Z</time>
      </trkpt>
      <trkpt lat="42.87324680" lon="13.56602864">
        <ele>186.00000</ele>
        <time>2024-02-08T12:20:01Z</time>
      </trkpt>
      <trkpt lat="42.87322743" lon="13.56608807">
        <ele>184.00000</ele>
        <time>2024-02-08T12:20:02Z</time>
      </trkpt>
      <trkpt lat="42.87319332" lon="13.56615286">
        <ele>182.00000</ele>
        <time>2024-02-08T12:20:03Z</time>
      </trkpt>
      <trkpt lat="42.87316256" lon="13.56621396">
        <ele>181.00000</ele>
        <time>2024-02-08T12:20:04Z</time>
      </trkpt>
      <trkpt lat="42.87313004" lon="13.56627951">
        <ele>181.00000</ele>
        <time>2024-02-08T12:20:05Z</time>
      </trkpt>
      <trkpt lat="42.87309693" lon="13.56634614">
        <ele>180.00000</ele>
        <time>2024-02-08T12:20:06Z</time>
      </trkpt>
      <trkpt lat="42.87305510" lon="13.56641077">
        <ele>180.00000</ele>
        <time>2024-02-08T12:20:07Z</time>
      </trkpt>
      <trkpt lat="42.87301009" lon="13.56646433">
        <ele>179.00000</ele>
        <time>2024-02-08T12:20:08Z</time>
      </trkpt>
      <trkpt lat="42.87296357" lon="13.56651546">
        <ele>178.00000</ele>
        <time>2024-02-08T12:20:09Z</time>
      </trkpt>
      <trkpt lat="42.87292049" lon="13.56656340">
        <ele>178.00000</ele>
        <time>2024-02-08T12:20:10Z</time>
      </trkpt>
      <trkpt lat="42.87287724" lon="13.56660305">
        <ele>178.00000</ele>
        <time>2024-02-08T12:20:11Z</time>
      </trkpt>
      <trkpt lat="42.87283139" lon="13.56664479">
        <ele>178.00000</ele>
        <time>2024-02-08T12:20:12Z</time>
      </trkpt>
      <trkpt lat="42.87278294" lon="13.56667924">
        <ele>178.00000</ele>
        <time>2024-02-08T12:20:13Z</time>
      </trkpt>
      <trkpt lat="42.87273500" lon="13.56670883">
        <ele>177.00000</ele>
        <time>2024-02-08T12:20:14Z</time>
      </trkpt>
      <trkpt lat="42.87268722" lon="13.56674487">
        <ele>176.00000</ele>
        <time>2024-02-08T12:20:15Z</time>
      </trkpt>
      <trkpt lat="42.87264162" lon="13.56679324">
        <ele>175.00000</ele>
        <time>2024-02-08T12:20:16Z</time>
      </trkpt>
      <trkpt lat="42.87259703" lon="13.56683623">
        <ele>175.00000</ele>
        <time>2024-02-08T12:20:17Z</time>
      </trkpt>
      <trkpt lat="42.87255386" lon="13.56686297">
        <ele>174.00000</ele>
        <time>2024-02-08T12:20:18Z</time>
      </trkpt>
      <trkpt lat="42.87251145" lon="13.56689373">
        <ele>174.00000</ele>
        <time>2024-02-08T12:20:19Z</time>
      </trkpt>
      <trkpt lat="42.87247013" lon="13.56692374">
        <ele>174.00000</ele>
        <time>2024-02-08T12:20:20Z</time>
      </trkpt>
      <trkpt lat="42.87243342" lon="13.56696029">
        <ele>174.00000</ele>
        <time>2024-02-08T12:20:21Z</time>
      </trkpt>
      <trkpt lat="42.87239838" lon="13.56699557">
        <ele>174.00000</ele>
        <time>2024-02-08T12:20:22Z</time>
      </trkpt>
      <trkpt lat="42.87236217" lon="13.56703086">
        <ele>174.00000</ele>
        <time>2024-02-08T12:20:23Z</time>
      </trkpt>
      <trkpt lat="42.87232747" lon="13.56705224">
        <ele>174.00000</ele>
        <time>2024-02-08T12:20:24Z</time>
      </trkpt>
      <trkpt lat="42.87227944" lon="13.56707973">
        <ele>175.00000</ele>
        <time>2024-02-08T12:20:25Z</time>
      </trkpt>
      <trkpt lat="42.87222563" lon="13.56711175">
        <ele>176.00000</ele>
        <time>2024-02-08T12:20:26Z</time>
      </trkpt>
      <trkpt lat="42.87218305" lon="13.56713513">
        <ele>176.00000</ele>
        <time>2024-02-08T12:20:27Z</time>
      </trkpt>
      <trkpt lat="42.87213921" lon="13.56715600">
        <ele>177.00000</ele>
        <time>2024-02-08T12:20:28Z</time>
      </trkpt>
      <trkpt lat="42.87210091" lon="13.56717604">
        <ele>177.00000</ele>
        <time>2024-02-08T12:20:29Z</time>
      </trkpt>
      <trkpt lat="42.87205405" lon="13.56719590">
        <ele>178.00000</ele>
        <time>2024-02-08T12:20:30Z</time>
      </trkpt>
      <trkpt lat="42.87200946" lon="13.56721384">
        <ele>179.00000</ele>
        <time>2024-02-08T12:20:31Z</time>
      </trkpt>
      <trkpt lat="42.87196386" lon="13.56723404">
        <ele>180.00000</ele>
        <time>2024-02-08T12:20:32Z</time>
      </trkpt>
      <trkpt lat="42.87190854" lon="13.56726304">
        <ele>179.00000</ele>
        <time>2024-02-08T12:20:33Z</time>
      </trkpt>
      <trkpt lat="42.87186956" lon="13.56728592">
        <ele>178.00000</ele>
        <time>2024-02-08T12:20:34Z</time>
      </trkpt>
      <trkpt lat="42.87182439" lon="13.56731677">
        <ele>177.00000</ele>
        <time>2024-02-08T12:20:35Z</time>
      </trkpt>
      <trkpt lat="42.87178373" lon="13.56735080">
        <ele>176.00000</ele>
        <time>2024-02-08T12:20:36Z</time>
      </trkpt>
      <trkpt lat="42.87174283" lon="13.56738760">
        <ele>176.00000</ele>
        <time>2024-02-08T12:20:37Z</time>
      </trkpt>
      <trkpt lat="42.87170209" lon="13.56742540">
        <ele>175.00000</ele>
        <time>2024-02-08T12:20:38Z</time>
      </trkpt>
      <trkpt lat="42.87165373" lon="13.56747217">
        <ele>174.00000</ele>
        <time>2024-02-08T12:20:39Z</time>
      </trkpt>
      <trkpt lat="42.87161367" lon="13.56750503">
        <ele>172.00000</ele>
        <time>2024-02-08T12:20:40Z</time>
      </trkpt>
      <trkpt lat="42.87157000" lon="13.56752464">
        <ele>170.00000</ele>
        <time>2024-02-08T12:20:41Z</time>
      </trkpt>
      <trkpt lat="42.87152331" lon="13.56752196">
        <ele>169.00000</ele>
        <time>2024-02-08T12:20:42Z</time>
      </trkpt>
      <trkpt lat="42.87148207" lon="13.56749095">
        <ele>168.00000</ele>
        <time>2024-02-08T12:20:43Z</time>
      </trkpt>
      <trkpt lat="42.87145743" lon="13.56743923">
        <ele>167.00000</ele>
        <time>2024-02-08T12:20:44Z</time>
      </trkpt>
      <trkpt lat="42.87146036" lon="13.56739053">
        <ele>167.00000</ele>
        <time>2024-02-08T12:20:45Z</time>
      </trkpt>
      <trkpt lat="42.87148232" lon="13.56733630">
        <ele>168.00000</ele>
        <time>2024-02-08T12:20:46Z</time>
      </trkpt>
      <trkpt lat="42.87152130" lon="13.56728123">
        <ele>170.00000</ele>
        <time>2024-02-08T12:20:47Z</time>
      </trkpt>
      <trkpt lat="42.87155834" lon="13.56723966">
        <ele>172.00000</ele>
        <time>2024-02-08T12:20:48Z</time>
      </trkpt>
      <trkpt lat="42.87159866" lon="13.56720227">
        <ele>173.00000</ele>
        <time>2024-02-08T12:20:49Z</time>
      </trkpt>
      <trkpt lat="42.87164300" lon="13.56716556">
        <ele>174.00000</ele>
        <time>2024-02-08T12:20:50Z</time>
      </trkpt>
      <trkpt lat="42.87168659" lon="13.56713178">
        <ele>175.00000</ele>
        <time>2024-02-08T12:20:51Z</time>
      </trkpt>
      <trkpt lat="42.87172783" lon="13.56709549">
        <ele>176.00000</ele>
        <time>2024-02-08T12:20:52Z</time>
      </trkpt>
      <trkpt lat="42.87176764" lon="13.56705668">
        <ele>176.00000</ele>
        <time>2024-02-08T12:20:53Z</time>
      </trkpt>
      <trkpt lat="42.87180067" lon="13.56702617">
        <ele>176.00000</ele>
        <time>2024-02-08T12:20:54Z</time>
      </trkpt>
      <trkpt lat="42.87184182" lon="13.56699314">
        <ele>177.00000</ele>
        <time>2024-02-08T12:20:55Z</time>
      </trkpt>
      <trkpt lat="42.87189505" lon="13.56695207">
        <ele>178.00000</ele>
        <time>2024-02-08T12:20:56Z</time>
      </trkpt>
      <trkpt lat="42.87193687" lon="13.56691561">
        <ele>178.00000</ele>
        <time>2024-02-08T12:20:57Z</time>
      </trkpt>
      <trkpt lat="42.87197601" lon="13.56687881">
        <ele>177.00000</ele>
        <time>2024-02-08T12:20:58Z</time>
      </trkpt>
      <trkpt lat="42.87200787" lon="13.56684990">
        <ele>176.00000</ele>
        <time>2024-02-08T12:20:59Z</time>
      </trkpt>
      <trkpt lat="42.87204693" lon="13.56681260">
        <ele>175.00000</ele>
        <time>2024-02-08T12:21:00Z</time>
      </trkpt>
      <trkpt lat="42.87208724" lon="13.56677538">
        <ele>175.00000</ele>
        <time>2024-02-08T12:21:01Z</time>
      </trkpt>
      <trkpt lat="42.87213376" lon="13.56672844">
        <ele>174.00000</ele>
        <time>2024-02-08T12:21:02Z</time>
      </trkpt>
      <trkpt lat="42.87217115" lon="13.56668838">
        <ele>174.00000</ele>
        <time>2024-02-08T12:21:03Z</time>
      </trkpt>
      <trkpt lat="42.87220358" lon="13.56665426">
        <ele>174.00000</ele>
        <time>2024-02-08T12:21:04Z</time>
      </trkpt>
      <trkpt lat="42.87224373" lon="13.56661344">
        <ele>174.00000</ele>
        <time>2024-02-08T12:21:05Z</time>
      </trkpt>
      <trkpt lat="42.87228212" lon="13.56656734">
        <ele>174.00000</ele>
        <time>2024-02-08T12:21:06Z</time>
      </trkpt>
      <trkpt lat="42.87232219" lon="13.56652627">
        <ele>175.00000</ele>
        <time>2024-02-08T12:21:07Z</time>
      </trkpt>
      <trkpt lat="42.87237147" lon="13.56647858">
        <ele>175.00000</ele>
        <time>2024-02-08T12:21:08Z</time>
      </trkpt>
      <trkpt lat="42.87240425" lon="13.56644799">
        <ele>175.00000</ele>
        <time>2024-02-08T12:21:09Z</time>
      </trkpt>
      <trkpt lat="42.87244339" lon="13.56640792">
        <ele>176.00000</ele>
        <time>2024-02-08T12:21:10Z</time>
      </trkpt>
      <trkpt lat="42.87249226" lon="13.56635545">
        <ele>177.00000</ele>
        <time>2024-02-08T12:21:11Z</time>
      </trkpt>
      <trkpt lat="42.87253417" lon="13.56631086">
        <ele>178.00000</ele>
        <time>2024-02-08T12:21:12Z</time>
      </trkpt>
      <trkpt lat="42.87256744" lon="13.56627658">
        <ele>179.00000</ele>
        <time>2024-02-08T12:21:13Z</time>
      </trkpt>
      <trkpt lat="42.87260835" lon="13.56623433">
        <ele>180.00000</ele>
        <time>2024-02-08T12:21:14Z</time>
      </trkpt>
      <trkpt lat="42.87264925" lon="13.56619158">
        <ele>181.00000</ele>
        <time>2024-02-08T12:21:15Z</time>
      </trkpt>
      <trkpt lat="42.87268881" lon="13.56614791">
        <ele>182.00000</ele>
        <time>2024-02-08T12:21:16Z</time>
      </trkpt>
      <trkpt lat="42.87273701" lon="13.56609268">
        <ele>183.00000</ele>
        <time>2024-02-08T12:21:17Z</time>
      </trkpt>
      <trkpt lat="42.87277087" lon="13.56605554">
        <ele>184.00000</ele>
        <time>2024-02-08T12:21:18Z</time>
      </trkpt>
      <trkpt lat="42.87281965" lon="13.56600374">
        <ele>183.00000</ele>
        <time>2024-02-08T12:21:19Z</time>
      </trkpt>
      <trkpt lat="42.87284958" lon="13.56597298">
        <ele>184.00000</ele>
        <time>2024-02-08T12:21:20Z</time>
      </trkpt>
      <trkpt lat="42.87289031" lon="13.56593166">
        <ele>184.00000</ele>
        <time>2024-02-08T12:21:21Z</time>
      </trkpt>
      <trkpt lat="42.87293381" lon="13.56588204">
        <ele>186.00000</ele>
        <time>2024-02-08T12:21:22Z</time>
      </trkpt>
      <trkpt lat="42.87297505" lon="13.56583049">
        <ele>188.00000</ele>
        <time>2024-02-08T12:21:23Z</time>
      </trkpt>
      <trkpt lat="42.87301629" lon="13.56577458">
        <ele>190.00000</ele>
        <time>2024-02-08T12:21:24Z</time>
      </trkpt>
      <trkpt lat="42.87305535" lon="13.56572882">
        <ele>192.00000</ele>
        <time>2024-02-08T12:21:25Z</time>
      </trkpt>
      <trkpt lat="42.87309617" lon="13.56567995">
        <ele>193.00000</ele>
        <time>2024-02-08T12:21:26Z</time>
      </trkpt>
      <trkpt lat="42.87314563" lon="13.56562262">
        <ele>194.00000</ele>
        <time>2024-02-08T12:21:27Z</time>
      </trkpt>
      <trkpt lat="42.87317949" lon="13.56558775">
        <ele>196.00000</ele>
        <time>2024-02-08T12:21:28Z</time>
      </trkpt>
      <trkpt lat="42.87322877" lon="13.56553545">
        <ele>197.00000</ele>
        <time>2024-02-08T12:21:29Z</time>
      </trkpt>
      <trkpt lat="42.87326130" lon="13.56549999">
        <ele>198.00000</ele>
        <time>2024-02-08T12:21:30Z</time>
      </trkpt>
      <trkpt lat="42.87330287" lon="13.56545733">
        <ele>199.00000</ele>
        <time>2024-02-08T12:21:31Z</time>
      </trkpt>
      <trkpt lat="42.87334444" lon="13.56541299">
        <ele>200.00000</ele>
        <time>2024-02-08T12:21:32Z</time>
      </trkpt>
      <trkpt lat="42.87338443" lon="13.56536622">
        <ele>200.00000</ele>
        <time>2024-02-08T12:21:33Z</time>
      </trkpt>
      <trkpt lat="42.87342516" lon="13.56532481">
        <ele>200.00000</ele>
        <time>2024-02-08T12:21:34Z</time>
      </trkpt>
      <trkpt lat="42.87347327" lon="13.56527837">
        <ele>200.00000</ele>
        <time>2024-02-08T12:21:35Z</time>
      </trkpt>
      <trkpt lat="42.87350395" lon="13.56524686">
        <ele>200.00000</ele>
        <time>2024-02-08T12:21:36Z</time>
      </trkpt>
      <trkpt lat="42.87354259" lon="13.56520512">
        <ele>201.00000</ele>
        <time>2024-02-08T12:21:37Z</time>
      </trkpt>
      <trkpt lat="42.87358299" lon="13.56516061">
        <ele>201.00000</ele>
        <time>2024-02-08T12:21:38Z</time>
      </trkpt>
      <trkpt lat="42.87362314" lon="13.56511342">
        <ele>201.00000</ele>
        <time>2024-02-08T12:21:39Z</time>
      </trkpt>
      <trkpt lat="42.87366916" lon="13.56505642">
        <ele>202.00000</ele>
        <time>2024-02-08T12:21:40Z</time>
      </trkpt>
      <trkpt lat="42.87370026" lon="13.56501937">
        <ele>202.00000</ele>
        <time>2024-02-08T12:21:41Z</time>
      </trkpt>
      <trkpt lat="42.87374057" lon="13.56497478">
        <ele>203.00000</ele>
        <time>2024-02-08T12:21:42Z</time>
      </trkpt>
      <trkpt lat="42.87377888" lon="13.56493170">
        <ele>203.00000</ele>
        <time>2024-02-08T12:21:43Z</time>
      </trkpt>
      <trkpt lat="42.87381794" lon="13.56489457">
        <ele>203.00000</ele>
        <time>2024-02-08T12:21:44Z</time>
      </trkpt>
      <trkpt lat="42.87385867" lon="13.56485609">
        <ele>203.00000</ele>
        <time>2024-02-08T12:21:45Z</time>
      </trkpt>
      <trkpt lat="42.87390930" lon="13.56480740">
        <ele>204.00000</ele>
        <time>2024-02-08T12:21:46Z</time>
      </trkpt>
      <trkpt lat="42.87395230" lon="13.56476297">
        <ele>205.00000</ele>
        <time>2024-02-08T12:21:47Z</time>
      </trkpt>
      <trkpt lat="42.87398851" lon="13.56472693">
        <ele>206.00000</ele>
        <time>2024-02-08T12:21:48Z</time>
      </trkpt>
      <trkpt lat="42.87403302" lon="13.56467915">
        <ele>206.00000</ele>
        <time>2024-02-08T12:21:49Z</time>
      </trkpt>
      <trkpt lat="42.87408155" lon="13.56462157">
        <ele>207.00000</ele>
        <time>2024-02-08T12:21:50Z</time>
      </trkpt>
      <trkpt lat="42.87411256" lon="13.56458519">
        <ele>208.00000</ele>
        <time>2024-02-08T12:21:51Z</time>
      </trkpt>
      <trkpt lat="42.87415221" lon="13.56453901">
        <ele>209.00000</ele>
        <time>2024-02-08T12:21:52Z</time>
      </trkpt>
      <trkpt lat="42.87419152" lon="13.56448922">
        <ele>209.00000</ele>
        <time>2024-02-08T12:21:53Z</time>
      </trkpt>
      <trkpt lat="42.87423368" lon="13.56442887">
        <ele>209.00000</ele>
        <time>2024-02-08T12:21:54Z</time>
      </trkpt>
      <trkpt lat="42.87425648" lon="13.56438620">
        <ele>209.00000</ele>
        <time>2024-02-08T12:21:55Z</time>
      </trkpt>
      <trkpt lat="42.87428515" lon="13.56433139">
        <ele>209.00000</ele>
        <time>2024-02-08T12:21:56Z</time>
      </trkpt>
      <trkpt lat="42.87431549" lon="13.56426928">
        <ele>209.00000</ele>
        <time>2024-02-08T12:21:57Z</time>
      </trkpt>
      <trkpt lat="42.87434575" lon="13.56420163">
        <ele>209.00000</ele>
        <time>2024-02-08T12:21:58Z</time>
      </trkpt>
      <trkpt lat="42.87437014" lon="13.56413475">
        <ele>209.00000</ele>
        <time>2024-02-08T12:21:59Z</time>
      </trkpt>
      <trkpt lat="42.87439109" lon="13.56406711">
        <ele>209.00000</ele>
        <time>2024-02-08T12:22:00Z</time>
      </trkpt>
      <trkpt lat="42.87440995" lon="13.56399946">
        <ele>209.00000</ele>
        <time>2024-02-08T12:22:01Z</time>
      </trkpt>
      <trkpt lat="42.87442755" lon="13.56392822">
        <ele>209.00000</ele>
        <time>2024-02-08T12:22:02Z</time>
      </trkpt>
      <trkpt lat="42.87444247" lon="13.56385446">
        <ele>209.00000</ele>
        <time>2024-02-08T12:22:03Z</time>
      </trkpt>
      <trkpt lat="42.87445924" lon="13.56376854">
        <ele>209.00000</ele>
        <time>2024-02-08T12:22:04Z</time>
      </trkpt>
      <trkpt lat="42.87446921" lon="13.56370828">
        <ele>209.00000</ele>
        <time>2024-02-08T12:22:05Z</time>
      </trkpt>
      <trkpt lat="42.87448137" lon="13.56363695">
        <ele>209.00000</ele>
        <time>2024-02-08T12:22:06Z</time>
      </trkpt>
      <trkpt lat="42.87449385" lon="13.56355053">
        <ele>209.00000</ele>
        <time>2024-02-08T12:22:07Z</time>
      </trkpt>
      <trkpt lat="42.87450123" lon="13.56349152">
        <ele>209.00000</ele>
        <time>2024-02-08T12:22:08Z</time>
      </trkpt>
      <trkpt lat="42.87450886" lon="13.56341592">
        <ele>209.00000</ele>
        <time>2024-02-08T12:22:09Z</time>
      </trkpt>
      <trkpt lat="42.87451657" lon="13.56332589">
        <ele>209.00000</ele>
        <time>2024-02-08T12:22:10Z</time>
      </trkpt>
      <trkpt lat="42.87452177" lon="13.56326521">
        <ele>210.00000</ele>
        <time>2024-02-08T12:22:11Z</time>
      </trkpt>
      <trkpt lat="42.87452638" lon="13.56318893">
        <ele>210.00000</ele>
        <time>2024-02-08T12:22:12Z</time>
      </trkpt>
      <trkpt lat="42.87452847" lon="13.56311291">
        <ele>210.00000</ele>
        <time>2024-02-08T12:22:13Z</time>
      </trkpt>
      <trkpt lat="42.87452814" lon="13.56303596">
        <ele>211.00000</ele>
        <time>2024-02-08T12:22:14Z</time>
      </trkpt>
      <trkpt lat="42.87452671" lon="13.56295634">
        <ele>211.00000</ele>
        <time>2024-02-08T12:22:15Z</time>
      </trkpt>
      <trkpt lat="42.87452738" lon="13.56287788">
        <ele>211.00000</ele>
        <time>2024-02-08T12:22:16Z</time>
      </trkpt>
      <trkpt lat="42.87452881" lon="13.56279917">
        <ele>212.00000</ele>
        <time>2024-02-08T12:22:17Z</time>
      </trkpt>
      <trkpt lat="42.87453023" lon="13.56272097">
        <ele>212.00000</ele>
        <time>2024-02-08T12:22:18Z</time>
      </trkpt>
      <trkpt lat="42.87453082" lon="13.56264453">
        <ele>212.00000</ele>
        <time>2024-02-08T12:22:19Z</time>
      </trkpt>
      <trkpt lat="42.87452965" lon="13.56255803">
        <ele>213.00000</ele>
        <time>2024-02-08T12:22:20Z</time>
      </trkpt>
      <trkpt lat="42.87452763" lon="13.56249902">
        <ele>213.00000</ele>
        <time>2024-02-08T12:22:21Z</time>
      </trkpt>
      <trkpt lat="42.87452462" lon="13.56242283">
        <ele>214.00000</ele>
        <time>2024-02-08T12:22:22Z</time>
      </trkpt>
      <trkpt lat="42.87452378" lon="13.56235024">
        <ele>215.00000</ele>
        <time>2024-02-08T12:22:23Z</time>
      </trkpt>
      <trkpt lat="42.87452378" lon="13.56227732">
        <ele>215.00000</ele>
        <time>2024-02-08T12:22:24Z</time>
      </trkpt>
      <trkpt lat="42.87452269" lon="13.56220331">
        <ele>216.00000</ele>
        <time>2024-02-08T12:22:25Z</time>
      </trkpt>
      <trkpt lat="42.87451975" lon="13.56211270">
        <ele>217.00000</ele>
        <time>2024-02-08T12:22:26Z</time>
      </trkpt>
      <trkpt lat="42.87451590" lon="13.56205402">
        <ele>217.00000</ele>
        <time>2024-02-08T12:22:27Z</time>
      </trkpt>
      <trkpt lat="42.87451087" lon="13.56198295">
        <ele>217.00000</ele>
        <time>2024-02-08T12:22:28Z</time>
      </trkpt>
      <trkpt lat="42.87450718" lon="13.56189963">
        <ele>218.00000</ele>
        <time>2024-02-08T12:22:29Z</time>
      </trkpt>
      <trkpt lat="42.87450257" lon="13.56183090">
        <ele>218.00000</ele>
        <time>2024-02-08T12:22:30Z</time>
      </trkpt>
      <trkpt lat="42.87450022" lon="13.56176384">
        <ele>218.00000</ele>
        <time>2024-02-08T12:22:31Z</time>
      </trkpt>
      <trkpt lat="42.87449872" lon="13.56171070">
        <ele>218.00000</ele>
        <time>2024-02-08T12:22:32Z</time>
      </trkpt>
      <trkpt lat="42.87449679" lon="13.56164356">
        <ele>218.00000</ele>
        <time>2024-02-08T12:22:33Z</time>
      </trkpt>
      <trkpt lat="42.87449461" lon="13.56156377">
        <ele>218.00000</ele>
        <time>2024-02-08T12:22:34Z</time>
      </trkpt>
      <trkpt lat="42.87449436" lon="13.56151339">
        <ele>219.00000</ele>
        <time>2024-02-08T12:22:35Z</time>
      </trkpt>
      <trkpt lat="42.87449335" lon="13.56145162">
        <ele>219.00000</ele>
        <time>2024-02-08T12:22:36Z</time>
      </trkpt>
      <trkpt lat="42.87449360" lon="13.56138842">
        <ele>220.00000</ele>
        <time>2024-02-08T12:22:37Z</time>
      </trkpt>
      <trkpt lat="42.87449318" lon="13.56132404">
        <ele>220.00000</ele>
        <time>2024-02-08T12:22:38Z</time>
      </trkpt>
      <trkpt lat="42.87449059" lon="13.56125942">
        <ele>220.00000</ele>
        <time>2024-02-08T12:22:39Z</time>
      </trkpt>
      <trkpt lat="42.87448740" lon="13.56118524">
        <ele>220.00000</ele>
        <time>2024-02-08T12:22:40Z</time>
      </trkpt>
      <trkpt lat="42.87448137" lon="13.56113621">
        <ele>220.00000</ele>
        <time>2024-02-08T12:22:41Z</time>
      </trkpt>
      <trkpt lat="42.87447667" lon="13.56106907">
        <ele>220.00000</ele>
        <time>2024-02-08T12:22:42Z</time>
      </trkpt>
      <trkpt lat="42.87447256" lon="13.56099153">
        <ele>220.00000</ele>
        <time>2024-02-08T12:22:43Z</time>
      </trkpt>
      <trkpt lat="42.87447022" lon="13.56094091">
        <ele>220.00000</ele>
        <time>2024-02-08T12:22:44Z</time>
      </trkpt>
      <trkpt lat="42.87446896" lon="13.56087611">
        <ele>220.00000</ele>
        <time>2024-02-08T12:22:45Z</time>
      </trkpt>
      <trkpt lat="42.87446770" lon="13.56080034">
        <ele>220.00000</ele>
        <time>2024-02-08T12:22:46Z</time>
      </trkpt>
      <trkpt lat="42.87446695" lon="13.56073983">
        <ele>220.00000</ele>
        <time>2024-02-08T12:22:47Z</time>
      </trkpt>
      <trkpt lat="42.87446720" lon="13.56068895">
        <ele>220.00000</ele>
        <time>2024-02-08T12:22:48Z</time>
      </trkpt>
      <trkpt lat="42.87447273" lon="13.56061141">
        <ele>220.00000</ele>
        <time>2024-02-08T12:22:49Z</time>
      </trkpt>
      <trkpt lat="42.87447969" lon="13.56054679">
        <ele>220.00000</ele>
        <time>2024-02-08T12:22:50Z</time>
      </trkpt>
      <trkpt lat="42.87448824" lon="13.56048082">
        <ele>221.00000</ele>
        <time>2024-02-08T12:22:51Z</time>
      </trkpt>
      <trkpt lat="42.87449771" lon="13.56041402">
        <ele>222.00000</ele>
        <time>2024-02-08T12:22:52Z</time>
      </trkpt>
      <trkpt lat="42.87450408" lon="13.56036205">
        <ele>223.00000</ele>
        <time>2024-02-08T12:22:53Z</time>
      </trkpt>
      <trkpt lat="42.87451682" lon="13.56028343">
        <ele>224.00000</ele>
        <time>2024-02-08T12:22:54Z</time>
      </trkpt>
      <trkpt lat="42.87453065" lon="13.56021780">
        <ele>225.00000</ele>
        <time>2024-02-08T12:22:55Z</time>
      </trkpt>
      <trkpt lat="42.87454607" lon="13.56016617">
        <ele>226.00000</ele>
        <time>2024-02-08T12:22:56Z</time>
      </trkpt>
      <trkpt lat="42.87456929" lon="13.56010599">
        <ele>227.00000</ele>
        <time>2024-02-08T12:22:57Z</time>
      </trkpt>
      <trkpt lat="42.87459511" lon="13.56004807">
        <ele>228.00000</ele>
        <time>2024-02-08T12:22:58Z</time>
      </trkpt>
      <trkpt lat="42.87462076" lon="13.55999040">
        <ele>228.00000</ele>
        <time>2024-02-08T12:22:59Z</time>
      </trkpt>
      <trkpt lat="42.87464993" lon="13.55993156">
        <ele>229.00000</ele>
        <time>2024-02-08T12:23:00Z</time>
      </trkpt>
      <trkpt lat="42.87468370" lon="13.55985973">
        <ele>230.00000</ele>
        <time>2024-02-08T12:23:01Z</time>
      </trkpt>
      <trkpt lat="42.87470667" lon="13.55981505">
        <ele>230.00000</ele>
        <time>2024-02-08T12:23:02Z</time>
      </trkpt>
      <trkpt lat="42.87473752" lon="13.55975814">
        <ele>230.00000</ele>
        <time>2024-02-08T12:23:03Z</time>
      </trkpt>
      <trkpt lat="42.87476970" lon="13.55970164">
        <ele>231.00000</ele>
        <time>2024-02-08T12:23:04Z</time>
      </trkpt>
      <trkpt lat="42.87480382" lon="13.55964649">
        <ele>230.00000</ele>
        <time>2024-02-08T12:23:05Z</time>
      </trkpt>
      <trkpt lat="42.87484380" lon="13.55958480">
        <ele>230.00000</ele>
        <time>2024-02-08T12:23:06Z</time>
      </trkpt>
      <trkpt lat="42.87487213" lon="13.55954574">
        <ele>230.00000</ele>
        <time>2024-02-08T12:23:07Z</time>
      </trkpt>
      <trkpt lat="42.87491060" lon="13.55950266">
        <ele>230.00000</ele>
        <time>2024-02-08T12:23:08Z</time>
      </trkpt>
      <trkpt lat="42.87495117" lon="13.55946209">
        <ele>229.00000</ele>
        <time>2024-02-08T12:23:09Z</time>
      </trkpt>
      <trkpt lat="42.87499216" lon="13.55942035">
        <ele>229.00000</ele>
        <time>2024-02-08T12:23:10Z</time>
      </trkpt>
      <trkpt lat="42.87504287" lon="13.55936972">
        <ele>228.00000</ele>
        <time>2024-02-08T12:23:11Z</time>
      </trkpt>
      <trkpt lat="42.87507648" lon="13.55933820">
        <ele>228.00000</ele>
        <time>2024-02-08T12:23:12Z</time>
      </trkpt>
      <trkpt lat="42.87511923" lon="13.55930367">
        <ele>228.00000</ele>
        <time>2024-02-08T12:23:13Z</time>
      </trkpt>
      <trkpt lat="42.87517019" lon="13.55926662">
        <ele>228.00000</ele>
        <time>2024-02-08T12:23:14Z</time>
      </trkpt>
      <trkpt lat="42.87520707" lon="13.55924508">
        <ele>227.00000</ele>
        <time>2024-02-08T12:23:15Z</time>
      </trkpt>
      <trkpt lat="42.87526692" lon="13.55921289">
        <ele>227.00000</ele>
        <time>2024-02-08T12:23:16Z</time>
      </trkpt>
      <trkpt lat="42.87531687" lon="13.55918993">
        <ele>227.00000</ele>
        <time>2024-02-08T12:23:17Z</time>
      </trkpt>
      <trkpt lat="42.87535820" lon="13.55917358">
        <ele>227.00000</ele>
        <time>2024-02-08T12:23:18Z</time>
      </trkpt>
      <trkpt lat="42.87540857" lon="13.55915456">
        <ele>227.00000</ele>
        <time>2024-02-08T12:23:19Z</time>
      </trkpt>
      <trkpt lat="42.87545895" lon="13.55913813">
        <ele>227.00000</ele>
        <time>2024-02-08T12:23:20Z</time>
      </trkpt>
      <trkpt lat="42.87551091" lon="13.55912312">
        <ele>227.00000</ele>
        <time>2024-02-08T12:23:21Z</time>
      </trkpt>
      <trkpt lat="42.87556230" lon="13.55910753">
        <ele>228.00000</ele>
        <time>2024-02-08T12:23:22Z</time>
      </trkpt>
      <trkpt lat="42.87561250" lon="13.55909312">
        <ele>229.00000</ele>
        <time>2024-02-08T12:23:23Z</time>
      </trkpt>
      <trkpt lat="42.87567361" lon="13.55907359">
        <ele>229.00000</ele>
        <time>2024-02-08T12:23:24Z</time>
      </trkpt>
      <trkpt lat="42.87571258" lon="13.55906403">
        <ele>230.00000</ele>
        <time>2024-02-08T12:23:25Z</time>
      </trkpt>
      <trkpt lat="42.87575961" lon="13.55905364">
        <ele>230.00000</ele>
        <time>2024-02-08T12:23:26Z</time>
      </trkpt>
      <trkpt lat="42.87580847" lon="13.55904576">
        <ele>231.00000</ele>
        <time>2024-02-08T12:23:27Z</time>
      </trkpt>
      <trkpt lat="42.87586002" lon="13.55904190">
        <ele>232.00000</ele>
        <time>2024-02-08T12:23:28Z</time>
      </trkpt>
      <trkpt lat="42.87591274" lon="13.55904132">
        <ele>232.00000</ele>
        <time>2024-02-08T12:23:29Z</time>
      </trkpt>
      <trkpt lat="42.87595985" lon="13.55904316">
        <ele>232.00000</ele>
        <time>2024-02-08T12:23:30Z</time>
      </trkpt>
      <trkpt lat="42.87600453" lon="13.55905238">
        <ele>233.00000</ele>
        <time>2024-02-08T12:23:31Z</time>
      </trkpt>
      <trkpt lat="42.87604853" lon="13.55906579">
        <ele>234.00000</ele>
        <time>2024-02-08T12:23:32Z</time>
      </trkpt>
      <trkpt lat="42.87609715" lon="13.55908163">
        <ele>234.00000</ele>
        <time>2024-02-08T12:23:33Z</time>
      </trkpt>
      <trkpt lat="42.87614970" lon="13.55909940">
        <ele>235.00000</ele>
        <time>2024-02-08T12:23:34Z</time>
      </trkpt>
      <trkpt lat="42.87620477" lon="13.55911189">
        <ele>235.00000</ele>
        <time>2024-02-08T12:23:35Z</time>
      </trkpt>
      <trkpt lat="42.87625766" lon="13.55911843">
        <ele>235.00000</ele>
        <time>2024-02-08T12:23:36Z</time>
      </trkpt>
      <trkpt lat="42.87631583" lon="13.55912178">
        <ele>235.00000</ele>
        <time>2024-02-08T12:23:37Z</time>
      </trkpt>
      <trkpt lat="42.87636956" lon="13.55912044">
        <ele>235.00000</ele>
        <time>2024-02-08T12:23:38Z</time>
      </trkpt>
      <trkpt lat="42.87642396" lon="13.55911281">
        <ele>235.00000</ele>
        <time>2024-02-08T12:23:39Z</time>
      </trkpt>
      <trkpt lat="42.87647802" lon="13.55910812">
        <ele>234.00000</ele>
        <time>2024-02-08T12:23:40Z</time>
      </trkpt>
      <trkpt lat="42.87653317" lon="13.55910376">
        <ele>234.00000</ele>
        <time>2024-02-08T12:23:41Z</time>
      </trkpt>
      <trkpt lat="42.87659646" lon="13.55910410">
        <ele>234.00000</ele>
        <time>2024-02-08T12:23:42Z</time>
      </trkpt>
      <trkpt lat="42.87663987" lon="13.55910426">
        <ele>234.00000</ele>
        <time>2024-02-08T12:23:43Z</time>
      </trkpt>
      <trkpt lat="42.87669176" lon="13.55910527">
        <ele>235.00000</ele>
        <time>2024-02-08T12:23:44Z</time>
      </trkpt>
      <trkpt lat="42.87675797" lon="13.55910661">
        <ele>236.00000</ele>
        <time>2024-02-08T12:23:45Z</time>
      </trkpt>
      <trkpt lat="42.87680064" lon="13.55910929">
        <ele>236.00000</ele>
        <time>2024-02-08T12:23:46Z</time>
      </trkpt>
      <trkpt lat="42.87685529" lon="13.55911131">
        <ele>237.00000</ele>
        <time>2024-02-08T12:23:47Z</time>
      </trkpt>
      <trkpt lat="42.87691798" lon="13.55911097">
        <ele>238.00000</ele>
        <time>2024-02-08T12:23:48Z</time>
      </trkpt>
      <trkpt lat="42.87697624" lon="13.55911918">
        <ele>239.00000</ele>
        <time>2024-02-08T12:23:49Z</time>
      </trkpt>
      <trkpt lat="42.87702955" lon="13.55912555">
        <ele>240.00000</ele>
        <time>2024-02-08T12:23:50Z</time>
      </trkpt>
      <trkpt lat="42.87708889" lon="13.55913712">
        <ele>241.00000</ele>
        <time>2024-02-08T12:23:51Z</time>
      </trkpt>
      <trkpt lat="42.87712586" lon="13.55914416">
        <ele>241.00000</ele>
        <time>2024-02-08T12:23:52Z</time>
      </trkpt>
      <trkpt lat="42.87717229" lon="13.55914835">
        <ele>242.00000</ele>
        <time>2024-02-08T12:23:53Z</time>
      </trkpt>
      <trkpt lat="42.87723465" lon="13.55914902">
        <ele>242.00000</ele>
        <time>2024-02-08T12:23:54Z</time>
      </trkpt>
      <trkpt lat="42.87727790" lon="13.55914886">
        <ele>243.00000</ele>
        <time>2024-02-08T12:23:55Z</time>
      </trkpt>
      <trkpt lat="42.87732987" lon="13.55914223">
        <ele>243.00000</ele>
        <time>2024-02-08T12:23:56Z</time>
      </trkpt>
      <trkpt lat="42.87739399" lon="13.55912405">
        <ele>244.00000</ele>
        <time>2024-02-08T12:23:57Z</time>
      </trkpt>
      <trkpt lat="42.87744185" lon="13.55910552">
        <ele>244.00000</ele>
        <time>2024-02-08T12:23:58Z</time>
      </trkpt>
      <trkpt lat="42.87749500" lon="13.55908096">
        <ele>244.00000</ele>
        <time>2024-02-08T12:23:59Z</time>
      </trkpt>
      <trkpt lat="42.87754487" lon="13.55905238">
        <ele>245.00000</ele>
        <time>2024-02-08T12:24:00Z</time>
      </trkpt>
      <trkpt lat="42.87759315" lon="13.55901860">
        <ele>245.00000</ele>
        <time>2024-02-08T12:24:01Z</time>
      </trkpt>
      <trkpt lat="42.87764042" lon="13.55897887">
        <ele>245.00000</ele>
        <time>2024-02-08T12:24:02Z</time>
      </trkpt>
      <trkpt lat="42.87768082" lon="13.55893554">
        <ele>246.00000</ele>
        <time>2024-02-08T12:24:03Z</time>
      </trkpt>
      <trkpt lat="42.87772147" lon="13.55888977">
        <ele>245.00000</ele>
        <time>2024-02-08T12:24:04Z</time>
      </trkpt>
      <trkpt lat="42.87776213" lon="13.55884065">
        <ele>245.00000</ele>
        <time>2024-02-08T12:24:05Z</time>
      </trkpt>
      <trkpt lat="42.87780202" lon="13.55878910">
        <ele>245.00000</ele>
        <time>2024-02-08T12:24:06Z</time>
      </trkpt>
      <trkpt lat="42.87783974" lon="13.55873806">
        <ele>245.00000</ele>
        <time>2024-02-08T12:24:07Z</time>
      </trkpt>
      <trkpt lat="42.87788324" lon="13.55868609">
        <ele>245.00000</ele>
        <time>2024-02-08T12:24:08Z</time>
      </trkpt>
      <trkpt lat="42.87792515" lon="13.55862624">
        <ele>245.00000</ele>
        <time>2024-02-08T12:24:09Z</time>
      </trkpt>
      <trkpt lat="42.87797285" lon="13.55856698">
        <ele>244.00000</ele>
        <time>2024-02-08T12:24:10Z</time>
      </trkpt>
      <trkpt lat="42.87802213" lon="13.55851359">
        <ele>244.00000</ele>
        <time>2024-02-08T12:24:12Z</time>
      </trkpt>
      <trkpt lat="42.87807268" lon="13.55845936">
        <ele>244.00000</ele>
        <time>2024-02-08T12:24:13Z</time>
      </trkpt>
      <trkpt lat="42.87812900" lon="13.55841267">
        <ele>244.00000</ele>
        <time>2024-02-08T12:24:14Z</time>
      </trkpt>
      <trkpt lat="42.87818843" lon="13.55837085">
        <ele>244.00000</ele>
        <time>2024-02-08T12:24:15Z</time>
      </trkpt>
      <trkpt lat="42.87824484" lon="13.55833556">
        <ele>244.00000</ele>
        <time>2024-02-08T12:24:16Z</time>
      </trkpt>
      <trkpt lat="42.87830360" lon="13.55830279">
        <ele>245.00000</ele>
        <time>2024-02-08T12:24:17Z</time>
      </trkpt>
      <trkpt lat="42.87836252" lon="13.55827362">
        <ele>245.00000</ele>
        <time>2024-02-08T12:24:18Z</time>
      </trkpt>
      <trkpt lat="42.87842078" lon="13.55824797">
        <ele>245.00000</ele>
        <time>2024-02-08T12:24:19Z</time>
      </trkpt>
      <trkpt lat="42.87847920" lon="13.55821385">
        <ele>245.00000</ele>
        <time>2024-02-08T12:24:20Z</time>
      </trkpt>
      <trkpt lat="42.87853879" lon="13.55817739">
        <ele>245.00000</ele>
        <time>2024-02-08T12:24:21Z</time>
      </trkpt>
      <trkpt lat="42.87859831" lon="13.55813683">
        <ele>245.00000</ele>
        <time>2024-02-08T12:24:22Z</time>
      </trkpt>
      <trkpt lat="42.87866670" lon="13.55808410">
        <ele>245.00000</ele>
        <time>2024-02-08T12:24:23Z</time>
      </trkpt>
      <trkpt lat="42.87872345" lon="13.55803549">
        <ele>245.00000</ele>
        <time>2024-02-08T12:24:24Z</time>
      </trkpt>
      <trkpt lat="42.87876821" lon="13.55799433">
        <ele>245.00000</ele>
        <time>2024-02-08T12:24:25Z</time>
      </trkpt>
      <trkpt lat="42.87882227" lon="13.55793692">
        <ele>246.00000</ele>
        <time>2024-02-08T12:24:26Z</time>
      </trkpt>
      <trkpt lat="42.87887055" lon="13.55787296">
        <ele>246.00000</ele>
        <time>2024-02-08T12:24:27Z</time>
      </trkpt>
      <trkpt lat="42.87892126" lon="13.55779560">
        <ele>245.00000</ele>
        <time>2024-02-08T12:24:28Z</time>
      </trkpt>
      <trkpt lat="42.87894984" lon="13.55773726">
        <ele>245.00000</ele>
        <time>2024-02-08T12:24:29Z</time>
      </trkpt>
      <trkpt lat="42.87897868" lon="13.55766048">
        <ele>245.00000</ele>
        <time>2024-02-08T12:24:30Z</time>
      </trkpt>
      <trkpt lat="42.87900139" lon="13.55757960">
        <ele>245.00000</ele>
        <time>2024-02-08T12:24:31Z</time>
      </trkpt>
      <trkpt lat="42.87902075" lon="13.55749418">
        <ele>245.00000</ele>
        <time>2024-02-08T12:24:32Z</time>
      </trkpt>
      <trkpt lat="42.87903835" lon="13.55740877">
        <ele>244.00000</ele>
        <time>2024-02-08T12:24:33Z</time>
      </trkpt>
      <trkpt lat="42.87905378" lon="13.55732169">
        <ele>244.00000</ele>
        <time>2024-02-08T12:24:34Z</time>
      </trkpt>
      <trkpt lat="42.87906954" lon="13.55723619">
        <ele>243.00000</ele>
        <time>2024-02-08T12:24:35Z</time>
      </trkpt>
      <trkpt lat="42.87909493" lon="13.55713502">
        <ele>242.00000</ele>
        <time>2024-02-08T12:24:36Z</time>
      </trkpt>
      <trkpt lat="42.87911756" lon="13.55707098">
        <ele>242.00000</ele>
        <time>2024-02-08T12:24:37Z</time>
      </trkpt>
      <trkpt lat="42.87915218" lon="13.55699454">
        <ele>242.00000</ele>
        <time>2024-02-08T12:24:38Z</time>
      </trkpt>
      <trkpt lat="42.87919216" lon="13.55692581">
        <ele>242.00000</ele>
        <time>2024-02-08T12:24:39Z</time>
      </trkpt>
      <trkpt lat="42.87923382" lon="13.55686462">
        <ele>242.00000</ele>
        <time>2024-02-08T12:24:40Z</time>
      </trkpt>
      <trkpt lat="42.87928294" lon="13.55680997">
        <ele>242.00000</ele>
        <time>2024-02-08T12:24:41Z</time>
      </trkpt>
      <trkpt lat="42.87933734" lon="13.55676546">
        <ele>242.00000</ele>
        <time>2024-02-08T12:24:42Z</time>
      </trkpt>
      <trkpt lat="42.87939928" lon="13.55672908">
        <ele>243.00000</ele>
        <time>2024-02-08T12:24:43Z</time>
      </trkpt>
      <trkpt lat="42.87947497" lon="13.55669430">
        <ele>243.00000</ele>
        <time>2024-02-08T12:24:44Z</time>
      </trkpt>
      <trkpt lat="42.87952383" lon="13.55668240">
        <ele>243.00000</ele>
        <time>2024-02-08T12:24:45Z</time>
      </trkpt>
      <trkpt lat="42.87959625" lon="13.55666899">
        <ele>244.00000</ele>
        <time>2024-02-08T12:24:46Z</time>
      </trkpt>
      <trkpt lat="42.87964353" lon="13.55666396">
        <ele>244.00000</ele>
        <time>2024-02-08T12:24:47Z</time>
      </trkpt>
      <trkpt lat="42.87970514" lon="13.55666647">
        <ele>244.00000</ele>
        <time>2024-02-08T12:24:48Z</time>
      </trkpt>
      <trkpt lat="42.87976725" lon="13.55667511">
        <ele>245.00000</ele>
        <time>2024-02-08T12:24:49Z</time>
      </trkpt>
      <trkpt lat="42.87982751" lon="13.55668248">
        <ele>246.00000</ele>
        <time>2024-02-08T12:24:50Z</time>
      </trkpt>
      <trkpt lat="42.87988753" lon="13.55668835">
        <ele>247.00000</ele>
        <time>2024-02-08T12:24:51Z</time>
      </trkpt>
      <trkpt lat="42.87994896" lon="13.55669371">
        <ele>247.00000</ele>
        <time>2024-02-08T12:24:52Z</time>
      </trkpt>
      <trkpt lat="42.88000747" lon="13.55670151">
        <ele>248.00000</ele>
        <time>2024-02-08T12:24:53Z</time>
      </trkpt>
      <trkpt lat="42.88007168" lon="13.55671048">
        <ele>249.00000</ele>
        <time>2024-02-08T12:24:54Z</time>
      </trkpt>
      <trkpt lat="42.88011568" lon="13.55671928">
        <ele>249.00000</ele>
        <time>2024-02-08T12:24:55Z</time>
      </trkpt>
      <trkpt lat="42.88017469" lon="13.55673420">
        <ele>249.00000</ele>
        <time>2024-02-08T12:24:56Z</time>
      </trkpt>
      <trkpt lat="42.88023110" lon="13.55674694">
        <ele>250.00000</ele>
        <time>2024-02-08T12:24:57Z</time>
      </trkpt>
      <trkpt lat="42.88029078" lon="13.55675758">
        <ele>250.00000</ele>
        <time>2024-02-08T12:24:58Z</time>
      </trkpt>
      <trkpt lat="42.88035071" lon="13.55676479">
        <ele>250.00000</ele>
        <time>2024-02-08T12:24:59Z</time>
      </trkpt>
      <trkpt lat="42.88041156" lon="13.55677166">
        <ele>250.00000</ele>
        <time>2024-02-08T12:25:00Z</time>
      </trkpt>
      <trkpt lat="42.88047417" lon="13.55677342">
        <ele>250.00000</ele>
        <time>2024-02-08T12:25:01Z</time>
      </trkpt>
      <trkpt lat="42.88053779" lon="13.55676471">
        <ele>249.00000</ele>
        <time>2024-02-08T12:25:02Z</time>
      </trkpt>
      <trkpt lat="42.88059890" lon="13.55675272">
        <ele>249.00000</ele>
        <time>2024-02-08T12:25:03Z</time>
      </trkpt>
      <trkpt lat="42.88065765" lon="13.55673219">
        <ele>250.00000</ele>
        <time>2024-02-08T12:25:04Z</time>
      </trkpt>
      <trkpt lat="42.88071080" lon="13.55670981">
        <ele>250.00000</ele>
        <time>2024-02-08T12:25:05Z</time>
      </trkpt>
      <trkpt lat="42.88076587" lon="13.55668433">
        <ele>249.00000</ele>
        <time>2024-02-08T12:25:06Z</time>
      </trkpt>
      <trkpt lat="42.88082881" lon="13.55665130">
        <ele>249.00000</ele>
        <time>2024-02-08T12:25:07Z</time>
      </trkpt>
      <trkpt lat="42.88088522" lon="13.55661635">
        <ele>250.00000</ele>
        <time>2024-02-08T12:25:08Z</time>
      </trkpt>
      <trkpt lat="42.88094121" lon="13.55657846">
        <ele>250.00000</ele>
        <time>2024-02-08T12:25:09Z</time>
      </trkpt>
      <trkpt lat="42.88099980" lon="13.55654099">
        <ele>251.00000</ele>
        <time>2024-02-08T12:25:10Z</time>
      </trkpt>
      <trkpt lat="42.88106233" lon="13.55650235">
        <ele>251.00000</ele>
        <time>2024-02-08T12:25:11Z</time>
      </trkpt>
      <trkpt lat="42.88112428" lon="13.55646723">
        <ele>252.00000</ele>
        <time>2024-02-08T12:25:12Z</time>
      </trkpt>
      <trkpt lat="42.88118605" lon="13.55643019">
        <ele>252.00000</ele>
        <time>2024-02-08T12:25:13Z</time>
      </trkpt>
      <trkpt lat="42.88124430" lon="13.55638618">
        <ele>252.00000</ele>
        <time>2024-02-08T12:25:14Z</time>
      </trkpt>
      <trkpt lat="42.88129946" lon="13.55633321">
        <ele>252.00000</ele>
        <time>2024-02-08T12:25:15Z</time>
      </trkpt>
      <trkpt lat="42.88135293" lon="13.55627244">
        <ele>252.00000</ele>
        <time>2024-02-08T12:25:16Z</time>
      </trkpt>
      <trkpt lat="42.88139845" lon="13.55620396">
        <ele>252.00000</ele>
        <time>2024-02-08T12:25:17Z</time>
      </trkpt>
      <trkpt lat="42.88143918" lon="13.55613011">
        <ele>252.00000</ele>
        <time>2024-02-08T12:25:18Z</time>
      </trkpt>
      <trkpt lat="42.88147447" lon="13.55605158">
        <ele>252.00000</ele>
        <time>2024-02-08T12:25:19Z</time>
      </trkpt>
      <trkpt lat="42.88151026" lon="13.55595720">
        <ele>252.00000</ele>
        <time>2024-02-08T12:25:20Z</time>
      </trkpt>
      <trkpt lat="42.88154094" lon="13.55588025">
        <ele>252.00000</ele>
        <time>2024-02-08T12:25:21Z</time>
      </trkpt>
      <trkpt lat="42.88157271" lon="13.55580238">
        <ele>252.00000</ele>
        <time>2024-02-08T12:25:22Z</time>
      </trkpt>
      <trkpt lat="42.88159827" lon="13.55574044">
        <ele>253.00000</ele>
        <time>2024-02-08T12:25:23Z</time>
      </trkpt>
      <trkpt lat="42.88162937" lon="13.55566073">
        <ele>253.00000</ele>
        <time>2024-02-08T12:25:24Z</time>
      </trkpt>
      <trkpt lat="42.88165971" lon="13.55558252">
        <ele>253.00000</ele>
        <time>2024-02-08T12:25:25Z</time>
      </trkpt>
      <trkpt lat="42.88168821" lon="13.55550667">
        <ele>254.00000</ele>
        <time>2024-02-08T12:25:26Z</time>
      </trkpt>
      <trkpt lat="42.88171788" lon="13.55543106">
        <ele>254.00000</ele>
        <time>2024-02-08T12:25:27Z</time>
      </trkpt>
      <trkpt lat="42.88174957" lon="13.55535546">
        <ele>255.00000</ele>
        <time>2024-02-08T12:25:28Z</time>
      </trkpt>
      <trkpt lat="42.88178343" lon="13.55528094">
        <ele>255.00000</ele>
        <time>2024-02-08T12:25:29Z</time>
      </trkpt>
      <trkpt lat="42.88181846" lon="13.55520861">
        <ele>256.00000</ele>
        <time>2024-02-08T12:25:30Z</time>
      </trkpt>
      <trkpt lat="42.88185819" lon="13.55512462">
        <ele>257.00000</ele>
        <time>2024-02-08T12:25:31Z</time>
      </trkpt>
      <trkpt lat="42.88188770" lon="13.55505480">
        <ele>258.00000</ele>
        <time>2024-02-08T12:25:32Z</time>
      </trkpt>
      <trkpt lat="42.88191729" lon="13.55498146">
        <ele>258.00000</ele>
        <time>2024-02-08T12:25:33Z</time>
      </trkpt>
      <trkpt lat="42.88194595" lon="13.55492463">
        <ele>259.00000</ele>
        <time>2024-02-08T12:25:34Z</time>
      </trkpt>
      <trkpt lat="42.88198099" lon="13.55485766">
        <ele>259.00000</ele>
        <time>2024-02-08T12:25:35Z</time>
      </trkpt>
      <trkpt lat="42.88202181" lon="13.55477618">
        <ele>260.00000</ele>
        <time>2024-02-08T12:25:36Z</time>
      </trkpt>
      <trkpt lat="42.88206037" lon="13.55470946">
        <ele>260.00000</ele>
        <time>2024-02-08T12:25:37Z</time>
      </trkpt>
      <trkpt lat="42.88209733" lon="13.55464115">
        <ele>260.00000</ele>
        <time>2024-02-08T12:25:38Z</time>
      </trkpt>
      <trkpt lat="42.88212474" lon="13.55458751">
        <ele>260.00000</ele>
        <time>2024-02-08T12:25:39Z</time>
      </trkpt>
      <trkpt lat="42.88215852" lon="13.55452381">
        <ele>260.00000</ele>
        <time>2024-02-08T12:25:40Z</time>
      </trkpt>
      <trkpt lat="42.88219967" lon="13.55444619">
        <ele>259.00000</ele>
        <time>2024-02-08T12:25:41Z</time>
      </trkpt>
      <trkpt lat="42.88223144" lon="13.55438165">
        <ele>259.00000</ele>
        <time>2024-02-08T12:25:42Z</time>
      </trkpt>
      <trkpt lat="42.88226380" lon="13.55431744">
        <ele>259.00000</ele>
        <time>2024-02-08T12:25:43Z</time>
      </trkpt>
      <trkpt lat="42.88229162" lon="13.55426615">
        <ele>259.00000</ele>
        <time>2024-02-08T12:25:44Z</time>
      </trkpt>
      <trkpt lat="42.88232565" lon="13.55420119">
        <ele>259.00000</ele>
        <time>2024-02-08T12:25:45Z</time>
      </trkpt>
      <trkpt lat="42.88236446" lon="13.55412173">
        <ele>259.00000</ele>
        <time>2024-02-08T12:25:46Z</time>
      </trkpt>
      <trkpt lat="42.88239690" lon="13.55405660">
        <ele>259.00000</ele>
        <time>2024-02-08T12:25:47Z</time>
      </trkpt>
      <trkpt lat="42.88243378" lon="13.55399575">
        <ele>259.00000</ele>
        <time>2024-02-08T12:25:48Z</time>
      </trkpt>
      <trkpt lat="42.88246789" lon="13.55393406">
        <ele>259.00000</ele>
        <time>2024-02-08T12:25:49Z</time>
      </trkpt>
      <trkpt lat="42.88250167" lon="13.55387060">
        <ele>259.00000</ele>
        <time>2024-02-08T12:25:50Z</time>
      </trkpt>
      <trkpt lat="42.88252975" lon="13.55382283">
        <ele>259.00000</ele>
        <time>2024-02-08T12:25:51Z</time>
      </trkpt>
      <trkpt lat="42.88257334" lon="13.55375343">
        <ele>260.00000</ele>
        <time>2024-02-08T12:25:52Z</time>
      </trkpt>
      <trkpt lat="42.88260603" lon="13.55369609">
        <ele>260.00000</ele>
        <time>2024-02-08T12:25:53Z</time>
      </trkpt>
      <trkpt lat="42.88263780" lon="13.55364211">
        <ele>260.00000</ele>
        <time>2024-02-08T12:25:54Z</time>
      </trkpt>
      <trkpt lat="42.88266696" lon="13.55359920">
        <ele>260.00000</ele>
        <time>2024-02-08T12:25:55Z</time>
      </trkpt>
      <trkpt lat="42.88271089" lon="13.55353575">
        <ele>261.00000</ele>
        <time>2024-02-08T12:25:56Z</time>
      </trkpt>
      <trkpt lat="42.88275095" lon="13.55348613">
        <ele>261.00000</ele>
        <time>2024-02-08T12:25:57Z</time>
      </trkpt>
      <trkpt lat="42.88279160" lon="13.55343642">
        <ele>262.00000</ele>
        <time>2024-02-08T12:25:58Z</time>
      </trkpt>
      <trkpt lat="42.88283251" lon="13.55339015">
        <ele>263.00000</ele>
        <time>2024-02-08T12:25:59Z</time>
      </trkpt>
      <trkpt lat="42.88287400" lon="13.55334472">
        <ele>264.00000</ele>
        <time>2024-02-08T12:26:00Z</time>
      </trkpt>
      <trkpt lat="42.88291515" lon="13.55329854">
        <ele>264.00000</ele>
        <time>2024-02-08T12:26:01Z</time>
      </trkpt>
      <trkpt lat="42.88295430" lon="13.55325177">
        <ele>265.00000</ele>
        <time>2024-02-08T12:26:02Z</time>
      </trkpt>
      <trkpt lat="42.88299269" lon="13.55320458">
        <ele>266.00000</ele>
        <time>2024-02-08T12:26:03Z</time>
      </trkpt>
      <trkpt lat="42.88302395" lon="13.55316602">
        <ele>266.00000</ele>
        <time>2024-02-08T12:26:04Z</time>
      </trkpt>
      <trkpt lat="42.88306293" lon="13.55311799">
        <ele>267.00000</ele>
        <time>2024-02-08T12:26:05Z</time>
      </trkpt>
      <trkpt lat="42.88311188" lon="13.55306200">
        <ele>268.00000</ele>
        <time>2024-02-08T12:26:06Z</time>
      </trkpt>
      <trkpt lat="42.88315429" lon="13.55301431">
        <ele>269.00000</ele>
        <time>2024-02-08T12:26:07Z</time>
      </trkpt>
      <trkpt lat="42.88319486" lon="13.55296611">
        <ele>270.00000</ele>
        <time>2024-02-08T12:26:08Z</time>
      </trkpt>
      <trkpt lat="42.88323484" lon="13.55291850">
        <ele>270.00000</ele>
        <time>2024-02-08T12:26:09Z</time>
      </trkpt>
      <trkpt lat="42.88327574" lon="13.55287467">
        <ele>270.00000</ele>
        <time>2024-02-08T12:26:10Z</time>
      </trkpt>
      <trkpt lat="42.88331447" lon="13.55282924">
        <ele>270.00000</ele>
        <time>2024-02-08T12:26:11Z</time>
      </trkpt>
      <trkpt lat="42.88334615" lon="13.55279512">
        <ele>270.00000</ele>
        <time>2024-02-08T12:26:12Z</time>
      </trkpt>
      <trkpt lat="42.88339485" lon="13.55274307">
        <ele>271.00000</ele>
        <time>2024-02-08T12:26:13Z</time>
      </trkpt>
      <trkpt lat="42.88343768" lon="13.55270342">
        <ele>271.00000</ele>
        <time>2024-02-08T12:26:14Z</time>
      </trkpt>
      <trkpt lat="42.88348127" lon="13.55266478">
        <ele>271.00000</ele>
        <time>2024-02-08T12:26:15Z</time>
      </trkpt>
      <trkpt lat="42.88352670" lon="13.55263008">
        <ele>271.00000</ele>
        <time>2024-02-08T12:26:16Z</time>
      </trkpt>
      <trkpt lat="42.88357280" lon="13.55259706">
        <ele>272.00000</ele>
        <time>2024-02-08T12:26:17Z</time>
      </trkpt>
      <trkpt lat="42.88360968" lon="13.55257183">
        <ele>272.00000</ele>
        <time>2024-02-08T12:26:18Z</time>
      </trkpt>
      <trkpt lat="42.88365561" lon="13.55254584">
        <ele>272.00000</ele>
        <time>2024-02-08T12:26:19Z</time>
      </trkpt>
      <trkpt lat="42.88370850" lon="13.55251542">
        <ele>272.00000</ele>
        <time>2024-02-08T12:26:20Z</time>
      </trkpt>
      <trkpt lat="42.88375494" lon="13.55248943">
        <ele>272.00000</ele>
        <time>2024-02-08T12:26:21Z</time>
      </trkpt>
      <trkpt lat="42.88380179" lon="13.55246488">
        <ele>273.00000</ele>
        <time>2024-02-08T12:26:22Z</time>
      </trkpt>
      <trkpt lat="42.88384697" lon="13.55244099">
        <ele>273.00000</ele>
        <time>2024-02-08T12:26:23Z</time>
      </trkpt>
      <trkpt lat="42.88389324" lon="13.55241643">
        <ele>274.00000</ele>
        <time>2024-02-08T12:26:24Z</time>
      </trkpt>
      <trkpt lat="42.88393934" lon="13.55239011">
        <ele>274.00000</ele>
        <time>2024-02-08T12:26:25Z</time>
      </trkpt>
      <trkpt lat="42.88398795" lon="13.55236362">
        <ele>274.00000</ele>
        <time>2024-02-08T12:26:26Z</time>
      </trkpt>
      <trkpt lat="42.88403992" lon="13.55234040">
        <ele>274.00000</ele>
        <time>2024-02-08T12:26:27Z</time>
      </trkpt>
      <trkpt lat="42.88408870" lon="13.55231735">
        <ele>274.00000</ele>
        <time>2024-02-08T12:26:28Z</time>
      </trkpt>
      <trkpt lat="42.88413967" lon="13.55229279">
        <ele>274.00000</ele>
        <time>2024-02-08T12:26:29Z</time>
      </trkpt>
      <trkpt lat="42.88419105" lon="13.55227058">
        <ele>274.00000</ele>
        <time>2024-02-08T12:26:30Z</time>
      </trkpt>
      <trkpt lat="42.88423161" lon="13.55225080">
        <ele>275.00000</ele>
        <time>2024-02-08T12:26:31Z</time>
      </trkpt>
      <trkpt lat="42.88429046" lon="13.55221920">
        <ele>276.00000</ele>
        <time>2024-02-08T12:26:32Z</time>
      </trkpt>
      <trkpt lat="42.88432968" lon="13.55219934">
        <ele>276.00000</ele>
        <time>2024-02-08T12:26:33Z</time>
      </trkpt>
      <trkpt lat="42.88437847" lon="13.55217763">
        <ele>277.00000</ele>
        <time>2024-02-08T12:26:34Z</time>
      </trkpt>
      <trkpt lat="42.88442381" lon="13.55215500">
        <ele>278.00000</ele>
        <time>2024-02-08T12:26:35Z</time>
      </trkpt>
      <trkpt lat="42.88447159" lon="13.55212901">
        <ele>278.00000</ele>
        <time>2024-02-08T12:26:36Z</time>
      </trkpt>
      <trkpt lat="42.88452180" lon="13.55210395">
        <ele>279.00000</ele>
        <time>2024-02-08T12:26:37Z</time>
      </trkpt>
      <trkpt lat="42.88458047" lon="13.55207495">
        <ele>280.00000</ele>
        <time>2024-02-08T12:26:38Z</time>
      </trkpt>
      <trkpt lat="42.88462288" lon="13.55205299">
        <ele>281.00000</ele>
        <time>2024-02-08T12:26:39Z</time>
      </trkpt>
      <trkpt lat="42.88465708" lon="13.55203455">
        <ele>282.00000</ele>
        <time>2024-02-08T12:26:40Z</time>
      </trkpt>
      <trkpt lat="42.88470117" lon="13.55200848">
        <ele>282.00000</ele>
        <time>2024-02-08T12:26:41Z</time>
      </trkpt>
      <trkpt lat="42.88474501" lon="13.55197671">
        <ele>283.00000</ele>
        <time>2024-02-08T12:26:42Z</time>
      </trkpt>
      <trkpt lat="42.88478968" lon="13.55193707">
        <ele>283.00000</ele>
        <time>2024-02-08T12:26:43Z</time>
      </trkpt>
      <trkpt lat="42.88483218" lon="13.55189541">
        <ele>284.00000</ele>
        <time>2024-02-08T12:26:44Z</time>
      </trkpt>
      <trkpt lat="42.88487568" lon="13.55185308">
        <ele>284.00000</ele>
        <time>2024-02-08T12:26:45Z</time>
      </trkpt>
      <trkpt lat="42.88491868" lon="13.55180757">
        <ele>284.00000</ele>
        <time>2024-02-08T12:26:46Z</time>
      </trkpt>
      <trkpt lat="42.88496436" lon="13.55176457">
        <ele>285.00000</ele>
        <time>2024-02-08T12:26:47Z</time>
      </trkpt>
      <trkpt lat="42.88502018" lon="13.55171034">
        <ele>285.00000</ele>
        <time>2024-02-08T12:26:48Z</time>
      </trkpt>
      <trkpt lat="42.88506620" lon="13.55166658">
        <ele>286.00000</ele>
        <time>2024-02-08T12:26:49Z</time>
      </trkpt>
      <trkpt lat="42.88510308" lon="13.55163305">
        <ele>286.00000</ele>
        <time>2024-02-08T12:26:50Z</time>
      </trkpt>
      <trkpt lat="42.88514767" lon="13.55158561">
        <ele>287.00000</ele>
        <time>2024-02-08T12:26:51Z</time>
      </trkpt>
      <trkpt lat="42.88518992" lon="13.55153901">
        <ele>287.00000</ele>
        <time>2024-02-08T12:26:52Z</time>
      </trkpt>
      <trkpt lat="42.88523417" lon="13.55149366">
        <ele>287.00000</ele>
        <time>2024-02-08T12:26:53Z</time>
      </trkpt>
      <trkpt lat="42.88527818" lon="13.55144605">
        <ele>288.00000</ele>
        <time>2024-02-08T12:26:54Z</time>
      </trkpt>
      <trkpt lat="42.88532034" lon="13.55139593">
        <ele>288.00000</ele>
        <time>2024-02-08T12:26:55Z</time>
      </trkpt>
      <trkpt lat="42.88536854" lon="13.55133357">
        <ele>288.00000</ele>
        <time>2024-02-08T12:26:56Z</time>
      </trkpt>
      <trkpt lat="42.88540869" lon="13.55128395">
        <ele>288.00000</ele>
        <time>2024-02-08T12:26:57Z</time>
      </trkpt>
      <trkpt lat="42.88544984" lon="13.55123768">
        <ele>288.00000</ele>
        <time>2024-02-08T12:26:58Z</time>
      </trkpt>
      <trkpt lat="42.88549167" lon="13.55119225">
        <ele>288.00000</ele>
        <time>2024-02-08T12:26:59Z</time>
      </trkpt>
      <trkpt lat="42.88553291" lon="13.55114632">
        <ele>288.00000</ele>
        <time>2024-02-08T12:27:00Z</time>
      </trkpt>
      <trkpt lat="42.88556174" lon="13.55110927">
        <ele>288.00000</ele>
        <time>2024-02-08T12:27:01Z</time>
      </trkpt>
      <trkpt lat="42.88560499" lon="13.55105361">
        <ele>288.00000</ele>
        <time>2024-02-08T12:27:02Z</time>
      </trkpt>
      <trkpt lat="42.88563500" lon="13.55101615">
        <ele>289.00000</ele>
        <time>2024-02-08T12:27:03Z</time>
      </trkpt>
      <trkpt lat="42.88567414" lon="13.55096879">
        <ele>289.00000</ele>
        <time>2024-02-08T12:27:04Z</time>
      </trkpt>
      <trkpt lat="42.88571379" lon="13.55092026">
        <ele>290.00000</ele>
        <time>2024-02-08T12:27:05Z</time>
      </trkpt>
      <trkpt lat="42.88575201" lon="13.55086938">
        <ele>290.00000</ele>
        <time>2024-02-08T12:27:06Z</time>
      </trkpt>
      <trkpt lat="42.88579685" lon="13.55080937">
        <ele>291.00000</ele>
        <time>2024-02-08T12:27:07Z</time>
      </trkpt>
      <trkpt lat="42.88582753" lon="13.55077525">
        <ele>292.00000</ele>
        <time>2024-02-08T12:27:08Z</time>
      </trkpt>
      <trkpt lat="42.88586902" lon="13.55072915">
        <ele>292.00000</ele>
        <time>2024-02-08T12:27:09Z</time>
      </trkpt>
      <trkpt lat="42.88591001" lon="13.55068305">
        <ele>293.00000</ele>
        <time>2024-02-08T12:27:10Z</time>
      </trkpt>
      <trkpt lat="42.88595099" lon="13.55063075">
        <ele>294.00000</ele>
        <time>2024-02-08T12:27:11Z</time>
      </trkpt>
      <trkpt lat="42.88599307" lon="13.55057660">
        <ele>294.00000</ele>
        <time>2024-02-08T12:27:12Z</time>
      </trkpt>
      <trkpt lat="42.88603523" lon="13.55052497">
        <ele>294.00000</ele>
        <time>2024-02-08T12:27:13Z</time>
      </trkpt>
      <trkpt lat="42.88608510" lon="13.55046101">
        <ele>294.00000</ele>
        <time>2024-02-08T12:27:14Z</time>
      </trkpt>
      <trkpt lat="42.88612467" lon="13.55040276">
        <ele>294.00000</ele>
        <time>2024-02-08T12:27:15Z</time>
      </trkpt>
      <trkpt lat="42.88616180" lon="13.55034828">
        <ele>294.00000</ele>
        <time>2024-02-08T12:27:16Z</time>
      </trkpt>
      <trkpt lat="42.88619734" lon="13.55029790">
        <ele>293.00000</ele>
        <time>2024-02-08T12:27:17Z</time>
      </trkpt>
      <trkpt lat="42.88623430" lon="13.55024769">
        <ele>293.00000</ele>
        <time>2024-02-08T12:27:18Z</time>
      </trkpt>
      <trkpt lat="42.88627378" lon="13.55019330">
        <ele>293.00000</ele>
        <time>2024-02-08T12:27:19Z</time>
      </trkpt>
      <trkpt lat="42.88630982" lon="13.55013479">
        <ele>292.00000</ele>
        <time>2024-02-08T12:27:20Z</time>
      </trkpt>
      <trkpt lat="42.88634134" lon="13.55008299">
        <ele>291.00000</ele>
        <time>2024-02-08T12:27:21Z</time>
      </trkpt>
      <trkpt lat="42.88638275" lon="13.55002549">
        <ele>290.00000</ele>
        <time>2024-02-08T12:27:22Z</time>
      </trkpt>
      <trkpt lat="42.88643513" lon="13.54996397">
        <ele>290.00000</ele>
        <time>2024-02-08T12:27:23Z</time>
      </trkpt>
      <trkpt lat="42.88648224" lon="13.54991334">
        <ele>290.00000</ele>
        <time>2024-02-08T12:27:24Z</time>
      </trkpt>
      <trkpt lat="42.88652909" lon="13.54986372">
        <ele>290.00000</ele>
        <time>2024-02-08T12:27:25Z</time>
      </trkpt>
      <trkpt lat="42.88657067" lon="13.54982734">
        <ele>290.00000</ele>
        <time>2024-02-08T12:27:26Z</time>
      </trkpt>
      <trkpt lat="42.88662792" lon="13.54977303">
        <ele>290.00000</ele>
        <time>2024-02-08T12:27:27Z</time>
      </trkpt>
      <trkpt lat="42.88666798" lon="13.54973179">
        <ele>290.00000</ele>
        <time>2024-02-08T12:27:28Z</time>
      </trkpt>
      <trkpt lat="42.88672666" lon="13.54967219">
        <ele>291.00000</ele>
        <time>2024-02-08T12:27:29Z</time>
      </trkpt>
      <trkpt lat="42.88677234" lon="13.54962442">
        <ele>292.00000</ele>
        <time>2024-02-08T12:27:30Z</time>
      </trkpt>
      <trkpt lat="42.88681190" lon="13.54958594">
        <ele>292.00000</ele>
        <time>2024-02-08T12:27:31Z</time>
      </trkpt>
      <trkpt lat="42.88685834" lon="13.54953255">
        <ele>293.00000</ele>
        <time>2024-02-08T12:27:32Z</time>
      </trkpt>
      <trkpt lat="42.88691282" lon="13.54946591">
        <ele>294.00000</ele>
        <time>2024-02-08T12:27:33Z</time>
      </trkpt>
      <trkpt lat="42.88695272" lon="13.54942384">
        <ele>295.00000</ele>
        <time>2024-02-08T12:27:34Z</time>
      </trkpt>
      <trkpt lat="42.88700829" lon="13.54936340">
        <ele>295.00000</ele>
        <time>2024-02-08T12:27:35Z</time>
      </trkpt>
      <trkpt lat="42.88705590" lon="13.54931529">
        <ele>295.00000</ele>
        <time>2024-02-08T12:27:36Z</time>
      </trkpt>
      <trkpt lat="42.88710376" lon="13.54926877">
        <ele>295.00000</ele>
        <time>2024-02-08T12:27:37Z</time>
      </trkpt>
      <trkpt lat="42.88715003" lon="13.54922586">
        <ele>295.00000</ele>
        <time>2024-02-08T12:27:38Z</time>
      </trkpt>
      <trkpt lat="42.88719763" lon="13.54918696">
        <ele>295.00000</ele>
        <time>2024-02-08T12:27:39Z</time>
      </trkpt>
      <trkpt lat="42.88724692" lon="13.54915126">
        <ele>295.00000</ele>
        <time>2024-02-08T12:27:40Z</time>
      </trkpt>
      <trkpt lat="42.88728858" lon="13.54912402">
        <ele>295.00000</ele>
        <time>2024-02-08T12:27:41Z</time>
      </trkpt>
      <trkpt lat="42.88734155" lon="13.54909292">
        <ele>295.00000</ele>
        <time>2024-02-08T12:27:42Z</time>
      </trkpt>
      <trkpt lat="42.88739478" lon="13.54906383">
        <ele>296.00000</ele>
        <time>2024-02-08T12:27:43Z</time>
      </trkpt>
      <trkpt lat="42.88745395" lon="13.54903131">
        <ele>296.00000</ele>
        <time>2024-02-08T12:27:44Z</time>
      </trkpt>
      <trkpt lat="42.88750274" lon="13.54901312">
        <ele>296.00000</ele>
        <time>2024-02-08T12:27:45Z</time>
      </trkpt>
      <trkpt lat="42.88755328" lon="13.54899158">
        <ele>296.00000</ele>
        <time>2024-02-08T12:27:46Z</time>
      </trkpt>
      <trkpt lat="42.88760298" lon="13.54897599">
        <ele>296.00000</ele>
        <time>2024-02-08T12:27:47Z</time>
      </trkpt>
      <trkpt lat="42.88765487" lon="13.54895973">
        <ele>296.00000</ele>
        <time>2024-02-08T12:27:48Z</time>
      </trkpt>
      <trkpt lat="42.88770826" lon="13.54893987">
        <ele>297.00000</ele>
        <time>2024-02-08T12:27:49Z</time>
      </trkpt>
      <trkpt lat="42.88776392" lon="13.54892335">
        <ele>297.00000</ele>
        <time>2024-02-08T12:27:50Z</time>
      </trkpt>
      <trkpt lat="42.88781899" lon="13.54891162">
        <ele>297.00000</ele>
        <time>2024-02-08T12:27:51Z</time>
      </trkpt>
      <trkpt lat="42.88787154" lon="13.54890516">
        <ele>297.00000</ele>
        <time>2024-02-08T12:27:52Z</time>
      </trkpt>
      <trkpt lat="42.88792259" lon="13.54889033">
        <ele>297.00000</ele>
        <time>2024-02-08T12:27:53Z</time>
      </trkpt>
      <trkpt lat="42.88797682" lon="13.54886770">
        <ele>297.00000</ele>
        <time>2024-02-08T12:27:54Z</time>
      </trkpt>
      <trkpt lat="42.88802895" lon="13.54884138">
        <ele>297.00000</ele>
        <time>2024-02-08T12:27:55Z</time>
      </trkpt>
      <trkpt lat="42.88807824" lon="13.54880919">
        <ele>298.00000</ele>
        <time>2024-02-08T12:27:56Z</time>
      </trkpt>
      <trkpt lat="42.88812140" lon="13.54878036">
        <ele>298.00000</ele>
        <time>2024-02-08T12:27:57Z</time>
      </trkpt>
      <trkpt lat="42.88818058" lon="13.54872805">
        <ele>299.00000</ele>
        <time>2024-02-08T12:27:58Z</time>
      </trkpt>
      <trkpt lat="42.88822492" lon="13.54867760">
        <ele>299.00000</ele>
        <time>2024-02-08T12:27:59Z</time>
      </trkpt>
      <trkpt lat="42.88826800" lon="13.54862504">
        <ele>299.00000</ele>
        <time>2024-02-08T12:28:00Z</time>
      </trkpt>
      <trkpt lat="42.88830933" lon="13.54857048">
        <ele>299.00000</ele>
        <time>2024-02-08T12:28:01Z</time>
      </trkpt>
      <trkpt lat="42.88835224" lon="13.54851985">
        <ele>299.00000</ele>
        <time>2024-02-08T12:28:02Z</time>
      </trkpt>
      <trkpt lat="42.88839130" lon="13.54846704">
        <ele>299.00000</ele>
        <time>2024-02-08T12:28:03Z</time>
      </trkpt>
      <trkpt lat="42.88843254" lon="13.54841088">
        <ele>299.00000</ele>
        <time>2024-02-08T12:28:04Z</time>
      </trkpt>
      <trkpt lat="42.88846783" lon="13.54835011">
        <ele>299.00000</ele>
        <time>2024-02-08T12:28:05Z</time>
      </trkpt>
      <trkpt lat="42.88850546" lon="13.54829739">
        <ele>299.00000</ele>
        <time>2024-02-08T12:28:06Z</time>
      </trkpt>
      <trkpt lat="42.88854528" lon="13.54825238">
        <ele>300.00000</ele>
        <time>2024-02-08T12:28:07Z</time>
      </trkpt>
      <trkpt lat="42.88858383" lon="13.54820000">
        <ele>300.00000</ele>
        <time>2024-02-08T12:28:08Z</time>
      </trkpt>
      <trkpt lat="42.88861845" lon="13.54814182">
        <ele>300.00000</ele>
        <time>2024-02-08T12:28:09Z</time>
      </trkpt>
      <trkpt lat="42.88865609" lon="13.54808432">
        <ele>300.00000</ele>
        <time>2024-02-08T12:28:10Z</time>
      </trkpt>
      <trkpt lat="42.88869540" lon="13.54802808">
        <ele>300.00000</ele>
        <time>2024-02-08T12:28:11Z</time>
      </trkpt>
      <trkpt lat="42.88873094" lon="13.54797402">
        <ele>300.00000</ele>
        <time>2024-02-08T12:28:12Z</time>
      </trkpt>
      <trkpt lat="42.88876438" lon="13.54792088">
        <ele>300.00000</ele>
        <time>2024-02-08T12:28:13Z</time>
      </trkpt>
      <trkpt lat="42.88879648" lon="13.54787377">
        <ele>300.00000</ele>
        <time>2024-02-08T12:28:14Z</time>
      </trkpt>
      <trkpt lat="42.88883144" lon="13.54782599">
        <ele>300.00000</ele>
        <time>2024-02-08T12:28:15Z</time>
      </trkpt>
      <trkpt lat="42.88887175" lon="13.54778417">
        <ele>300.00000</ele>
        <time>2024-02-08T12:28:16Z</time>
      </trkpt>
      <trkpt lat="42.88891349" lon="13.54774419">
        <ele>301.00000</ele>
        <time>2024-02-08T12:28:17Z</time>
      </trkpt>
      <trkpt lat="42.88895490" lon="13.54770177">
        <ele>301.00000</ele>
        <time>2024-02-08T12:28:18Z</time>
      </trkpt>
      <trkpt lat="42.88899304" lon="13.54765878">
        <ele>301.00000</ele>
        <time>2024-02-08T12:28:19Z</time>
      </trkpt>
      <trkpt lat="42.88903227" lon="13.54761846">
        <ele>301.00000</ele>
        <time>2024-02-08T12:28:20Z</time>
      </trkpt>
      <trkpt lat="42.88907401" lon="13.54758476">
        <ele>302.00000</ele>
        <time>2024-02-08T12:28:21Z</time>
      </trkpt>
      <trkpt lat="42.88911391" lon="13.54755325">
        <ele>302.00000</ele>
        <time>2024-02-08T12:28:22Z</time>
      </trkpt>
      <trkpt lat="42.88915506" lon="13.54751905">
        <ele>303.00000</ele>
        <time>2024-02-08T12:28:23Z</time>
      </trkpt>
      <trkpt lat="42.88919454" lon="13.54748284">
        <ele>303.00000</ele>
        <time>2024-02-08T12:28:24Z</time>
      </trkpt>
      <trkpt lat="42.88923586" lon="13.54745023">
        <ele>303.00000</ele>
        <time>2024-02-08T12:28:25Z</time>
      </trkpt>
      <trkpt lat="42.88928263" lon="13.54741754">
        <ele>303.00000</ele>
        <time>2024-02-08T12:28:26Z</time>
      </trkpt>
      <trkpt lat="42.88932781" lon="13.54738217">
        <ele>304.00000</ele>
        <time>2024-02-08T12:28:27Z</time>
      </trkpt>
      <trkpt lat="42.88937383" lon="13.54734823">
        <ele>304.00000</ele>
        <time>2024-02-08T12:28:28Z</time>
      </trkpt>
      <trkpt lat="42.88941716" lon="13.54731428">
        <ele>305.00000</ele>
        <time>2024-02-08T12:28:29Z</time>
      </trkpt>
      <trkpt lat="42.88945916" lon="13.54728000">
        <ele>305.00000</ele>
        <time>2024-02-08T12:28:30Z</time>
      </trkpt>
      <trkpt lat="42.88950182" lon="13.54724697">
        <ele>305.00000</ele>
        <time>2024-02-08T12:28:31Z</time>
      </trkpt>
      <trkpt lat="42.88954490" lon="13.54721202">
        <ele>306.00000</ele>
        <time>2024-02-08T12:28:32Z</time>
      </trkpt>
      <trkpt lat="42.88958966" lon="13.54717606">
        <ele>306.00000</ele>
        <time>2024-02-08T12:28:33Z</time>
      </trkpt>
      <trkpt lat="42.88963425" lon="13.54714111">
        <ele>306.00000</ele>
        <time>2024-02-08T12:28:34Z</time>
      </trkpt>
      <trkpt lat="42.88967868" lon="13.54710808">
        <ele>307.00000</ele>
        <time>2024-02-08T12:28:35Z</time>
      </trkpt>
      <trkpt lat="42.88972193" lon="13.54707405">
        <ele>307.00000</ele>
        <time>2024-02-08T12:28:36Z</time>
      </trkpt>
      <trkpt lat="42.88976761" lon="13.54704212">
        <ele>307.00000</ele>
        <time>2024-02-08T12:28:37Z</time>
      </trkpt>
      <trkpt lat="42.88981187" lon="13.54701253">
        <ele>307.00000</ele>
        <time>2024-02-08T12:28:38Z</time>
      </trkpt>
      <trkpt lat="42.88985587" lon="13.54698546">
        <ele>307.00000</ele>
        <time>2024-02-08T12:28:39Z</time>
      </trkpt>
      <trkpt lat="42.88989795" lon="13.54695922">
        <ele>308.00000</ele>
        <time>2024-02-08T12:28:40Z</time>
      </trkpt>
      <trkpt lat="42.88994187" lon="13.54693575">
        <ele>308.00000</ele>
        <time>2024-02-08T12:28:41Z</time>
      </trkpt>
      <trkpt lat="42.88997909" lon="13.54691471">
        <ele>308.00000</ele>
        <time>2024-02-08T12:28:42Z</time>
      </trkpt>
      <trkpt lat="42.89003424" lon="13.54688689">
        <ele>309.00000</ele>
        <time>2024-02-08T12:28:43Z</time>
      </trkpt>
      <trkpt lat="42.89007715" lon="13.54686384">
        <ele>309.00000</ele>
        <time>2024-02-08T12:28:44Z</time>
      </trkpt>
      <trkpt lat="42.89012107" lon="13.54684213">
        <ele>310.00000</ele>
        <time>2024-02-08T12:28:45Z</time>
      </trkpt>
      <trkpt lat="42.89016366" lon="13.54681665">
        <ele>310.00000</ele>
        <time>2024-02-08T12:28:46Z</time>
      </trkpt>
      <trkpt lat="42.89020632" lon="13.54679167">
        <ele>310.00000</ele>
        <time>2024-02-08T12:28:47Z</time>
      </trkpt>
      <trkpt lat="42.89024865" lon="13.54676870">
        <ele>311.00000</ele>
        <time>2024-02-08T12:28:48Z</time>
      </trkpt>
      <trkpt lat="42.89029081" lon="13.54674532">
        <ele>311.00000</ele>
        <time>2024-02-08T12:28:49Z</time>
      </trkpt>
      <trkpt lat="42.89032978" lon="13.54671715">
        <ele>312.00000</ele>
        <time>2024-02-08T12:28:50Z</time>
      </trkpt>
      <trkpt lat="42.89036767" lon="13.54668430">
        <ele>312.00000</ele>
        <time>2024-02-08T12:28:51Z</time>
      </trkpt>
      <trkpt lat="42.89040564" lon="13.54664884">
        <ele>312.00000</ele>
        <time>2024-02-08T12:28:52Z</time>
      </trkpt>
      <trkpt lat="42.89044445" lon="13.54661389">
        <ele>313.00000</ele>
        <time>2024-02-08T12:28:53Z</time>
      </trkpt>
      <trkpt lat="42.89048351" lon="13.54657944">
        <ele>313.00000</ele>
        <time>2024-02-08T12:28:54Z</time>
      </trkpt>
      <trkpt lat="42.89052341" lon="13.54654365">
        <ele>314.00000</ele>
        <time>2024-02-08T12:28:55Z</time>
      </trkpt>
      <trkpt lat="42.89056087" lon="13.54650643">
        <ele>314.00000</ele>
        <time>2024-02-08T12:28:56Z</time>
      </trkpt>
      <trkpt lat="42.89059960" lon="13.54646771">
        <ele>315.00000</ele>
        <time>2024-02-08T12:28:57Z</time>
      </trkpt>
      <trkpt lat="42.89063891" lon="13.54643217">
        <ele>315.00000</ele>
        <time>2024-02-08T12:28:58Z</time>
      </trkpt>
      <trkpt lat="42.89067755" lon="13.54640015">
        <ele>316.00000</ele>
        <time>2024-02-08T12:28:59Z</time>
      </trkpt>
      <trkpt lat="42.89071602" lon="13.54636847">
        <ele>316.00000</ele>
        <time>2024-02-08T12:29:00Z</time>
      </trkpt>
      <trkpt lat="42.89075550" lon="13.54633309">
        <ele>317.00000</ele>
        <time>2024-02-08T12:29:01Z</time>
      </trkpt>
      <trkpt lat="42.89079448" lon="13.54629546">
        <ele>317.00000</ele>
        <time>2024-02-08T12:29:02Z</time>
      </trkpt>
      <trkpt lat="42.89083329" lon="13.54625900">
        <ele>318.00000</ele>
        <time>2024-02-08T12:29:03Z</time>
      </trkpt>
      <trkpt lat="42.89087352" lon="13.54622723">
        <ele>319.00000</ele>
        <time>2024-02-08T12:29:04Z</time>
      </trkpt>
      <trkpt lat="42.89091576" lon="13.54620125">
        <ele>320.00000</ele>
        <time>2024-02-08T12:29:05Z</time>
      </trkpt>
      <trkpt lat="42.89095457" lon="13.54617937">
        <ele>321.00000</ele>
        <time>2024-02-08T12:29:06Z</time>
      </trkpt>
      <trkpt lat="42.89098617" lon="13.54616210">
        <ele>321.00000</ele>
        <time>2024-02-08T12:29:07Z</time>
      </trkpt>
      <trkpt lat="42.89102464" lon="13.54613687">
        <ele>322.00000</ele>
        <time>2024-02-08T12:29:08Z</time>
      </trkpt>
      <trkpt lat="42.89107200" lon="13.54610678">
        <ele>323.00000</ele>
        <time>2024-02-08T12:29:09Z</time>
      </trkpt>
      <trkpt lat="42.89110687" lon="13.54608641">
        <ele>323.00000</ele>
        <time>2024-02-08T12:29:10Z</time>
      </trkpt>
      <trkpt lat="42.89115104" lon="13.54606186">
        <ele>324.00000</ele>
        <time>2024-02-08T12:29:11Z</time>
      </trkpt>
      <trkpt lat="42.89119496" lon="13.54603704">
        <ele>324.00000</ele>
        <time>2024-02-08T12:29:12Z</time>
      </trkpt>
      <trkpt lat="42.89123528" lon="13.54601006">
        <ele>324.00000</ele>
        <time>2024-02-08T12:29:13Z</time>
      </trkpt>
      <trkpt lat="42.89127501" lon="13.54598441">
        <ele>325.00000</ele>
        <time>2024-02-08T12:29:14Z</time>
      </trkpt>
      <trkpt lat="42.89131441" lon="13.54595792">
        <ele>325.00000</ele>
        <time>2024-02-08T12:29:15Z</time>
      </trkpt>
      <trkpt lat="42.89135757" lon="13.54593395">
        <ele>325.00000</ele>
        <time>2024-02-08T12:29:16Z</time>
      </trkpt>
      <trkpt lat="42.89140158" lon="13.54591224">
        <ele>325.00000</ele>
        <time>2024-02-08T12:29:17Z</time>
      </trkpt>
      <trkpt lat="42.89144315" lon="13.54588734">
        <ele>325.00000</ele>
        <time>2024-02-08T12:29:18Z</time>
      </trkpt>
      <trkpt lat="42.89148196" lon="13.54586463">
        <ele>325.00000</ele>
        <time>2024-02-08T12:29:19Z</time>
      </trkpt>
      <trkpt lat="42.89151557" lon="13.54584342">
        <ele>325.00000</ele>
        <time>2024-02-08T12:29:20Z</time>
      </trkpt>
      <trkpt lat="42.89155153" lon="13.54581643">
        <ele>325.00000</ele>
        <time>2024-02-08T12:29:21Z</time>
      </trkpt>
      <trkpt lat="42.89158456" lon="13.54578685">
        <ele>325.00000</ele>
        <time>2024-02-08T12:29:22Z</time>
      </trkpt>
      <trkpt lat="42.89162135" lon="13.54575625">
        <ele>325.00000</ele>
        <time>2024-02-08T12:29:23Z</time>
      </trkpt>
      <trkpt lat="42.89166226" lon="13.54572733">
        <ele>325.00000</ele>
        <time>2024-02-08T12:29:24Z</time>
      </trkpt>
      <trkpt lat="42.89170257" lon="13.54569322">
        <ele>325.00000</ele>
        <time>2024-02-08T12:29:25Z</time>
      </trkpt>
      <trkpt lat="42.89174381" lon="13.54565240">
        <ele>325.00000</ele>
        <time>2024-02-08T12:29:26Z</time>
      </trkpt>
      <trkpt lat="42.89177985" lon="13.54561242">
        <ele>325.00000</ele>
        <time>2024-02-08T12:29:27Z</time>
      </trkpt>
      <trkpt lat="42.89181699" lon="13.54557109">
        <ele>325.00000</ele>
        <time>2024-02-08T12:29:28Z</time>
      </trkpt>
      <trkpt lat="42.89185504" lon="13.54553136">
        <ele>325.00000</ele>
        <time>2024-02-08T12:29:29Z</time>
      </trkpt>
      <trkpt lat="42.89189200" lon="13.54549138">
        <ele>326.00000</ele>
        <time>2024-02-08T12:29:30Z</time>
      </trkpt>
      <trkpt lat="42.89192779" lon="13.54545073">
        <ele>326.00000</ele>
        <time>2024-02-08T12:29:31Z</time>
      </trkpt>
      <trkpt lat="42.89197180" lon="13.54540580">
        <ele>327.00000</ele>
        <time>2024-02-08T12:29:32Z</time>
      </trkpt>
      <trkpt lat="42.89199845" lon="13.54537295">
        <ele>327.00000</ele>
        <time>2024-02-08T12:29:33Z</time>
      </trkpt>
      <trkpt lat="42.89203190" lon="13.54533137">
        <ele>328.00000</ele>
        <time>2024-02-08T12:29:34Z</time>
      </trkpt>
      <trkpt lat="42.89206769" lon="13.54528821">
        <ele>328.00000</ele>
        <time>2024-02-08T12:29:35Z</time>
      </trkpt>
      <trkpt lat="42.89210256" lon="13.54524621">
        <ele>329.00000</ele>
        <time>2024-02-08T12:29:36Z</time>
      </trkpt>
      <trkpt lat="42.89213499" lon="13.54520422">
        <ele>329.00000</ele>
        <time>2024-02-08T12:29:37Z</time>
      </trkpt>
      <trkpt lat="42.89217070" lon="13.54516608">
        <ele>330.00000</ele>
        <time>2024-02-08T12:29:38Z</time>
      </trkpt>
      <trkpt lat="42.89220456" lon="13.54512786">
        <ele>330.00000</ele>
        <time>2024-02-08T12:29:39Z</time>
      </trkpt>
      <trkpt lat="42.89223256" lon="13.54508972">
        <ele>331.00000</ele>
        <time>2024-02-08T12:29:40Z</time>
      </trkpt>
      <trkpt lat="42.89226793" lon="13.54504404">
        <ele>331.00000</ele>
        <time>2024-02-08T12:29:41Z</time>
      </trkpt>
      <trkpt lat="42.89229308" lon="13.54500833">
        <ele>331.00000</ele>
        <time>2024-02-08T12:29:42Z</time>
      </trkpt>
      <trkpt lat="42.89233398" lon="13.54495712">
        <ele>332.00000</ele>
        <time>2024-02-08T12:29:43Z</time>
      </trkpt>
      <trkpt lat="42.89236231" lon="13.54492242">
        <ele>333.00000</ele>
        <time>2024-02-08T12:29:44Z</time>
      </trkpt>
      <trkpt lat="42.89239668" lon="13.54488017">
        <ele>334.00000</ele>
        <time>2024-02-08T12:29:45Z</time>
      </trkpt>
      <trkpt lat="42.89242736" lon="13.54483667">
        <ele>334.00000</ele>
        <time>2024-02-08T12:29:46Z</time>
      </trkpt>
      <trkpt lat="42.89245485" lon="13.54479309">
        <ele>335.00000</ele>
        <time>2024-02-08T12:29:47Z</time>
      </trkpt>
      <trkpt lat="42.89248326" lon="13.54474849">
        <ele>336.00000</ele>
        <time>2024-02-08T12:29:48Z</time>
      </trkpt>
      <trkpt lat="42.89251168" lon="13.54470089">
        <ele>337.00000</ele>
        <time>2024-02-08T12:29:49Z</time>
      </trkpt>
      <trkpt lat="42.89253976" lon="13.54465328">
        <ele>337.00000</ele>
        <time>2024-02-08T12:29:50Z</time>
      </trkpt>
      <trkpt lat="42.89256641" lon="13.54460122">
        <ele>338.00000</ele>
        <time>2024-02-08T12:29:51Z</time>
      </trkpt>
      <trkpt lat="42.89259122" lon="13.54454942">
        <ele>338.00000</ele>
        <time>2024-02-08T12:29:52Z</time>
      </trkpt>
      <trkpt lat="42.89261804" lon="13.54449989">
        <ele>338.00000</ele>
        <time>2024-02-08T12:29:53Z</time>
      </trkpt>
      <trkpt lat="42.89264386" lon="13.54444951">
        <ele>339.00000</ele>
        <time>2024-02-08T12:29:54Z</time>
      </trkpt>
      <trkpt lat="42.89266624" lon="13.54439453">
        <ele>338.00000</ele>
        <time>2024-02-08T12:29:55Z</time>
      </trkpt>
      <trkpt lat="42.89268719" lon="13.54433870">
        <ele>338.00000</ele>
        <time>2024-02-08T12:29:56Z</time>
      </trkpt>
      <trkpt lat="42.89270999" lon="13.54428472">
        <ele>338.00000</ele>
        <time>2024-02-08T12:29:57Z</time>
      </trkpt>
      <trkpt lat="42.89273162" lon="13.54422982">
        <ele>337.00000</ele>
        <time>2024-02-08T12:29:58Z</time>
      </trkpt>
      <trkpt lat="42.89275098" lon="13.54416880">
        <ele>337.00000</ele>
        <time>2024-02-08T12:29:59Z</time>
      </trkpt>
      <trkpt lat="42.89277562" lon="13.54410778">
        <ele>337.00000</ele>
        <time>2024-02-08T12:30:00Z</time>
      </trkpt>
      <trkpt lat="42.89280119" lon="13.54405162">
        <ele>337.00000</ele>
        <time>2024-02-08T12:30:01Z</time>
      </trkpt>
      <trkpt lat="42.89282793" lon="13.54400024">
        <ele>337.00000</ele>
        <time>2024-02-08T12:30:02Z</time>
      </trkpt>
      <trkpt lat="42.89284972" lon="13.54394501">
        <ele>337.00000</ele>
        <time>2024-02-08T12:30:03Z</time>
      </trkpt>
      <trkpt lat="42.89286497" lon="13.54388290">
        <ele>337.00000</ele>
        <time>2024-02-08T12:30:04Z</time>
      </trkpt>
      <trkpt lat="42.89288316" lon="13.54382297">
        <ele>338.00000</ele>
        <time>2024-02-08T12:30:05Z</time>
      </trkpt>
      <trkpt lat="42.89289498" lon="13.54375725">
        <ele>338.00000</ele>
        <time>2024-02-08T12:30:06Z</time>
      </trkpt>
      <trkpt lat="42.89290219" lon="13.54369087">
        <ele>338.00000</ele>
        <time>2024-02-08T12:30:07Z</time>
      </trkpt>
      <trkpt lat="42.89289909" lon="13.54362255">
        <ele>338.00000</ele>
        <time>2024-02-08T12:30:08Z</time>
      </trkpt>
      <trkpt lat="42.89288987" lon="13.54355743">
        <ele>338.00000</ele>
        <time>2024-02-08T12:30:09Z</time>
      </trkpt>
      <trkpt lat="42.89287327" lon="13.54349406">
        <ele>338.00000</ele>
        <time>2024-02-08T12:30:10Z</time>
      </trkpt>
      <trkpt lat="42.89285140" lon="13.54343036">
        <ele>338.00000</ele>
        <time>2024-02-08T12:30:11Z</time>
      </trkpt>
      <trkpt lat="42.89282583" lon="13.54337177">
        <ele>338.00000</ele>
        <time>2024-02-08T12:30:12Z</time>
      </trkpt>
      <trkpt lat="42.89279306" lon="13.54331829">
        <ele>338.00000</ele>
        <time>2024-02-08T12:30:13Z</time>
      </trkpt>
      <trkpt lat="42.89275626" lon="13.54326792">
        <ele>339.00000</ele>
        <time>2024-02-08T12:30:14Z</time>
      </trkpt>
      <trkpt lat="42.89271167" lon="13.54321553">
        <ele>339.00000</ele>
        <time>2024-02-08T12:30:15Z</time>
      </trkpt>
      <trkpt lat="42.89266926" lon="13.54317421">
        <ele>340.00000</ele>
        <time>2024-02-08T12:30:16Z</time>
      </trkpt>
      <trkpt lat="42.89263347" lon="13.54314562">
        <ele>340.00000</ele>
        <time>2024-02-08T12:30:17Z</time>
      </trkpt>
      <trkpt lat="42.89258762" lon="13.54311176">
        <ele>340.00000</ele>
        <time>2024-02-08T12:30:18Z</time>
      </trkpt>
      <trkpt lat="42.89253808" lon="13.54308125">
        <ele>341.00000</ele>
        <time>2024-02-08T12:30:19Z</time>
      </trkpt>
      <trkpt lat="42.89248921" lon="13.54305468">
        <ele>341.00000</ele>
        <time>2024-02-08T12:30:20Z</time>
      </trkpt>
      <trkpt lat="42.89243867" lon="13.54303088">
        <ele>342.00000</ele>
        <time>2024-02-08T12:30:21Z</time>
      </trkpt>
      <trkpt lat="42.89237790" lon="13.54300833">
        <ele>342.00000</ele>
        <time>2024-02-08T12:30:22Z</time>
      </trkpt>
      <trkpt lat="42.89233515" lon="13.54299609">
        <ele>342.00000</ele>
        <time>2024-02-08T12:30:23Z</time>
      </trkpt>
      <trkpt lat="42.89228185" lon="13.54298167">
        <ele>342.00000</ele>
        <time>2024-02-08T12:30:24Z</time>
      </trkpt>
      <trkpt lat="42.89221898" lon="13.54296684">
        <ele>342.00000</ele>
        <time>2024-02-08T12:30:25Z</time>
      </trkpt>
      <trkpt lat="42.89217556" lon="13.54295854">
        <ele>342.00000</ele>
        <time>2024-02-08T12:30:26Z</time>
      </trkpt>
      <trkpt lat="42.89212259" lon="13.54295007">
        <ele>343.00000</ele>
        <time>2024-02-08T12:30:27Z</time>
      </trkpt>
      <trkpt lat="42.89205671" lon="13.54294563">
        <ele>342.00000</ele>
        <time>2024-02-08T12:30:28Z</time>
      </trkpt>
      <trkpt lat="42.89199979" lon="13.54293926">
        <ele>342.00000</ele>
        <time>2024-02-08T12:30:29Z</time>
      </trkpt>
      <trkpt lat="42.89195403" lon="13.54293054">
        <ele>342.00000</ele>
        <time>2024-02-08T12:30:30Z</time>
      </trkpt>
      <trkpt lat="42.89190231" lon="13.54291018">
        <ele>342.00000</ele>
        <time>2024-02-08T12:30:31Z</time>
      </trkpt>
      <trkpt lat="42.89185311" lon="13.54288109">
        <ele>343.00000</ele>
        <time>2024-02-08T12:30:32Z</time>
      </trkpt>
      <trkpt lat="42.89180156" lon="13.54285410">
        <ele>343.00000</ele>
        <time>2024-02-08T12:30:33Z</time>
      </trkpt>
      <trkpt lat="42.89175035" lon="13.54282996">
        <ele>343.00000</ele>
        <time>2024-02-08T12:30:34Z</time>
      </trkpt>
      <trkpt lat="42.89169494" lon="13.54280096">
        <ele>343.00000</ele>
        <time>2024-02-08T12:30:35Z</time>
      </trkpt>
      <trkpt lat="42.89164868" lon="13.54277833">
        <ele>343.00000</ele>
        <time>2024-02-08T12:30:36Z</time>
      </trkpt>
      <trkpt lat="42.89160467" lon="13.54275754">
        <ele>343.00000</ele>
        <time>2024-02-08T12:30:37Z</time>
      </trkpt>
      <trkpt lat="42.89155388" lon="13.54274027">
        <ele>343.00000</ele>
        <time>2024-02-08T12:30:38Z</time>
      </trkpt>
      <trkpt lat="42.89150317" lon="13.54272142">
        <ele>343.00000</ele>
        <time>2024-02-08T12:30:39Z</time>
      </trkpt>
      <trkpt lat="42.89145313" lon="13.54270541">
        <ele>343.00000</ele>
        <time>2024-02-08T12:30:40Z</time>
      </trkpt>
      <trkpt lat="42.89141130" lon="13.54269568">
        <ele>343.00000</ele>
        <time>2024-02-08T12:30:41Z</time>
      </trkpt>
      <trkpt lat="42.89134735" lon="13.54268236">
        <ele>343.00000</ele>
        <time>2024-02-08T12:30:42Z</time>
      </trkpt>
      <trkpt lat="42.89129287" lon="13.54267733">
        <ele>343.00000</ele>
        <time>2024-02-08T12:30:43Z</time>
      </trkpt>
      <trkpt lat="42.89123813" lon="13.54267029">
        <ele>343.00000</ele>
        <time>2024-02-08T12:30:44Z</time>
      </trkpt>
      <trkpt lat="42.89118600" lon="13.54266316">
        <ele>343.00000</ele>
        <time>2024-02-08T12:30:45Z</time>
      </trkpt>
      <trkpt lat="42.89113319" lon="13.54266098">
        <ele>343.00000</ele>
        <time>2024-02-08T12:30:46Z</time>
      </trkpt>
      <trkpt lat="42.89107695" lon="13.54266140">
        <ele>343.00000</ele>
        <time>2024-02-08T12:30:47Z</time>
      </trkpt>
      <trkpt lat="42.89101987" lon="13.54266040">
        <ele>343.00000</ele>
        <time>2024-02-08T12:30:48Z</time>
      </trkpt>
      <trkpt lat="42.89096228" lon="13.54266744">
        <ele>343.00000</ele>
        <time>2024-02-08T12:30:49Z</time>
      </trkpt>
      <trkpt lat="42.89089992" lon="13.54267473">
        <ele>343.00000</ele>
        <time>2024-02-08T12:30:50Z</time>
      </trkpt>
      <trkpt lat="42.89084913" lon="13.54266551">
        <ele>343.00000</ele>
        <time>2024-02-08T12:30:51Z</time>
      </trkpt>
      <trkpt lat="42.89080160" lon="13.54265335">
        <ele>343.00000</ele>
        <time>2024-02-08T12:30:52Z</time>
      </trkpt>
      <trkpt lat="42.89075609" lon="13.54263659">
        <ele>343.00000</ele>
        <time>2024-02-08T12:30:53Z</time>
      </trkpt>
      <trkpt lat="42.89071225" lon="13.54261698">
        <ele>343.00000</ele>
        <time>2024-02-08T12:30:54Z</time>
      </trkpt>
      <trkpt lat="42.89066992" lon="13.54257926">
        <ele>344.00000</ele>
        <time>2024-02-08T12:30:55Z</time>
      </trkpt>
      <trkpt lat="42.89064360" lon="13.54253467">
        <ele>344.00000</ele>
        <time>2024-02-08T12:30:56Z</time>
      </trkpt>
      <trkpt lat="42.89063598" lon="13.54248144">
        <ele>344.00000</ele>
        <time>2024-02-08T12:30:57Z</time>
      </trkpt>
      <trkpt lat="42.89065467" lon="13.54243442">
        <ele>344.00000</ele>
        <time>2024-02-08T12:30:58Z</time>
      </trkpt>
      <trkpt lat="42.89069171" lon="13.54238874">
        <ele>344.00000</ele>
        <time>2024-02-08T12:30:59Z</time>
      </trkpt>
      <trkpt lat="42.89072851" lon="13.54233585">
        <ele>344.00000</ele>
        <time>2024-02-08T12:31:00Z</time>
      </trkpt>
      <trkpt lat="42.89076841" lon="13.54228455">
        <ele>344.00000</ele>
        <time>2024-02-08T12:31:01Z</time>
      </trkpt>
      <trkpt lat="42.89081308" lon="13.54223535">
        <ele>344.00000</ele>
        <time>2024-02-08T12:31:02Z</time>
      </trkpt>
      <trkpt lat="42.89084946" lon="13.54219838">
        <ele>344.00000</ele>
        <time>2024-02-08T12:31:03Z</time>
      </trkpt>
      <trkpt lat="42.89089179" lon="13.54215304">
        <ele>344.00000</ele>
        <time>2024-02-08T12:31:04Z</time>
      </trkpt>
      <trkpt lat="42.89093974" lon="13.54211507">
        <ele>344.00000</ele>
        <time>2024-02-08T12:31:05Z</time>
      </trkpt>
      <trkpt lat="42.89099187" lon="13.54208783">
        <ele>344.00000</ele>
        <time>2024-02-08T12:31:06Z</time>
      </trkpt>
      <trkpt lat="42.89104744" lon="13.54206905">
        <ele>344.00000</ele>
        <time>2024-02-08T12:31:07Z</time>
      </trkpt>
      <trkpt lat="42.89110377" lon="13.54205287">
        <ele>345.00000</ele>
        <time>2024-02-08T12:31:08Z</time>
      </trkpt>
      <trkpt lat="42.89115859" lon="13.54203519">
        <ele>346.00000</ele>
        <time>2024-02-08T12:31:09Z</time>
      </trkpt>
      <trkpt lat="42.89121265" lon="13.54201457">
        <ele>346.00000</ele>
        <time>2024-02-08T12:31:10Z</time>
      </trkpt>
      <trkpt lat="42.89126160" lon="13.54199303">
        <ele>347.00000</ele>
        <time>2024-02-08T12:31:11Z</time>
      </trkpt>
      <trkpt lat="42.89131005" lon="13.54197073">
        <ele>348.00000</ele>
        <time>2024-02-08T12:31:12Z</time>
      </trkpt>
      <trkpt lat="42.89135917" lon="13.54195028">
        <ele>349.00000</ele>
        <time>2024-02-08T12:31:13Z</time>
      </trkpt>
      <trkpt lat="42.89141776" lon="13.54192530">
        <ele>350.00000</ele>
        <time>2024-02-08T12:31:14Z</time>
      </trkpt>
      <trkpt lat="42.89145589" lon="13.54190946">
        <ele>351.00000</ele>
        <time>2024-02-08T12:31:15Z</time>
      </trkpt>
      <trkpt lat="42.89149646" lon="13.54190225">
        <ele>352.00000</ele>
        <time>2024-02-08T12:31:16Z</time>
      </trkpt>
      <trkpt lat="42.89154608" lon="13.54189923">
        <ele>353.00000</ele>
        <time>2024-02-08T12:31:17Z</time>
      </trkpt>
      <trkpt lat="42.89158137" lon="13.54188809">
        <ele>354.00000</ele>
        <time>2024-02-08T12:31:18Z</time>
      </trkpt>
      <trkpt lat="42.89162621" lon="13.54186998">
        <ele>355.00000</ele>
        <time>2024-02-08T12:31:19Z</time>
      </trkpt>
      <trkpt lat="42.89166896" lon="13.54184660">
        <ele>355.00000</ele>
        <time>2024-02-08T12:31:20Z</time>
      </trkpt>
      <trkpt lat="42.89170903" lon="13.54181986">
        <ele>355.00000</ele>
        <time>2024-02-08T12:31:21Z</time>
      </trkpt>
      <trkpt lat="42.89175664" lon="13.54178667">
        <ele>355.00000</ele>
        <time>2024-02-08T12:31:22Z</time>
      </trkpt>
      <trkpt lat="42.89179016" lon="13.54176571">
        <ele>355.00000</ele>
        <time>2024-02-08T12:31:23Z</time>
      </trkpt>
      <trkpt lat="42.89183425" lon="13.54173906">
        <ele>355.00000</ele>
        <time>2024-02-08T12:31:24Z</time>
      </trkpt>
      <trkpt lat="42.89188027" lon="13.54171064">
        <ele>355.00000</ele>
        <time>2024-02-08T12:31:25Z</time>
      </trkpt>
      <trkpt lat="42.89192318" lon="13.54168483">
        <ele>355.00000</ele>
        <time>2024-02-08T12:31:26Z</time>
      </trkpt>
      <trkpt lat="42.89196149" lon="13.54166278">
        <ele>356.00000</ele>
        <time>2024-02-08T12:31:27Z</time>
      </trkpt>
      <trkpt lat="42.89199979" lon="13.54164426">
        <ele>355.00000</ele>
        <time>2024-02-08T12:31:28Z</time>
      </trkpt>
      <trkpt lat="42.89204564" lon="13.54162666">
        <ele>355.00000</ele>
        <time>2024-02-08T12:31:29Z</time>
      </trkpt>
      <trkpt lat="42.89207674" lon="13.54162087">
        <ele>355.00000</ele>
        <time>2024-02-08T12:31:30Z</time>
      </trkpt>
      <trkpt lat="42.89211890" lon="13.54162146">
        <ele>356.00000</ele>
        <time>2024-02-08T12:31:31Z</time>
      </trkpt>
      <trkpt lat="42.89216333" lon="13.54162615">
        <ele>356.00000</ele>
        <time>2024-02-08T12:31:32Z</time>
      </trkpt>
      <trkpt lat="42.89220733" lon="13.54162867">
        <ele>357.00000</ele>
        <time>2024-02-08T12:31:33Z</time>
      </trkpt>
      <trkpt lat="42.89225243" lon="13.54163797">
        <ele>357.00000</ele>
        <time>2024-02-08T12:31:34Z</time>
      </trkpt>
      <trkpt lat="42.89229953" lon="13.54164032">
        <ele>358.00000</ele>
        <time>2024-02-08T12:31:35Z</time>
      </trkpt>
      <trkpt lat="42.89234555" lon="13.54163646">
        <ele>358.00000</ele>
        <time>2024-02-08T12:31:36Z</time>
      </trkpt>
      <trkpt lat="42.89238167" lon="13.54163990">
        <ele>359.00000</ele>
        <time>2024-02-08T12:31:37Z</time>
      </trkpt>
      <trkpt lat="42.89242208" lon="13.54164828">
        <ele>359.00000</ele>
        <time>2024-02-08T12:31:38Z</time>
      </trkpt>
      <trkpt lat="42.89246549" lon="13.54164778">
        <ele>360.00000</ele>
        <time>2024-02-08T12:31:39Z</time>
      </trkpt>
      <trkpt lat="42.89252056" lon="13.54164367">
        <ele>361.00000</ele>
        <time>2024-02-08T12:31:40Z</time>
      </trkpt>
      <trkpt lat="42.89256063" lon="13.54163554">
        <ele>361.00000</ele>
        <time>2024-02-08T12:31:41Z</time>
      </trkpt>
      <trkpt lat="42.89260136" lon="13.54162481">
        <ele>362.00000</ele>
        <time>2024-02-08T12:31:42Z</time>
      </trkpt>
      <trkpt lat="42.89264361" lon="13.54160830">
        <ele>362.00000</ele>
        <time>2024-02-08T12:31:43Z</time>
      </trkpt>
      <trkpt lat="42.89268770" lon="13.54159028">
        <ele>362.00000</ele>
        <time>2024-02-08T12:31:44Z</time>
      </trkpt>
      <trkpt lat="42.89274302" lon="13.54156228">
        <ele>363.00000</ele>
        <time>2024-02-08T12:31:45Z</time>
      </trkpt>
      <trkpt lat="42.89278074" lon="13.54153730">
        <ele>363.00000</ele>
        <time>2024-02-08T12:31:46Z</time>
      </trkpt>
      <trkpt lat="42.89282374" lon="13.54150386">
        <ele>364.00000</ele>
        <time>2024-02-08T12:31:47Z</time>
      </trkpt>
      <trkpt lat="42.89287311" lon="13.54146631">
        <ele>364.00000</ele>
        <time>2024-02-08T12:31:48Z</time>
      </trkpt>
      <trkpt lat="42.89291728" lon="13.54142859">
        <ele>365.00000</ele>
        <time>2024-02-08T12:31:49Z</time>
      </trkpt>
      <trkpt lat="42.89296522" lon="13.54138433">
        <ele>365.00000</ele>
        <time>2024-02-08T12:31:50Z</time>
      </trkpt>
      <trkpt lat="42.89300261" lon="13.54133840">
        <ele>366.00000</ele>
        <time>2024-02-08T12:31:51Z</time>
      </trkpt>
      <trkpt lat="42.89303412" lon="13.54128828">
        <ele>367.00000</ele>
        <time>2024-02-08T12:31:52Z</time>
      </trkpt>
      <trkpt lat="42.89306488" lon="13.54122675">
        <ele>368.00000</ele>
        <time>2024-02-08T12:31:53Z</time>
      </trkpt>
      <trkpt lat="42.89308131" lon="13.54118753">
        <ele>369.00000</ele>
        <time>2024-02-08T12:31:54Z</time>
      </trkpt>
      <trkpt lat="42.89310746" lon="13.54111871">
        <ele>370.00000</ele>
        <time>2024-02-08T12:31:55Z</time>
      </trkpt>
      <trkpt lat="42.89311937" lon="13.54105291">
        <ele>371.00000</ele>
        <time>2024-02-08T12:31:56Z</time>
      </trkpt>
      <trkpt lat="42.89312154" lon="13.54099642">
        <ele>371.00000</ele>
        <time>2024-02-08T12:31:57Z</time>
      </trkpt>
      <trkpt lat="42.89312465" lon="13.54094604">
        <ele>372.00000</ele>
        <time>2024-02-08T12:31:58Z</time>
      </trkpt>
      <trkpt lat="42.89311761" lon="13.54088905">
        <ele>372.00000</ele>
        <time>2024-02-08T12:31:59Z</time>
      </trkpt>
      <trkpt lat="42.89310939" lon="13.54083348">
        <ele>371.00000</ele>
        <time>2024-02-08T12:32:00Z</time>
      </trkpt>
      <trkpt lat="42.89309740" lon="13.54077162">
        <ele>372.00000</ele>
        <time>2024-02-08T12:32:01Z</time>
      </trkpt>
      <trkpt lat="42.89308089" lon="13.54072208">
        <ele>371.00000</ele>
        <time>2024-02-08T12:32:02Z</time>
      </trkpt>
      <trkpt lat="42.89306312" lon="13.54067933">
        <ele>371.00000</ele>
        <time>2024-02-08T12:32:03Z</time>
      </trkpt>
      <trkpt lat="42.89305147" lon="13.54061613">
        <ele>371.00000</ele>
        <time>2024-02-08T12:32:04Z</time>
      </trkpt>
      <trkpt lat="42.89304384" lon="13.54057389">
        <ele>372.00000</ele>
        <time>2024-02-08T12:32:05Z</time>
      </trkpt>
      <trkpt lat="42.89303194" lon="13.54050767">
        <ele>373.00000</ele>
        <time>2024-02-08T12:32:06Z</time>
      </trkpt>
      <trkpt lat="42.89301593" lon="13.54045629">
        <ele>373.00000</ele>
        <time>2024-02-08T12:32:07Z</time>
      </trkpt>
      <trkpt lat="42.89299590" lon="13.54041052">
        <ele>374.00000</ele>
        <time>2024-02-08T12:32:08Z</time>
      </trkpt>
      <trkpt lat="42.89296941" lon="13.54036778">
        <ele>374.00000</ele>
        <time>2024-02-08T12:32:09Z</time>
      </trkpt>
      <trkpt lat="42.89293681" lon="13.54033333">
        <ele>374.00000</ele>
        <time>2024-02-08T12:32:10Z</time>
      </trkpt>
      <trkpt lat="42.89289850" lon="13.54030223">
        <ele>373.00000</ele>
        <time>2024-02-08T12:32:11Z</time>
      </trkpt>
      <trkpt lat="42.89285701" lon="13.54027382">
        <ele>373.00000</ele>
        <time>2024-02-08T12:32:12Z</time>
      </trkpt>
      <trkpt lat="42.89281787" lon="13.54024389">
        <ele>373.00000</ele>
        <time>2024-02-08T12:32:13Z</time>
      </trkpt>
      <trkpt lat="42.89278367" lon="13.54022235">
        <ele>372.00000</ele>
        <time>2024-02-08T12:32:14Z</time>
      </trkpt>
      <trkpt lat="42.89274503" lon="13.54019637">
        <ele>372.00000</ele>
        <time>2024-02-08T12:32:15Z</time>
      </trkpt>
      <trkpt lat="42.89270907" lon="13.54016745">
        <ele>371.00000</ele>
        <time>2024-02-08T12:32:16Z</time>
      </trkpt>
      <trkpt lat="42.89267378" lon="13.54013912">
        <ele>371.00000</ele>
        <time>2024-02-08T12:32:17Z</time>
      </trkpt>
      <trkpt lat="42.89263824" lon="13.54010970">
        <ele>371.00000</ele>
        <time>2024-02-08T12:32:18Z</time>
      </trkpt>
      <trkpt lat="42.89259768" lon="13.54007366">
        <ele>371.00000</ele>
        <time>2024-02-08T12:32:19Z</time>
      </trkpt>
      <trkpt lat="42.89256448" lon="13.54004491">
        <ele>371.00000</ele>
        <time>2024-02-08T12:32:20Z</time>
      </trkpt>
      <trkpt lat="42.89253054" lon="13.54001867">
        <ele>372.00000</ele>
        <time>2024-02-08T12:32:21Z</time>
      </trkpt>
      <trkpt lat="42.89249718" lon="13.53999176">
        <ele>372.00000</ele>
        <time>2024-02-08T12:32:22Z</time>
      </trkpt>
      <trkpt lat="42.89246105" lon="13.53996377">
        <ele>372.00000</ele>
        <time>2024-02-08T12:32:23Z</time>
      </trkpt>
      <trkpt lat="42.89242526" lon="13.53993569">
        <ele>373.00000</ele>
        <time>2024-02-08T12:32:24Z</time>
      </trkpt>
      <trkpt lat="42.89239190" lon="13.53991205">
        <ele>373.00000</ele>
        <time>2024-02-08T12:32:25Z</time>
      </trkpt>
      <trkpt lat="42.89235410" lon="13.53988699">
        <ele>374.00000</ele>
        <time>2024-02-08T12:32:26Z</time>
      </trkpt>
      <trkpt lat="42.89231831" lon="13.53986453">
        <ele>374.00000</ele>
        <time>2024-02-08T12:32:27Z</time>
      </trkpt>
      <trkpt lat="42.89227908" lon="13.53983880">
        <ele>375.00000</ele>
        <time>2024-02-08T12:32:28Z</time>
      </trkpt>
      <trkpt lat="42.89223558" lon="13.53981574">
        <ele>376.00000</ele>
        <time>2024-02-08T12:32:29Z</time>
      </trkpt>
      <trkpt lat="42.89220012" lon="13.53979781">
        <ele>375.00000</ele>
        <time>2024-02-08T12:32:30Z</time>
      </trkpt>
      <trkpt lat="42.89215972" lon="13.53977777">
        <ele>374.00000</ele>
        <time>2024-02-08T12:32:31Z</time>
      </trkpt>
      <trkpt lat="42.89212309" lon="13.53974634">
        <ele>373.00000</ele>
        <time>2024-02-08T12:32:32Z</time>
      </trkpt>
      <trkpt lat="42.89208579" lon="13.53969999">
        <ele>372.00000</ele>
        <time>2024-02-08T12:32:33Z</time>
      </trkpt>
      <trkpt lat="42.89206626" lon="13.53965481">
        <ele>372.00000</ele>
        <time>2024-02-08T12:32:34Z</time>
      </trkpt>
      <trkpt lat="42.89204916" lon="13.53959153">
        <ele>373.00000</ele>
        <time>2024-02-08T12:32:35Z</time>
      </trkpt>
      <trkpt lat="42.89203927" lon="13.53952028">
        <ele>374.00000</ele>
        <time>2024-02-08T12:32:36Z</time>
      </trkpt>
      <trkpt lat="42.89203592" lon="13.53945901">
        <ele>376.00000</ele>
        <time>2024-02-08T12:32:37Z</time>
      </trkpt>
      <trkpt lat="42.89203768" lon="13.53939774">
        <ele>377.00000</ele>
        <time>2024-02-08T12:32:38Z</time>
      </trkpt>
      <trkpt lat="42.89204078" lon="13.53933270">
        <ele>378.00000</ele>
        <time>2024-02-08T12:32:39Z</time>
      </trkpt>
      <trkpt lat="42.89204154" lon="13.53925667">
        <ele>379.00000</ele>
        <time>2024-02-08T12:32:40Z</time>
      </trkpt>
      <trkpt lat="42.89203944" lon="13.53919280">
        <ele>379.00000</ele>
        <time>2024-02-08T12:32:41Z</time>
      </trkpt>
      <trkpt lat="42.89203450" lon="13.53912558">
        <ele>380.00000</ele>
        <time>2024-02-08T12:32:42Z</time>
      </trkpt>
      <trkpt lat="42.89202729" lon="13.53906271">
        <ele>380.00000</ele>
        <time>2024-02-08T12:32:43Z</time>
      </trkpt>
      <trkpt lat="42.89201555" lon="13.53900010">
        <ele>380.00000</ele>
        <time>2024-02-08T12:32:44Z</time>
      </trkpt>
      <trkpt lat="42.89200482" lon="13.53894067">
        <ele>380.00000</ele>
        <time>2024-02-08T12:32:45Z</time>
      </trkpt>
      <trkpt lat="42.89199778" lon="13.53889130">
        <ele>380.00000</ele>
        <time>2024-02-08T12:32:46Z</time>
      </trkpt>
      <trkpt lat="42.89198571" lon="13.53882852">
        <ele>380.00000</ele>
        <time>2024-02-08T12:32:47Z</time>
      </trkpt>
      <trkpt lat="42.89197498" lon="13.53876541">
        <ele>380.00000</ele>
        <time>2024-02-08T12:32:48Z</time>
      </trkpt>
      <trkpt lat="42.89196685" lon="13.53870498">
        <ele>381.00000</ele>
        <time>2024-02-08T12:32:49Z</time>
      </trkpt>
      <trkpt lat="42.89195168" lon="13.53863155">
        <ele>381.00000</ele>
        <time>2024-02-08T12:32:50Z</time>
      </trkpt>
      <trkpt lat="42.89194204" lon="13.53858302">
        <ele>381.00000</ele>
        <time>2024-02-08T12:32:51Z</time>
      </trkpt>
      <trkpt lat="42.89193324" lon="13.53851672">
        <ele>381.00000</ele>
        <time>2024-02-08T12:32:52Z</time>
      </trkpt>
      <trkpt lat="42.89192184" lon="13.53845452">
        <ele>381.00000</ele>
        <time>2024-02-08T12:32:53Z</time>
      </trkpt>
      <trkpt lat="42.89191472" lon="13.53839476">
        <ele>381.00000</ele>
        <time>2024-02-08T12:32:54Z</time>
      </trkpt>
      <trkpt lat="42.89191564" lon="13.53833835">
        <ele>381.00000</ele>
        <time>2024-02-08T12:32:55Z</time>
      </trkpt>
      <trkpt lat="42.89192385" lon="13.53828823">
        <ele>381.00000</ele>
        <time>2024-02-08T12:32:56Z</time>
      </trkpt>
      <trkpt lat="42.89194229" lon="13.53824280">
        <ele>382.00000</ele>
        <time>2024-02-08T12:32:57Z</time>
      </trkpt>
      <trkpt lat="42.89197029" lon="13.53820801">
        <ele>382.00000</ele>
        <time>2024-02-08T12:32:58Z</time>
      </trkpt>
      <trkpt lat="42.89200935" lon="13.53818479">
        <ele>382.00000</ele>
        <time>2024-02-08T12:32:59Z</time>
      </trkpt>
      <trkpt lat="42.89205587" lon="13.53816535">
        <ele>382.00000</ele>
        <time>2024-02-08T12:33:00Z</time>
      </trkpt>
      <trkpt lat="42.89210398" lon="13.53815076">
        <ele>383.00000</ele>
        <time>2024-02-08T12:33:01Z</time>
      </trkpt>
      <trkpt lat="42.89215184" lon="13.53814112">
        <ele>383.00000</ele>
        <time>2024-02-08T12:33:02Z</time>
      </trkpt>
      <trkpt lat="42.89219752" lon="13.53813073">
        <ele>383.00000</ele>
        <time>2024-02-08T12:33:03Z</time>
      </trkpt>
      <trkpt lat="42.89224295" lon="13.53812252">
        <ele>382.00000</ele>
        <time>2024-02-08T12:33:04Z</time>
      </trkpt>
      <trkpt lat="42.89228495" lon="13.53811833">
        <ele>382.00000</ele>
        <time>2024-02-08T12:33:05Z</time>
      </trkpt>
      <trkpt lat="42.89232652" lon="13.53811556">
        <ele>381.00000</ele>
        <time>2024-02-08T12:33:06Z</time>
      </trkpt>
      <trkpt lat="42.89236919" lon="13.53811472">
        <ele>381.00000</ele>
        <time>2024-02-08T12:33:07Z</time>
      </trkpt>
      <trkpt lat="42.89240975" lon="13.53812118">
        <ele>381.00000</ele>
        <time>2024-02-08T12:33:08Z</time>
      </trkpt>
      <trkpt lat="42.89244906" lon="13.53813434">
        <ele>381.00000</ele>
        <time>2024-02-08T12:33:09Z</time>
      </trkpt>
      <trkpt lat="42.89248712" lon="13.53814909">
        <ele>381.00000</ele>
        <time>2024-02-08T12:33:10Z</time>
      </trkpt>
      <trkpt lat="42.89252609" lon="13.53816786">
        <ele>381.00000</ele>
        <time>2024-02-08T12:33:11Z</time>
      </trkpt>
      <trkpt lat="42.89256314" lon="13.53819678">
        <ele>381.00000</ele>
        <time>2024-02-08T12:33:12Z</time>
      </trkpt>
      <trkpt lat="42.89259374" lon="13.53822612">
        <ele>382.00000</ele>
        <time>2024-02-08T12:33:13Z</time>
      </trkpt>
      <trkpt lat="42.89262676" lon="13.53826551">
        <ele>383.00000</ele>
        <time>2024-02-08T12:33:14Z</time>
      </trkpt>
      <trkpt lat="42.89266004" lon="13.53832243">
        <ele>384.00000</ele>
        <time>2024-02-08T12:33:15Z</time>
      </trkpt>
      <trkpt lat="42.89268795" lon="13.53837733">
        <ele>386.00000</ele>
        <time>2024-02-08T12:33:16Z</time>
      </trkpt>
      <trkpt lat="42.89271259" lon="13.53842829">
        <ele>387.00000</ele>
        <time>2024-02-08T12:33:17Z</time>
      </trkpt>
      <trkpt lat="42.89273254" lon="13.53848059">
        <ele>389.00000</ele>
        <time>2024-02-08T12:33:18Z</time>
      </trkpt>
      <trkpt lat="42.89275375" lon="13.53853616">
        <ele>390.00000</ele>
        <time>2024-02-08T12:33:19Z</time>
      </trkpt>
      <trkpt lat="42.89277529" lon="13.53858863">
        <ele>392.00000</ele>
        <time>2024-02-08T12:33:20Z</time>
      </trkpt>
      <trkpt lat="42.89280035" lon="13.53863926">
        <ele>392.00000</ele>
        <time>2024-02-08T12:33:21Z</time>
      </trkpt>
      <trkpt lat="42.89282876" lon="13.53869349">
        <ele>393.00000</ele>
        <time>2024-02-08T12:33:22Z</time>
      </trkpt>
      <trkpt lat="42.89284938" lon="13.53874588">
        <ele>393.00000</ele>
        <time>2024-02-08T12:33:23Z</time>
      </trkpt>
      <trkpt lat="42.89287210" lon="13.53879726">
        <ele>394.00000</ele>
        <time>2024-02-08T12:33:24Z</time>
      </trkpt>
      <trkpt lat="42.89289817" lon="13.53884093">
        <ele>394.00000</ele>
        <time>2024-02-08T12:33:25Z</time>
      </trkpt>
      <trkpt lat="42.89293203" lon="13.53888594">
        <ele>395.00000</ele>
        <time>2024-02-08T12:33:26Z</time>
      </trkpt>
      <trkpt lat="42.89297411" lon="13.53892047">
        <ele>394.00000</ele>
        <time>2024-02-08T12:33:27Z</time>
      </trkpt>
      <trkpt lat="42.89303454" lon="13.53895316">
        <ele>393.00000</ele>
        <time>2024-02-08T12:33:28Z</time>
      </trkpt>
      <trkpt lat="42.89308701" lon="13.53897370">
        <ele>393.00000</ele>
        <time>2024-02-08T12:33:29Z</time>
      </trkpt>
      <trkpt lat="42.89313135" lon="13.53897982">
        <ele>392.00000</ele>
        <time>2024-02-08T12:33:30Z</time>
      </trkpt>
      <trkpt lat="42.89317728" lon="13.53898577">
        <ele>392.00000</ele>
        <time>2024-02-08T12:33:31Z</time>
      </trkpt>
      <trkpt lat="42.89323076" lon="13.53898267">
        <ele>392.00000</ele>
        <time>2024-02-08T12:33:32Z</time>
      </trkpt>
      <trkpt lat="42.89328457" lon="13.53897387">
        <ele>391.00000</ele>
        <time>2024-02-08T12:33:33Z</time>
      </trkpt>
      <trkpt lat="42.89333478" lon="13.53896020">
        <ele>391.00000</ele>
        <time>2024-02-08T12:33:34Z</time>
      </trkpt>
      <trkpt lat="42.89338583" lon="13.53894487">
        <ele>391.00000</ele>
        <time>2024-02-08T12:33:35Z</time>
      </trkpt>
      <trkpt lat="42.89342790" lon="13.53893489">
        <ele>391.00000</ele>
        <time>2024-02-08T12:33:36Z</time>
      </trkpt>
      <trkpt lat="42.89346973" lon="13.53893129">
        <ele>391.00000</ele>
        <time>2024-02-08T12:33:37Z</time>
      </trkpt>
      <trkpt lat="42.89350611" lon="13.53894000">
        <ele>392.00000</ele>
        <time>2024-02-08T12:33:38Z</time>
      </trkpt>
      <trkpt lat="42.89354600" lon="13.53894964">
        <ele>392.00000</ele>
        <time>2024-02-08T12:33:39Z</time>
      </trkpt>
      <trkpt lat="42.89358465" lon="13.53898569">
        <ele>393.00000</ele>
        <time>2024-02-08T12:33:40Z</time>
      </trkpt>
      <trkpt lat="42.89360820" lon="13.53904687">
        <ele>394.00000</ele>
        <time>2024-02-08T12:33:41Z</time>
      </trkpt>
      <trkpt lat="42.89362655" lon="13.53910873">
        <ele>394.00000</ele>
        <time>2024-02-08T12:33:42Z</time>
      </trkpt>
      <trkpt lat="42.89363552" lon="13.53917855">
        <ele>395.00000</ele>
        <time>2024-02-08T12:33:43Z</time>
      </trkpt>
      <trkpt lat="42.89363804" lon="13.53924209">
        <ele>396.00000</ele>
        <time>2024-02-08T12:33:44Z</time>
      </trkpt>
      <trkpt lat="42.89364114" lon="13.53930210">
        <ele>396.00000</ele>
        <time>2024-02-08T12:33:45Z</time>
      </trkpt>
      <trkpt lat="42.89365338" lon="13.53936505">
        <ele>396.00000</ele>
        <time>2024-02-08T12:33:46Z</time>
      </trkpt>
      <trkpt lat="42.89366955" lon="13.53943085">
        <ele>397.00000</ele>
        <time>2024-02-08T12:33:47Z</time>
      </trkpt>
      <trkpt lat="42.89367601" lon="13.53949304">
        <ele>397.00000</ele>
        <time>2024-02-08T12:33:48Z</time>
      </trkpt>
      <trkpt lat="42.89368640" lon="13.53955423">
        <ele>397.00000</ele>
        <time>2024-02-08T12:33:49Z</time>
      </trkpt>
      <trkpt lat="42.89369956" lon="13.53961491">
        <ele>397.00000</ele>
        <time>2024-02-08T12:33:50Z</time>
      </trkpt>
      <trkpt lat="42.89371591" lon="13.53967552">
        <ele>397.00000</ele>
        <time>2024-02-08T12:33:51Z</time>
      </trkpt>
      <trkpt lat="42.89373259" lon="13.53973243">
        <ele>396.00000</ele>
        <time>2024-02-08T12:33:52Z</time>
      </trkpt>
      <trkpt lat="42.89374960" lon="13.53978465">
        <ele>396.00000</ele>
        <time>2024-02-08T12:33:53Z</time>
      </trkpt>
      <trkpt lat="42.89376771" lon="13.53983653">
        <ele>396.00000</ele>
        <time>2024-02-08T12:33:54Z</time>
      </trkpt>
      <trkpt lat="42.89378363" lon="13.53988892">
        <ele>396.00000</ele>
        <time>2024-02-08T12:33:55Z</time>
      </trkpt>
      <trkpt lat="42.89380098" lon="13.53994214">
        <ele>396.00000</ele>
        <time>2024-02-08T12:33:56Z</time>
      </trkpt>
      <trkpt lat="42.89382001" lon="13.53999294">
        <ele>395.00000</ele>
        <time>2024-02-08T12:33:57Z</time>
      </trkpt>
      <trkpt lat="42.89383895" lon="13.54004214">
        <ele>396.00000</ele>
        <time>2024-02-08T12:33:58Z</time>
      </trkpt>
      <trkpt lat="42.89386066" lon="13.54009369">
        <ele>396.00000</ele>
        <time>2024-02-08T12:33:59Z</time>
      </trkpt>
      <trkpt lat="42.89388095" lon="13.54014649">
        <ele>397.00000</ele>
        <time>2024-02-08T12:34:00Z</time>
      </trkpt>
      <trkpt lat="42.89390467" lon="13.54019394">
        <ele>398.00000</ele>
        <time>2024-02-08T12:34:01Z</time>
      </trkpt>
      <trkpt lat="42.89392462" lon="13.54024314">
        <ele>399.00000</ele>
        <time>2024-02-08T12:34:02Z</time>
      </trkpt>
      <trkpt lat="42.89394716" lon="13.54028957">
        <ele>400.00000</ele>
        <time>2024-02-08T12:34:03Z</time>
      </trkpt>
      <trkpt lat="42.89397323" lon="13.54033534">
        <ele>400.00000</ele>
        <time>2024-02-08T12:34:04Z</time>
      </trkpt>
      <trkpt lat="42.89400181" lon="13.54038043">
        <ele>401.00000</ele>
        <time>2024-02-08T12:34:05Z</time>
      </trkpt>
      <trkpt lat="42.89403014" lon="13.54042477">
        <ele>401.00000</ele>
        <time>2024-02-08T12:34:06Z</time>
      </trkpt>
      <trkpt lat="42.89405688" lon="13.54046585">
        <ele>402.00000</ele>
        <time>2024-02-08T12:34:07Z</time>
      </trkpt>
      <trkpt lat="42.89408840" lon="13.54050993">
        <ele>403.00000</ele>
        <time>2024-02-08T12:34:08Z</time>
      </trkpt>
      <trkpt lat="42.89412201" lon="13.54055855">
        <ele>404.00000</ele>
        <time>2024-02-08T12:34:09Z</time>
      </trkpt>
      <trkpt lat="42.89415126" lon="13.54060046">
        <ele>404.00000</ele>
        <time>2024-02-08T12:34:10Z</time>
      </trkpt>
      <trkpt lat="42.89417607" lon="13.54065016">
        <ele>405.00000</ele>
        <time>2024-02-08T12:34:11Z</time>
      </trkpt>
      <trkpt lat="42.89419627" lon="13.54070096">
        <ele>406.00000</ele>
        <time>2024-02-08T12:34:12Z</time>
      </trkpt>
      <trkpt lat="42.89422075" lon="13.54075041">
        <ele>406.00000</ele>
        <time>2024-02-08T12:34:13Z</time>
      </trkpt>
      <trkpt lat="42.89425101" lon="13.54079819">
        <ele>407.00000</ele>
        <time>2024-02-08T12:34:14Z</time>
      </trkpt>
      <trkpt lat="42.89427900" lon="13.54084881">
        <ele>408.00000</ele>
        <time>2024-02-08T12:34:15Z</time>
      </trkpt>
      <trkpt lat="42.89430960" lon="13.54089609">
        <ele>408.00000</ele>
        <time>2024-02-08T12:34:16Z</time>
      </trkpt>
      <trkpt lat="42.89435184" lon="13.54094428">
        <ele>409.00000</ele>
        <time>2024-02-08T12:34:17Z</time>
      </trkpt>
      <trkpt lat="42.89439031" lon="13.54098334">
        <ele>409.00000</ele>
        <time>2024-02-08T12:34:18Z</time>
      </trkpt>
      <trkpt lat="42.89443457" lon="13.54101670">
        <ele>410.00000</ele>
        <time>2024-02-08T12:34:19Z</time>
      </trkpt>
      <trkpt lat="42.89448050" lon="13.54104830">
        <ele>411.00000</ele>
        <time>2024-02-08T12:34:20Z</time>
      </trkpt>
      <trkpt lat="42.89452166" lon="13.54107110">
        <ele>412.00000</ele>
        <time>2024-02-08T12:34:21Z</time>
      </trkpt>
      <trkpt lat="42.89457002" lon="13.54108904">
        <ele>412.00000</ele>
        <time>2024-02-08T12:34:22Z</time>
      </trkpt>
      <trkpt lat="42.89462199" lon="13.54110094">
        <ele>413.00000</ele>
        <time>2024-02-08T12:34:23Z</time>
      </trkpt>
      <trkpt lat="42.89467412" lon="13.54108200">
        <ele>413.00000</ele>
        <time>2024-02-08T12:34:24Z</time>
      </trkpt>
      <trkpt lat="42.89472894" lon="13.54105828">
        <ele>414.00000</ele>
        <time>2024-02-08T12:34:25Z</time>
      </trkpt>
      <trkpt lat="42.89477605" lon="13.54102031">
        <ele>415.00000</ele>
        <time>2024-02-08T12:34:26Z</time>
      </trkpt>
      <trkpt lat="42.89481829" lon="13.54097890">
        <ele>417.00000</ele>
        <time>2024-02-08T12:34:27Z</time>
      </trkpt>
      <trkpt lat="42.89485082" lon="13.54092182">
        <ele>418.00000</ele>
        <time>2024-02-08T12:34:28Z</time>
      </trkpt>
      <trkpt lat="42.89487588" lon="13.54084965">
        <ele>418.00000</ele>
        <time>2024-02-08T12:34:29Z</time>
      </trkpt>
      <trkpt lat="42.89489826" lon="13.54077472">
        <ele>419.00000</ele>
        <time>2024-02-08T12:34:30Z</time>
      </trkpt>
      <trkpt lat="42.89489977" lon="13.54069719">
        <ele>418.00000</ele>
        <time>2024-02-08T12:34:31Z</time>
      </trkpt>
      <trkpt lat="42.89489331" lon="13.54062753">
        <ele>417.00000</ele>
        <time>2024-02-08T12:34:32Z</time>
      </trkpt>
      <trkpt lat="42.89489205" lon="13.54055855">
        <ele>417.00000</ele>
        <time>2024-02-08T12:34:33Z</time>
      </trkpt>
      <trkpt lat="42.89489021" lon="13.54048806">
        <ele>416.00000</ele>
        <time>2024-02-08T12:34:34Z</time>
      </trkpt>
      <trkpt lat="42.89489063" lon="13.54042008">
        <ele>415.00000</ele>
        <time>2024-02-08T12:34:35Z</time>
      </trkpt>
      <trkpt lat="42.89489423" lon="13.54035177">
        <ele>414.00000</ele>
        <time>2024-02-08T12:34:36Z</time>
      </trkpt>
      <trkpt lat="42.89489901" lon="13.54028111">
        <ele>413.00000</ele>
        <time>2024-02-08T12:34:37Z</time>
      </trkpt>
      <trkpt lat="42.89490354" lon="13.54021011">
        <ele>413.00000</ele>
        <time>2024-02-08T12:34:38Z</time>
      </trkpt>
      <trkpt lat="42.89491334" lon="13.54014163">
        <ele>412.00000</ele>
        <time>2024-02-08T12:34:39Z</time>
      </trkpt>
      <trkpt lat="42.89492784" lon="13.54007709">
        <ele>412.00000</ele>
        <time>2024-02-08T12:34:40Z</time>
      </trkpt>
      <trkpt lat="42.89494209" lon="13.54001406">
        <ele>411.00000</ele>
        <time>2024-02-08T12:34:41Z</time>
      </trkpt>
      <trkpt lat="42.89495852" lon="13.53994701">
        <ele>411.00000</ele>
        <time>2024-02-08T12:34:42Z</time>
      </trkpt>
      <trkpt lat="42.89497914" lon="13.53988171">
        <ele>411.00000</ele>
        <time>2024-02-08T12:34:43Z</time>
      </trkpt>
      <trkpt lat="42.89500462" lon="13.53981709">
        <ele>411.00000</ele>
        <time>2024-02-08T12:34:44Z</time>
      </trkpt>
      <trkpt lat="42.89502792" lon="13.53974995">
        <ele>410.00000</ele>
        <time>2024-02-08T12:34:45Z</time>
      </trkpt>
      <trkpt lat="42.89505257" lon="13.53967912">
        <ele>410.00000</ele>
        <time>2024-02-08T12:34:46Z</time>
      </trkpt>
      <trkpt lat="42.89507369" lon="13.53960385">
        <ele>409.00000</ele>
        <time>2024-02-08T12:34:47Z</time>
      </trkpt>
      <trkpt lat="42.89509565" lon="13.53953319">
        <ele>408.00000</ele>
        <time>2024-02-08T12:34:48Z</time>
      </trkpt>
      <trkpt lat="42.89512029" lon="13.53946521">
        <ele>408.00000</ele>
        <time>2024-02-08T12:34:49Z</time>
      </trkpt>
      <trkpt lat="42.89514494" lon="13.53939891">
        <ele>407.00000</ele>
        <time>2024-02-08T12:34:50Z</time>
      </trkpt>
      <trkpt lat="42.89517343" lon="13.53933764">
        <ele>406.00000</ele>
        <time>2024-02-08T12:34:51Z</time>
      </trkpt>
      <trkpt lat="42.89521015" lon="13.53927637">
        <ele>406.00000</ele>
        <time>2024-02-08T12:34:52Z</time>
      </trkpt>
      <trkpt lat="42.89525122" lon="13.53922465">
        <ele>405.00000</ele>
        <time>2024-02-08T12:34:53Z</time>
      </trkpt>
      <trkpt lat="42.89530025" lon="13.53919439">
        <ele>405.00000</ele>
        <time>2024-02-08T12:34:54Z</time>
      </trkpt>
      <trkpt lat="42.89534803" lon="13.53918107">
        <ele>404.00000</ele>
        <time>2024-02-08T12:34:55Z</time>
      </trkpt>
      <trkpt lat="42.89538734" lon="13.53918987">
        <ele>403.00000</ele>
        <time>2024-02-08T12:34:56Z</time>
      </trkpt>
      <trkpt lat="42.89542129" lon="13.53925449">
        <ele>404.00000</ele>
        <time>2024-02-08T12:34:57Z</time>
      </trkpt>
      <trkpt lat="42.89545767" lon="13.53933110">
        <ele>405.00000</ele>
        <time>2024-02-08T12:34:58Z</time>
      </trkpt>
      <trkpt lat="42.89549672" lon="13.53941392">
        <ele>406.00000</ele>
        <time>2024-02-08T12:34:59Z</time>
      </trkpt>
      <trkpt lat="42.89554668" lon="13.53950369">
        <ele>408.00000</ele>
        <time>2024-02-08T12:35:00Z</time>
      </trkpt>
      <trkpt lat="42.89559773" lon="13.53959245">
        <ele>409.00000</ele>
        <time>2024-02-08T12:35:01Z</time>
      </trkpt>
      <trkpt lat="42.89564215" lon="13.53968029">
        <ele>410.00000</ele>
        <time>2024-02-08T12:35:02Z</time>
      </trkpt>
      <trkpt lat="42.89568691" lon="13.53976654">
        <ele>411.00000</ele>
        <time>2024-02-08T12:35:03Z</time>
      </trkpt>
      <trkpt lat="42.89573628" lon="13.53985162">
        <ele>412.00000</ele>
        <time>2024-02-08T12:35:04Z</time>
      </trkpt>
      <trkpt lat="42.89579018" lon="13.53993619">
        <ele>413.00000</ele>
        <time>2024-02-08T12:35:05Z</time>
      </trkpt>
      <trkpt lat="42.89584700" lon="13.54002336">
        <ele>413.00000</ele>
        <time>2024-02-08T12:35:06Z</time>
      </trkpt>
      <trkpt lat="42.89590224" lon="13.54011272">
        <ele>413.00000</ele>
        <time>2024-02-08T12:35:07Z</time>
      </trkpt>
      <trkpt lat="42.89595396" lon="13.54020383">
        <ele>413.00000</ele>
        <time>2024-02-08T12:35:08Z</time>
      </trkpt>
      <trkpt lat="42.89600140" lon="13.54030181">
        <ele>413.00000</ele>
        <time>2024-02-08T12:35:09Z</time>
      </trkpt>
      <trkpt lat="42.89605136" lon="13.54039854">
        <ele>414.00000</ele>
        <time>2024-02-08T12:35:10Z</time>
      </trkpt>
      <trkpt lat="42.89610525" lon="13.54048890">
        <ele>415.00000</ele>
        <time>2024-02-08T12:35:11Z</time>
      </trkpt>
      <trkpt lat="42.89616560" lon="13.54056961">
        <ele>415.00000</ele>
        <time>2024-02-08T12:35:12Z</time>
      </trkpt>
      <trkpt lat="42.89623945" lon="13.54062778">
        <ele>414.00000</ele>
        <time>2024-02-08T12:35:13Z</time>
      </trkpt>
      <trkpt lat="42.89632813" lon="13.54067003">
        <ele>413.00000</ele>
        <time>2024-02-08T12:35:14Z</time>
      </trkpt>
      <trkpt lat="42.89641840" lon="13.54070255">
        <ele>412.00000</ele>
        <time>2024-02-08T12:35:15Z</time>
      </trkpt>
      <trkpt lat="42.89652326" lon="13.54069492">
        <ele>411.00000</ele>
        <time>2024-02-08T12:35:16Z</time>
      </trkpt>
      <trkpt lat="42.89663692" lon="13.54064480">
        <ele>409.00000</ele>
        <time>2024-02-08T12:35:17Z</time>
      </trkpt>
      <trkpt lat="42.89672191" lon="13.54056215">
        <ele>408.00000</ele>
        <time>2024-02-08T12:35:18Z</time>
      </trkpt>
      <trkpt lat="42.89678427" lon="13.54045637">
        <ele>407.00000</ele>
        <time>2024-02-08T12:35:19Z</time>
      </trkpt>
      <trkpt lat="42.89682693" lon="13.54034582">
        <ele>405.00000</ele>
        <time>2024-02-08T12:35:20Z</time>
      </trkpt>
      <trkpt lat="42.89687655" lon="13.54023911">
        <ele>403.00000</ele>
        <time>2024-02-08T12:35:21Z</time>
      </trkpt>
      <trkpt lat="42.89692374" lon="13.54014029">
        <ele>402.00000</ele>
        <time>2024-02-08T12:35:22Z</time>
      </trkpt>
      <trkpt lat="42.89697454" lon="13.54004583">
        <ele>399.00000</ele>
        <time>2024-02-08T12:35:23Z</time>
      </trkpt>
      <trkpt lat="42.89703573" lon="13.53997031">
        <ele>396.00000</ele>
        <time>2024-02-08T12:35:24Z</time>
      </trkpt>
      <trkpt lat="42.89711812" lon="13.54001540">
        <ele>395.00000</ele>
        <time>2024-02-08T12:35:25Z</time>
      </trkpt>
      <trkpt lat="42.89720244" lon="13.54012026">
        <ele>397.00000</ele>
        <time>2024-02-08T12:35:26Z</time>
      </trkpt>
      <trkpt lat="42.89728224" lon="13.54018916">
        <ele>396.00000</ele>
        <time>2024-02-08T12:35:27Z</time>
      </trkpt>
      <trkpt lat="42.89735876" lon="13.54027558">
        <ele>396.00000</ele>
        <time>2024-02-08T12:35:28Z</time>
      </trkpt>
      <trkpt lat="42.89742465" lon="13.54039326">
        <ele>396.00000</ele>
        <time>2024-02-08T12:35:29Z</time>
      </trkpt>
      <trkpt lat="42.89747804" lon="13.54050918">
        <ele>396.00000</ele>
        <time>2024-02-08T12:35:30Z</time>
      </trkpt>
      <trkpt lat="42.89751777" lon="13.54063013">
        <ele>397.00000</ele>
        <time>2024-02-08T12:35:31Z</time>
      </trkpt>
      <trkpt lat="42.89755415" lon="13.54075075">
        <ele>397.00000</ele>
        <time>2024-02-08T12:35:32Z</time>
      </trkpt>
      <trkpt lat="42.89756320" lon="13.54087731">
        <ele>398.00000</ele>
        <time>2024-02-08T12:35:33Z</time>
      </trkpt>
      <trkpt lat="42.89754702" lon="13.54099064">
        <ele>400.00000</ele>
        <time>2024-02-08T12:35:34Z</time>
      </trkpt>
      <trkpt lat="42.89753713" lon="13.54110723">
        <ele>402.00000</ele>
        <time>2024-02-08T12:35:35Z</time>
      </trkpt>
      <trkpt lat="42.89751861" lon="13.54121988">
        <ele>402.00000</ele>
        <time>2024-02-08T12:35:36Z</time>
      </trkpt>
      <trkpt lat="42.89750109" lon="13.54133287">
        <ele>403.00000</ele>
        <time>2024-02-08T12:35:37Z</time>
      </trkpt>
      <trkpt lat="42.89748441" lon="13.54144762">
        <ele>404.00000</ele>
        <time>2024-02-08T12:35:38Z</time>
      </trkpt>
      <trkpt lat="42.89746982" lon="13.54156027">
        <ele>405.00000</ele>
        <time>2024-02-08T12:35:39Z</time>
      </trkpt>
      <trkpt lat="42.89748391" lon="13.54167334">
        <ele>404.00000</ele>
        <time>2024-02-08T12:35:40Z</time>
      </trkpt>
      <trkpt lat="42.89750805" lon="13.54177946">
        <ele>403.00000</ele>
        <time>2024-02-08T12:35:41Z</time>
      </trkpt>
      <trkpt lat="42.89754627" lon="13.54187216">
        <ele>402.00000</ele>
        <time>2024-02-08T12:35:42Z</time>
      </trkpt>
      <trkpt lat="42.89759606" lon="13.54195129">
        <ele>401.00000</ele>
        <time>2024-02-08T12:35:43Z</time>
      </trkpt>
      <trkpt lat="42.89765666" lon="13.54201591">
        <ele>400.00000</ele>
        <time>2024-02-08T12:35:44Z</time>
      </trkpt>
      <trkpt lat="42.89772321" lon="13.54206386">
        <ele>399.00000</ele>
        <time>2024-02-08T12:35:45Z</time>
      </trkpt>
      <trkpt lat="42.89779362" lon="13.54208934">
        <ele>399.00000</ele>
        <time>2024-02-08T12:35:46Z</time>
      </trkpt>
      <trkpt lat="42.89787224" lon="13.54209671">
        <ele>399.00000</ele>
        <time>2024-02-08T12:35:47Z</time>
      </trkpt>
      <trkpt lat="42.89795229" lon="13.54208573">
        <ele>399.00000</ele>
        <time>2024-02-08T12:35:48Z</time>
      </trkpt>
      <trkpt lat="42.89803544" lon="13.54205078">
        <ele>398.00000</ele>
        <time>2024-02-08T12:35:49Z</time>
      </trkpt>
      <trkpt lat="42.89811540" lon="13.54198926">
        <ele>398.00000</ele>
        <time>2024-02-08T12:35:50Z</time>
      </trkpt>
      <trkpt lat="42.89818103" lon="13.54191969">
        <ele>398.00000</ele>
        <time>2024-02-08T12:35:51Z</time>
      </trkpt>
      <trkpt lat="42.89830726" lon="13.54177929">
        <ele>397.00000</ele>
        <time>2024-02-08T12:35:53Z</time>
      </trkpt>
      <trkpt lat="42.89837197" lon="13.54171584">
        <ele>395.00000</ele>
        <time>2024-02-08T12:35:54Z</time>
      </trkpt>
      <trkpt lat="42.89845311" lon="13.54165834">
        <ele>394.00000</ele>
        <time>2024-02-08T12:35:55Z</time>
      </trkpt>
      <trkpt lat="42.89850926" lon="13.54162548">
        <ele>393.00000</ele>
        <time>2024-02-08T12:35:56Z</time>
      </trkpt>
      <trkpt lat="42.89859862" lon="13.54158676">
        <ele>392.00000</ele>
        <time>2024-02-08T12:35:57Z</time>
      </trkpt>
      <trkpt lat="42.89865871" lon="13.54156505">
        <ele>392.00000</ele>
        <time>2024-02-08T12:35:58Z</time>
      </trkpt>
      <trkpt lat="42.89873139" lon="13.54155130">
        <ele>393.00000</ele>
        <time>2024-02-08T12:35:59Z</time>
      </trkpt>
      <trkpt lat="42.89880833" lon="13.54154460">
        <ele>394.00000</ele>
        <time>2024-02-08T12:36:00Z</time>
      </trkpt>
      <trkpt lat="42.89888410" lon="13.54155214">
        <ele>396.00000</ele>
        <time>2024-02-08T12:36:01Z</time>
      </trkpt>
      <trkpt lat="42.89896440" lon="13.54156555">
        <ele>397.00000</ele>
        <time>2024-02-08T12:36:02Z</time>
      </trkpt>
      <trkpt lat="42.89904294" lon="13.54157678">
        <ele>398.00000</ele>
        <time>2024-02-08T12:36:03Z</time>
      </trkpt>
      <trkpt lat="42.89911947" lon="13.54159313">
        <ele>399.00000</ele>
        <time>2024-02-08T12:36:04Z</time>
      </trkpt>
      <trkpt lat="42.89919256" lon="13.54160352">
        <ele>399.00000</ele>
        <time>2024-02-08T12:36:05Z</time>
      </trkpt>
      <trkpt lat="42.89926850" lon="13.54161391">
        <ele>399.00000</ele>
        <time>2024-02-08T12:36:06Z</time>
      </trkpt>
      <trkpt lat="42.89934678" lon="13.54162674">
        <ele>400.00000</ele>
        <time>2024-02-08T12:36:07Z</time>
      </trkpt>
      <trkpt lat="42.89942264" lon="13.54163772">
        <ele>400.00000</ele>
        <time>2024-02-08T12:36:08Z</time>
      </trkpt>
      <trkpt lat="42.89951124" lon="13.54164719">
        <ele>399.00000</ele>
        <time>2024-02-08T12:36:09Z</time>
      </trkpt>
      <trkpt lat="42.89956974" lon="13.54165641">
        <ele>398.00000</ele>
        <time>2024-02-08T12:36:10Z</time>
      </trkpt>
      <trkpt lat="42.89964023" lon="13.54168013">
        <ele>398.00000</ele>
        <time>2024-02-08T12:36:11Z</time>
      </trkpt>
      <trkpt lat="42.89970704" lon="13.54171500">
        <ele>398.00000</ele>
        <time>2024-02-08T12:36:12Z</time>
      </trkpt>
      <trkpt lat="42.89977468" lon="13.54175691">
        <ele>398.00000</ele>
        <time>2024-02-08T12:36:13Z</time>
      </trkpt>
      <trkpt lat="42.89984417" lon="13.54180536">
        <ele>398.00000</ele>
        <time>2024-02-08T12:36:14Z</time>
      </trkpt>
      <trkpt lat="42.89991022" lon="13.54185397">
        <ele>397.00000</ele>
        <time>2024-02-08T12:36:15Z</time>
      </trkpt>
      <trkpt lat="42.89997610" lon="13.54190560">
        <ele>396.00000</ele>
        <time>2024-02-08T12:36:16Z</time>
      </trkpt>
      <trkpt lat="42.90004223" lon="13.54195556">
        <ele>396.00000</ele>
        <time>2024-02-08T12:36:17Z</time>
      </trkpt>
      <trkpt lat="42.90010803" lon="13.54200862">
        <ele>397.00000</ele>
        <time>2024-02-08T12:36:18Z</time>
      </trkpt>
      <trkpt lat="42.90016913" lon="13.54205732">
        <ele>397.00000</ele>
        <time>2024-02-08T12:36:19Z</time>
      </trkpt>
      <trkpt lat="42.90022948" lon="13.54210032">
        <ele>397.00000</ele>
        <time>2024-02-08T12:36:20Z</time>
      </trkpt>
      <trkpt lat="42.90028690" lon="13.54213862">
        <ele>396.00000</ele>
        <time>2024-02-08T12:36:21Z</time>
      </trkpt>
      <trkpt lat="42.90034373" lon="13.54217885">
        <ele>396.00000</ele>
        <time>2024-02-08T12:36:22Z</time>
      </trkpt>
      <trkpt lat="42.90040324" lon="13.54222345">
        <ele>397.00000</ele>
        <time>2024-02-08T12:36:23Z</time>
      </trkpt>
      <trkpt lat="42.90045990" lon="13.54227357">
        <ele>398.00000</ele>
        <time>2024-02-08T12:36:24Z</time>
      </trkpt>
      <trkpt lat="42.90051958" lon="13.54232286">
        <ele>398.00000</ele>
        <time>2024-02-08T12:36:25Z</time>
      </trkpt>
      <trkpt lat="42.90058320" lon="13.54237533">
        <ele>399.00000</ele>
        <time>2024-02-08T12:36:26Z</time>
      </trkpt>
      <trkpt lat="42.90065176" lon="13.54242813">
        <ele>400.00000</ele>
        <time>2024-02-08T12:36:27Z</time>
      </trkpt>
      <trkpt lat="42.90071563" lon="13.54248228">
        <ele>400.00000</ele>
        <time>2024-02-08T12:36:28Z</time>
      </trkpt>
      <trkpt lat="42.90077984" lon="13.54252553">
        <ele>399.00000</ele>
        <time>2024-02-08T12:36:29Z</time>
      </trkpt>
      <trkpt lat="42.90085880" lon="13.54255596">
        <ele>399.00000</ele>
        <time>2024-02-08T12:36:30Z</time>
      </trkpt>
      <trkpt lat="42.90091814" lon="13.54255453">
        <ele>400.00000</ele>
        <time>2024-02-08T12:36:31Z</time>
      </trkpt>
      <trkpt lat="42.90098729" lon="13.54253525">
        <ele>401.00000</ele>
        <time>2024-02-08T12:36:32Z</time>
      </trkpt>
      <trkpt lat="42.90106114" lon="13.54248530">
        <ele>402.00000</ele>
        <time>2024-02-08T12:36:33Z</time>
      </trkpt>
      <trkpt lat="42.90111637" lon="13.54240500">
        <ele>404.00000</ele>
        <time>2024-02-08T12:36:34Z</time>
      </trkpt>
      <trkpt lat="42.90113280" lon="13.54230743">
        <ele>407.00000</ele>
        <time>2024-02-08T12:36:35Z</time>
      </trkpt>
      <trkpt lat="42.90111620" lon="13.54221305">
        <ele>408.00000</ele>
        <time>2024-02-08T12:36:36Z</time>
      </trkpt>
      <trkpt lat="42.90109022" lon="13.54213368">
        <ele>408.00000</ele>
        <time>2024-02-08T12:36:37Z</time>
      </trkpt>
      <trkpt lat="42.90105862" lon="13.54206268">
        <ele>408.00000</ele>
        <time>2024-02-08T12:36:38Z</time>
      </trkpt>
      <trkpt lat="42.90102266" lon="13.54200066">
        <ele>408.00000</ele>
        <time>2024-02-08T12:36:39Z</time>
      </trkpt>
      <trkpt lat="42.90098545" lon="13.54194802">
        <ele>408.00000</ele>
        <time>2024-02-08T12:36:40Z</time>
      </trkpt>
      <trkpt lat="42.90094672" lon="13.54190016">
        <ele>408.00000</ele>
        <time>2024-02-08T12:36:41Z</time>
      </trkpt>
      <trkpt lat="42.90090339" lon="13.54185255">
        <ele>408.00000</ele>
        <time>2024-02-08T12:36:42Z</time>
      </trkpt>
      <trkpt lat="42.90086098" lon="13.54180184">
        <ele>408.00000</ele>
        <time>2024-02-08T12:36:43Z</time>
      </trkpt>
      <trkpt lat="42.90081630" lon="13.54175490">
        <ele>408.00000</ele>
        <time>2024-02-08T12:36:44Z</time>
      </trkpt>
      <trkpt lat="42.90077037" lon="13.54171324">
        <ele>408.00000</ele>
        <time>2024-02-08T12:36:45Z</time>
      </trkpt>
      <trkpt lat="42.90072100" lon="13.54166060">
        <ele>408.00000</ele>
        <time>2024-02-08T12:36:46Z</time>
      </trkpt>
      <trkpt lat="42.90068806" lon="13.54162666">
        <ele>407.00000</ele>
        <time>2024-02-08T12:36:47Z</time>
      </trkpt>
      <trkpt lat="42.90065126" lon="13.54157729">
        <ele>407.00000</ele>
        <time>2024-02-08T12:36:48Z</time>
      </trkpt>
      <trkpt lat="42.90061748" lon="13.54150436">
        <ele>407.00000</ele>
        <time>2024-02-08T12:36:49Z</time>
      </trkpt>
      <trkpt lat="42.90059292" lon="13.54143773">
        <ele>408.00000</ele>
        <time>2024-02-08T12:36:50Z</time>
      </trkpt>
      <trkpt lat="42.90057381" lon="13.54138065">
        <ele>409.00000</ele>
        <time>2024-02-08T12:36:51Z</time>
      </trkpt>
      <trkpt lat="42.90054682" lon="13.54131795">
        <ele>409.00000</ele>
        <time>2024-02-08T12:36:52Z</time>
      </trkpt>
      <trkpt lat="42.90051933" lon="13.54125576">
        <ele>410.00000</ele>
        <time>2024-02-08T12:36:53Z</time>
      </trkpt>
      <trkpt lat="42.90049427" lon="13.54118124">
        <ele>411.00000</ele>
        <time>2024-02-08T12:36:54Z</time>
      </trkpt>
      <trkpt lat="42.90047055" lon="13.54112341">
        <ele>411.00000</ele>
        <time>2024-02-08T12:36:55Z</time>
      </trkpt>
      <trkpt lat="42.90045118" lon="13.54106381">
        <ele>412.00000</ele>
        <time>2024-02-08T12:36:56Z</time>
      </trkpt>
      <trkpt lat="42.90043182" lon="13.54099944">
        <ele>412.00000</ele>
        <time>2024-02-08T12:36:57Z</time>
      </trkpt>
      <trkpt lat="42.90041849" lon="13.54095124">
        <ele>413.00000</ele>
        <time>2024-02-08T12:36:58Z</time>
      </trkpt>
      <trkpt lat="42.90039570" lon="13.54088134">
        <ele>414.00000</ele>
        <time>2024-02-08T12:36:59Z</time>
      </trkpt>
      <trkpt lat="42.90037256" lon="13.54082333">
        <ele>414.00000</ele>
        <time>2024-02-08T12:37:00Z</time>
      </trkpt>
      <trkpt lat="42.90034867" lon="13.54076751">
        <ele>414.00000</ele>
        <time>2024-02-08T12:37:01Z</time>
      </trkpt>
      <trkpt lat="42.90032613" lon="13.54071185">
        <ele>415.00000</ele>
        <time>2024-02-08T12:37:02Z</time>
      </trkpt>
      <trkpt lat="42.90030785" lon="13.54065570">
        <ele>415.00000</ele>
        <time>2024-02-08T12:37:03Z</time>
      </trkpt>
      <trkpt lat="42.90028841" lon="13.54060222">
        <ele>415.00000</ele>
        <time>2024-02-08T12:37:04Z</time>
      </trkpt>
      <trkpt lat="42.90026343" lon="13.54054765">
        <ele>415.00000</ele>
        <time>2024-02-08T12:37:05Z</time>
      </trkpt>
      <trkpt lat="42.90023124" lon="13.54049677">
        <ele>416.00000</ele>
        <time>2024-02-08T12:37:06Z</time>
      </trkpt>
      <trkpt lat="42.90019922" lon="13.54046124">
        <ele>416.00000</ele>
        <time>2024-02-08T12:37:07Z</time>
      </trkpt>
      <trkpt lat="42.90015614" lon="13.54042251">
        <ele>415.00000</ele>
        <time>2024-02-08T12:37:08Z</time>
      </trkpt>
      <trkpt lat="42.90010845" lon="13.54038513">
        <ele>415.00000</ele>
        <time>2024-02-08T12:37:09Z</time>
      </trkpt>
      <trkpt lat="42.90007081" lon="13.54035747">
        <ele>414.00000</ele>
        <time>2024-02-08T12:37:10Z</time>
      </trkpt>
      <trkpt lat="42.90003695" lon="13.54033551">
        <ele>414.00000</ele>
        <time>2024-02-08T12:37:11Z</time>
      </trkpt>
      <trkpt lat="42.89999328" lon="13.54030609">
        <ele>413.00000</ele>
        <time>2024-02-08T12:37:12Z</time>
      </trkpt>
      <trkpt lat="42.89995263" lon="13.54026778">
        <ele>413.00000</ele>
        <time>2024-02-08T12:37:13Z</time>
      </trkpt>
      <trkpt lat="42.89991256" lon="13.54022964">
        <ele>412.00000</ele>
        <time>2024-02-08T12:37:14Z</time>
      </trkpt>
      <trkpt lat="42.89987007" lon="13.54018572">
        <ele>412.00000</ele>
        <time>2024-02-08T12:37:15Z</time>
      </trkpt>
      <trkpt lat="42.89983461" lon="13.54014683">
        <ele>412.00000</ele>
        <time>2024-02-08T12:37:16Z</time>
      </trkpt>
      <trkpt lat="42.89980477" lon="13.54011657">
        <ele>412.00000</ele>
        <time>2024-02-08T12:37:17Z</time>
      </trkpt>
      <trkpt lat="42.89976797" lon="13.54007600">
        <ele>412.00000</ele>
        <time>2024-02-08T12:37:18Z</time>
      </trkpt>
      <trkpt lat="42.89972674" lon="13.54001515">
        <ele>413.00000</ele>
        <time>2024-02-08T12:37:19Z</time>
      </trkpt>
      <trkpt lat="42.89969799" lon="13.53996763">
        <ele>413.00000</ele>
        <time>2024-02-08T12:37:20Z</time>
      </trkpt>
      <trkpt lat="42.89966295" lon="13.53990535">
        <ele>414.00000</ele>
        <time>2024-02-08T12:37:21Z</time>
      </trkpt>
      <trkpt lat="42.89963487" lon="13.53984265">
        <ele>415.00000</ele>
        <time>2024-02-08T12:37:22Z</time>
      </trkpt>
      <trkpt lat="42.89960931" lon="13.53978096">
        <ele>416.00000</ele>
        <time>2024-02-08T12:37:23Z</time>
      </trkpt>
      <trkpt lat="42.89958165" lon="13.53971810">
        <ele>417.00000</ele>
        <time>2024-02-08T12:37:24Z</time>
      </trkpt>
      <trkpt lat="42.89955264" lon="13.53965624">
        <ele>417.00000</ele>
        <time>2024-02-08T12:37:25Z</time>
      </trkpt>
      <trkpt lat="42.89952389" lon="13.53959673">
        <ele>417.00000</ele>
        <time>2024-02-08T12:37:26Z</time>
      </trkpt>
      <trkpt lat="42.89949472" lon="13.53953931">
        <ele>417.00000</ele>
        <time>2024-02-08T12:37:27Z</time>
      </trkpt>
      <trkpt lat="42.89946421" lon="13.53948533">
        <ele>418.00000</ele>
        <time>2024-02-08T12:37:28Z</time>
      </trkpt>
      <trkpt lat="42.89943236" lon="13.53943286">
        <ele>418.00000</ele>
        <time>2024-02-08T12:37:29Z</time>
      </trkpt>
      <trkpt lat="42.89939632" lon="13.53939204">
        <ele>417.00000</ele>
        <time>2024-02-08T12:37:30Z</time>
      </trkpt>
      <trkpt lat="42.89936363" lon="13.53935474">
        <ele>416.00000</ele>
        <time>2024-02-08T12:37:31Z</time>
      </trkpt>
      <trkpt lat="42.89933430" lon="13.53930763">
        <ele>415.00000</ele>
        <time>2024-02-08T12:37:32Z</time>
      </trkpt>
      <trkpt lat="42.89931150" lon="13.53924762">
        <ele>414.00000</ele>
        <time>2024-02-08T12:37:33Z</time>
      </trkpt>
      <trkpt lat="42.89930337" lon="13.53918341">
        <ele>414.00000</ele>
        <time>2024-02-08T12:37:34Z</time>
      </trkpt>
      <trkpt lat="42.89933438" lon="13.53910932">
        <ele>415.00000</ele>
        <time>2024-02-08T12:37:35Z</time>
      </trkpt>
      <trkpt lat="42.89938459" lon="13.53905190">
        <ele>417.00000</ele>
        <time>2024-02-08T12:37:36Z</time>
      </trkpt>
      <trkpt lat="42.89943044" lon="13.53901125">
        <ele>419.00000</ele>
        <time>2024-02-08T12:37:37Z</time>
      </trkpt>
      <trkpt lat="42.89947402" lon="13.53897730">
        <ele>420.00000</ele>
        <time>2024-02-08T12:37:38Z</time>
      </trkpt>
      <trkpt lat="42.89951710" lon="13.53893581">
        <ele>421.00000</ele>
        <time>2024-02-08T12:37:39Z</time>
      </trkpt>
      <trkpt lat="42.89956036" lon="13.53888862">
        <ele>423.00000</ele>
        <time>2024-02-08T12:37:40Z</time>
      </trkpt>
      <trkpt lat="42.89960017" lon="13.53883950">
        <ele>424.00000</ele>
        <time>2024-02-08T12:37:41Z</time>
      </trkpt>
      <trkpt lat="42.89963638" lon="13.53878377">
        <ele>425.00000</ele>
        <time>2024-02-08T12:37:42Z</time>
      </trkpt>
      <trkpt lat="42.89966655" lon="13.53871805">
        <ele>426.00000</ele>
        <time>2024-02-08T12:37:43Z</time>
      </trkpt>
      <trkpt lat="42.89969128" lon="13.53865385">
        <ele>427.00000</ele>
        <time>2024-02-08T12:37:44Z</time>
      </trkpt>
      <trkpt lat="42.89970478" lon="13.53858880">
        <ele>427.00000</ele>
        <time>2024-02-08T12:37:45Z</time>
      </trkpt>
      <trkpt lat="42.89972598" lon="13.53850523">
        <ele>427.00000</ele>
        <time>2024-02-08T12:37:46Z</time>
      </trkpt>
      <trkpt lat="42.89973931" lon="13.53841044">
        <ele>427.00000</ele>
        <time>2024-02-08T12:37:47Z</time>
      </trkpt>
      <trkpt lat="42.89973411" lon="13.53832980">
        <ele>427.00000</ele>
        <time>2024-02-08T12:37:48Z</time>
      </trkpt>
      <trkpt lat="42.89972238" lon="13.53825218">
        <ele>427.00000</ele>
        <time>2024-02-08T12:37:49Z</time>
      </trkpt>
      <trkpt lat="42.89970511" lon="13.53816174">
        <ele>427.00000</ele>
        <time>2024-02-08T12:37:50Z</time>
      </trkpt>
      <trkpt lat="42.89968608" lon="13.53808823">
        <ele>427.00000</ele>
        <time>2024-02-08T12:37:51Z</time>
      </trkpt>
      <trkpt lat="42.89965482" lon="13.53802520">
        <ele>427.00000</ele>
        <time>2024-02-08T12:37:52Z</time>
      </trkpt>
      <trkpt lat="42.89962062" lon="13.53798220">
        <ele>426.00000</ele>
        <time>2024-02-08T12:37:53Z</time>
      </trkpt>
      <trkpt lat="42.89957351" lon="13.53793828">
        <ele>425.00000</ele>
        <time>2024-02-08T12:37:54Z</time>
      </trkpt>
      <trkpt lat="42.89952306" lon="13.53790266">
        <ele>424.00000</ele>
        <time>2024-02-08T12:37:55Z</time>
      </trkpt>
      <trkpt lat="42.89947285" lon="13.53786611">
        <ele>422.00000</ele>
        <time>2024-02-08T12:37:56Z</time>
      </trkpt>
      <trkpt lat="42.89943018" lon="13.53782446">
        <ele>421.00000</ele>
        <time>2024-02-08T12:37:57Z</time>
      </trkpt>
      <trkpt lat="42.89939858" lon="13.53777056">
        <ele>420.00000</ele>
        <time>2024-02-08T12:37:58Z</time>
      </trkpt>
      <trkpt lat="42.89938593" lon="13.53770937">
        <ele>420.00000</ele>
        <time>2024-02-08T12:37:59Z</time>
      </trkpt>
      <trkpt lat="42.89939146" lon="13.53763712">
        <ele>421.00000</ele>
        <time>2024-02-08T12:38:00Z</time>
      </trkpt>
      <trkpt lat="42.89941392" lon="13.53756311">
        <ele>423.00000</ele>
        <time>2024-02-08T12:38:01Z</time>
      </trkpt>
      <trkpt lat="42.89943940" lon="13.53749019">
        <ele>424.00000</ele>
        <time>2024-02-08T12:38:02Z</time>
      </trkpt>
      <trkpt lat="42.89946028" lon="13.53741383">
        <ele>425.00000</ele>
        <time>2024-02-08T12:38:03Z</time>
      </trkpt>
      <trkpt lat="42.89947084" lon="13.53733655">
        <ele>426.00000</ele>
        <time>2024-02-08T12:38:04Z</time>
      </trkpt>
      <trkpt lat="42.89947025" lon="13.53725499">
        <ele>426.00000</ele>
        <time>2024-02-08T12:38:05Z</time>
      </trkpt>
      <trkpt lat="42.89946354" lon="13.53716916">
        <ele>427.00000</ele>
        <time>2024-02-08T12:38:06Z</time>
      </trkpt>
      <trkpt lat="42.89944611" lon="13.53708811">
        <ele>428.00000</ele>
        <time>2024-02-08T12:38:07Z</time>
      </trkpt>
      <trkpt lat="42.89941677" lon="13.53701217">
        <ele>429.00000</ele>
        <time>2024-02-08T12:38:08Z</time>
      </trkpt>
      <trkpt lat="42.89937931" lon="13.53694343">
        <ele>429.00000</ele>
        <time>2024-02-08T12:38:09Z</time>
      </trkpt>
      <trkpt lat="42.89933312" lon="13.53688635">
        <ele>428.00000</ele>
        <time>2024-02-08T12:38:10Z</time>
      </trkpt>
      <trkpt lat="42.89928434" lon="13.53683833">
        <ele>428.00000</ele>
        <time>2024-02-08T12:38:11Z</time>
      </trkpt>
      <trkpt lat="42.89923111" lon="13.53679306">
        <ele>427.00000</ele>
        <time>2024-02-08T12:38:12Z</time>
      </trkpt>
      <trkpt lat="42.89917806" lon="13.53674906">
        <ele>427.00000</ele>
        <time>2024-02-08T12:38:13Z</time>
      </trkpt>
      <trkpt lat="42.89912860" lon="13.53670849">
        <ele>427.00000</ele>
        <time>2024-02-08T12:38:14Z</time>
      </trkpt>
      <trkpt lat="42.89908125" lon="13.53666583">
        <ele>427.00000</ele>
        <time>2024-02-08T12:38:15Z</time>
      </trkpt>
      <trkpt lat="42.89903045" lon="13.53662325">
        <ele>427.00000</ele>
        <time>2024-02-08T12:38:16Z</time>
      </trkpt>
      <trkpt lat="42.89897890" lon="13.53658217">
        <ele>427.00000</ele>
        <time>2024-02-08T12:38:17Z</time>
      </trkpt>
      <trkpt lat="42.89892761" lon="13.53654169">
        <ele>427.00000</ele>
        <time>2024-02-08T12:38:18Z</time>
      </trkpt>
      <trkpt lat="42.89887505" lon="13.53650305">
        <ele>427.00000</ele>
        <time>2024-02-08T12:38:19Z</time>
      </trkpt>
      <trkpt lat="42.89882048" lon="13.53646810">
        <ele>427.00000</ele>
        <time>2024-02-08T12:38:20Z</time>
      </trkpt>
      <trkpt lat="42.89876709" lon="13.53642996">
        <ele>426.00000</ele>
        <time>2024-02-08T12:38:21Z</time>
      </trkpt>
      <trkpt lat="42.89871445" lon="13.53639434">
        <ele>426.00000</ele>
        <time>2024-02-08T12:38:22Z</time>
      </trkpt>
      <trkpt lat="42.89866014" lon="13.53635922">
        <ele>424.00000</ele>
        <time>2024-02-08T12:38:23Z</time>
      </trkpt>
      <trkpt lat="42.89860641" lon="13.53632301">
        <ele>423.00000</ele>
        <time>2024-02-08T12:38:24Z</time>
      </trkpt>
      <trkpt lat="42.89855930" lon="13.53627732">
        <ele>422.00000</ele>
        <time>2024-02-08T12:38:25Z</time>
      </trkpt>
      <trkpt lat="42.89851513" lon="13.53622511">
        <ele>421.00000</ele>
        <time>2024-02-08T12:38:26Z</time>
      </trkpt>
      <trkpt lat="42.89848445" lon="13.53616811">
        <ele>421.00000</ele>
        <time>2024-02-08T12:38:27Z</time>
      </trkpt>
      <trkpt lat="42.89846601" lon="13.53610214">
        <ele>420.00000</ele>
        <time>2024-02-08T12:38:28Z</time>
      </trkpt>
      <trkpt lat="42.89846501" lon="13.53603349">
        <ele>419.00000</ele>
        <time>2024-02-08T12:38:29Z</time>
      </trkpt>
      <trkpt lat="42.89848789" lon="13.53597323">
        <ele>419.00000</ele>
        <time>2024-02-08T12:38:30Z</time>
      </trkpt>
      <trkpt lat="42.89853148" lon="13.53592327">
        <ele>419.00000</ele>
        <time>2024-02-08T12:38:31Z</time>
      </trkpt>
      <trkpt lat="42.89858554" lon="13.53588514">
        <ele>419.00000</ele>
        <time>2024-02-08T12:38:32Z</time>
      </trkpt>
      <trkpt lat="42.89864187" lon="13.53585429">
        <ele>420.00000</ele>
        <time>2024-02-08T12:38:33Z</time>
      </trkpt>
      <trkpt lat="42.89869886" lon="13.53582646">
        <ele>421.00000</ele>
        <time>2024-02-08T12:38:34Z</time>
      </trkpt>
      <trkpt lat="42.89875745" lon="13.53579545">
        <ele>422.00000</ele>
        <time>2024-02-08T12:38:35Z</time>
      </trkpt>
      <trkpt lat="42.89881311" lon="13.53576150">
        <ele>423.00000</ele>
        <time>2024-02-08T12:38:36Z</time>
      </trkpt>
      <trkpt lat="42.89886927" lon="13.53572688">
        <ele>424.00000</ele>
        <time>2024-02-08T12:38:37Z</time>
      </trkpt>
      <trkpt lat="42.89892727" lon="13.53569026">
        <ele>424.00000</ele>
        <time>2024-02-08T12:38:38Z</time>
      </trkpt>
      <trkpt lat="42.89898527" lon="13.53565346">
        <ele>424.00000</ele>
        <time>2024-02-08T12:38:39Z</time>
      </trkpt>
      <trkpt lat="42.89904646" lon="13.53562069">
        <ele>425.00000</ele>
        <time>2024-02-08T12:38:40Z</time>
      </trkpt>
      <trkpt lat="42.89910731" lon="13.53558490">
        <ele>425.00000</ele>
        <time>2024-02-08T12:38:41Z</time>
      </trkpt>
      <trkpt lat="42.89916540" lon="13.53554190">
        <ele>425.00000</ele>
        <time>2024-02-08T12:38:42Z</time>
      </trkpt>
      <trkpt lat="42.89922315" lon="13.53549429">
        <ele>425.00000</ele>
        <time>2024-02-08T12:38:43Z</time>
      </trkpt>
      <trkpt lat="42.89927596" lon="13.53544274">
        <ele>425.00000</ele>
        <time>2024-02-08T12:38:44Z</time>
      </trkpt>
      <trkpt lat="42.89932692" lon="13.53538951">
        <ele>425.00000</ele>
        <time>2024-02-08T12:38:45Z</time>
      </trkpt>
      <trkpt lat="42.89937587" lon="13.53533428">
        <ele>424.00000</ele>
        <time>2024-02-08T12:38:46Z</time>
      </trkpt>
      <trkpt lat="42.89942549" lon="13.53527351">
        <ele>424.00000</ele>
        <time>2024-02-08T12:38:47Z</time>
      </trkpt>
      <trkpt lat="42.89947595" lon="13.53520981">
        <ele>424.00000</ele>
        <time>2024-02-08T12:38:48Z</time>
      </trkpt>
      <trkpt lat="42.89952314" lon="13.53514376">
        <ele>424.00000</ele>
        <time>2024-02-08T12:38:49Z</time>
      </trkpt>
      <trkpt lat="42.89957251" lon="13.53508844">
        <ele>423.00000</ele>
        <time>2024-02-08T12:38:50Z</time>
      </trkpt>
      <trkpt lat="42.89963076" lon="13.53504728">
        <ele>423.00000</ele>
        <time>2024-02-08T12:38:51Z</time>
      </trkpt>
      <trkpt lat="42.89969011" lon="13.53501174">
        <ele>423.00000</ele>
        <time>2024-02-08T12:38:52Z</time>
      </trkpt>
      <trkpt lat="42.89975163" lon="13.53498601">
        <ele>423.00000</ele>
        <time>2024-02-08T12:38:53Z</time>
      </trkpt>
      <trkpt lat="42.89981944" lon="13.53496832">
        <ele>422.00000</ele>
        <time>2024-02-08T12:38:54Z</time>
      </trkpt>
      <trkpt lat="42.89988356" lon="13.53496204">
        <ele>421.00000</ele>
        <time>2024-02-08T12:38:55Z</time>
      </trkpt>
      <trkpt lat="42.89994928" lon="13.53496137">
        <ele>421.00000</ele>
        <time>2024-02-08T12:38:56Z</time>
      </trkpt>
      <trkpt lat="42.90001331" lon="13.53497687">
        <ele>420.00000</ele>
        <time>2024-02-08T12:38:57Z</time>
      </trkpt>
      <trkpt lat="42.90006981" lon="13.53500537">
        <ele>420.00000</ele>
        <time>2024-02-08T12:38:58Z</time>
      </trkpt>
      <trkpt lat="42.90013133" lon="13.53505105">
        <ele>420.00000</ele>
        <time>2024-02-08T12:38:59Z</time>
      </trkpt>
      <trkpt lat="42.90017274" lon="13.53508718">
        <ele>421.00000</ele>
        <time>2024-02-08T12:39:00Z</time>
      </trkpt>
      <trkpt lat="42.90022328" lon="13.53513973">
        <ele>422.00000</ele>
        <time>2024-02-08T12:39:01Z</time>
      </trkpt>
      <trkpt lat="42.90027290" lon="13.53519665">
        <ele>423.00000</ele>
        <time>2024-02-08T12:39:02Z</time>
      </trkpt>
      <trkpt lat="42.90032470" lon="13.53525213">
        <ele>423.00000</ele>
        <time>2024-02-08T12:39:03Z</time>
      </trkpt>
      <trkpt lat="42.90038287" lon="13.53530419">
        <ele>424.00000</ele>
        <time>2024-02-08T12:39:04Z</time>
      </trkpt>
      <trkpt lat="42.90044465" lon="13.53534827">
        <ele>424.00000</ele>
        <time>2024-02-08T12:39:05Z</time>
      </trkpt>
      <trkpt lat="42.90051028" lon="13.53538407">
        <ele>424.00000</ele>
        <time>2024-02-08T12:39:06Z</time>
      </trkpt>
      <trkpt lat="42.90057549" lon="13.53540955">
        <ele>424.00000</ele>
        <time>2024-02-08T12:39:07Z</time>
      </trkpt>
      <trkpt lat="42.90064305" lon="13.53542245">
        <ele>424.00000</ele>
        <time>2024-02-08T12:39:08Z</time>
      </trkpt>
      <trkpt lat="42.90070926" lon="13.53542547">
        <ele>424.00000</ele>
        <time>2024-02-08T12:39:09Z</time>
      </trkpt>
      <trkpt lat="42.90077607" lon="13.53541692">
        <ele>424.00000</ele>
        <time>2024-02-08T12:39:10Z</time>
      </trkpt>
      <trkpt lat="42.90084438" lon="13.53540259">
        <ele>424.00000</ele>
        <time>2024-02-08T12:39:11Z</time>
      </trkpt>
      <trkpt lat="42.90091345" lon="13.53538826">
        <ele>424.00000</ele>
        <time>2024-02-08T12:39:12Z</time>
      </trkpt>
      <trkpt lat="42.90097933" lon="13.53537627">
        <ele>424.00000</ele>
        <time>2024-02-08T12:39:13Z</time>
      </trkpt>
      <trkpt lat="42.90104622" lon="13.53536889">
        <ele>424.00000</ele>
        <time>2024-02-08T12:39:14Z</time>
      </trkpt>
      <trkpt lat="42.90111947" lon="13.53537585">
        <ele>425.00000</ele>
        <time>2024-02-08T12:39:15Z</time>
      </trkpt>
      <trkpt lat="42.90118929" lon="13.53539303">
        <ele>424.00000</ele>
        <time>2024-02-08T12:39:16Z</time>
      </trkpt>
      <trkpt lat="42.90125543" lon="13.53541575">
        <ele>424.00000</ele>
        <time>2024-02-08T12:39:17Z</time>
      </trkpt>
      <trkpt lat="42.90131729" lon="13.53544450">
        <ele>424.00000</ele>
        <time>2024-02-08T12:39:18Z</time>
      </trkpt>
      <trkpt lat="42.90137755" lon="13.53548037">
        <ele>424.00000</ele>
        <time>2024-02-08T12:39:19Z</time>
      </trkpt>
      <trkpt lat="42.90143857" lon="13.53551566">
        <ele>425.00000</ele>
        <time>2024-02-08T12:39:20Z</time>
      </trkpt>
      <trkpt lat="42.90149523" lon="13.53554785">
        <ele>425.00000</ele>
        <time>2024-02-08T12:39:21Z</time>
      </trkpt>
      <trkpt lat="42.90154670" lon="13.53558414">
        <ele>426.00000</ele>
        <time>2024-02-08T12:39:22Z</time>
      </trkpt>
      <trkpt lat="42.90159221" lon="13.53562957">
        <ele>426.00000</ele>
        <time>2024-02-08T12:39:23Z</time>
      </trkpt>
      <trkpt lat="42.90163102" lon="13.53568556">
        <ele>427.00000</ele>
        <time>2024-02-08T12:39:24Z</time>
      </trkpt>
      <trkpt lat="42.90167452" lon="13.53574952">
        <ele>428.00000</ele>
        <time>2024-02-08T12:39:25Z</time>
      </trkpt>
      <trkpt lat="42.90171811" lon="13.53582202">
        <ele>428.00000</ele>
        <time>2024-02-08T12:39:26Z</time>
      </trkpt>
      <trkpt lat="42.90175717" lon="13.53590961">
        <ele>430.00000</ele>
        <time>2024-02-08T12:39:27Z</time>
      </trkpt>
      <trkpt lat="42.90179782" lon="13.53600081">
        <ele>431.00000</ele>
        <time>2024-02-08T12:39:28Z</time>
      </trkpt>
      <trkpt lat="42.90183898" lon="13.53609108">
        <ele>432.00000</ele>
        <time>2024-02-08T12:39:29Z</time>
      </trkpt>
      <trkpt lat="42.90187929" lon="13.53618429">
        <ele>433.00000</ele>
        <time>2024-02-08T12:39:30Z</time>
      </trkpt>
      <trkpt lat="42.90191701" lon="13.53627749">
        <ele>434.00000</ele>
        <time>2024-02-08T12:39:31Z</time>
      </trkpt>
      <trkpt lat="42.90195473" lon="13.53636609">
        <ele>434.00000</ele>
        <time>2024-02-08T12:39:32Z</time>
      </trkpt>
      <trkpt lat="42.90199924" lon="13.53643784">
        <ele>435.00000</ele>
        <time>2024-02-08T12:39:33Z</time>
      </trkpt>
      <trkpt lat="42.90205506" lon="13.53649827">
        <ele>434.00000</ele>
        <time>2024-02-08T12:39:34Z</time>
      </trkpt>
      <trkpt lat="42.90211558" lon="13.53655233">
        <ele>434.00000</ele>
        <time>2024-02-08T12:39:35Z</time>
      </trkpt>
      <trkpt lat="42.90217886" lon="13.53660824">
        <ele>433.00000</ele>
        <time>2024-02-08T12:39:36Z</time>
      </trkpt>
      <trkpt lat="42.90224935" lon="13.53666448">
        <ele>432.00000</ele>
        <time>2024-02-08T12:39:37Z</time>
      </trkpt>
      <trkpt lat="42.90231767" lon="13.53673523">
        <ele>431.00000</ele>
        <time>2024-02-08T12:39:38Z</time>
      </trkpt>
      <trkpt lat="42.90238698" lon="13.53679860">
        <ele>430.00000</ele>
        <time>2024-02-08T12:39:39Z</time>
      </trkpt>
      <trkpt lat="42.90245597" lon="13.53684998">
        <ele>427.00000</ele>
        <time>2024-02-08T12:39:40Z</time>
      </trkpt>
      <trkpt lat="42.90252973" lon="13.53688878">
        <ele>425.00000</ele>
        <time>2024-02-08T12:39:41Z</time>
      </trkpt>
      <trkpt lat="42.90261506" lon="13.53691142">
        <ele>423.00000</ele>
        <time>2024-02-08T12:39:42Z</time>
      </trkpt>
      <trkpt lat="42.90270022" lon="13.53692550">
        <ele>421.00000</ele>
        <time>2024-02-08T12:39:43Z</time>
      </trkpt>
      <trkpt lat="42.90278529" lon="13.53693396">
        <ele>419.00000</ele>
        <time>2024-02-08T12:39:44Z</time>
      </trkpt>
      <trkpt lat="42.90286718" lon="13.53694662">
        <ele>418.00000</ele>
        <time>2024-02-08T12:39:45Z</time>
      </trkpt>
      <trkpt lat="42.90294623" lon="13.53696791">
        <ele>418.00000</ele>
        <time>2024-02-08T12:39:46Z</time>
      </trkpt>
      <trkpt lat="42.90302409" lon="13.53699498">
        <ele>418.00000</ele>
        <time>2024-02-08T12:39:47Z</time>
      </trkpt>
      <trkpt lat="42.90309065" lon="13.53705156">
        <ele>420.00000</ele>
        <time>2024-02-08T12:39:48Z</time>
      </trkpt>
      <trkpt lat="42.90314680" lon="13.53712767">
        <ele>422.00000</ele>
        <time>2024-02-08T12:39:49Z</time>
      </trkpt>
      <trkpt lat="42.90320623" lon="13.53721124">
        <ele>425.00000</ele>
        <time>2024-02-08T12:39:50Z</time>
      </trkpt>
      <trkpt lat="42.90326901" lon="13.53727762">
        <ele>426.00000</ele>
        <time>2024-02-08T12:39:51Z</time>
      </trkpt>
      <trkpt lat="42.90333623" lon="13.53732389">
        <ele>427.00000</ele>
        <time>2024-02-08T12:39:52Z</time>
      </trkpt>
      <trkpt lat="42.90341058" lon="13.53735063">
        <ele>426.00000</ele>
        <time>2024-02-08T12:39:53Z</time>
      </trkpt>
      <trkpt lat="42.90349021" lon="13.53736781">
        <ele>424.00000</ele>
        <time>2024-02-08T12:39:54Z</time>
      </trkpt>
      <trkpt lat="42.90357043" lon="13.53738206">
        <ele>422.00000</ele>
        <time>2024-02-08T12:39:55Z</time>
      </trkpt>
      <trkpt lat="42.90364662" lon="13.53739782">
        <ele>420.00000</ele>
        <time>2024-02-08T12:39:56Z</time>
      </trkpt>
      <trkpt lat="42.90372767" lon="13.53742062">
        <ele>419.00000</ele>
        <time>2024-02-08T12:39:57Z</time>
      </trkpt>
      <trkpt lat="42.90380462" lon="13.53745574">
        <ele>418.00000</ele>
        <time>2024-02-08T12:39:58Z</time>
      </trkpt>
      <trkpt lat="42.90387544" lon="13.53750494">
        <ele>418.00000</ele>
        <time>2024-02-08T12:39:59Z</time>
      </trkpt>
      <trkpt lat="42.90394032" lon="13.53756202">
        <ele>419.00000</ele>
        <time>2024-02-08T12:40:00Z</time>
      </trkpt>
      <trkpt lat="42.90400134" lon="13.53762438">
        <ele>421.00000</ele>
        <time>2024-02-08T12:40:01Z</time>
      </trkpt>
      <trkpt lat="42.90405498" lon="13.53769320">
        <ele>422.00000</ele>
        <time>2024-02-08T12:40:02Z</time>
      </trkpt>
      <trkpt lat="42.90410511" lon="13.53776545">
        <ele>423.00000</ele>
        <time>2024-02-08T12:40:03Z</time>
      </trkpt>
      <trkpt lat="42.90415255" lon="13.53784080">
        <ele>425.00000</ele>
        <time>2024-02-08T12:40:04Z</time>
      </trkpt>
      <trkpt lat="42.90419680" lon="13.53791649">
        <ele>428.00000</ele>
        <time>2024-02-08T12:40:05Z</time>
      </trkpt>
      <trkpt lat="42.90424517" lon="13.53798748">
        <ele>430.00000</ele>
        <time>2024-02-08T12:40:06Z</time>
      </trkpt>
      <trkpt lat="42.90430988" lon="13.53806359">
        <ele>431.00000</ele>
        <time>2024-02-08T12:40:07Z</time>
      </trkpt>
      <trkpt lat="42.90435464" lon="13.53810550">
        <ele>431.00000</ele>
        <time>2024-02-08T12:40:08Z</time>
      </trkpt>
      <trkpt lat="42.90441591" lon="13.53815328">
        <ele>431.00000</ele>
        <time>2024-02-08T12:40:09Z</time>
      </trkpt>
      <trkpt lat="42.90448120" lon="13.53819804">
        <ele>432.00000</ele>
        <time>2024-02-08T12:40:10Z</time>
      </trkpt>
      <trkpt lat="42.90455019" lon="13.53823928">
        <ele>433.00000</ele>
        <time>2024-02-08T12:40:11Z</time>
      </trkpt>
      <trkpt lat="42.90462646" lon="13.53827842">
        <ele>433.00000</ele>
        <time>2024-02-08T12:40:12Z</time>
      </trkpt>
      <trkpt lat="42.90469863" lon="13.53832125">
        <ele>434.00000</ele>
        <time>2024-02-08T12:40:13Z</time>
      </trkpt>
      <trkpt lat="42.90476418" lon="13.53837238">
        <ele>435.00000</ele>
        <time>2024-02-08T12:40:14Z</time>
      </trkpt>
      <trkpt lat="42.90482629" lon="13.53842846">
        <ele>435.00000</ele>
        <time>2024-02-08T12:40:15Z</time>
      </trkpt>
      <trkpt lat="42.90488781" lon="13.53848285">
        <ele>436.00000</ele>
        <time>2024-02-08T12:40:16Z</time>
      </trkpt>
      <trkpt lat="42.90494699" lon="13.53853189">
        <ele>437.00000</ele>
        <time>2024-02-08T12:40:17Z</time>
      </trkpt>
      <trkpt lat="42.90500625" lon="13.53856307">
        <ele>436.00000</ele>
        <time>2024-02-08T12:40:18Z</time>
      </trkpt>
      <trkpt lat="42.90507204" lon="13.53857229">
        <ele>434.00000</ele>
        <time>2024-02-08T12:40:19Z</time>
      </trkpt>
      <trkpt lat="42.90515284" lon="13.53855720">
        <ele>431.00000</ele>
        <time>2024-02-08T12:40:20Z</time>
      </trkpt>
      <trkpt lat="42.90523356" lon="13.53851873">
        <ele>428.00000</ele>
        <time>2024-02-08T12:40:21Z</time>
      </trkpt>
      <trkpt lat="42.90530095" lon="13.53845804">
        <ele>427.00000</ele>
        <time>2024-02-08T12:40:22Z</time>
      </trkpt>
      <trkpt lat="42.90535083" lon="13.53838982">
        <ele>428.00000</ele>
        <time>2024-02-08T12:40:23Z</time>
      </trkpt>
      <trkpt lat="42.90538938" lon="13.53831471">
        <ele>428.00000</ele>
        <time>2024-02-08T12:40:24Z</time>
      </trkpt>
      <trkpt lat="42.90542517" lon="13.53823693">
        <ele>429.00000</ele>
        <time>2024-02-08T12:40:25Z</time>
      </trkpt>
      <trkpt lat="42.90546230" lon="13.53815345">
        <ele>430.00000</ele>
        <time>2024-02-08T12:40:26Z</time>
      </trkpt>
      <trkpt lat="42.90549105" lon="13.53807206">
        <ele>431.00000</ele>
        <time>2024-02-08T12:40:27Z</time>
      </trkpt>
      <trkpt lat="42.90551687" lon="13.53799570">
        <ele>431.00000</ele>
        <time>2024-02-08T12:40:28Z</time>
      </trkpt>
      <trkpt lat="42.90553355" lon="13.53792244">
        <ele>432.00000</ele>
        <time>2024-02-08T12:40:29Z</time>
      </trkpt>
      <trkpt lat="42.90553062" lon="13.53784600">
        <ele>432.00000</ele>
        <time>2024-02-08T12:40:30Z</time>
      </trkpt>
      <trkpt lat="42.90550715" lon="13.53777509">
        <ele>431.00000</ele>
        <time>2024-02-08T12:40:31Z</time>
      </trkpt>
      <trkpt lat="42.90546465" lon="13.53771759">
        <ele>432.00000</ele>
        <time>2024-02-08T12:40:32Z</time>
      </trkpt>
      <trkpt lat="42.90541746" lon="13.53767232">
        <ele>431.00000</ele>
        <time>2024-02-08T12:40:33Z</time>
      </trkpt>
      <trkpt lat="42.90537622" lon="13.53762865">
        <ele>431.00000</ele>
        <time>2024-02-08T12:40:34Z</time>
      </trkpt>
      <trkpt lat="42.90533490" lon="13.53759563">
        <ele>431.00000</ele>
        <time>2024-02-08T12:40:35Z</time>
      </trkpt>
      <trkpt lat="42.90529115" lon="13.53757082">
        <ele>431.00000</ele>
        <time>2024-02-08T12:40:36Z</time>
      </trkpt>
      <trkpt lat="42.90524278" lon="13.53754391">
        <ele>431.00000</ele>
        <time>2024-02-08T12:40:37Z</time>
      </trkpt>
      <trkpt lat="42.90519425" lon="13.53752581">
        <ele>431.00000</ele>
        <time>2024-02-08T12:40:38Z</time>
      </trkpt>
      <trkpt lat="42.90515000" lon="13.53750854">
        <ele>431.00000</ele>
        <time>2024-02-08T12:40:39Z</time>
      </trkpt>
      <trkpt lat="42.90511018" lon="13.53748675">
        <ele>431.00000</ele>
        <time>2024-02-08T12:40:40Z</time>
      </trkpt>
      <trkpt lat="42.90506903" lon="13.53745884">
        <ele>431.00000</ele>
        <time>2024-02-08T12:40:41Z</time>
      </trkpt>
      <trkpt lat="42.90503961" lon="13.53740394">
        <ele>433.00000</ele>
        <time>2024-02-08T12:40:42Z</time>
      </trkpt>
      <trkpt lat="42.90500968" lon="13.53734468">
        <ele>434.00000</ele>
        <time>2024-02-08T12:40:43Z</time>
      </trkpt>
      <trkpt lat="42.90498554" lon="13.53727913">
        <ele>435.00000</ele>
        <time>2024-02-08T12:40:44Z</time>
      </trkpt>
      <trkpt lat="42.90495813" lon="13.53722356">
        <ele>435.00000</ele>
        <time>2024-02-08T12:40:45Z</time>
      </trkpt>
      <trkpt lat="42.90492771" lon="13.53717444">
        <ele>436.00000</ele>
        <time>2024-02-08T12:40:46Z</time>
      </trkpt>
      <trkpt lat="42.90489560" lon="13.53712574">
        <ele>436.00000</ele>
        <time>2024-02-08T12:40:47Z</time>
      </trkpt>
      <trkpt lat="42.90487733" lon="13.53706782">
        <ele>437.00000</ele>
        <time>2024-02-08T12:40:48Z</time>
      </trkpt>
      <trkpt lat="42.90484749" lon="13.53701879">
        <ele>437.00000</ele>
        <time>2024-02-08T12:40:49Z</time>
      </trkpt>
      <trkpt lat="42.90482059" lon="13.53696892">
        <ele>436.00000</ele>
        <time>2024-02-08T12:40:50Z</time>
      </trkpt>
      <trkpt lat="42.90479259" lon="13.53691963">
        <ele>436.00000</ele>
        <time>2024-02-08T12:40:51Z</time>
      </trkpt>
      <trkpt lat="42.90475965" lon="13.53686741">
        <ele>435.00000</ele>
        <time>2024-02-08T12:40:52Z</time>
      </trkpt>
      <trkpt lat="42.90473534" lon="13.53682257">
        <ele>435.00000</ele>
        <time>2024-02-08T12:40:53Z</time>
      </trkpt>
      <trkpt lat="42.90471439" lon="13.53678309">
        <ele>435.00000</ele>
        <time>2024-02-08T12:40:54Z</time>
      </trkpt>
      <trkpt lat="42.90469092" lon="13.53673414">
        <ele>434.00000</ele>
        <time>2024-02-08T12:40:55Z</time>
      </trkpt>
      <trkpt lat="42.90466619" lon="13.53668636">
        <ele>434.00000</ele>
        <time>2024-02-08T12:40:56Z</time>
      </trkpt>
      <trkpt lat="42.90464172" lon="13.53663766">
        <ele>434.00000</ele>
        <time>2024-02-08T12:40:57Z</time>
      </trkpt>
      <trkpt lat="42.90462043" lon="13.53659039">
        <ele>433.00000</ele>
        <time>2024-02-08T12:40:58Z</time>
      </trkpt>
      <trkpt lat="42.90460400" lon="13.53654060">
        <ele>433.00000</ele>
        <time>2024-02-08T12:40:59Z</time>
      </trkpt>
      <trkpt lat="42.90459226" lon="13.53648637">
        <ele>434.00000</ele>
        <time>2024-02-08T12:41:00Z</time>
      </trkpt>
      <trkpt lat="42.90458531" lon="13.53642971">
        <ele>434.00000</ele>
        <time>2024-02-08T12:41:01Z</time>
      </trkpt>
      <trkpt lat="42.90459419" lon="13.53636634">
        <ele>436.00000</ele>
        <time>2024-02-08T12:41:02Z</time>
      </trkpt>
      <trkpt lat="42.90460987" lon="13.53630599">
        <ele>439.00000</ele>
        <time>2024-02-08T12:41:03Z</time>
      </trkpt>
      <trkpt lat="42.90462344" lon="13.53624899">
        <ele>441.00000</ele>
        <time>2024-02-08T12:41:04Z</time>
      </trkpt>
      <trkpt lat="42.90463560" lon="13.53619158">
        <ele>444.00000</ele>
        <time>2024-02-08T12:41:05Z</time>
      </trkpt>
      <trkpt lat="42.90464918" lon="13.53613383">
        <ele>446.00000</ele>
        <time>2024-02-08T12:41:06Z</time>
      </trkpt>
      <trkpt lat="42.90466074" lon="13.53607373">
        <ele>448.00000</ele>
        <time>2024-02-08T12:41:07Z</time>
      </trkpt>
      <trkpt lat="42.90466577" lon="13.53601145">
        <ele>450.00000</ele>
        <time>2024-02-08T12:41:08Z</time>
      </trkpt>
      <trkpt lat="42.90465890" lon="13.53594959">
        <ele>452.00000</ele>
        <time>2024-02-08T12:41:09Z</time>
      </trkpt>
      <trkpt lat="42.90464088" lon="13.53588430">
        <ele>453.00000</ele>
        <time>2024-02-08T12:41:10Z</time>
      </trkpt>
      <trkpt lat="42.90461506" lon="13.53582336">
        <ele>454.00000</ele>
        <time>2024-02-08T12:41:11Z</time>
      </trkpt>
      <trkpt lat="42.90458589" lon="13.53577164">
        <ele>455.00000</ele>
        <time>2024-02-08T12:41:12Z</time>
      </trkpt>
      <trkpt lat="42.90455605" lon="13.53573124">
        <ele>455.00000</ele>
        <time>2024-02-08T12:41:13Z</time>
      </trkpt>
      <trkpt lat="42.90452596" lon="13.53570065">
        <ele>455.00000</ele>
        <time>2024-02-08T12:41:14Z</time>
      </trkpt>
      <trkpt lat="42.90448690" lon="13.53567886">
        <ele>455.00000</ele>
        <time>2024-02-08T12:41:15Z</time>
      </trkpt>
      <trkpt lat="42.90444239" lon="13.53566218">
        <ele>455.00000</ele>
        <time>2024-02-08T12:41:16Z</time>
      </trkpt>
      <trkpt lat="42.90440049" lon="13.53564164">
        <ele>455.00000</ele>
        <time>2024-02-08T12:41:17Z</time>
      </trkpt>
      <trkpt lat="42.90435983" lon="13.53561775">
        <ele>455.00000</ele>
        <time>2024-02-08T12:41:18Z</time>
      </trkpt>
      <trkpt lat="42.90431801" lon="13.53560049">
        <ele>455.00000</ele>
        <time>2024-02-08T12:41:19Z</time>
      </trkpt>
      <trkpt lat="42.90426579" lon="13.53559705">
        <ele>454.00000</ele>
        <time>2024-02-08T12:41:20Z</time>
      </trkpt>
      <trkpt lat="42.90422405" lon="13.53560736">
        <ele>453.00000</ele>
        <time>2024-02-08T12:41:21Z</time>
      </trkpt>
      <trkpt lat="42.90417191" lon="13.53562446">
        <ele>451.00000</ele>
        <time>2024-02-08T12:41:22Z</time>
      </trkpt>
      <trkpt lat="42.90412589" lon="13.53563435">
        <ele>449.00000</ele>
        <time>2024-02-08T12:41:23Z</time>
      </trkpt>
      <trkpt lat="42.90408432" lon="13.53564030">
        <ele>448.00000</ele>
        <time>2024-02-08T12:41:24Z</time>
      </trkpt>
      <trkpt lat="42.90404199" lon="13.53564742">
        <ele>446.00000</ele>
        <time>2024-02-08T12:41:25Z</time>
      </trkpt>
      <trkpt lat="42.90400226" lon="13.53565388">
        <ele>445.00000</ele>
        <time>2024-02-08T12:41:26Z</time>
      </trkpt>
      <trkpt lat="42.90396278" lon="13.53565790">
        <ele>443.00000</ele>
        <time>2024-02-08T12:41:27Z</time>
      </trkpt>
      <trkpt lat="42.90391903" lon="13.53565530">
        <ele>442.00000</ele>
        <time>2024-02-08T12:41:28Z</time>
      </trkpt>
      <trkpt lat="42.90387913" lon="13.53564600">
        <ele>441.00000</ele>
        <time>2024-02-08T12:41:29Z</time>
      </trkpt>
      <trkpt lat="42.90384057" lon="13.53562789">
        <ele>441.00000</ele>
        <time>2024-02-08T12:41:30Z</time>
      </trkpt>
      <trkpt lat="42.90379766" lon="13.53562144">
        <ele>440.00000</ele>
        <time>2024-02-08T12:41:31Z</time>
      </trkpt>
      <trkpt lat="42.90375986" lon="13.53559378">
        <ele>440.00000</ele>
        <time>2024-02-08T12:41:32Z</time>
      </trkpt>
      <trkpt lat="42.90372826" lon="13.53555045">
        <ele>441.00000</ele>
        <time>2024-02-08T12:41:33Z</time>
      </trkpt>
      <trkpt lat="42.90369163" lon="13.53549663">
        <ele>441.00000</ele>
        <time>2024-02-08T12:41:34Z</time>
      </trkpt>
      <trkpt lat="42.90367042" lon="13.53544970">
        <ele>442.00000</ele>
        <time>2024-02-08T12:41:35Z</time>
      </trkpt>
      <trkpt lat="42.90364670" lon="13.53539018">
        <ele>443.00000</ele>
        <time>2024-02-08T12:41:36Z</time>
      </trkpt>
      <trkpt lat="42.90362633" lon="13.53533109">
        <ele>444.00000</ele>
        <time>2024-02-08T12:41:37Z</time>
      </trkpt>
      <trkpt lat="42.90360580" lon="13.53527368">
        <ele>445.00000</ele>
        <time>2024-02-08T12:41:38Z</time>
      </trkpt>
      <trkpt lat="42.90358124" lon="13.53520687">
        <ele>446.00000</ele>
        <time>2024-02-08T12:41:39Z</time>
      </trkpt>
      <trkpt lat="42.90356917" lon="13.53516295">
        <ele>446.00000</ele>
        <time>2024-02-08T12:41:40Z</time>
      </trkpt>
      <trkpt lat="42.90355257" lon="13.53511006">
        <ele>447.00000</ele>
        <time>2024-02-08T12:41:41Z</time>
      </trkpt>
      <trkpt lat="42.90353547" lon="13.53505625">
        <ele>448.00000</ele>
        <time>2024-02-08T12:41:42Z</time>
      </trkpt>
      <trkpt lat="42.90351795" lon="13.53499934">
        <ele>449.00000</ele>
        <time>2024-02-08T12:41:43Z</time>
      </trkpt>
      <trkpt lat="42.90350178" lon="13.53494008">
        <ele>449.00000</ele>
        <time>2024-02-08T12:41:44Z</time>
      </trkpt>
      <trkpt lat="42.90348837" lon="13.53487956">
        <ele>449.00000</ele>
        <time>2024-02-08T12:41:45Z</time>
      </trkpt>
      <trkpt lat="42.90347621" lon="13.53480848">
        <ele>450.00000</ele>
        <time>2024-02-08T12:41:46Z</time>
      </trkpt>
      <trkpt lat="42.90347512" lon="13.53475894">
        <ele>451.00000</ele>
        <time>2024-02-08T12:41:47Z</time>
      </trkpt>
      <trkpt lat="42.90347605" lon="13.53469616">
        <ele>453.00000</ele>
        <time>2024-02-08T12:41:48Z</time>
      </trkpt>
      <trkpt lat="42.90347646" lon="13.53463246">
        <ele>454.00000</ele>
        <time>2024-02-08T12:41:49Z</time>
      </trkpt>
      <trkpt lat="42.90347613" lon="13.53456716">
        <ele>455.00000</ele>
        <time>2024-02-08T12:41:50Z</time>
      </trkpt>
      <trkpt lat="42.90347152" lon="13.53450262">
        <ele>456.00000</ele>
        <time>2024-02-08T12:41:51Z</time>
      </trkpt>
      <trkpt lat="42.90346548" lon="13.53442442">
        <ele>457.00000</ele>
        <time>2024-02-08T12:41:52Z</time>
      </trkpt>
      <trkpt lat="42.90345744" lon="13.53437321">
        <ele>457.00000</ele>
        <time>2024-02-08T12:41:53Z</time>
      </trkpt>
      <trkpt lat="42.90344813" lon="13.53430808">
        <ele>458.00000</ele>
        <time>2024-02-08T12:41:54Z</time>
      </trkpt>
      <trkpt lat="42.90344260" lon="13.53424379">
        <ele>458.00000</ele>
        <time>2024-02-08T12:41:55Z</time>
      </trkpt>
      <trkpt lat="42.90343397" lon="13.53417992">
        <ele>458.00000</ele>
        <time>2024-02-08T12:41:56Z</time>
      </trkpt>
      <trkpt lat="42.90342299" lon="13.53411613">
        <ele>459.00000</ele>
        <time>2024-02-08T12:41:57Z</time>
      </trkpt>
      <trkpt lat="42.90340807" lon="13.53405344">
        <ele>459.00000</ele>
        <time>2024-02-08T12:41:58Z</time>
      </trkpt>
      <trkpt lat="42.90339281" lon="13.53399200">
        <ele>459.00000</ele>
        <time>2024-02-08T12:41:59Z</time>
      </trkpt>
      <trkpt lat="42.90337312" lon="13.53391975">
        <ele>459.00000</ele>
        <time>2024-02-08T12:42:00Z</time>
      </trkpt>
      <trkpt lat="42.90335903" lon="13.53387029">
        <ele>459.00000</ele>
        <time>2024-02-08T12:42:01Z</time>
      </trkpt>
      <trkpt lat="42.90334445" lon="13.53380860">
        <ele>458.00000</ele>
        <time>2024-02-08T12:42:02Z</time>
      </trkpt>
      <trkpt lat="42.90332735" lon="13.53374993">
        <ele>458.00000</ele>
        <time>2024-02-08T12:42:03Z</time>
      </trkpt>
      <trkpt lat="42.90330857" lon="13.53369520">
        <ele>458.00000</ele>
        <time>2024-02-08T12:42:04Z</time>
      </trkpt>
      <trkpt lat="42.90328611" lon="13.53364440">
        <ele>457.00000</ele>
        <time>2024-02-08T12:42:05Z</time>
      </trkpt>
      <trkpt lat="42.90325786" lon="13.53359193">
        <ele>456.00000</ele>
        <time>2024-02-08T12:42:06Z</time>
      </trkpt>
      <trkpt lat="42.90322476" lon="13.53352957">
        <ele>454.00000</ele>
        <time>2024-02-08T12:42:07Z</time>
      </trkpt>
      <trkpt lat="42.90320263" lon="13.53348925">
        <ele>453.00000</ele>
        <time>2024-02-08T12:42:08Z</time>
      </trkpt>
      <trkpt lat="42.90317597" lon="13.53344156">
        <ele>451.00000</ele>
        <time>2024-02-08T12:42:09Z</time>
      </trkpt>
      <trkpt lat="42.90314991" lon="13.53339395">
        <ele>450.00000</ele>
        <time>2024-02-08T12:42:10Z</time>
      </trkpt>
      <trkpt lat="42.90312820" lon="13.53334517">
        <ele>449.00000</ele>
        <time>2024-02-08T12:42:11Z</time>
      </trkpt>
      <trkpt lat="42.90311479" lon="13.53329001">
        <ele>448.00000</ele>
        <time>2024-02-08T12:42:12Z</time>
      </trkpt>
      <trkpt lat="42.90311738" lon="13.53323344">
        <ele>448.00000</ele>
        <time>2024-02-08T12:42:13Z</time>
      </trkpt>
      <trkpt lat="42.90313147" lon="13.53317644">
        <ele>448.00000</ele>
        <time>2024-02-08T12:42:14Z</time>
      </trkpt>
      <trkpt lat="42.90315435" lon="13.53312523">
        <ele>449.00000</ele>
        <time>2024-02-08T12:42:15Z</time>
      </trkpt>
      <trkpt lat="42.90318419" lon="13.53307686">
        <ele>450.00000</ele>
        <time>2024-02-08T12:42:16Z</time>
      </trkpt>
      <trkpt lat="42.90321755" lon="13.53303403">
        <ele>451.00000</ele>
        <time>2024-02-08T12:42:17Z</time>
      </trkpt>
      <trkpt lat="42.90325585" lon="13.53299816">
        <ele>452.00000</ele>
        <time>2024-02-08T12:42:18Z</time>
      </trkpt>
      <trkpt lat="42.90329542" lon="13.53296832">
        <ele>453.00000</ele>
        <time>2024-02-08T12:42:19Z</time>
      </trkpt>
      <trkpt lat="42.90333573" lon="13.53293747">
        <ele>454.00000</ele>
        <time>2024-02-08T12:42:20Z</time>
      </trkpt>
      <trkpt lat="42.90337504" lon="13.53290881">
        <ele>456.00000</ele>
        <time>2024-02-08T12:42:21Z</time>
      </trkpt>
      <trkpt lat="42.90341310" lon="13.53288089">
        <ele>457.00000</ele>
        <time>2024-02-08T12:42:22Z</time>
      </trkpt>
      <trkpt lat="42.90345132" lon="13.53285524">
        <ele>458.00000</ele>
        <time>2024-02-08T12:42:23Z</time>
      </trkpt>
      <trkpt lat="42.90349013" lon="13.53282851">
        <ele>460.00000</ele>
        <time>2024-02-08T12:42:24Z</time>
      </trkpt>
      <trkpt lat="42.90352885" lon="13.53280076">
        <ele>461.00000</ele>
        <time>2024-02-08T12:42:25Z</time>
      </trkpt>
      <trkpt lat="42.90357026" lon="13.53277201">
        <ele>462.00000</ele>
        <time>2024-02-08T12:42:26Z</time>
      </trkpt>
      <trkpt lat="42.90361108" lon="13.53274092">
        <ele>463.00000</ele>
        <time>2024-02-08T12:42:27Z</time>
      </trkpt>
      <trkpt lat="42.90365005" lon="13.53270655">
        <ele>464.00000</ele>
        <time>2024-02-08T12:42:28Z</time>
      </trkpt>
      <trkpt lat="42.90368123" lon="13.53266959">
        <ele>465.00000</ele>
        <time>2024-02-08T12:42:29Z</time>
      </trkpt>
      <trkpt lat="42.90371350" lon="13.53263187">
        <ele>466.00000</ele>
        <time>2024-02-08T12:42:30Z</time>
      </trkpt>
      <trkpt lat="42.90374184" lon="13.53258761">
        <ele>467.00000</ele>
        <time>2024-02-08T12:42:31Z</time>
      </trkpt>
      <trkpt lat="42.90377008" lon="13.53254084">
        <ele>468.00000</ele>
        <time>2024-02-08T12:42:32Z</time>
      </trkpt>
      <trkpt lat="42.90379757" lon="13.53249331">
        <ele>468.00000</ele>
        <time>2024-02-08T12:42:33Z</time>
      </trkpt>
      <trkpt lat="42.90382498" lon="13.53244512">
        <ele>469.00000</ele>
        <time>2024-02-08T12:42:34Z</time>
      </trkpt>
      <trkpt lat="42.90384921" lon="13.53239650">
        <ele>469.00000</ele>
        <time>2024-02-08T12:42:35Z</time>
      </trkpt>
      <trkpt lat="42.90387033" lon="13.53234705">
        <ele>470.00000</ele>
        <time>2024-02-08T12:42:36Z</time>
      </trkpt>
      <trkpt lat="42.90389045" lon="13.53229483">
        <ele>470.00000</ele>
        <time>2024-02-08T12:42:37Z</time>
      </trkpt>
      <trkpt lat="42.90390939" lon="13.53224026">
        <ele>471.00000</ele>
        <time>2024-02-08T12:42:38Z</time>
      </trkpt>
      <trkpt lat="42.90392473" lon="13.53218528">
        <ele>472.00000</ele>
        <time>2024-02-08T12:42:39Z</time>
      </trkpt>
      <trkpt lat="42.90393764" lon="13.53212753">
        <ele>473.00000</ele>
        <time>2024-02-08T12:42:40Z</time>
      </trkpt>
      <trkpt lat="42.90395172" lon="13.53206743">
        <ele>474.00000</ele>
        <time>2024-02-08T12:42:41Z</time>
      </trkpt>
      <trkpt lat="42.90396069" lon="13.53199266">
        <ele>474.00000</ele>
        <time>2024-02-08T12:42:42Z</time>
      </trkpt>
      <trkpt lat="42.90396756" lon="13.53193030">
        <ele>474.00000</ele>
        <time>2024-02-08T12:42:43Z</time>
      </trkpt>
      <trkpt lat="42.90397192" lon="13.53188144">
        <ele>474.00000</ele>
        <time>2024-02-08T12:42:44Z</time>
      </trkpt>
      <trkpt lat="42.90397292" lon="13.53182000">
        <ele>474.00000</ele>
        <time>2024-02-08T12:42:45Z</time>
      </trkpt>
      <trkpt lat="42.90397116" lon="13.53176023">
        <ele>474.00000</ele>
        <time>2024-02-08T12:42:46Z</time>
      </trkpt>
      <trkpt lat="42.90397167" lon="13.53169770">
        <ele>474.00000</ele>
        <time>2024-02-08T12:42:47Z</time>
      </trkpt>
      <trkpt lat="42.90397217" lon="13.53163677">
        <ele>474.00000</ele>
        <time>2024-02-08T12:42:48Z</time>
      </trkpt>
      <trkpt lat="42.90397183" lon="13.53156443">
        <ele>475.00000</ele>
        <time>2024-02-08T12:42:49Z</time>
      </trkpt>
      <trkpt lat="42.90396798" lon="13.53151867">
        <ele>476.00000</ele>
        <time>2024-02-08T12:42:50Z</time>
      </trkpt>
      <trkpt lat="42.90396161" lon="13.53146159">
        <ele>476.00000</ele>
        <time>2024-02-08T12:42:51Z</time>
      </trkpt>
      <trkpt lat="42.90395532" lon="13.53140258">
        <ele>476.00000</ele>
        <time>2024-02-08T12:42:52Z</time>
      </trkpt>
      <trkpt lat="42.90394677" lon="13.53133167">
        <ele>476.00000</ele>
        <time>2024-02-08T12:42:53Z</time>
      </trkpt>
      <trkpt lat="42.90393789" lon="13.53127266">
        <ele>476.00000</ele>
        <time>2024-02-08T12:42:54Z</time>
      </trkpt>
      <trkpt lat="42.90392892" lon="13.53121264">
        <ele>476.00000</ele>
        <time>2024-02-08T12:42:55Z</time>
      </trkpt>
      <trkpt lat="42.90392464" lon="13.53115196">
        <ele>477.00000</ele>
        <time>2024-02-08T12:42:56Z</time>
      </trkpt>
      <trkpt lat="42.90391962" lon="13.53109102">
        <ele>478.00000</ele>
        <time>2024-02-08T12:42:57Z</time>
      </trkpt>
      <trkpt lat="42.90391308" lon="13.53102908">
        <ele>479.00000</ele>
        <time>2024-02-08T12:42:58Z</time>
      </trkpt>
      <trkpt lat="42.90390595" lon="13.53096739">
        <ele>480.00000</ele>
        <time>2024-02-08T12:42:59Z</time>
      </trkpt>
      <trkpt lat="42.90389724" lon="13.53090486">
        <ele>481.00000</ele>
        <time>2024-02-08T12:43:00Z</time>
      </trkpt>
      <trkpt lat="42.90388483" lon="13.53084350">
        <ele>482.00000</ele>
        <time>2024-02-08T12:43:01Z</time>
      </trkpt>
      <trkpt lat="42.90387058" lon="13.53078156">
        <ele>482.00000</ele>
        <time>2024-02-08T12:43:02Z</time>
      </trkpt>
      <trkpt lat="42.90385248" lon="13.53071979">
        <ele>482.00000</ele>
        <time>2024-02-08T12:43:03Z</time>
      </trkpt>
      <trkpt lat="42.90383177" lon="13.53066170">
        <ele>482.00000</ele>
        <time>2024-02-08T12:43:04Z</time>
      </trkpt>
      <trkpt lat="42.90381434" lon="13.53061761">
        <ele>482.00000</ele>
        <time>2024-02-08T12:43:05Z</time>
      </trkpt>
      <trkpt lat="42.90378768" lon="13.53055726">
        <ele>482.00000</ele>
        <time>2024-02-08T12:43:06Z</time>
      </trkpt>
      <trkpt lat="42.90376438" lon="13.53051183">
        <ele>482.00000</ele>
        <time>2024-02-08T12:43:07Z</time>
      </trkpt>
      <trkpt lat="42.90374251" lon="13.53046271">
        <ele>482.00000</ele>
        <time>2024-02-08T12:43:08Z</time>
      </trkpt>
      <trkpt lat="42.90372524" lon="13.53041972">
        <ele>482.00000</ele>
        <time>2024-02-08T12:43:09Z</time>
      </trkpt>
      <trkpt lat="42.90369926" lon="13.53036515">
        <ele>482.00000</ele>
        <time>2024-02-08T12:43:10Z</time>
      </trkpt>
      <trkpt lat="42.90366799" lon="13.53031150">
        <ele>481.00000</ele>
        <time>2024-02-08T12:43:11Z</time>
      </trkpt>
      <trkpt lat="42.90363069" lon="13.53026985">
        <ele>481.00000</ele>
        <time>2024-02-08T12:43:12Z</time>
      </trkpt>
      <trkpt lat="42.90358727" lon="13.53023707">
        <ele>480.00000</ele>
        <time>2024-02-08T12:43:13Z</time>
      </trkpt>
      <trkpt lat="42.90353363" lon="13.53020472">
        <ele>478.00000</ele>
        <time>2024-02-08T12:43:14Z</time>
      </trkpt>
      <trkpt lat="42.90349943" lon="13.53018209">
        <ele>478.00000</ele>
        <time>2024-02-08T12:43:15Z</time>
      </trkpt>
      <trkpt lat="42.90346113" lon="13.53015091">
        <ele>477.00000</ele>
        <time>2024-02-08T12:43:16Z</time>
      </trkpt>
      <trkpt lat="42.90342617" lon="13.53011294">
        <ele>476.00000</ele>
        <time>2024-02-08T12:43:17Z</time>
      </trkpt>
      <trkpt lat="42.90338669" lon="13.53007505">
        <ele>476.00000</ele>
        <time>2024-02-08T12:43:18Z</time>
      </trkpt>
      <trkpt lat="42.90334990" lon="13.53003976">
        <ele>475.00000</ele>
        <time>2024-02-08T12:43:19Z</time>
      </trkpt>
      <trkpt lat="42.90331318" lon="13.53000875">
        <ele>474.00000</ele>
        <time>2024-02-08T12:43:20Z</time>
      </trkpt>
      <trkpt lat="42.90327991" lon="13.52996625">
        <ele>473.00000</ele>
        <time>2024-02-08T12:43:21Z</time>
      </trkpt>
      <trkpt lat="42.90325770" lon="13.52990766">
        <ele>473.00000</ele>
        <time>2024-02-08T12:43:22Z</time>
      </trkpt>
      <trkpt lat="42.90323481" lon="13.52983835">
        <ele>472.00000</ele>
        <time>2024-02-08T12:43:23Z</time>
      </trkpt>
      <trkpt lat="42.90322534" lon="13.52977490">
        <ele>472.00000</ele>
        <time>2024-02-08T12:43:24Z</time>
      </trkpt>
      <trkpt lat="42.90322710" lon="13.52971128">
        <ele>472.00000</ele>
        <time>2024-02-08T12:43:25Z</time>
      </trkpt>
      <trkpt lat="42.90324118" lon="13.52966090">
        <ele>473.00000</ele>
        <time>2024-02-08T12:43:26Z</time>
      </trkpt>
      <trkpt lat="42.90325937" lon="13.52959251">
        <ele>473.00000</ele>
        <time>2024-02-08T12:43:27Z</time>
      </trkpt>
      <trkpt lat="42.90327589" lon="13.52952403">
        <ele>474.00000</ele>
        <time>2024-02-08T12:43:28Z</time>
      </trkpt>
      <trkpt lat="42.90329206" lon="13.52945747">
        <ele>474.00000</ele>
        <time>2024-02-08T12:43:29Z</time>
      </trkpt>
      <trkpt lat="42.90330656" lon="13.52938916">
        <ele>475.00000</ele>
        <time>2024-02-08T12:43:30Z</time>
      </trkpt>
      <trkpt lat="42.90332039" lon="13.52932127">
        <ele>475.00000</ele>
        <time>2024-02-08T12:43:31Z</time>
      </trkpt>
      <trkpt lat="42.90333162" lon="13.52925287">
        <ele>476.00000</ele>
        <time>2024-02-08T12:43:32Z</time>
      </trkpt>
      <trkpt lat="42.90335266" lon="13.52917341">
        <ele>476.00000</ele>
        <time>2024-02-08T12:43:33Z</time>
      </trkpt>
      <trkpt lat="42.90336633" lon="13.52911993">
        <ele>477.00000</ele>
        <time>2024-02-08T12:43:34Z</time>
      </trkpt>
      <trkpt lat="42.90338627" lon="13.52905313">
        <ele>478.00000</ele>
        <time>2024-02-08T12:43:35Z</time>
      </trkpt>
      <trkpt lat="42.90340388" lon="13.52898281">
        <ele>479.00000</ele>
        <time>2024-02-08T12:43:36Z</time>
      </trkpt>
      <trkpt lat="42.90341888" lon="13.52891600">
        <ele>480.00000</ele>
        <time>2024-02-08T12:43:37Z</time>
      </trkpt>
      <trkpt lat="42.90344000" lon="13.52885205">
        <ele>480.00000</ele>
        <time>2024-02-08T12:43:38Z</time>
      </trkpt>
      <trkpt lat="42.90347361" lon="13.52879589">
        <ele>480.00000</ele>
        <time>2024-02-08T12:43:39Z</time>
      </trkpt>
      <trkpt lat="42.90351728" lon="13.52875339">
        <ele>481.00000</ele>
        <time>2024-02-08T12:43:40Z</time>
      </trkpt>
      <trkpt lat="42.90356347" lon="13.52872523">
        <ele>481.00000</ele>
        <time>2024-02-08T12:43:41Z</time>
      </trkpt>
      <trkpt lat="42.90360789" lon="13.52870612">
        <ele>482.00000</ele>
        <time>2024-02-08T12:43:42Z</time>
      </trkpt>
      <trkpt lat="42.90365257" lon="13.52869137">
        <ele>482.00000</ele>
        <time>2024-02-08T12:43:43Z</time>
      </trkpt>
      <trkpt lat="42.90369305" lon="13.52868273">
        <ele>482.00000</ele>
        <time>2024-02-08T12:43:44Z</time>
      </trkpt>
      <trkpt lat="42.90373119" lon="13.52868248">
        <ele>482.00000</ele>
        <time>2024-02-08T12:43:45Z</time>
      </trkpt>
      <trkpt lat="42.90376698" lon="13.52868701">
        <ele>482.00000</ele>
        <time>2024-02-08T12:43:46Z</time>
      </trkpt>
      <trkpt lat="42.90380386" lon="13.52868885">
        <ele>483.00000</ele>
        <time>2024-02-08T12:43:47Z</time>
      </trkpt>
      <trkpt lat="42.90384644" lon="13.52868684">
        <ele>483.00000</ele>
        <time>2024-02-08T12:43:48Z</time>
      </trkpt>
      <trkpt lat="42.90387997" lon="13.52868734">
        <ele>483.00000</ele>
        <time>2024-02-08T12:43:49Z</time>
      </trkpt>
      <trkpt lat="42.90391836" lon="13.52869539">
        <ele>483.00000</ele>
        <time>2024-02-08T12:43:50Z</time>
      </trkpt>
      <trkpt lat="42.90396245" lon="13.52870872">
        <ele>482.00000</ele>
        <time>2024-02-08T12:43:51Z</time>
      </trkpt>
      <trkpt lat="42.90399321" lon="13.52872506">
        <ele>482.00000</ele>
        <time>2024-02-08T12:43:52Z</time>
      </trkpt>
      <trkpt lat="42.90402581" lon="13.52874141">
        <ele>482.00000</ele>
        <time>2024-02-08T12:43:53Z</time>
      </trkpt>
      <trkpt lat="42.90406043" lon="13.52876496">
        <ele>483.00000</ele>
        <time>2024-02-08T12:43:54Z</time>
      </trkpt>
      <trkpt lat="42.90409614" lon="13.52879136">
        <ele>483.00000</ele>
        <time>2024-02-08T12:43:55Z</time>
      </trkpt>
      <trkpt lat="42.90413260" lon="13.52881609">
        <ele>483.00000</ele>
        <time>2024-02-08T12:43:56Z</time>
      </trkpt>
      <trkpt lat="42.90416546" lon="13.52884199">
        <ele>484.00000</ele>
        <time>2024-02-08T12:43:57Z</time>
      </trkpt>
      <trkpt lat="42.90419605" lon="13.52887208">
        <ele>485.00000</ele>
        <time>2024-02-08T12:43:58Z</time>
      </trkpt>
      <trkpt lat="42.90422094" lon="13.52891257">
        <ele>485.00000</ele>
        <time>2024-02-08T12:43:59Z</time>
      </trkpt>
      <trkpt lat="42.90424215" lon="13.52896085">
        <ele>486.00000</ele>
        <time>2024-02-08T12:44:00Z</time>
      </trkpt>
      <trkpt lat="42.90425171" lon="13.52901256">
        <ele>487.00000</ele>
        <time>2024-02-08T12:44:01Z</time>
      </trkpt>
      <trkpt lat="42.90424894" lon="13.52906822">
        <ele>488.00000</ele>
        <time>2024-02-08T12:44:02Z</time>
      </trkpt>
      <trkpt lat="42.90423670" lon="13.52911784">
        <ele>489.00000</ele>
        <time>2024-02-08T12:44:03Z</time>
      </trkpt>
      <trkpt lat="42.90421835" lon="13.52916025">
        <ele>490.00000</ele>
        <time>2024-02-08T12:44:04Z</time>
      </trkpt>
      <trkpt lat="42.90419974" lon="13.52920182">
        <ele>491.00000</ele>
        <time>2024-02-08T12:44:05Z</time>
      </trkpt>
      <trkpt lat="42.90417895" lon="13.52924256">
        <ele>492.00000</ele>
        <time>2024-02-08T12:44:06Z</time>
      </trkpt>
      <trkpt lat="42.90415456" lon="13.52928011">
        <ele>493.00000</ele>
        <time>2024-02-08T12:44:07Z</time>
      </trkpt>
      <trkpt lat="42.90412682" lon="13.52931540">
        <ele>493.00000</ele>
        <time>2024-02-08T12:44:08Z</time>
      </trkpt>
      <trkpt lat="42.90409815" lon="13.52934817">
        <ele>493.00000</ele>
        <time>2024-02-08T12:44:09Z</time>
      </trkpt>
      <trkpt lat="42.90407057" lon="13.52937843">
        <ele>494.00000</ele>
        <time>2024-02-08T12:44:10Z</time>
      </trkpt>
      <trkpt lat="42.90404283" lon="13.52940626">
        <ele>494.00000</ele>
        <time>2024-02-08T12:44:11Z</time>
      </trkpt>
      <trkpt lat="42.90401467" lon="13.52943476">
        <ele>494.00000</ele>
        <time>2024-02-08T12:44:12Z</time>
      </trkpt>
      <trkpt lat="42.90398525" lon="13.52946560">
        <ele>494.00000</ele>
        <time>2024-02-08T12:44:13Z</time>
      </trkpt>
      <trkpt lat="42.90395708" lon="13.52949771">
        <ele>494.00000</ele>
        <time>2024-02-08T12:44:14Z</time>
      </trkpt>
      <trkpt lat="42.90392867" lon="13.52953048">
        <ele>494.00000</ele>
        <time>2024-02-08T12:44:15Z</time>
      </trkpt>
      <trkpt lat="42.90390076" lon="13.52956074">
        <ele>494.00000</ele>
        <time>2024-02-08T12:44:16Z</time>
      </trkpt>
      <trkpt lat="42.90387427" lon="13.52959183">
        <ele>494.00000</ele>
        <time>2024-02-08T12:44:17Z</time>
      </trkpt>
      <trkpt lat="42.90384770" lon="13.52962603">
        <ele>494.00000</ele>
        <time>2024-02-08T12:44:18Z</time>
      </trkpt>
      <trkpt lat="42.90382037" lon="13.52966140">
        <ele>494.00000</ele>
        <time>2024-02-08T12:44:19Z</time>
      </trkpt>
      <trkpt lat="42.90379548" lon="13.52970155">
        <ele>493.00000</ele>
        <time>2024-02-08T12:44:20Z</time>
      </trkpt>
      <trkpt lat="42.90377796" lon="13.52974724">
        <ele>493.00000</ele>
        <time>2024-02-08T12:44:21Z</time>
      </trkpt>
      <trkpt lat="42.90376639" lon="13.52979451">
        <ele>492.00000</ele>
        <time>2024-02-08T12:44:22Z</time>
      </trkpt>
      <trkpt lat="42.90375986" lon="13.52984614">
        <ele>492.00000</ele>
        <time>2024-02-08T12:44:23Z</time>
      </trkpt>
      <trkpt lat="42.90376262" lon="13.52990155">
        <ele>492.00000</ele>
        <time>2024-02-08T12:44:24Z</time>
      </trkpt>
      <trkpt lat="42.90377226" lon="13.52995628">
        <ele>491.00000</ele>
        <time>2024-02-08T12:44:25Z</time>
      </trkpt>
      <trkpt lat="42.90378802" lon="13.53000615">
        <ele>492.00000</ele>
        <time>2024-02-08T12:44:26Z</time>
      </trkpt>
      <trkpt lat="42.90381023" lon="13.53005385">
        <ele>492.00000</ele>
        <time>2024-02-08T12:44:27Z</time>
      </trkpt>
      <trkpt lat="42.90383680" lon="13.53010355">
        <ele>492.00000</ele>
        <time>2024-02-08T12:44:28Z</time>
      </trkpt>
      <trkpt lat="42.90386136" lon="13.53015267">
        <ele>492.00000</ele>
        <time>2024-02-08T12:44:29Z</time>
      </trkpt>
      <trkpt lat="42.90388793" lon="13.53019927">
        <ele>493.00000</ele>
        <time>2024-02-08T12:44:30Z</time>
      </trkpt>
      <trkpt lat="42.90391752" lon="13.53024411">
        <ele>494.00000</ele>
        <time>2024-02-08T12:44:31Z</time>
      </trkpt>
      <trkpt lat="42.90394878" lon="13.53029013">
        <ele>496.00000</ele>
        <time>2024-02-08T12:44:32Z</time>
      </trkpt>
      <trkpt lat="42.90398055" lon="13.53033875">
        <ele>497.00000</ele>
        <time>2024-02-08T12:44:33Z</time>
      </trkpt>
      <trkpt lat="42.90401115" lon="13.53039105">
        <ele>498.00000</ele>
        <time>2024-02-08T12:44:34Z</time>
      </trkpt>
      <trkpt lat="42.90404283" lon="13.53044696">
        <ele>499.00000</ele>
        <time>2024-02-08T12:44:35Z</time>
      </trkpt>
      <trkpt lat="42.90407527" lon="13.53050429">
        <ele>501.00000</ele>
        <time>2024-02-08T12:44:36Z</time>
      </trkpt>
      <trkpt lat="42.90410435" lon="13.53056573">
        <ele>502.00000</ele>
        <time>2024-02-08T12:44:37Z</time>
      </trkpt>
      <trkpt lat="42.90413268" lon="13.53063002">
        <ele>503.00000</ele>
        <time>2024-02-08T12:44:38Z</time>
      </trkpt>
      <trkpt lat="42.90415942" lon="13.53069481">
        <ele>504.00000</ele>
        <time>2024-02-08T12:44:39Z</time>
      </trkpt>
      <trkpt lat="42.90418515" lon="13.53075985">
        <ele>505.00000</ele>
        <time>2024-02-08T12:44:40Z</time>
      </trkpt>
      <trkpt lat="42.90420804" lon="13.53082825">
        <ele>505.00000</ele>
        <time>2024-02-08T12:44:41Z</time>
      </trkpt>
      <trkpt lat="42.90422924" lon="13.53089388">
        <ele>505.00000</ele>
        <time>2024-02-08T12:44:42Z</time>
      </trkpt>
      <trkpt lat="42.90424684" lon="13.53095767">
        <ele>505.00000</ele>
        <time>2024-02-08T12:44:43Z</time>
      </trkpt>
      <trkpt lat="42.90426570" lon="13.53101760">
        <ele>506.00000</ele>
        <time>2024-02-08T12:44:44Z</time>
      </trkpt>
      <trkpt lat="42.90428331" lon="13.53107669">
        <ele>506.00000</ele>
        <time>2024-02-08T12:44:45Z</time>
      </trkpt>
      <trkpt lat="42.90429839" lon="13.53113670">
        <ele>506.00000</ele>
        <time>2024-02-08T12:44:46Z</time>
      </trkpt>
      <trkpt lat="42.90431046" lon="13.53119781">
        <ele>507.00000</ele>
        <time>2024-02-08T12:44:47Z</time>
      </trkpt>
      <trkpt lat="42.90431868" lon="13.53125849">
        <ele>506.00000</ele>
        <time>2024-02-08T12:44:48Z</time>
      </trkpt>
      <trkpt lat="42.90433100" lon="13.53131725">
        <ele>506.00000</ele>
        <time>2024-02-08T12:44:49Z</time>
      </trkpt>
      <trkpt lat="42.90434910" lon="13.53137182">
        <ele>506.00000</ele>
        <time>2024-02-08T12:44:50Z</time>
      </trkpt>
      <trkpt lat="42.90436428" lon="13.53142865">
        <ele>507.00000</ele>
        <time>2024-02-08T12:44:51Z</time>
      </trkpt>
      <trkpt lat="42.90438104" lon="13.53148438">
        <ele>508.00000</ele>
        <time>2024-02-08T12:44:52Z</time>
      </trkpt>
      <trkpt lat="42.90439981" lon="13.53154046">
        <ele>509.00000</ele>
        <time>2024-02-08T12:44:53Z</time>
      </trkpt>
      <trkpt lat="42.90441582" lon="13.53159897">
        <ele>510.00000</ele>
        <time>2024-02-08T12:44:54Z</time>
      </trkpt>
      <trkpt lat="42.90442890" lon="13.53165663">
        <ele>511.00000</ele>
        <time>2024-02-08T12:44:55Z</time>
      </trkpt>
      <trkpt lat="42.90444491" lon="13.53172394">
        <ele>512.00000</ele>
        <time>2024-02-08T12:44:56Z</time>
      </trkpt>
      <trkpt lat="42.90445790" lon="13.53178245">
        <ele>512.00000</ele>
        <time>2024-02-08T12:44:57Z</time>
      </trkpt>
      <trkpt lat="42.90446821" lon="13.53182930">
        <ele>513.00000</ele>
        <time>2024-02-08T12:44:58Z</time>
      </trkpt>
      <trkpt lat="42.90448447" lon="13.53188588">
        <ele>514.00000</ele>
        <time>2024-02-08T12:44:59Z</time>
      </trkpt>
      <trkpt lat="42.90449914" lon="13.53194422">
        <ele>516.00000</ele>
        <time>2024-02-08T12:45:00Z</time>
      </trkpt>
      <trkpt lat="42.90451188" lon="13.53201446">
        <ele>516.00000</ele>
        <time>2024-02-08T12:45:01Z</time>
      </trkpt>
      <trkpt lat="42.90451733" lon="13.53207338">
        <ele>516.00000</ele>
        <time>2024-02-08T12:45:02Z</time>
      </trkpt>
      <trkpt lat="42.90451699" lon="13.53213465">
        <ele>516.00000</ele>
        <time>2024-02-08T12:45:03Z</time>
      </trkpt>
      <trkpt lat="42.90451926" lon="13.53219475">
        <ele>516.00000</ele>
        <time>2024-02-08T12:45:04Z</time>
      </trkpt>
      <trkpt lat="42.90451758" lon="13.53225477">
        <ele>515.00000</ele>
        <time>2024-02-08T12:45:05Z</time>
      </trkpt>
      <trkpt lat="42.90451331" lon="13.53231503">
        <ele>515.00000</ele>
        <time>2024-02-08T12:45:06Z</time>
      </trkpt>
      <trkpt lat="42.90450911" lon="13.53237572">
        <ele>515.00000</ele>
        <time>2024-02-08T12:45:07Z</time>
      </trkpt>
      <trkpt lat="42.90450274" lon="13.53243757">
        <ele>515.00000</ele>
        <time>2024-02-08T12:45:08Z</time>
      </trkpt>
      <trkpt lat="42.90449596" lon="13.53249910">
        <ele>515.00000</ele>
        <time>2024-02-08T12:45:09Z</time>
      </trkpt>
      <trkpt lat="42.90448850" lon="13.53255987">
        <ele>515.00000</ele>
        <time>2024-02-08T12:45:10Z</time>
      </trkpt>
      <trkpt lat="42.90447827" lon="13.53262122">
        <ele>515.00000</ele>
        <time>2024-02-08T12:45:11Z</time>
      </trkpt>
      <trkpt lat="42.90446620" lon="13.53268216">
        <ele>514.00000</ele>
        <time>2024-02-08T12:45:12Z</time>
      </trkpt>
      <trkpt lat="42.90444793" lon="13.53274167">
        <ele>514.00000</ele>
        <time>2024-02-08T12:45:13Z</time>
      </trkpt>
      <trkpt lat="42.90441432" lon="13.53280026">
        <ele>512.00000</ele>
        <time>2024-02-08T12:45:14Z</time>
      </trkpt>
      <trkpt lat="42.90438548" lon="13.53285809">
        <ele>511.00000</ele>
        <time>2024-02-08T12:45:15Z</time>
      </trkpt>
      <trkpt lat="42.90435891" lon="13.53291115">
        <ele>510.00000</ele>
        <time>2024-02-08T12:45:16Z</time>
      </trkpt>
      <trkpt lat="42.90433209" lon="13.53296220">
        <ele>509.00000</ele>
        <time>2024-02-08T12:45:17Z</time>
      </trkpt>
      <trkpt lat="42.90430451" lon="13.53301358">
        <ele>508.00000</ele>
        <time>2024-02-08T12:45:18Z</time>
      </trkpt>
      <trkpt lat="42.90427518" lon="13.53306530">
        <ele>507.00000</ele>
        <time>2024-02-08T12:45:19Z</time>
      </trkpt>
      <trkpt lat="42.90424559" lon="13.53311584">
        <ele>507.00000</ele>
        <time>2024-02-08T12:45:20Z</time>
      </trkpt>
      <trkpt lat="42.90421424" lon="13.53316504">
        <ele>506.00000</ele>
        <time>2024-02-08T12:45:21Z</time>
      </trkpt>
      <trkpt lat="42.90418373" lon="13.53321298">
        <ele>506.00000</ele>
        <time>2024-02-08T12:45:22Z</time>
      </trkpt>
      <trkpt lat="42.90415163" lon="13.53326093">
        <ele>505.00000</ele>
        <time>2024-02-08T12:45:23Z</time>
      </trkpt>
      <trkpt lat="42.90411936" lon="13.53330669">
        <ele>505.00000</ele>
        <time>2024-02-08T12:45:24Z</time>
      </trkpt>
      <trkpt lat="42.90408549" lon="13.53335556">
        <ele>504.00000</ele>
        <time>2024-02-08T12:45:25Z</time>
      </trkpt>
      <trkpt lat="42.90405498" lon="13.53340619">
        <ele>504.00000</ele>
        <time>2024-02-08T12:45:26Z</time>
      </trkpt>
      <trkpt lat="42.90403093" lon="13.53346109">
        <ele>504.00000</ele>
        <time>2024-02-08T12:45:27Z</time>
      </trkpt>
      <trkpt lat="42.90401701" lon="13.53352186">
        <ele>504.00000</ele>
        <time>2024-02-08T12:45:28Z</time>
      </trkpt>
      <trkpt lat="42.90401844" lon="13.53358430">
        <ele>505.00000</ele>
        <time>2024-02-08T12:45:29Z</time>
      </trkpt>
      <trkpt lat="42.90403428" lon="13.53364516">
        <ele>507.00000</ele>
        <time>2024-02-08T12:45:30Z</time>
      </trkpt>
      <trkpt lat="42.90405733" lon="13.53370182">
        <ele>507.00000</ele>
        <time>2024-02-08T12:45:31Z</time>
      </trkpt>
      <trkpt lat="42.90408113" lon="13.53376099">
        <ele>508.00000</ele>
        <time>2024-02-08T12:45:32Z</time>
      </trkpt>
      <trkpt lat="42.90410737" lon="13.53381648">
        <ele>509.00000</ele>
        <time>2024-02-08T12:45:33Z</time>
      </trkpt>
      <trkpt lat="42.90413352" lon="13.53387147">
        <ele>510.00000</ele>
        <time>2024-02-08T12:45:34Z</time>
      </trkpt>
      <trkpt lat="42.90415909" lon="13.53392469">
        <ele>510.00000</ele>
        <time>2024-02-08T12:45:35Z</time>
      </trkpt>
      <trkpt lat="42.90418616" lon="13.53397280">
        <ele>509.00000</ele>
        <time>2024-02-08T12:45:36Z</time>
      </trkpt>
      <trkpt lat="42.90421843" lon="13.53401865">
        <ele>508.00000</ele>
        <time>2024-02-08T12:45:37Z</time>
      </trkpt>
      <trkpt lat="42.90425363" lon="13.53405687">
        <ele>508.00000</ele>
        <time>2024-02-08T12:45:38Z</time>
      </trkpt>
      <trkpt lat="42.90429328" lon="13.53408127">
        <ele>509.00000</ele>
        <time>2024-02-08T12:45:39Z</time>
      </trkpt>
      <trkpt lat="42.90433544" lon="13.53408940">
        <ele>510.00000</ele>
        <time>2024-02-08T12:45:40Z</time>
      </trkpt>
      <trkpt lat="42.90438230" lon="13.53408076">
        <ele>512.00000</ele>
        <time>2024-02-08T12:45:41Z</time>
      </trkpt>
      <trkpt lat="42.90442823" lon="13.53406274">
        <ele>514.00000</ele>
        <time>2024-02-08T12:45:42Z</time>
      </trkpt>
      <trkpt lat="42.90447425" lon="13.53404581">
        <ele>515.00000</ele>
        <time>2024-02-08T12:45:43Z</time>
      </trkpt>
      <trkpt lat="42.90451917" lon="13.53402653">
        <ele>516.00000</ele>
        <time>2024-02-08T12:45:44Z</time>
      </trkpt>
      <trkpt lat="42.90456402" lon="13.53400491">
        <ele>516.00000</ele>
        <time>2024-02-08T12:45:45Z</time>
      </trkpt>
      <trkpt lat="42.90460727" lon="13.53398504">
        <ele>517.00000</ele>
        <time>2024-02-08T12:45:46Z</time>
      </trkpt>
      <trkpt lat="42.90465186" lon="13.53396677">
        <ele>518.00000</ele>
        <time>2024-02-08T12:45:47Z</time>
      </trkpt>
      <trkpt lat="42.90469804" lon="13.53394523">
        <ele>519.00000</ele>
        <time>2024-02-08T12:45:48Z</time>
      </trkpt>
      <trkpt lat="42.90474272" lon="13.53392721">
        <ele>520.00000</ele>
        <time>2024-02-08T12:45:49Z</time>
      </trkpt>
      <trkpt lat="42.90478781" lon="13.53390667">
        <ele>521.00000</ele>
        <time>2024-02-08T12:45:50Z</time>
      </trkpt>
      <trkpt lat="42.90483584" lon="13.53387800">
        <ele>522.00000</ele>
        <time>2024-02-08T12:45:51Z</time>
      </trkpt>
      <trkpt lat="42.90488370" lon="13.53385177">
        <ele>524.00000</ele>
        <time>2024-02-08T12:45:52Z</time>
      </trkpt>
      <trkpt lat="42.90492922" lon="13.53383291">
        <ele>525.00000</ele>
        <time>2024-02-08T12:45:53Z</time>
      </trkpt>
      <trkpt lat="42.90497498" lon="13.53381816">
        <ele>526.00000</ele>
        <time>2024-02-08T12:45:54Z</time>
      </trkpt>
      <trkpt lat="42.90502016" lon="13.53380667">
        <ele>527.00000</ele>
        <time>2024-02-08T12:45:55Z</time>
      </trkpt>
      <trkpt lat="42.90506425" lon="13.53379519">
        <ele>527.00000</ele>
        <time>2024-02-08T12:45:56Z</time>
      </trkpt>
      <trkpt lat="42.90510591" lon="13.53378907">
        <ele>528.00000</ele>
        <time>2024-02-08T12:45:57Z</time>
      </trkpt>
      <trkpt lat="42.90514614" lon="13.53378907">
        <ele>529.00000</ele>
        <time>2024-02-08T12:45:58Z</time>
      </trkpt>
      <trkpt lat="42.90518847" lon="13.53379134">
        <ele>529.00000</ele>
        <time>2024-02-08T12:45:59Z</time>
      </trkpt>
      <trkpt lat="42.90523222" lon="13.53379838">
        <ele>529.00000</ele>
        <time>2024-02-08T12:46:00Z</time>
      </trkpt>
      <trkpt lat="42.90527136" lon="13.53381112">
        <ele>528.00000</ele>
        <time>2024-02-08T12:46:01Z</time>
      </trkpt>
      <trkpt lat="42.90530841" lon="13.53382688">
        <ele>528.00000</ele>
        <time>2024-02-08T12:46:02Z</time>
      </trkpt>
      <trkpt lat="42.90534848" lon="13.53383794">
        <ele>528.00000</ele>
        <time>2024-02-08T12:46:03Z</time>
      </trkpt>
      <trkpt lat="42.90539190" lon="13.53384364">
        <ele>528.00000</ele>
        <time>2024-02-08T12:46:04Z</time>
      </trkpt>
      <trkpt lat="42.90543599" lon="13.53385504">
        <ele>528.00000</ele>
        <time>2024-02-08T12:46:05Z</time>
      </trkpt>
      <trkpt lat="42.90548267" lon="13.53386325">
        <ele>529.00000</ele>
        <time>2024-02-08T12:46:06Z</time>
      </trkpt>
      <trkpt lat="42.90553422" lon="13.53386317">
        <ele>530.00000</ele>
        <time>2024-02-08T12:46:07Z</time>
      </trkpt>
      <trkpt lat="42.90558627" lon="13.53386384">
        <ele>531.00000</ele>
        <time>2024-02-08T12:46:08Z</time>
      </trkpt>
      <trkpt lat="42.90563397" lon="13.53386652">
        <ele>532.00000</ele>
        <time>2024-02-08T12:46:09Z</time>
      </trkpt>
      <trkpt lat="42.90568116" lon="13.53387113">
        <ele>533.00000</ele>
        <time>2024-02-08T12:46:10Z</time>
      </trkpt>
      <trkpt lat="42.90572910" lon="13.53387641">
        <ele>533.00000</ele>
        <time>2024-02-08T12:46:11Z</time>
      </trkpt>
      <trkpt lat="42.90577738" lon="13.53388153">
        <ele>534.00000</ele>
        <time>2024-02-08T12:46:12Z</time>
      </trkpt>
      <trkpt lat="42.90582499" lon="13.53389058">
        <ele>534.00000</ele>
        <time>2024-02-08T12:46:13Z</time>
      </trkpt>
      <trkpt lat="42.90586841" lon="13.53390491">
        <ele>535.00000</ele>
        <time>2024-02-08T12:46:14Z</time>
      </trkpt>
      <trkpt lat="42.90591241" lon="13.53392654">
        <ele>536.00000</ele>
        <time>2024-02-08T12:46:15Z</time>
      </trkpt>
      <trkpt lat="42.90595600" lon="13.53395562">
        <ele>536.00000</ele>
        <time>2024-02-08T12:46:16Z</time>
      </trkpt>
      <trkpt lat="42.90599321" lon="13.53399518">
        <ele>537.00000</ele>
        <time>2024-02-08T12:46:17Z</time>
      </trkpt>
      <trkpt lat="42.90602297" lon="13.53404321">
        <ele>536.00000</ele>
        <time>2024-02-08T12:46:18Z</time>
      </trkpt>
      <trkpt lat="42.90604652" lon="13.53409543">
        <ele>536.00000</ele>
        <time>2024-02-08T12:46:19Z</time>
      </trkpt>
      <trkpt lat="42.90606882" lon="13.53414832">
        <ele>535.00000</ele>
        <time>2024-02-08T12:46:20Z</time>
      </trkpt>
      <trkpt lat="42.90608852" lon="13.53420197">
        <ele>535.00000</ele>
        <time>2024-02-08T12:46:21Z</time>
      </trkpt>
      <trkpt lat="42.90610251" lon="13.53426005">
        <ele>535.00000</ele>
        <time>2024-02-08T12:46:22Z</time>
      </trkpt>
      <trkpt lat="42.90611467" lon="13.53431998">
        <ele>535.00000</ele>
        <time>2024-02-08T12:46:23Z</time>
      </trkpt>
      <trkpt lat="42.90612095" lon="13.53438042">
        <ele>535.00000</ele>
        <time>2024-02-08T12:46:24Z</time>
      </trkpt>
      <trkpt lat="42.90612598" lon="13.53443716">
        <ele>534.00000</ele>
        <time>2024-02-08T12:46:25Z</time>
      </trkpt>
      <trkpt lat="42.90613403" lon="13.53449030">
        <ele>534.00000</ele>
        <time>2024-02-08T12:46:26Z</time>
      </trkpt>
      <trkpt lat="42.90614007" lon="13.53454730">
        <ele>534.00000</ele>
        <time>2024-02-08T12:46:27Z</time>
      </trkpt>
      <trkpt lat="42.90614585" lon="13.53460631">
        <ele>533.00000</ele>
        <time>2024-02-08T12:46:28Z</time>
      </trkpt>
      <trkpt lat="42.90615281" lon="13.53466632">
        <ele>533.00000</ele>
        <time>2024-02-08T12:46:29Z</time>
      </trkpt>
      <trkpt lat="42.90616119" lon="13.53472449">
        <ele>533.00000</ele>
        <time>2024-02-08T12:46:30Z</time>
      </trkpt>
      <trkpt lat="42.90617208" lon="13.53477923">
        <ele>532.00000</ele>
        <time>2024-02-08T12:46:31Z</time>
      </trkpt>
      <trkpt lat="42.90618348" lon="13.53483723">
        <ele>531.00000</ele>
        <time>2024-02-08T12:46:32Z</time>
      </trkpt>
      <trkpt lat="42.90619765" lon="13.53489171">
        <ele>530.00000</ele>
        <time>2024-02-08T12:46:33Z</time>
      </trkpt>
      <trkpt lat="42.90621525" lon="13.53494284">
        <ele>529.00000</ele>
        <time>2024-02-08T12:46:34Z</time>
      </trkpt>
      <trkpt lat="42.90624350" lon="13.53498425">
        <ele>530.00000</ele>
        <time>2024-02-08T12:46:35Z</time>
      </trkpt>
      <trkpt lat="42.90627803" lon="13.53501853">
        <ele>530.00000</ele>
        <time>2024-02-08T12:46:36Z</time>
      </trkpt>
      <trkpt lat="42.90631793" lon="13.53504032">
        <ele>531.00000</ele>
        <time>2024-02-08T12:46:37Z</time>
      </trkpt>
      <trkpt lat="42.90635950" lon="13.53504829">
        <ele>533.00000</ele>
        <time>2024-02-08T12:46:38Z</time>
      </trkpt>
      <trkpt lat="42.90640141" lon="13.53504694">
        <ele>534.00000</ele>
        <time>2024-02-08T12:46:39Z</time>
      </trkpt>
      <trkpt lat="42.90644441" lon="13.53503840">
        <ele>535.00000</ele>
        <time>2024-02-08T12:46:40Z</time>
      </trkpt>
      <trkpt lat="42.90649361" lon="13.53502607">
        <ele>537.00000</ele>
        <time>2024-02-08T12:46:41Z</time>
      </trkpt>
      <trkpt lat="42.90654072" lon="13.53501509">
        <ele>539.00000</ele>
        <time>2024-02-08T12:46:42Z</time>
      </trkpt>
      <trkpt lat="42.90658875" lon="13.53500084">
        <ele>541.00000</ele>
        <time>2024-02-08T12:46:43Z</time>
      </trkpt>
      <trkpt lat="42.90663502" lon="13.53498919">
        <ele>542.00000</ele>
        <time>2024-02-08T12:46:44Z</time>
      </trkpt>
      <trkpt lat="42.90667944" lon="13.53498023">
        <ele>543.00000</ele>
        <time>2024-02-08T12:46:45Z</time>
      </trkpt>
      <trkpt lat="42.90672495" lon="13.53497084">
        <ele>543.00000</ele>
        <time>2024-02-08T12:46:46Z</time>
      </trkpt>
      <trkpt lat="42.90677173" lon="13.53495868">
        <ele>544.00000</ele>
        <time>2024-02-08T12:46:47Z</time>
      </trkpt>
      <trkpt lat="42.90682093" lon="13.53494276">
        <ele>544.00000</ele>
        <time>2024-02-08T12:46:48Z</time>
      </trkpt>
      <trkpt lat="42.90686937" lon="13.53492348">
        <ele>545.00000</ele>
        <time>2024-02-08T12:46:49Z</time>
      </trkpt>
      <trkpt lat="42.90691506" lon="13.53490605">
        <ele>546.00000</ele>
        <time>2024-02-08T12:46:50Z</time>
      </trkpt>
      <trkpt lat="42.90696065" lon="13.53489180">
        <ele>547.00000</ele>
        <time>2024-02-08T12:46:51Z</time>
      </trkpt>
      <trkpt lat="42.90700432" lon="13.53487864">
        <ele>546.00000</ele>
        <time>2024-02-08T12:46:52Z</time>
      </trkpt>
      <trkpt lat="42.90704992" lon="13.53486699">
        <ele>546.00000</ele>
        <time>2024-02-08T12:46:53Z</time>
      </trkpt>
      <trkpt lat="42.90709694" lon="13.53485366">
        <ele>546.00000</ele>
        <time>2024-02-08T12:46:54Z</time>
      </trkpt>
      <trkpt lat="42.90714363" lon="13.53484033">
        <ele>545.00000</ele>
        <time>2024-02-08T12:46:55Z</time>
      </trkpt>
      <trkpt lat="42.90718906" lon="13.53482675">
        <ele>545.00000</ele>
        <time>2024-02-08T12:46:56Z</time>
      </trkpt>
      <trkpt lat="42.90723357" lon="13.53481451">
        <ele>544.00000</ele>
        <time>2024-02-08T12:46:57Z</time>
      </trkpt>
      <trkpt lat="42.90727883" lon="13.53480437">
        <ele>544.00000</ele>
        <time>2024-02-08T12:46:58Z</time>
      </trkpt>
      <trkpt lat="42.90732543" lon="13.53479851">
        <ele>544.00000</ele>
        <time>2024-02-08T12:46:59Z</time>
      </trkpt>
      <trkpt lat="42.90737011" lon="13.53479666">
        <ele>543.00000</ele>
        <time>2024-02-08T12:47:00Z</time>
      </trkpt>
      <trkpt lat="42.90741554" lon="13.53479926">
        <ele>542.00000</ele>
        <time>2024-02-08T12:47:01Z</time>
      </trkpt>
      <trkpt lat="42.90746189" lon="13.53480479">
        <ele>541.00000</ele>
        <time>2024-02-08T12:47:02Z</time>
      </trkpt>
      <trkpt lat="42.90750598" lon="13.53481410">
        <ele>541.00000</ele>
        <time>2024-02-08T12:47:03Z</time>
      </trkpt>
      <trkpt lat="42.90755208" lon="13.53482256">
        <ele>541.00000</ele>
        <time>2024-02-08T12:47:04Z</time>
      </trkpt>
      <trkpt lat="42.90759793" lon="13.53483388">
        <ele>541.00000</ele>
        <time>2024-02-08T12:47:05Z</time>
      </trkpt>
      <trkpt lat="42.90764520" lon="13.53484419">
        <ele>542.00000</ele>
        <time>2024-02-08T12:47:06Z</time>
      </trkpt>
      <trkpt lat="42.90769097" lon="13.53485709">
        <ele>543.00000</ele>
        <time>2024-02-08T12:47:07Z</time>
      </trkpt>
      <trkpt lat="42.90773774" lon="13.53486958">
        <ele>543.00000</ele>
        <time>2024-02-08T12:47:08Z</time>
      </trkpt>
      <trkpt lat="42.90778644" lon="13.53488258">
        <ele>544.00000</ele>
        <time>2024-02-08T12:47:09Z</time>
      </trkpt>
      <trkpt lat="42.90783505" lon="13.53489683">
        <ele>545.00000</ele>
        <time>2024-02-08T12:47:10Z</time>
      </trkpt>
      <trkpt lat="42.90788065" lon="13.53491007">
        <ele>545.00000</ele>
        <time>2024-02-08T12:47:11Z</time>
      </trkpt>
      <trkpt lat="42.90792474" lon="13.53492164">
        <ele>546.00000</ele>
        <time>2024-02-08T12:47:12Z</time>
      </trkpt>
      <trkpt lat="42.90797185" lon="13.53493505">
        <ele>546.00000</ele>
        <time>2024-02-08T12:47:13Z</time>
      </trkpt>
      <trkpt lat="42.90801929" lon="13.53494963">
        <ele>547.00000</ele>
        <time>2024-02-08T12:47:14Z</time>
      </trkpt>
      <trkpt lat="42.90806631" lon="13.53496924">
        <ele>547.00000</ele>
        <time>2024-02-08T12:47:15Z</time>
      </trkpt>
      <trkpt lat="42.90811199" lon="13.53499313">
        <ele>548.00000</ele>
        <time>2024-02-08T12:47:16Z</time>
      </trkpt>
      <trkpt lat="42.90815717" lon="13.53501853">
        <ele>548.00000</ele>
        <time>2024-02-08T12:47:17Z</time>
      </trkpt>
      <trkpt lat="42.90820076" lon="13.53504368">
        <ele>549.00000</ele>
        <time>2024-02-08T12:47:18Z</time>
      </trkpt>
      <trkpt lat="42.90824166" lon="13.53506815">
        <ele>549.00000</ele>
        <time>2024-02-08T12:47:19Z</time>
      </trkpt>
      <trkpt lat="42.90827946" lon="13.53509782">
        <ele>549.00000</ele>
        <time>2024-02-08T12:47:20Z</time>
      </trkpt>
      <trkpt lat="42.90832011" lon="13.53512942">
        <ele>549.00000</ele>
        <time>2024-02-08T12:47:21Z</time>
      </trkpt>
      <trkpt lat="42.90836161" lon="13.53516010">
        <ele>550.00000</ele>
        <time>2024-02-08T12:47:22Z</time>
      </trkpt>
      <trkpt lat="42.90840117" lon="13.53519044">
        <ele>550.00000</ele>
        <time>2024-02-08T12:47:23Z</time>
      </trkpt>
      <trkpt lat="42.90843813" lon="13.53522422">
        <ele>551.00000</ele>
        <time>2024-02-08T12:47:24Z</time>
      </trkpt>
      <trkpt lat="42.90847409" lon="13.53525909">
        <ele>551.00000</ele>
        <time>2024-02-08T12:47:25Z</time>
      </trkpt>
      <trkpt lat="42.90851139" lon="13.53529103">
        <ele>552.00000</ele>
        <time>2024-02-08T12:47:26Z</time>
      </trkpt>
      <trkpt lat="42.90855229" lon="13.53532279">
        <ele>552.00000</ele>
        <time>2024-02-08T12:47:27Z</time>
      </trkpt>
      <trkpt lat="42.90859194" lon="13.53535875">
        <ele>553.00000</ele>
        <time>2024-02-08T12:47:28Z</time>
      </trkpt>
      <trkpt lat="42.90862907" lon="13.53539354">
        <ele>553.00000</ele>
        <time>2024-02-08T12:47:29Z</time>
      </trkpt>
      <trkpt lat="42.90866780" lon="13.53542807">
        <ele>554.00000</ele>
        <time>2024-02-08T12:47:30Z</time>
      </trkpt>
      <trkpt lat="42.90870325" lon="13.53546529">
        <ele>554.00000</ele>
        <time>2024-02-08T12:47:31Z</time>
      </trkpt>
      <trkpt lat="42.90873938" lon="13.53550183">
        <ele>554.00000</ele>
        <time>2024-02-08T12:47:32Z</time>
      </trkpt>
      <trkpt lat="42.90877341" lon="13.53553997">
        <ele>555.00000</ele>
        <time>2024-02-08T12:47:33Z</time>
      </trkpt>
      <trkpt lat="42.90880534" lon="13.53557987">
        <ele>555.00000</ele>
        <time>2024-02-08T12:47:34Z</time>
      </trkpt>
      <trkpt lat="42.90883786" lon="13.53561985">
        <ele>555.00000</ele>
        <time>2024-02-08T12:47:35Z</time>
      </trkpt>
      <trkpt lat="42.90887014" lon="13.53566184">
        <ele>556.00000</ele>
        <time>2024-02-08T12:47:36Z</time>
      </trkpt>
      <trkpt lat="42.90890031" lon="13.53570660">
        <ele>556.00000</ele>
        <time>2024-02-08T12:47:37Z</time>
      </trkpt>
      <trkpt lat="42.90892864" lon="13.53575379">
        <ele>555.00000</ele>
        <time>2024-02-08T12:47:38Z</time>
      </trkpt>
      <trkpt lat="42.90895446" lon="13.53580023">
        <ele>555.00000</ele>
        <time>2024-02-08T12:47:39Z</time>
      </trkpt>
      <trkpt lat="42.90898187" lon="13.53584515">
        <ele>555.00000</ele>
        <time>2024-02-08T12:47:40Z</time>
      </trkpt>
      <trkpt lat="42.90900550" lon="13.53589327">
        <ele>555.00000</ele>
        <time>2024-02-08T12:47:41Z</time>
      </trkpt>
      <trkpt lat="42.90902663" lon="13.53594440">
        <ele>555.00000</ele>
        <time>2024-02-08T12:47:42Z</time>
      </trkpt>
      <trkpt lat="42.90904976" lon="13.53599460">
        <ele>555.00000</ele>
        <time>2024-02-08T12:47:43Z</time>
      </trkpt>
      <trkpt lat="42.90907180" lon="13.53604414">
        <ele>555.00000</ele>
        <time>2024-02-08T12:47:44Z</time>
      </trkpt>
      <trkpt lat="42.90909251" lon="13.53609435">
        <ele>555.00000</ele>
        <time>2024-02-08T12:47:45Z</time>
      </trkpt>
      <trkpt lat="42.90911547" lon="13.53614355">
        <ele>556.00000</ele>
        <time>2024-02-08T12:47:46Z</time>
      </trkpt>
      <trkpt lat="42.90913995" lon="13.53619376">
        <ele>556.00000</ele>
        <time>2024-02-08T12:47:47Z</time>
      </trkpt>
      <trkpt lat="42.90916602" lon="13.53624405">
        <ele>556.00000</ele>
        <time>2024-02-08T12:47:48Z</time>
      </trkpt>
      <trkpt lat="42.90918957" lon="13.53629501">
        <ele>556.00000</ele>
        <time>2024-02-08T12:47:49Z</time>
      </trkpt>
      <trkpt lat="42.90921455" lon="13.53634622">
        <ele>556.00000</ele>
        <time>2024-02-08T12:47:50Z</time>
      </trkpt>
      <trkpt lat="42.90924112" lon="13.53639702">
        <ele>557.00000</ele>
        <time>2024-02-08T12:47:51Z</time>
      </trkpt>
      <trkpt lat="42.90926811" lon="13.53644547">
        <ele>557.00000</ele>
        <time>2024-02-08T12:47:52Z</time>
      </trkpt>
      <trkpt lat="42.90929669" lon="13.53649291">
        <ele>557.00000</ele>
        <time>2024-02-08T12:47:53Z</time>
      </trkpt>
      <trkpt lat="42.90932737" lon="13.53653775">
        <ele>558.00000</ele>
        <time>2024-02-08T12:47:54Z</time>
      </trkpt>
      <trkpt lat="42.90936182" lon="13.53657547">
        <ele>558.00000</ele>
        <time>2024-02-08T12:47:55Z</time>
      </trkpt>
      <trkpt lat="42.90939861" lon="13.53661101">
        <ele>559.00000</ele>
        <time>2024-02-08T12:47:56Z</time>
      </trkpt>
      <trkpt lat="42.90943784" lon="13.53664210">
        <ele>560.00000</ele>
        <time>2024-02-08T12:47:57Z</time>
      </trkpt>
      <trkpt lat="42.90947942" lon="13.53666851">
        <ele>561.00000</ele>
        <time>2024-02-08T12:47:58Z</time>
      </trkpt>
      <trkpt lat="42.90952183" lon="13.53669106">
        <ele>562.00000</ele>
        <time>2024-02-08T12:47:59Z</time>
      </trkpt>
      <trkpt lat="42.90956734" lon="13.53671092">
        <ele>563.00000</ele>
        <time>2024-02-08T12:48:00Z</time>
      </trkpt>
      <trkpt lat="42.90961101" lon="13.53673204">
        <ele>564.00000</ele>
        <time>2024-02-08T12:48:01Z</time>
      </trkpt>
      <trkpt lat="42.90966440" lon="13.53675761">
        <ele>565.00000</ele>
        <time>2024-02-08T12:48:02Z</time>
      </trkpt>
      <trkpt lat="42.90970019" lon="13.53677395">
        <ele>566.00000</ele>
        <time>2024-02-08T12:48:03Z</time>
      </trkpt>
      <trkpt lat="42.90974127" lon="13.53679516">
        <ele>566.00000</ele>
        <time>2024-02-08T12:48:04Z</time>
      </trkpt>
      <trkpt lat="42.90978301" lon="13.53681938">
        <ele>566.00000</ele>
        <time>2024-02-08T12:48:05Z</time>
      </trkpt>
      <trkpt lat="42.90982483" lon="13.53684461">
        <ele>567.00000</ele>
        <time>2024-02-08T12:48:06Z</time>
      </trkpt>
      <trkpt lat="42.90986381" lon="13.53687596">
        <ele>567.00000</ele>
        <time>2024-02-08T12:48:07Z</time>
      </trkpt>
      <trkpt lat="42.90990170" lon="13.53691393">
        <ele>567.00000</ele>
        <time>2024-02-08T12:48:08Z</time>
      </trkpt>
      <trkpt lat="42.90993615" lon="13.53695567">
        <ele>567.00000</ele>
        <time>2024-02-08T12:48:09Z</time>
      </trkpt>
      <trkpt lat="42.90996691" lon="13.53700068">
        <ele>567.00000</ele>
        <time>2024-02-08T12:48:10Z</time>
      </trkpt>
      <trkpt lat="42.90999272" lon="13.53705047">
        <ele>568.00000</ele>
        <time>2024-02-08T12:48:11Z</time>
      </trkpt>
      <trkpt lat="42.91001644" lon="13.53710403">
        <ele>567.00000</ele>
        <time>2024-02-08T12:48:12Z</time>
      </trkpt>
      <trkpt lat="42.91003924" lon="13.53715918">
        <ele>567.00000</ele>
        <time>2024-02-08T12:48:13Z</time>
      </trkpt>
      <trkpt lat="42.91006263" lon="13.53721719">
        <ele>567.00000</ele>
        <time>2024-02-08T12:48:14Z</time>
      </trkpt>
      <trkpt lat="42.91008543" lon="13.53727594">
        <ele>566.00000</ele>
        <time>2024-02-08T12:48:15Z</time>
      </trkpt>
      <trkpt lat="42.91010705" lon="13.53733026">
        <ele>566.00000</ele>
        <time>2024-02-08T12:48:16Z</time>
      </trkpt>
      <trkpt lat="42.91012667" lon="13.53738474">
        <ele>567.00000</ele>
        <time>2024-02-08T12:48:17Z</time>
      </trkpt>
      <trkpt lat="42.91014779" lon="13.53743830">
        <ele>567.00000</ele>
        <time>2024-02-08T12:48:18Z</time>
      </trkpt>
      <trkpt lat="42.91017101" lon="13.53749027">
        <ele>568.00000</ele>
        <time>2024-02-08T12:48:19Z</time>
      </trkpt>
      <trkpt lat="42.91019691" lon="13.53753947">
        <ele>568.00000</ele>
        <time>2024-02-08T12:48:20Z</time>
      </trkpt>
      <trkpt lat="42.91022624" lon="13.53758809">
        <ele>568.00000</ele>
        <time>2024-02-08T12:48:21Z</time>
      </trkpt>
      <trkpt lat="42.91025960" lon="13.53763402">
        <ele>568.00000</ele>
        <time>2024-02-08T12:48:22Z</time>
      </trkpt>
      <trkpt lat="42.91029514" lon="13.53768020">
        <ele>568.00000</ele>
        <time>2024-02-08T12:48:23Z</time>
      </trkpt>
      <trkpt lat="42.91033244" lon="13.53772119">
        <ele>568.00000</ele>
        <time>2024-02-08T12:48:24Z</time>
      </trkpt>
      <trkpt lat="42.91037175" lon="13.53775447">
        <ele>568.00000</ele>
        <time>2024-02-08T12:48:25Z</time>
      </trkpt>
      <trkpt lat="42.91041165" lon="13.53778364">
        <ele>569.00000</ele>
        <time>2024-02-08T12:48:26Z</time>
      </trkpt>
      <trkpt lat="42.91045582" lon="13.53780778">
        <ele>569.00000</ele>
        <time>2024-02-08T12:48:27Z</time>
      </trkpt>
      <trkpt lat="42.91050033" lon="13.53783250">
        <ele>570.00000</ele>
        <time>2024-02-08T12:48:28Z</time>
      </trkpt>
      <trkpt lat="42.91054383" lon="13.53785639">
        <ele>571.00000</ele>
        <time>2024-02-08T12:48:29Z</time>
      </trkpt>
      <trkpt lat="42.91058901" lon="13.53787575">
        <ele>571.00000</ele>
        <time>2024-02-08T12:48:30Z</time>
      </trkpt>
      <trkpt lat="42.91063528" lon="13.53788975">
        <ele>571.00000</ele>
        <time>2024-02-08T12:48:31Z</time>
      </trkpt>
      <trkpt lat="42.91068121" lon="13.53789637">
        <ele>570.00000</ele>
        <time>2024-02-08T12:48:32Z</time>
      </trkpt>
      <trkpt lat="42.91072706" lon="13.53789595">
        <ele>570.00000</ele>
        <time>2024-02-08T12:48:33Z</time>
      </trkpt>
      <trkpt lat="42.91077501" lon="13.53789294">
        <ele>570.00000</ele>
        <time>2024-02-08T12:48:34Z</time>
      </trkpt>
      <trkpt lat="42.91082312" lon="13.53788883">
        <ele>569.00000</ele>
        <time>2024-02-08T12:48:35Z</time>
      </trkpt>
      <trkpt lat="42.91087123" lon="13.53788615">
        <ele>568.00000</ele>
        <time>2024-02-08T12:48:36Z</time>
      </trkpt>
      <trkpt lat="42.91091817" lon="13.53788841">
        <ele>567.00000</ele>
        <time>2024-02-08T12:48:37Z</time>
      </trkpt>
      <trkpt lat="42.91096511" lon="13.53789838">
        <ele>567.00000</ele>
        <time>2024-02-08T12:48:38Z</time>
      </trkpt>
      <trkpt lat="42.91100878" lon="13.53791976">
        <ele>566.00000</ele>
        <time>2024-02-08T12:48:39Z</time>
      </trkpt>
      <trkpt lat="42.91104666" lon="13.53795915">
        <ele>566.00000</ele>
        <time>2024-02-08T12:48:40Z</time>
      </trkpt>
      <trkpt lat="42.91107617" lon="13.53801380">
        <ele>567.00000</ele>
        <time>2024-02-08T12:48:41Z</time>
      </trkpt>
      <trkpt lat="42.91109427" lon="13.53807935">
        <ele>569.00000</ele>
        <time>2024-02-08T12:48:42Z</time>
      </trkpt>
      <trkpt lat="42.91110115" lon="13.53814758">
        <ele>570.00000</ele>
        <time>2024-02-08T12:48:43Z</time>
      </trkpt>
      <trkpt lat="42.91110022" lon="13.53821539">
        <ele>572.00000</ele>
        <time>2024-02-08T12:48:44Z</time>
      </trkpt>
      <trkpt lat="42.91109922" lon="13.53828286">
        <ele>574.00000</ele>
        <time>2024-02-08T12:48:45Z</time>
      </trkpt>
      <trkpt lat="42.91110006" lon="13.53835025">
        <ele>576.00000</ele>
        <time>2024-02-08T12:48:46Z</time>
      </trkpt>
      <trkpt lat="42.91110618" lon="13.53841605">
        <ele>576.00000</ele>
        <time>2024-02-08T12:48:47Z</time>
      </trkpt>
      <trkpt lat="42.91111917" lon="13.53848193">
        <ele>576.00000</ele>
        <time>2024-02-08T12:48:48Z</time>
      </trkpt>
      <trkpt lat="42.91113970" lon="13.53854471">
        <ele>575.00000</ele>
        <time>2024-02-08T12:48:49Z</time>
      </trkpt>
      <trkpt lat="42.91116476" lon="13.53860557">
        <ele>575.00000</ele>
        <time>2024-02-08T12:48:50Z</time>
      </trkpt>
      <trkpt lat="42.91119192" lon="13.53866499">
        <ele>575.00000</ele>
        <time>2024-02-08T12:48:51Z</time>
      </trkpt>
      <trkpt lat="42.91122143" lon="13.53872031">
        <ele>574.00000</ele>
        <time>2024-02-08T12:48:52Z</time>
      </trkpt>
      <trkpt lat="42.91124984" lon="13.53877320">
        <ele>574.00000</ele>
        <time>2024-02-08T12:48:53Z</time>
      </trkpt>
      <trkpt lat="42.91128060" lon="13.53882609">
        <ele>574.00000</ele>
        <time>2024-02-08T12:48:54Z</time>
      </trkpt>
      <trkpt lat="42.91130784" lon="13.53888108">
        <ele>574.00000</ele>
        <time>2024-02-08T12:48:55Z</time>
      </trkpt>
      <trkpt lat="42.91133919" lon="13.53893288">
        <ele>574.00000</ele>
        <time>2024-02-08T12:48:56Z</time>
      </trkpt>
      <trkpt lat="42.91137155" lon="13.53898585">
        <ele>573.00000</ele>
        <time>2024-02-08T12:48:57Z</time>
      </trkpt>
      <trkpt lat="42.91140147" lon="13.53903757">
        <ele>573.00000</ele>
        <time>2024-02-08T12:48:58Z</time>
      </trkpt>
      <trkpt lat="42.91142779" lon="13.53909255">
        <ele>573.00000</ele>
        <time>2024-02-08T12:48:59Z</time>
      </trkpt>
      <trkpt lat="42.91144992" lon="13.53915098">
        <ele>574.00000</ele>
        <time>2024-02-08T12:49:00Z</time>
      </trkpt>
      <trkpt lat="42.91146576" lon="13.53921082">
        <ele>575.00000</ele>
        <time>2024-02-08T12:49:01Z</time>
      </trkpt>
      <trkpt lat="42.91147515" lon="13.53927268">
        <ele>577.00000</ele>
        <time>2024-02-08T12:49:02Z</time>
      </trkpt>
      <trkpt lat="42.91148629" lon="13.53933144">
        <ele>578.00000</ele>
        <time>2024-02-08T12:49:03Z</time>
      </trkpt>
      <trkpt lat="42.91149635" lon="13.53939154">
        <ele>580.00000</ele>
        <time>2024-02-08T12:49:04Z</time>
      </trkpt>
      <trkpt lat="42.91150256" lon="13.53945323">
        <ele>581.00000</ele>
        <time>2024-02-08T12:49:05Z</time>
      </trkpt>
      <trkpt lat="42.91151102" lon="13.53951207">
        <ele>583.00000</ele>
        <time>2024-02-08T12:49:06Z</time>
      </trkpt>
      <trkpt lat="42.91152443" lon="13.53956772">
        <ele>584.00000</ele>
        <time>2024-02-08T12:49:07Z</time>
      </trkpt>
      <trkpt lat="42.91154438" lon="13.53961877">
        <ele>584.00000</ele>
        <time>2024-02-08T12:49:08Z</time>
      </trkpt>
      <trkpt lat="42.91157196" lon="13.53966479">
        <ele>585.00000</ele>
        <time>2024-02-08T12:49:09Z</time>
      </trkpt>
      <trkpt lat="42.91160641" lon="13.53970678">
        <ele>585.00000</ele>
        <time>2024-02-08T12:49:10Z</time>
      </trkpt>
      <trkpt lat="42.91164262" lon="13.53974743">
        <ele>585.00000</ele>
        <time>2024-02-08T12:49:11Z</time>
      </trkpt>
      <trkpt lat="42.91168126" lon="13.53978515">
        <ele>584.00000</ele>
        <time>2024-02-08T12:49:12Z</time>
      </trkpt>
      <trkpt lat="42.91171990" lon="13.53982027">
        <ele>584.00000</ele>
        <time>2024-02-08T12:49:13Z</time>
      </trkpt>
      <trkpt lat="42.91175778" lon="13.53985598">
        <ele>583.00000</ele>
        <time>2024-02-08T12:49:14Z</time>
      </trkpt>
      <trkpt lat="42.91179676" lon="13.53988900">
        <ele>583.00000</ele>
        <time>2024-02-08T12:49:15Z</time>
      </trkpt>
      <trkpt lat="42.91183993" lon="13.53991733">
        <ele>582.00000</ele>
        <time>2024-02-08T12:49:16Z</time>
      </trkpt>
      <trkpt lat="42.91188217" lon="13.53994491">
        <ele>582.00000</ele>
        <time>2024-02-08T12:49:17Z</time>
      </trkpt>
      <trkpt lat="42.91192165" lon="13.53997400">
        <ele>582.00000</ele>
        <time>2024-02-08T12:49:18Z</time>
      </trkpt>
      <trkpt lat="42.91196021" lon="13.54000367">
        <ele>581.00000</ele>
        <time>2024-02-08T12:49:19Z</time>
      </trkpt>
      <trkpt lat="42.91199583" lon="13.54003694">
        <ele>581.00000</ele>
        <time>2024-02-08T12:49:20Z</time>
      </trkpt>
      <trkpt lat="42.91203020" lon="13.54007047">
        <ele>580.00000</ele>
        <time>2024-02-08T12:49:21Z</time>
      </trkpt>
      <trkpt lat="42.91206481" lon="13.54010257">
        <ele>580.00000</ele>
        <time>2024-02-08T12:49:22Z</time>
      </trkpt>
      <trkpt lat="42.91209683" lon="13.54014088">
        <ele>580.00000</ele>
        <time>2024-02-08T12:49:23Z</time>
      </trkpt>
      <trkpt lat="42.91212282" lon="13.54018229">
        <ele>580.00000</ele>
        <time>2024-02-08T12:49:24Z</time>
      </trkpt>
      <trkpt lat="42.91214277" lon="13.54022822">
        <ele>580.00000</ele>
        <time>2024-02-08T12:49:25Z</time>
      </trkpt>
      <trkpt lat="42.91216213" lon="13.54027608">
        <ele>580.00000</ele>
        <time>2024-02-08T12:49:26Z</time>
      </trkpt>
      <trkpt lat="42.91218074" lon="13.54032587">
        <ele>580.00000</ele>
        <time>2024-02-08T12:49:27Z</time>
      </trkpt>
      <trkpt lat="42.91219884" lon="13.54037423">
        <ele>581.00000</ele>
        <time>2024-02-08T12:49:28Z</time>
      </trkpt>
      <trkpt lat="42.91221686" lon="13.54042251">
        <ele>581.00000</ele>
        <time>2024-02-08T12:49:29Z</time>
      </trkpt>
      <trkpt lat="42.91223413" lon="13.54047146">
        <ele>581.00000</ele>
        <time>2024-02-08T12:49:30Z</time>
      </trkpt>
      <trkpt lat="42.91225257" lon="13.54052159">
        <ele>581.00000</ele>
        <time>2024-02-08T12:49:31Z</time>
      </trkpt>
      <trkpt lat="42.91227118" lon="13.54057062">
        <ele>582.00000</ele>
        <time>2024-02-08T12:49:32Z</time>
      </trkpt>
      <trkpt lat="42.91228995" lon="13.54062083">
        <ele>582.00000</ele>
        <time>2024-02-08T12:49:33Z</time>
      </trkpt>
      <trkpt lat="42.91230957" lon="13.54067112">
        <ele>583.00000</ele>
        <time>2024-02-08T12:49:34Z</time>
      </trkpt>
      <trkpt lat="42.91232516" lon="13.54072309">
        <ele>583.00000</ele>
        <time>2024-02-08T12:49:35Z</time>
      </trkpt>
      <trkpt lat="42.91233865" lon="13.54077556">
        <ele>584.00000</ele>
        <time>2024-02-08T12:49:36Z</time>
      </trkpt>
      <trkpt lat="42.91234879" lon="13.54082669">
        <ele>584.00000</ele>
        <time>2024-02-08T12:49:37Z</time>
      </trkpt>
      <trkpt lat="42.91235500" lon="13.54088016">
        <ele>585.00000</ele>
        <time>2024-02-08T12:49:38Z</time>
      </trkpt>
      <trkpt lat="42.91235785" lon="13.54093381">
        <ele>586.00000</ele>
        <time>2024-02-08T12:49:39Z</time>
      </trkpt>
      <trkpt lat="42.91235877" lon="13.54098636">
        <ele>587.00000</ele>
        <time>2024-02-08T12:49:40Z</time>
      </trkpt>
      <trkpt lat="42.91235810" lon="13.54103967">
        <ele>588.00000</ele>
        <time>2024-02-08T12:49:41Z</time>
      </trkpt>
      <trkpt lat="42.91235500" lon="13.54109700">
        <ele>590.00000</ele>
        <time>2024-02-08T12:49:42Z</time>
      </trkpt>
      <trkpt lat="42.91235248" lon="13.54115232">
        <ele>591.00000</ele>
        <time>2024-02-08T12:49:43Z</time>
      </trkpt>
      <trkpt lat="42.91235013" lon="13.54120714">
        <ele>592.00000</ele>
        <time>2024-02-08T12:49:44Z</time>
      </trkpt>
      <trkpt lat="42.91234569" lon="13.54126330">
        <ele>593.00000</ele>
        <time>2024-02-08T12:49:45Z</time>
      </trkpt>
      <trkpt lat="42.91234142" lon="13.54132172">
        <ele>594.00000</ele>
        <time>2024-02-08T12:49:46Z</time>
      </trkpt>
      <trkpt lat="42.91233697" lon="13.54138216">
        <ele>595.00000</ele>
        <time>2024-02-08T12:49:47Z</time>
      </trkpt>
      <trkpt lat="42.91233144" lon="13.54144267">
        <ele>596.00000</ele>
        <time>2024-02-08T12:49:48Z</time>
      </trkpt>
      <trkpt lat="42.91232549" lon="13.54150252">
        <ele>596.00000</ele>
        <time>2024-02-08T12:49:49Z</time>
      </trkpt>
      <trkpt lat="42.91232306" lon="13.54155977">
        <ele>596.00000</ele>
        <time>2024-02-08T12:49:50Z</time>
      </trkpt>
      <trkpt lat="42.91232239" lon="13.54161484">
        <ele>595.00000</ele>
        <time>2024-02-08T12:49:51Z</time>
      </trkpt>
      <trkpt lat="42.91231920" lon="13.54167066">
        <ele>595.00000</ele>
        <time>2024-02-08T12:49:52Z</time>
      </trkpt>
      <trkpt lat="42.91231979" lon="13.54172715">
        <ele>596.00000</ele>
        <time>2024-02-08T12:49:53Z</time>
      </trkpt>
      <trkpt lat="42.91232256" lon="13.54178273">
        <ele>596.00000</ele>
        <time>2024-02-08T12:49:54Z</time>
      </trkpt>
      <trkpt lat="42.91232884" lon="13.54183620">
        <ele>596.00000</ele>
        <time>2024-02-08T12:49:55Z</time>
      </trkpt>
      <trkpt lat="42.91234091" lon="13.54188675">
        <ele>597.00000</ele>
        <time>2024-02-08T12:49:56Z</time>
      </trkpt>
      <trkpt lat="42.91235558" lon="13.54193285">
        <ele>597.00000</ele>
        <time>2024-02-08T12:49:57Z</time>
      </trkpt>
      <trkpt lat="42.91237461" lon="13.54197710">
        <ele>597.00000</ele>
        <time>2024-02-08T12:49:58Z</time>
      </trkpt>
      <trkpt lat="42.91239816" lon="13.54201893">
        <ele>597.00000</ele>
        <time>2024-02-08T12:49:59Z</time>
      </trkpt>
      <trkpt lat="42.91242733" lon="13.54205539">
        <ele>597.00000</ele>
        <time>2024-02-08T12:50:00Z</time>
      </trkpt>
      <trkpt lat="42.91245952" lon="13.54208447">
        <ele>597.00000</ele>
        <time>2024-02-08T12:50:01Z</time>
      </trkpt>
      <trkpt lat="42.91249170" lon="13.54210652">
        <ele>597.00000</ele>
        <time>2024-02-08T12:50:02Z</time>
      </trkpt>
      <trkpt lat="42.91253026" lon="13.54212320">
        <ele>598.00000</ele>
        <time>2024-02-08T12:50:03Z</time>
      </trkpt>
      <trkpt lat="42.91257259" lon="13.54212814">
        <ele>598.00000</ele>
        <time>2024-02-08T12:50:04Z</time>
      </trkpt>
      <trkpt lat="42.91261500" lon="13.54212664">
        <ele>598.00000</ele>
        <time>2024-02-08T12:50:05Z</time>
      </trkpt>
      <trkpt lat="42.91265817" lon="13.54212043">
        <ele>598.00000</ele>
        <time>2024-02-08T12:50:06Z</time>
      </trkpt>
      <trkpt lat="42.91269974" lon="13.54211063">
        <ele>598.00000</ele>
        <time>2024-02-08T12:50:07Z</time>
      </trkpt>
      <trkpt lat="42.91274392" lon="13.54209529">
        <ele>598.00000</ele>
        <time>2024-02-08T12:50:08Z</time>
      </trkpt>
      <trkpt lat="42.91278960" lon="13.54207576">
        <ele>597.00000</ele>
        <time>2024-02-08T12:50:09Z</time>
      </trkpt>
      <trkpt lat="42.91283503" lon="13.54205455">
        <ele>597.00000</ele>
        <time>2024-02-08T12:50:10Z</time>
      </trkpt>
      <trkpt lat="42.91287853" lon="13.54203385">
        <ele>596.00000</ele>
        <time>2024-02-08T12:50:11Z</time>
      </trkpt>
      <trkpt lat="42.91292320" lon="13.54201356">
        <ele>595.00000</ele>
        <time>2024-02-08T12:50:12Z</time>
      </trkpt>
      <trkpt lat="42.91296863" lon="13.54199470">
        <ele>595.00000</ele>
        <time>2024-02-08T12:50:13Z</time>
      </trkpt>
      <trkpt lat="42.91301163" lon="13.54198054">
        <ele>595.00000</ele>
        <time>2024-02-08T12:50:14Z</time>
      </trkpt>
      <trkpt lat="42.91305296" lon="13.54197677">
        <ele>594.00000</ele>
        <time>2024-02-08T12:50:15Z</time>
      </trkpt>
      <trkpt lat="42.91309453" lon="13.54198540">
        <ele>594.00000</ele>
        <time>2024-02-08T12:50:16Z</time>
      </trkpt>
      <trkpt lat="42.91313619" lon="13.54201306">
        <ele>595.00000</ele>
        <time>2024-02-08T12:50:17Z</time>
      </trkpt>
      <trkpt lat="42.91316988" lon="13.54205857">
        <ele>596.00000</ele>
        <time>2024-02-08T12:50:18Z</time>
      </trkpt>
      <trkpt lat="42.91318321" lon="13.54211314">
        <ele>597.00000</ele>
        <time>2024-02-08T12:50:19Z</time>
      </trkpt>
      <trkpt lat="42.91318179" lon="13.54217131">
        <ele>599.00000</ele>
        <time>2024-02-08T12:50:20Z</time>
      </trkpt>
      <trkpt lat="42.91316393" lon="13.54222336">
        <ele>600.00000</ele>
        <time>2024-02-08T12:50:21Z</time>
      </trkpt>
      <trkpt lat="42.91313493" lon="13.54226326">
        <ele>602.00000</ele>
        <time>2024-02-08T12:50:22Z</time>
      </trkpt>
      <trkpt lat="42.91309654" lon="13.54228572">
        <ele>603.00000</ele>
        <time>2024-02-08T12:50:23Z</time>
      </trkpt>
      <trkpt lat="42.91304910" lon="13.54228916">
        <ele>603.00000</ele>
        <time>2024-02-08T12:50:24Z</time>
      </trkpt>
      <trkpt lat="42.91300216" lon="13.54228321">
        <ele>603.00000</ele>
        <time>2024-02-08T12:50:25Z</time>
      </trkpt>
      <trkpt lat="42.91295439" lon="13.54227324">
        <ele>603.00000</ele>
        <time>2024-02-08T12:50:26Z</time>
      </trkpt>
      <trkpt lat="42.91290862" lon="13.54226586">
        <ele>603.00000</ele>
        <time>2024-02-08T12:50:27Z</time>
      </trkpt>
      <trkpt lat="42.91286487" lon="13.54226494">
        <ele>602.00000</ele>
        <time>2024-02-08T12:50:28Z</time>
      </trkpt>
      <trkpt lat="42.91282086" lon="13.54226779">
        <ele>602.00000</ele>
        <time>2024-02-08T12:50:29Z</time>
      </trkpt>
      <trkpt lat="42.91277468" lon="13.54228120">
        <ele>602.00000</ele>
        <time>2024-02-08T12:50:30Z</time>
      </trkpt>
      <trkpt lat="42.91273537" lon="13.54230458">
        <ele>602.00000</ele>
        <time>2024-02-08T12:50:31Z</time>
      </trkpt>
      <trkpt lat="42.91270092" lon="13.54233861">
        <ele>602.00000</ele>
        <time>2024-02-08T12:50:32Z</time>
      </trkpt>
      <trkpt lat="42.91267342" lon="13.54238413">
        <ele>602.00000</ele>
        <time>2024-02-08T12:50:33Z</time>
      </trkpt>
      <trkpt lat="42.91265331" lon="13.54243618">
        <ele>603.00000</ele>
        <time>2024-02-08T12:50:34Z</time>
      </trkpt>
      <trkpt lat="42.91264124" lon="13.54249393">
        <ele>603.00000</ele>
        <time>2024-02-08T12:50:35Z</time>
      </trkpt>
      <trkpt lat="42.91263948" lon="13.54255378">
        <ele>603.00000</ele>
        <time>2024-02-08T12:50:36Z</time>
      </trkpt>
      <trkpt lat="42.91264300" lon="13.54260960">
        <ele>603.00000</ele>
        <time>2024-02-08T12:50:37Z</time>
      </trkpt>
      <trkpt lat="42.91264601" lon="13.54266651">
        <ele>603.00000</ele>
        <time>2024-02-08T12:50:38Z</time>
      </trkpt>
      <trkpt lat="42.91265213" lon="13.54272251">
        <ele>603.00000</ele>
        <time>2024-02-08T12:50:39Z</time>
      </trkpt>
      <trkpt lat="42.91266077" lon="13.54277481">
        <ele>603.00000</ele>
        <time>2024-02-08T12:50:40Z</time>
      </trkpt>
      <trkpt lat="42.91266789" lon="13.54282996">
        <ele>603.00000</ele>
        <time>2024-02-08T12:50:41Z</time>
      </trkpt>
      <trkpt lat="42.91267820" lon="13.54288612">
        <ele>603.00000</ele>
        <time>2024-02-08T12:50:42Z</time>
      </trkpt>
      <trkpt lat="42.91269136" lon="13.54294018">
        <ele>603.00000</ele>
        <time>2024-02-08T12:50:43Z</time>
      </trkpt>
      <trkpt lat="42.91270963" lon="13.54299190">
        <ele>604.00000</ele>
        <time>2024-02-08T12:50:44Z</time>
      </trkpt>
      <trkpt lat="42.91273126" lon="13.54304303">
        <ele>605.00000</ele>
        <time>2024-02-08T12:50:45Z</time>
      </trkpt>
      <trkpt lat="42.91275531" lon="13.54309139">
        <ele>605.00000</ele>
        <time>2024-02-08T12:50:46Z</time>
      </trkpt>
      <trkpt lat="42.91278624" lon="13.54313531">
        <ele>606.00000</ele>
        <time>2024-02-08T12:50:47Z</time>
      </trkpt>
      <trkpt lat="42.91282011" lon="13.54317538">
        <ele>607.00000</ele>
        <time>2024-02-08T12:50:48Z</time>
      </trkpt>
      <trkpt lat="42.91285514" lon="13.54321620">
        <ele>609.00000</ele>
        <time>2024-02-08T12:50:49Z</time>
      </trkpt>
      <trkpt lat="42.91289068" lon="13.54325124">
        <ele>610.00000</ele>
        <time>2024-02-08T12:50:50Z</time>
      </trkpt>
      <trkpt lat="42.91292966" lon="13.54327948">
        <ele>612.00000</ele>
        <time>2024-02-08T12:50:51Z</time>
      </trkpt>
      <trkpt lat="42.91296729" lon="13.54330186">
        <ele>613.00000</ele>
        <time>2024-02-08T12:50:52Z</time>
      </trkpt>
      <trkpt lat="42.91300451" lon="13.54332969">
        <ele>615.00000</ele>
        <time>2024-02-08T12:50:53Z</time>
      </trkpt>
      <trkpt lat="42.91303996" lon="13.54336883">
        <ele>616.00000</ele>
        <time>2024-02-08T12:50:54Z</time>
      </trkpt>
      <trkpt lat="42.91306938" lon="13.54341485">
        <ele>617.00000</ele>
        <time>2024-02-08T12:50:55Z</time>
      </trkpt>
      <trkpt lat="42.91309285" lon="13.54346397">
        <ele>617.00000</ele>
        <time>2024-02-08T12:50:56Z</time>
      </trkpt>
      <trkpt lat="42.91311188" lon="13.54351493">
        <ele>617.00000</ele>
        <time>2024-02-08T12:50:57Z</time>
      </trkpt>
      <trkpt lat="42.91313242" lon="13.54356807">
        <ele>618.00000</ele>
        <time>2024-02-08T12:50:58Z</time>
      </trkpt>
      <trkpt lat="42.91315077" lon="13.54362373">
        <ele>618.00000</ele>
        <time>2024-02-08T12:50:59Z</time>
      </trkpt>
      <trkpt lat="42.91316209" lon="13.54368039">
        <ele>618.00000</ele>
        <time>2024-02-08T12:51:00Z</time>
      </trkpt>
      <trkpt lat="42.91316754" lon="13.54373965">
        <ele>618.00000</ele>
        <time>2024-02-08T12:51:01Z</time>
      </trkpt>
      <trkpt lat="42.91317231" lon="13.54380285">
        <ele>618.00000</ele>
        <time>2024-02-08T12:51:02Z</time>
      </trkpt>
      <trkpt lat="42.91317835" lon="13.54386077">
        <ele>617.00000</ele>
        <time>2024-02-08T12:51:03Z</time>
      </trkpt>
      <trkpt lat="42.91318413" lon="13.54391718">
        <ele>617.00000</ele>
        <time>2024-02-08T12:51:04Z</time>
      </trkpt>
      <trkpt lat="42.91319067" lon="13.54397392">
        <ele>617.00000</ele>
        <time>2024-02-08T12:51:05Z</time>
      </trkpt>
      <trkpt lat="42.91320358" lon="13.54402975">
        <ele>617.00000</ele>
        <time>2024-02-08T12:51:06Z</time>
      </trkpt>
      <trkpt lat="42.91321875" lon="13.54408683">
        <ele>617.00000</ele>
        <time>2024-02-08T12:51:07Z</time>
      </trkpt>
      <trkpt lat="42.91323551" lon="13.54414240">
        <ele>617.00000</ele>
        <time>2024-02-08T12:51:08Z</time>
      </trkpt>
      <trkpt lat="42.91325320" lon="13.54419789">
        <ele>617.00000</ele>
        <time>2024-02-08T12:51:09Z</time>
      </trkpt>
      <trkpt lat="42.91327399" lon="13.54425145">
        <ele>618.00000</ele>
        <time>2024-02-08T12:51:10Z</time>
      </trkpt>
      <trkpt lat="42.91330173" lon="13.54429679">
        <ele>619.00000</ele>
        <time>2024-02-08T12:51:11Z</time>
      </trkpt>
      <trkpt lat="42.91333350" lon="13.54433795">
        <ele>621.00000</ele>
        <time>2024-02-08T12:51:12Z</time>
      </trkpt>
      <trkpt lat="42.91336527" lon="13.54438137">
        <ele>622.00000</ele>
        <time>2024-02-08T12:51:13Z</time>
      </trkpt>
      <trkpt lat="42.91339511" lon="13.54442621">
        <ele>623.00000</ele>
        <time>2024-02-08T12:51:14Z</time>
      </trkpt>
      <trkpt lat="42.91342520" lon="13.54447005">
        <ele>624.00000</ele>
        <time>2024-02-08T12:51:15Z</time>
      </trkpt>
      <trkpt lat="42.91345529" lon="13.54451196">
        <ele>624.00000</ele>
        <time>2024-02-08T12:51:16Z</time>
      </trkpt>
      <trkpt lat="42.91348286" lon="13.54455303">
        <ele>625.00000</ele>
        <time>2024-02-08T12:51:17Z</time>
      </trkpt>
      <trkpt lat="42.91351061" lon="13.54459829">
        <ele>626.00000</ele>
        <time>2024-02-08T12:51:18Z</time>
      </trkpt>
      <trkpt lat="42.91353500" lon="13.54464800">
        <ele>626.00000</ele>
        <time>2024-02-08T12:51:19Z</time>
      </trkpt>
      <trkpt lat="42.91355570" lon="13.54469921">
        <ele>627.00000</ele>
        <time>2024-02-08T12:51:20Z</time>
      </trkpt>
      <trkpt lat="42.91357129" lon="13.54475361">
        <ele>627.00000</ele>
        <time>2024-02-08T12:51:21Z</time>
      </trkpt>
      <trkpt lat="42.91358739" lon="13.54481019">
        <ele>627.00000</ele>
        <time>2024-02-08T12:51:22Z</time>
      </trkpt>
      <trkpt lat="42.91359988" lon="13.54486903">
        <ele>628.00000</ele>
        <time>2024-02-08T12:51:23Z</time>
      </trkpt>
      <trkpt lat="42.91360859" lon="13.54492736">
        <ele>628.00000</ele>
        <time>2024-02-08T12:51:24Z</time>
      </trkpt>
      <trkpt lat="42.91361421" lon="13.54498579">
        <ele>628.00000</ele>
        <time>2024-02-08T12:51:25Z</time>
      </trkpt>
      <trkpt lat="42.91361773" lon="13.54504354">
        <ele>628.00000</ele>
        <time>2024-02-08T12:51:26Z</time>
      </trkpt>
      <trkpt lat="42.91362041" lon="13.54510154">
        <ele>628.00000</ele>
        <time>2024-02-08T12:51:27Z</time>
      </trkpt>
      <trkpt lat="42.91362276" lon="13.54515896">
        <ele>628.00000</ele>
        <time>2024-02-08T12:51:28Z</time>
      </trkpt>
      <trkpt lat="42.91362066" lon="13.54521621">
        <ele>628.00000</ele>
        <time>2024-02-08T12:51:29Z</time>
      </trkpt>
      <trkpt lat="42.91361622" lon="13.54527060">
        <ele>628.00000</ele>
        <time>2024-02-08T12:51:30Z</time>
      </trkpt>
      <trkpt lat="42.91360993" lon="13.54532483">
        <ele>628.00000</ele>
        <time>2024-02-08T12:51:31Z</time>
      </trkpt>
      <trkpt lat="42.91360189" lon="13.54537848">
        <ele>627.00000</ele>
        <time>2024-02-08T12:51:32Z</time>
      </trkpt>
      <trkpt lat="42.91358931" lon="13.54543070">
        <ele>627.00000</ele>
        <time>2024-02-08T12:51:33Z</time>
      </trkpt>
      <trkpt lat="42.91357607" lon="13.54548292">
        <ele>626.00000</ele>
        <time>2024-02-08T12:51:34Z</time>
      </trkpt>
      <trkpt lat="42.91355964" lon="13.54553514">
        <ele>626.00000</ele>
        <time>2024-02-08T12:51:35Z</time>
      </trkpt>
      <trkpt lat="42.91354321" lon="13.54558895">
        <ele>625.00000</ele>
        <time>2024-02-08T12:51:36Z</time>
      </trkpt>
      <trkpt lat="42.91352662" lon="13.54564184">
        <ele>624.00000</ele>
        <time>2024-02-08T12:51:37Z</time>
      </trkpt>
      <trkpt lat="42.91351128" lon="13.54569297">
        <ele>624.00000</ele>
        <time>2024-02-08T12:51:38Z</time>
      </trkpt>
      <trkpt lat="42.91349812" lon="13.54574318">
        <ele>623.00000</ele>
        <time>2024-02-08T12:51:39Z</time>
      </trkpt>
      <trkpt lat="42.91348580" lon="13.54579548">
        <ele>622.00000</ele>
        <time>2024-02-08T12:51:40Z</time>
      </trkpt>
      <trkpt lat="42.91347758" lon="13.54585046">
        <ele>622.00000</ele>
        <time>2024-02-08T12:51:41Z</time>
      </trkpt>
      <trkpt lat="42.91347918" lon="13.54590377">
        <ele>622.00000</ele>
        <time>2024-02-08T12:51:42Z</time>
      </trkpt>
      <trkpt lat="42.91349192" lon="13.54595381">
        <ele>622.00000</ele>
        <time>2024-02-08T12:51:43Z</time>
      </trkpt>
      <trkpt lat="42.91351606" lon="13.54599505">
        <ele>624.00000</ele>
        <time>2024-02-08T12:51:44Z</time>
      </trkpt>
      <trkpt lat="42.91354799" lon="13.54602590">
        <ele>625.00000</ele>
        <time>2024-02-08T12:51:45Z</time>
      </trkpt>
      <trkpt lat="42.91358504" lon="13.54603654">
        <ele>627.00000</ele>
        <time>2024-02-08T12:51:46Z</time>
      </trkpt>
      <trkpt lat="42.91361823" lon="13.54602933">
        <ele>629.00000</ele>
        <time>2024-02-08T12:51:47Z</time>
      </trkpt>
      <trkpt lat="42.91365478" lon="13.54600477">
        <ele>631.00000</ele>
        <time>2024-02-08T12:51:48Z</time>
      </trkpt>
      <trkpt lat="42.91368763" lon="13.54597083">
        <ele>633.00000</ele>
        <time>2024-02-08T12:51:49Z</time>
      </trkpt>
      <trkpt lat="42.91371504" lon="13.54592783">
        <ele>635.00000</ele>
        <time>2024-02-08T12:51:50Z</time>
      </trkpt>
      <trkpt lat="42.91373751" lon="13.54587863">
        <ele>636.00000</ele>
        <time>2024-02-08T12:51:51Z</time>
      </trkpt>
      <trkpt lat="42.91375368" lon="13.54582817">
        <ele>637.00000</ele>
        <time>2024-02-08T12:51:52Z</time>
      </trkpt>
      <trkpt lat="42.91376994" lon="13.54577276">
        <ele>637.00000</ele>
        <time>2024-02-08T12:51:53Z</time>
      </trkpt>
      <trkpt lat="42.91378210" lon="13.54571367">
        <ele>638.00000</ele>
        <time>2024-02-08T12:51:54Z</time>
      </trkpt>
      <trkpt lat="42.91379710" lon="13.54565743">
        <ele>638.00000</ele>
        <time>2024-02-08T12:51:55Z</time>
      </trkpt>
      <trkpt lat="42.91381462" lon="13.54559750">
        <ele>639.00000</ele>
        <time>2024-02-08T12:51:56Z</time>
      </trkpt>
      <trkpt lat="42.91382845" lon="13.54553832">
        <ele>639.00000</ele>
        <time>2024-02-08T12:51:57Z</time>
      </trkpt>
      <trkpt lat="42.91383817" lon="13.54546993">
        <ele>639.00000</ele>
        <time>2024-02-08T12:51:58Z</time>
      </trkpt>
      <trkpt lat="42.91384790" lon="13.54541502">
        <ele>639.00000</ele>
        <time>2024-02-08T12:51:59Z</time>
      </trkpt>
      <trkpt lat="42.91385896" lon="13.54535912">
        <ele>639.00000</ele>
        <time>2024-02-08T12:52:00Z</time>
      </trkpt>
      <trkpt lat="42.91386810" lon="13.54531168">
        <ele>639.00000</ele>
        <time>2024-02-08T12:52:01Z</time>
      </trkpt>
      <trkpt lat="42.91387975" lon="13.54524328">
        <ele>639.00000</ele>
        <time>2024-02-08T12:52:02Z</time>
      </trkpt>
      <trkpt lat="42.91388972" lon="13.54518578">
        <ele>639.00000</ele>
        <time>2024-02-08T12:52:03Z</time>
      </trkpt>
      <trkpt lat="42.91389676" lon="13.54512845">
        <ele>639.00000</ele>
        <time>2024-02-08T12:52:04Z</time>
      </trkpt>
      <trkpt lat="42.91390523" lon="13.54508017">
        <ele>639.00000</ele>
        <time>2024-02-08T12:52:05Z</time>
      </trkpt>
      <trkpt lat="42.91391319" lon="13.54500624">
        <ele>638.00000</ele>
        <time>2024-02-08T12:52:06Z</time>
      </trkpt>
      <trkpt lat="42.91391646" lon="13.54494689">
        <ele>638.00000</ele>
        <time>2024-02-08T12:52:07Z</time>
      </trkpt>
      <trkpt lat="42.91392132" lon="13.54489099">
        <ele>639.00000</ele>
        <time>2024-02-08T12:52:08Z</time>
      </trkpt>
      <trkpt lat="42.91392384" lon="13.54484338">
        <ele>639.00000</ele>
        <time>2024-02-08T12:52:09Z</time>
      </trkpt>
      <trkpt lat="42.91392400" lon="13.54478521">
        <ele>639.00000</ele>
        <time>2024-02-08T12:52:10Z</time>
      </trkpt>
      <trkpt lat="42.91392040" lon="13.54472938">
        <ele>639.00000</ele>
        <time>2024-02-08T12:52:11Z</time>
      </trkpt>
      <trkpt lat="42.91391554" lon="13.54467113">
        <ele>638.00000</ele>
        <time>2024-02-08T12:52:12Z</time>
      </trkpt>
      <trkpt lat="42.91390942" lon="13.54461346">
        <ele>638.00000</ele>
        <time>2024-02-08T12:52:13Z</time>
      </trkpt>
      <trkpt lat="42.91390280" lon="13.54455630">
        <ele>637.00000</ele>
        <time>2024-02-08T12:52:14Z</time>
      </trkpt>
      <trkpt lat="42.91389358" lon="13.54449670">
        <ele>637.00000</ele>
        <time>2024-02-08T12:52:15Z</time>
      </trkpt>
      <trkpt lat="42.91388226" lon="13.54443853">
        <ele>636.00000</ele>
        <time>2024-02-08T12:52:16Z</time>
      </trkpt>
      <trkpt lat="42.91386608" lon="13.54438170">
        <ele>636.00000</ele>
        <time>2024-02-08T12:52:17Z</time>
      </trkpt>
      <trkpt lat="42.91384974" lon="13.54432487">
        <ele>636.00000</ele>
        <time>2024-02-08T12:52:18Z</time>
      </trkpt>
      <trkpt lat="42.91384404" lon="13.54426897">
        <ele>636.00000</ele>
        <time>2024-02-08T12:52:19Z</time>
      </trkpt>
      <trkpt lat="42.91383323" lon="13.54421524">
        <ele>635.00000</ele>
        <time>2024-02-08T12:52:20Z</time>
      </trkpt>
      <trkpt lat="42.91382719" lon="13.54416319">
        <ele>635.00000</ele>
        <time>2024-02-08T12:52:21Z</time>
      </trkpt>
      <trkpt lat="42.91382317" lon="13.54411424">
        <ele>635.00000</ele>
        <time>2024-02-08T12:52:22Z</time>
      </trkpt>
      <trkpt lat="42.91382753" lon="13.54406814">
        <ele>635.00000</ele>
        <time>2024-02-08T12:52:23Z</time>
      </trkpt>
      <trkpt lat="42.91384731" lon="13.54402136">
        <ele>635.00000</ele>
        <time>2024-02-08T12:52:24Z</time>
      </trkpt>
      <trkpt lat="42.91388000" lon="13.54398046">
        <ele>636.00000</ele>
        <time>2024-02-08T12:52:25Z</time>
      </trkpt>
      <trkpt lat="42.91391998" lon="13.54395230">
        <ele>636.00000</ele>
        <time>2024-02-08T12:52:26Z</time>
      </trkpt>
      <trkpt lat="42.91396080" lon="13.54393805">
        <ele>637.00000</ele>
        <time>2024-02-08T12:52:27Z</time>
      </trkpt>
      <trkpt lat="42.91400196" lon="13.54393746">
        <ele>638.00000</ele>
        <time>2024-02-08T12:52:28Z</time>
      </trkpt>
      <trkpt lat="42.91404378" lon="13.54394735">
        <ele>639.00000</ele>
        <time>2024-02-08T12:52:29Z</time>
      </trkpt>
      <trkpt lat="42.91408318" lon="13.54396772">
        <ele>640.00000</ele>
        <time>2024-02-08T12:52:30Z</time>
      </trkpt>
      <trkpt lat="42.91411779" lon="13.54400083">
        <ele>641.00000</ele>
        <time>2024-02-08T12:52:31Z</time>
      </trkpt>
      <trkpt lat="42.91414956" lon="13.54404014">
        <ele>643.00000</ele>
        <time>2024-02-08T12:52:32Z</time>
      </trkpt>
      <trkpt lat="42.91417798" lon="13.54408130">
        <ele>644.00000</ele>
        <time>2024-02-08T12:52:33Z</time>
      </trkpt>
      <trkpt lat="42.91420312" lon="13.54412782">
        <ele>645.00000</ele>
        <time>2024-02-08T12:52:34Z</time>
      </trkpt>
      <trkpt lat="42.91422835" lon="13.54417442">
        <ele>646.00000</ele>
        <time>2024-02-08T12:52:35Z</time>
      </trkpt>
      <trkpt lat="42.91425350" lon="13.54422530">
        <ele>647.00000</ele>
        <time>2024-02-08T12:52:36Z</time>
      </trkpt>
      <trkpt lat="42.91427772" lon="13.54427500">
        <ele>648.00000</ele>
        <time>2024-02-08T12:52:37Z</time>
      </trkpt>
      <trkpt lat="42.91430261" lon="13.54432261">
        <ele>649.00000</ele>
        <time>2024-02-08T12:52:38Z</time>
      </trkpt>
      <trkpt lat="42.91432810" lon="13.54436846">
        <ele>650.00000</ele>
        <time>2024-02-08T12:52:39Z</time>
      </trkpt>
      <trkpt lat="42.91435173" lon="13.54441205">
        <ele>651.00000</ele>
        <time>2024-02-08T12:52:40Z</time>
      </trkpt>
      <trkpt lat="42.91437294" lon="13.54445563">
        <ele>652.00000</ele>
        <time>2024-02-08T12:52:41Z</time>
      </trkpt>
      <trkpt lat="42.91439632" lon="13.54450223">
        <ele>653.00000</ele>
        <time>2024-02-08T12:52:42Z</time>
      </trkpt>
      <trkpt lat="42.91442474" lon="13.54454800">
        <ele>653.00000</ele>
        <time>2024-02-08T12:52:43Z</time>
      </trkpt>
      <trkpt lat="42.91445307" lon="13.54459259">
        <ele>654.00000</ele>
        <time>2024-02-08T12:52:44Z</time>
      </trkpt>
      <trkpt lat="42.91447511" lon="13.54463408">
        <ele>654.00000</ele>
        <time>2024-02-08T12:52:45Z</time>
      </trkpt>
      <trkpt lat="42.91449699" lon="13.54466912">
        <ele>654.00000</ele>
        <time>2024-02-08T12:52:46Z</time>
      </trkpt>
      <trkpt lat="42.91451560" lon="13.54470139">
        <ele>654.00000</ele>
        <time>2024-02-08T12:52:47Z</time>
      </trkpt>
      <trkpt lat="42.91453680" lon="13.54472570">
        <ele>655.00000</ele>
        <time>2024-02-08T12:52:48Z</time>
      </trkpt>
      <trkpt lat="42.91456975" lon="13.54474171">
        <ele>655.00000</ele>
        <time>2024-02-08T12:52:49Z</time>
      </trkpt>
      <trkpt lat="42.91460227" lon="13.54475495">
        <ele>655.00000</ele>
        <time>2024-02-08T12:52:50Z</time>
      </trkpt>
      <trkpt lat="42.91463739" lon="13.54476132">
        <ele>655.00000</ele>
        <time>2024-02-08T12:52:51Z</time>
      </trkpt>
      <trkpt lat="42.91467930" lon="13.54475889">
        <ele>655.00000</ele>
        <time>2024-02-08T12:52:52Z</time>
      </trkpt>
      <trkpt lat="42.91472674" lon="13.54473475">
        <ele>655.00000</ele>
        <time>2024-02-08T12:52:53Z</time>
      </trkpt>
      <trkpt lat="42.91476479" lon="13.54468831">
        <ele>654.00000</ele>
        <time>2024-02-08T12:52:54Z</time>
      </trkpt>
      <trkpt lat="42.91479019" lon="13.54463123">
        <ele>653.00000</ele>
        <time>2024-02-08T12:52:55Z</time>
      </trkpt>
      <trkpt lat="42.91481852" lon="13.54456828">
        <ele>652.00000</ele>
        <time>2024-02-08T12:52:56Z</time>
      </trkpt>
      <trkpt lat="42.91484199" lon="13.54450567">
        <ele>651.00000</ele>
        <time>2024-02-08T12:52:57Z</time>
      </trkpt>
      <trkpt lat="42.91484543" lon="13.54445178">
        <ele>651.00000</ele>
        <time>2024-02-08T12:52:58Z</time>
      </trkpt>
      <trkpt lat="42.91484350" lon="13.54439838">
        <ele>650.00000</ele>
        <time>2024-02-08T12:52:59Z</time>
      </trkpt>
      <trkpt lat="42.91484325" lon="13.54434499">
        <ele>649.00000</ele>
        <time>2024-02-08T12:53:00Z</time>
      </trkpt>
      <trkpt lat="42.91484258" lon="13.54429545">
        <ele>649.00000</ele>
        <time>2024-02-08T12:53:01Z</time>
      </trkpt>
      <trkpt lat="42.91485624" lon="13.54424860">
        <ele>648.00000</ele>
        <time>2024-02-08T12:53:02Z</time>
      </trkpt>
      <trkpt lat="42.91487828" lon="13.54420225">
        <ele>648.00000</ele>
        <time>2024-02-08T12:53:03Z</time>
      </trkpt>
      <trkpt lat="42.91490997" lon="13.54416084">
        <ele>647.00000</ele>
        <time>2024-02-08T12:53:04Z</time>
      </trkpt>
      <trkpt lat="42.91494928" lon="13.54412052">
        <ele>647.00000</ele>
        <time>2024-02-08T12:53:05Z</time>
      </trkpt>
      <trkpt lat="42.91498683" lon="13.54408725">
        <ele>647.00000</ele>
        <time>2024-02-08T12:53:06Z</time>
      </trkpt>
      <trkpt lat="42.91502949" lon="13.54407140">
        <ele>648.00000</ele>
        <time>2024-02-08T12:53:07Z</time>
      </trkpt>
      <trkpt lat="42.91507811" lon="13.54406068">
        <ele>649.00000</ele>
        <time>2024-02-08T12:53:08Z</time>
      </trkpt>
      <trkpt lat="42.91513049" lon="13.54405079">
        <ele>651.00000</ele>
        <time>2024-02-08T12:53:09Z</time>
      </trkpt>
      <trkpt lat="42.91518204" lon="13.54403360">
        <ele>652.00000</ele>
        <time>2024-02-08T12:53:10Z</time>
      </trkpt>
      <trkpt lat="42.91522345" lon="13.54402069">
        <ele>652.00000</ele>
        <time>2024-02-08T12:53:11Z</time>
      </trkpt>
      <trkpt lat="42.91526108" lon="13.54401147">
        <ele>653.00000</ele>
        <time>2024-02-08T12:53:12Z</time>
      </trkpt>
      <trkpt lat="42.91529973" lon="13.54400762">
        <ele>654.00000</ele>
        <time>2024-02-08T12:53:13Z</time>
      </trkpt>
      <trkpt lat="42.91534096" lon="13.54400385">
        <ele>654.00000</ele>
        <time>2024-02-08T12:53:14Z</time>
      </trkpt>
      <trkpt lat="42.91538530" lon="13.54399899">
        <ele>654.00000</ele>
        <time>2024-02-08T12:53:15Z</time>
      </trkpt>
      <trkpt lat="42.91542864" lon="13.54399513">
        <ele>655.00000</ele>
        <time>2024-02-08T12:53:16Z</time>
      </trkpt>
      <trkpt lat="42.91547122" lon="13.54399102">
        <ele>655.00000</ele>
        <time>2024-02-08T12:53:17Z</time>
      </trkpt>
      <trkpt lat="42.91551355" lon="13.54398968">
        <ele>655.00000</ele>
        <time>2024-02-08T12:53:18Z</time>
      </trkpt>
      <trkpt lat="42.91555814" lon="13.54398717">
        <ele>656.00000</ele>
        <time>2024-02-08T12:53:19Z</time>
      </trkpt>
      <trkpt lat="42.91560332" lon="13.54398381">
        <ele>655.00000</ele>
        <time>2024-02-08T12:53:20Z</time>
      </trkpt>
      <trkpt lat="42.91564506" lon="13.54398138">
        <ele>655.00000</ele>
        <time>2024-02-08T12:53:21Z</time>
      </trkpt>
      <trkpt lat="42.91569049" lon="13.54397912">
        <ele>655.00000</ele>
        <time>2024-02-08T12:53:22Z</time>
      </trkpt>
      <trkpt lat="42.91573282" lon="13.54398080">
        <ele>655.00000</ele>
        <time>2024-02-08T12:53:23Z</time>
      </trkpt>
      <trkpt lat="42.91577473" lon="13.54398331">
        <ele>655.00000</ele>
        <time>2024-02-08T12:53:24Z</time>
      </trkpt>
      <trkpt lat="42.91581680" lon="13.54398658">
        <ele>655.00000</ele>
        <time>2024-02-08T12:53:25Z</time>
      </trkpt>
      <trkpt lat="42.91585771" lon="13.54399245">
        <ele>655.00000</ele>
        <time>2024-02-08T12:53:26Z</time>
      </trkpt>
      <trkpt lat="42.91589811" lon="13.54400049">
        <ele>655.00000</ele>
        <time>2024-02-08T12:53:27Z</time>
      </trkpt>
      <trkpt lat="42.91593851" lon="13.54400988">
        <ele>655.00000</ele>
        <time>2024-02-08T12:53:28Z</time>
      </trkpt>
      <trkpt lat="42.91597950" lon="13.54401717">
        <ele>655.00000</ele>
        <time>2024-02-08T12:53:29Z</time>
      </trkpt>
      <trkpt lat="42.91602116" lon="13.54402564">
        <ele>655.00000</ele>
        <time>2024-02-08T12:53:30Z</time>
      </trkpt>
      <trkpt lat="42.91606047" lon="13.54403779">
        <ele>655.00000</ele>
        <time>2024-02-08T12:53:31Z</time>
      </trkpt>
      <trkpt lat="42.91609902" lon="13.54404869">
        <ele>655.00000</ele>
        <time>2024-02-08T12:53:32Z</time>
      </trkpt>
      <trkpt lat="42.91613750" lon="13.54405632">
        <ele>656.00000</ele>
        <time>2024-02-08T12:53:33Z</time>
      </trkpt>
      <trkpt lat="42.91617647" lon="13.54406378">
        <ele>656.00000</ele>
        <time>2024-02-08T12:53:34Z</time>
      </trkpt>
      <trkpt lat="42.91621687" lon="13.54407275">
        <ele>657.00000</ele>
        <time>2024-02-08T12:53:35Z</time>
      </trkpt>
      <trkpt lat="42.91625711" lon="13.54408037">
        <ele>658.00000</ele>
        <time>2024-02-08T12:53:36Z</time>
      </trkpt>
      <trkpt lat="42.91629625" lon="13.54408792">
        <ele>658.00000</ele>
        <time>2024-02-08T12:53:37Z</time>
      </trkpt>
      <trkpt lat="42.91633749" lon="13.54409554">
        <ele>659.00000</ele>
        <time>2024-02-08T12:53:38Z</time>
      </trkpt>
      <trkpt lat="42.91637789" lon="13.54410451">
        <ele>659.00000</ele>
        <time>2024-02-08T12:53:39Z</time>
      </trkpt>
      <trkpt lat="42.91641821" lon="13.54411507">
        <ele>660.00000</ele>
        <time>2024-02-08T12:53:40Z</time>
      </trkpt>
      <trkpt lat="42.91645643" lon="13.54412790">
        <ele>661.00000</ele>
        <time>2024-02-08T12:53:41Z</time>
      </trkpt>
      <trkpt lat="42.91649683" lon="13.54413737">
        <ele>662.00000</ele>
        <time>2024-02-08T12:53:42Z</time>
      </trkpt>
      <trkpt lat="42.91654025" lon="13.54414642">
        <ele>662.00000</ele>
        <time>2024-02-08T12:53:43Z</time>
      </trkpt>
      <trkpt lat="42.91658325" lon="13.54415807">
        <ele>663.00000</ele>
        <time>2024-02-08T12:53:44Z</time>
      </trkpt>
      <trkpt lat="42.91662734" lon="13.54417241">
        <ele>664.00000</ele>
        <time>2024-02-08T12:53:45Z</time>
      </trkpt>
      <trkpt lat="42.91666690" lon="13.54419001">
        <ele>665.00000</ele>
        <time>2024-02-08T12:53:46Z</time>
      </trkpt>
      <trkpt lat="42.91670663" lon="13.54421105">
        <ele>665.00000</ele>
        <time>2024-02-08T12:53:47Z</time>
      </trkpt>
      <trkpt lat="42.91674275" lon="13.54423628">
        <ele>665.00000</ele>
        <time>2024-02-08T12:53:48Z</time>
      </trkpt>
      <trkpt lat="42.91677712" lon="13.54426729">
        <ele>665.00000</ele>
        <time>2024-02-08T12:53:49Z</time>
      </trkpt>
      <trkpt lat="42.91680864" lon="13.54430099">
        <ele>665.00000</ele>
        <time>2024-02-08T12:53:50Z</time>
      </trkpt>
      <trkpt lat="42.91684283" lon="13.54433736">
        <ele>666.00000</ele>
        <time>2024-02-08T12:53:51Z</time>
      </trkpt>
      <trkpt lat="42.91687703" lon="13.54437651">
        <ele>666.00000</ele>
        <time>2024-02-08T12:53:52Z</time>
      </trkpt>
      <trkpt lat="42.91691198" lon="13.54441389">
        <ele>666.00000</ele>
        <time>2024-02-08T12:53:53Z</time>
      </trkpt>
      <trkpt lat="42.91694903" lon="13.54444633">
        <ele>667.00000</ele>
        <time>2024-02-08T12:53:54Z</time>
      </trkpt>
      <trkpt lat="42.91698809" lon="13.54447768">
        <ele>667.00000</ele>
        <time>2024-02-08T12:53:55Z</time>
      </trkpt>
      <trkpt lat="42.91703000" lon="13.54450517">
        <ele>668.00000</ele>
        <time>2024-02-08T12:53:56Z</time>
      </trkpt>
      <trkpt lat="42.91707308" lon="13.54452721">
        <ele>668.00000</ele>
        <time>2024-02-08T12:53:57Z</time>
      </trkpt>
      <trkpt lat="42.91712002" lon="13.54454020">
        <ele>668.00000</ele>
        <time>2024-02-08T12:53:58Z</time>
      </trkpt>
      <trkpt lat="42.91716579" lon="13.54454465">
        <ele>668.00000</ele>
        <time>2024-02-08T12:53:59Z</time>
      </trkpt>
      <trkpt lat="42.91721524" lon="13.54453895">
        <ele>668.00000</ele>
        <time>2024-02-08T12:54:00Z</time>
      </trkpt>
      <trkpt lat="42.91726293" lon="13.54452713">
        <ele>669.00000</ele>
        <time>2024-02-08T12:54:01Z</time>
      </trkpt>
      <trkpt lat="42.91730769" lon="13.54451053">
        <ele>670.00000</ele>
        <time>2024-02-08T12:54:02Z</time>
      </trkpt>
      <trkpt lat="42.91735254" lon="13.54448824">
        <ele>670.00000</ele>
        <time>2024-02-08T12:54:03Z</time>
      </trkpt>
      <trkpt lat="42.91739772" lon="13.54446234">
        <ele>671.00000</ele>
        <time>2024-02-08T12:54:04Z</time>
      </trkpt>
      <trkpt lat="42.91744306" lon="13.54443711">
        <ele>672.00000</ele>
        <time>2024-02-08T12:54:05Z</time>
      </trkpt>
      <trkpt lat="42.91749008" lon="13.54441255">
        <ele>673.00000</ele>
        <time>2024-02-08T12:54:06Z</time>
      </trkpt>
      <trkpt lat="42.91753962" lon="13.54439076">
        <ele>673.00000</ele>
        <time>2024-02-08T12:54:07Z</time>
      </trkpt>
      <trkpt lat="42.91759058" lon="13.54437181">
        <ele>673.00000</ele>
        <time>2024-02-08T12:54:08Z</time>
      </trkpt>
      <trkpt lat="42.91764247" lon="13.54435438">
        <ele>673.00000</ele>
        <time>2024-02-08T12:54:09Z</time>
      </trkpt>
      <trkpt lat="42.91769410" lon="13.54433862">
        <ele>673.00000</ele>
        <time>2024-02-08T12:54:10Z</time>
      </trkpt>
      <trkpt lat="42.91774548" lon="13.54432177">
        <ele>673.00000</ele>
        <time>2024-02-08T12:54:11Z</time>
      </trkpt>
      <trkpt lat="42.91779644" lon="13.54430803">
        <ele>674.00000</ele>
        <time>2024-02-08T12:54:12Z</time>
      </trkpt>
      <trkpt lat="42.91784724" lon="13.54429579">
        <ele>673.00000</ele>
        <time>2024-02-08T12:54:13Z</time>
      </trkpt>
      <trkpt lat="42.91789912" lon="13.54428456">
        <ele>673.00000</ele>
        <time>2024-02-08T12:54:14Z</time>
      </trkpt>
      <trkpt lat="42.91794857" lon="13.54427282">
        <ele>673.00000</ele>
        <time>2024-02-08T12:54:15Z</time>
      </trkpt>
      <trkpt lat="42.91799903" lon="13.54425941">
        <ele>673.00000</ele>
        <time>2024-02-08T12:54:16Z</time>
      </trkpt>
      <trkpt lat="42.91804882" lon="13.54424675">
        <ele>673.00000</ele>
        <time>2024-02-08T12:54:17Z</time>
      </trkpt>
      <trkpt lat="42.91809953" lon="13.54423443">
        <ele>673.00000</ele>
        <time>2024-02-08T12:54:18Z</time>
      </trkpt>
      <trkpt lat="42.91815125" lon="13.54422253">
        <ele>672.00000</ele>
        <time>2024-02-08T12:54:19Z</time>
      </trkpt>
      <trkpt lat="42.91821009" lon="13.54421147">
        <ele>672.00000</ele>
        <time>2024-02-08T12:54:20Z</time>
      </trkpt>
      <trkpt lat="42.91826767" lon="13.54420141">
        <ele>671.00000</ele>
        <time>2024-02-08T12:54:21Z</time>
      </trkpt>
      <trkpt lat="42.91832316" lon="13.54419638">
        <ele>671.00000</ele>
        <time>2024-02-08T12:54:22Z</time>
      </trkpt>
      <trkpt lat="42.91837538" lon="13.54419663">
        <ele>670.00000</ele>
        <time>2024-02-08T12:54:23Z</time>
      </trkpt>
      <trkpt lat="42.91842534" lon="13.54420602">
        <ele>670.00000</ele>
        <time>2024-02-08T12:54:24Z</time>
      </trkpt>
      <trkpt lat="42.91847454" lon="13.54422597">
        <ele>670.00000</ele>
        <time>2024-02-08T12:54:25Z</time>
      </trkpt>
      <trkpt lat="42.91852030" lon="13.54425170">
        <ele>669.00000</ele>
        <time>2024-02-08T12:54:26Z</time>
      </trkpt>
      <trkpt lat="42.91855844" lon="13.54428548">
        <ele>670.00000</ele>
        <time>2024-02-08T12:54:27Z</time>
      </trkpt>
      <trkpt lat="42.91858660" lon="13.54432865">
        <ele>670.00000</ele>
        <time>2024-02-08T12:54:28Z</time>
      </trkpt>
      <trkpt lat="42.91861410" lon="13.54437558">
        <ele>671.00000</ele>
        <time>2024-02-08T12:54:29Z</time>
      </trkpt>
      <trkpt lat="42.91864360" lon="13.54442948">
        <ele>671.00000</ele>
        <time>2024-02-08T12:54:30Z</time>
      </trkpt>
      <trkpt lat="42.91867579" lon="13.54448514">
        <ele>672.00000</ele>
        <time>2024-02-08T12:54:31Z</time>
      </trkpt>
      <trkpt lat="42.91870521" lon="13.54454121">
        <ele>672.00000</ele>
        <time>2024-02-08T12:54:32Z</time>
      </trkpt>
      <trkpt lat="42.91873136" lon="13.54460114">
        <ele>672.00000</ele>
        <time>2024-02-08T12:54:33Z</time>
      </trkpt>
      <trkpt lat="42.91875558" lon="13.54466610">
        <ele>672.00000</ele>
        <time>2024-02-08T12:54:34Z</time>
      </trkpt>
      <trkpt lat="42.91877570" lon="13.54473894">
        <ele>673.00000</ele>
        <time>2024-02-08T12:54:35Z</time>
      </trkpt>
      <trkpt lat="42.91879003" lon="13.54481555">
        <ele>673.00000</ele>
        <time>2024-02-08T12:54:36Z</time>
      </trkpt>
      <trkpt lat="42.91879464" lon="13.54489359">
        <ele>674.00000</ele>
        <time>2024-02-08T12:54:37Z</time>
      </trkpt>
      <trkpt lat="42.91879188" lon="13.54497162">
        <ele>675.00000</ele>
        <time>2024-02-08T12:54:38Z</time>
      </trkpt>
      <trkpt lat="42.91878744" lon="13.54504949">
        <ele>676.00000</ele>
        <time>2024-02-08T12:54:39Z</time>
      </trkpt>
      <trkpt lat="42.91878140" lon="13.54512920">
        <ele>676.00000</ele>
        <time>2024-02-08T12:54:40Z</time>
      </trkpt>
      <trkpt lat="42.91876514" lon="13.54520506">
        <ele>677.00000</ele>
        <time>2024-02-08T12:54:41Z</time>
      </trkpt>
      <trkpt lat="42.91874402" lon="13.54527588">
        <ele>678.00000</ele>
        <time>2024-02-08T12:54:42Z</time>
      </trkpt>
      <trkpt lat="42.91873153" lon="13.54535501">
        <ele>678.00000</ele>
        <time>2024-02-08T12:54:43Z</time>
      </trkpt>
      <trkpt lat="42.91872180" lon="13.54543891">
        <ele>679.00000</ele>
        <time>2024-02-08T12:54:44Z</time>
      </trkpt>
      <trkpt lat="42.91870957" lon="13.54551938">
        <ele>679.00000</ele>
        <time>2024-02-08T12:54:45Z</time>
      </trkpt>
      <trkpt lat="42.91869389" lon="13.54560018">
        <ele>680.00000</ele>
        <time>2024-02-08T12:54:46Z</time>
      </trkpt>
      <trkpt lat="42.91867570" lon="13.54567897">
        <ele>680.00000</ele>
        <time>2024-02-08T12:54:47Z</time>
      </trkpt>
      <trkpt lat="42.91865919" lon="13.54575994">
        <ele>681.00000</ele>
        <time>2024-02-08T12:54:48Z</time>
      </trkpt>
      <trkpt lat="42.91864360" lon="13.54584082">
        <ele>681.00000</ele>
        <time>2024-02-08T12:54:49Z</time>
      </trkpt>
      <trkpt lat="42.91862592" lon="13.54591467">
        <ele>681.00000</ele>
        <time>2024-02-08T12:54:50Z</time>
      </trkpt>
      <trkpt lat="42.91860848" lon="13.54599363">
        <ele>681.00000</ele>
        <time>2024-02-08T12:54:51Z</time>
      </trkpt>
      <trkpt lat="42.91859591" lon="13.54607870">
        <ele>681.00000</ele>
        <time>2024-02-08T12:54:52Z</time>
      </trkpt>
      <trkpt lat="42.91857705" lon="13.54617015">
        <ele>681.00000</ele>
        <time>2024-02-08T12:54:53Z</time>
      </trkpt>
      <trkpt lat="42.91857085" lon="13.54626889">
        <ele>681.00000</ele>
        <time>2024-02-08T12:54:54Z</time>
      </trkpt>
      <trkpt lat="42.91857780" lon="13.54635505">
        <ele>681.00000</ele>
        <time>2024-02-08T12:54:55Z</time>
      </trkpt>
      <trkpt lat="42.91859457" lon="13.54643468">
        <ele>680.00000</ele>
        <time>2024-02-08T12:54:56Z</time>
      </trkpt>
      <trkpt lat="42.91861468" lon="13.54652328">
        <ele>680.00000</ele>
        <time>2024-02-08T12:54:57Z</time>
      </trkpt>
      <trkpt lat="42.91864519" lon="13.54659846">
        <ele>680.00000</ele>
        <time>2024-02-08T12:54:58Z</time>
      </trkpt>
      <trkpt lat="42.91867964" lon="13.54666921">
        <ele>679.00000</ele>
        <time>2024-02-08T12:54:59Z</time>
      </trkpt>
      <trkpt lat="42.91872315" lon="13.54673517">
        <ele>680.00000</ele>
        <time>2024-02-08T12:55:00Z</time>
      </trkpt>
      <trkpt lat="42.91877377" lon="13.54679259">
        <ele>680.00000</ele>
        <time>2024-02-08T12:55:01Z</time>
      </trkpt>
      <trkpt lat="42.91882867" lon="13.54684364">
        <ele>680.00000</ele>
        <time>2024-02-08T12:55:02Z</time>
      </trkpt>
      <trkpt lat="42.91888785" lon="13.54688177">
        <ele>679.00000</ele>
        <time>2024-02-08T12:55:03Z</time>
      </trkpt>
      <trkpt lat="42.91893747" lon="13.54690214">
        <ele>680.00000</ele>
        <time>2024-02-08T12:55:04Z</time>
      </trkpt>
      <trkpt lat="42.91899246" lon="13.54690952">
        <ele>680.00000</ele>
        <time>2024-02-08T12:55:05Z</time>
      </trkpt>
      <trkpt lat="42.91905423" lon="13.54690449">
        <ele>680.00000</ele>
        <time>2024-02-08T12:55:06Z</time>
      </trkpt>
      <trkpt lat="42.91912137" lon="13.54689083">
        <ele>679.00000</ele>
        <time>2024-02-08T12:55:07Z</time>
      </trkpt>
      <trkpt lat="42.91919060" lon="13.54687674">
        <ele>679.00000</ele>
        <time>2024-02-08T12:55:08Z</time>
      </trkpt>
      <trkpt lat="42.91926152" lon="13.54686300">
        <ele>679.00000</ele>
        <time>2024-02-08T12:55:09Z</time>
      </trkpt>
      <trkpt lat="42.91933293" lon="13.54684372">
        <ele>680.00000</ele>
        <time>2024-02-08T12:55:10Z</time>
      </trkpt>
      <trkpt lat="42.91940820" lon="13.54682813">
        <ele>680.00000</ele>
        <time>2024-02-08T12:55:11Z</time>
      </trkpt>
      <trkpt lat="42.91948573" lon="13.54681715">
        <ele>680.00000</ele>
        <time>2024-02-08T12:55:12Z</time>
      </trkpt>
      <trkpt lat="42.91956041" lon="13.54681220">
        <ele>680.00000</ele>
        <time>2024-02-08T12:55:13Z</time>
      </trkpt>
      <trkpt lat="42.91963275" lon="13.54680625">
        <ele>680.00000</ele>
        <time>2024-02-08T12:55:14Z</time>
      </trkpt>
      <trkpt lat="42.91970391" lon="13.54680416">
        <ele>679.00000</ele>
        <time>2024-02-08T12:55:15Z</time>
      </trkpt>
      <trkpt lat="42.91977105" lon="13.54680240">
        <ele>679.00000</ele>
        <time>2024-02-08T12:55:16Z</time>
      </trkpt>
      <trkpt lat="42.91983702" lon="13.54679821">
        <ele>679.00000</ele>
        <time>2024-02-08T12:55:17Z</time>
      </trkpt>
      <trkpt lat="42.91990541" lon="13.54679494">
        <ele>679.00000</ele>
        <time>2024-02-08T12:55:18Z</time>
      </trkpt>
      <trkpt lat="42.91997230" lon="13.54679267">
        <ele>678.00000</ele>
        <time>2024-02-08T12:55:19Z</time>
      </trkpt>
      <trkpt lat="42.92003651" lon="13.54679066">
        <ele>678.00000</ele>
        <time>2024-02-08T12:55:20Z</time>
      </trkpt>
      <trkpt lat="42.92010448" lon="13.54678588">
        <ele>678.00000</ele>
        <time>2024-02-08T12:55:21Z</time>
      </trkpt>
      <trkpt lat="42.92017154" lon="13.54678203">
        <ele>677.00000</ele>
        <time>2024-02-08T12:55:22Z</time>
      </trkpt>
      <trkpt lat="42.92024019" lon="13.54677951">
        <ele>677.00000</ele>
        <time>2024-02-08T12:55:23Z</time>
      </trkpt>
      <trkpt lat="42.92030816" lon="13.54678052">
        <ele>677.00000</ele>
        <time>2024-02-08T12:55:24Z</time>
      </trkpt>
      <trkpt lat="42.92038938" lon="13.54676233">
        <ele>677.00000</ele>
        <time>2024-02-08T12:55:25Z</time>
      </trkpt>
      <trkpt lat="42.92046516" lon="13.54674900">
        <ele>677.00000</ele>
        <time>2024-02-08T12:55:26Z</time>
      </trkpt>
      <trkpt lat="42.92053858" lon="13.54673283">
        <ele>677.00000</ele>
        <time>2024-02-08T12:55:27Z</time>
      </trkpt>
      <trkpt lat="42.92060983" lon="13.54672176">
        <ele>677.00000</ele>
        <time>2024-02-08T12:55:28Z</time>
      </trkpt>
      <trkpt lat="42.92068392" lon="13.54671673">
        <ele>677.00000</ele>
        <time>2024-02-08T12:55:29Z</time>
      </trkpt>
      <trkpt lat="42.92076146" lon="13.54670818">
        <ele>677.00000</ele>
        <time>2024-02-08T12:55:30Z</time>
      </trkpt>
      <trkpt lat="42.92083983" lon="13.54669729">
        <ele>677.00000</ele>
        <time>2024-02-08T12:55:31Z</time>
      </trkpt>
      <trkpt lat="42.92091795" lon="13.54669008">
        <ele>677.00000</ele>
        <time>2024-02-08T12:55:32Z</time>
      </trkpt>
      <trkpt lat="42.92099665" lon="13.54668254">
        <ele>678.00000</ele>
        <time>2024-02-08T12:55:33Z</time>
      </trkpt>
      <trkpt lat="42.92107804" lon="13.54667943">
        <ele>678.00000</ele>
        <time>2024-02-08T12:55:34Z</time>
      </trkpt>
      <trkpt lat="42.92116127" lon="13.54667147">
        <ele>678.00000</ele>
        <time>2024-02-08T12:55:35Z</time>
      </trkpt>
      <trkpt lat="42.92124199" lon="13.54665932">
        <ele>678.00000</ele>
        <time>2024-02-08T12:55:36Z</time>
      </trkpt>
      <trkpt lat="42.92132103" lon="13.54664834">
        <ele>678.00000</ele>
        <time>2024-02-08T12:55:37Z</time>
      </trkpt>
      <trkpt lat="42.92139831" lon="13.54663711">
        <ele>679.00000</ele>
        <time>2024-02-08T12:55:38Z</time>
      </trkpt>
      <trkpt lat="42.92147476" lon="13.54661297">
        <ele>679.00000</ele>
        <time>2024-02-08T12:55:39Z</time>
      </trkpt>
      <trkpt lat="42.92155321" lon="13.54659277">
        <ele>679.00000</ele>
        <time>2024-02-08T12:55:40Z</time>
      </trkpt>
      <trkpt lat="42.92163192" lon="13.54657701">
        <ele>680.00000</ele>
        <time>2024-02-08T12:55:41Z</time>
      </trkpt>
      <trkpt lat="42.92171381" lon="13.54656410">
        <ele>680.00000</ele>
        <time>2024-02-08T12:55:42Z</time>
      </trkpt>
      <trkpt lat="42.92179562" lon="13.54654029">
        <ele>680.00000</ele>
        <time>2024-02-08T12:55:43Z</time>
      </trkpt>
      <trkpt lat="42.92187575" lon="13.54651867">
        <ele>679.00000</ele>
        <time>2024-02-08T12:55:44Z</time>
      </trkpt>
      <trkpt lat="42.92197063" lon="13.54649922">
        <ele>679.00000</ele>
        <time>2024-02-08T12:55:45Z</time>
      </trkpt>
      <trkpt lat="42.92204682" lon="13.54647936">
        <ele>679.00000</ele>
        <time>2024-02-08T12:55:46Z</time>
      </trkpt>
      <trkpt lat="42.92212427" lon="13.54646318">
        <ele>678.00000</ele>
        <time>2024-02-08T12:55:47Z</time>
      </trkpt>
      <trkpt lat="42.92220038" lon="13.54644910">
        <ele>678.00000</ele>
        <time>2024-02-08T12:55:48Z</time>
      </trkpt>
      <trkpt lat="42.92227674" lon="13.54643778">
        <ele>678.00000</ele>
        <time>2024-02-08T12:55:49Z</time>
      </trkpt>
      <trkpt lat="42.92235461" lon="13.54642798">
        <ele>677.00000</ele>
        <time>2024-02-08T12:55:50Z</time>
      </trkpt>
      <trkpt lat="42.92243465" lon="13.54641180">
        <ele>677.00000</ele>
        <time>2024-02-08T12:55:51Z</time>
      </trkpt>
      <trkpt lat="42.92251227" lon="13.54638481">
        <ele>676.00000</ele>
        <time>2024-02-08T12:55:52Z</time>
      </trkpt>
      <trkpt lat="42.92258259" lon="13.54635396">
        <ele>676.00000</ele>
        <time>2024-02-08T12:55:53Z</time>
      </trkpt>
      <trkpt lat="42.92265124" lon="13.54631817">
        <ele>675.00000</ele>
        <time>2024-02-08T12:55:54Z</time>
      </trkpt>
      <trkpt lat="42.92271553" lon="13.54627492">
        <ele>675.00000</ele>
        <time>2024-02-08T12:55:55Z</time>
      </trkpt>
      <trkpt lat="42.92277496" lon="13.54622296">
        <ele>674.00000</ele>
        <time>2024-02-08T12:55:56Z</time>
      </trkpt>
      <trkpt lat="42.92283128" lon="13.54616772">
        <ele>674.00000</ele>
        <time>2024-02-08T12:55:57Z</time>
      </trkpt>
      <trkpt lat="42.92288669" lon="13.54611164">
        <ele>675.00000</ele>
        <time>2024-02-08T12:55:58Z</time>
      </trkpt>
      <trkpt lat="42.92293757" lon="13.54604911">
        <ele>676.00000</ele>
        <time>2024-02-08T12:55:59Z</time>
      </trkpt>
      <trkpt lat="42.92298560" lon="13.54598365">
        <ele>676.00000</ele>
        <time>2024-02-08T12:56:00Z</time>
      </trkpt>
      <trkpt lat="42.92303010" lon="13.54591333">
        <ele>677.00000</ele>
        <time>2024-02-08T12:56:01Z</time>
      </trkpt>
      <trkpt lat="42.92307067" lon="13.54583831">
        <ele>677.00000</ele>
        <time>2024-02-08T12:56:02Z</time>
      </trkpt>
      <trkpt lat="42.92310403" lon="13.54576396">
        <ele>679.00000</ele>
        <time>2024-02-08T12:56:03Z</time>
      </trkpt>
      <trkpt lat="42.92313479" lon="13.54569188">
        <ele>680.00000</ele>
        <time>2024-02-08T12:56:04Z</time>
      </trkpt>
      <trkpt lat="42.92316882" lon="13.54561845">
        <ele>681.00000</ele>
        <time>2024-02-08T12:56:05Z</time>
      </trkpt>
      <trkpt lat="42.92320151" lon="13.54554737">
        <ele>682.00000</ele>
        <time>2024-02-08T12:56:06Z</time>
      </trkpt>
      <trkpt lat="42.92323261" lon="13.54548149">
        <ele>683.00000</ele>
        <time>2024-02-08T12:56:07Z</time>
      </trkpt>
      <trkpt lat="42.92326102" lon="13.54541896">
        <ele>684.00000</ele>
        <time>2024-02-08T12:56:08Z</time>
      </trkpt>
      <trkpt lat="42.92328475" lon="13.54535677">
        <ele>684.00000</ele>
        <time>2024-02-08T12:56:09Z</time>
      </trkpt>
      <trkpt lat="42.92330922" lon="13.54529575">
        <ele>685.00000</ele>
        <time>2024-02-08T12:56:10Z</time>
      </trkpt>
      <trkpt lat="42.92333512" lon="13.54523615">
        <ele>685.00000</ele>
        <time>2024-02-08T12:56:11Z</time>
      </trkpt>
      <trkpt lat="42.92336085" lon="13.54517572">
        <ele>686.00000</ele>
        <time>2024-02-08T12:56:12Z</time>
      </trkpt>
      <trkpt lat="42.92338239" lon="13.54511462">
        <ele>686.00000</ele>
        <time>2024-02-08T12:56:13Z</time>
      </trkpt>
      <trkpt lat="42.92339824" lon="13.54505410">
        <ele>687.00000</ele>
        <time>2024-02-08T12:56:14Z</time>
      </trkpt>
      <trkpt lat="42.92340930" lon="13.54499283">
        <ele>687.00000</ele>
        <time>2024-02-08T12:56:15Z</time>
      </trkpt>
      <trkpt lat="42.92341617" lon="13.54492804">
        <ele>687.00000</ele>
        <time>2024-02-08T12:56:16Z</time>
      </trkpt>
      <trkpt lat="42.92341676" lon="13.54486333">
        <ele>687.00000</ele>
        <time>2024-02-08T12:56:17Z</time>
      </trkpt>
      <trkpt lat="42.92341257" lon="13.54479912">
        <ele>686.00000</ele>
        <time>2024-02-08T12:56:18Z</time>
      </trkpt>
      <trkpt lat="42.92341089" lon="13.54473726">
        <ele>686.00000</ele>
        <time>2024-02-08T12:56:19Z</time>
      </trkpt>
      <trkpt lat="42.92340922" lon="13.54467775">
        <ele>686.00000</ele>
        <time>2024-02-08T12:56:20Z</time>
      </trkpt>
      <trkpt lat="42.92340377" lon="13.54462000">
        <ele>685.00000</ele>
        <time>2024-02-08T12:56:21Z</time>
      </trkpt>
      <trkpt lat="42.92339866" lon="13.54456183">
        <ele>685.00000</ele>
        <time>2024-02-08T12:56:22Z</time>
      </trkpt>
      <trkpt lat="42.92339379" lon="13.54450047">
        <ele>685.00000</ele>
        <time>2024-02-08T12:56:23Z</time>
      </trkpt>
      <trkpt lat="42.92338994" lon="13.54443929">
        <ele>684.00000</ele>
        <time>2024-02-08T12:56:24Z</time>
      </trkpt>
      <trkpt lat="42.92339405" lon="13.54438061">
        <ele>684.00000</ele>
        <time>2024-02-08T12:56:25Z</time>
      </trkpt>
      <trkpt lat="42.92340293" lon="13.54432144">
        <ele>684.00000</ele>
        <time>2024-02-08T12:56:26Z</time>
      </trkpt>
      <trkpt lat="42.92341726" lon="13.54426318">
        <ele>684.00000</ele>
        <time>2024-02-08T12:56:27Z</time>
      </trkpt>
      <trkpt lat="42.92344031" lon="13.54421457">
        <ele>685.00000</ele>
        <time>2024-02-08T12:56:28Z</time>
      </trkpt>
      <trkpt lat="42.92347133" lon="13.54417408">
        <ele>685.00000</ele>
        <time>2024-02-08T12:56:29Z</time>
      </trkpt>
      <trkpt lat="42.92351332" lon="13.54414693">
        <ele>685.00000</ele>
        <time>2024-02-08T12:56:30Z</time>
      </trkpt>
      <trkpt lat="42.92354827" lon="13.54413125">
        <ele>686.00000</ele>
        <time>2024-02-08T12:56:31Z</time>
      </trkpt>
      <trkpt lat="42.92359018" lon="13.54411457">
        <ele>686.00000</ele>
        <time>2024-02-08T12:56:32Z</time>
      </trkpt>
      <trkpt lat="42.92364081" lon="13.54409546">
        <ele>687.00000</ele>
        <time>2024-02-08T12:56:33Z</time>
      </trkpt>
      <trkpt lat="42.92368314" lon="13.54408054">
        <ele>688.00000</ele>
        <time>2024-02-08T12:56:34Z</time>
      </trkpt>
      <trkpt lat="42.92372488" lon="13.54407090">
        <ele>689.00000</ele>
        <time>2024-02-08T12:56:35Z</time>
      </trkpt>
      <trkpt lat="42.92376796" lon="13.54406336">
        <ele>690.00000</ele>
        <time>2024-02-08T12:56:36Z</time>
      </trkpt>
      <trkpt lat="42.92380895" lon="13.54405104">
        <ele>691.00000</ele>
        <time>2024-02-08T12:56:37Z</time>
      </trkpt>
      <trkpt lat="42.92384918" lon="13.54403595">
        <ele>692.00000</ele>
        <time>2024-02-08T12:56:38Z</time>
      </trkpt>
      <trkpt lat="42.92389017" lon="13.54402220">
        <ele>692.00000</ele>
        <time>2024-02-08T12:56:39Z</time>
      </trkpt>
      <trkpt lat="42.92392957" lon="13.54400938">
        <ele>693.00000</ele>
        <time>2024-02-08T12:56:40Z</time>
      </trkpt>
      <trkpt lat="42.92396536" lon="13.54399781">
        <ele>694.00000</ele>
        <time>2024-02-08T12:56:41Z</time>
      </trkpt>
      <trkpt lat="42.92400450" lon="13.54398381">
        <ele>695.00000</ele>
        <time>2024-02-08T12:56:42Z</time>
      </trkpt>
      <trkpt lat="42.92404389" lon="13.54396965">
        <ele>696.00000</ele>
        <time>2024-02-08T12:56:43Z</time>
      </trkpt>
      <trkpt lat="42.92408119" lon="13.54395540">
        <ele>697.00000</ele>
        <time>2024-02-08T12:56:44Z</time>
      </trkpt>
      <trkpt lat="42.92411849" lon="13.54394090">
        <ele>698.00000</ele>
        <time>2024-02-08T12:56:45Z</time>
      </trkpt>
      <trkpt lat="42.92415386" lon="13.54392698">
        <ele>699.00000</ele>
        <time>2024-02-08T12:56:46Z</time>
      </trkpt>
      <trkpt lat="42.92418982" lon="13.54390947">
        <ele>700.00000</ele>
        <time>2024-02-08T12:56:47Z</time>
      </trkpt>
      <trkpt lat="42.92422411" lon="13.54388558">
        <ele>700.00000</ele>
        <time>2024-02-08T12:56:48Z</time>
      </trkpt>
      <trkpt lat="42.92425503" lon="13.54385884">
        <ele>700.00000</ele>
        <time>2024-02-08T12:56:49Z</time>
      </trkpt>
      <trkpt lat="42.92428689" lon="13.54383336">
        <ele>700.00000</ele>
        <time>2024-02-08T12:56:50Z</time>
      </trkpt>
      <trkpt lat="42.92431647" lon="13.54380754">
        <ele>700.00000</ele>
        <time>2024-02-08T12:56:51Z</time>
      </trkpt>
      <trkpt lat="42.92434665" lon="13.54378424">
        <ele>700.00000</ele>
        <time>2024-02-08T12:56:52Z</time>
      </trkpt>
      <trkpt lat="42.92437892" lon="13.54375826">
        <ele>701.00000</ele>
        <time>2024-02-08T12:56:53Z</time>
      </trkpt>
      <trkpt lat="42.92441077" lon="13.54373177">
        <ele>701.00000</ele>
        <time>2024-02-08T12:56:54Z</time>
      </trkpt>
      <trkpt lat="42.92444170" lon="13.54370503">
        <ele>701.00000</ele>
        <time>2024-02-08T12:56:55Z</time>
      </trkpt>
      <trkpt lat="42.92447120" lon="13.54367913">
        <ele>702.00000</ele>
        <time>2024-02-08T12:56:56Z</time>
      </trkpt>
      <trkpt lat="42.92450062" lon="13.54364963">
        <ele>703.00000</ele>
        <time>2024-02-08T12:56:57Z</time>
      </trkpt>
      <trkpt lat="42.92453147" lon="13.54361442">
        <ele>704.00000</ele>
        <time>2024-02-08T12:56:58Z</time>
      </trkpt>
      <trkpt lat="42.92456030" lon="13.54357578">
        <ele>704.00000</ele>
        <time>2024-02-08T12:56:59Z</time>
      </trkpt>
      <trkpt lat="42.92459031" lon="13.54353848">
        <ele>704.00000</ele>
        <time>2024-02-08T12:57:00Z</time>
      </trkpt>
      <trkpt lat="42.92462015" lon="13.54350429">
        <ele>705.00000</ele>
        <time>2024-02-08T12:57:01Z</time>
      </trkpt>
      <trkpt lat="42.92464689" lon="13.54347143">
        <ele>705.00000</ele>
        <time>2024-02-08T12:57:02Z</time>
      </trkpt>
      <trkpt lat="42.92467287" lon="13.54343907">
        <ele>705.00000</ele>
        <time>2024-02-08T12:57:03Z</time>
      </trkpt>
      <trkpt lat="42.92470020" lon="13.54340412">
        <ele>705.00000</ele>
        <time>2024-02-08T12:57:04Z</time>
      </trkpt>
      <trkpt lat="42.92472886" lon="13.54337059">
        <ele>705.00000</ele>
        <time>2024-02-08T12:57:05Z</time>
      </trkpt>
      <trkpt lat="42.92475820" lon="13.54334092">
        <ele>706.00000</ele>
        <time>2024-02-08T12:57:06Z</time>
      </trkpt>
      <trkpt lat="42.92478997" lon="13.54330840">
        <ele>706.00000</ele>
        <time>2024-02-08T12:57:07Z</time>
      </trkpt>
      <trkpt lat="42.92482241" lon="13.54326859">
        <ele>706.00000</ele>
        <time>2024-02-08T12:57:08Z</time>
      </trkpt>
      <trkpt lat="42.92485484" lon="13.54322626">
        <ele>706.00000</ele>
        <time>2024-02-08T12:57:09Z</time>
      </trkpt>
      <trkpt lat="42.92488485" lon="13.54318544">
        <ele>706.00000</ele>
        <time>2024-02-08T12:57:10Z</time>
      </trkpt>
      <trkpt lat="42.92491251" lon="13.54314613">
        <ele>705.00000</ele>
        <time>2024-02-08T12:57:11Z</time>
      </trkpt>
      <trkpt lat="42.92493967" lon="13.54310623">
        <ele>705.00000</ele>
        <time>2024-02-08T12:57:12Z</time>
      </trkpt>
      <trkpt lat="42.92496875" lon="13.54306524">
        <ele>705.00000</ele>
        <time>2024-02-08T12:57:13Z</time>
      </trkpt>
      <trkpt lat="42.92499775" lon="13.54302333">
        <ele>706.00000</ele>
        <time>2024-02-08T12:57:14Z</time>
      </trkpt>
      <trkpt lat="42.92502659" lon="13.54298293">
        <ele>705.00000</ele>
        <time>2024-02-08T12:57:15Z</time>
      </trkpt>
      <trkpt lat="42.92505593" lon="13.54294387">
        <ele>705.00000</ele>
        <time>2024-02-08T12:57:16Z</time>
      </trkpt>
      <trkpt lat="42.92508593" lon="13.54290640">
        <ele>705.00000</ele>
        <time>2024-02-08T12:57:17Z</time>
      </trkpt>
      <trkpt lat="42.92511678" lon="13.54286835">
        <ele>705.00000</ele>
        <time>2024-02-08T12:57:18Z</time>
      </trkpt>
      <trkpt lat="42.92514754" lon="13.54283155">
        <ele>705.00000</ele>
        <time>2024-02-08T12:57:19Z</time>
      </trkpt>
      <trkpt lat="42.92518056" lon="13.54279543">
        <ele>705.00000</ele>
        <time>2024-02-08T12:57:20Z</time>
      </trkpt>
      <trkpt lat="42.92521392" lon="13.54276148">
        <ele>705.00000</ele>
        <time>2024-02-08T12:57:21Z</time>
      </trkpt>
      <trkpt lat="42.92525064" lon="13.54273147">
        <ele>706.00000</ele>
        <time>2024-02-08T12:57:22Z</time>
      </trkpt>
      <trkpt lat="42.92528618" lon="13.54270398">
        <ele>707.00000</ele>
        <time>2024-02-08T12:57:23Z</time>
      </trkpt>
      <trkpt lat="42.92532146" lon="13.54267708">
        <ele>707.00000</ele>
        <time>2024-02-08T12:57:24Z</time>
      </trkpt>
      <trkpt lat="42.92536161" lon="13.54265025">
        <ele>708.00000</ele>
        <time>2024-02-08T12:57:25Z</time>
      </trkpt>
      <trkpt lat="42.92539858" lon="13.54262829">
        <ele>709.00000</ele>
        <time>2024-02-08T12:57:26Z</time>
      </trkpt>
      <trkpt lat="42.92543630" lon="13.54261321">
        <ele>710.00000</ele>
        <time>2024-02-08T12:57:27Z</time>
      </trkpt>
      <trkpt lat="42.92547360" lon="13.54260323">
        <ele>711.00000</ele>
        <time>2024-02-08T12:57:28Z</time>
      </trkpt>
      <trkpt lat="42.92550771" lon="13.54259275">
        <ele>712.00000</ele>
        <time>2024-02-08T12:57:29Z</time>
      </trkpt>
      <trkpt lat="42.92554099" lon="13.54258446">
        <ele>712.00000</ele>
        <time>2024-02-08T12:57:30Z</time>
      </trkpt>
      <trkpt lat="42.92557409" lon="13.54258144">
        <ele>713.00000</ele>
        <time>2024-02-08T12:57:31Z</time>
      </trkpt>
      <trkpt lat="42.92560150" lon="13.54258236">
        <ele>714.00000</ele>
        <time>2024-02-08T12:57:32Z</time>
      </trkpt>
      <trkpt lat="42.92562992" lon="13.54258337">
        <ele>715.00000</ele>
        <time>2024-02-08T12:57:33Z</time>
      </trkpt>
      <trkpt lat="42.92565632" lon="13.54258663">
        <ele>716.00000</ele>
        <time>2024-02-08T12:57:34Z</time>
      </trkpt>
      <trkpt lat="42.92567778" lon="13.54259585">
        <ele>716.00000</ele>
        <time>2024-02-08T12:57:35Z</time>
      </trkpt>
      <trkpt lat="42.92569924" lon="13.54260583">
        <ele>717.00000</ele>
        <time>2024-02-08T12:57:36Z</time>
      </trkpt>
      <trkpt lat="42.92572036" lon="13.54261865">
        <ele>718.00000</ele>
        <time>2024-02-08T12:57:37Z</time>
      </trkpt>
      <trkpt lat="42.92574618" lon="13.54263056">
        <ele>719.00000</ele>
        <time>2024-02-08T12:57:38Z</time>
      </trkpt>
      <trkpt lat="42.92577912" lon="13.54263684">
        <ele>720.00000</ele>
        <time>2024-02-08T12:57:39Z</time>
      </trkpt>
      <trkpt lat="42.92582128" lon="13.54263500">
        <ele>721.00000</ele>
        <time>2024-02-08T12:57:40Z</time>
      </trkpt>
      <trkpt lat="42.92586344" lon="13.54263232">
        <ele>722.00000</ele>
        <time>2024-02-08T12:57:41Z</time>
      </trkpt>
      <trkpt lat="42.92590317" lon="13.54263374">
        <ele>722.00000</ele>
        <time>2024-02-08T12:57:42Z</time>
      </trkpt>
      <trkpt lat="42.92594541" lon="13.54263500">
        <ele>722.00000</ele>
        <time>2024-02-08T12:57:43Z</time>
      </trkpt>
      <trkpt lat="42.92598841" lon="13.54264246">
        <ele>723.00000</ele>
        <time>2024-02-08T12:57:44Z</time>
      </trkpt>
      <trkpt lat="42.92603535" lon="13.54265226">
        <ele>724.00000</ele>
        <time>2024-02-08T12:57:45Z</time>
      </trkpt>
      <trkpt lat="42.92608589" lon="13.54267590">
        <ele>724.00000</ele>
        <time>2024-02-08T12:57:46Z</time>
      </trkpt>
      <trkpt lat="42.92613677" lon="13.54269552">
        <ele>725.00000</ele>
        <time>2024-02-08T12:57:47Z</time>
      </trkpt>
      <trkpt lat="42.92618606" lon="13.54270784">
        <ele>725.00000</ele>
        <time>2024-02-08T12:57:48Z</time>
      </trkpt>
      <trkpt lat="42.92623819" lon="13.54271806">
        <ele>725.00000</ele>
        <time>2024-02-08T12:57:49Z</time>
      </trkpt>
      <trkpt lat="42.92629376" lon="13.54272678">
        <ele>725.00000</ele>
        <time>2024-02-08T12:57:50Z</time>
      </trkpt>
      <trkpt lat="42.92635252" lon="13.54273240">
        <ele>725.00000</ele>
        <time>2024-02-08T12:57:51Z</time>
      </trkpt>
      <trkpt lat="42.92640751" lon="13.54273474">
        <ele>725.00000</ele>
        <time>2024-02-08T12:57:52Z</time>
      </trkpt>
      <trkpt lat="42.92645478" lon="13.54273935">
        <ele>725.00000</ele>
        <time>2024-02-08T12:57:53Z</time>
      </trkpt>
      <trkpt lat="42.92650239" lon="13.54275092">
        <ele>725.00000</ele>
        <time>2024-02-08T12:57:54Z</time>
      </trkpt>
      <trkpt lat="42.92655260" lon="13.54275293">
        <ele>724.00000</ele>
        <time>2024-02-08T12:57:55Z</time>
      </trkpt>
      <trkpt lat="42.92660792" lon="13.54275469">
        <ele>724.00000</ele>
        <time>2024-02-08T12:57:56Z</time>
      </trkpt>
      <trkpt lat="42.92666307" lon="13.54276693">
        <ele>724.00000</ele>
        <time>2024-02-08T12:57:57Z</time>
      </trkpt>
      <trkpt lat="42.92672116" lon="13.54277724">
        <ele>724.00000</ele>
        <time>2024-02-08T12:57:58Z</time>
      </trkpt>
      <trkpt lat="42.92677539" lon="13.54279417">
        <ele>723.00000</ele>
        <time>2024-02-08T12:57:59Z</time>
      </trkpt>
      <trkpt lat="42.92683096" lon="13.54281370">
        <ele>723.00000</ele>
        <time>2024-02-08T12:58:00Z</time>
      </trkpt>
      <trkpt lat="42.92688502" lon="13.54282292">
        <ele>723.00000</ele>
        <time>2024-02-08T12:58:01Z</time>
      </trkpt>
      <trkpt lat="42.92693875" lon="13.54282652">
        <ele>722.00000</ele>
        <time>2024-02-08T12:58:02Z</time>
      </trkpt>
      <trkpt lat="42.92699156" lon="13.54283038">
        <ele>722.00000</ele>
        <time>2024-02-08T12:58:03Z</time>
      </trkpt>
      <trkpt lat="42.92704562" lon="13.54283524">
        <ele>722.00000</ele>
        <time>2024-02-08T12:58:04Z</time>
      </trkpt>
      <trkpt lat="42.92709843" lon="13.54284706">
        <ele>721.00000</ele>
        <time>2024-02-08T12:58:05Z</time>
      </trkpt>
      <trkpt lat="42.92714796" lon="13.54286617">
        <ele>722.00000</ele>
        <time>2024-02-08T12:58:06Z</time>
      </trkpt>
      <trkpt lat="42.92719893" lon="13.54289107">
        <ele>722.00000</ele>
        <time>2024-02-08T12:58:07Z</time>
      </trkpt>
      <trkpt lat="42.92725198" lon="13.54292049">
        <ele>722.00000</ele>
        <time>2024-02-08T12:58:08Z</time>
      </trkpt>
      <trkpt lat="42.92730580" lon="13.54295133">
        <ele>723.00000</ele>
        <time>2024-02-08T12:58:09Z</time>
      </trkpt>
      <trkpt lat="42.92735768" lon="13.54297966">
        <ele>723.00000</ele>
        <time>2024-02-08T12:58:10Z</time>
      </trkpt>
      <trkpt lat="42.92741434" lon="13.54300481">
        <ele>724.00000</ele>
        <time>2024-02-08T12:58:11Z</time>
      </trkpt>
      <trkpt lat="42.92747695" lon="13.54302551">
        <ele>724.00000</ele>
        <time>2024-02-08T12:58:12Z</time>
      </trkpt>
      <trkpt lat="42.92754066" lon="13.54304605">
        <ele>724.00000</ele>
        <time>2024-02-08T12:58:13Z</time>
      </trkpt>
      <trkpt lat="42.92760721" lon="13.54305719">
        <ele>725.00000</ele>
        <time>2024-02-08T12:58:14Z</time>
      </trkpt>
      <trkpt lat="42.92766999" lon="13.54305535">
        <ele>724.00000</ele>
        <time>2024-02-08T12:58:15Z</time>
      </trkpt>
      <trkpt lat="42.92773378" lon="13.54304345">
        <ele>724.00000</ele>
        <time>2024-02-08T12:58:16Z</time>
      </trkpt>
      <trkpt lat="42.92779547" lon="13.54302668">
        <ele>724.00000</ele>
        <time>2024-02-08T12:58:17Z</time>
      </trkpt>
      <trkpt lat="42.92785841" lon="13.54300414">
        <ele>723.00000</ele>
        <time>2024-02-08T12:58:18Z</time>
      </trkpt>
      <trkpt lat="42.92792413" lon="13.54297673">
        <ele>723.00000</ele>
        <time>2024-02-08T12:58:19Z</time>
      </trkpt>
      <trkpt lat="42.92799194" lon="13.54294773">
        <ele>722.00000</ele>
        <time>2024-02-08T12:58:20Z</time>
      </trkpt>
      <trkpt lat="42.92805916" lon="13.54292644">
        <ele>722.00000</ele>
        <time>2024-02-08T12:58:21Z</time>
      </trkpt>
      <trkpt lat="42.92812932" lon="13.54291831">
        <ele>721.00000</ele>
        <time>2024-02-08T12:58:22Z</time>
      </trkpt>
      <trkpt lat="42.92819897" lon="13.54292107">
        <ele>720.00000</ele>
        <time>2024-02-08T12:58:23Z</time>
      </trkpt>
      <trkpt lat="42.92826569" lon="13.54292828">
        <ele>720.00000</ele>
        <time>2024-02-08T12:58:24Z</time>
      </trkpt>
      <trkpt lat="42.92832856" lon="13.54295007">
        <ele>719.00000</ele>
        <time>2024-02-08T12:58:25Z</time>
      </trkpt>
      <trkpt lat="42.92838572" lon="13.54299735">
        <ele>719.00000</ele>
        <time>2024-02-08T12:58:26Z</time>
      </trkpt>
      <trkpt lat="42.92843475" lon="13.54308016">
        <ele>720.00000</ele>
        <time>2024-02-08T12:58:27Z</time>
      </trkpt>
      <trkpt lat="42.92846786" lon="13.54317421">
        <ele>721.00000</ele>
        <time>2024-02-08T12:58:28Z</time>
      </trkpt>
      <trkpt lat="42.92849133" lon="13.54326272">
        <ele>722.00000</ele>
        <time>2024-02-08T12:58:29Z</time>
      </trkpt>
      <trkpt lat="42.92851019" lon="13.54336431">
        <ele>723.00000</ele>
        <time>2024-02-08T12:58:30Z</time>
      </trkpt>
      <trkpt lat="42.92852922" lon="13.54346254">
        <ele>724.00000</ele>
        <time>2024-02-08T12:58:31Z</time>
      </trkpt>
      <trkpt lat="42.92855503" lon="13.54356212">
        <ele>725.00000</ele>
        <time>2024-02-08T12:58:32Z</time>
      </trkpt>
      <trkpt lat="42.92858948" lon="13.54366295">
        <ele>725.00000</ele>
        <time>2024-02-08T12:58:33Z</time>
      </trkpt>
      <trkpt lat="42.92862762" lon="13.54375876">
        <ele>726.00000</ele>
        <time>2024-02-08T12:58:34Z</time>
      </trkpt>
      <trkpt lat="42.92866157" lon="13.54384962">
        <ele>726.00000</ele>
        <time>2024-02-08T12:58:35Z</time>
      </trkpt>
      <trkpt lat="42.92869417" lon="13.54394132">
        <ele>727.00000</ele>
        <time>2024-02-08T12:58:36Z</time>
      </trkpt>
      <trkpt lat="42.92873055" lon="13.54403411">
        <ele>727.00000</ele>
        <time>2024-02-08T12:58:37Z</time>
      </trkpt>
      <trkpt lat="42.92877196" lon="13.54412497">
        <ele>727.00000</ele>
        <time>2024-02-08T12:58:38Z</time>
      </trkpt>
      <trkpt lat="42.92880834" lon="13.54422245">
        <ele>727.00000</ele>
        <time>2024-02-08T12:58:39Z</time>
      </trkpt>
      <trkpt lat="42.92884857" lon="13.54431666">
        <ele>727.00000</ele>
        <time>2024-02-08T12:58:40Z</time>
      </trkpt>
      <trkpt lat="42.92888788" lon="13.54442135">
        <ele>727.00000</ele>
        <time>2024-02-08T12:58:41Z</time>
      </trkpt>
      <trkpt lat="42.92892719" lon="13.54451623">
        <ele>728.00000</ele>
        <time>2024-02-08T12:58:42Z</time>
      </trkpt>
      <trkpt lat="42.92896994" lon="13.54460877">
        <ele>729.00000</ele>
        <time>2024-02-08T12:58:43Z</time>
      </trkpt>
      <trkpt lat="42.92902216" lon="13.54469376">
        <ele>729.00000</ele>
        <time>2024-02-08T12:58:44Z</time>
      </trkpt>
      <trkpt lat="42.92909868" lon="13.54476216">
        <ele>728.00000</ele>
        <time>2024-02-08T12:58:45Z</time>
      </trkpt>
      <trkpt lat="42.92918385" lon="13.54478856">
        <ele>727.00000</ele>
        <time>2024-02-08T12:58:46Z</time>
      </trkpt>
      <trkpt lat="42.92927538" lon="13.54477909">
        <ele>728.00000</ele>
        <time>2024-02-08T12:58:47Z</time>
      </trkpt>
      <trkpt lat="42.92936632" lon="13.54472050">
        <ele>728.00000</ele>
        <time>2024-02-08T12:58:48Z</time>
      </trkpt>
      <trkpt lat="42.92943673" lon="13.54460014">
        <ele>728.00000</ele>
        <time>2024-02-08T12:58:49Z</time>
      </trkpt>
      <trkpt lat="42.92945022" lon="13.54448866">
        <ele>727.00000</ele>
        <time>2024-02-08T12:58:50Z</time>
      </trkpt>
      <trkpt lat="42.92946087" lon="13.54437022">
        <ele>726.00000</ele>
        <time>2024-02-08T12:58:51Z</time>
      </trkpt>
      <trkpt lat="42.92947486" lon="13.54424525">
        <ele>725.00000</ele>
        <time>2024-02-08T12:58:52Z</time>
      </trkpt>
      <trkpt lat="42.92950755" lon="13.54411717">
        <ele>724.00000</ele>
        <time>2024-02-08T12:58:53Z</time>
      </trkpt>
      <trkpt lat="42.92954963" lon="13.54399094">
        <ele>724.00000</ele>
        <time>2024-02-08T12:58:54Z</time>
      </trkpt>
      <trkpt lat="42.92960135" lon="13.54386588">
        <ele>723.00000</ele>
        <time>2024-02-08T12:58:55Z</time>
      </trkpt>
      <trkpt lat="42.92965793" lon="13.54374359">
        <ele>722.00000</ele>
        <time>2024-02-08T12:58:56Z</time>
      </trkpt>
      <trkpt lat="42.92972439" lon="13.54362440">
        <ele>722.00000</ele>
        <time>2024-02-08T12:58:57Z</time>
      </trkpt>
      <trkpt lat="42.92979983" lon="13.54350529">
        <ele>720.00000</ele>
        <time>2024-02-08T12:58:58Z</time>
      </trkpt>
      <trkpt lat="42.92988114" lon="13.54338711">
        <ele>717.00000</ele>
        <time>2024-02-08T12:58:59Z</time>
      </trkpt>
      <trkpt lat="42.92996378" lon="13.54327269">
        <ele>715.00000</ele>
        <time>2024-02-08T12:59:00Z</time>
      </trkpt>
      <trkpt lat="42.93004777" lon="13.54316012">
        <ele>713.00000</ele>
        <time>2024-02-08T12:59:01Z</time>
      </trkpt>
      <trkpt lat="42.93013310" lon="13.54305317">
        <ele>712.00000</ele>
        <time>2024-02-08T12:59:02Z</time>
      </trkpt>
      <trkpt lat="42.93022370" lon="13.54294789">
        <ele>710.00000</ele>
        <time>2024-02-08T12:59:03Z</time>
      </trkpt>
      <trkpt lat="42.93031607" lon="13.54284421">
        <ele>707.00000</ele>
        <time>2024-02-08T12:59:04Z</time>
      </trkpt>
      <trkpt lat="42.93041632" lon="13.54276651">
        <ele>707.00000</ele>
        <time>2024-02-08T12:59:05Z</time>
      </trkpt>
      <trkpt lat="42.93052570" lon="13.54271102">
        <ele>707.00000</ele>
        <time>2024-02-08T12:59:06Z</time>
      </trkpt>
      <trkpt lat="42.93063693" lon="13.54267892">
        <ele>708.00000</ele>
        <time>2024-02-08T12:59:07Z</time>
      </trkpt>
      <trkpt lat="42.93074749" lon="13.54266308">
        <ele>708.00000</ele>
        <time>2024-02-08T12:59:08Z</time>
      </trkpt>
      <trkpt lat="42.93085847" lon="13.54265185">
        <ele>708.00000</ele>
        <time>2024-02-08T12:59:09Z</time>
      </trkpt>
      <trkpt lat="42.93097221" lon="13.54265436">
        <ele>708.00000</ele>
        <time>2024-02-08T12:59:10Z</time>
      </trkpt>
      <trkpt lat="42.93108193" lon="13.54266031">
        <ele>708.00000</ele>
        <time>2024-02-08T12:59:11Z</time>
      </trkpt>
      <trkpt lat="42.93118989" lon="13.54265394">
        <ele>707.00000</ele>
        <time>2024-02-08T12:59:12Z</time>
      </trkpt>
      <trkpt lat="42.93129759" lon="13.54263558">
        <ele>706.00000</ele>
        <time>2024-02-08T12:59:13Z</time>
      </trkpt>
      <trkpt lat="42.93140530" lon="13.54261673">
        <ele>705.00000</ele>
        <time>2024-02-08T12:59:14Z</time>
      </trkpt>
      <trkpt lat="42.93149733" lon="13.54259485">
        <ele>704.00000</ele>
        <time>2024-02-08T12:59:15Z</time>
      </trkpt>
      <trkpt lat="42.93163614" lon="13.54256794">
        <ele>702.00000</ele>
        <time>2024-02-08T12:59:16Z</time>
      </trkpt>
      <trkpt lat="42.93174552" lon="13.54255638">
        <ele>701.00000</ele>
        <time>2024-02-08T12:59:17Z</time>
      </trkpt>
      <trkpt lat="42.93185080" lon="13.54255177">
        <ele>699.00000</ele>
        <time>2024-02-08T12:59:18Z</time>
      </trkpt>
      <trkpt lat="42.93193453" lon="13.54254657">
        <ele>698.00000</ele>
        <time>2024-02-08T12:59:19Z</time>
      </trkpt>
      <trkpt lat="42.93199296" lon="13.54252570">
        <ele>696.00000</ele>
        <time>2024-02-08T12:59:20Z</time>
      </trkpt>
      <trkpt lat="42.93199027" lon="13.54248236">
        <ele>696.00000</ele>
        <time>2024-02-08T12:59:21Z</time>
      </trkpt>
      <trkpt lat="42.93195574" lon="13.54243526">
        <ele>695.00000</ele>
        <time>2024-02-08T12:59:22Z</time>
      </trkpt>
      <trkpt lat="42.93190796" lon="13.54239310">
        <ele>695.00000</ele>
        <time>2024-02-08T12:59:23Z</time>
      </trkpt>
      <trkpt lat="42.93185021" lon="13.54235613">
        <ele>694.00000</ele>
        <time>2024-02-08T12:59:24Z</time>
      </trkpt>
      <trkpt lat="42.93178165" lon="13.54233191">
        <ele>694.00000</ele>
        <time>2024-02-08T12:59:25Z</time>
      </trkpt>
      <trkpt lat="42.93169389" lon="13.54232118">
        <ele>695.00000</ele>
        <time>2024-02-08T12:59:26Z</time>
      </trkpt>
      <trkpt lat="42.93158727" lon="13.54230953">
        <ele>696.00000</ele>
        <time>2024-02-08T12:59:27Z</time>
      </trkpt>
      <trkpt lat="42.93147847" lon="13.54229402">
        <ele>696.00000</ele>
        <time>2024-02-08T12:59:28Z</time>
      </trkpt>
      <trkpt lat="42.93138116" lon="13.54228346">
        <ele>696.00000</ele>
        <time>2024-02-08T12:59:29Z</time>
      </trkpt>
      <trkpt lat="42.93128284" lon="13.54226745">
        <ele>695.00000</ele>
        <time>2024-02-08T12:59:30Z</time>
      </trkpt>
      <trkpt lat="42.93118134" lon="13.54223904">
        <ele>694.00000</ele>
        <time>2024-02-08T12:59:31Z</time>
      </trkpt>
      <trkpt lat="42.93107371" lon="13.54220425">
        <ele>692.00000</ele>
        <time>2024-02-08T12:59:32Z</time>
      </trkpt>
      <trkpt lat="42.93097028" lon="13.54216461">
        <ele>692.00000</ele>
        <time>2024-02-08T12:59:33Z</time>
      </trkpt>
      <trkpt lat="42.93086559" lon="13.54213016">
        <ele>691.00000</ele>
        <time>2024-02-08T12:59:34Z</time>
      </trkpt>
      <trkpt lat="42.93075671" lon="13.54210635">
        <ele>690.00000</ele>
        <time>2024-02-08T12:59:35Z</time>
      </trkpt>
      <trkpt lat="42.93064246" lon="13.54208582">
        <ele>688.00000</ele>
        <time>2024-02-08T12:59:36Z</time>
      </trkpt>
      <trkpt lat="42.93053501" lon="13.54207106">
        <ele>687.00000</ele>
        <time>2024-02-08T12:59:37Z</time>
      </trkpt>
      <trkpt lat="42.93042303" lon="13.54206134">
        <ele>684.00000</ele>
        <time>2024-02-08T12:59:38Z</time>
      </trkpt>
      <trkpt lat="42.93029394" lon="13.54206620">
        <ele>682.00000</ele>
        <time>2024-02-08T12:59:39Z</time>
      </trkpt>
      <trkpt lat="42.93017718" lon="13.54208967">
        <ele>681.00000</ele>
        <time>2024-02-08T12:59:40Z</time>
      </trkpt>
      <trkpt lat="42.93007115" lon="13.54213343">
        <ele>682.00000</ele>
        <time>2024-02-08T12:59:41Z</time>
      </trkpt>
      <trkpt lat="42.92996428" lon="13.54221004">
        <ele>683.00000</ele>
        <time>2024-02-08T12:59:42Z</time>
      </trkpt>
      <trkpt lat="42.92986345" lon="13.54229914">
        <ele>686.00000</ele>
        <time>2024-02-08T12:59:43Z</time>
      </trkpt>
      <trkpt lat="42.92975977" lon="13.54238186">
        <ele>688.00000</ele>
        <time>2024-02-08T12:59:44Z</time>
      </trkpt>
      <trkpt lat="42.92966237" lon="13.54243174">
        <ele>689.00000</ele>
        <time>2024-02-08T12:59:45Z</time>
      </trkpt>
      <trkpt lat="42.92956816" lon="13.54245018">
        <ele>690.00000</ele>
        <time>2024-02-08T12:59:46Z</time>
      </trkpt>
      <trkpt lat="42.92947662" lon="13.54242520">
        <ele>690.00000</ele>
        <time>2024-02-08T12:59:47Z</time>
      </trkpt>
      <trkpt lat="42.92941736" lon="13.54235747">
        <ele>690.00000</ele>
        <time>2024-02-08T12:59:48Z</time>
      </trkpt>
      <trkpt lat="42.92938241" lon="13.54223283">
        <ele>690.00000</ele>
        <time>2024-02-08T12:59:49Z</time>
      </trkpt>
      <trkpt lat="42.92937302" lon="13.54208137">
        <ele>688.00000</ele>
        <time>2024-02-08T12:59:50Z</time>
      </trkpt>
      <trkpt lat="42.92938962" lon="13.54193100">
        <ele>685.00000</ele>
        <time>2024-02-08T12:59:51Z</time>
      </trkpt>
      <trkpt lat="42.92941259" lon="13.54177510">
        <ele>681.00000</ele>
        <time>2024-02-08T12:59:52Z</time>
      </trkpt>
      <trkpt lat="42.92942902" lon="13.54162263">
        <ele>679.00000</ele>
        <time>2024-02-08T12:59:53Z</time>
      </trkpt>
      <trkpt lat="42.92943974" lon="13.54147193">
        <ele>677.00000</ele>
        <time>2024-02-08T12:59:54Z</time>
      </trkpt>
      <trkpt lat="42.92945165" lon="13.54131770">
        <ele>675.00000</ele>
        <time>2024-02-08T12:59:55Z</time>
      </trkpt>
      <trkpt lat="42.92944100" lon="13.54117554">
        <ele>674.00000</ele>
        <time>2024-02-08T12:59:56Z</time>
      </trkpt>
      <trkpt lat="42.92940429" lon="13.54104663">
        <ele>673.00000</ele>
        <time>2024-02-08T12:59:57Z</time>
      </trkpt>
      <trkpt lat="42.92934612" lon="13.54092945">
        <ele>673.00000</ele>
        <time>2024-02-08T12:59:58Z</time>
      </trkpt>
      <trkpt lat="42.92926523" lon="13.54083306">
        <ele>672.00000</ele>
        <time>2024-02-08T12:59:59Z</time>
      </trkpt>
      <trkpt lat="42.92917102" lon="13.54075871">
        <ele>670.00000</ele>
        <time>2024-02-08T13:00:00Z</time>
      </trkpt>
      <trkpt lat="42.92908075" lon="13.54073775">
        <ele>669.00000</ele>
        <time>2024-02-08T13:00:01Z</time>
      </trkpt>
      <trkpt lat="42.92899123" lon="13.54073356">
        <ele>668.00000</ele>
        <time>2024-02-08T13:00:02Z</time>
      </trkpt>
      <trkpt lat="42.92890238" lon="13.54074471">
        <ele>668.00000</ele>
        <time>2024-02-08T13:00:03Z</time>
      </trkpt>
      <trkpt lat="42.92880440" lon="13.54079525">
        <ele>668.00000</ele>
        <time>2024-02-08T13:00:04Z</time>
      </trkpt>
      <trkpt lat="42.92870197" lon="13.54086918">
        <ele>668.00000</ele>
        <time>2024-02-08T13:00:05Z</time>
      </trkpt>
      <trkpt lat="42.92860968" lon="13.54094604">
        <ele>668.00000</ele>
        <time>2024-02-08T13:00:06Z</time>
      </trkpt>
      <trkpt lat="42.92851765" lon="13.54101411">
        <ele>670.00000</ele>
        <time>2024-02-08T13:00:07Z</time>
      </trkpt>
      <trkpt lat="42.92842453" lon="13.54106339">
        <ele>672.00000</ele>
        <time>2024-02-08T13:00:08Z</time>
      </trkpt>
      <trkpt lat="42.92834247" lon="13.54106968">
        <ele>674.00000</ele>
        <time>2024-02-08T13:00:09Z</time>
      </trkpt>
      <trkpt lat="42.92827625" lon="13.54102567">
        <ele>674.00000</ele>
        <time>2024-02-08T13:00:10Z</time>
      </trkpt>
      <trkpt lat="42.92823292" lon="13.54094998">
        <ele>674.00000</ele>
        <time>2024-02-08T13:00:11Z</time>
      </trkpt>
      <trkpt lat="42.92821632" lon="13.54085418">
        <ele>672.00000</ele>
        <time>2024-02-08T13:00:12Z</time>
      </trkpt>
      <trkpt lat="42.92822764" lon="13.54075619">
        <ele>671.00000</ele>
        <time>2024-02-08T13:00:13Z</time>
      </trkpt>
      <trkpt lat="42.92827399" lon="13.54064505">
        <ele>670.00000</ele>
        <time>2024-02-08T13:00:14Z</time>
      </trkpt>
      <trkpt lat="42.92833082" lon="13.54053047">
        <ele>668.00000</ele>
        <time>2024-02-08T13:00:15Z</time>
      </trkpt>
      <trkpt lat="42.92838136" lon="13.54041430">
        <ele>667.00000</ele>
        <time>2024-02-08T13:00:16Z</time>
      </trkpt>
      <trkpt lat="42.92842897" lon="13.54029159">
        <ele>666.00000</ele>
        <time>2024-02-08T13:00:17Z</time>
      </trkpt>
      <trkpt lat="42.92847641" lon="13.54016711">
        <ele>664.00000</ele>
        <time>2024-02-08T13:00:18Z</time>
      </trkpt>
      <trkpt lat="42.92852151" lon="13.54004298">
        <ele>663.00000</ele>
        <time>2024-02-08T13:00:19Z</time>
      </trkpt>
      <trkpt lat="42.92856543" lon="13.53991113">
        <ele>661.00000</ele>
        <time>2024-02-08T13:00:20Z</time>
      </trkpt>
      <trkpt lat="42.92861270" lon="13.53977300">
        <ele>659.00000</ele>
        <time>2024-02-08T13:00:21Z</time>
      </trkpt>
      <trkpt lat="42.92865243" lon="13.53963537">
        <ele>657.00000</ele>
        <time>2024-02-08T13:00:22Z</time>
      </trkpt>
      <trkpt lat="42.92870256" lon="13.53949556">
        <ele>655.00000</ele>
        <time>2024-02-08T13:00:23Z</time>
      </trkpt>
      <trkpt lat="42.92875670" lon="13.53935617">
        <ele>653.00000</ele>
        <time>2024-02-08T13:00:24Z</time>
      </trkpt>
      <trkpt lat="42.92880591" lon="13.53921560">
        <ele>652.00000</ele>
        <time>2024-02-08T13:00:25Z</time>
      </trkpt>
      <trkpt lat="42.92884790" lon="13.53907009">
        <ele>650.00000</ele>
        <time>2024-02-08T13:00:26Z</time>
      </trkpt>
      <trkpt lat="42.92888713" lon="13.53892031">
        <ele>647.00000</ele>
        <time>2024-02-08T13:00:27Z</time>
      </trkpt>
      <trkpt lat="42.92893524" lon="13.53873431">
        <ele>643.00000</ele>
        <time>2024-02-08T13:00:28Z</time>
      </trkpt>
      <trkpt lat="42.92896592" lon="13.53860976">
        <ele>641.00000</ele>
        <time>2024-02-08T13:00:29Z</time>
      </trkpt>
      <trkpt lat="42.92900741" lon="13.53845704">
        <ele>639.00000</ele>
        <time>2024-02-08T13:00:30Z</time>
      </trkpt>
      <trkpt lat="42.92905317" lon="13.53830398">
        <ele>639.00000</ele>
        <time>2024-02-08T13:00:31Z</time>
      </trkpt>
      <trkpt lat="42.92909944" lon="13.53815160">
        <ele>638.00000</ele>
        <time>2024-02-08T13:00:32Z</time>
      </trkpt>
      <trkpt lat="42.92914613" lon="13.53799880">
        <ele>639.00000</ele>
        <time>2024-02-08T13:00:33Z</time>
      </trkpt>
      <trkpt lat="42.92919030" lon="13.53784382">
        <ele>639.00000</ele>
        <time>2024-02-08T13:00:34Z</time>
      </trkpt>
      <trkpt lat="42.92922332" lon="13.53771910">
        <ele>638.00000</ele>
        <time>2024-02-08T13:00:35Z</time>
      </trkpt>
      <trkpt lat="42.92926934" lon="13.53752841">
        <ele>637.00000</ele>
        <time>2024-02-08T13:00:36Z</time>
      </trkpt>
      <trkpt lat="42.92930706" lon="13.53736798">
        <ele>637.00000</ele>
        <time>2024-02-08T13:00:37Z</time>
      </trkpt>
      <trkpt lat="42.92934612" lon="13.53720596">
        <ele>637.00000</ele>
        <time>2024-02-08T13:00:38Z</time>
      </trkpt>
      <trkpt lat="42.92938803" lon="13.53704460">
        <ele>639.00000</ele>
        <time>2024-02-08T13:00:39Z</time>
      </trkpt>
      <trkpt lat="42.92943765" lon="13.53688929">
        <ele>642.00000</ele>
        <time>2024-02-08T13:00:40Z</time>
      </trkpt>
      <trkpt lat="42.92948970" lon="13.53673556">
        <ele>641.00000</ele>
        <time>2024-02-08T13:00:41Z</time>
      </trkpt>
      <trkpt lat="42.92953480" lon="13.53658125">
        <ele>643.00000</ele>
        <time>2024-02-08T13:00:42Z</time>
      </trkpt>
      <trkpt lat="42.92957453" lon="13.53642895">
        <ele>646.00000</ele>
        <time>2024-02-08T13:00:43Z</time>
      </trkpt>
      <trkpt lat="42.92961576" lon="13.53628009">
        <ele>648.00000</ele>
        <time>2024-02-08T13:00:44Z</time>
      </trkpt>
      <trkpt lat="42.92965910" lon="13.53613575">
        <ele>649.00000</ele>
        <time>2024-02-08T13:00:45Z</time>
      </trkpt>
      <trkpt lat="42.92970310" lon="13.53599511">
        <ele>650.00000</ele>
        <time>2024-02-08T13:00:46Z</time>
      </trkpt>
      <trkpt lat="42.92974661" lon="13.53585689">
        <ele>651.00000</ele>
        <time>2024-02-08T13:00:47Z</time>
      </trkpt>
      <trkpt lat="42.92978810" lon="13.53572093">
        <ele>650.00000</ele>
        <time>2024-02-08T13:00:48Z</time>
      </trkpt>
      <trkpt lat="42.92983344" lon="13.53558967">
        <ele>649.00000</ele>
        <time>2024-02-08T13:00:49Z</time>
      </trkpt>
      <trkpt lat="42.92988088" lon="13.53546277">
        <ele>648.00000</ele>
        <time>2024-02-08T13:00:50Z</time>
      </trkpt>
      <trkpt lat="42.92992279" lon="13.53534048">
        <ele>648.00000</ele>
        <time>2024-02-08T13:00:51Z</time>
      </trkpt>
      <trkpt lat="42.92995900" lon="13.53522238">
        <ele>648.00000</ele>
        <time>2024-02-08T13:00:52Z</time>
      </trkpt>
      <trkpt lat="42.92998532" lon="13.53511040">
        <ele>647.00000</ele>
        <time>2024-02-08T13:00:53Z</time>
      </trkpt>
      <trkpt lat="42.92999538" lon="13.53499892">
        <ele>647.00000</ele>
        <time>2024-02-08T13:00:54Z</time>
      </trkpt>
      <trkpt lat="42.92998541" lon="13.53489297">
        <ele>646.00000</ele>
        <time>2024-02-08T13:00:55Z</time>
      </trkpt>
      <trkpt lat="42.92995934" lon="13.53479825">
        <ele>646.00000</ele>
        <time>2024-02-08T13:00:56Z</time>
      </trkpt>
      <trkpt lat="42.92992179" lon="13.53471175">
        <ele>645.00000</ele>
        <time>2024-02-08T13:00:57Z</time>
      </trkpt>
      <trkpt lat="42.92986286" lon="13.53464302">
        <ele>645.00000</ele>
        <time>2024-02-08T13:00:58Z</time>
      </trkpt>
      <trkpt lat="42.92979128" lon="13.53458820">
        <ele>645.00000</ele>
        <time>2024-02-08T13:00:59Z</time>
      </trkpt>
      <trkpt lat="42.92972733" lon="13.53453632">
        <ele>645.00000</ele>
        <time>2024-02-08T13:01:00Z</time>
      </trkpt>
      <trkpt lat="42.92966798" lon="13.53448695">
        <ele>644.00000</ele>
        <time>2024-02-08T13:01:01Z</time>
      </trkpt>
      <trkpt lat="42.92961451" lon="13.53443213">
        <ele>644.00000</ele>
        <time>2024-02-08T13:01:02Z</time>
      </trkpt>
      <trkpt lat="42.92957243" lon="13.53437338">
        <ele>644.00000</ele>
        <time>2024-02-08T13:01:03Z</time>
      </trkpt>
      <trkpt lat="42.92953857" lon="13.53430992">
        <ele>644.00000</ele>
        <time>2024-02-08T13:01:04Z</time>
      </trkpt>
      <trkpt lat="42.92951066" lon="13.53424362">
        <ele>645.00000</ele>
        <time>2024-02-08T13:01:05Z</time>
      </trkpt>
      <trkpt lat="42.92948358" lon="13.53417799">
        <ele>645.00000</ele>
        <time>2024-02-08T13:01:06Z</time>
      </trkpt>
      <trkpt lat="42.92946204" lon="13.53411404">
        <ele>647.00000</ele>
        <time>2024-02-08T13:01:07Z</time>
      </trkpt>
      <trkpt lat="42.92944670" lon="13.53405402">
        <ele>649.00000</ele>
        <time>2024-02-08T13:01:08Z</time>
      </trkpt>
      <trkpt lat="42.92943731" lon="13.53399485">
        <ele>651.00000</ele>
        <time>2024-02-08T13:01:09Z</time>
      </trkpt>
      <trkpt lat="42.92942868" lon="13.53393542">
        <ele>653.00000</ele>
        <time>2024-02-08T13:01:10Z</time>
      </trkpt>
      <trkpt lat="42.92940865" lon="13.53388362">
        <ele>654.00000</ele>
        <time>2024-02-08T13:01:11Z</time>
      </trkpt>
      <trkpt lat="42.92939440" lon="13.53383014">
        <ele>654.00000</ele>
        <time>2024-02-08T13:01:12Z</time>
      </trkpt>
      <trkpt lat="42.92938887" lon="13.53377440">
        <ele>655.00000</ele>
        <time>2024-02-08T13:01:13Z</time>
      </trkpt>
      <trkpt lat="42.92938627" lon="13.53372185">
        <ele>655.00000</ele>
        <time>2024-02-08T13:01:14Z</time>
      </trkpt>
      <trkpt lat="42.92938459" lon="13.53366770">
        <ele>655.00000</ele>
        <time>2024-02-08T13:01:15Z</time>
      </trkpt>
      <trkpt lat="42.92938618" lon="13.53361339">
        <ele>656.00000</ele>
        <time>2024-02-08T13:01:16Z</time>
      </trkpt>
      <trkpt lat="42.92938820" lon="13.53356117">
        <ele>656.00000</ele>
        <time>2024-02-08T13:01:17Z</time>
      </trkpt>
      <trkpt lat="42.92939029" lon="13.53351406">
        <ele>656.00000</ele>
        <time>2024-02-08T13:01:18Z</time>
      </trkpt>
      <trkpt lat="42.92939482" lon="13.53346461">
        <ele>657.00000</ele>
        <time>2024-02-08T13:01:19Z</time>
      </trkpt>
      <trkpt lat="42.92940303" lon="13.53341365">
        <ele>657.00000</ele>
        <time>2024-02-08T13:01:20Z</time>
      </trkpt>
      <trkpt lat="42.92941217" lon="13.53336252">
        <ele>657.00000</ele>
        <time>2024-02-08T13:01:21Z</time>
      </trkpt>
      <trkpt lat="42.92941896" lon="13.53331223">
        <ele>658.00000</ele>
        <time>2024-02-08T13:01:22Z</time>
      </trkpt>
      <trkpt lat="42.92942357" lon="13.53326059">
        <ele>658.00000</ele>
        <time>2024-02-08T13:01:23Z</time>
      </trkpt>
      <trkpt lat="42.92942860" lon="13.53321156">
        <ele>658.00000</ele>
        <time>2024-02-08T13:01:24Z</time>
      </trkpt>
      <trkpt lat="42.92943581" lon="13.53316261">
        <ele>658.00000</ele>
        <time>2024-02-08T13:01:25Z</time>
      </trkpt>
      <trkpt lat="42.92944192" lon="13.53311223">
        <ele>658.00000</ele>
        <time>2024-02-08T13:01:26Z</time>
      </trkpt>
      <trkpt lat="42.92944419" lon="13.53306421">
        <ele>658.00000</ele>
        <time>2024-02-08T13:01:27Z</time>
      </trkpt>
      <trkpt lat="42.92944788" lon="13.53301542">
        <ele>659.00000</ele>
        <time>2024-02-08T13:01:28Z</time>
      </trkpt>
      <trkpt lat="42.92945391" lon="13.53296647">
        <ele>659.00000</ele>
        <time>2024-02-08T13:01:29Z</time>
      </trkpt>
      <trkpt lat="42.92946078" lon="13.53291727">
        <ele>659.00000</ele>
        <time>2024-02-08T13:01:30Z</time>
      </trkpt>
      <trkpt lat="42.92946766" lon="13.53286849">
        <ele>659.00000</ele>
        <time>2024-02-08T13:01:31Z</time>
      </trkpt>
      <trkpt lat="42.92947470" lon="13.53281845">
        <ele>659.00000</ele>
        <time>2024-02-08T13:01:32Z</time>
      </trkpt>
      <trkpt lat="42.92948048" lon="13.53277025">
        <ele>659.00000</ele>
        <time>2024-02-08T13:01:33Z</time>
      </trkpt>
      <trkpt lat="42.92948216" lon="13.53272206">
        <ele>659.00000</ele>
        <time>2024-02-08T13:01:34Z</time>
      </trkpt>
      <trkpt lat="42.92948333" lon="13.53267177">
        <ele>659.00000</ele>
        <time>2024-02-08T13:01:35Z</time>
      </trkpt>
      <trkpt lat="42.92948207" lon="13.53262064">
        <ele>660.00000</ele>
        <time>2024-02-08T13:01:36Z</time>
      </trkpt>
      <trkpt lat="42.92947528" lon="13.53256942">
        <ele>660.00000</ele>
        <time>2024-02-08T13:01:37Z</time>
      </trkpt>
      <trkpt lat="42.92946497" lon="13.53251838">
        <ele>661.00000</ele>
        <time>2024-02-08T13:01:38Z</time>
      </trkpt>
      <trkpt lat="42.92945089" lon="13.53246808">
        <ele>661.00000</ele>
        <time>2024-02-08T13:01:39Z</time>
      </trkpt>
      <trkpt lat="42.92943388" lon="13.53242173">
        <ele>662.00000</ele>
        <time>2024-02-08T13:01:40Z</time>
      </trkpt>
      <trkpt lat="42.92941544" lon="13.53237798">
        <ele>662.00000</ele>
        <time>2024-02-08T13:01:41Z</time>
      </trkpt>
      <trkpt lat="42.92939851" lon="13.53233515">
        <ele>663.00000</ele>
        <time>2024-02-08T13:01:42Z</time>
      </trkpt>
      <trkpt lat="42.92937638" lon="13.53229600">
        <ele>663.00000</ele>
        <time>2024-02-08T13:01:43Z</time>
      </trkpt>
      <trkpt lat="42.92934729" lon="13.53225711">
        <ele>664.00000</ele>
        <time>2024-02-08T13:01:44Z</time>
      </trkpt>
      <trkpt lat="42.92932173" lon="13.53221118">
        <ele>664.00000</ele>
        <time>2024-02-08T13:01:45Z</time>
      </trkpt>
      <trkpt lat="42.92929667" lon="13.53216147">
        <ele>664.00000</ele>
        <time>2024-02-08T13:01:46Z</time>
      </trkpt>
      <trkpt lat="42.92927479" lon="13.53210951">
        <ele>665.00000</ele>
        <time>2024-02-08T13:01:47Z</time>
      </trkpt>
      <trkpt lat="42.92925308" lon="13.53205704">
        <ele>665.00000</ele>
        <time>2024-02-08T13:01:48Z</time>
      </trkpt>
      <trkpt lat="42.92922886" lon="13.53200524">
        <ele>666.00000</ele>
        <time>2024-02-08T13:01:49Z</time>
      </trkpt>
      <trkpt lat="42.92920178" lon="13.53195360">
        <ele>666.00000</ele>
        <time>2024-02-08T13:01:50Z</time>
      </trkpt>
      <trkpt lat="42.92917706" lon="13.53189820">
        <ele>667.00000</ele>
        <time>2024-02-08T13:01:51Z</time>
      </trkpt>
      <trkpt lat="42.92915308" lon="13.53183877">
        <ele>668.00000</ele>
        <time>2024-02-08T13:01:52Z</time>
      </trkpt>
      <trkpt lat="42.92913280" lon="13.53178001">
        <ele>668.00000</ele>
        <time>2024-02-08T13:01:53Z</time>
      </trkpt>
      <trkpt lat="42.92911805" lon="13.53171933">
        <ele>669.00000</ele>
        <time>2024-02-08T13:01:54Z</time>
      </trkpt>
      <trkpt lat="42.92910950" lon="13.53165881">
        <ele>669.00000</ele>
        <time>2024-02-08T13:01:55Z</time>
      </trkpt>
      <trkpt lat="42.92911277" lon="13.53159754">
        <ele>668.00000</ele>
        <time>2024-02-08T13:01:56Z</time>
      </trkpt>
      <trkpt lat="42.92912308" lon="13.53153333">
        <ele>668.00000</ele>
        <time>2024-02-08T13:01:57Z</time>
      </trkpt>
      <trkpt lat="42.92913825" lon="13.53146670">
        <ele>667.00000</ele>
        <time>2024-02-08T13:01:58Z</time>
      </trkpt>
      <trkpt lat="42.92915836" lon="13.53140140">
        <ele>666.00000</ele>
        <time>2024-02-08T13:01:59Z</time>
      </trkpt>
      <trkpt lat="42.92917831" lon="13.53133753">
        <ele>665.00000</ele>
        <time>2024-02-08T13:02:00Z</time>
      </trkpt>
      <trkpt lat="42.92919969" lon="13.53127492">
        <ele>664.00000</ele>
        <time>2024-02-08T13:02:01Z</time>
      </trkpt>
      <trkpt lat="42.92922047" lon="13.53121742">
        <ele>663.00000</ele>
        <time>2024-02-08T13:02:02Z</time>
      </trkpt>
      <trkpt lat="42.92923866" lon="13.53116453">
        <ele>663.00000</ele>
        <time>2024-02-08T13:02:03Z</time>
      </trkpt>
      <trkpt lat="42.92925861" lon="13.53111290">
        <ele>662.00000</ele>
        <time>2024-02-08T13:02:04Z</time>
      </trkpt>
      <trkpt lat="42.92928158" lon="13.53105993">
        <ele>661.00000</ele>
        <time>2024-02-08T13:02:05Z</time>
      </trkpt>
      <trkpt lat="42.92929859" lon="13.53100687">
        <ele>660.00000</ele>
        <time>2024-02-08T13:02:06Z</time>
      </trkpt>
      <trkpt lat="42.92931569" lon="13.53095373">
        <ele>659.00000</ele>
        <time>2024-02-08T13:02:07Z</time>
      </trkpt>
      <trkpt lat="42.92933220" lon="13.53089824">
        <ele>658.00000</ele>
        <time>2024-02-08T13:02:08Z</time>
      </trkpt>
      <trkpt lat="42.92934612" lon="13.53084736">
        <ele>657.00000</ele>
        <time>2024-02-08T13:02:09Z</time>
      </trkpt>
      <trkpt lat="42.92936137" lon="13.53079422">
        <ele>657.00000</ele>
        <time>2024-02-08T13:02:10Z</time>
      </trkpt>
      <trkpt lat="42.92937747" lon="13.53073940">
        <ele>657.00000</ele>
        <time>2024-02-08T13:02:11Z</time>
      </trkpt>
      <trkpt lat="42.92939440" lon="13.53068685">
        <ele>658.00000</ele>
        <time>2024-02-08T13:02:12Z</time>
      </trkpt>
      <trkpt lat="42.92940965" lon="13.53063454">
        <ele>658.00000</ele>
        <time>2024-02-08T13:02:13Z</time>
      </trkpt>
      <trkpt lat="42.92942382" lon="13.53058182">
        <ele>659.00000</ele>
        <time>2024-02-08T13:02:14Z</time>
      </trkpt>
      <trkpt lat="42.92943597" lon="13.53053027">
        <ele>660.00000</ele>
        <time>2024-02-08T13:02:15Z</time>
      </trkpt>
      <trkpt lat="42.92944980" lon="13.53047722">
        <ele>661.00000</ele>
        <time>2024-02-08T13:02:16Z</time>
      </trkpt>
      <trkpt lat="42.92946456" lon="13.53042097">
        <ele>662.00000</ele>
        <time>2024-02-08T13:02:17Z</time>
      </trkpt>
      <trkpt lat="42.92947830" lon="13.53036657">
        <ele>663.00000</ele>
        <time>2024-02-08T13:02:18Z</time>
      </trkpt>
      <trkpt lat="42.92948987" lon="13.53031595">
        <ele>665.00000</ele>
        <time>2024-02-08T13:02:19Z</time>
      </trkpt>
      <trkpt lat="42.92950336" lon="13.53026214">
        <ele>666.00000</ele>
        <time>2024-02-08T13:02:20Z</time>
      </trkpt>
      <trkpt lat="42.92951686" lon="13.53021520">
        <ele>667.00000</ele>
        <time>2024-02-08T13:02:21Z</time>
      </trkpt>
      <trkpt lat="42.92953253" lon="13.53016834">
        <ele>667.00000</ele>
        <time>2024-02-08T13:02:22Z</time>
      </trkpt>
      <trkpt lat="42.92954745" lon="13.53012182">
        <ele>668.00000</ele>
        <time>2024-02-08T13:02:23Z</time>
      </trkpt>
      <trkpt lat="42.92956631" lon="13.53007354">
        <ele>669.00000</ele>
        <time>2024-02-08T13:02:24Z</time>
      </trkpt>
      <trkpt lat="42.92958148" lon="13.53002275">
        <ele>670.00000</ele>
        <time>2024-02-08T13:02:25Z</time>
      </trkpt>
      <trkpt lat="42.92959556" lon="13.52997112">
        <ele>671.00000</ele>
        <time>2024-02-08T13:02:26Z</time>
      </trkpt>
      <trkpt lat="42.92961199" lon="13.52992317">
        <ele>671.00000</ele>
        <time>2024-02-08T13:02:27Z</time>
      </trkpt>
      <trkpt lat="42.92962716" lon="13.52987665">
        <ele>672.00000</ele>
        <time>2024-02-08T13:02:28Z</time>
      </trkpt>
      <trkpt lat="42.92964569" lon="13.52982837">
        <ele>673.00000</ele>
        <time>2024-02-08T13:02:29Z</time>
      </trkpt>
      <trkpt lat="42.92966304" lon="13.52978210">
        <ele>673.00000</ele>
        <time>2024-02-08T13:02:30Z</time>
      </trkpt>
      <trkpt lat="42.92968374" lon="13.52974011">
        <ele>674.00000</ele>
        <time>2024-02-08T13:02:31Z</time>
      </trkpt>
      <trkpt lat="42.92970604" lon="13.52969971">
        <ele>675.00000</ele>
        <time>2024-02-08T13:02:32Z</time>
      </trkpt>
      <trkpt lat="42.92972842" lon="13.52966031">
        <ele>675.00000</ele>
        <time>2024-02-08T13:02:33Z</time>
      </trkpt>
      <trkpt lat="42.92975105" lon="13.52962243">
        <ele>676.00000</ele>
        <time>2024-02-08T13:02:34Z</time>
      </trkpt>
      <trkpt lat="42.92977385" lon="13.52958857">
        <ele>676.00000</ele>
        <time>2024-02-08T13:02:35Z</time>
      </trkpt>
      <trkpt lat="42.92979380" lon="13.52955713">
        <ele>677.00000</ele>
        <time>2024-02-08T13:02:36Z</time>
      </trkpt>
      <trkpt lat="42.92981576" lon="13.52952553">
        <ele>677.00000</ele>
        <time>2024-02-08T13:02:37Z</time>
      </trkpt>
      <trkpt lat="42.92984073" lon="13.52949150">
        <ele>678.00000</ele>
        <time>2024-02-08T13:02:38Z</time>
      </trkpt>
      <trkpt lat="42.92986672" lon="13.52945496">
        <ele>678.00000</ele>
        <time>2024-02-08T13:02:39Z</time>
      </trkpt>
      <trkpt lat="42.92988868" lon="13.52941783">
        <ele>679.00000</ele>
        <time>2024-02-08T13:02:40Z</time>
      </trkpt>
      <trkpt lat="42.92991064" lon="13.52937784">
        <ele>679.00000</ele>
        <time>2024-02-08T13:02:41Z</time>
      </trkpt>
      <trkpt lat="42.92993084" lon="13.52934004">
        <ele>680.00000</ele>
        <time>2024-02-08T13:02:42Z</time>
      </trkpt>
      <trkpt lat="42.92995481" lon="13.52930216">
        <ele>680.00000</ele>
        <time>2024-02-08T13:02:43Z</time>
      </trkpt>
      <trkpt lat="42.92998088" lon="13.52926452">
        <ele>681.00000</ele>
        <time>2024-02-08T13:02:44Z</time>
      </trkpt>
      <trkpt lat="42.93000645" lon="13.52923384">
        <ele>681.00000</ele>
        <time>2024-02-08T13:02:45Z</time>
      </trkpt>
      <trkpt lat="42.93003478" lon="13.52920367">
        <ele>681.00000</ele>
        <time>2024-02-08T13:02:46Z</time>
      </trkpt>
      <trkpt lat="42.93006118" lon="13.52917274">
        <ele>681.00000</ele>
        <time>2024-02-08T13:02:47Z</time>
      </trkpt>
      <trkpt lat="42.93008741" lon="13.52914609">
        <ele>682.00000</ele>
        <time>2024-02-08T13:02:48Z</time>
      </trkpt>
      <trkpt lat="42.93011432" lon="13.52911993">
        <ele>682.00000</ele>
        <time>2024-02-08T13:02:49Z</time>
      </trkpt>
      <trkpt lat="42.93014391" lon="13.52909437">
        <ele>683.00000</ele>
        <time>2024-02-08T13:02:50Z</time>
      </trkpt>
      <trkpt lat="42.93017568" lon="13.52906855">
        <ele>683.00000</ele>
        <time>2024-02-08T13:02:51Z</time>
      </trkpt>
      <trkpt lat="42.93020853" lon="13.52904131">
        <ele>683.00000</ele>
        <time>2024-02-08T13:02:52Z</time>
      </trkpt>
      <trkpt lat="42.93024240" lon="13.52901499">
        <ele>683.00000</ele>
        <time>2024-02-08T13:02:53Z</time>
      </trkpt>
      <trkpt lat="42.93027701" lon="13.52898809">
        <ele>683.00000</ele>
        <time>2024-02-08T13:02:54Z</time>
      </trkpt>
      <trkpt lat="42.93031054" lon="13.52896110">
        <ele>684.00000</ele>
        <time>2024-02-08T13:02:55Z</time>
      </trkpt>
      <trkpt lat="42.93034566" lon="13.52893595">
        <ele>684.00000</ele>
        <time>2024-02-08T13:02:56Z</time>
      </trkpt>
      <trkpt lat="42.93038237" lon="13.52891416">
        <ele>684.00000</ele>
        <time>2024-02-08T13:02:57Z</time>
      </trkpt>
      <trkpt lat="42.93041590" lon="13.52889521">
        <ele>684.00000</ele>
        <time>2024-02-08T13:02:58Z</time>
      </trkpt>
      <trkpt lat="42.93044884" lon="13.52887669">
        <ele>685.00000</ele>
        <time>2024-02-08T13:02:59Z</time>
      </trkpt>
      <trkpt lat="42.93048379" lon="13.52885892">
        <ele>685.00000</ele>
        <time>2024-02-08T13:03:00Z</time>
      </trkpt>
      <trkpt lat="42.93051732" lon="13.52884199">
        <ele>685.00000</ele>
        <time>2024-02-08T13:03:01Z</time>
      </trkpt>
      <trkpt lat="42.93055320" lon="13.52882481">
        <ele>686.00000</ele>
        <time>2024-02-08T13:03:02Z</time>
      </trkpt>
      <trkpt lat="42.93058991" lon="13.52880813">
        <ele>686.00000</ele>
        <time>2024-02-08T13:03:03Z</time>
      </trkpt>
      <trkpt lat="42.93062671" lon="13.52878944">
        <ele>685.00000</ele>
        <time>2024-02-08T13:03:04Z</time>
      </trkpt>
      <trkpt lat="42.93066141" lon="13.52877493">
        <ele>685.00000</ele>
        <time>2024-02-08T13:03:05Z</time>
      </trkpt>
      <trkpt lat="42.93069594" lon="13.52876228">
        <ele>685.00000</ele>
        <time>2024-02-08T13:03:06Z</time>
      </trkpt>
      <trkpt lat="42.93073265" lon="13.52875113">
        <ele>685.00000</ele>
        <time>2024-02-08T13:03:07Z</time>
      </trkpt>
      <trkpt lat="42.93076115" lon="13.52874350">
        <ele>685.00000</ele>
        <time>2024-02-08T13:03:08Z</time>
      </trkpt>
      <trkpt lat="42.93080516" lon="13.52873043">
        <ele>684.00000</ele>
        <time>2024-02-08T13:03:09Z</time>
      </trkpt>
      <trkpt lat="42.93084103" lon="13.52871970">
        <ele>684.00000</ele>
        <time>2024-02-08T13:03:10Z</time>
      </trkpt>
      <trkpt lat="42.93087632" lon="13.52870889">
        <ele>684.00000</ele>
        <time>2024-02-08T13:03:11Z</time>
      </trkpt>
      <trkpt lat="42.93091203" lon="13.52869589">
        <ele>684.00000</ele>
        <time>2024-02-08T13:03:12Z</time>
      </trkpt>
      <trkpt lat="42.93094119" lon="13.52868324">
        <ele>684.00000</ele>
        <time>2024-02-08T13:03:13Z</time>
      </trkpt>
      <trkpt lat="42.93097573" lon="13.52866463">
        <ele>684.00000</ele>
        <time>2024-02-08T13:03:14Z</time>
      </trkpt>
      <trkpt lat="42.93100968" lon="13.52863739">
        <ele>684.00000</ele>
        <time>2024-02-08T13:03:15Z</time>
      </trkpt>
      <trkpt lat="42.93103373" lon="13.52860646">
        <ele>685.00000</ele>
        <time>2024-02-08T13:03:16Z</time>
      </trkpt>
      <trkpt lat="42.93105913" lon="13.52856991">
        <ele>685.00000</ele>
        <time>2024-02-08T13:03:17Z</time>
      </trkpt>
      <trkpt lat="42.93108285" lon="13.52852909">
        <ele>686.00000</ele>
        <time>2024-02-08T13:03:18Z</time>
      </trkpt>
      <trkpt lat="42.93109953" lon="13.52848207">
        <ele>687.00000</ele>
        <time>2024-02-08T13:03:19Z</time>
      </trkpt>
      <trkpt lat="42.93111193" lon="13.52842994">
        <ele>688.00000</ele>
        <time>2024-02-08T13:03:20Z</time>
      </trkpt>
      <trkpt lat="42.93111629" lon="13.52837637">
        <ele>689.00000</ele>
        <time>2024-02-08T13:03:21Z</time>
      </trkpt>
      <trkpt lat="42.93112208" lon="13.52832617">
        <ele>690.00000</ele>
        <time>2024-02-08T13:03:22Z</time>
      </trkpt>
      <trkpt lat="42.93112761" lon="13.52827655">
        <ele>691.00000</ele>
        <time>2024-02-08T13:03:23Z</time>
      </trkpt>
      <trkpt lat="42.93113079" lon="13.52824134">
        <ele>692.00000</ele>
        <time>2024-02-08T13:03:24Z</time>
      </trkpt>
      <trkpt lat="42.93113247" lon="13.52818711">
        <ele>693.00000</ele>
        <time>2024-02-08T13:03:25Z</time>
      </trkpt>
      <trkpt lat="42.93113398" lon="13.52813724">
        <ele>695.00000</ele>
        <time>2024-02-08T13:03:26Z</time>
      </trkpt>
      <trkpt lat="42.93113289" lon="13.52808728">
        <ele>696.00000</ele>
        <time>2024-02-08T13:03:27Z</time>
      </trkpt>
      <trkpt lat="42.93114177" lon="13.52803121">
        <ele>698.00000</ele>
        <time>2024-02-08T13:03:28Z</time>
      </trkpt>
      <trkpt lat="42.93115477" lon="13.52797337">
        <ele>699.00000</ele>
        <time>2024-02-08T13:03:29Z</time>
      </trkpt>
      <trkpt lat="42.93116784" lon="13.52791973">
        <ele>700.00000</ele>
        <time>2024-02-08T13:03:30Z</time>
      </trkpt>
      <trkpt lat="42.93117924" lon="13.52786818">
        <ele>701.00000</ele>
        <time>2024-02-08T13:03:31Z</time>
      </trkpt>
      <trkpt lat="42.93119483" lon="13.52781713">
        <ele>703.00000</ele>
        <time>2024-02-08T13:03:32Z</time>
      </trkpt>
      <trkpt lat="42.93121394" lon="13.52776944">
        <ele>704.00000</ele>
        <time>2024-02-08T13:03:33Z</time>
      </trkpt>
      <trkpt lat="42.93123624" lon="13.52772317">
        <ele>704.00000</ele>
        <time>2024-02-08T13:03:34Z</time>
      </trkpt>
      <trkpt lat="42.93126164" lon="13.52768302">
        <ele>705.00000</ele>
        <time>2024-02-08T13:03:35Z</time>
      </trkpt>
      <trkpt lat="42.93128997" lon="13.52764975">
        <ele>705.00000</ele>
        <time>2024-02-08T13:03:36Z</time>
      </trkpt>
      <trkpt lat="42.93132148" lon="13.52762955">
        <ele>705.00000</ele>
        <time>2024-02-08T13:03:37Z</time>
      </trkpt>
      <trkpt lat="42.93135643" lon="13.52761605">
        <ele>705.00000</ele>
        <time>2024-02-08T13:03:38Z</time>
      </trkpt>
      <trkpt lat="42.93139558" lon="13.52760583">
        <ele>704.00000</ele>
        <time>2024-02-08T13:03:39Z</time>
      </trkpt>
      <trkpt lat="42.93143514" lon="13.52760566">
        <ele>704.00000</ele>
        <time>2024-02-08T13:03:40Z</time>
      </trkpt>
      <trkpt lat="42.93146842" lon="13.52761798">
        <ele>704.00000</ele>
        <time>2024-02-08T13:03:41Z</time>
      </trkpt>
      <trkpt lat="42.93150002" lon="13.52762804">
        <ele>703.00000</ele>
        <time>2024-02-08T13:03:42Z</time>
      </trkpt>
      <trkpt lat="42.93153237" lon="13.52763768">
        <ele>703.00000</ele>
        <time>2024-02-08T13:03:43Z</time>
      </trkpt>
      <trkpt lat="42.93156380" lon="13.52765277">
        <ele>702.00000</ele>
        <time>2024-02-08T13:03:44Z</time>
      </trkpt>
      <trkpt lat="42.93159582" lon="13.52766727">
        <ele>702.00000</ele>
        <time>2024-02-08T13:03:45Z</time>
      </trkpt>
      <trkpt lat="42.93163077" lon="13.52767707">
        <ele>701.00000</ele>
        <time>2024-02-08T13:03:46Z</time>
      </trkpt>
      <trkpt lat="42.93166522" lon="13.52768135">
        <ele>701.00000</ele>
        <time>2024-02-08T13:03:47Z</time>
      </trkpt>
      <trkpt lat="42.93169833" lon="13.52768596">
        <ele>701.00000</ele>
        <time>2024-02-08T13:03:48Z</time>
      </trkpt>
      <trkpt lat="42.93173446" lon="13.52769208">
        <ele>700.00000</ele>
        <time>2024-02-08T13:03:49Z</time>
      </trkpt>
      <trkpt lat="42.93176673" lon="13.52769350">
        <ele>700.00000</ele>
        <time>2024-02-08T13:03:50Z</time>
      </trkpt>
      <trkpt lat="42.93179942" lon="13.52769342">
        <ele>700.00000</ele>
        <time>2024-02-08T13:03:51Z</time>
      </trkpt>
      <trkpt lat="42.93183563" lon="13.52768688">
        <ele>701.00000</ele>
        <time>2024-02-08T13:03:52Z</time>
      </trkpt>
      <trkpt lat="42.93187578" lon="13.52767179">
        <ele>701.00000</ele>
        <time>2024-02-08T13:03:53Z</time>
      </trkpt>
      <trkpt lat="42.93192246" lon="13.52764891">
        <ele>702.00000</ele>
        <time>2024-02-08T13:03:54Z</time>
      </trkpt>
      <trkpt lat="42.93196102" lon="13.52762594">
        <ele>703.00000</ele>
        <time>2024-02-08T13:03:55Z</time>
      </trkpt>
      <trkpt lat="42.93200603" lon="13.52759853">
        <ele>703.00000</ele>
        <time>2024-02-08T13:03:56Z</time>
      </trkpt>
      <trkpt lat="42.93204040" lon="13.52757909">
        <ele>704.00000</ele>
        <time>2024-02-08T13:03:57Z</time>
      </trkpt>
      <trkpt lat="42.93208298" lon="13.52754573">
        <ele>704.00000</ele>
        <time>2024-02-08T13:03:58Z</time>
      </trkpt>
      <trkpt lat="42.93212036" lon="13.52750918">
        <ele>705.00000</ele>
        <time>2024-02-08T13:03:59Z</time>
      </trkpt>
      <trkpt lat="42.93215959" lon="13.52746727">
        <ele>706.00000</ele>
        <time>2024-02-08T13:04:00Z</time>
      </trkpt>
      <trkpt lat="42.93219873" lon="13.52743232">
        <ele>707.00000</ele>
        <time>2024-02-08T13:04:01Z</time>
      </trkpt>
      <trkpt lat="42.93223528" lon="13.52739737">
        <ele>708.00000</ele>
        <time>2024-02-08T13:04:02Z</time>
      </trkpt>
      <trkpt lat="42.93227098" lon="13.52736803">
        <ele>708.00000</ele>
        <time>2024-02-08T13:04:03Z</time>
      </trkpt>
      <trkpt lat="42.93231063" lon="13.52733585">
        <ele>707.00000</ele>
        <time>2024-02-08T13:04:04Z</time>
      </trkpt>
      <trkpt lat="42.93234902" lon="13.52729570">
        <ele>707.00000</ele>
        <time>2024-02-08T13:04:05Z</time>
      </trkpt>
      <trkpt lat="42.93238825" lon="13.52726141">
        <ele>707.00000</ele>
        <time>2024-02-08T13:04:06Z</time>
      </trkpt>
      <trkpt lat="42.93244650" lon="13.52722470">
        <ele>706.00000</ele>
        <time>2024-02-08T13:04:07Z</time>
      </trkpt>
      <trkpt lat="42.93248279" lon="13.52718891">
        <ele>705.00000</ele>
        <time>2024-02-08T13:04:08Z</time>
      </trkpt>
      <trkpt lat="42.93251314" lon="13.52714499">
        <ele>705.00000</ele>
        <time>2024-02-08T13:04:09Z</time>
      </trkpt>
      <trkpt lat="42.93254893" lon="13.52709721">
        <ele>705.00000</ele>
        <time>2024-02-08T13:04:10Z</time>
      </trkpt>
      <trkpt lat="42.93257768" lon="13.52705405">
        <ele>704.00000</ele>
        <time>2024-02-08T13:04:11Z</time>
      </trkpt>
      <trkpt lat="42.93260743" lon="13.52700199">
        <ele>705.00000</ele>
        <time>2024-02-08T13:04:12Z</time>
      </trkpt>
      <trkpt lat="42.93261984" lon="13.52695128">
        <ele>705.00000</ele>
        <time>2024-02-08T13:04:13Z</time>
      </trkpt>
      <trkpt lat="42.93263308" lon="13.52690007">
        <ele>705.00000</ele>
        <time>2024-02-08T13:04:14Z</time>
      </trkpt>
      <trkpt lat="42.93264465" lon="13.52685204">
        <ele>706.00000</ele>
        <time>2024-02-08T13:04:15Z</time>
      </trkpt>
      <trkpt lat="42.93265370" lon="13.52680510">
        <ele>706.00000</ele>
        <time>2024-02-08T13:04:16Z</time>
      </trkpt>
      <trkpt lat="42.93266468" lon="13.52676261">
        <ele>707.00000</ele>
        <time>2024-02-08T13:04:17Z</time>
      </trkpt>
      <trkpt lat="42.93266795" lon="13.52670075">
        <ele>708.00000</ele>
        <time>2024-02-08T13:04:18Z</time>
      </trkpt>
      <trkpt lat="42.93266619" lon="13.52664828">
        <ele>708.00000</ele>
        <time>2024-02-08T13:04:19Z</time>
      </trkpt>
      <trkpt lat="42.93265831" lon="13.52659933">
        <ele>708.00000</ele>
        <time>2024-02-08T13:04:20Z</time>
      </trkpt>
      <trkpt lat="42.93264758" lon="13.52655666">
        <ele>708.00000</ele>
        <time>2024-02-08T13:04:21Z</time>
      </trkpt>
      <trkpt lat="42.93263308" lon="13.52651727">
        <ele>709.00000</ele>
        <time>2024-02-08T13:04:22Z</time>
      </trkpt>
      <trkpt lat="42.93261456" lon="13.52647603">
        <ele>710.00000</ele>
        <time>2024-02-08T13:04:23Z</time>
      </trkpt>
      <trkpt lat="42.93259771" lon="13.52643454">
        <ele>710.00000</ele>
        <time>2024-02-08T13:04:24Z</time>
      </trkpt>
      <trkpt lat="42.93257533" lon="13.52639615">
        <ele>711.00000</ele>
        <time>2024-02-08T13:04:25Z</time>
      </trkpt>
      <trkpt lat="42.93254801" lon="13.52635893">
        <ele>712.00000</ele>
        <time>2024-02-08T13:04:26Z</time>
      </trkpt>
      <trkpt lat="42.93253166" lon="13.52632725">
        <ele>713.00000</ele>
        <time>2024-02-08T13:04:27Z</time>
      </trkpt>
      <trkpt lat="42.93250819" lon="13.52627939">
        <ele>713.00000</ele>
        <time>2024-02-08T13:04:28Z</time>
      </trkpt>
      <trkpt lat="42.93248372" lon="13.52624083">
        <ele>714.00000</ele>
        <time>2024-02-08T13:04:29Z</time>
      </trkpt>
      <trkpt lat="42.93246394" lon="13.52621024">
        <ele>715.00000</ele>
        <time>2024-02-08T13:04:30Z</time>
      </trkpt>
      <trkpt lat="42.93243963" lon="13.52617059">
        <ele>716.00000</ele>
        <time>2024-02-08T13:04:31Z</time>
      </trkpt>
      <trkpt lat="42.93241490" lon="13.52613455">
        <ele>716.00000</ele>
        <time>2024-02-08T13:04:32Z</time>
      </trkpt>
      <trkpt lat="42.93239252" lon="13.52609021">
        <ele>717.00000</ele>
        <time>2024-02-08T13:04:33Z</time>
      </trkpt>
      <trkpt lat="42.93236360" lon="13.52604503">
        <ele>718.00000</ele>
        <time>2024-02-08T13:04:34Z</time>
      </trkpt>
      <trkpt lat="42.93233603" lon="13.52600664">
        <ele>719.00000</ele>
        <time>2024-02-08T13:04:35Z</time>
      </trkpt>
      <trkpt lat="42.93231767" lon="13.52597278">
        <ele>719.00000</ele>
        <time>2024-02-08T13:04:36Z</time>
      </trkpt>
      <trkpt lat="42.93228892" lon="13.52592215">
        <ele>720.00000</ele>
        <time>2024-02-08T13:04:37Z</time>
      </trkpt>
      <trkpt lat="42.93226403" lon="13.52588301">
        <ele>722.00000</ele>
        <time>2024-02-08T13:04:38Z</time>
      </trkpt>
      <trkpt lat="42.93223880" lon="13.52584152">
        <ele>723.00000</ele>
        <time>2024-02-08T13:04:39Z</time>
      </trkpt>
      <trkpt lat="42.93221843" lon="13.52579341">
        <ele>722.00000</ele>
        <time>2024-02-08T13:04:40Z</time>
      </trkpt>
      <trkpt lat="42.93219798" lon="13.52574219">
        <ele>721.00000</ele>
        <time>2024-02-08T13:04:41Z</time>
      </trkpt>
      <trkpt lat="42.93217501" lon="13.52569241">
        <ele>721.00000</ele>
        <time>2024-02-08T13:04:42Z</time>
      </trkpt>
      <trkpt lat="42.93215707" lon="13.52563742">
        <ele>720.00000</ele>
        <time>2024-02-08T13:04:43Z</time>
      </trkpt>
      <trkpt lat="42.93214350" lon="13.52558344">
        <ele>719.00000</ele>
        <time>2024-02-08T13:04:44Z</time>
      </trkpt>
      <trkpt lat="42.93212858" lon="13.52552636">
        <ele>719.00000</ele>
        <time>2024-02-08T13:04:45Z</time>
      </trkpt>
      <trkpt lat="42.93211349" lon="13.52546744">
        <ele>719.00000</ele>
        <time>2024-02-08T13:04:46Z</time>
      </trkpt>
      <trkpt lat="42.93209790" lon="13.52541228">
        <ele>719.00000</ele>
        <time>2024-02-08T13:04:47Z</time>
      </trkpt>
      <trkpt lat="42.93209253" lon="13.52535193">
        <ele>718.00000</ele>
        <time>2024-02-08T13:04:48Z</time>
      </trkpt>
      <trkpt lat="42.93208700" lon="13.52529183">
        <ele>718.00000</ele>
        <time>2024-02-08T13:04:49Z</time>
      </trkpt>
      <trkpt lat="42.93207585" lon="13.52523375">
        <ele>718.00000</ele>
        <time>2024-02-08T13:04:50Z</time>
      </trkpt>
      <trkpt lat="42.93207786" lon="13.52517692">
        <ele>718.00000</ele>
        <time>2024-02-08T13:04:51Z</time>
      </trkpt>
      <trkpt lat="42.93208449" lon="13.52511925">
        <ele>718.00000</ele>
        <time>2024-02-08T13:04:52Z</time>
      </trkpt>
      <trkpt lat="42.93209656" lon="13.52505890">
        <ele>718.00000</ele>
        <time>2024-02-08T13:04:53Z</time>
      </trkpt>
      <trkpt lat="42.93210670" lon="13.52500165">
        <ele>718.00000</ele>
        <time>2024-02-08T13:04:54Z</time>
      </trkpt>
      <trkpt lat="42.93211022" lon="13.52494860">
        <ele>719.00000</ele>
        <time>2024-02-08T13:04:55Z</time>
      </trkpt>
      <trkpt lat="42.93211592" lon="13.52489319">
        <ele>720.00000</ele>
        <time>2024-02-08T13:04:56Z</time>
      </trkpt>
      <trkpt lat="42.93212430" lon="13.52483779">
        <ele>721.00000</ele>
        <time>2024-02-08T13:04:57Z</time>
      </trkpt>
      <trkpt lat="42.93213545" lon="13.52478180">
        <ele>721.00000</ele>
        <time>2024-02-08T13:04:58Z</time>
      </trkpt>
      <trkpt lat="42.93215012" lon="13.52472505">
        <ele>722.00000</ele>
        <time>2024-02-08T13:04:59Z</time>
      </trkpt>
      <trkpt lat="42.93216277" lon="13.52466990">
        <ele>722.00000</ele>
        <time>2024-02-08T13:05:00Z</time>
      </trkpt>
      <trkpt lat="42.93217233" lon="13.52461600">
        <ele>723.00000</ele>
        <time>2024-02-08T13:05:01Z</time>
      </trkpt>
      <trkpt lat="42.93218180" lon="13.52455917">
        <ele>723.00000</ele>
        <time>2024-02-08T13:05:02Z</time>
      </trkpt>
      <trkpt lat="42.93219152" lon="13.52450100">
        <ele>724.00000</ele>
        <time>2024-02-08T13:05:03Z</time>
      </trkpt>
      <trkpt lat="42.93220116" lon="13.52443965">
        <ele>724.00000</ele>
        <time>2024-02-08T13:05:04Z</time>
      </trkpt>
      <trkpt lat="42.93221390" lon="13.52437628">
        <ele>724.00000</ele>
        <time>2024-02-08T13:05:05Z</time>
      </trkpt>
      <trkpt lat="42.93222337" lon="13.52431735">
        <ele>724.00000</ele>
        <time>2024-02-08T13:05:06Z</time>
      </trkpt>
      <trkpt lat="42.93223561" lon="13.52425633">
        <ele>724.00000</ele>
        <time>2024-02-08T13:05:07Z</time>
      </trkpt>
      <trkpt lat="42.93225338" lon="13.52419691">
        <ele>723.00000</ele>
        <time>2024-02-08T13:05:08Z</time>
      </trkpt>
      <trkpt lat="42.93227082" lon="13.52414972">
        <ele>723.00000</ele>
        <time>2024-02-08T13:05:09Z</time>
      </trkpt>
      <trkpt lat="42.93229714" lon="13.52407981">
        <ele>723.00000</ele>
        <time>2024-02-08T13:05:10Z</time>
      </trkpt>
      <trkpt lat="42.93232270" lon="13.52402055">
        <ele>723.00000</ele>
        <time>2024-02-08T13:05:11Z</time>
      </trkpt>
      <trkpt lat="42.93234801" lon="13.52396355">
        <ele>723.00000</ele>
        <time>2024-02-08T13:05:12Z</time>
      </trkpt>
      <trkpt lat="42.93236654" lon="13.52391888">
        <ele>723.00000</ele>
        <time>2024-02-08T13:05:13Z</time>
      </trkpt>
      <trkpt lat="42.93239856" lon="13.52385040">
        <ele>724.00000</ele>
        <time>2024-02-08T13:05:14Z</time>
      </trkpt>
      <trkpt lat="42.93242261" lon="13.52379382">
        <ele>724.00000</ele>
        <time>2024-02-08T13:05:15Z</time>
      </trkpt>
      <trkpt lat="42.93244172" lon="13.52375057">
        <ele>725.00000</ele>
        <time>2024-02-08T13:05:16Z</time>
      </trkpt>
      <trkpt lat="42.93247014" lon="13.52368544">
        <ele>726.00000</ele>
        <time>2024-02-08T13:05:17Z</time>
      </trkpt>
      <trkpt lat="42.93248891" lon="13.52364127">
        <ele>726.00000</ele>
        <time>2024-02-08T13:05:18Z</time>
      </trkpt>
      <trkpt lat="42.93251280" lon="13.52358754">
        <ele>727.00000</ele>
        <time>2024-02-08T13:05:19Z</time>
      </trkpt>
      <trkpt lat="42.93254247" lon="13.52351856">
        <ele>727.00000</ele>
        <time>2024-02-08T13:05:20Z</time>
      </trkpt>
      <trkpt lat="42.93256670" lon="13.52346165">
        <ele>727.00000</ele>
        <time>2024-02-08T13:05:21Z</time>
      </trkpt>
      <trkpt lat="42.93259251" lon="13.52340348">
        <ele>727.00000</ele>
        <time>2024-02-08T13:05:22Z</time>
      </trkpt>
      <trkpt lat="42.93261129" lon="13.52335712">
        <ele>727.00000</ele>
        <time>2024-02-08T13:05:23Z</time>
      </trkpt>
      <trkpt lat="42.93263937" lon="13.52329853">
        <ele>727.00000</ele>
        <time>2024-02-08T13:05:24Z</time>
      </trkpt>
      <trkpt lat="42.93267189" lon="13.52323140">
        <ele>726.00000</ele>
        <time>2024-02-08T13:05:25Z</time>
      </trkpt>
      <trkpt lat="42.93269989" lon="13.52317390">
        <ele>725.00000</ele>
        <time>2024-02-08T13:05:26Z</time>
      </trkpt>
      <trkpt lat="42.93272855" lon="13.52311179">
        <ele>725.00000</ele>
        <time>2024-02-08T13:05:27Z</time>
      </trkpt>
      <trkpt lat="42.93275093" lon="13.52305864">
        <ele>724.00000</ele>
        <time>2024-02-08T13:05:28Z</time>
      </trkpt>
      <trkpt lat="42.93277482" lon="13.52299033">
        <ele>724.00000</ele>
        <time>2024-02-08T13:05:29Z</time>
      </trkpt>
      <trkpt lat="42.93279703" lon="13.52290869">
        <ele>724.00000</ele>
        <time>2024-02-08T13:05:30Z</time>
      </trkpt>
      <trkpt lat="42.93280776" lon="13.52283686">
        <ele>724.00000</ele>
        <time>2024-02-08T13:05:31Z</time>
      </trkpt>
      <trkpt lat="42.93280692" lon="13.52278104">
        <ele>724.00000</ele>
        <time>2024-02-08T13:05:32Z</time>
      </trkpt>
      <trkpt lat="42.93279980" lon="13.52271440">
        <ele>725.00000</ele>
        <time>2024-02-08T13:05:33Z</time>
      </trkpt>
      <trkpt lat="42.93278136" lon="13.52265388">
        <ele>726.00000</ele>
        <time>2024-02-08T13:05:34Z</time>
      </trkpt>
      <trkpt lat="42.93274247" lon="13.52259797">
        <ele>727.00000</ele>
        <time>2024-02-08T13:05:35Z</time>
      </trkpt>
      <trkpt lat="42.93270978" lon="13.52257350">
        <ele>728.00000</ele>
        <time>2024-02-08T13:05:36Z</time>
      </trkpt>
      <trkpt lat="42.93265479" lon="13.52255011">
        <ele>729.00000</ele>
        <time>2024-02-08T13:05:37Z</time>
      </trkpt>
      <trkpt lat="42.93261112" lon="13.52255506">
        <ele>730.00000</ele>
        <time>2024-02-08T13:05:38Z</time>
      </trkpt>
      <trkpt lat="42.93256024" lon="13.52258213">
        <ele>731.00000</ele>
        <time>2024-02-08T13:05:39Z</time>
      </trkpt>
      <trkpt lat="42.93250710" lon="13.52263025">
        <ele>732.00000</ele>
        <time>2024-02-08T13:05:40Z</time>
      </trkpt>
      <trkpt lat="42.93246670" lon="13.52267174">
        <ele>733.00000</ele>
        <time>2024-02-08T13:05:41Z</time>
      </trkpt>
      <trkpt lat="42.93242898" lon="13.52271515">
        <ele>733.00000</ele>
        <time>2024-02-08T13:05:42Z</time>
      </trkpt>
      <trkpt lat="42.93239881" lon="13.52275220">
        <ele>734.00000</ele>
        <time>2024-02-08T13:05:43Z</time>
      </trkpt>
      <trkpt lat="42.93236218" lon="13.52279839">
        <ele>735.00000</ele>
        <time>2024-02-08T13:05:44Z</time>
      </trkpt>
      <trkpt lat="42.93231734" lon="13.52285329">
        <ele>735.00000</ele>
        <time>2024-02-08T13:05:45Z</time>
      </trkpt>
      <trkpt lat="42.93227978" lon="13.52289830">
        <ele>735.00000</ele>
        <time>2024-02-08T13:05:46Z</time>
      </trkpt>
      <trkpt lat="42.93224466" lon="13.52294247">
        <ele>736.00000</ele>
        <time>2024-02-08T13:05:47Z</time>
      </trkpt>
      <trkpt lat="42.93221491" lon="13.52297524">
        <ele>736.00000</ele>
        <time>2024-02-08T13:05:48Z</time>
      </trkpt>
      <trkpt lat="42.93217484" lon="13.52301556">
        <ele>737.00000</ele>
        <time>2024-02-08T13:05:49Z</time>
      </trkpt>
      <trkpt lat="42.93212589" lon="13.52306518">
        <ele>738.00000</ele>
        <time>2024-02-08T13:05:50Z</time>
      </trkpt>
      <trkpt lat="42.93208926" lon="13.52310977">
        <ele>738.00000</ele>
        <time>2024-02-08T13:05:51Z</time>
      </trkpt>
      <trkpt lat="42.93205255" lon="13.52315487">
        <ele>739.00000</ele>
        <time>2024-02-08T13:05:52Z</time>
      </trkpt>
      <trkpt lat="42.93202430" lon="13.52319016">
        <ele>739.00000</ele>
        <time>2024-02-08T13:05:53Z</time>
      </trkpt>
      <trkpt lat="42.93199145" lon="13.52323584">
        <ele>740.00000</ele>
        <time>2024-02-08T13:05:54Z</time>
      </trkpt>
      <trkpt lat="42.93195289" lon="13.52329032">
        <ele>740.00000</ele>
        <time>2024-02-08T13:05:55Z</time>
      </trkpt>
      <trkpt lat="42.93191744" lon="13.52333583">
        <ele>741.00000</ele>
        <time>2024-02-08T13:05:56Z</time>
      </trkpt>
      <trkpt lat="42.93188483" lon="13.52338328">
        <ele>742.00000</ele>
        <time>2024-02-08T13:05:57Z</time>
      </trkpt>
      <trkpt lat="42.93186035" lon="13.52342292">
        <ele>742.00000</ele>
        <time>2024-02-08T13:05:58Z</time>
      </trkpt>
      <trkpt lat="42.93182507" lon="13.52347891">
        <ele>743.00000</ele>
        <time>2024-02-08T13:05:59Z</time>
      </trkpt>
      <trkpt lat="42.93179389" lon="13.52352392">
        <ele>743.00000</ele>
        <time>2024-02-08T13:06:00Z</time>
      </trkpt>
      <trkpt lat="42.93176170" lon="13.52356499">
        <ele>744.00000</ele>
        <time>2024-02-08T13:06:01Z</time>
      </trkpt>
      <trkpt lat="42.93173043" lon="13.52360674">
        <ele>745.00000</ele>
        <time>2024-02-08T13:06:02Z</time>
      </trkpt>
      <trkpt lat="42.93169842" lon="13.52365175">
        <ele>745.00000</ele>
        <time>2024-02-08T13:06:03Z</time>
      </trkpt>
      <trkpt lat="42.93166782" lon="13.52369902">
        <ele>746.00000</ele>
        <time>2024-02-08T13:06:04Z</time>
      </trkpt>
      <trkpt lat="42.93164041" lon="13.52374940">
        <ele>746.00000</ele>
        <time>2024-02-08T13:06:05Z</time>
      </trkpt>
      <trkpt lat="42.93161652" lon="13.52379927">
        <ele>747.00000</ele>
        <time>2024-02-08T13:06:06Z</time>
      </trkpt>
      <trkpt lat="42.93158995" lon="13.52384688">
        <ele>747.00000</ele>
        <time>2024-02-08T13:06:07Z</time>
      </trkpt>
      <trkpt lat="42.93156514" lon="13.52388585">
        <ele>747.00000</ele>
        <time>2024-02-08T13:06:08Z</time>
      </trkpt>
      <trkpt lat="42.93153287" lon="13.52394377">
        <ele>747.00000</ele>
        <time>2024-02-08T13:06:09Z</time>
      </trkpt>
      <trkpt lat="42.93150882" lon="13.52399331">
        <ele>747.00000</ele>
        <time>2024-02-08T13:06:10Z</time>
      </trkpt>
      <trkpt lat="42.93148342" lon="13.52404352">
        <ele>747.00000</ele>
        <time>2024-02-08T13:06:11Z</time>
      </trkpt>
      <trkpt lat="42.93146381" lon="13.52408383">
        <ele>748.00000</ele>
        <time>2024-02-08T13:06:12Z</time>
      </trkpt>
      <trkpt lat="42.93144059" lon="13.52413379">
        <ele>748.00000</ele>
        <time>2024-02-08T13:06:13Z</time>
      </trkpt>
      <trkpt lat="42.93141058" lon="13.52419221">
        <ele>748.00000</ele>
        <time>2024-02-08T13:06:14Z</time>
      </trkpt>
      <trkpt lat="42.93138359" lon="13.52423924">
        <ele>748.00000</ele>
        <time>2024-02-08T13:06:15Z</time>
      </trkpt>
      <trkpt lat="42.93135979" lon="13.52427653">
        <ele>748.00000</ele>
        <time>2024-02-08T13:06:16Z</time>
      </trkpt>
      <trkpt lat="42.93133431" lon="13.52432523">
        <ele>748.00000</ele>
        <time>2024-02-08T13:06:17Z</time>
      </trkpt>
      <trkpt lat="42.93130137" lon="13.52437041">
        <ele>749.00000</ele>
        <time>2024-02-08T13:06:18Z</time>
      </trkpt>
      <trkpt lat="42.93125359" lon="13.52441819">
        <ele>749.00000</ele>
        <time>2024-02-08T13:06:19Z</time>
      </trkpt>
      <trkpt lat="42.93120841" lon="13.52444920">
        <ele>749.00000</ele>
        <time>2024-02-08T13:06:20Z</time>
      </trkpt>
      <trkpt lat="42.93116114" lon="13.52446521">
        <ele>750.00000</ele>
        <time>2024-02-08T13:06:21Z</time>
      </trkpt>
      <trkpt lat="42.93112300" lon="13.52446580">
        <ele>750.00000</ele>
        <time>2024-02-08T13:06:22Z</time>
      </trkpt>
      <trkpt lat="42.93107120" lon="13.52445867">
        <ele>750.00000</ele>
        <time>2024-02-08T13:06:23Z</time>
      </trkpt>
      <trkpt lat="42.93102074" lon="13.52444501">
        <ele>749.00000</ele>
        <time>2024-02-08T13:06:24Z</time>
      </trkpt>
      <trkpt lat="42.93095972" lon="13.52441542">
        <ele>748.00000</ele>
        <time>2024-02-08T13:06:25Z</time>
      </trkpt>
      <trkpt lat="42.93090960" lon="13.52437083">
        <ele>746.00000</ele>
        <time>2024-02-08T13:06:26Z</time>
      </trkpt>
      <trkpt lat="42.93086777" lon="13.52432339">
        <ele>745.00000</ele>
        <time>2024-02-08T13:06:27Z</time>
      </trkpt>
      <trkpt lat="42.93081589" lon="13.52426011">
        <ele>743.00000</ele>
        <time>2024-02-08T13:06:28Z</time>
      </trkpt>
      <trkpt lat="42.93077616" lon="13.52416246">
        <ele>741.00000</ele>
        <time>2024-02-08T13:06:29Z</time>
      </trkpt>
      <trkpt lat="42.93075621" lon="13.52406028">
        <ele>740.00000</ele>
        <time>2024-02-08T13:06:30Z</time>
      </trkpt>
      <trkpt lat="42.93076442" lon="13.52392022">
        <ele>740.00000</ele>
        <time>2024-02-08T13:06:31Z</time>
      </trkpt>
      <trkpt lat="42.93075914" lon="13.52377362">
        <ele>740.00000</ele>
        <time>2024-02-08T13:06:32Z</time>
      </trkpt>
      <trkpt lat="42.93075604" lon="13.52364270">
        <ele>740.00000</ele>
        <time>2024-02-08T13:06:33Z</time>
      </trkpt>
      <trkpt lat="42.93075512" lon="13.52344622">
        <ele>741.00000</ele>
        <time>2024-02-08T13:06:34Z</time>
      </trkpt>
      <trkpt lat="42.93074690" lon="13.52328529">
        <ele>741.00000</ele>
        <time>2024-02-08T13:06:35Z</time>
      </trkpt>
      <trkpt lat="42.93074003" lon="13.52312369">
        <ele>740.00000</ele>
        <time>2024-02-08T13:06:36Z</time>
      </trkpt>
      <trkpt lat="42.93072653" lon="13.52296041">
        <ele>739.00000</ele>
        <time>2024-02-08T13:06:37Z</time>
      </trkpt>
      <trkpt lat="42.93070357" lon="13.52279772">
        <ele>738.00000</ele>
        <time>2024-02-08T13:06:38Z</time>
      </trkpt>
      <trkpt lat="42.93067951" lon="13.52263561">
        <ele>737.00000</ele>
        <time>2024-02-08T13:06:39Z</time>
      </trkpt>
      <trkpt lat="42.93065252" lon="13.52247317">
        <ele>736.00000</ele>
        <time>2024-02-08T13:06:40Z</time>
      </trkpt>
      <trkpt lat="42.93061916" lon="13.52231048">
        <ele>737.00000</ele>
        <time>2024-02-08T13:06:41Z</time>
      </trkpt>
      <trkpt lat="42.93058723" lon="13.52218433">
        <ele>737.00000</ele>
        <time>2024-02-08T13:06:42Z</time>
      </trkpt>
      <trkpt lat="42.93054188" lon="13.52203320">
        <ele>738.00000</ele>
        <time>2024-02-08T13:06:43Z</time>
      </trkpt>
      <trkpt lat="42.93046192" lon="13.52187344">
        <ele>738.00000</ele>
        <time>2024-02-08T13:06:44Z</time>
      </trkpt>
      <trkpt lat="42.93037885" lon="13.52176884">
        <ele>740.00000</ele>
        <time>2024-02-08T13:06:45Z</time>
      </trkpt>
      <trkpt lat="42.93030459" lon="13.52171452">
        <ele>741.00000</ele>
        <time>2024-02-08T13:06:46Z</time>
      </trkpt>
      <trkpt lat="42.93020887" lon="13.52168284">
        <ele>742.00000</ele>
        <time>2024-02-08T13:06:47Z</time>
      </trkpt>
      <trkpt lat="42.93011390" lon="13.52166314">
        <ele>742.00000</ele>
        <time>2024-02-08T13:06:48Z</time>
      </trkpt>
      <trkpt lat="42.93000259" lon="13.52162425">
        <ele>743.00000</ele>
        <time>2024-02-08T13:06:49Z</time>
      </trkpt>
      <trkpt lat="42.92991517" lon="13.52156423">
        <ele>741.00000</ele>
        <time>2024-02-08T13:06:50Z</time>
      </trkpt>
      <trkpt lat="42.92983244" lon="13.52148092">
        <ele>740.00000</ele>
        <time>2024-02-08T13:06:51Z</time>
      </trkpt>
      <trkpt lat="42.92977326" lon="13.52139517">
        <ele>739.00000</ele>
        <time>2024-02-08T13:06:52Z</time>
      </trkpt>
      <trkpt lat="42.92970612" lon="13.52127204">
        <ele>738.00000</ele>
        <time>2024-02-08T13:06:53Z</time>
      </trkpt>
      <trkpt lat="42.92963119" lon="13.52111119">
        <ele>737.00000</ele>
        <time>2024-02-08T13:06:54Z</time>
      </trkpt>
      <trkpt lat="42.92956774" lon="13.52096954">
        <ele>736.00000</ele>
        <time>2024-02-08T13:06:55Z</time>
      </trkpt>
      <trkpt lat="42.92950370" lon="13.52086560">
        <ele>736.00000</ele>
        <time>2024-02-08T13:06:56Z</time>
      </trkpt>
      <trkpt lat="42.92941066" lon="13.52076133">
        <ele>736.00000</ele>
        <time>2024-02-08T13:06:57Z</time>
      </trkpt>
      <trkpt lat="42.92930664" lon="13.52068397">
        <ele>735.00000</ele>
        <time>2024-02-08T13:06:58Z</time>
      </trkpt>
      <trkpt lat="42.92919114" lon="13.52061825">
        <ele>735.00000</ele>
        <time>2024-02-08T13:06:59Z</time>
      </trkpt>
      <trkpt lat="42.92908092" lon="13.52061457">
        <ele>734.00000</ele>
        <time>2024-02-08T13:07:00Z</time>
      </trkpt>
      <trkpt lat="42.92898184" lon="13.52061951">
        <ele>732.00000</ele>
        <time>2024-02-08T13:07:01Z</time>
      </trkpt>
      <trkpt lat="42.92886064" lon="13.52059856">
        <ele>730.00000</ele>
        <time>2024-02-08T13:07:02Z</time>
      </trkpt>
      <trkpt lat="42.92871756" lon="13.52054307">
        <ele>728.00000</ele>
        <time>2024-02-08T13:07:03Z</time>
      </trkpt>
      <trkpt lat="42.92860499" lon="13.52046042">
        <ele>726.00000</ele>
        <time>2024-02-08T13:07:04Z</time>
      </trkpt>
      <trkpt lat="42.92850214" lon="13.52035171">
        <ele>724.00000</ele>
        <time>2024-02-08T13:07:05Z</time>
      </trkpt>
      <trkpt lat="42.92842235" lon="13.52025657">
        <ele>723.00000</ele>
        <time>2024-02-08T13:07:06Z</time>
      </trkpt>
      <trkpt lat="42.92832847" lon="13.52013336">
        <ele>721.00000</ele>
        <time>2024-02-08T13:07:07Z</time>
      </trkpt>
      <trkpt lat="42.92825396" lon="13.52001065">
        <ele>720.00000</ele>
        <time>2024-02-08T13:07:08Z</time>
      </trkpt>
      <trkpt lat="42.92819855" lon="13.51986791">
        <ele>719.00000</ele>
        <time>2024-02-08T13:07:09Z</time>
      </trkpt>
      <trkpt lat="42.92819260" lon="13.51974729">
        <ele>719.00000</ele>
        <time>2024-02-08T13:07:10Z</time>
      </trkpt>
      <trkpt lat="42.92822135" lon="13.51965048">
        <ele>717.00000</ele>
        <time>2024-02-08T13:07:11Z</time>
      </trkpt>
      <trkpt lat="42.92827994" lon="13.51954076">
        <ele>716.00000</ele>
        <time>2024-02-08T13:07:12Z</time>
      </trkpt>
      <trkpt lat="42.92837432" lon="13.51941344">
        <ele>714.00000</ele>
        <time>2024-02-08T13:07:13Z</time>
      </trkpt>
      <trkpt lat="42.92846468" lon="13.51931017">
        <ele>712.00000</ele>
        <time>2024-02-08T13:07:14Z</time>
      </trkpt>
      <trkpt lat="42.92855931" lon="13.51920439">
        <ele>711.00000</ele>
        <time>2024-02-08T13:07:15Z</time>
      </trkpt>
      <trkpt lat="42.92863726" lon="13.51911806">
        <ele>711.00000</ele>
        <time>2024-02-08T13:07:16Z</time>
      </trkpt>
      <trkpt lat="42.92873634" lon="13.51900499">
        <ele>711.00000</ele>
        <time>2024-02-08T13:07:17Z</time>
      </trkpt>
      <trkpt lat="42.92884589" lon="13.51885059">
        <ele>711.00000</ele>
        <time>2024-02-08T13:07:18Z</time>
      </trkpt>
      <trkpt lat="42.92891579" lon="13.51869695">
        <ele>712.00000</ele>
        <time>2024-02-08T13:07:19Z</time>
      </trkpt>
      <trkpt lat="42.92896122" lon="13.51852932">
        <ele>711.00000</ele>
        <time>2024-02-08T13:07:20Z</time>
      </trkpt>
      <trkpt lat="42.92897262" lon="13.51836017">
        <ele>709.00000</ele>
        <time>2024-02-08T13:07:21Z</time>
      </trkpt>
      <trkpt lat="42.92895846" lon="13.51818884">
        <ele>705.00000</ele>
        <time>2024-02-08T13:07:22Z</time>
      </trkpt>
      <trkpt lat="42.92896843" lon="13.51803244">
        <ele>702.00000</ele>
        <time>2024-02-08T13:07:23Z</time>
      </trkpt>
      <trkpt lat="42.92901596" lon="13.51791341">
        <ele>699.00000</ele>
        <time>2024-02-08T13:07:24Z</time>
      </trkpt>
      <trkpt lat="42.92909508" lon="13.51782549">
        <ele>698.00000</ele>
        <time>2024-02-08T13:07:25Z</time>
      </trkpt>
      <trkpt lat="42.92917882" lon="13.51777846">
        <ele>699.00000</ele>
        <time>2024-02-08T13:07:26Z</time>
      </trkpt>
      <trkpt lat="42.92929792" lon="13.51768886">
        <ele>703.00000</ele>
        <time>2024-02-08T13:07:27Z</time>
      </trkpt>
      <trkpt lat="42.92937822" lon="13.51758040">
        <ele>704.00000</ele>
        <time>2024-02-08T13:07:28Z</time>
      </trkpt>
      <trkpt lat="42.92945031" lon="13.51744906">
        <ele>706.00000</ele>
        <time>2024-02-08T13:07:29Z</time>
      </trkpt>
      <trkpt lat="42.92951066" lon="13.51730975">
        <ele>705.00000</ele>
        <time>2024-02-08T13:07:30Z</time>
      </trkpt>
      <trkpt lat="42.92956472" lon="13.51716038">
        <ele>704.00000</ele>
        <time>2024-02-08T13:07:31Z</time>
      </trkpt>
      <trkpt lat="42.92962172" lon="13.51701051">
        <ele>703.00000</ele>
        <time>2024-02-08T13:07:32Z</time>
      </trkpt>
      <trkpt lat="42.92968148" lon="13.51686048">
        <ele>702.00000</ele>
        <time>2024-02-08T13:07:33Z</time>
      </trkpt>
      <trkpt lat="42.92974409" lon="13.51671036">
        <ele>702.00000</ele>
        <time>2024-02-08T13:07:34Z</time>
      </trkpt>
      <trkpt lat="42.92980520" lon="13.51655974">
        <ele>701.00000</ele>
        <time>2024-02-08T13:07:35Z</time>
      </trkpt>
      <trkpt lat="42.92987007" lon="13.51640760">
        <ele>700.00000</ele>
        <time>2024-02-08T13:07:36Z</time>
      </trkpt>
      <trkpt lat="42.92994341" lon="13.51626226">
        <ele>698.00000</ele>
        <time>2024-02-08T13:07:37Z</time>
      </trkpt>
      <trkpt lat="42.93003461" lon="13.51613041">
        <ele>697.00000</ele>
        <time>2024-02-08T13:07:38Z</time>
      </trkpt>
      <trkpt lat="42.93013963" lon="13.51602061">
        <ele>695.00000</ele>
        <time>2024-02-08T13:07:39Z</time>
      </trkpt>
      <trkpt lat="42.93026545" lon="13.51595431">
        <ele>694.00000</ele>
        <time>2024-02-08T13:07:40Z</time>
      </trkpt>
      <trkpt lat="42.93039964" lon="13.51591316">
        <ele>693.00000</ele>
        <time>2024-02-08T13:07:41Z</time>
      </trkpt>
      <trkpt lat="42.93054121" lon="13.51588474">
        <ele>691.00000</ele>
        <time>2024-02-08T13:07:42Z</time>
      </trkpt>
      <trkpt lat="42.93068295" lon="13.51585532">
        <ele>691.00000</ele>
        <time>2024-02-08T13:07:43Z</time>
      </trkpt>
      <trkpt lat="42.93082326" lon="13.51582129">
        <ele>690.00000</ele>
        <time>2024-02-08T13:07:44Z</time>
      </trkpt>
      <trkpt lat="42.93096559" lon="13.51578525">
        <ele>690.00000</ele>
        <time>2024-02-08T13:07:45Z</time>
      </trkpt>
      <trkpt lat="42.93111118" lon="13.51575004">
        <ele>690.00000</ele>
        <time>2024-02-08T13:07:46Z</time>
      </trkpt>
      <trkpt lat="42.93125510" lon="13.51571870">
        <ele>691.00000</ele>
        <time>2024-02-08T13:07:47Z</time>
      </trkpt>
      <trkpt lat="42.93139826" lon="13.51568936">
        <ele>691.00000</ele>
        <time>2024-02-08T13:07:48Z</time>
      </trkpt>
      <trkpt lat="42.93154134" lon="13.51565491">
        <ele>692.00000</ele>
        <time>2024-02-08T13:07:49Z</time>
      </trkpt>
      <trkpt lat="42.93168006" lon="13.51557889">
        <ele>692.00000</ele>
        <time>2024-02-08T13:07:50Z</time>
      </trkpt>
      <trkpt lat="42.93177980" lon="13.51548308">
        <ele>691.00000</ele>
        <time>2024-02-08T13:07:51Z</time>
      </trkpt>
      <trkpt lat="42.93190159" lon="13.51531745">
        <ele>690.00000</ele>
        <time>2024-02-08T13:07:52Z</time>
      </trkpt>
      <trkpt lat="42.93197762" lon="13.51515384">
        <ele>689.00000</ele>
        <time>2024-02-08T13:07:53Z</time>
      </trkpt>
      <trkpt lat="42.93203646" lon="13.51496491">
        <ele>688.00000</ele>
        <time>2024-02-08T13:07:54Z</time>
      </trkpt>
      <trkpt lat="42.93208289" lon="13.51477162">
        <ele>687.00000</ele>
        <time>2024-02-08T13:07:55Z</time>
      </trkpt>
      <trkpt lat="42.93211282" lon="13.51457440">
        <ele>686.00000</ele>
        <time>2024-02-08T13:07:56Z</time>
      </trkpt>
      <trkpt lat="42.93213251" lon="13.51437508">
        <ele>684.00000</ele>
        <time>2024-02-08T13:07:57Z</time>
      </trkpt>
      <trkpt lat="42.93214526" lon="13.51417399">
        <ele>681.00000</ele>
        <time>2024-02-08T13:07:58Z</time>
      </trkpt>
      <trkpt lat="42.93215858" lon="13.51397451">
        <ele>678.00000</ele>
        <time>2024-02-08T13:07:59Z</time>
      </trkpt>
      <trkpt lat="42.93217359" lon="13.51377619">
        <ele>675.00000</ele>
        <time>2024-02-08T13:08:00Z</time>
      </trkpt>
      <trkpt lat="42.93218842" lon="13.51361635">
        <ele>672.00000</ele>
        <time>2024-02-08T13:08:01Z</time>
      </trkpt>
      <trkpt lat="42.93220284" lon="13.51337947">
        <ele>668.00000</ele>
        <time>2024-02-08T13:08:02Z</time>
      </trkpt>
      <trkpt lat="42.93220108" lon="13.51317948">
        <ele>666.00000</ele>
        <time>2024-02-08T13:08:03Z</time>
      </trkpt>
      <trkpt lat="42.93220695" lon="13.51298125">
        <ele>665.00000</ele>
        <time>2024-02-08T13:08:04Z</time>
      </trkpt>
      <trkpt lat="42.93223704" lon="13.51278352">
        <ele>665.00000</ele>
        <time>2024-02-08T13:08:05Z</time>
      </trkpt>
      <trkpt lat="42.93228875" lon="13.51259610">
        <ele>665.00000</ele>
        <time>2024-02-08T13:08:06Z</time>
      </trkpt>
      <trkpt lat="42.93236008" lon="13.51242645">
        <ele>664.00000</ele>
        <time>2024-02-08T13:08:07Z</time>
      </trkpt>
      <trkpt lat="42.93244432" lon="13.51226996">
        <ele>662.00000</ele>
        <time>2024-02-08T13:08:08Z</time>
      </trkpt>
      <trkpt lat="42.93250819" lon="13.51214373">
        <ele>662.00000</ele>
        <time>2024-02-08T13:08:09Z</time>
      </trkpt>
      <trkpt lat="42.93257952" lon="13.51196964">
        <ele>662.00000</ele>
        <time>2024-02-08T13:08:10Z</time>
      </trkpt>
      <trkpt lat="42.93264817" lon="13.51175372">
        <ele>662.00000</ele>
        <time>2024-02-08T13:08:11Z</time>
      </trkpt>
      <trkpt lat="42.93269427" lon="13.51157301">
        <ele>661.00000</ele>
        <time>2024-02-08T13:08:12Z</time>
      </trkpt>
      <trkpt lat="42.93273869" lon="13.51139112">
        <ele>660.00000</ele>
        <time>2024-02-08T13:08:13Z</time>
      </trkpt>
      <trkpt lat="42.93277951" lon="13.51121091">
        <ele>660.00000</ele>
        <time>2024-02-08T13:08:14Z</time>
      </trkpt>
      <trkpt lat="42.93281581" lon="13.51103246">
        <ele>660.00000</ele>
        <time>2024-02-08T13:08:15Z</time>
      </trkpt>
      <trkpt lat="42.93284875" lon="13.51085426">
        <ele>661.00000</ele>
        <time>2024-02-08T13:08:16Z</time>
      </trkpt>
      <trkpt lat="42.93287775" lon="13.51067698">
        <ele>660.00000</ele>
        <time>2024-02-08T13:08:17Z</time>
      </trkpt>
      <trkpt lat="42.93290072" lon="13.51049736">
        <ele>658.00000</ele>
        <time>2024-02-08T13:08:18Z</time>
      </trkpt>
      <trkpt lat="42.93291446" lon="13.51035319">
        <ele>657.00000</ele>
        <time>2024-02-08T13:08:19Z</time>
      </trkpt>
      <trkpt lat="42.93292796" lon="13.51017516">
        <ele>657.00000</ele>
        <time>2024-02-08T13:08:20Z</time>
      </trkpt>
      <trkpt lat="42.93294170" lon="13.50996460">
        <ele>656.00000</ele>
        <time>2024-02-08T13:08:21Z</time>
      </trkpt>
      <trkpt lat="42.93294967" lon="13.50979126">
        <ele>655.00000</ele>
        <time>2024-02-08T13:08:22Z</time>
      </trkpt>
      <trkpt lat="42.93296425" lon="13.50965095">
        <ele>654.00000</ele>
        <time>2024-02-08T13:08:23Z</time>
      </trkpt>
      <trkpt lat="42.93299376" lon="13.50944501">
        <ele>654.00000</ele>
        <time>2024-02-08T13:08:24Z</time>
      </trkpt>
      <trkpt lat="42.93301890" lon="13.50931341">
        <ele>654.00000</ele>
        <time>2024-02-08T13:08:25Z</time>
      </trkpt>
      <trkpt lat="42.93305972" lon="13.50912390">
        <ele>654.00000</ele>
        <time>2024-02-08T13:08:26Z</time>
      </trkpt>
      <trkpt lat="42.93309886" lon="13.50897462">
        <ele>654.00000</ele>
        <time>2024-02-08T13:08:27Z</time>
      </trkpt>
      <trkpt lat="42.93314111" lon="13.50883321">
        <ele>654.00000</ele>
        <time>2024-02-08T13:08:28Z</time>
      </trkpt>
      <trkpt lat="42.93318972" lon="13.50870028">
        <ele>655.00000</ele>
        <time>2024-02-08T13:08:29Z</time>
      </trkpt>
      <trkpt lat="42.93324873" lon="13.50857974">
        <ele>656.00000</ele>
        <time>2024-02-08T13:08:30Z</time>
      </trkpt>
      <trkpt lat="42.93331780" lon="13.50847396">
        <ele>658.00000</ele>
        <time>2024-02-08T13:08:31Z</time>
      </trkpt>
      <trkpt lat="42.93339181" lon="13.50837975">
        <ele>659.00000</ele>
        <time>2024-02-08T13:08:32Z</time>
      </trkpt>
      <trkpt lat="42.93346775" lon="13.50828881">
        <ele>660.00000</ele>
        <time>2024-02-08T13:08:33Z</time>
      </trkpt>
      <trkpt lat="42.93352693" lon="13.50822033">
        <ele>662.00000</ele>
        <time>2024-02-08T13:08:34Z</time>
      </trkpt>
      <trkpt lat="42.93361444" lon="13.50812377">
        <ele>665.00000</ele>
        <time>2024-02-08T13:08:35Z</time>
      </trkpt>
      <trkpt lat="42.93368803" lon="13.50805026">
        <ele>665.00000</ele>
        <time>2024-02-08T13:08:36Z</time>
      </trkpt>
      <trkpt lat="42.93376422" lon="13.50798404">
        <ele>665.00000</ele>
        <time>2024-02-08T13:08:37Z</time>
      </trkpt>
      <trkpt lat="42.93382541" lon="13.50793736">
        <ele>665.00000</ele>
        <time>2024-02-08T13:08:38Z</time>
      </trkpt>
      <trkpt lat="42.93390160" lon="13.50788438">
        <ele>664.00000</ele>
        <time>2024-02-08T13:08:39Z</time>
      </trkpt>
      <trkpt lat="42.93399564" lon="13.50783258">
        <ele>664.00000</ele>
        <time>2024-02-08T13:08:40Z</time>
      </trkpt>
      <trkpt lat="42.93407670" lon="13.50779897">
        <ele>664.00000</ele>
        <time>2024-02-08T13:08:41Z</time>
      </trkpt>
      <trkpt lat="42.93415859" lon="13.50776494">
        <ele>664.00000</ele>
        <time>2024-02-08T13:08:42Z</time>
      </trkpt>
      <trkpt lat="42.93423017" lon="13.50774063">
        <ele>664.00000</ele>
        <time>2024-02-08T13:08:43Z</time>
      </trkpt>
      <trkpt lat="42.93431458" lon="13.50770828">
        <ele>664.00000</ele>
        <time>2024-02-08T13:08:44Z</time>
      </trkpt>
      <trkpt lat="42.93439689" lon="13.50767576">
        <ele>665.00000</ele>
        <time>2024-02-08T13:08:45Z</time>
      </trkpt>
      <trkpt lat="42.93449286" lon="13.50763854">
        <ele>664.00000</ele>
        <time>2024-02-08T13:08:46Z</time>
      </trkpt>
      <trkpt lat="42.93457240" lon="13.50760669">
        <ele>664.00000</ele>
        <time>2024-02-08T13:08:47Z</time>
      </trkpt>
      <trkpt lat="42.93463887" lon="13.50757970">
        <ele>664.00000</ele>
        <time>2024-02-08T13:08:48Z</time>
      </trkpt>
      <trkpt lat="42.93472143" lon="13.50754584">
        <ele>663.00000</ele>
        <time>2024-02-08T13:08:49Z</time>
      </trkpt>
      <trkpt lat="42.93481715" lon="13.50750443">
        <ele>663.00000</ele>
        <time>2024-02-08T13:08:50Z</time>
      </trkpt>
      <trkpt lat="42.93489594" lon="13.50747250">
        <ele>663.00000</ele>
        <time>2024-02-08T13:08:51Z</time>
      </trkpt>
      <trkpt lat="42.93497842" lon="13.50743888">
        <ele>663.00000</ele>
        <time>2024-02-08T13:08:52Z</time>
      </trkpt>
      <trkpt lat="42.93504380" lon="13.50741391">
        <ele>663.00000</ele>
        <time>2024-02-08T13:08:53Z</time>
      </trkpt>
      <trkpt lat="42.93512125" lon="13.50738189">
        <ele>663.00000</ele>
        <time>2024-02-08T13:08:54Z</time>
      </trkpt>
      <trkpt lat="42.93520960" lon="13.50734434">
        <ele>663.00000</ele>
        <time>2024-02-08T13:08:55Z</time>
      </trkpt>
      <trkpt lat="42.93527623" lon="13.50731642">
        <ele>663.00000</ele>
        <time>2024-02-08T13:08:56Z</time>
      </trkpt>
      <trkpt lat="42.93534622" lon="13.50729161">
        <ele>664.00000</ele>
        <time>2024-02-08T13:08:57Z</time>
      </trkpt>
      <trkpt lat="42.93541747" lon="13.50726278">
        <ele>665.00000</ele>
        <time>2024-02-08T13:08:58Z</time>
      </trkpt>
      <trkpt lat="42.93548502" lon="13.50723328">
        <ele>666.00000</ele>
        <time>2024-02-08T13:08:59Z</time>
      </trkpt>
      <trkpt lat="42.93555283" lon="13.50720528">
        <ele>667.00000</ele>
        <time>2024-02-08T13:09:00Z</time>
      </trkpt>
      <trkpt lat="42.93562173" lon="13.50717494">
        <ele>667.00000</ele>
        <time>2024-02-08T13:09:01Z</time>
      </trkpt>
      <trkpt lat="42.93568904" lon="13.50714292">
        <ele>668.00000</ele>
        <time>2024-02-08T13:09:02Z</time>
      </trkpt>
      <trkpt lat="42.93574495" lon="13.50711559">
        <ele>668.00000</ele>
        <time>2024-02-08T13:09:03Z</time>
      </trkpt>
      <trkpt lat="42.93582684" lon="13.50707276">
        <ele>669.00000</ele>
        <time>2024-02-08T13:09:04Z</time>
      </trkpt>
      <trkpt lat="42.93589180" lon="13.50703697">
        <ele>669.00000</ele>
        <time>2024-02-08T13:09:05Z</time>
      </trkpt>
      <trkpt lat="42.93595391" lon="13.50700026">
        <ele>669.00000</ele>
        <time>2024-02-08T13:09:06Z</time>
      </trkpt>
      <trkpt lat="42.93601417" lon="13.50696195">
        <ele>668.00000</ele>
        <time>2024-02-08T13:09:07Z</time>
      </trkpt>
      <trkpt lat="42.93606229" lon="13.50692968">
        <ele>668.00000</ele>
        <time>2024-02-08T13:09:08Z</time>
      </trkpt>
      <trkpt lat="42.93613429" lon="13.50687889">
        <ele>668.00000</ele>
        <time>2024-02-08T13:09:09Z</time>
      </trkpt>
      <trkpt lat="42.93619254" lon="13.50682994">
        <ele>668.00000</ele>
        <time>2024-02-08T13:09:10Z</time>
      </trkpt>
      <trkpt lat="42.93624887" lon="13.50677747">
        <ele>668.00000</ele>
        <time>2024-02-08T13:09:11Z</time>
      </trkpt>
      <trkpt lat="42.93630100" lon="13.50672340">
        <ele>668.00000</ele>
        <time>2024-02-08T13:09:12Z</time>
      </trkpt>
      <trkpt lat="42.93634333" lon="13.50668066">
        <ele>668.00000</ele>
        <time>2024-02-08T13:09:13Z</time>
      </trkpt>
      <trkpt lat="42.93639739" lon="13.50662492">
        <ele>668.00000</ele>
        <time>2024-02-08T13:09:14Z</time>
      </trkpt>
      <trkpt lat="42.93645640" lon="13.50655644">
        <ele>668.00000</ele>
        <time>2024-02-08T13:09:15Z</time>
      </trkpt>
      <trkpt lat="42.93650410" lon="13.50650095">
        <ele>668.00000</ele>
        <time>2024-02-08T13:09:16Z</time>
      </trkpt>
      <trkpt lat="42.93655347" lon="13.50644580">
        <ele>668.00000</ele>
        <time>2024-02-08T13:09:17Z</time>
      </trkpt>
      <trkpt lat="42.93659102" lon="13.50639944">
        <ele>668.00000</ele>
        <time>2024-02-08T13:09:18Z</time>
      </trkpt>
      <trkpt lat="42.93663645" lon="13.50634664">
        <ele>668.00000</ele>
        <time>2024-02-08T13:09:19Z</time>
      </trkpt>
      <trkpt lat="42.93668464" lon="13.50629442">
        <ele>668.00000</ele>
        <time>2024-02-08T13:09:20Z</time>
      </trkpt>
      <trkpt lat="42.93674281" lon="13.50622829">
        <ele>668.00000</ele>
        <time>2024-02-08T13:09:21Z</time>
      </trkpt>
      <trkpt lat="42.93679160" lon="13.50616861">
        <ele>668.00000</ele>
        <time>2024-02-08T13:09:22Z</time>
      </trkpt>
      <trkpt lat="42.93683904" lon="13.50610733">
        <ele>668.00000</ele>
        <time>2024-02-08T13:09:23Z</time>
      </trkpt>
      <trkpt lat="42.93687634" lon="13.50605662">
        <ele>668.00000</ele>
        <time>2024-02-08T13:09:24Z</time>
      </trkpt>
      <trkpt lat="42.93692235" lon="13.50599510">
        <ele>668.00000</ele>
        <time>2024-02-08T13:09:25Z</time>
      </trkpt>
      <trkpt lat="42.93698036" lon="13.50592277">
        <ele>668.00000</ele>
        <time>2024-02-08T13:09:26Z</time>
      </trkpt>
      <trkpt lat="42.93702763" lon="13.50586476">
        <ele>668.00000</ele>
        <time>2024-02-08T13:09:27Z</time>
      </trkpt>
      <trkpt lat="42.93707197" lon="13.50580684">
        <ele>668.00000</ele>
        <time>2024-02-08T13:09:28Z</time>
      </trkpt>
      <trkpt lat="42.93710743" lon="13.50575655">
        <ele>668.00000</ele>
        <time>2024-02-08T13:09:29Z</time>
      </trkpt>
      <trkpt lat="42.93715177" lon="13.50569779">
        <ele>668.00000</ele>
        <time>2024-02-08T13:09:30Z</time>
      </trkpt>
      <trkpt lat="42.93720583" lon="13.50562596">
        <ele>668.00000</ele>
        <time>2024-02-08T13:09:31Z</time>
      </trkpt>
      <trkpt lat="42.93724841" lon="13.50556989">
        <ele>668.00000</ele>
        <time>2024-02-08T13:09:32Z</time>
      </trkpt>
      <trkpt lat="42.93728864" lon="13.50551482">
        <ele>669.00000</ele>
        <time>2024-02-08T13:09:33Z</time>
      </trkpt>
      <trkpt lat="42.93732267" lon="13.50546889">
        <ele>670.00000</ele>
        <time>2024-02-08T13:09:34Z</time>
      </trkpt>
      <trkpt lat="42.93736265" lon="13.50540921">
        <ele>671.00000</ele>
        <time>2024-02-08T13:09:35Z</time>
      </trkpt>
      <trkpt lat="42.93740800" lon="13.50533679">
        <ele>671.00000</ele>
        <time>2024-02-08T13:09:36Z</time>
      </trkpt>
      <trkpt lat="42.93744714" lon="13.50527987">
        <ele>672.00000</ele>
        <time>2024-02-08T13:09:37Z</time>
      </trkpt>
      <trkpt lat="42.93748562" lon="13.50522195">
        <ele>673.00000</ele>
        <time>2024-02-08T13:09:38Z</time>
      </trkpt>
      <trkpt lat="42.93752074" lon="13.50516303">
        <ele>674.00000</ele>
        <time>2024-02-08T13:09:39Z</time>
      </trkpt>
      <trkpt lat="42.93754982" lon="13.50511441">
        <ele>674.00000</ele>
        <time>2024-02-08T13:09:40Z</time>
      </trkpt>
      <trkpt lat="42.93758788" lon="13.50505113">
        <ele>675.00000</ele>
        <time>2024-02-08T13:09:41Z</time>
      </trkpt>
      <trkpt lat="42.93763171" lon="13.50497444">
        <ele>676.00000</ele>
        <time>2024-02-08T13:09:42Z</time>
      </trkpt>
      <trkpt lat="42.93766558" lon="13.50490487">
        <ele>677.00000</ele>
        <time>2024-02-08T13:09:43Z</time>
      </trkpt>
      <trkpt lat="42.93769919" lon="13.50483261">
        <ele>677.00000</ele>
        <time>2024-02-08T13:09:44Z</time>
      </trkpt>
      <trkpt lat="42.93772626" lon="13.50477553">
        <ele>677.00000</ele>
        <time>2024-02-08T13:09:45Z</time>
      </trkpt>
      <trkpt lat="42.93776239" lon="13.50469926">
        <ele>678.00000</ele>
        <time>2024-02-08T13:09:46Z</time>
      </trkpt>
      <trkpt lat="42.93779633" lon="13.50461695">
        <ele>679.00000</ele>
        <time>2024-02-08T13:09:47Z</time>
      </trkpt>
      <trkpt lat="42.93783221" lon="13.50451419">
        <ele>679.00000</ele>
        <time>2024-02-08T13:09:48Z</time>
      </trkpt>
      <trkpt lat="42.93786247" lon="13.50442391">
        <ele>679.00000</ele>
        <time>2024-02-08T13:09:49Z</time>
      </trkpt>
      <trkpt lat="42.93788493" lon="13.50434940">
        <ele>679.00000</ele>
        <time>2024-02-08T13:09:50Z</time>
      </trkpt>
      <trkpt lat="42.93791293" lon="13.50425259">
        <ele>679.00000</ele>
        <time>2024-02-08T13:09:51Z</time>
      </trkpt>
      <trkpt lat="42.93794520" lon="13.50413239">
        <ele>678.00000</ele>
        <time>2024-02-08T13:09:52Z</time>
      </trkpt>
      <trkpt lat="42.93797068" lon="13.50403097">
        <ele>678.00000</ele>
        <time>2024-02-08T13:09:53Z</time>
      </trkpt>
      <trkpt lat="42.93799758" lon="13.50392762">
        <ele>678.00000</ele>
        <time>2024-02-08T13:09:54Z</time>
      </trkpt>
      <trkpt lat="42.93801804" lon="13.50384296">
        <ele>677.00000</ele>
        <time>2024-02-08T13:09:55Z</time>
      </trkpt>
      <trkpt lat="42.93804469" lon="13.50373752">
        <ele>676.00000</ele>
        <time>2024-02-08T13:09:56Z</time>
      </trkpt>
      <trkpt lat="42.93807042" lon="13.50363107">
        <ele>675.00000</ele>
        <time>2024-02-08T13:09:57Z</time>
      </trkpt>
      <trkpt lat="42.93809641" lon="13.50349872">
        <ele>674.00000</ele>
        <time>2024-02-08T13:09:58Z</time>
      </trkpt>
      <trkpt lat="42.93811610" lon="13.50338481">
        <ele>674.00000</ele>
        <time>2024-02-08T13:09:59Z</time>
      </trkpt>
      <trkpt lat="42.93813681" lon="13.50326939">
        <ele>673.00000</ele>
        <time>2024-02-08T13:10:00Z</time>
      </trkpt>
      <trkpt lat="42.93815567" lon="13.50317719">
        <ele>673.00000</ele>
        <time>2024-02-08T13:10:01Z</time>
      </trkpt>
      <trkpt lat="42.93818081" lon="13.50306437">
        <ele>672.00000</ele>
        <time>2024-02-08T13:10:02Z</time>
      </trkpt>
      <trkpt lat="42.93821216" lon="13.50295138">
        <ele>672.00000</ele>
        <time>2024-02-08T13:10:03Z</time>
      </trkpt>
      <trkpt lat="42.93824862" lon="13.50282230">
        <ele>673.00000</ele>
        <time>2024-02-08T13:10:04Z</time>
      </trkpt>
      <trkpt lat="42.93828424" lon="13.50271568">
        <ele>674.00000</ele>
        <time>2024-02-08T13:10:05Z</time>
      </trkpt>
      <trkpt lat="42.93831023" lon="13.50262910">
        <ele>674.00000</ele>
        <time>2024-02-08T13:10:06Z</time>
      </trkpt>
      <trkpt lat="42.93834744" lon="13.50252156">
        <ele>674.00000</ele>
        <time>2024-02-08T13:10:07Z</time>
      </trkpt>
      <trkpt lat="42.93838391" lon="13.50241561">
        <ele>675.00000</ele>
        <time>2024-02-08T13:10:08Z</time>
      </trkpt>
      <trkpt lat="42.93842012" lon="13.50230983">
        <ele>676.00000</ele>
        <time>2024-02-08T13:10:09Z</time>
      </trkpt>
      <trkpt lat="42.93845733" lon="13.50220363">
        <ele>677.00000</ele>
        <time>2024-02-08T13:10:10Z</time>
      </trkpt>
      <trkpt lat="42.93849455" lon="13.50209995">
        <ele>678.00000</ele>
        <time>2024-02-08T13:10:11Z</time>
      </trkpt>
      <trkpt lat="42.93853361" lon="13.50199626">
        <ele>679.00000</ele>
        <time>2024-02-08T13:10:12Z</time>
      </trkpt>
      <trkpt lat="42.93858256" lon="13.50187338">
        <ele>680.00000</ele>
        <time>2024-02-08T13:10:13Z</time>
      </trkpt>
      <trkpt lat="42.93861868" lon="13.50179376">
        <ele>680.00000</ele>
        <time>2024-02-08T13:10:14Z</time>
      </trkpt>
      <trkpt lat="42.93867493" lon="13.50167289">
        <ele>681.00000</ele>
        <time>2024-02-08T13:10:15Z</time>
      </trkpt>
      <trkpt lat="42.93872857" lon="13.50157390">
        <ele>681.00000</ele>
        <time>2024-02-08T13:10:16Z</time>
      </trkpt>
      <trkpt lat="42.93877283" lon="13.50149888">
        <ele>682.00000</ele>
        <time>2024-02-08T13:10:17Z</time>
      </trkpt>
      <trkpt lat="42.93882848" lon="13.50140408">
        <ele>683.00000</ele>
        <time>2024-02-08T13:10:18Z</time>
      </trkpt>
      <trkpt lat="42.93889403" lon="13.50129176">
        <ele>683.00000</ele>
        <time>2024-02-08T13:10:19Z</time>
      </trkpt>
      <trkpt lat="42.93894759" lon="13.50119680">
        <ele>683.00000</ele>
        <time>2024-02-08T13:10:20Z</time>
      </trkpt>
      <trkpt lat="42.93899880" lon="13.50110032">
        <ele>682.00000</ele>
        <time>2024-02-08T13:10:21Z</time>
      </trkpt>
      <trkpt lat="42.93903853" lon="13.50102053">
        <ele>681.00000</ele>
        <time>2024-02-08T13:10:22Z</time>
      </trkpt>
      <trkpt lat="42.93908262" lon="13.50091475">
        <ele>680.00000</ele>
        <time>2024-02-08T13:10:23Z</time>
      </trkpt>
      <trkpt lat="42.93913342" lon="13.50078231">
        <ele>679.00000</ele>
        <time>2024-02-08T13:10:24Z</time>
      </trkpt>
      <trkpt lat="42.93917407" lon="13.50067259">
        <ele>678.00000</ele>
        <time>2024-02-08T13:10:25Z</time>
      </trkpt>
      <trkpt lat="42.93921849" lon="13.50055851">
        <ele>678.00000</ele>
        <time>2024-02-08T13:10:26Z</time>
      </trkpt>
      <trkpt lat="42.93925269" lon="13.50047143">
        <ele>678.00000</ele>
        <time>2024-02-08T13:10:27Z</time>
      </trkpt>
      <trkpt lat="42.93930407" lon="13.50034218">
        <ele>679.00000</ele>
        <time>2024-02-08T13:10:28Z</time>
      </trkpt>
      <trkpt lat="42.93934699" lon="13.50023472">
        <ele>679.00000</ele>
        <time>2024-02-08T13:10:29Z</time>
      </trkpt>
      <trkpt lat="42.93938764" lon="13.50012651">
        <ele>679.00000</ele>
        <time>2024-02-08T13:10:30Z</time>
      </trkpt>
      <trkpt lat="42.93943081" lon="13.50001847">
        <ele>679.00000</ele>
        <time>2024-02-08T13:10:31Z</time>
      </trkpt>
      <trkpt lat="42.93947087" lon="13.49991101">
        <ele>679.00000</ele>
        <time>2024-02-08T13:10:32Z</time>
      </trkpt>
      <trkpt lat="42.93950876" lon="13.49980230">
        <ele>679.00000</ele>
        <time>2024-02-08T13:10:33Z</time>
      </trkpt>
      <trkpt lat="42.93954589" lon="13.49969903">
        <ele>679.00000</ele>
        <time>2024-02-08T13:10:34Z</time>
      </trkpt>
      <trkpt lat="42.93958445" lon="13.49959602">
        <ele>680.00000</ele>
        <time>2024-02-08T13:10:35Z</time>
      </trkpt>
      <trkpt lat="42.93962191" lon="13.49949158">
        <ele>680.00000</ele>
        <time>2024-02-08T13:10:36Z</time>
      </trkpt>
      <trkpt lat="42.93965167" lon="13.49940726">
        <ele>679.00000</ele>
        <time>2024-02-08T13:10:37Z</time>
      </trkpt>
      <trkpt lat="42.93969266" lon="13.49927801">
        <ele>679.00000</ele>
        <time>2024-02-08T13:10:38Z</time>
      </trkpt>
      <trkpt lat="42.93972409" lon="13.49916921">
        <ele>678.00000</ele>
        <time>2024-02-08T13:10:39Z</time>
      </trkpt>
      <trkpt lat="42.93975133" lon="13.49905807">
        <ele>678.00000</ele>
        <time>2024-02-08T13:10:40Z</time>
      </trkpt>
      <trkpt lat="42.93977698" lon="13.49894584">
        <ele>678.00000</ele>
        <time>2024-02-08T13:10:41Z</time>
      </trkpt>
      <trkpt lat="42.93980212" lon="13.49883503">
        <ele>678.00000</ele>
        <time>2024-02-08T13:10:42Z</time>
      </trkpt>
      <trkpt lat="42.93982861" lon="13.49872673">
        <ele>678.00000</ele>
        <time>2024-02-08T13:10:43Z</time>
      </trkpt>
      <trkpt lat="42.93985317" lon="13.49861735">
        <ele>678.00000</ele>
        <time>2024-02-08T13:10:44Z</time>
      </trkpt>
      <trkpt lat="42.93987706" lon="13.49850629">
        <ele>678.00000</ele>
        <time>2024-02-08T13:10:45Z</time>
      </trkpt>
      <trkpt lat="42.93990137" lon="13.49839640">
        <ele>678.00000</ele>
        <time>2024-02-08T13:10:46Z</time>
      </trkpt>
      <trkpt lat="42.93992140" lon="13.49828928">
        <ele>678.00000</ele>
        <time>2024-02-08T13:10:47Z</time>
      </trkpt>
      <trkpt lat="42.93994009" lon="13.49818543">
        <ele>679.00000</ele>
        <time>2024-02-08T13:10:48Z</time>
      </trkpt>
      <trkpt lat="42.93995669" lon="13.49808158">
        <ele>679.00000</ele>
        <time>2024-02-08T13:10:49Z</time>
      </trkpt>
      <trkpt lat="42.93997337" lon="13.49798066">
        <ele>679.00000</ele>
        <time>2024-02-08T13:10:50Z</time>
      </trkpt>
      <trkpt lat="42.93999047" lon="13.49787840">
        <ele>679.00000</ele>
        <time>2024-02-08T13:10:51Z</time>
      </trkpt>
      <trkpt lat="42.93999952" lon="13.49777363">
        <ele>680.00000</ele>
        <time>2024-02-08T13:10:52Z</time>
      </trkpt>
      <trkpt lat="42.94000488" lon="13.49766927">
        <ele>680.00000</ele>
        <time>2024-02-08T13:10:53Z</time>
      </trkpt>
      <trkpt lat="42.93999994" lon="13.49756425">
        <ele>680.00000</ele>
        <time>2024-02-08T13:10:54Z</time>
      </trkpt>
      <trkpt lat="42.93998636" lon="13.49745931">
        <ele>680.00000</ele>
        <time>2024-02-08T13:10:55Z</time>
      </trkpt>
      <trkpt lat="42.93996113" lon="13.49735830">
        <ele>680.00000</ele>
        <time>2024-02-08T13:10:56Z</time>
      </trkpt>
      <trkpt lat="42.93992919" lon="13.49726065">
        <ele>679.00000</ele>
        <time>2024-02-08T13:10:57Z</time>
      </trkpt>
      <trkpt lat="42.93989382" lon="13.49716016">
        <ele>679.00000</ele>
        <time>2024-02-08T13:10:58Z</time>
      </trkpt>
      <trkpt lat="42.93985744" lon="13.49705412">
        <ele>678.00000</ele>
        <time>2024-02-08T13:10:59Z</time>
      </trkpt>
      <trkpt lat="42.93982090" lon="13.49694332">
        <ele>678.00000</ele>
        <time>2024-02-08T13:11:00Z</time>
      </trkpt>
      <trkpt lat="42.93978519" lon="13.49683167">
        <ele>677.00000</ele>
        <time>2024-02-08T13:11:01Z</time>
      </trkpt>
      <trkpt lat="42.93975351" lon="13.49671835">
        <ele>676.00000</ele>
        <time>2024-02-08T13:11:02Z</time>
      </trkpt>
      <trkpt lat="42.93972099" lon="13.49660594">
        <ele>676.00000</ele>
        <time>2024-02-08T13:11:03Z</time>
      </trkpt>
      <trkpt lat="42.93969467" lon="13.49649405">
        <ele>675.00000</ele>
        <time>2024-02-08T13:11:04Z</time>
      </trkpt>
      <trkpt lat="42.93967966" lon="13.49640310">
        <ele>675.00000</ele>
        <time>2024-02-08T13:11:05Z</time>
      </trkpt>
      <trkpt lat="42.93966416" lon="13.49628701">
        <ele>675.00000</ele>
        <time>2024-02-08T13:11:06Z</time>
      </trkpt>
      <trkpt lat="42.93965125" lon="13.49616631">
        <ele>675.00000</ele>
        <time>2024-02-08T13:11:07Z</time>
      </trkpt>
      <trkpt lat="42.93963692" lon="13.49601762">
        <ele>674.00000</ele>
        <time>2024-02-08T13:11:08Z</time>
      </trkpt>
      <trkpt lat="42.93962543" lon="13.49589440">
        <ele>674.00000</ele>
        <time>2024-02-08T13:11:09Z</time>
      </trkpt>
      <trkpt lat="42.93961538" lon="13.49579650">
        <ele>675.00000</ele>
        <time>2024-02-08T13:11:10Z</time>
      </trkpt>
      <trkpt lat="42.93960347" lon="13.49567488">
        <ele>675.00000</ele>
        <time>2024-02-08T13:11:11Z</time>
      </trkpt>
      <trkpt lat="42.93958797" lon="13.49553021">
        <ele>676.00000</ele>
        <time>2024-02-08T13:11:12Z</time>
      </trkpt>
      <trkpt lat="42.93957824" lon="13.49540918">
        <ele>677.00000</ele>
        <time>2024-02-08T13:11:13Z</time>
      </trkpt>
      <trkpt lat="42.93956953" lon="13.49529233">
        <ele>678.00000</ele>
        <time>2024-02-08T13:11:14Z</time>
      </trkpt>
      <trkpt lat="42.93956827" lon="13.49520181">
        <ele>678.00000</ele>
        <time>2024-02-08T13:11:15Z</time>
      </trkpt>
      <trkpt lat="42.93957405" lon="13.49506745">
        <ele>678.00000</ele>
        <time>2024-02-08T13:11:16Z</time>
      </trkpt>
      <trkpt lat="42.93959031" lon="13.49496024">
        <ele>678.00000</ele>
        <time>2024-02-08T13:11:17Z</time>
      </trkpt>
      <trkpt lat="42.93961621" lon="13.49485740">
        <ele>678.00000</ele>
        <time>2024-02-08T13:11:18Z</time>
      </trkpt>
      <trkpt lat="42.93964647" lon="13.49475338">
        <ele>677.00000</ele>
        <time>2024-02-08T13:11:19Z</time>
      </trkpt>
      <trkpt lat="42.93967371" lon="13.49466746">
        <ele>677.00000</ele>
        <time>2024-02-08T13:11:20Z</time>
      </trkpt>
      <trkpt lat="42.93970783" lon="13.49456042">
        <ele>677.00000</ele>
        <time>2024-02-08T13:11:21Z</time>
      </trkpt>
      <trkpt lat="42.93974404" lon="13.49445364">
        <ele>676.00000</ele>
        <time>2024-02-08T13:11:22Z</time>
      </trkpt>
      <trkpt lat="42.93978930" lon="13.49432649">
        <ele>676.00000</ele>
        <time>2024-02-08T13:11:23Z</time>
      </trkpt>
      <trkpt lat="42.93982568" lon="13.49422222">
        <ele>676.00000</ele>
        <time>2024-02-08T13:11:24Z</time>
      </trkpt>
      <trkpt lat="42.93985493" lon="13.49413923">
        <ele>676.00000</ele>
        <time>2024-02-08T13:11:25Z</time>
      </trkpt>
      <trkpt lat="42.93988913" lon="13.49403605">
        <ele>676.00000</ele>
        <time>2024-02-08T13:11:26Z</time>
      </trkpt>
      <trkpt lat="42.93993238" lon="13.49391183">
        <ele>676.00000</ele>
        <time>2024-02-08T13:11:27Z</time>
      </trkpt>
      <trkpt lat="42.93996683" lon="13.49380739">
        <ele>676.00000</ele>
        <time>2024-02-08T13:11:28Z</time>
      </trkpt>
      <trkpt lat="42.94000111" lon="13.49370262">
        <ele>676.00000</ele>
        <time>2024-02-08T13:11:29Z</time>
      </trkpt>
      <trkpt lat="42.94002919" lon="13.49361989">
        <ele>677.00000</ele>
        <time>2024-02-08T13:11:30Z</time>
      </trkpt>
      <trkpt lat="42.94006624" lon="13.49351654">
        <ele>677.00000</ele>
        <time>2024-02-08T13:11:31Z</time>
      </trkpt>
      <trkpt lat="42.94010840" lon="13.49339576">
        <ele>678.00000</ele>
        <time>2024-02-08T13:11:32Z</time>
      </trkpt>
      <trkpt lat="42.94014503" lon="13.49329451">
        <ele>678.00000</ele>
        <time>2024-02-08T13:11:33Z</time>
      </trkpt>
      <trkpt lat="42.94018115" lon="13.49319560">
        <ele>679.00000</ele>
        <time>2024-02-08T13:11:34Z</time>
      </trkpt>
      <trkpt lat="42.94021711" lon="13.49309502">
        <ele>679.00000</ele>
        <time>2024-02-08T13:11:35Z</time>
      </trkpt>
      <trkpt lat="42.94025165" lon="13.49299510">
        <ele>679.00000</ele>
        <time>2024-02-08T13:11:36Z</time>
      </trkpt>
      <trkpt lat="42.94028333" lon="13.49289628">
        <ele>678.00000</ele>
        <time>2024-02-08T13:11:37Z</time>
      </trkpt>
      <trkpt lat="42.94031769" lon="13.49279888">
        <ele>678.00000</ele>
        <time>2024-02-08T13:11:38Z</time>
      </trkpt>
      <trkpt lat="42.94034334" lon="13.49272395">
        <ele>678.00000</ele>
        <time>2024-02-08T13:11:39Z</time>
      </trkpt>
      <trkpt lat="42.94037511" lon="13.49263066">
        <ele>677.00000</ele>
        <time>2024-02-08T13:11:40Z</time>
      </trkpt>
      <trkpt lat="42.94041057" lon="13.49252044">
        <ele>677.00000</ele>
        <time>2024-02-08T13:11:41Z</time>
      </trkpt>
      <trkpt lat="42.94044066" lon="13.49242899">
        <ele>677.00000</ele>
        <time>2024-02-08T13:11:42Z</time>
      </trkpt>
      <trkpt lat="42.94046991" lon="13.49234014">
        <ele>677.00000</ele>
        <time>2024-02-08T13:11:43Z</time>
      </trkpt>
      <trkpt lat="42.94049925" lon="13.49224945">
        <ele>677.00000</ele>
        <time>2024-02-08T13:11:44Z</time>
      </trkpt>
      <trkpt lat="42.94052791" lon="13.49215834">
        <ele>677.00000</ele>
        <time>2024-02-08T13:11:45Z</time>
      </trkpt>
      <trkpt lat="42.94055784" lon="13.49206731">
        <ele>676.00000</ele>
        <time>2024-02-08T13:11:46Z</time>
      </trkpt>
      <trkpt lat="42.94058592" lon="13.49197771">
        <ele>676.00000</ele>
        <time>2024-02-08T13:11:47Z</time>
      </trkpt>
      <trkpt lat="42.94061408" lon="13.49188861">
        <ele>676.00000</ele>
        <time>2024-02-08T13:11:48Z</time>
      </trkpt>
      <trkpt lat="42.94063512" lon="13.49181837">
        <ele>676.00000</ele>
        <time>2024-02-08T13:11:49Z</time>
      </trkpt>
      <trkpt lat="42.94066177" lon="13.49173095">
        <ele>676.00000</ele>
        <time>2024-02-08T13:11:50Z</time>
      </trkpt>
      <trkpt lat="42.94069077" lon="13.49162441">
        <ele>677.00000</ele>
        <time>2024-02-08T13:11:51Z</time>
      </trkpt>
      <trkpt lat="42.94071466" lon="13.49153875">
        <ele>677.00000</ele>
        <time>2024-02-08T13:11:52Z</time>
      </trkpt>
      <trkpt lat="42.94073696" lon="13.49145384">
        <ele>678.00000</ele>
        <time>2024-02-08T13:11:53Z</time>
      </trkpt>
      <trkpt lat="42.94075364" lon="13.49138746">
        <ele>678.00000</ele>
        <time>2024-02-08T13:11:54Z</time>
      </trkpt>
      <trkpt lat="42.94077292" lon="13.49130598">
        <ele>678.00000</ele>
        <time>2024-02-08T13:11:55Z</time>
      </trkpt>
      <trkpt lat="42.94079236" lon="13.49121185">
        <ele>679.00000</ele>
        <time>2024-02-08T13:11:56Z</time>
      </trkpt>
      <trkpt lat="42.94080552" lon="13.49113441">
        <ele>679.00000</ele>
        <time>2024-02-08T13:11:57Z</time>
      </trkpt>
      <trkpt lat="42.94081876" lon="13.49105956">
        <ele>680.00000</ele>
        <time>2024-02-08T13:11:58Z</time>
      </trkpt>
      <trkpt lat="42.94083234" lon="13.49099007">
        <ele>680.00000</ele>
        <time>2024-02-08T13:11:59Z</time>
      </trkpt>
      <trkpt lat="42.94084182" lon="13.49092075">
        <ele>681.00000</ele>
        <time>2024-02-08T13:12:00Z</time>
      </trkpt>
      <trkpt lat="42.94085254" lon="13.49085135">
        <ele>681.00000</ele>
        <time>2024-02-08T13:12:01Z</time>
      </trkpt>
      <trkpt lat="42.94086285" lon="13.49078153">
        <ele>682.00000</ele>
        <time>2024-02-08T13:12:02Z</time>
      </trkpt>
      <trkpt lat="42.94087182" lon="13.49071464">
        <ele>682.00000</ele>
        <time>2024-02-08T13:12:03Z</time>
      </trkpt>
      <trkpt lat="42.94088163" lon="13.49065446">
        <ele>683.00000</ele>
        <time>2024-02-08T13:12:04Z</time>
      </trkpt>
      <trkpt lat="42.94088926" lon="13.49059587">
        <ele>684.00000</ele>
        <time>2024-02-08T13:12:05Z</time>
      </trkpt>
      <trkpt lat="42.94089579" lon="13.49053854">
        <ele>684.00000</ele>
        <time>2024-02-08T13:12:06Z</time>
      </trkpt>
      <trkpt lat="42.94090267" lon="13.49048171">
        <ele>685.00000</ele>
        <time>2024-02-08T13:12:07Z</time>
      </trkpt>
      <trkpt lat="42.94090652" lon="13.49042790">
        <ele>686.00000</ele>
        <time>2024-02-08T13:12:08Z</time>
      </trkpt>
      <trkpt lat="42.94090728" lon="13.49037375">
        <ele>687.00000</ele>
        <time>2024-02-08T13:12:09Z</time>
      </trkpt>
      <trkpt lat="42.94090610" lon="13.49032262">
        <ele>688.00000</ele>
        <time>2024-02-08T13:12:10Z</time>
      </trkpt>
      <trkpt lat="42.94090392" lon="13.49027275">
        <ele>688.00000</ele>
        <time>2024-02-08T13:12:11Z</time>
      </trkpt>
      <trkpt lat="42.94090250" lon="13.49022212">
        <ele>689.00000</ele>
        <time>2024-02-08T13:12:12Z</time>
      </trkpt>
      <trkpt lat="42.94089990" lon="13.49017158">
        <ele>690.00000</ele>
        <time>2024-02-08T13:12:13Z</time>
      </trkpt>
      <trkpt lat="42.94089688" lon="13.49012288">
        <ele>691.00000</ele>
        <time>2024-02-08T13:12:14Z</time>
      </trkpt>
      <trkpt lat="42.94089269" lon="13.49007602">
        <ele>691.00000</ele>
        <time>2024-02-08T13:12:15Z</time>
      </trkpt>
      <trkpt lat="42.94088825" lon="13.49002875">
        <ele>692.00000</ele>
        <time>2024-02-08T13:12:16Z</time>
      </trkpt>
      <trkpt lat="42.94087844" lon="13.48998248">
        <ele>693.00000</ele>
        <time>2024-02-08T13:12:17Z</time>
      </trkpt>
      <trkpt lat="42.94086855" lon="13.48993881">
        <ele>693.00000</ele>
        <time>2024-02-08T13:12:18Z</time>
      </trkpt>
      <trkpt lat="42.94086151" lon="13.48989506">
        <ele>693.00000</ele>
        <time>2024-02-08T13:12:19Z</time>
      </trkpt>
      <trkpt lat="42.94085447" lon="13.48984938">
        <ele>694.00000</ele>
        <time>2024-02-08T13:12:20Z</time>
      </trkpt>
      <trkpt lat="42.94084743" lon="13.48980210">
        <ele>695.00000</ele>
        <time>2024-02-08T13:12:21Z</time>
      </trkpt>
      <trkpt lat="42.94084064" lon="13.48975650">
        <ele>695.00000</ele>
        <time>2024-02-08T13:12:22Z</time>
      </trkpt>
      <trkpt lat="42.94083620" lon="13.48971057">
        <ele>696.00000</ele>
        <time>2024-02-08T13:12:23Z</time>
      </trkpt>
      <trkpt lat="42.94083201" lon="13.48966414">
        <ele>696.00000</ele>
        <time>2024-02-08T13:12:24Z</time>
      </trkpt>
      <trkpt lat="42.94082656" lon="13.48961711">
        <ele>696.00000</ele>
        <time>2024-02-08T13:12:25Z</time>
      </trkpt>
      <trkpt lat="42.94081709" lon="13.48956942">
        <ele>696.00000</ele>
        <time>2024-02-08T13:12:26Z</time>
      </trkpt>
      <trkpt lat="42.94081005" lon="13.48952131">
        <ele>697.00000</ele>
        <time>2024-02-08T13:12:27Z</time>
      </trkpt>
      <trkpt lat="42.94080116" lon="13.48947269">
        <ele>697.00000</ele>
        <time>2024-02-08T13:12:28Z</time>
      </trkpt>
      <trkpt lat="42.94079395" lon="13.48942408">
        <ele>697.00000</ele>
        <time>2024-02-08T13:12:29Z</time>
      </trkpt>
      <trkpt lat="42.94078608" lon="13.48937571">
        <ele>697.00000</ele>
        <time>2024-02-08T13:12:30Z</time>
      </trkpt>
      <trkpt lat="42.94077929" lon="13.48932693">
        <ele>697.00000</ele>
        <time>2024-02-08T13:12:31Z</time>
      </trkpt>
      <trkpt lat="42.94077350" lon="13.48927589">
        <ele>697.00000</ele>
        <time>2024-02-08T13:12:32Z</time>
      </trkpt>
      <trkpt lat="42.94076906" lon="13.48923582">
        <ele>698.00000</ele>
        <time>2024-02-08T13:12:33Z</time>
      </trkpt>
      <trkpt lat="42.94076286" lon="13.48918670">
        <ele>698.00000</ele>
        <time>2024-02-08T13:12:34Z</time>
      </trkpt>
      <trkpt lat="42.94075548" lon="13.48912728">
        <ele>698.00000</ele>
        <time>2024-02-08T13:12:35Z</time>
      </trkpt>
      <trkpt lat="42.94074827" lon="13.48907958">
        <ele>698.00000</ele>
        <time>2024-02-08T13:12:36Z</time>
      </trkpt>
      <trkpt lat="42.94074157" lon="13.48903289">
        <ele>697.00000</ele>
        <time>2024-02-08T13:12:37Z</time>
      </trkpt>
      <trkpt lat="42.94073545" lon="13.48898394">
        <ele>697.00000</ele>
        <time>2024-02-08T13:12:38Z</time>
      </trkpt>
      <trkpt lat="42.94072732" lon="13.48893600">
        <ele>697.00000</ele>
        <time>2024-02-08T13:12:39Z</time>
      </trkpt>
      <trkpt lat="42.94071835" lon="13.48888747">
        <ele>697.00000</ele>
        <time>2024-02-08T13:12:40Z</time>
      </trkpt>
      <trkpt lat="42.94071055" lon="13.48883927">
        <ele>697.00000</ele>
        <time>2024-02-08T13:12:41Z</time>
      </trkpt>
      <trkpt lat="42.94070578" lon="13.48879803">
        <ele>697.00000</ele>
        <time>2024-02-08T13:12:42Z</time>
      </trkpt>
      <trkpt lat="42.94069773" lon="13.48873978">
        <ele>698.00000</ele>
        <time>2024-02-08T13:12:43Z</time>
      </trkpt>
      <trkpt lat="42.94069002" lon="13.48870064">
        <ele>698.00000</ele>
        <time>2024-02-08T13:12:44Z</time>
      </trkpt>
      <trkpt lat="42.94068055" lon="13.48865336">
        <ele>698.00000</ele>
        <time>2024-02-08T13:12:45Z</time>
      </trkpt>
      <trkpt lat="42.94067141" lon="13.48860600">
        <ele>698.00000</ele>
        <time>2024-02-08T13:12:46Z</time>
      </trkpt>
      <trkpt lat="42.94065984" lon="13.48854825">
        <ele>699.00000</ele>
        <time>2024-02-08T13:12:47Z</time>
      </trkpt>
      <trkpt lat="42.94065222" lon="13.48849964">
        <ele>700.00000</ele>
        <time>2024-02-08T13:12:48Z</time>
      </trkpt>
      <trkpt lat="42.94064643" lon="13.48846083">
        <ele>700.00000</ele>
        <time>2024-02-08T13:12:49Z</time>
      </trkpt>
      <trkpt lat="42.94063545" lon="13.48841364">
        <ele>701.00000</ele>
        <time>2024-02-08T13:12:50Z</time>
      </trkpt>
      <trkpt lat="42.94062883" lon="13.48836502">
        <ele>701.00000</ele>
        <time>2024-02-08T13:12:51Z</time>
      </trkpt>
      <trkpt lat="42.94062430" lon="13.48830493">
        <ele>702.00000</ele>
        <time>2024-02-08T13:12:52Z</time>
      </trkpt>
      <trkpt lat="42.94061911" lon="13.48825690">
        <ele>703.00000</ele>
        <time>2024-02-08T13:12:53Z</time>
      </trkpt>
      <trkpt lat="42.94061324" lon="13.48820778">
        <ele>703.00000</ele>
        <time>2024-02-08T13:12:54Z</time>
      </trkpt>
      <trkpt lat="42.94060603" lon="13.48815933">
        <ele>704.00000</ele>
        <time>2024-02-08T13:12:55Z</time>
      </trkpt>
      <trkpt lat="42.94059824" lon="13.48811063">
        <ele>704.00000</ele>
        <time>2024-02-08T13:12:56Z</time>
      </trkpt>
      <trkpt lat="42.94059002" lon="13.48806085">
        <ele>705.00000</ele>
        <time>2024-02-08T13:12:57Z</time>
      </trkpt>
      <trkpt lat="42.94058357" lon="13.48802120">
        <ele>706.00000</ele>
        <time>2024-02-08T13:12:58Z</time>
      </trkpt>
      <trkpt lat="42.94057284" lon="13.48796227">
        <ele>706.00000</ele>
        <time>2024-02-08T13:12:59Z</time>
      </trkpt>
      <trkpt lat="42.94056236" lon="13.48791399">
        <ele>707.00000</ele>
        <time>2024-02-08T13:13:00Z</time>
      </trkpt>
      <trkpt lat="42.94054979" lon="13.48786789">
        <ele>708.00000</ele>
        <time>2024-02-08T13:13:01Z</time>
      </trkpt>
      <trkpt lat="42.94053713" lon="13.48781970">
        <ele>708.00000</ele>
        <time>2024-02-08T13:13:02Z</time>
      </trkpt>
      <trkpt lat="42.94052213" lon="13.48777192">
        <ele>709.00000</ele>
        <time>2024-02-08T13:13:03Z</time>
      </trkpt>
      <trkpt lat="42.94050604" lon="13.48772448">
        <ele>710.00000</ele>
        <time>2024-02-08T13:13:04Z</time>
      </trkpt>
      <trkpt lat="42.94049003" lon="13.48767737">
        <ele>710.00000</ele>
        <time>2024-02-08T13:13:05Z</time>
      </trkpt>
      <trkpt lat="42.94047293" lon="13.48762901">
        <ele>711.00000</ele>
        <time>2024-02-08T13:13:06Z</time>
      </trkpt>
      <trkpt lat="42.94045432" lon="13.48757889">
        <ele>712.00000</ele>
        <time>2024-02-08T13:13:07Z</time>
      </trkpt>
      <trkpt lat="42.94043638" lon="13.48752843">
        <ele>713.00000</ele>
        <time>2024-02-08T13:13:08Z</time>
      </trkpt>
      <trkpt lat="42.94041979" lon="13.48747705">
        <ele>713.00000</ele>
        <time>2024-02-08T13:13:09Z</time>
      </trkpt>
      <trkpt lat="42.94040369" lon="13.48742734">
        <ele>714.00000</ele>
        <time>2024-02-08T13:13:10Z</time>
      </trkpt>
      <trkpt lat="42.94038835" lon="13.48737495">
        <ele>714.00000</ele>
        <time>2024-02-08T13:13:11Z</time>
      </trkpt>
      <trkpt lat="42.94037452" lon="13.48732181">
        <ele>715.00000</ele>
        <time>2024-02-08T13:13:12Z</time>
      </trkpt>
      <trkpt lat="42.94036229" lon="13.48726809">
        <ele>715.00000</ele>
        <time>2024-02-08T13:13:13Z</time>
      </trkpt>
      <trkpt lat="42.94035265" lon="13.48721302">
        <ele>716.00000</ele>
        <time>2024-02-08T13:13:14Z</time>
      </trkpt>
      <trkpt lat="42.94034837" lon="13.48715451">
        <ele>716.00000</ele>
        <time>2024-02-08T13:13:15Z</time>
      </trkpt>
      <trkpt lat="42.94034552" lon="13.48709416">
        <ele>716.00000</ele>
        <time>2024-02-08T13:13:16Z</time>
      </trkpt>
      <trkpt lat="42.94034343" lon="13.48703457">
        <ele>716.00000</ele>
        <time>2024-02-08T13:13:17Z</time>
      </trkpt>
      <trkpt lat="42.94034167" lon="13.48697723">
        <ele>716.00000</ele>
        <time>2024-02-08T13:13:18Z</time>
      </trkpt>
      <trkpt lat="42.94034443" lon="13.48691898">
        <ele>717.00000</ele>
        <time>2024-02-08T13:13:19Z</time>
      </trkpt>
      <trkpt lat="42.94034837" lon="13.48686031">
        <ele>717.00000</ele>
        <time>2024-02-08T13:13:20Z</time>
      </trkpt>
      <trkpt lat="42.94035022" lon="13.48680214">
        <ele>717.00000</ele>
        <time>2024-02-08T13:13:21Z</time>
      </trkpt>
      <trkpt lat="42.94035332" lon="13.48675444">
        <ele>717.00000</ele>
        <time>2024-02-08T13:13:22Z</time>
      </trkpt>
      <trkpt lat="42.94035667" lon="13.48668144">
        <ele>717.00000</ele>
        <time>2024-02-08T13:13:23Z</time>
      </trkpt>
      <trkpt lat="42.94036103" lon="13.48662008">
        <ele>717.00000</ele>
        <time>2024-02-08T13:13:24Z</time>
      </trkpt>
      <trkpt lat="42.94036522" lon="13.48656090">
        <ele>717.00000</ele>
        <time>2024-02-08T13:13:25Z</time>
      </trkpt>
      <trkpt lat="42.94036572" lon="13.48651262">
        <ele>717.00000</ele>
        <time>2024-02-08T13:13:26Z</time>
      </trkpt>
      <trkpt lat="42.94036715" lon="13.48645127">
        <ele>717.00000</ele>
        <time>2024-02-08T13:13:27Z</time>
      </trkpt>
      <trkpt lat="42.94036522" lon="13.48637592">
        <ele>717.00000</ele>
        <time>2024-02-08T13:13:28Z</time>
      </trkpt>
      <trkpt lat="42.94036229" lon="13.48631213">
        <ele>717.00000</ele>
        <time>2024-02-08T13:13:29Z</time>
      </trkpt>
      <trkpt lat="42.94035566" lon="13.48624792">
        <ele>718.00000</ele>
        <time>2024-02-08T13:13:30Z</time>
      </trkpt>
      <trkpt lat="42.94034963" lon="13.48619738">
        <ele>718.00000</ele>
        <time>2024-02-08T13:13:31Z</time>
      </trkpt>
      <trkpt lat="42.94033974" lon="13.48612421">
        <ele>718.00000</ele>
        <time>2024-02-08T13:13:32Z</time>
      </trkpt>
      <trkpt lat="42.94032985" lon="13.48606386">
        <ele>719.00000</ele>
        <time>2024-02-08T13:13:33Z</time>
      </trkpt>
      <trkpt lat="42.94031920" lon="13.48600108">
        <ele>719.00000</ele>
        <time>2024-02-08T13:13:34Z</time>
      </trkpt>
      <trkpt lat="42.94030655" lon="13.48594006">
        <ele>719.00000</ele>
        <time>2024-02-08T13:13:35Z</time>
      </trkpt>
      <trkpt lat="42.94029339" lon="13.48587929">
        <ele>719.00000</ele>
        <time>2024-02-08T13:13:36Z</time>
      </trkpt>
      <trkpt lat="42.94027805" lon="13.48582011">
        <ele>720.00000</ele>
        <time>2024-02-08T13:13:37Z</time>
      </trkpt>
      <trkpt lat="42.94026304" lon="13.48576261">
        <ele>720.00000</ele>
        <time>2024-02-08T13:13:38Z</time>
      </trkpt>
      <trkpt lat="42.94024678" lon="13.48570352">
        <ele>720.00000</ele>
        <time>2024-02-08T13:13:39Z</time>
      </trkpt>
      <trkpt lat="42.94023488" lon="13.48564334">
        <ele>720.00000</ele>
        <time>2024-02-08T13:13:40Z</time>
      </trkpt>
      <trkpt lat="42.94022399" lon="13.48558165">
        <ele>720.00000</ele>
        <time>2024-02-08T13:13:41Z</time>
      </trkpt>
      <trkpt lat="42.94021460" lon="13.48552406">
        <ele>720.00000</ele>
        <time>2024-02-08T13:13:42Z</time>
      </trkpt>
      <trkpt lat="42.94020596" lon="13.48546514">
        <ele>720.00000</ele>
        <time>2024-02-08T13:13:43Z</time>
      </trkpt>
      <trkpt lat="42.94019825" lon="13.48540521">
        <ele>720.00000</ele>
        <time>2024-02-08T13:13:44Z</time>
      </trkpt>
      <trkpt lat="42.94019381" lon="13.48534343">
        <ele>720.00000</ele>
        <time>2024-02-08T13:13:45Z</time>
      </trkpt>
      <trkpt lat="42.94019037" lon="13.48528191">
        <ele>721.00000</ele>
        <time>2024-02-08T13:13:46Z</time>
      </trkpt>
      <trkpt lat="42.94018803" lon="13.48521938">
        <ele>721.00000</ele>
        <time>2024-02-08T13:13:47Z</time>
      </trkpt>
      <trkpt lat="42.94018736" lon="13.48515618">
        <ele>720.00000</ele>
        <time>2024-02-08T13:13:48Z</time>
      </trkpt>
      <trkpt lat="42.94018794" lon="13.48509130">
        <ele>720.00000</ele>
        <time>2024-02-08T13:13:49Z</time>
      </trkpt>
      <trkpt lat="42.94018710" lon="13.48502509">
        <ele>720.00000</ele>
        <time>2024-02-08T13:13:50Z</time>
      </trkpt>
      <trkpt lat="42.94019029" lon="13.48495954">
        <ele>720.00000</ele>
        <time>2024-02-08T13:13:51Z</time>
      </trkpt>
      <trkpt lat="42.94019498" lon="13.48489735">
        <ele>720.00000</ele>
        <time>2024-02-08T13:13:52Z</time>
      </trkpt>
      <trkpt lat="42.94020127" lon="13.48484085">
        <ele>720.00000</ele>
        <time>2024-02-08T13:13:53Z</time>
      </trkpt>
      <trkpt lat="42.94020856" lon="13.48478788">
        <ele>720.00000</ele>
        <time>2024-02-08T13:13:54Z</time>
      </trkpt>
      <trkpt lat="42.94021694" lon="13.48473499">
        <ele>720.00000</ele>
        <time>2024-02-08T13:13:55Z</time>
      </trkpt>
      <trkpt lat="42.94022826" lon="13.48467950">
        <ele>720.00000</ele>
        <time>2024-02-08T13:13:56Z</time>
      </trkpt>
      <trkpt lat="42.94023907" lon="13.48462670">
        <ele>721.00000</ele>
        <time>2024-02-08T13:13:57Z</time>
      </trkpt>
      <trkpt lat="42.94025173" lon="13.48457414">
        <ele>721.00000</ele>
        <time>2024-02-08T13:13:58Z</time>
      </trkpt>
      <trkpt lat="42.94026464" lon="13.48451773">
        <ele>721.00000</ele>
        <time>2024-02-08T13:13:59Z</time>
      </trkpt>
      <trkpt lat="42.94028308" lon="13.48446182">
        <ele>722.00000</ele>
        <time>2024-02-08T13:14:00Z</time>
      </trkpt>
      <trkpt lat="42.94030202" lon="13.48440877">
        <ele>722.00000</ele>
        <time>2024-02-08T13:14:01Z</time>
      </trkpt>
      <trkpt lat="42.94032373" lon="13.48435604">
        <ele>722.00000</ele>
        <time>2024-02-08T13:14:02Z</time>
      </trkpt>
      <trkpt lat="42.94034385" lon="13.48430366">
        <ele>722.00000</ele>
        <time>2024-02-08T13:14:03Z</time>
      </trkpt>
      <trkpt lat="42.94036773" lon="13.48425328">
        <ele>722.00000</ele>
        <time>2024-02-08T13:14:04Z</time>
      </trkpt>
      <trkpt lat="42.94039573" lon="13.48420634">
        <ele>722.00000</ele>
        <time>2024-02-08T13:14:05Z</time>
      </trkpt>
      <trkpt lat="42.94042465" lon="13.48416158">
        <ele>723.00000</ele>
        <time>2024-02-08T13:14:06Z</time>
      </trkpt>
      <trkpt lat="42.94045164" lon="13.48411859">
        <ele>723.00000</ele>
        <time>2024-02-08T13:14:07Z</time>
      </trkpt>
      <trkpt lat="42.94047988" lon="13.48407383">
        <ele>723.00000</ele>
        <time>2024-02-08T13:14:08Z</time>
      </trkpt>
      <trkpt lat="42.94050754" lon="13.48402965">
        <ele>724.00000</ele>
        <time>2024-02-08T13:14:09Z</time>
      </trkpt>
      <trkpt lat="42.94053898" lon="13.48398540">
        <ele>725.00000</ele>
        <time>2024-02-08T13:14:10Z</time>
      </trkpt>
      <trkpt lat="42.94057033" lon="13.48394189">
        <ele>726.00000</ele>
        <time>2024-02-08T13:14:11Z</time>
      </trkpt>
      <trkpt lat="42.94060234" lon="13.48389999">
        <ele>726.00000</ele>
        <time>2024-02-08T13:14:12Z</time>
      </trkpt>
      <trkpt lat="42.94063336" lon="13.48385497">
        <ele>727.00000</ele>
        <time>2024-02-08T13:14:13Z</time>
      </trkpt>
      <trkpt lat="42.94066244" lon="13.48380887">
        <ele>728.00000</ele>
        <time>2024-02-08T13:14:14Z</time>
      </trkpt>
      <trkpt lat="42.94068767" lon="13.48376445">
        <ele>728.00000</ele>
        <time>2024-02-08T13:14:15Z</time>
      </trkpt>
      <trkpt lat="42.94071248" lon="13.48371726">
        <ele>728.00000</ele>
        <time>2024-02-08T13:14:16Z</time>
      </trkpt>
      <trkpt lat="42.94073478" lon="13.48366722">
        <ele>729.00000</ele>
        <time>2024-02-08T13:14:17Z</time>
      </trkpt>
      <trkpt lat="42.94075439" lon="13.48361944">
        <ele>729.00000</ele>
        <time>2024-02-08T13:14:18Z</time>
      </trkpt>
      <trkpt lat="42.94076965" lon="13.48357393">
        <ele>729.00000</ele>
        <time>2024-02-08T13:14:19Z</time>
      </trkpt>
      <trkpt lat="42.94078440" lon="13.48352733">
        <ele>729.00000</ele>
        <time>2024-02-08T13:14:20Z</time>
      </trkpt>
      <trkpt lat="42.94080049" lon="13.48347997">
        <ele>729.00000</ele>
        <time>2024-02-08T13:14:21Z</time>
      </trkpt>
      <trkpt lat="42.94081868" lon="13.48343521">
        <ele>730.00000</ele>
        <time>2024-02-08T13:14:22Z</time>
      </trkpt>
      <trkpt lat="42.94083662" lon="13.48338701">
        <ele>730.00000</ele>
        <time>2024-02-08T13:14:23Z</time>
      </trkpt>
      <trkpt lat="42.94085766" lon="13.48333991">
        <ele>730.00000</ele>
        <time>2024-02-08T13:14:24Z</time>
      </trkpt>
      <trkpt lat="42.94087786" lon="13.48329548">
        <ele>730.00000</ele>
        <time>2024-02-08T13:14:25Z</time>
      </trkpt>
      <trkpt lat="42.94089051" lon="13.48324980">
        <ele>731.00000</ele>
        <time>2024-02-08T13:14:26Z</time>
      </trkpt>
      <trkpt lat="42.94090418" lon="13.48321175">
        <ele>731.00000</ele>
        <time>2024-02-08T13:14:27Z</time>
      </trkpt>
      <trkpt lat="42.94092496" lon="13.48316380">
        <ele>731.00000</ele>
        <time>2024-02-08T13:14:28Z</time>
      </trkpt>
      <trkpt lat="42.94095187" lon="13.48310748">
        <ele>732.00000</ele>
        <time>2024-02-08T13:14:29Z</time>
      </trkpt>
      <trkpt lat="42.94097249" lon="13.48305735">
        <ele>732.00000</ele>
        <time>2024-02-08T13:14:30Z</time>
      </trkpt>
      <trkpt lat="42.94099034" lon="13.48300480">
        <ele>733.00000</ele>
        <time>2024-02-08T13:14:31Z</time>
      </trkpt>
      <trkpt lat="42.94101214" lon="13.48295375">
        <ele>733.00000</ele>
        <time>2024-02-08T13:14:32Z</time>
      </trkpt>
      <trkpt lat="42.94103066" lon="13.48291385">
        <ele>734.00000</ele>
        <time>2024-02-08T13:14:33Z</time>
      </trkpt>
      <trkpt lat="42.94105874" lon="13.48285560">
        <ele>735.00000</ele>
        <time>2024-02-08T13:14:34Z</time>
      </trkpt>
      <trkpt lat="42.94108112" lon="13.48280791">
        <ele>735.00000</ele>
        <time>2024-02-08T13:14:35Z</time>
      </trkpt>
      <trkpt lat="42.94110551" lon="13.48275812">
        <ele>736.00000</ele>
        <time>2024-02-08T13:14:36Z</time>
      </trkpt>
      <trkpt lat="42.94112655" lon="13.48271789">
        <ele>737.00000</ele>
        <time>2024-02-08T13:14:37Z</time>
      </trkpt>
      <trkpt lat="42.94115396" lon="13.48266877">
        <ele>737.00000</ele>
        <time>2024-02-08T13:14:38Z</time>
      </trkpt>
      <trkpt lat="42.94118413" lon="13.48262250">
        <ele>737.00000</ele>
        <time>2024-02-08T13:14:39Z</time>
      </trkpt>
      <trkpt lat="42.94121607" lon="13.48257925">
        <ele>738.00000</ele>
        <time>2024-02-08T13:14:40Z</time>
      </trkpt>
      <trkpt lat="42.94124549" lon="13.48253214">
        <ele>738.00000</ele>
        <time>2024-02-08T13:14:41Z</time>
      </trkpt>
      <trkpt lat="42.94127147" lon="13.48248152">
        <ele>739.00000</ele>
        <time>2024-02-08T13:14:42Z</time>
      </trkpt>
      <trkpt lat="42.94129226" lon="13.48243081">
        <ele>739.00000</ele>
        <time>2024-02-08T13:14:43Z</time>
      </trkpt>
      <trkpt lat="42.94130953" lon="13.48237859">
        <ele>740.00000</ele>
        <time>2024-02-08T13:14:44Z</time>
      </trkpt>
      <trkpt lat="42.94133031" lon="13.48231539">
        <ele>740.00000</ele>
        <time>2024-02-08T13:14:45Z</time>
      </trkpt>
      <trkpt lat="42.94134356" lon="13.48227348">
        <ele>741.00000</ele>
        <time>2024-02-08T13:14:46Z</time>
      </trkpt>
      <trkpt lat="42.94135822" lon="13.48222084">
        <ele>741.00000</ele>
        <time>2024-02-08T13:14:47Z</time>
      </trkpt>
      <trkpt lat="42.94137071" lon="13.48216820">
        <ele>741.00000</ele>
        <time>2024-02-08T13:14:48Z</time>
      </trkpt>
      <trkpt lat="42.94138262" lon="13.48211397">
        <ele>741.00000</ele>
        <time>2024-02-08T13:14:49Z</time>
      </trkpt>
      <trkpt lat="42.94139301" lon="13.48204691">
        <ele>742.00000</ele>
        <time>2024-02-08T13:14:50Z</time>
      </trkpt>
      <trkpt lat="42.94139267" lon="13.48200123">
        <ele>742.00000</ele>
        <time>2024-02-08T13:14:51Z</time>
      </trkpt>
      <trkpt lat="42.94139276" lon="13.48194616">
        <ele>742.00000</ele>
        <time>2024-02-08T13:14:52Z</time>
      </trkpt>
      <trkpt lat="42.94139016" lon="13.48189068">
        <ele>742.00000</ele>
        <time>2024-02-08T13:14:53Z</time>
      </trkpt>
      <trkpt lat="42.94138479" lon="13.48182245">
        <ele>742.00000</ele>
        <time>2024-02-08T13:14:54Z</time>
      </trkpt>
      <trkpt lat="42.94137658" lon="13.48176520">
        <ele>742.00000</ele>
        <time>2024-02-08T13:14:55Z</time>
      </trkpt>
      <trkpt lat="42.94136518" lon="13.48171893">
        <ele>742.00000</ele>
        <time>2024-02-08T13:14:56Z</time>
      </trkpt>
      <trkpt lat="42.94134976" lon="13.48166462">
        <ele>742.00000</ele>
        <time>2024-02-08T13:14:57Z</time>
      </trkpt>
      <trkpt lat="42.94132864" lon="13.48160192">
        <ele>743.00000</ele>
        <time>2024-02-08T13:14:58Z</time>
      </trkpt>
      <trkpt lat="42.94130542" lon="13.48155230">
        <ele>744.00000</ele>
        <time>2024-02-08T13:14:59Z</time>
      </trkpt>
      <trkpt lat="42.94128094" lon="13.48150578">
        <ele>745.00000</ele>
        <time>2024-02-08T13:15:00Z</time>
      </trkpt>
      <trkpt lat="42.94125856" lon="13.48146940">
        <ele>745.00000</ele>
        <time>2024-02-08T13:15:01Z</time>
      </trkpt>
      <trkpt lat="42.94122730" lon="13.48142766">
        <ele>746.00000</ele>
        <time>2024-02-08T13:15:02Z</time>
      </trkpt>
      <trkpt lat="42.94118891" lon="13.48138022">
        <ele>746.00000</ele>
        <time>2024-02-08T13:15:03Z</time>
      </trkpt>
      <trkpt lat="42.94115488" lon="13.48134325">
        <ele>747.00000</ele>
        <time>2024-02-08T13:15:04Z</time>
      </trkpt>
      <trkpt lat="42.94111951" lon="13.48130889">
        <ele>747.00000</ele>
        <time>2024-02-08T13:15:05Z</time>
      </trkpt>
      <trkpt lat="42.94108724" lon="13.48127293">
        <ele>747.00000</ele>
        <time>2024-02-08T13:15:06Z</time>
      </trkpt>
      <trkpt lat="42.94105597" lon="13.48123705">
        <ele>747.00000</ele>
        <time>2024-02-08T13:15:07Z</time>
      </trkpt>
      <trkpt lat="42.94102119" lon="13.48120160">
        <ele>747.00000</ele>
        <time>2024-02-08T13:15:08Z</time>
      </trkpt>
      <trkpt lat="42.94098783" lon="13.48116438">
        <ele>747.00000</ele>
        <time>2024-02-08T13:15:09Z</time>
      </trkpt>
      <trkpt lat="42.94096210" lon="13.48113421">
        <ele>747.00000</ele>
        <time>2024-02-08T13:15:10Z</time>
      </trkpt>
      <trkpt lat="42.94093293" lon="13.48109833">
        <ele>746.00000</ele>
        <time>2024-02-08T13:15:11Z</time>
      </trkpt>
      <trkpt lat="42.94090175" lon="13.48105944">
        <ele>747.00000</ele>
        <time>2024-02-08T13:15:12Z</time>
      </trkpt>
      <trkpt lat="42.94087082" lon="13.48101636">
        <ele>747.00000</ele>
        <time>2024-02-08T13:15:13Z</time>
      </trkpt>
      <trkpt lat="42.94084777" lon="13.48096758">
        <ele>748.00000</ele>
        <time>2024-02-08T13:15:14Z</time>
      </trkpt>
      <trkpt lat="42.94083226" lon="13.48091511">
        <ele>749.00000</ele>
        <time>2024-02-08T13:15:15Z</time>
      </trkpt>
      <trkpt lat="42.94082069" lon="13.48085878">
        <ele>750.00000</ele>
        <time>2024-02-08T13:15:16Z</time>
      </trkpt>
      <trkpt lat="42.94080711" lon="13.48079114">
        <ele>752.00000</ele>
        <time>2024-02-08T13:15:17Z</time>
      </trkpt>
      <trkpt lat="42.94079152" lon="13.48074638">
        <ele>752.00000</ele>
        <time>2024-02-08T13:15:18Z</time>
      </trkpt>
      <trkpt lat="42.94075867" lon="13.48068737">
        <ele>752.00000</ele>
        <time>2024-02-08T13:15:19Z</time>
      </trkpt>
      <trkpt lat="42.94072690" lon="13.48065351">
        <ele>752.00000</ele>
        <time>2024-02-08T13:15:20Z</time>
      </trkpt>
      <trkpt lat="42.94068046" lon="13.48061361">
        <ele>752.00000</ele>
        <time>2024-02-08T13:15:21Z</time>
      </trkpt>
      <trkpt lat="42.94062900" lon="13.48057363">
        <ele>752.00000</ele>
        <time>2024-02-08T13:15:22Z</time>
      </trkpt>
      <trkpt lat="42.94057292" lon="13.48053188">
        <ele>752.00000</ele>
        <time>2024-02-08T13:15:23Z</time>
      </trkpt>
      <trkpt lat="42.94051333" lon="13.48048956">
        <ele>751.00000</ele>
        <time>2024-02-08T13:15:24Z</time>
      </trkpt>
      <trkpt lat="42.94045189" lon="13.48044505">
        <ele>751.00000</ele>
        <time>2024-02-08T13:15:25Z</time>
      </trkpt>
      <trkpt lat="42.94038668" lon="13.48039811">
        <ele>750.00000</ele>
        <time>2024-02-08T13:15:26Z</time>
      </trkpt>
      <trkpt lat="42.94031803" lon="13.48034866">
        <ele>750.00000</ele>
        <time>2024-02-08T13:15:27Z</time>
      </trkpt>
      <trkpt lat="42.94022960" lon="13.48028361">
        <ele>749.00000</ele>
        <time>2024-02-08T13:15:28Z</time>
      </trkpt>
      <trkpt lat="42.94016112" lon="13.48021924">
        <ele>748.00000</ele>
        <time>2024-02-08T13:15:29Z</time>
      </trkpt>
      <trkpt lat="42.94010546" lon="13.48016124">
        <ele>747.00000</ele>
        <time>2024-02-08T13:15:30Z</time>
      </trkpt>
      <trkpt lat="42.94003288" lon="13.48008027">
        <ele>745.00000</ele>
        <time>2024-02-08T13:15:31Z</time>
      </trkpt>
      <trkpt lat="42.93995191" lon="13.47996837">
        <ele>743.00000</ele>
        <time>2024-02-08T13:15:32Z</time>
      </trkpt>
      <trkpt lat="42.93990857" lon="13.47988204">
        <ele>743.00000</ele>
        <time>2024-02-08T13:15:33Z</time>
      </trkpt>
      <trkpt lat="42.93984772" lon="13.47974457">
        <ele>743.00000</ele>
        <time>2024-02-08T13:15:34Z</time>
      </trkpt>
      <trkpt lat="42.93981495" lon="13.47964424">
        <ele>743.00000</ele>
        <time>2024-02-08T13:15:35Z</time>
      </trkpt>
      <trkpt lat="42.93977530" lon="13.47951675">
        <ele>743.00000</ele>
        <time>2024-02-08T13:15:36Z</time>
      </trkpt>
      <trkpt lat="42.93972551" lon="13.47936311">
        <ele>743.00000</ele>
        <time>2024-02-08T13:15:37Z</time>
      </trkpt>
      <trkpt lat="42.93969282" lon="13.47925792">
        <ele>742.00000</ele>
        <time>2024-02-08T13:15:38Z</time>
      </trkpt>
      <trkpt lat="42.93965427" lon="13.47909741">
        <ele>741.00000</ele>
        <time>2024-02-08T13:15:39Z</time>
      </trkpt>
      <trkpt lat="42.93962988" lon="13.47898861">
        <ele>740.00000</ele>
        <time>2024-02-08T13:15:40Z</time>
      </trkpt>
      <trkpt lat="42.93959241" lon="13.47885584">
        <ele>739.00000</ele>
        <time>2024-02-08T13:15:41Z</time>
      </trkpt>
      <trkpt lat="42.93954480" lon="13.47871050">
        <ele>739.00000</ele>
        <time>2024-02-08T13:15:42Z</time>
      </trkpt>
      <trkpt lat="42.93949618" lon="13.47859642">
        <ele>738.00000</ele>
        <time>2024-02-08T13:15:43Z</time>
      </trkpt>
      <trkpt lat="42.93944631" lon="13.47848427">
        <ele>737.00000</ele>
        <time>2024-02-08T13:15:44Z</time>
      </trkpt>
      <trkpt lat="42.93941136" lon="13.47839064">
        <ele>737.00000</ele>
        <time>2024-02-08T13:15:45Z</time>
      </trkpt>
      <trkpt lat="42.93937222" lon="13.47826927">
        <ele>737.00000</ele>
        <time>2024-02-08T13:15:46Z</time>
      </trkpt>
      <trkpt lat="42.93933961" lon="13.47811354">
        <ele>738.00000</ele>
        <time>2024-02-08T13:15:47Z</time>
      </trkpt>
      <trkpt lat="42.93931622" lon="13.47797834">
        <ele>738.00000</ele>
        <time>2024-02-08T13:15:48Z</time>
      </trkpt>
      <trkpt lat="42.93929544" lon="13.47787197">
        <ele>738.00000</ele>
        <time>2024-02-08T13:15:49Z</time>
      </trkpt>
      <trkpt lat="42.93926694" lon="13.47774256">
        <ele>737.00000</ele>
        <time>2024-02-08T13:15:50Z</time>
      </trkpt>
      <trkpt lat="42.93923785" lon="13.47761247">
        <ele>737.00000</ele>
        <time>2024-02-08T13:15:51Z</time>
      </trkpt>
      <trkpt lat="42.93920299" lon="13.47745447">
        <ele>736.00000</ele>
        <time>2024-02-08T13:15:52Z</time>
      </trkpt>
      <trkpt lat="42.93917264" lon="13.47732136">
        <ele>735.00000</ele>
        <time>2024-02-08T13:15:53Z</time>
      </trkpt>
      <trkpt lat="42.93913526" lon="13.47719455">
        <ele>734.00000</ele>
        <time>2024-02-08T13:15:54Z</time>
      </trkpt>
      <trkpt lat="42.93909310" lon="13.47710059">
        <ele>732.00000</ele>
        <time>2024-02-08T13:15:55Z</time>
      </trkpt>
      <trkpt lat="42.93902428" lon="13.47699514">
        <ele>730.00000</ele>
        <time>2024-02-08T13:15:56Z</time>
      </trkpt>
      <trkpt lat="42.93892429" lon="13.47689414">
        <ele>729.00000</ele>
        <time>2024-02-08T13:15:57Z</time>
      </trkpt>
      <trkpt lat="42.93882144" lon="13.47682599">
        <ele>729.00000</ele>
        <time>2024-02-08T13:15:58Z</time>
      </trkpt>
      <trkpt lat="42.93871801" lon="13.47676908">
        <ele>729.00000</ele>
        <time>2024-02-08T13:15:59Z</time>
      </trkpt>
      <trkpt lat="42.93863779" lon="13.47672684">
        <ele>730.00000</ele>
        <time>2024-02-08T13:16:00Z</time>
      </trkpt>
      <trkpt lat="42.93854526" lon="13.47667554">
        <ele>730.00000</ele>
        <time>2024-02-08T13:16:01Z</time>
      </trkpt>
      <trkpt lat="42.93843562" lon="13.47661335">
        <ele>730.00000</ele>
        <time>2024-02-08T13:16:02Z</time>
      </trkpt>
      <trkpt lat="42.93834317" lon="13.47656046">
        <ele>731.00000</ele>
        <time>2024-02-08T13:16:03Z</time>
      </trkpt>
      <trkpt lat="42.93824963" lon="13.47650773">
        <ele>732.00000</ele>
        <time>2024-02-08T13:16:04Z</time>
      </trkpt>
      <trkpt lat="42.93817050" lon="13.47646457">
        <ele>733.00000</ele>
        <time>2024-02-08T13:16:05Z</time>
      </trkpt>
      <trkpt lat="42.93807394" lon="13.47641126">
        <ele>734.00000</ele>
        <time>2024-02-08T13:16:06Z</time>
      </trkpt>
      <trkpt lat="42.93796246" lon="13.47634797">
        <ele>735.00000</ele>
        <time>2024-02-08T13:16:07Z</time>
      </trkpt>
      <trkpt lat="42.93787118" lon="13.47629114">
        <ele>735.00000</ele>
        <time>2024-02-08T13:16:08Z</time>
      </trkpt>
      <trkpt lat="42.93779474" lon="13.47624815">
        <ele>735.00000</ele>
        <time>2024-02-08T13:16:09Z</time>
      </trkpt>
      <trkpt lat="42.93770355" lon="13.47619475">
        <ele>736.00000</ele>
        <time>2024-02-08T13:16:10Z</time>
      </trkpt>
      <trkpt lat="42.93759668" lon="13.47614102">
        <ele>736.00000</ele>
        <time>2024-02-08T13:16:11Z</time>
      </trkpt>
      <trkpt lat="42.93750909" lon="13.47610733">
        <ele>737.00000</ele>
        <time>2024-02-08T13:16:12Z</time>
      </trkpt>
      <trkpt lat="42.93741940" lon="13.47609006">
        <ele>737.00000</ele>
        <time>2024-02-08T13:16:13Z</time>
      </trkpt>
      <trkpt lat="42.93734413" lon="13.47609769">
        <ele>738.00000</ele>
        <time>2024-02-08T13:16:14Z</time>
      </trkpt>
      <trkpt lat="42.93724883" lon="13.47612049">
        <ele>738.00000</ele>
        <time>2024-02-08T13:16:15Z</time>
      </trkpt>
      <trkpt lat="42.93713768" lon="13.47614815">
        <ele>738.00000</ele>
        <time>2024-02-08T13:16:16Z</time>
      </trkpt>
      <trkpt lat="42.93704498" lon="13.47616324">
        <ele>738.00000</ele>
        <time>2024-02-08T13:16:17Z</time>
      </trkpt>
      <trkpt lat="42.93694976" lon="13.47616877">
        <ele>738.00000</ele>
        <time>2024-02-08T13:16:18Z</time>
      </trkpt>
      <trkpt lat="42.93687642" lon="13.47616055">
        <ele>737.00000</ele>
        <time>2024-02-08T13:16:19Z</time>
      </trkpt>
      <trkpt lat="42.93678950" lon="13.47613658">
        <ele>737.00000</ele>
        <time>2024-02-08T13:16:20Z</time>
      </trkpt>
      <trkpt lat="42.93669688" lon="13.47611504">
        <ele>736.00000</ele>
        <time>2024-02-08T13:16:21Z</time>
      </trkpt>
      <trkpt lat="42.93658448" lon="13.47608495">
        <ele>734.00000</ele>
        <time>2024-02-08T13:16:22Z</time>
      </trkpt>
      <trkpt lat="42.93650225" lon="13.47604346">
        <ele>733.00000</ele>
        <time>2024-02-08T13:16:23Z</time>
      </trkpt>
      <trkpt lat="42.93644517" lon="13.47599300">
        <ele>732.00000</ele>
        <time>2024-02-08T13:16:24Z</time>
      </trkpt>
      <trkpt lat="42.93638063" lon="13.47590809">
        <ele>731.00000</ele>
        <time>2024-02-08T13:16:25Z</time>
      </trkpt>
      <trkpt lat="42.93632514" lon="13.47577264">
        <ele>730.00000</ele>
        <time>2024-02-08T13:16:26Z</time>
      </trkpt>
      <trkpt lat="42.93630125" lon="13.47563333">
        <ele>731.00000</ele>
        <time>2024-02-08T13:16:27Z</time>
      </trkpt>
      <trkpt lat="42.93627787" lon="13.47549444">
        <ele>733.00000</ele>
        <time>2024-02-08T13:16:28Z</time>
      </trkpt>
      <trkpt lat="42.93625943" lon="13.47538288">
        <ele>734.00000</ele>
        <time>2024-02-08T13:16:29Z</time>
      </trkpt>
      <trkpt lat="42.93623604" lon="13.47524575">
        <ele>735.00000</ele>
        <time>2024-02-08T13:16:30Z</time>
      </trkpt>
      <trkpt lat="42.93621324" lon="13.47510863">
        <ele>736.00000</ele>
        <time>2024-02-08T13:16:31Z</time>
      </trkpt>
      <trkpt lat="42.93618776" lon="13.47494007">
        <ele>736.00000</ele>
        <time>2024-02-08T13:16:32Z</time>
      </trkpt>
      <trkpt lat="42.93616740" lon="13.47480101">
        <ele>736.00000</ele>
        <time>2024-02-08T13:16:33Z</time>
      </trkpt>
      <trkpt lat="42.93614946" lon="13.47469104">
        <ele>736.00000</ele>
        <time>2024-02-08T13:16:34Z</time>
      </trkpt>
      <trkpt lat="42.93612104" lon="13.47455383">
        <ele>736.00000</ele>
        <time>2024-02-08T13:16:35Z</time>
      </trkpt>
      <trkpt lat="42.93608190" lon="13.47439155">
        <ele>737.00000</ele>
        <time>2024-02-08T13:16:36Z</time>
      </trkpt>
      <trkpt lat="42.93603639" lon="13.47426633">
        <ele>736.00000</ele>
        <time>2024-02-08T13:16:37Z</time>
      </trkpt>
      <trkpt lat="42.93597746" lon="13.47415259">
        <ele>735.00000</ele>
        <time>2024-02-08T13:16:38Z</time>
      </trkpt>
      <trkpt lat="42.93591896" lon="13.47407246">
        <ele>735.00000</ele>
        <time>2024-02-08T13:16:39Z</time>
      </trkpt>
      <trkpt lat="42.93584008" lon="13.47397757">
        <ele>736.00000</ele>
        <time>2024-02-08T13:16:40Z</time>
      </trkpt>
      <trkpt lat="42.93574947" lon="13.47384891">
        <ele>736.00000</ele>
        <time>2024-02-08T13:16:41Z</time>
      </trkpt>
      <trkpt lat="42.93567907" lon="13.47373148">
        <ele>736.00000</ele>
        <time>2024-02-08T13:16:42Z</time>
      </trkpt>
      <trkpt lat="42.93561872" lon="13.47364406">
        <ele>737.00000</ele>
        <time>2024-02-08T13:16:43Z</time>
      </trkpt>
      <trkpt lat="42.93553875" lon="13.47353409">
        <ele>737.00000</ele>
        <time>2024-02-08T13:16:44Z</time>
      </trkpt>
      <trkpt lat="42.93544404" lon="13.47344364">
        <ele>736.00000</ele>
        <time>2024-02-08T13:16:45Z</time>
      </trkpt>
      <trkpt lat="42.93531521" lon="13.47336863">
        <ele>734.00000</ele>
        <time>2024-02-08T13:16:46Z</time>
      </trkpt>
      <trkpt lat="42.93520197" lon="13.47331297">
        <ele>732.00000</ele>
        <time>2024-02-08T13:16:47Z</time>
      </trkpt>
      <trkpt lat="42.93510918" lon="13.47326100">
        <ele>729.00000</ele>
        <time>2024-02-08T13:16:48Z</time>
      </trkpt>
      <trkpt lat="42.93499820" lon="13.47318364">
        <ele>727.00000</ele>
        <time>2024-02-08T13:16:49Z</time>
      </trkpt>
      <trkpt lat="42.93488874" lon="13.47309915">
        <ele>725.00000</ele>
        <time>2024-02-08T13:16:50Z</time>
      </trkpt>
      <trkpt lat="42.93476812" lon="13.47301927">
        <ele>722.00000</ele>
        <time>2024-02-08T13:16:51Z</time>
      </trkpt>
      <trkpt lat="42.93462848" lon="13.47293478">
        <ele>720.00000</ele>
        <time>2024-02-08T13:16:52Z</time>
      </trkpt>
      <trkpt lat="42.93453460" lon="13.47288323">
        <ele>719.00000</ele>
        <time>2024-02-08T13:16:53Z</time>
      </trkpt>
      <trkpt lat="42.93441608" lon="13.47281333">
        <ele>717.00000</ele>
        <time>2024-02-08T13:16:54Z</time>
      </trkpt>
      <trkpt lat="42.93430720" lon="13.47272909">
        <ele>717.00000</ele>
        <time>2024-02-08T13:16:55Z</time>
      </trkpt>
      <trkpt lat="42.93419002" lon="13.47260705">
        <ele>716.00000</ele>
        <time>2024-02-08T13:16:56Z</time>
      </trkpt>
      <trkpt lat="42.93410805" lon="13.47249255">
        <ele>715.00000</ele>
        <time>2024-02-08T13:16:57Z</time>
      </trkpt>
      <trkpt lat="42.93405138" lon="13.47239180">
        <ele>715.00000</ele>
        <time>2024-02-08T13:16:58Z</time>
      </trkpt>
      <trkpt lat="42.93397502" lon="13.47223313">
        <ele>716.00000</ele>
        <time>2024-02-08T13:16:59Z</time>
      </trkpt>
      <trkpt lat="42.93392507" lon="13.47209843">
        <ele>717.00000</ele>
        <time>2024-02-08T13:17:00Z</time>
      </trkpt>
      <trkpt lat="42.93387939" lon="13.47197480">
        <ele>719.00000</ele>
        <time>2024-02-08T13:17:01Z</time>
      </trkpt>
      <trkpt lat="42.93383128" lon="13.47185838">
        <ele>719.00000</ele>
        <time>2024-02-08T13:17:02Z</time>
      </trkpt>
      <trkpt lat="42.93379272" lon="13.47177322">
        <ele>720.00000</ele>
        <time>2024-02-08T13:17:03Z</time>
      </trkpt>
      <trkpt lat="42.93374226" lon="13.47167892">
        <ele>721.00000</ele>
        <time>2024-02-08T13:17:04Z</time>
      </trkpt>
      <trkpt lat="42.93367504" lon="13.47158445">
        <ele>721.00000</ele>
        <time>2024-02-08T13:17:05Z</time>
      </trkpt>
      <trkpt lat="42.93361695" lon="13.47151916">
        <ele>721.00000</ele>
        <time>2024-02-08T13:17:06Z</time>
      </trkpt>
      <trkpt lat="42.93355610" lon="13.47146602">
        <ele>721.00000</ele>
        <time>2024-02-08T13:17:07Z</time>
      </trkpt>
      <trkpt lat="42.93350757" lon="13.47143199">
        <ele>721.00000</ele>
        <time>2024-02-08T13:17:08Z</time>
      </trkpt>
      <trkpt lat="42.93344889" lon="13.47139678">
        <ele>721.00000</ele>
        <time>2024-02-08T13:17:09Z</time>
      </trkpt>
      <trkpt lat="42.93337999" lon="13.47135881">
        <ele>722.00000</ele>
        <time>2024-02-08T13:17:10Z</time>
      </trkpt>
      <trkpt lat="42.93332442" lon="13.47133300">
        <ele>723.00000</ele>
        <time>2024-02-08T13:17:11Z</time>
      </trkpt>
      <trkpt lat="42.93328050" lon="13.47131799">
        <ele>723.00000</ele>
        <time>2024-02-08T13:17:12Z</time>
      </trkpt>
      <trkpt lat="42.93322686" lon="13.47129997">
        <ele>724.00000</ele>
        <time>2024-02-08T13:17:13Z</time>
      </trkpt>
      <trkpt lat="42.93316458" lon="13.47128421">
        <ele>725.00000</ele>
        <time>2024-02-08T13:17:14Z</time>
      </trkpt>
      <trkpt lat="42.93311378" lon="13.47127826">
        <ele>726.00000</ele>
        <time>2024-02-08T13:17:15Z</time>
      </trkpt>
      <trkpt lat="42.93306182" lon="13.47127525">
        <ele>726.00000</ele>
        <time>2024-02-08T13:17:16Z</time>
      </trkpt>
      <trkpt lat="42.93301957" lon="13.47127265">
        <ele>727.00000</ele>
        <time>2024-02-08T13:17:17Z</time>
      </trkpt>
      <trkpt lat="42.93297196" lon="13.47127215">
        <ele>727.00000</ele>
        <time>2024-02-08T13:17:18Z</time>
      </trkpt>
      <trkpt lat="42.93291832" lon="13.47127114">
        <ele>727.00000</ele>
        <time>2024-02-08T13:17:19Z</time>
      </trkpt>
      <trkpt lat="42.93287373" lon="13.47127013">
        <ele>727.00000</ele>
        <time>2024-02-08T13:17:20Z</time>
      </trkpt>
      <trkpt lat="42.93282754" lon="13.47126787">
        <ele>727.00000</ele>
        <time>2024-02-08T13:17:21Z</time>
      </trkpt>
      <trkpt lat="42.93279100" lon="13.47126670">
        <ele>727.00000</ele>
        <time>2024-02-08T13:17:22Z</time>
      </trkpt>
      <trkpt lat="42.93274263" lon="13.47126125">
        <ele>727.00000</ele>
        <time>2024-02-08T13:17:23Z</time>
      </trkpt>
      <trkpt lat="42.93269285" lon="13.47125873">
        <ele>728.00000</ele>
        <time>2024-02-08T13:17:24Z</time>
      </trkpt>
      <trkpt lat="42.93264247" lon="13.47125697">
        <ele>728.00000</ele>
        <time>2024-02-08T13:17:25Z</time>
      </trkpt>
      <trkpt lat="42.93258447" lon="13.47125454">
        <ele>728.00000</ele>
        <time>2024-02-08T13:17:26Z</time>
      </trkpt>
      <trkpt lat="42.93254801" lon="13.47125136">
        <ele>728.00000</ele>
        <time>2024-02-08T13:17:27Z</time>
      </trkpt>
      <trkpt lat="42.93250098" lon="13.47124365">
        <ele>729.00000</ele>
        <time>2024-02-08T13:17:28Z</time>
      </trkpt>
      <trkpt lat="42.93244541" lon="13.47123091">
        <ele>729.00000</ele>
        <time>2024-02-08T13:17:29Z</time>
      </trkpt>
      <trkpt lat="42.93240250" lon="13.47121942">
        <ele>730.00000</ele>
        <time>2024-02-08T13:17:30Z</time>
      </trkpt>
      <trkpt lat="42.93235681" lon="13.47120543">
        <ele>730.00000</ele>
        <time>2024-02-08T13:17:31Z</time>
      </trkpt>
      <trkpt lat="42.93231541" lon="13.47118933">
        <ele>731.00000</ele>
        <time>2024-02-08T13:17:32Z</time>
      </trkpt>
      <trkpt lat="42.93226545" lon="13.47116628">
        <ele>732.00000</ele>
        <time>2024-02-08T13:17:33Z</time>
      </trkpt>
      <trkpt lat="42.93220653" lon="13.47113787">
        <ele>733.00000</ele>
        <time>2024-02-08T13:17:34Z</time>
      </trkpt>
      <trkpt lat="42.93215766" lon="13.47111348">
        <ele>734.00000</ele>
        <time>2024-02-08T13:17:35Z</time>
      </trkpt>
      <trkpt lat="42.93211064" lon="13.47108732">
        <ele>734.00000</ele>
        <time>2024-02-08T13:17:36Z</time>
      </trkpt>
      <trkpt lat="42.93207384" lon="13.47106444">
        <ele>735.00000</ele>
        <time>2024-02-08T13:17:37Z</time>
      </trkpt>
      <trkpt lat="42.93202565" lon="13.47103829">
        <ele>735.00000</ele>
        <time>2024-02-08T13:17:38Z</time>
      </trkpt>
      <trkpt lat="42.93196907" lon="13.47100652">
        <ele>736.00000</ele>
        <time>2024-02-08T13:17:39Z</time>
      </trkpt>
      <trkpt lat="42.93191987" lon="13.47097928">
        <ele>736.00000</ele>
        <time>2024-02-08T13:17:40Z</time>
      </trkpt>
      <trkpt lat="42.93187117" lon="13.47095120">
        <ele>736.00000</ele>
        <time>2024-02-08T13:17:41Z</time>
      </trkpt>
      <trkpt lat="42.93183177" lon="13.47092933">
        <ele>736.00000</ele>
        <time>2024-02-08T13:17:42Z</time>
      </trkpt>
      <trkpt lat="42.93178249" lon="13.47090317">
        <ele>736.00000</ele>
        <time>2024-02-08T13:17:43Z</time>
      </trkpt>
      <trkpt lat="42.93173287" lon="13.47087451">
        <ele>736.00000</ele>
        <time>2024-02-08T13:17:44Z</time>
      </trkpt>
      <trkpt lat="42.93167235" lon="13.47083947">
        <ele>736.00000</ele>
        <time>2024-02-08T13:17:45Z</time>
      </trkpt>
      <trkpt lat="42.93163052" lon="13.47081684">
        <ele>737.00000</ele>
        <time>2024-02-08T13:17:46Z</time>
      </trkpt>
      <trkpt lat="42.93157889" lon="13.47078826">
        <ele>737.00000</ele>
        <time>2024-02-08T13:17:47Z</time>
      </trkpt>
      <trkpt lat="42.93152566" lon="13.47076135">
        <ele>737.00000</ele>
        <time>2024-02-08T13:17:48Z</time>
      </trkpt>
      <trkpt lat="42.93146607" lon="13.47072741">
        <ele>737.00000</ele>
        <time>2024-02-08T13:17:49Z</time>
      </trkpt>
      <trkpt lat="42.93141737" lon="13.47069924">
        <ele>738.00000</ele>
        <time>2024-02-08T13:17:50Z</time>
      </trkpt>
      <trkpt lat="42.93137898" lon="13.47067804">
        <ele>738.00000</ele>
        <time>2024-02-08T13:17:51Z</time>
      </trkpt>
      <trkpt lat="42.93133079" lon="13.47065121">
        <ele>738.00000</ele>
        <time>2024-02-08T13:17:52Z</time>
      </trkpt>
      <trkpt lat="42.93128343" lon="13.47062699">
        <ele>738.00000</ele>
        <time>2024-02-08T13:17:53Z</time>
      </trkpt>
      <trkpt lat="42.93122769" lon="13.47059966">
        <ele>738.00000</ele>
        <time>2024-02-08T13:17:54Z</time>
      </trkpt>
      <trkpt lat="42.93118209" lon="13.47057611">
        <ele>738.00000</ele>
        <time>2024-02-08T13:17:55Z</time>
      </trkpt>
      <trkpt lat="42.93114571" lon="13.47055750">
        <ele>739.00000</ele>
        <time>2024-02-08T13:17:56Z</time>
      </trkpt>
      <trkpt lat="42.93109961" lon="13.47053395">
        <ele>739.00000</ele>
        <time>2024-02-08T13:17:57Z</time>
      </trkpt>
      <trkpt lat="42.93104496" lon="13.47050830">
        <ele>739.00000</ele>
        <time>2024-02-08T13:17:58Z</time>
      </trkpt>
      <trkpt lat="42.93100004" lon="13.47048768">
        <ele>739.00000</ele>
        <time>2024-02-08T13:17:59Z</time>
      </trkpt>
      <trkpt lat="42.93095695" lon="13.47047092">
        <ele>740.00000</ele>
        <time>2024-02-08T13:18:00Z</time>
      </trkpt>
      <trkpt lat="42.93092343" lon="13.47045742">
        <ele>740.00000</ele>
        <time>2024-02-08T13:18:01Z</time>
      </trkpt>
      <trkpt lat="42.93088093" lon="13.47043714">
        <ele>740.00000</ele>
        <time>2024-02-08T13:18:02Z</time>
      </trkpt>
      <trkpt lat="42.93083064" lon="13.47041451">
        <ele>741.00000</ele>
        <time>2024-02-08T13:18:03Z</time>
      </trkpt>
      <trkpt lat="42.93079862" lon="13.47040177">
        <ele>741.00000</ele>
        <time>2024-02-08T13:18:04Z</time>
      </trkpt>
      <trkpt lat="42.93074875" lon="13.47038341">
        <ele>742.00000</ele>
        <time>2024-02-08T13:18:05Z</time>
      </trkpt>
      <trkpt lat="42.93071690" lon="13.47037319">
        <ele>742.00000</ele>
        <time>2024-02-08T13:18:06Z</time>
      </trkpt>
      <trkpt lat="42.93067356" lon="13.47036045">
        <ele>742.00000</ele>
        <time>2024-02-08T13:18:07Z</time>
      </trkpt>
      <trkpt lat="42.93062411" lon="13.47034494">
        <ele>743.00000</ele>
        <time>2024-02-08T13:18:08Z</time>
      </trkpt>
      <trkpt lat="42.93058505" lon="13.47033354">
        <ele>743.00000</ele>
        <time>2024-02-08T13:18:09Z</time>
      </trkpt>
      <trkpt lat="42.93054758" lon="13.47032139">
        <ele>744.00000</ele>
        <time>2024-02-08T13:18:10Z</time>
      </trkpt>
      <trkpt lat="42.93051875" lon="13.47031082">
        <ele>744.00000</ele>
        <time>2024-02-08T13:18:11Z</time>
      </trkpt>
      <trkpt lat="42.93048044" lon="13.47029909">
        <ele>744.00000</ele>
        <time>2024-02-08T13:18:12Z</time>
      </trkpt>
      <trkpt lat="42.93044214" lon="13.47028736">
        <ele>745.00000</ele>
        <time>2024-02-08T13:18:13Z</time>
      </trkpt>
      <trkpt lat="42.93039411" lon="13.47027034">
        <ele>745.00000</ele>
        <time>2024-02-08T13:18:14Z</time>
      </trkpt>
      <trkpt lat="42.93035941" lon="13.47025810">
        <ele>745.00000</ele>
        <time>2024-02-08T13:18:15Z</time>
      </trkpt>
      <trkpt lat="42.93031406" lon="13.47024285">
        <ele>746.00000</ele>
        <time>2024-02-08T13:18:16Z</time>
      </trkpt>
      <trkpt lat="42.93027467" lon="13.47023069">
        <ele>746.00000</ele>
        <time>2024-02-08T13:18:17Z</time>
      </trkpt>
      <trkpt lat="42.93022823" lon="13.47021753">
        <ele>747.00000</ele>
        <time>2024-02-08T13:18:18Z</time>
      </trkpt>
      <trkpt lat="42.93018925" lon="13.47020630">
        <ele>747.00000</ele>
        <time>2024-02-08T13:18:19Z</time>
      </trkpt>
      <trkpt lat="42.93015740" lon="13.47019700">
        <ele>748.00000</ele>
        <time>2024-02-08T13:18:20Z</time>
      </trkpt>
      <trkpt lat="42.93011575" lon="13.47018577">
        <ele>748.00000</ele>
        <time>2024-02-08T13:18:21Z</time>
      </trkpt>
      <trkpt lat="42.93007484" lon="13.47017613">
        <ele>749.00000</ele>
        <time>2024-02-08T13:18:22Z</time>
      </trkpt>
      <trkpt lat="42.93002530" lon="13.47016397">
        <ele>749.00000</ele>
        <time>2024-02-08T13:18:23Z</time>
      </trkpt>
      <trkpt lat="42.92998541" lon="13.47015299">
        <ele>750.00000</ele>
        <time>2024-02-08T13:18:24Z</time>
      </trkpt>
      <trkpt lat="42.92994618" lon="13.47014419">
        <ele>750.00000</ele>
        <time>2024-02-08T13:18:25Z</time>
      </trkpt>
      <trkpt lat="42.92990829" lon="13.47013749">
        <ele>750.00000</ele>
        <time>2024-02-08T13:18:26Z</time>
      </trkpt>
      <trkpt lat="42.92986974" lon="13.47013112">
        <ele>751.00000</ele>
        <time>2024-02-08T13:18:27Z</time>
      </trkpt>
      <trkpt lat="42.92982959" lon="13.47012642">
        <ele>751.00000</ele>
        <time>2024-02-08T13:18:28Z</time>
      </trkpt>
      <trkpt lat="42.92978961" lon="13.47012181">
        <ele>752.00000</ele>
        <time>2024-02-08T13:18:29Z</time>
      </trkpt>
      <trkpt lat="42.92974753" lon="13.47012005">
        <ele>752.00000</ele>
        <time>2024-02-08T13:18:30Z</time>
      </trkpt>
      <trkpt lat="42.92970185" lon="13.47011905">
        <ele>752.00000</ele>
        <time>2024-02-08T13:18:31Z</time>
      </trkpt>
      <trkpt lat="42.92965357" lon="13.47011595">
        <ele>753.00000</ele>
        <time>2024-02-08T13:18:32Z</time>
      </trkpt>
      <trkpt lat="42.92960688" lon="13.47011284">
        <ele>753.00000</ele>
        <time>2024-02-08T13:18:33Z</time>
      </trkpt>
      <trkpt lat="42.92955843" lon="13.47011192">
        <ele>753.00000</ele>
        <time>2024-02-08T13:18:34Z</time>
      </trkpt>
      <trkpt lat="42.92951099" lon="13.47011201">
        <ele>754.00000</ele>
        <time>2024-02-08T13:18:35Z</time>
      </trkpt>
      <trkpt lat="42.92946296" lon="13.47011301">
        <ele>754.00000</ele>
        <time>2024-02-08T13:18:36Z</time>
      </trkpt>
      <trkpt lat="42.92941460" lon="13.47011385">
        <ele>754.00000</ele>
        <time>2024-02-08T13:18:37Z</time>
      </trkpt>
      <trkpt lat="42.92936079" lon="13.47011494">
        <ele>754.00000</ele>
        <time>2024-02-08T13:18:38Z</time>
      </trkpt>
      <trkpt lat="42.92930387" lon="13.47011452">
        <ele>754.00000</ele>
        <time>2024-02-08T13:18:39Z</time>
      </trkpt>
      <trkpt lat="42.92924772" lon="13.47011645">
        <ele>753.00000</ele>
        <time>2024-02-08T13:18:40Z</time>
      </trkpt>
      <trkpt lat="42.92919198" lon="13.47011620">
        <ele>753.00000</ele>
        <time>2024-02-08T13:18:41Z</time>
      </trkpt>
      <trkpt lat="42.92913531" lon="13.47011284">
        <ele>752.00000</ele>
        <time>2024-02-08T13:18:42Z</time>
      </trkpt>
      <trkpt lat="42.92907991" lon="13.47009792">
        <ele>751.00000</ele>
        <time>2024-02-08T13:18:43Z</time>
      </trkpt>
      <trkpt lat="42.92903917" lon="13.47007194">
        <ele>750.00000</ele>
        <time>2024-02-08T13:18:44Z</time>
      </trkpt>
      <trkpt lat="42.92899576" lon="13.47002752">
        <ele>749.00000</ele>
        <time>2024-02-08T13:18:45Z</time>
      </trkpt>
      <trkpt lat="42.92896365" lon="13.46997429">
        <ele>748.00000</ele>
        <time>2024-02-08T13:18:46Z</time>
      </trkpt>
      <trkpt lat="42.92894002" lon="13.46991235">
        <ele>749.00000</ele>
        <time>2024-02-08T13:18:47Z</time>
      </trkpt>
      <trkpt lat="42.92891864" lon="13.46983171">
        <ele>750.00000</ele>
        <time>2024-02-08T13:18:48Z</time>
      </trkpt>
      <trkpt lat="42.92890582" lon="13.46978050">
        <ele>751.00000</ele>
        <time>2024-02-08T13:18:49Z</time>
      </trkpt>
      <trkpt lat="42.92888964" lon="13.46971747">
        <ele>752.00000</ele>
        <time>2024-02-08T13:18:50Z</time>
      </trkpt>
      <trkpt lat="42.92887330" lon="13.46965813">
        <ele>753.00000</ele>
        <time>2024-02-08T13:18:51Z</time>
      </trkpt>
      <trkpt lat="42.92884413" lon="13.46958898">
        <ele>754.00000</ele>
        <time>2024-02-08T13:18:52Z</time>
      </trkpt>
      <trkpt lat="42.92882124" lon="13.46954413">
        <ele>755.00000</ele>
        <time>2024-02-08T13:18:53Z</time>
      </trkpt>
      <trkpt lat="42.92878964" lon="13.46949325">
        <ele>756.00000</ele>
        <time>2024-02-08T13:18:54Z</time>
      </trkpt>
      <trkpt lat="42.92875067" lon="13.46945034">
        <ele>757.00000</ele>
        <time>2024-02-08T13:18:55Z</time>
      </trkpt>
      <trkpt lat="42.92870549" lon="13.46941304">
        <ele>757.00000</ele>
        <time>2024-02-08T13:18:56Z</time>
      </trkpt>
      <trkpt lat="42.92865294" lon="13.46938856">
        <ele>757.00000</ele>
        <time>2024-02-08T13:18:57Z</time>
      </trkpt>
      <trkpt lat="42.92859384" lon="13.46937976">
        <ele>756.00000</ele>
        <time>2024-02-08T13:18:58Z</time>
      </trkpt>
      <trkpt lat="42.92853324" lon="13.46937624">
        <ele>756.00000</ele>
        <time>2024-02-08T13:18:59Z</time>
      </trkpt>
      <trkpt lat="42.92846669" lon="13.46937465">
        <ele>755.00000</ele>
        <time>2024-02-08T13:19:00Z</time>
      </trkpt>
      <trkpt lat="42.92839561" lon="13.46937582">
        <ele>754.00000</ele>
        <time>2024-02-08T13:19:01Z</time>
      </trkpt>
      <trkpt lat="42.92830391" lon="13.46937825">
        <ele>752.00000</ele>
        <time>2024-02-08T13:19:02Z</time>
      </trkpt>
      <trkpt lat="42.92822739" lon="13.46937775">
        <ele>751.00000</ele>
        <time>2024-02-08T13:19:03Z</time>
      </trkpt>
      <trkpt lat="42.92816536" lon="13.46937230">
        <ele>750.00000</ele>
        <time>2024-02-08T13:19:04Z</time>
      </trkpt>
      <trkpt lat="42.92808531" lon="13.46935713">
        <ele>749.00000</ele>
        <time>2024-02-08T13:19:05Z</time>
      </trkpt>
      <trkpt lat="42.92798448" lon="13.46933215">
        <ele>747.00000</ele>
        <time>2024-02-08T13:19:06Z</time>
      </trkpt>
      <trkpt lat="42.92789907" lon="13.46930860">
        <ele>746.00000</ele>
        <time>2024-02-08T13:19:07Z</time>
      </trkpt>
      <trkpt lat="42.92781382" lon="13.46927968">
        <ele>745.00000</ele>
        <time>2024-02-08T13:19:08Z</time>
      </trkpt>
      <trkpt lat="42.92774442" lon="13.46925336">
        <ele>744.00000</ele>
        <time>2024-02-08T13:19:09Z</time>
      </trkpt>
      <trkpt lat="42.92765440" lon="13.46922143">
        <ele>743.00000</ele>
        <time>2024-02-08T13:19:10Z</time>
      </trkpt>
      <trkpt lat="42.92754258" lon="13.46918597">
        <ele>741.00000</ele>
        <time>2024-02-08T13:19:11Z</time>
      </trkpt>
      <trkpt lat="42.92744728" lon="13.46915714">
        <ele>740.00000</ele>
        <time>2024-02-08T13:19:12Z</time>
      </trkpt>
      <trkpt lat="42.92735257" lon="13.46912856">
        <ele>740.00000</ele>
        <time>2024-02-08T13:19:13Z</time>
      </trkpt>
      <trkpt lat="42.92727763" lon="13.46910500">
        <ele>740.00000</ele>
        <time>2024-02-08T13:19:14Z</time>
      </trkpt>
      <trkpt lat="42.92718174" lon="13.46907701">
        <ele>740.00000</ele>
        <time>2024-02-08T13:19:15Z</time>
      </trkpt>
      <trkpt lat="42.92708225" lon="13.46905463">
        <ele>741.00000</ele>
        <time>2024-02-08T13:19:16Z</time>
      </trkpt>
      <trkpt lat="42.92696700" lon="13.46903870">
        <ele>742.00000</ele>
        <time>2024-02-08T13:19:17Z</time>
      </trkpt>
      <trkpt lat="42.92687078" lon="13.46903275">
        <ele>743.00000</ele>
        <time>2024-02-08T13:19:18Z</time>
      </trkpt>
      <trkpt lat="42.92679592" lon="13.46903141">
        <ele>744.00000</ele>
        <time>2024-02-08T13:19:19Z</time>
      </trkpt>
      <trkpt lat="42.92670205" lon="13.46903543">
        <ele>745.00000</ele>
        <time>2024-02-08T13:19:20Z</time>
      </trkpt>
      <trkpt lat="42.92660658" lon="13.46904918">
        <ele>745.00000</ele>
        <time>2024-02-08T13:19:21Z</time>
      </trkpt>
      <trkpt lat="42.92651203" lon="13.46906821">
        <ele>744.00000</ele>
        <time>2024-02-08T13:19:22Z</time>
      </trkpt>
      <trkpt lat="42.92642100" lon="13.46908682">
        <ele>744.00000</ele>
        <time>2024-02-08T13:19:23Z</time>
      </trkpt>
      <trkpt lat="42.92632847" lon="13.46909344">
        <ele>743.00000</ele>
        <time>2024-02-08T13:19:24Z</time>
      </trkpt>
      <trkpt lat="42.92623727" lon="13.46907550">
        <ele>742.00000</ele>
        <time>2024-02-08T13:19:25Z</time>
      </trkpt>
      <trkpt lat="42.92615186" lon="13.46903242">
        <ele>741.00000</ele>
        <time>2024-02-08T13:19:26Z</time>
      </trkpt>
      <trkpt lat="42.92605848" lon="13.46895388">
        <ele>740.00000</ele>
        <time>2024-02-08T13:19:27Z</time>
      </trkpt>
      <trkpt lat="42.92600685" lon="13.46888548">
        <ele>740.00000</ele>
        <time>2024-02-08T13:19:28Z</time>
      </trkpt>
      <trkpt lat="42.92594793" lon="13.46879672">
        <ele>739.00000</ele>
        <time>2024-02-08T13:19:29Z</time>
      </trkpt>
      <trkpt lat="42.92588984" lon="13.46870586">
        <ele>738.00000</ele>
        <time>2024-02-08T13:19:30Z</time>
      </trkpt>
      <trkpt lat="42.92582899" lon="13.46861718">
        <ele>737.00000</ele>
        <time>2024-02-08T13:19:31Z</time>
      </trkpt>
      <trkpt lat="42.92574550" lon="13.46852003">
        <ele>737.00000</ele>
        <time>2024-02-08T13:19:32Z</time>
      </trkpt>
      <trkpt lat="42.92566747" lon="13.46845054">
        <ele>738.00000</ele>
        <time>2024-02-08T13:19:33Z</time>
      </trkpt>
      <trkpt lat="42.92560259" lon="13.46840210">
        <ele>738.00000</ele>
        <time>2024-02-08T13:19:34Z</time>
      </trkpt>
      <trkpt lat="42.92552012" lon="13.46834770">
        <ele>738.00000</ele>
        <time>2024-02-08T13:19:35Z</time>
      </trkpt>
      <trkpt lat="42.92543697" lon="13.46829288">
        <ele>738.00000</ele>
        <time>2024-02-08T13:19:36Z</time>
      </trkpt>
      <trkpt lat="42.92533907" lon="13.46821887">
        <ele>738.00000</ele>
        <time>2024-02-08T13:19:37Z</time>
      </trkpt>
      <trkpt lat="42.92527645" lon="13.46816246">
        <ele>738.00000</ele>
        <time>2024-02-08T13:19:38Z</time>
      </trkpt>
      <trkpt lat="42.92519867" lon="13.46808694">
        <ele>738.00000</ele>
        <time>2024-02-08T13:19:39Z</time>
      </trkpt>
      <trkpt lat="42.92511963" lon="13.46801125">
        <ele>737.00000</ele>
        <time>2024-02-08T13:19:40Z</time>
      </trkpt>
      <trkpt lat="42.92502349" lon="13.46792483">
        <ele>737.00000</ele>
        <time>2024-02-08T13:19:41Z</time>
      </trkpt>
      <trkpt lat="42.92494344" lon="13.46785476">
        <ele>737.00000</ele>
        <time>2024-02-08T13:19:42Z</time>
      </trkpt>
      <trkpt lat="42.92487932" lon="13.46779810">
        <ele>737.00000</ele>
        <time>2024-02-08T13:19:43Z</time>
      </trkpt>
      <trkpt lat="42.92479952" lon="13.46772668">
        <ele>737.00000</ele>
        <time>2024-02-08T13:19:44Z</time>
      </trkpt>
      <trkpt lat="42.92472325" lon="13.46764647">
        <ele>736.00000</ele>
        <time>2024-02-08T13:19:45Z</time>
      </trkpt>
      <trkpt lat="42.92465326" lon="13.46755444">
        <ele>737.00000</ele>
        <time>2024-02-08T13:19:46Z</time>
      </trkpt>
      <trkpt lat="42.92457120" lon="13.46744036">
        <ele>737.00000</ele>
        <time>2024-02-08T13:19:47Z</time>
      </trkpt>
      <trkpt lat="42.92451621" lon="13.46736350">
        <ele>738.00000</ele>
        <time>2024-02-08T13:19:48Z</time>
      </trkpt>
      <trkpt lat="42.92444866" lon="13.46726375">
        <ele>740.00000</ele>
        <time>2024-02-08T13:19:49Z</time>
      </trkpt>
      <trkpt lat="42.92436593" lon="13.46714833">
        <ele>740.00000</ele>
        <time>2024-02-08T13:19:50Z</time>
      </trkpt>
      <trkpt lat="42.92430566" lon="13.46707700">
        <ele>741.00000</ele>
        <time>2024-02-08T13:19:51Z</time>
      </trkpt>
      <trkpt lat="42.92422385" lon="13.46699880">
        <ele>742.00000</ele>
        <time>2024-02-08T13:19:52Z</time>
      </trkpt>
      <trkpt lat="42.92413459" lon="13.46693443">
        <ele>743.00000</ele>
        <time>2024-02-08T13:19:53Z</time>
      </trkpt>
      <trkpt lat="42.92404004" lon="13.46688120">
        <ele>744.00000</ele>
        <time>2024-02-08T13:19:54Z</time>
      </trkpt>
      <trkpt lat="42.92392479" lon="13.46682479">
        <ele>744.00000</ele>
        <time>2024-02-08T13:19:55Z</time>
      </trkpt>
      <trkpt lat="42.92382521" lon="13.46678640">
        <ele>744.00000</ele>
        <time>2024-02-08T13:19:56Z</time>
      </trkpt>
      <trkpt lat="42.92372270" lon="13.46675254">
        <ele>744.00000</ele>
        <time>2024-02-08T13:19:57Z</time>
      </trkpt>
      <trkpt lat="42.92361868" lon="13.46672169">
        <ele>743.00000</ele>
        <time>2024-02-08T13:19:58Z</time>
      </trkpt>
      <trkpt lat="42.92353754" lon="13.46669621">
        <ele>742.00000</ele>
        <time>2024-02-08T13:19:59Z</time>
      </trkpt>
      <trkpt lat="42.92341584" lon="13.46665707">
        <ele>742.00000</ele>
        <time>2024-02-08T13:20:00Z</time>
      </trkpt>
      <trkpt lat="42.92331333" lon="13.46662513">
        <ele>741.00000</ele>
        <time>2024-02-08T13:20:01Z</time>
      </trkpt>
      <trkpt lat="42.92321199" lon="13.46659446">
        <ele>740.00000</ele>
        <time>2024-02-08T13:20:02Z</time>
      </trkpt>
      <trkpt lat="42.92312976" lon="13.46656931">
        <ele>739.00000</ele>
        <time>2024-02-08T13:20:03Z</time>
      </trkpt>
      <trkpt lat="42.92302533" lon="13.46653671">
        <ele>737.00000</ele>
        <time>2024-02-08T13:20:04Z</time>
      </trkpt>
      <trkpt lat="42.92290069" lon="13.46649421">
        <ele>736.00000</ele>
        <time>2024-02-08T13:20:05Z</time>
      </trkpt>
      <trkpt lat="42.92279709" lon="13.46645540">
        <ele>735.00000</ele>
        <time>2024-02-08T13:20:06Z</time>
      </trkpt>
      <trkpt lat="42.92269173" lon="13.46641332">
        <ele>735.00000</ele>
        <time>2024-02-08T13:20:07Z</time>
      </trkpt>
      <trkpt lat="42.92260782" lon="13.46637678">
        <ele>735.00000</ele>
        <time>2024-02-08T13:20:08Z</time>
      </trkpt>
      <trkpt lat="42.92250364" lon="13.46632322">
        <ele>735.00000</ele>
        <time>2024-02-08T13:20:09Z</time>
      </trkpt>
      <trkpt lat="42.92240104" lon="13.46626538">
        <ele>734.00000</ele>
        <time>2024-02-08T13:20:10Z</time>
      </trkpt>
      <trkpt lat="42.92227523" lon="13.46620168">
        <ele>733.00000</ele>
        <time>2024-02-08T13:20:11Z</time>
      </trkpt>
      <trkpt lat="42.92216970" lon="13.46615256">
        <ele>733.00000</ele>
        <time>2024-02-08T13:20:12Z</time>
      </trkpt>
      <trkpt lat="42.92206635" lon="13.46610688">
        <ele>733.00000</ele>
        <time>2024-02-08T13:20:13Z</time>
      </trkpt>
      <trkpt lat="42.92196527" lon="13.46606447">
        <ele>733.00000</ele>
        <time>2024-02-08T13:20:14Z</time>
      </trkpt>
      <trkpt lat="42.92186401" lon="13.46602700">
        <ele>734.00000</ele>
        <time>2024-02-08T13:20:15Z</time>
      </trkpt>
      <trkpt lat="42.92176578" lon="13.46598467">
        <ele>735.00000</ele>
        <time>2024-02-08T13:20:16Z</time>
      </trkpt>
      <trkpt lat="42.92167358" lon="13.46592508">
        <ele>736.00000</ele>
        <time>2024-02-08T13:20:17Z</time>
      </trkpt>
      <trkpt lat="42.92159127" lon="13.46584872">
        <ele>736.00000</ele>
        <time>2024-02-08T13:20:18Z</time>
      </trkpt>
      <trkpt lat="42.92151407" lon="13.46576021">
        <ele>737.00000</ele>
        <time>2024-02-08T13:20:19Z</time>
      </trkpt>
      <trkpt lat="42.92143897" lon="13.46567085">
        <ele>738.00000</ele>
        <time>2024-02-08T13:20:20Z</time>
      </trkpt>
      <trkpt lat="42.92136571" lon="13.46558259">
        <ele>738.00000</ele>
        <time>2024-02-08T13:20:21Z</time>
      </trkpt>
      <trkpt lat="42.92128968" lon="13.46549995">
        <ele>738.00000</ele>
        <time>2024-02-08T13:20:22Z</time>
      </trkpt>
      <trkpt lat="42.92121148" lon="13.46542451">
        <ele>738.00000</ele>
        <time>2024-02-08T13:20:23Z</time>
      </trkpt>
      <trkpt lat="42.92112791" lon="13.46535352">
        <ele>740.00000</ele>
        <time>2024-02-08T13:20:24Z</time>
      </trkpt>
      <trkpt lat="42.92103781" lon="13.46529442">
        <ele>740.00000</ele>
        <time>2024-02-08T13:20:25Z</time>
      </trkpt>
      <trkpt lat="42.92094351" lon="13.46524363">
        <ele>740.00000</ele>
        <time>2024-02-08T13:20:26Z</time>
      </trkpt>
      <trkpt lat="42.92084779" lon="13.46519459">
        <ele>740.00000</ele>
        <time>2024-02-08T13:20:27Z</time>
      </trkpt>
      <trkpt lat="42.92075048" lon="13.46514430">
        <ele>740.00000</ele>
        <time>2024-02-08T13:20:28Z</time>
      </trkpt>
      <trkpt lat="42.92065425" lon="13.46508622">
        <ele>739.00000</ele>
        <time>2024-02-08T13:20:29Z</time>
      </trkpt>
      <trkpt lat="42.92056054" lon="13.46501598">
        <ele>738.00000</ele>
        <time>2024-02-08T13:20:30Z</time>
      </trkpt>
      <trkpt lat="42.92047438" lon="13.46493710">
        <ele>737.00000</ele>
        <time>2024-02-08T13:20:31Z</time>
      </trkpt>
      <trkpt lat="42.92039240" lon="13.46485907">
        <ele>737.00000</ele>
        <time>2024-02-08T13:20:32Z</time>
      </trkpt>
      <trkpt lat="42.92030255" lon="13.46479151">
        <ele>736.00000</ele>
        <time>2024-02-08T13:20:33Z</time>
      </trkpt>
      <trkpt lat="42.92020758" lon="13.46473854">
        <ele>736.00000</ele>
        <time>2024-02-08T13:20:34Z</time>
      </trkpt>
      <trkpt lat="42.92010901" lon="13.46469964">
        <ele>736.00000</ele>
        <time>2024-02-08T13:20:35Z</time>
      </trkpt>
      <trkpt lat="42.92001035" lon="13.46467735">
        <ele>735.00000</ele>
        <time>2024-02-08T13:20:36Z</time>
      </trkpt>
      <trkpt lat="42.91991338" lon="13.46466964">
        <ele>735.00000</ele>
        <time>2024-02-08T13:20:37Z</time>
      </trkpt>
      <trkpt lat="42.91981657" lon="13.46467215">
        <ele>735.00000</ele>
        <time>2024-02-08T13:20:38Z</time>
      </trkpt>
      <trkpt lat="42.91972059" lon="13.46468271">
        <ele>735.00000</ele>
        <time>2024-02-08T13:20:39Z</time>
      </trkpt>
      <trkpt lat="42.91962529" lon="13.46469763">
        <ele>734.00000</ele>
        <time>2024-02-08T13:20:40Z</time>
      </trkpt>
      <trkpt lat="42.91952789" lon="13.46471515">
        <ele>734.00000</ele>
        <time>2024-02-08T13:20:41Z</time>
      </trkpt>
      <trkpt lat="42.91943100" lon="13.46473552">
        <ele>734.00000</ele>
        <time>2024-02-08T13:20:42Z</time>
      </trkpt>
      <trkpt lat="42.91933444" lon="13.46475454">
        <ele>733.00000</ele>
        <time>2024-02-08T13:20:43Z</time>
      </trkpt>
      <trkpt lat="42.91923545" lon="13.46476754">
        <ele>732.00000</ele>
        <time>2024-02-08T13:20:44Z</time>
      </trkpt>
      <trkpt lat="42.91913428" lon="13.46477491">
        <ele>731.00000</ele>
        <time>2024-02-08T13:20:45Z</time>
      </trkpt>
      <trkpt lat="42.91903160" lon="13.46477483">
        <ele>732.00000</ele>
        <time>2024-02-08T13:20:46Z</time>
      </trkpt>
      <trkpt lat="42.91893093" lon="13.46477684">
        <ele>732.00000</ele>
        <time>2024-02-08T13:20:47Z</time>
      </trkpt>
      <trkpt lat="42.91883094" lon="13.46478145">
        <ele>732.00000</ele>
        <time>2024-02-08T13:20:48Z</time>
      </trkpt>
      <trkpt lat="42.91873304" lon="13.46478279">
        <ele>732.00000</ele>
        <time>2024-02-08T13:20:49Z</time>
      </trkpt>
      <trkpt lat="42.91863304" lon="13.46479042">
        <ele>732.00000</ele>
        <time>2024-02-08T13:20:50Z</time>
      </trkpt>
      <trkpt lat="42.91853313" lon="13.46480911">
        <ele>732.00000</ele>
        <time>2024-02-08T13:20:51Z</time>
      </trkpt>
      <trkpt lat="42.91843674" lon="13.46483518">
        <ele>732.00000</ele>
        <time>2024-02-08T13:20:52Z</time>
      </trkpt>
      <trkpt lat="42.91834319" lon="13.46486510">
        <ele>732.00000</ele>
        <time>2024-02-08T13:20:53Z</time>
      </trkpt>
      <trkpt lat="42.91825116" lon="13.46490408">
        <ele>733.00000</ele>
        <time>2024-02-08T13:20:54Z</time>
      </trkpt>
      <trkpt lat="42.91816424" lon="13.46495781">
        <ele>733.00000</ele>
        <time>2024-02-08T13:20:55Z</time>
      </trkpt>
      <trkpt lat="42.91808277" lon="13.46502210">
        <ele>734.00000</ele>
        <time>2024-02-08T13:20:56Z</time>
      </trkpt>
      <trkpt lat="42.91800138" lon="13.46508999">
        <ele>733.00000</ele>
        <time>2024-02-08T13:20:57Z</time>
      </trkpt>
      <trkpt lat="42.91791857" lon="13.46515302">
        <ele>732.00000</ele>
        <time>2024-02-08T13:20:58Z</time>
      </trkpt>
      <trkpt lat="42.91783140" lon="13.46520599">
        <ele>732.00000</ele>
        <time>2024-02-08T13:20:59Z</time>
      </trkpt>
      <trkpt lat="42.91773567" lon="13.46523743">
        <ele>731.00000</ele>
        <time>2024-02-08T13:21:00Z</time>
      </trkpt>
      <trkpt lat="42.91763601" lon="13.46524438">
        <ele>731.00000</ele>
        <time>2024-02-08T13:21:01Z</time>
      </trkpt>
      <trkpt lat="42.91753761" lon="13.46523173">
        <ele>731.00000</ele>
        <time>2024-02-08T13:21:02Z</time>
      </trkpt>
      <trkpt lat="42.91744004" lon="13.46521119">
        <ele>732.00000</ele>
        <time>2024-02-08T13:21:03Z</time>
      </trkpt>
      <trkpt lat="42.91734248" lon="13.46518940">
        <ele>732.00000</ele>
        <time>2024-02-08T13:21:04Z</time>
      </trkpt>
      <trkpt lat="42.91724324" lon="13.46517188">
        <ele>733.00000</ele>
        <time>2024-02-08T13:21:05Z</time>
      </trkpt>
      <trkpt lat="42.91714425" lon="13.46515621">
        <ele>733.00000</ele>
        <time>2024-02-08T13:21:06Z</time>
      </trkpt>
      <trkpt lat="42.91704358" lon="13.46514464">
        <ele>734.00000</ele>
        <time>2024-02-08T13:21:07Z</time>
      </trkpt>
      <trkpt lat="42.91694291" lon="13.46513886">
        <ele>734.00000</ele>
        <time>2024-02-08T13:21:08Z</time>
      </trkpt>
      <trkpt lat="42.91683965" lon="13.46514288">
        <ele>735.00000</ele>
        <time>2024-02-08T13:21:09Z</time>
      </trkpt>
      <trkpt lat="42.91673244" lon="13.46515294">
        <ele>736.00000</ele>
        <time>2024-02-08T13:21:10Z</time>
      </trkpt>
      <trkpt lat="42.91662474" lon="13.46517213">
        <ele>737.00000</ele>
        <time>2024-02-08T13:21:11Z</time>
      </trkpt>
      <trkpt lat="42.91651912" lon="13.46519887">
        <ele>738.00000</ele>
        <time>2024-02-08T13:21:12Z</time>
      </trkpt>
      <trkpt lat="42.91641787" lon="13.46523357">
        <ele>738.00000</ele>
        <time>2024-02-08T13:21:13Z</time>
      </trkpt>
      <trkpt lat="42.91631729" lon="13.46527707">
        <ele>738.00000</ele>
        <time>2024-02-08T13:21:14Z</time>
      </trkpt>
      <trkpt lat="42.91622106" lon="13.46532594">
        <ele>736.00000</ele>
        <time>2024-02-08T13:21:15Z</time>
      </trkpt>
      <trkpt lat="42.91612786" lon="13.46538436">
        <ele>735.00000</ele>
        <time>2024-02-08T13:21:16Z</time>
      </trkpt>
      <trkpt lat="42.91603423" lon="13.46544882">
        <ele>732.00000</ele>
        <time>2024-02-08T13:21:17Z</time>
      </trkpt>
      <trkpt lat="42.91593968" lon="13.46551688">
        <ele>730.00000</ele>
        <time>2024-02-08T13:21:18Z</time>
      </trkpt>
      <trkpt lat="42.91584136" lon="13.46558536">
        <ele>729.00000</ele>
        <time>2024-02-08T13:21:19Z</time>
      </trkpt>
      <trkpt lat="42.91574162" lon="13.46565417">
        <ele>728.00000</ele>
        <time>2024-02-08T13:21:20Z</time>
      </trkpt>
      <trkpt lat="42.91564347" lon="13.46572374">
        <ele>727.00000</ele>
        <time>2024-02-08T13:21:21Z</time>
      </trkpt>
      <trkpt lat="42.91554557" lon="13.46578904">
        <ele>727.00000</ele>
        <time>2024-02-08T13:21:22Z</time>
      </trkpt>
      <trkpt lat="42.91544842" lon="13.46585216">
        <ele>728.00000</ele>
        <time>2024-02-08T13:21:23Z</time>
      </trkpt>
      <trkpt lat="42.91535178" lon="13.46591686">
        <ele>729.00000</ele>
        <time>2024-02-08T13:21:24Z</time>
      </trkpt>
      <trkpt lat="42.91525689" lon="13.46598627">
        <ele>730.00000</ele>
        <time>2024-02-08T13:21:25Z</time>
      </trkpt>
      <trkpt lat="42.91516193" lon="13.46606883">
        <ele>730.00000</ele>
        <time>2024-02-08T13:21:26Z</time>
      </trkpt>
      <trkpt lat="42.91507232" lon="13.46616170">
        <ele>730.00000</ele>
        <time>2024-02-08T13:21:27Z</time>
      </trkpt>
      <trkpt lat="42.91498557" lon="13.46626262">
        <ele>729.00000</ele>
        <time>2024-02-08T13:21:28Z</time>
      </trkpt>
      <trkpt lat="42.91490645" lon="13.46636848">
        <ele>726.00000</ele>
        <time>2024-02-08T13:21:29Z</time>
      </trkpt>
      <trkpt lat="42.91483352" lon="13.46647946">
        <ele>723.00000</ele>
        <time>2024-02-08T13:21:30Z</time>
      </trkpt>
      <trkpt lat="42.91476228" lon="13.46658197">
        <ele>721.00000</ele>
        <time>2024-02-08T13:21:31Z</time>
      </trkpt>
      <trkpt lat="42.91468257" lon="13.46665908">
        <ele>719.00000</ele>
        <time>2024-02-08T13:21:32Z</time>
      </trkpt>
      <trkpt lat="42.91459674" lon="13.46667928">
        <ele>718.00000</ele>
        <time>2024-02-08T13:21:33Z</time>
      </trkpt>
      <trkpt lat="42.91451593" lon="13.46662446">
        <ele>718.00000</ele>
        <time>2024-02-08T13:21:34Z</time>
      </trkpt>
      <trkpt lat="42.91444259" lon="13.46653168">
        <ele>718.00000</ele>
        <time>2024-02-08T13:21:35Z</time>
      </trkpt>
      <trkpt lat="42.91437453" lon="13.46641383">
        <ele>719.00000</ele>
        <time>2024-02-08T13:21:36Z</time>
      </trkpt>
      <trkpt lat="42.91429976" lon="13.46628852">
        <ele>719.00000</ele>
        <time>2024-02-08T13:21:37Z</time>
      </trkpt>
      <trkpt lat="42.91421687" lon="13.46617612">
        <ele>718.00000</ele>
        <time>2024-02-08T13:21:38Z</time>
      </trkpt>
      <trkpt lat="42.91411872" lon="13.46608048">
        <ele>718.00000</ele>
        <time>2024-02-08T13:21:39Z</time>
      </trkpt>
      <trkpt lat="42.91401662" lon="13.46599959">
        <ele>718.00000</ele>
        <time>2024-02-08T13:21:40Z</time>
      </trkpt>
      <trkpt lat="42.91391319" lon="13.46592650">
        <ele>718.00000</ele>
        <time>2024-02-08T13:21:41Z</time>
      </trkpt>
      <trkpt lat="42.91380875" lon="13.46587034">
        <ele>718.00000</ele>
        <time>2024-02-08T13:21:42Z</time>
      </trkpt>
      <trkpt lat="42.91370205" lon="13.46583916">
        <ele>717.00000</ele>
        <time>2024-02-08T13:21:43Z</time>
      </trkpt>
      <trkpt lat="42.91359468" lon="13.46582508">
        <ele>715.00000</ele>
        <time>2024-02-08T13:21:44Z</time>
      </trkpt>
      <trkpt lat="42.91348974" lon="13.46582894">
        <ele>715.00000</ele>
        <time>2024-02-08T13:21:45Z</time>
      </trkpt>
      <trkpt lat="42.91338832" lon="13.46584444">
        <ele>715.00000</ele>
        <time>2024-02-08T13:21:46Z</time>
      </trkpt>
      <trkpt lat="42.91328991" lon="13.46587068">
        <ele>715.00000</ele>
        <time>2024-02-08T13:21:47Z</time>
      </trkpt>
      <trkpt lat="42.91319620" lon="13.46590647">
        <ele>715.00000</ele>
        <time>2024-02-08T13:21:48Z</time>
      </trkpt>
      <trkpt lat="42.91310761" lon="13.46594913">
        <ele>715.00000</ele>
        <time>2024-02-08T13:21:49Z</time>
      </trkpt>
      <trkpt lat="42.91302144" lon="13.46599557">
        <ele>716.00000</ele>
        <time>2024-02-08T13:21:50Z</time>
      </trkpt>
      <trkpt lat="42.91293879" lon="13.46604569">
        <ele>717.00000</ele>
        <time>2024-02-08T13:21:51Z</time>
      </trkpt>
      <trkpt lat="42.91286285" lon="13.46610143">
        <ele>717.00000</ele>
        <time>2024-02-08T13:21:52Z</time>
      </trkpt>
      <trkpt lat="42.91279094" lon="13.46615399">
        <ele>718.00000</ele>
        <time>2024-02-08T13:21:53Z</time>
      </trkpt>
      <trkpt lat="42.91271936" lon="13.46620730">
        <ele>719.00000</ele>
        <time>2024-02-08T13:21:54Z</time>
      </trkpt>
      <trkpt lat="42.91264778" lon="13.46625608">
        <ele>721.00000</ele>
        <time>2024-02-08T13:21:55Z</time>
      </trkpt>
      <trkpt lat="42.91257896" lon="13.46629966">
        <ele>722.00000</ele>
        <time>2024-02-08T13:21:56Z</time>
      </trkpt>
      <trkpt lat="42.91251551" lon="13.46634132">
        <ele>724.00000</ele>
        <time>2024-02-08T13:21:57Z</time>
      </trkpt>
      <trkpt lat="42.91245600" lon="13.46638374">
        <ele>726.00000</ele>
        <time>2024-02-08T13:21:58Z</time>
      </trkpt>
      <trkpt lat="42.91239816" lon="13.46642506">
        <ele>727.00000</ele>
        <time>2024-02-08T13:21:59Z</time>
      </trkpt>
      <trkpt lat="42.91234133" lon="13.46646479">
        <ele>727.00000</ele>
        <time>2024-02-08T13:22:00Z</time>
      </trkpt>
      <trkpt lat="42.91228794" lon="13.46650636">
        <ele>728.00000</ele>
        <time>2024-02-08T13:22:01Z</time>
      </trkpt>
      <trkpt lat="42.91223287" lon="13.46654643">
        <ele>728.00000</ele>
        <time>2024-02-08T13:22:02Z</time>
      </trkpt>
      <trkpt lat="42.91217923" lon="13.46658507">
        <ele>728.00000</ele>
        <time>2024-02-08T13:22:03Z</time>
      </trkpt>
      <trkpt lat="42.91212793" lon="13.46662119">
        <ele>728.00000</ele>
        <time>2024-02-08T13:22:04Z</time>
      </trkpt>
      <trkpt lat="42.91207680" lon="13.46665598">
        <ele>728.00000</ele>
        <time>2024-02-08T13:22:05Z</time>
      </trkpt>
      <trkpt lat="42.91202500" lon="13.46669403">
        <ele>728.00000</ele>
        <time>2024-02-08T13:22:06Z</time>
      </trkpt>
      <trkpt lat="42.91197219" lon="13.46673217">
        <ele>728.00000</ele>
        <time>2024-02-08T13:22:07Z</time>
      </trkpt>
      <trkpt lat="42.91192199" lon="13.46676746">
        <ele>728.00000</ele>
        <time>2024-02-08T13:22:08Z</time>
      </trkpt>
      <trkpt lat="42.91187295" lon="13.46680535">
        <ele>728.00000</ele>
        <time>2024-02-08T13:22:09Z</time>
      </trkpt>
      <trkpt lat="42.91182191" lon="13.46684583">
        <ele>728.00000</ele>
        <time>2024-02-08T13:22:10Z</time>
      </trkpt>
      <trkpt lat="42.91177120" lon="13.46688908">
        <ele>729.00000</ele>
        <time>2024-02-08T13:22:11Z</time>
      </trkpt>
      <trkpt lat="42.91171889" lon="13.46693191">
        <ele>729.00000</ele>
        <time>2024-02-08T13:22:12Z</time>
      </trkpt>
      <trkpt lat="42.91167153" lon="13.46697960">
        <ele>730.00000</ele>
        <time>2024-02-08T13:22:13Z</time>
      </trkpt>
      <trkpt lat="42.91163289" lon="13.46703794">
        <ele>729.00000</ele>
        <time>2024-02-08T13:22:14Z</time>
      </trkpt>
      <trkpt lat="42.91159518" lon="13.46709804">
        <ele>729.00000</ele>
        <time>2024-02-08T13:22:15Z</time>
      </trkpt>
      <trkpt lat="42.91156115" lon="13.46716057">
        <ele>729.00000</ele>
        <time>2024-02-08T13:22:16Z</time>
      </trkpt>
      <trkpt lat="42.91152561" lon="13.46722201">
        <ele>729.00000</ele>
        <time>2024-02-08T13:22:17Z</time>
      </trkpt>
      <trkpt lat="42.91148688" lon="13.46728295">
        <ele>729.00000</ele>
        <time>2024-02-08T13:22:18Z</time>
      </trkpt>
      <trkpt lat="42.91144724" lon="13.46734371">
        <ele>730.00000</ele>
        <time>2024-02-08T13:22:19Z</time>
      </trkpt>
      <trkpt lat="42.91140742" lon="13.46740373">
        <ele>731.00000</ele>
        <time>2024-02-08T13:22:20Z</time>
      </trkpt>
      <trkpt lat="42.91137146" lon="13.46746919">
        <ele>731.00000</ele>
        <time>2024-02-08T13:22:21Z</time>
      </trkpt>
      <trkpt lat="42.91133483" lon="13.46753340">
        <ele>731.00000</ele>
        <time>2024-02-08T13:22:22Z</time>
      </trkpt>
      <trkpt lat="42.91129720" lon="13.46759961">
        <ele>731.00000</ele>
        <time>2024-02-08T13:22:23Z</time>
      </trkpt>
      <trkpt lat="42.91125671" lon="13.46766734">
        <ele>732.00000</ele>
        <time>2024-02-08T13:22:24Z</time>
      </trkpt>
      <trkpt lat="42.91121916" lon="13.46773196">
        <ele>732.00000</ele>
        <time>2024-02-08T13:22:25Z</time>
      </trkpt>
      <trkpt lat="42.91118295" lon="13.46779684">
        <ele>732.00000</ele>
        <time>2024-02-08T13:22:26Z</time>
      </trkpt>
      <trkpt lat="42.91114599" lon="13.46786482">
        <ele>732.00000</ele>
        <time>2024-02-08T13:22:27Z</time>
      </trkpt>
      <trkpt lat="42.91111380" lon="13.46793439">
        <ele>732.00000</ele>
        <time>2024-02-08T13:22:28Z</time>
      </trkpt>
      <trkpt lat="42.91108782" lon="13.46800832">
        <ele>732.00000</ele>
        <time>2024-02-08T13:22:29Z</time>
      </trkpt>
      <trkpt lat="42.91107466" lon="13.46808744">
        <ele>732.00000</ele>
        <time>2024-02-08T13:22:30Z</time>
      </trkpt>
      <trkpt lat="42.91107223" lon="13.46817034">
        <ele>731.00000</ele>
        <time>2024-02-08T13:22:31Z</time>
      </trkpt>
      <trkpt lat="42.91108136" lon="13.46825600">
        <ele>731.00000</ele>
        <time>2024-02-08T13:22:32Z</time>
      </trkpt>
      <trkpt lat="42.91110064" lon="13.46834401">
        <ele>731.00000</ele>
        <time>2024-02-08T13:22:33Z</time>
      </trkpt>
      <trkpt lat="42.91112629" lon="13.46843311">
        <ele>730.00000</ele>
        <time>2024-02-08T13:22:34Z</time>
      </trkpt>
      <trkpt lat="42.91115613" lon="13.46852347">
        <ele>730.00000</ele>
        <time>2024-02-08T13:22:35Z</time>
      </trkpt>
      <trkpt lat="42.91117977" lon="13.46861760">
        <ele>729.00000</ele>
        <time>2024-02-08T13:22:36Z</time>
      </trkpt>
      <trkpt lat="42.91118689" lon="13.46871684">
        <ele>729.00000</ele>
        <time>2024-02-08T13:22:37Z</time>
      </trkpt>
      <trkpt lat="42.91117424" lon="13.46881549">
        <ele>729.00000</ele>
        <time>2024-02-08T13:22:38Z</time>
      </trkpt>
      <trkpt lat="42.91114985" lon="13.46891323">
        <ele>729.00000</ele>
        <time>2024-02-08T13:22:39Z</time>
      </trkpt>
      <trkpt lat="42.91111447" lon="13.46900409">
        <ele>729.00000</ele>
        <time>2024-02-08T13:22:40Z</time>
      </trkpt>
      <trkpt lat="42.91107273" lon="13.46908556">
        <ele>729.00000</ele>
        <time>2024-02-08T13:22:41Z</time>
      </trkpt>
      <trkpt lat="42.91103334" lon="13.46916678">
        <ele>730.00000</ele>
        <time>2024-02-08T13:22:42Z</time>
      </trkpt>
      <trkpt lat="42.91099335" lon="13.46924750">
        <ele>732.00000</ele>
        <time>2024-02-08T13:22:43Z</time>
      </trkpt>
      <trkpt lat="42.91095128" lon="13.46933056">
        <ele>733.00000</ele>
        <time>2024-02-08T13:22:44Z</time>
      </trkpt>
      <trkpt lat="42.91091146" lon="13.46941153">
        <ele>734.00000</ele>
        <time>2024-02-08T13:22:45Z</time>
      </trkpt>
      <trkpt lat="42.91087064" lon="13.46949141">
        <ele>736.00000</ele>
        <time>2024-02-08T13:22:46Z</time>
      </trkpt>
      <trkpt lat="42.91082815" lon="13.46956995">
        <ele>737.00000</ele>
        <time>2024-02-08T13:22:47Z</time>
      </trkpt>
      <trkpt lat="42.91078347" lon="13.46965050">
        <ele>737.00000</ele>
        <time>2024-02-08T13:22:48Z</time>
      </trkpt>
      <trkpt lat="42.91073704" lon="13.46972669">
        <ele>737.00000</ele>
        <time>2024-02-08T13:22:49Z</time>
      </trkpt>
      <trkpt lat="42.91069043" lon="13.46980154">
        <ele>737.00000</ele>
        <time>2024-02-08T13:22:50Z</time>
      </trkpt>
      <trkpt lat="42.91064190" lon="13.46987790">
        <ele>736.00000</ele>
        <time>2024-02-08T13:22:51Z</time>
      </trkpt>
      <trkpt lat="42.91059102" lon="13.46995392">
        <ele>736.00000</ele>
        <time>2024-02-08T13:22:52Z</time>
      </trkpt>
      <trkpt lat="42.91054157" lon="13.47003154">
        <ele>736.00000</ele>
        <time>2024-02-08T13:22:53Z</time>
      </trkpt>
      <trkpt lat="42.91049078" lon="13.47011310">
        <ele>736.00000</ele>
        <time>2024-02-08T13:22:54Z</time>
      </trkpt>
      <trkpt lat="42.91043772" lon="13.47019423">
        <ele>736.00000</ele>
        <time>2024-02-08T13:22:55Z</time>
      </trkpt>
      <trkpt lat="42.91038198" lon="13.47027411">
        <ele>735.00000</ele>
        <time>2024-02-08T13:22:56Z</time>
      </trkpt>
      <trkpt lat="42.91032599" lon="13.47035533">
        <ele>735.00000</ele>
        <time>2024-02-08T13:22:57Z</time>
      </trkpt>
      <trkpt lat="42.91027318" lon="13.47043898">
        <ele>734.00000</ele>
        <time>2024-02-08T13:22:58Z</time>
      </trkpt>
      <trkpt lat="42.91021786" lon="13.47052280">
        <ele>734.00000</ele>
        <time>2024-02-08T13:22:59Z</time>
      </trkpt>
      <trkpt lat="42.91016397" lon="13.47060662">
        <ele>733.00000</ele>
        <time>2024-02-08T13:23:00Z</time>
      </trkpt>
      <trkpt lat="42.91011024" lon="13.47068851">
        <ele>732.00000</ele>
        <time>2024-02-08T13:23:01Z</time>
      </trkpt>
      <trkpt lat="42.91005366" lon="13.47076722">
        <ele>731.00000</ele>
        <time>2024-02-08T13:23:02Z</time>
      </trkpt>
      <trkpt lat="42.90998660" lon="13.47083562">
        <ele>731.00000</ele>
        <time>2024-02-08T13:23:03Z</time>
      </trkpt>
      <trkpt lat="42.90991242" lon="13.47089278">
        <ele>730.00000</ele>
        <time>2024-02-08T13:23:04Z</time>
      </trkpt>
      <trkpt lat="42.90983187" lon="13.47093620">
        <ele>730.00000</ele>
        <time>2024-02-08T13:23:05Z</time>
      </trkpt>
      <trkpt lat="42.90974604" lon="13.47096855">
        <ele>730.00000</ele>
        <time>2024-02-08T13:23:06Z</time>
      </trkpt>
      <trkpt lat="42.90966474" lon="13.47099428">
        <ele>730.00000</ele>
        <time>2024-02-08T13:23:07Z</time>
      </trkpt>
      <trkpt lat="42.90958285" lon="13.47101490">
        <ele>730.00000</ele>
        <time>2024-02-08T13:23:08Z</time>
      </trkpt>
      <trkpt lat="42.90949953" lon="13.47103703">
        <ele>730.00000</ele>
        <time>2024-02-08T13:23:09Z</time>
      </trkpt>
      <trkpt lat="42.90941705" lon="13.47106218">
        <ele>730.00000</ele>
        <time>2024-02-08T13:23:10Z</time>
      </trkpt>
      <trkpt lat="42.90933298" lon="13.47108707">
        <ele>730.00000</ele>
        <time>2024-02-08T13:23:11Z</time>
      </trkpt>
      <trkpt lat="42.90924808" lon="13.47111322">
        <ele>731.00000</ele>
        <time>2024-02-08T13:23:12Z</time>
      </trkpt>
      <trkpt lat="42.90916426" lon="13.47113946">
        <ele>731.00000</ele>
        <time>2024-02-08T13:23:13Z</time>
      </trkpt>
      <trkpt lat="42.90908044" lon="13.47116553">
        <ele>731.00000</ele>
        <time>2024-02-08T13:23:14Z</time>
      </trkpt>
      <trkpt lat="42.90899829" lon="13.47119252">
        <ele>731.00000</ele>
        <time>2024-02-08T13:23:15Z</time>
      </trkpt>
      <trkpt lat="42.90891699" lon="13.47122169">
        <ele>731.00000</ele>
        <time>2024-02-08T13:23:16Z</time>
      </trkpt>
      <trkpt lat="42.90883468" lon="13.47125463">
        <ele>730.00000</ele>
        <time>2024-02-08T13:23:17Z</time>
      </trkpt>
      <trkpt lat="42.90875195" lon="13.47127835">
        <ele>728.00000</ele>
        <time>2024-02-08T13:23:18Z</time>
      </trkpt>
      <trkpt lat="42.90867484" lon="13.47126779">
        <ele>727.00000</ele>
        <time>2024-02-08T13:23:19Z</time>
      </trkpt>
      <trkpt lat="42.90861130" lon="13.47121892">
        <ele>727.00000</ele>
        <time>2024-02-08T13:23:20Z</time>
      </trkpt>
      <trkpt lat="42.90856763" lon="13.47113418">
        <ele>726.00000</ele>
        <time>2024-02-08T13:23:21Z</time>
      </trkpt>
      <trkpt lat="42.90854190" lon="13.47102488">
        <ele>725.00000</ele>
        <time>2024-02-08T13:23:22Z</time>
      </trkpt>
      <trkpt lat="42.90854358" lon="13.47089261">
        <ele>725.00000</ele>
        <time>2024-02-08T13:23:23Z</time>
      </trkpt>
      <trkpt lat="42.90855757" lon="13.47075230">
        <ele>726.00000</ele>
        <time>2024-02-08T13:23:24Z</time>
      </trkpt>
      <trkpt lat="42.90857736" lon="13.47060788">
        <ele>727.00000</ele>
        <time>2024-02-08T13:23:25Z</time>
      </trkpt>
      <trkpt lat="42.90858280" lon="13.47045248">
        <ele>727.00000</ele>
        <time>2024-02-08T13:23:26Z</time>
      </trkpt>
      <trkpt lat="42.90857358" lon="13.47030538">
        <ele>726.00000</ele>
        <time>2024-02-08T13:23:27Z</time>
      </trkpt>
      <trkpt lat="42.90855422" lon="13.47015459">
        <ele>726.00000</ele>
        <time>2024-02-08T13:23:28Z</time>
      </trkpt>
      <trkpt lat="42.90853008" lon="13.47000698">
        <ele>725.00000</ele>
        <time>2024-02-08T13:23:29Z</time>
      </trkpt>
      <trkpt lat="42.90849848" lon="13.46986273">
        <ele>725.00000</ele>
        <time>2024-02-08T13:23:30Z</time>
      </trkpt>
      <trkpt lat="42.90845674" lon="13.46972795">
        <ele>725.00000</ele>
        <time>2024-02-08T13:23:31Z</time>
      </trkpt>
      <trkpt lat="42.90839698" lon="13.46960783">
        <ele>725.00000</ele>
        <time>2024-02-08T13:23:32Z</time>
      </trkpt>
      <trkpt lat="42.90831282" lon="13.46951220">
        <ele>724.00000</ele>
        <time>2024-02-08T13:23:33Z</time>
      </trkpt>
      <trkpt lat="42.90820947" lon="13.46943743">
        <ele>721.00000</ele>
        <time>2024-02-08T13:23:34Z</time>
      </trkpt>
      <trkpt lat="42.90810219" lon="13.46937314">
        <ele>718.00000</ele>
        <time>2024-02-08T13:23:35Z</time>
      </trkpt>
      <trkpt lat="42.90799079" lon="13.46931003">
        <ele>715.00000</ele>
        <time>2024-02-08T13:23:36Z</time>
      </trkpt>
      <trkpt lat="42.90787596" lon="13.46923819">
        <ele>713.00000</ele>
        <time>2024-02-08T13:23:37Z</time>
      </trkpt>
      <trkpt lat="42.90777177" lon="13.46912906">
        <ele>712.00000</ele>
        <time>2024-02-08T13:23:38Z</time>
      </trkpt>
      <trkpt lat="42.90770312" lon="13.46896612">
        <ele>712.00000</ele>
        <time>2024-02-08T13:23:39Z</time>
      </trkpt>
      <trkpt lat="42.90767529" lon="13.46878783">
        <ele>713.00000</ele>
        <time>2024-02-08T13:23:40Z</time>
      </trkpt>
      <trkpt lat="42.90764177" lon="13.46861064">
        <ele>713.00000</ele>
        <time>2024-02-08T13:23:41Z</time>
      </trkpt>
      <trkpt lat="42.90756817" lon="13.46847720">
        <ele>711.00000</ele>
        <time>2024-02-08T13:23:42Z</time>
      </trkpt>
      <trkpt lat="42.90747899" lon="13.46839003">
        <ele>708.00000</ele>
        <time>2024-02-08T13:23:43Z</time>
      </trkpt>
      <trkpt lat="42.90734522" lon="13.46837326">
        <ele>705.00000</ele>
        <time>2024-02-08T13:23:44Z</time>
      </trkpt>
      <trkpt lat="42.90720633" lon="13.46837829">
        <ele>702.00000</ele>
        <time>2024-02-08T13:23:45Z</time>
      </trkpt>
      <trkpt lat="42.90706576" lon="13.46838500">
        <ele>701.00000</ele>
        <time>2024-02-08T13:23:46Z</time>
      </trkpt>
      <trkpt lat="42.90693978" lon="13.46838022">
        <ele>699.00000</ele>
        <time>2024-02-08T13:23:47Z</time>
      </trkpt>
      <trkpt lat="42.90681305" lon="13.46836974">
        <ele>699.00000</ele>
        <time>2024-02-08T13:23:48Z</time>
      </trkpt>
      <trkpt lat="42.90668330" lon="13.46836237">
        <ele>699.00000</ele>
        <time>2024-02-08T13:23:49Z</time>
      </trkpt>
      <trkpt lat="42.90655757" lon="13.46835348">
        <ele>701.00000</ele>
        <time>2024-02-08T13:23:50Z</time>
      </trkpt>
      <trkpt lat="42.90643427" lon="13.46834259">
        <ele>703.00000</ele>
        <time>2024-02-08T13:23:51Z</time>
      </trkpt>
      <trkpt lat="42.90631617" lon="13.46833479">
        <ele>703.00000</ele>
        <time>2024-02-08T13:23:52Z</time>
      </trkpt>
      <trkpt lat="42.90619899" lon="13.46833563">
        <ele>702.00000</ele>
        <time>2024-02-08T13:23:53Z</time>
      </trkpt>
      <trkpt lat="42.90607997" lon="13.46835566">
        <ele>701.00000</ele>
        <time>2024-02-08T13:23:54Z</time>
      </trkpt>
      <trkpt lat="42.90596078" lon="13.46839824">
        <ele>698.00000</ele>
        <time>2024-02-08T13:23:55Z</time>
      </trkpt>
      <trkpt lat="42.90584762" lon="13.46845859">
        <ele>696.00000</ele>
        <time>2024-02-08T13:23:56Z</time>
      </trkpt>
      <trkpt lat="42.90573866" lon="13.46853897">
        <ele>696.00000</ele>
        <time>2024-02-08T13:23:57Z</time>
      </trkpt>
      <trkpt lat="42.90563388" lon="13.46863570">
        <ele>697.00000</ele>
        <time>2024-02-08T13:23:58Z</time>
      </trkpt>
      <trkpt lat="42.90552886" lon="13.46872941">
        <ele>698.00000</ele>
        <time>2024-02-08T13:23:59Z</time>
      </trkpt>
      <trkpt lat="42.90542274" lon="13.46879689">
        <ele>700.00000</ele>
        <time>2024-02-08T13:24:00Z</time>
      </trkpt>
      <trkpt lat="42.90531143" lon="13.46882807">
        <ele>703.00000</ele>
        <time>2024-02-08T13:24:01Z</time>
      </trkpt>
      <trkpt lat="42.90519534" lon="13.46882957">
        <ele>705.00000</ele>
        <time>2024-02-08T13:24:02Z</time>
      </trkpt>
      <trkpt lat="42.90508244" lon="13.46880577">
        <ele>706.00000</ele>
        <time>2024-02-08T13:24:03Z</time>
      </trkpt>
      <trkpt lat="42.90497297" lon="13.46876788">
        <ele>707.00000</ele>
        <time>2024-02-08T13:24:04Z</time>
      </trkpt>
      <trkpt lat="42.90486434" lon="13.46872740">
        <ele>707.00000</ele>
        <time>2024-02-08T13:24:05Z</time>
      </trkpt>
      <trkpt lat="42.90476015" lon="13.46868826">
        <ele>707.00000</ele>
        <time>2024-02-08T13:24:06Z</time>
      </trkpt>
      <trkpt lat="42.90465421" lon="13.46866336">
        <ele>707.00000</ele>
        <time>2024-02-08T13:24:07Z</time>
      </trkpt>
      <trkpt lat="42.90455480" lon="13.46865339">
        <ele>708.00000</ele>
        <time>2024-02-08T13:24:08Z</time>
      </trkpt>
      <trkpt lat="42.90445765" lon="13.46864886">
        <ele>707.00000</ele>
        <time>2024-02-08T13:24:09Z</time>
      </trkpt>
      <trkpt lat="42.90435916" lon="13.46865230">
        <ele>707.00000</ele>
        <time>2024-02-08T13:24:10Z</time>
      </trkpt>
      <trkpt lat="42.90425900" lon="13.46866210">
        <ele>706.00000</ele>
        <time>2024-02-08T13:24:11Z</time>
      </trkpt>
      <trkpt lat="42.90415490" lon="13.46868197">
        <ele>705.00000</ele>
        <time>2024-02-08T13:24:12Z</time>
      </trkpt>
      <trkpt lat="42.90405414" lon="13.46871265">
        <ele>703.00000</ele>
        <time>2024-02-08T13:24:13Z</time>
      </trkpt>
      <trkpt lat="42.90395775" lon="13.46876294">
        <ele>701.00000</ele>
        <time>2024-02-08T13:24:14Z</time>
      </trkpt>
      <trkpt lat="42.90386773" lon="13.46882999">
        <ele>700.00000</ele>
        <time>2024-02-08T13:24:15Z</time>
      </trkpt>
      <trkpt lat="42.90377997" lon="13.46890384">
        <ele>699.00000</ele>
        <time>2024-02-08T13:24:16Z</time>
      </trkpt>
      <trkpt lat="42.90369263" lon="13.46898439">
        <ele>697.00000</ele>
        <time>2024-02-08T13:24:17Z</time>
      </trkpt>
      <trkpt lat="42.90360496" lon="13.46906385">
        <ele>697.00000</ele>
        <time>2024-02-08T13:24:18Z</time>
      </trkpt>
      <trkpt lat="42.90351754" lon="13.46913945">
        <ele>696.00000</ele>
        <time>2024-02-08T13:24:19Z</time>
      </trkpt>
      <trkpt lat="42.90342424" lon="13.46921263">
        <ele>695.00000</ele>
        <time>2024-02-08T13:24:20Z</time>
      </trkpt>
      <trkpt lat="42.90333456" lon="13.46928253">
        <ele>695.00000</ele>
        <time>2024-02-08T13:24:21Z</time>
      </trkpt>
      <trkpt lat="42.90324462" lon="13.46934657">
        <ele>694.00000</ele>
        <time>2024-02-08T13:24:22Z</time>
      </trkpt>
      <trkpt lat="42.90315535" lon="13.46941119">
        <ele>694.00000</ele>
        <time>2024-02-08T13:24:23Z</time>
      </trkpt>
      <trkpt lat="42.90307036" lon="13.46947842">
        <ele>695.00000</ele>
        <time>2024-02-08T13:24:24Z</time>
      </trkpt>
      <trkpt lat="42.90298713" lon="13.46954631">
        <ele>695.00000</ele>
        <time>2024-02-08T13:24:25Z</time>
      </trkpt>
      <trkpt lat="42.90290884" lon="13.46961320">
        <ele>696.00000</ele>
        <time>2024-02-08T13:24:26Z</time>
      </trkpt>
      <trkpt lat="42.90283399" lon="13.46968294">
        <ele>697.00000</ele>
        <time>2024-02-08T13:24:27Z</time>
      </trkpt>
      <trkpt lat="42.90276107" lon="13.46975351">
        <ele>698.00000</ele>
        <time>2024-02-08T13:24:28Z</time>
      </trkpt>
      <trkpt lat="42.90269250" lon="13.46982752">
        <ele>700.00000</ele>
        <time>2024-02-08T13:24:29Z</time>
      </trkpt>
      <trkpt lat="42.90262679" lon="13.46990078">
        <ele>701.00000</ele>
        <time>2024-02-08T13:24:30Z</time>
      </trkpt>
      <trkpt lat="42.90256418" lon="13.46997236">
        <ele>702.00000</ele>
        <time>2024-02-08T13:24:31Z</time>
      </trkpt>
      <trkpt lat="42.90250148" lon="13.47004185">
        <ele>703.00000</ele>
        <time>2024-02-08T13:24:32Z</time>
      </trkpt>
      <trkpt lat="42.90243711" lon="13.47010513">
        <ele>703.00000</ele>
        <time>2024-02-08T13:24:33Z</time>
      </trkpt>
      <trkpt lat="42.90236444" lon="13.47016205">
        <ele>703.00000</ele>
        <time>2024-02-08T13:24:34Z</time>
      </trkpt>
      <trkpt lat="42.90228540" lon="13.47019792">
        <ele>704.00000</ele>
        <time>2024-02-08T13:24:35Z</time>
      </trkpt>
      <trkpt lat="42.90220602" lon="13.47021494">
        <ele>704.00000</ele>
        <time>2024-02-08T13:24:36Z</time>
      </trkpt>
      <trkpt lat="42.90212916" lon="13.47021460">
        <ele>704.00000</ele>
        <time>2024-02-08T13:24:37Z</time>
      </trkpt>
      <trkpt lat="42.90205280" lon="13.47020362">
        <ele>704.00000</ele>
        <time>2024-02-08T13:24:38Z</time>
      </trkpt>
      <trkpt lat="42.90197795" lon="13.47018912">
        <ele>704.00000</ele>
        <time>2024-02-08T13:24:39Z</time>
      </trkpt>
      <trkpt lat="42.90190377" lon="13.47018124">
        <ele>705.00000</ele>
        <time>2024-02-08T13:24:40Z</time>
      </trkpt>
      <trkpt lat="42.90182883" lon="13.47018761">
        <ele>706.00000</ele>
        <time>2024-02-08T13:24:41Z</time>
      </trkpt>
      <trkpt lat="42.90175365" lon="13.47020622">
        <ele>707.00000</ele>
        <time>2024-02-08T13:24:42Z</time>
      </trkpt>
      <trkpt lat="42.90168131" lon="13.47023673">
        <ele>707.00000</ele>
        <time>2024-02-08T13:24:43Z</time>
      </trkpt>
      <trkpt lat="42.90160948" lon="13.47027939">
        <ele>708.00000</ele>
        <time>2024-02-08T13:24:44Z</time>
      </trkpt>
      <trkpt lat="42.90154368" lon="13.47033362">
        <ele>708.00000</ele>
        <time>2024-02-08T13:24:45Z</time>
      </trkpt>
      <trkpt lat="42.90148450" lon="13.47039598">
        <ele>708.00000</ele>
        <time>2024-02-08T13:24:46Z</time>
      </trkpt>
      <trkpt lat="42.90142734" lon="13.47046279">
        <ele>708.00000</ele>
        <time>2024-02-08T13:24:47Z</time>
      </trkpt>
      <trkpt lat="42.90137336" lon="13.47053496">
        <ele>708.00000</ele>
        <time>2024-02-08T13:24:48Z</time>
      </trkpt>
      <trkpt lat="42.90132299" lon="13.47061090">
        <ele>708.00000</ele>
        <time>2024-02-08T13:24:49Z</time>
      </trkpt>
      <trkpt lat="42.90127512" lon="13.47068742">
        <ele>707.00000</ele>
        <time>2024-02-08T13:24:50Z</time>
      </trkpt>
      <trkpt lat="42.90123011" lon="13.47076085">
        <ele>706.00000</ele>
        <time>2024-02-08T13:24:51Z</time>
      </trkpt>
      <trkpt lat="42.90118712" lon="13.47083704">
        <ele>704.00000</ele>
        <time>2024-02-08T13:24:52Z</time>
      </trkpt>
      <trkpt lat="42.90113666" lon="13.47091482">
        <ele>703.00000</ele>
        <time>2024-02-08T13:24:53Z</time>
      </trkpt>
      <trkpt lat="42.90108335" lon="13.47097869">
        <ele>702.00000</ele>
        <time>2024-02-08T13:24:54Z</time>
      </trkpt>
      <trkpt lat="42.90102048" lon="13.47102362">
        <ele>703.00000</ele>
        <time>2024-02-08T13:24:55Z</time>
      </trkpt>
      <trkpt lat="42.90094588" lon="13.47105816">
        <ele>704.00000</ele>
        <time>2024-02-08T13:24:56Z</time>
      </trkpt>
      <trkpt lat="42.90087204" lon="13.47108397">
        <ele>705.00000</ele>
        <time>2024-02-08T13:24:57Z</time>
      </trkpt>
      <trkpt lat="42.90080633" lon="13.47111817">
        <ele>706.00000</ele>
        <time>2024-02-08T13:24:58Z</time>
      </trkpt>
      <trkpt lat="42.90074246" lon="13.47118187">
        <ele>706.00000</ele>
        <time>2024-02-08T13:24:59Z</time>
      </trkpt>
      <trkpt lat="42.90068940" lon="13.47126921">
        <ele>705.00000</ele>
        <time>2024-02-08T13:25:00Z</time>
      </trkpt>
      <trkpt lat="42.90064430" lon="13.47137231">
        <ele>704.00000</ele>
        <time>2024-02-08T13:25:01Z</time>
      </trkpt>
      <trkpt lat="42.90060709" lon="13.47147909">
        <ele>703.00000</ele>
        <time>2024-02-08T13:25:02Z</time>
      </trkpt>
      <trkpt lat="42.90057348" lon="13.47159041">
        <ele>703.00000</ele>
        <time>2024-02-08T13:25:03Z</time>
      </trkpt>
      <trkpt lat="42.90053341" lon="13.47169795">
        <ele>703.00000</ele>
        <time>2024-02-08T13:25:04Z</time>
      </trkpt>
      <trkpt lat="42.90048882" lon="13.47180079">
        <ele>703.00000</ele>
        <time>2024-02-08T13:25:05Z</time>
      </trkpt>
      <trkpt lat="42.90043677" lon="13.47189442">
        <ele>703.00000</ele>
        <time>2024-02-08T13:25:06Z</time>
      </trkpt>
      <trkpt lat="42.90036301" lon="13.47196793">
        <ele>705.00000</ele>
        <time>2024-02-08T13:25:07Z</time>
      </trkpt>
      <trkpt lat="42.90027148" lon="13.47200606">
        <ele>706.00000</ele>
        <time>2024-02-08T13:25:08Z</time>
      </trkpt>
      <trkpt lat="42.90017626" lon="13.47201009">
        <ele>706.00000</ele>
        <time>2024-02-08T13:25:09Z</time>
      </trkpt>
      <trkpt lat="42.90008598" lon="13.47200430">
        <ele>706.00000</ele>
        <time>2024-02-08T13:25:10Z</time>
      </trkpt>
      <trkpt lat="42.89999747" lon="13.47199877">
        <ele>707.00000</ele>
        <time>2024-02-08T13:25:11Z</time>
      </trkpt>
      <trkpt lat="42.89990678" lon="13.47199860">
        <ele>706.00000</ele>
        <time>2024-02-08T13:25:12Z</time>
      </trkpt>
      <trkpt lat="42.89981517" lon="13.47199819">
        <ele>705.00000</ele>
        <time>2024-02-08T13:25:13Z</time>
      </trkpt>
      <trkpt lat="42.89971919" lon="13.47199902">
        <ele>705.00000</ele>
        <time>2024-02-08T13:25:14Z</time>
      </trkpt>
      <trkpt lat="42.89961735" lon="13.47199986">
        <ele>704.00000</ele>
        <time>2024-02-08T13:25:15Z</time>
      </trkpt>
      <trkpt lat="42.89951794" lon="13.47200430">
        <ele>704.00000</ele>
        <time>2024-02-08T13:25:16Z</time>
      </trkpt>
      <trkpt lat="42.89942306" lon="13.47202300">
        <ele>703.00000</ele>
        <time>2024-02-08T13:25:17Z</time>
      </trkpt>
      <trkpt lat="42.89933086" lon="13.47207186">
        <ele>702.00000</ele>
        <time>2024-02-08T13:25:18Z</time>
      </trkpt>
      <trkpt lat="42.89924335" lon="13.47214889">
        <ele>701.00000</ele>
        <time>2024-02-08T13:25:19Z</time>
      </trkpt>
      <trkpt lat="42.89916708" lon="13.47224034">
        <ele>700.00000</ele>
        <time>2024-02-08T13:25:20Z</time>
      </trkpt>
      <trkpt lat="42.89910295" lon="13.47234813">
        <ele>700.00000</ele>
        <time>2024-02-08T13:25:21Z</time>
      </trkpt>
      <trkpt lat="42.89905903" lon="13.47247025">
        <ele>700.00000</ele>
        <time>2024-02-08T13:25:22Z</time>
      </trkpt>
      <trkpt lat="42.89903188" lon="13.47259799">
        <ele>699.00000</ele>
        <time>2024-02-08T13:25:23Z</time>
      </trkpt>
      <trkpt lat="42.89902056" lon="13.47272506">
        <ele>700.00000</ele>
        <time>2024-02-08T13:25:24Z</time>
      </trkpt>
      <trkpt lat="42.89904755" lon="13.47297568">
        <ele>700.00000</ele>
        <time>2024-02-08T13:25:25Z</time>
      </trkpt>
      <trkpt lat="42.89906138" lon="13.47309010">
        <ele>699.00000</ele>
        <time>2024-02-08T13:25:27Z</time>
      </trkpt>
      <trkpt lat="42.89906842" lon="13.47320317">
        <ele>698.00000</ele>
        <time>2024-02-08T13:25:28Z</time>
      </trkpt>
      <trkpt lat="42.89904269" lon="13.47330559">
        <ele>698.00000</ele>
        <time>2024-02-08T13:25:29Z</time>
      </trkpt>
      <trkpt lat="42.89894588" lon="13.47347985">
        <ele>698.00000</ele>
        <time>2024-02-08T13:25:30Z</time>
      </trkpt>
      <trkpt lat="42.89889483" lon="13.47356828">
        <ele>699.00000</ele>
        <time>2024-02-08T13:25:31Z</time>
      </trkpt>
      <trkpt lat="42.89884672" lon="13.47366501">
        <ele>700.00000</ele>
        <time>2024-02-08T13:25:33Z</time>
      </trkpt>
      <trkpt lat="42.89880204" lon="13.47377129">
        <ele>701.00000</ele>
        <time>2024-02-08T13:25:34Z</time>
      </trkpt>
      <trkpt lat="42.89872577" lon="13.47400289">
        <ele>702.00000</ele>
        <time>2024-02-08T13:25:35Z</time>
      </trkpt>
      <trkpt lat="42.89868864" lon="13.47412275">
        <ele>703.00000</ele>
        <time>2024-02-08T13:25:37Z</time>
      </trkpt>
      <trkpt lat="42.89865285" lon="13.47424319">
        <ele>702.00000</ele>
        <time>2024-02-08T13:25:38Z</time>
      </trkpt>
      <trkpt lat="42.89855377" lon="13.47447060">
        <ele>699.00000</ele>
        <time>2024-02-08T13:25:39Z</time>
      </trkpt>
      <trkpt lat="42.89848420" lon="13.47456179">
        <ele>698.00000</ele>
        <time>2024-02-08T13:25:41Z</time>
      </trkpt>
      <trkpt lat="42.89840474" lon="13.47463731">
        <ele>697.00000</ele>
        <time>2024-02-08T13:25:42Z</time>
      </trkpt>
      <trkpt lat="42.89831849" lon="13.47469733">
        <ele>698.00000</ele>
        <time>2024-02-08T13:25:43Z</time>
      </trkpt>
      <trkpt lat="42.89822629" lon="13.47474938">
        <ele>698.00000</ele>
        <time>2024-02-08T13:25:44Z</time>
      </trkpt>
      <trkpt lat="42.89813778" lon="13.47480512">
        <ele>699.00000</ele>
        <time>2024-02-08T13:25:45Z</time>
      </trkpt>
      <trkpt lat="42.89805991" lon="13.47487276">
        <ele>700.00000</ele>
        <time>2024-02-08T13:25:46Z</time>
      </trkpt>
      <trkpt lat="42.89791750" lon="13.47503227">
        <ele>701.00000</ele>
        <time>2024-02-08T13:25:47Z</time>
      </trkpt>
      <trkpt lat="42.89784810" lon="13.47511466">
        <ele>702.00000</ele>
        <time>2024-02-08T13:25:49Z</time>
      </trkpt>
      <trkpt lat="42.89777660" lon="13.47519798">
        <ele>703.00000</ele>
        <time>2024-02-08T13:25:50Z</time>
      </trkpt>
      <trkpt lat="42.89770393" lon="13.47528724">
        <ele>703.00000</ele>
        <time>2024-02-08T13:25:51Z</time>
      </trkpt>
      <trkpt lat="42.89763092" lon="13.47538271">
        <ele>704.00000</ele>
        <time>2024-02-08T13:25:52Z</time>
      </trkpt>
      <trkpt lat="42.89755616" lon="13.47548061">
        <ele>704.00000</ele>
        <time>2024-02-08T13:25:53Z</time>
      </trkpt>
      <trkpt lat="42.89741232" lon="13.47568882">
        <ele>703.00000</ele>
        <time>2024-02-08T13:25:55Z</time>
      </trkpt>
      <trkpt lat="42.89732079" lon="13.47594573">
        <ele>700.00000</ele>
        <time>2024-02-08T13:25:56Z</time>
      </trkpt>
      <trkpt lat="42.89729766" lon="13.47622786">
        <ele>697.00000</ele>
        <time>2024-02-08T13:25:58Z</time>
      </trkpt>
      <trkpt lat="42.89731275" lon="13.47637102">
        <ele>694.00000</ele>
        <time>2024-02-08T13:26:00Z</time>
      </trkpt>
      <trkpt lat="42.89735013" lon="13.47666355">
        <ele>690.00000</ele>
        <time>2024-02-08T13:26:01Z</time>
      </trkpt>
      <trkpt lat="42.89733286" lon="13.47680881">
        <ele>689.00000</ele>
        <time>2024-02-08T13:26:02Z</time>
      </trkpt>
      <trkpt lat="42.89729012" lon="13.47693881">
        <ele>689.00000</ele>
        <time>2024-02-08T13:26:04Z</time>
      </trkpt>
      <trkpt lat="42.89721753" lon="13.47704174">
        <ele>690.00000</ele>
        <time>2024-02-08T13:26:05Z</time>
      </trkpt>
      <trkpt lat="42.89704243" lon="13.47719170">
        <ele>693.00000</ele>
        <time>2024-02-08T13:26:06Z</time>
      </trkpt>
      <trkpt lat="42.89686482" lon="13.47734282">
        <ele>695.00000</ele>
        <time>2024-02-08T13:26:08Z</time>
      </trkpt>
      <trkpt lat="42.89679265" lon="13.47744575">
        <ele>696.00000</ele>
        <time>2024-02-08T13:26:10Z</time>
      </trkpt>
      <trkpt lat="42.89672870" lon="13.47755991">
        <ele>696.00000</ele>
        <time>2024-02-08T13:26:11Z</time>
      </trkpt>
      <trkpt lat="42.89656533" lon="13.47789687">
        <ele>694.00000</ele>
        <time>2024-02-08T13:26:13Z</time>
      </trkpt>
      <trkpt lat="42.89650448" lon="13.47799954">
        <ele>694.00000</ele>
        <time>2024-02-08T13:26:14Z</time>
      </trkpt>
      <trkpt lat="42.89643684" lon="13.47808839">
        <ele>694.00000</ele>
        <time>2024-02-08T13:26:16Z</time>
      </trkpt>
      <trkpt lat="42.89628286" lon="13.47823130">
        <ele>695.00000</ele>
        <time>2024-02-08T13:26:17Z</time>
      </trkpt>
      <trkpt lat="42.89619997" lon="13.47831521">
        <ele>695.00000</ele>
        <time>2024-02-08T13:26:19Z</time>
      </trkpt>
      <trkpt lat="42.89613995" lon="13.47841445">
        <ele>695.00000</ele>
        <time>2024-02-08T13:26:20Z</time>
      </trkpt>
      <trkpt lat="42.89608790" lon="13.47866431">
        <ele>697.00000</ele>
        <time>2024-02-08T13:26:22Z</time>
      </trkpt>
      <trkpt lat="42.89611489" lon="13.47879339">
        <ele>697.00000</ele>
        <time>2024-02-08T13:26:23Z</time>
      </trkpt>
      <trkpt lat="42.89622570" lon="13.47899364">
        <ele>697.00000</ele>
        <time>2024-02-08T13:26:25Z</time>
      </trkpt>
      <trkpt lat="42.89629443" lon="13.47908282">
        <ele>696.00000</ele>
        <time>2024-02-08T13:26:26Z</time>
      </trkpt>
      <trkpt lat="42.89650725" lon="13.47936571">
        <ele>692.00000</ele>
        <time>2024-02-08T13:26:28Z</time>
      </trkpt>
      <trkpt lat="42.89658612" lon="13.47945565">
        <ele>691.00000</ele>
        <time>2024-02-08T13:26:29Z</time>
      </trkpt>
      <trkpt lat="42.89666893" lon="13.47954341">
        <ele>690.00000</ele>
        <time>2024-02-08T13:26:30Z</time>
      </trkpt>
      <trkpt lat="42.89675317" lon="13.47962488">
        <ele>690.00000</ele>
        <time>2024-02-08T13:26:32Z</time>
      </trkpt>
      <trkpt lat="42.89691939" lon="13.47979570">
        <ele>689.00000</ele>
        <time>2024-02-08T13:26:33Z</time>
      </trkpt>
      <trkpt lat="42.89699281" lon="13.47989771">
        <ele>688.00000</ele>
        <time>2024-02-08T13:26:34Z</time>
      </trkpt>
      <trkpt lat="42.89703053" lon="13.48002671">
        <ele>688.00000</ele>
        <time>2024-02-08T13:26:36Z</time>
      </trkpt>
      <trkpt lat="42.89703011" lon="13.48017230">
        <ele>689.00000</ele>
        <time>2024-02-08T13:26:37Z</time>
      </trkpt>
      <trkpt lat="42.89709708" lon="13.48044103">
        <ele>688.00000</ele>
        <time>2024-02-08T13:26:38Z</time>
      </trkpt>
      <trkpt lat="42.89717160" lon="13.48053029">
        <ele>687.00000</ele>
        <time>2024-02-08T13:26:40Z</time>
      </trkpt>
      <trkpt lat="42.89726304" lon="13.48060355">
        <ele>685.00000</ele>
        <time>2024-02-08T13:26:41Z</time>
      </trkpt>
      <trkpt lat="42.89737226" lon="13.48064303">
        <ele>684.00000</ele>
        <time>2024-02-08T13:26:42Z</time>
      </trkpt>
      <trkpt lat="42.89758935" lon="13.48068905">
        <ele>680.00000</ele>
        <time>2024-02-08T13:26:43Z</time>
      </trkpt>
      <trkpt lat="42.89768541" lon="13.48073883">
        <ele>678.00000</ele>
        <time>2024-02-08T13:26:44Z</time>
      </trkpt>
      <trkpt lat="42.89775925" lon="13.48081117">
        <ele>676.00000</ele>
        <time>2024-02-08T13:26:45Z</time>
      </trkpt>
      <trkpt lat="42.89777560" lon="13.48090605">
        <ele>675.00000</ele>
        <time>2024-02-08T13:26:46Z</time>
      </trkpt>
      <trkpt lat="42.89766202" lon="13.48112541">
        <ele>677.00000</ele>
        <time>2024-02-08T13:26:48Z</time>
      </trkpt>
      <trkpt lat="42.89759907" lon="13.48124577">
        <ele>678.00000</ele>
        <time>2024-02-08T13:26:49Z</time>
      </trkpt>
      <trkpt lat="42.89753747" lon="13.48156412">
        <ele>677.00000</ele>
        <time>2024-02-08T13:26:51Z</time>
      </trkpt>
      <trkpt lat="42.89756370" lon="13.48171558">
        <ele>676.00000</ele>
        <time>2024-02-08T13:26:53Z</time>
      </trkpt>
      <trkpt lat="42.89763235" lon="13.48185924">
        <ele>675.00000</ele>
        <time>2024-02-08T13:26:54Z</time>
      </trkpt>
      <trkpt lat="42.89783720" lon="13.48207809">
        <ele>672.00000</ele>
        <time>2024-02-08T13:26:55Z</time>
      </trkpt>
      <trkpt lat="42.89805354" lon="13.48221765">
        <ele>669.00000</ele>
        <time>2024-02-08T13:26:57Z</time>
      </trkpt>
      <trkpt lat="42.89815111" lon="13.48231974">
        <ele>668.00000</ele>
        <time>2024-02-08T13:26:58Z</time>
      </trkpt>
      <trkpt lat="42.89821053" lon="13.48245595">
        <ele>668.00000</ele>
        <time>2024-02-08T13:26:59Z</time>
      </trkpt>
      <trkpt lat="42.89822462" lon="13.48260238">
        <ele>667.00000</ele>
        <time>2024-02-08T13:27:00Z</time>
      </trkpt>
      <trkpt lat="42.89814440" lon="13.48290857">
        <ele>664.00000</ele>
        <time>2024-02-08T13:27:02Z</time>
      </trkpt>
      <trkpt lat="42.89807760" lon="13.48302525">
        <ele>662.00000</ele>
        <time>2024-02-08T13:27:03Z</time>
      </trkpt>
      <trkpt lat="42.89798020" lon="13.48311519">
        <ele>660.00000</ele>
        <time>2024-02-08T13:27:04Z</time>
      </trkpt>
      <trkpt lat="42.89785346" lon="13.48318576">
        <ele>659.00000</ele>
        <time>2024-02-08T13:27:05Z</time>
      </trkpt>
      <trkpt lat="42.89771039" lon="13.48325198">
        <ele>659.00000</ele>
        <time>2024-02-08T13:27:06Z</time>
      </trkpt>
      <trkpt lat="42.89757368" lon="13.48331434">
        <ele>659.00000</ele>
        <time>2024-02-08T13:27:07Z</time>
      </trkpt>
      <trkpt lat="42.89743663" lon="13.48336631">
        <ele>658.00000</ele>
        <time>2024-02-08T13:27:08Z</time>
      </trkpt>
      <trkpt lat="42.89729582" lon="13.48338827">
        <ele>658.00000</ele>
        <time>2024-02-08T13:27:09Z</time>
      </trkpt>
      <trkpt lat="42.89715240" lon="13.48335927">
        <ele>658.00000</ele>
        <time>2024-02-08T13:27:10Z</time>
      </trkpt>
      <trkpt lat="42.89699533" lon="13.48329565">
        <ele>658.00000</ele>
        <time>2024-02-08T13:27:11Z</time>
      </trkpt>
      <trkpt lat="42.89684562" lon="13.48325232">
        <ele>659.00000</ele>
        <time>2024-02-08T13:27:12Z</time>
      </trkpt>
      <trkpt lat="42.89668100" lon="13.48322834">
        <ele>660.00000</ele>
        <time>2024-02-08T13:27:13Z</time>
      </trkpt>
      <trkpt lat="42.89654245" lon="13.48326967">
        <ele>660.00000</ele>
        <time>2024-02-08T13:27:14Z</time>
      </trkpt>
      <trkpt lat="42.89644002" lon="13.48333496">
        <ele>659.00000</ele>
        <time>2024-02-08T13:27:15Z</time>
      </trkpt>
      <trkpt lat="42.89622243" lon="13.48363788">
        <ele>651.00000</ele>
        <time>2024-02-08T13:27:17Z</time>
      </trkpt>
      <trkpt lat="42.89616459" lon="13.48378431">
        <ele>648.00000</ele>
        <time>2024-02-08T13:27:18Z</time>
      </trkpt>
      <trkpt lat="42.89609637" lon="13.48389965">
        <ele>646.00000</ele>
        <time>2024-02-08T13:27:19Z</time>
      </trkpt>
      <trkpt lat="42.89593585" lon="13.48397274">
        <ele>640.00000</ele>
        <time>2024-02-08T13:27:21Z</time>
      </trkpt>
      <trkpt lat="42.89585606" lon="13.48393796">
        <ele>638.00000</ele>
        <time>2024-02-08T13:27:22Z</time>
      </trkpt>
      <trkpt lat="42.89581482" lon="13.48384039">
        <ele>638.00000</ele>
        <time>2024-02-08T13:27:23Z</time>
      </trkpt>
      <trkpt lat="42.89578733" lon="13.48370837">
        <ele>637.00000</ele>
        <time>2024-02-08T13:27:24Z</time>
      </trkpt>
      <trkpt lat="42.89570258" lon="13.48338701">
        <ele>639.00000</ele>
        <time>2024-02-08T13:27:26Z</time>
      </trkpt>
      <trkpt lat="42.89566528" lon="13.48323538">
        <ele>640.00000</ele>
        <time>2024-02-08T13:27:27Z</time>
      </trkpt>
      <trkpt lat="42.89563134" lon="13.48307663">
        <ele>642.00000</ele>
        <time>2024-02-08T13:27:28Z</time>
      </trkpt>
      <trkpt lat="42.89560007" lon="13.48291528">
        <ele>643.00000</ele>
        <time>2024-02-08T13:27:29Z</time>
      </trkpt>
      <trkpt lat="42.89554744" lon="13.48258654">
        <ele>647.00000</ele>
        <time>2024-02-08T13:27:31Z</time>
      </trkpt>
      <trkpt lat="42.89551885" lon="13.48241664">
        <ele>649.00000</ele>
        <time>2024-02-08T13:27:32Z</time>
      </trkpt>
      <trkpt lat="42.89548155" lon="13.48224925">
        <ele>650.00000</ele>
        <time>2024-02-08T13:27:33Z</time>
      </trkpt>
      <trkpt lat="42.89542875" lon="13.48208765">
        <ele>651.00000</ele>
        <time>2024-02-08T13:27:34Z</time>
      </trkpt>
      <trkpt lat="42.89522968" lon="13.48185589">
        <ele>650.00000</ele>
        <time>2024-02-08T13:27:36Z</time>
      </trkpt>
      <trkpt lat="42.89509322" lon="13.48182094">
        <ele>650.00000</ele>
        <time>2024-02-08T13:27:37Z</time>
      </trkpt>
      <trkpt lat="42.89495425" lon="13.48183929">
        <ele>649.00000</ele>
        <time>2024-02-08T13:27:38Z</time>
      </trkpt>
      <trkpt lat="42.89482927" lon="13.48190694">
        <ele>648.00000</ele>
        <time>2024-02-08T13:27:39Z</time>
      </trkpt>
      <trkpt lat="42.89470790" lon="13.48203392">
        <ele>645.00000</ele>
        <time>2024-02-08T13:27:41Z</time>
      </trkpt>
      <trkpt lat="42.89449836" lon="13.48234380">
        <ele>636.00000</ele>
        <time>2024-02-08T13:27:42Z</time>
      </trkpt>
      <trkpt lat="42.89439752" lon="13.48250591">
        <ele>632.00000</ele>
        <time>2024-02-08T13:27:43Z</time>
      </trkpt>
      <trkpt lat="42.89419225" lon="13.48285124">
        <ele>623.00000</ele>
        <time>2024-02-08T13:27:45Z</time>
      </trkpt>
      <trkpt lat="42.89409192" lon="13.48301787">
        <ele>622.00000</ele>
        <time>2024-02-08T13:27:46Z</time>
      </trkpt>
      <trkpt lat="42.89399385" lon="13.48317646">
        <ele>621.00000</ele>
        <time>2024-02-08T13:27:47Z</time>
      </trkpt>
      <trkpt lat="42.89389159" lon="13.48332842">
        <ele>621.00000</ele>
        <time>2024-02-08T13:27:48Z</time>
      </trkpt>
      <trkpt lat="42.89376804" lon="13.48344921">
        <ele>614.00000</ele>
        <time>2024-02-08T13:27:49Z</time>
      </trkpt>
      <trkpt lat="42.89363150" lon="13.48352850">
        <ele>609.00000</ele>
        <time>2024-02-08T13:27:50Z</time>
      </trkpt>
      <trkpt lat="42.89348247" lon="13.48355172">
        <ele>605.00000</ele>
        <time>2024-02-08T13:27:51Z</time>
      </trkpt>
      <trkpt lat="42.89320176" lon="13.48340101">
        <ele>604.00000</ele>
        <time>2024-02-08T13:27:53Z</time>
      </trkpt>
      <trkpt lat="42.89310780" lon="13.48328718">
        <ele>603.00000</ele>
        <time>2024-02-08T13:27:54Z</time>
      </trkpt>
      <trkpt lat="42.89295340" lon="13.48287840">
        <ele>601.00000</ele>
        <time>2024-02-08T13:27:56Z</time>
      </trkpt>
      <trkpt lat="42.89292130" lon="13.48265921">
        <ele>602.00000</ele>
        <time>2024-02-08T13:27:57Z</time>
      </trkpt>
      <trkpt lat="42.89289297" lon="13.48244061">
        <ele>605.00000</ele>
        <time>2024-02-08T13:27:58Z</time>
      </trkpt>
      <trkpt lat="42.89285911" lon="13.48223157">
        <ele>606.00000</ele>
        <time>2024-02-08T13:27:59Z</time>
      </trkpt>
      <trkpt lat="42.89281695" lon="13.48202856">
        <ele>606.00000</ele>
        <time>2024-02-08T13:28:00Z</time>
      </trkpt>
      <trkpt lat="42.89277805" lon="13.48182722">
        <ele>607.00000</ele>
        <time>2024-02-08T13:28:01Z</time>
      </trkpt>
      <trkpt lat="42.89271276" lon="13.48143143">
        <ele>609.00000</ele>
        <time>2024-02-08T13:28:03Z</time>
      </trkpt>
      <trkpt lat="42.89264168" lon="13.48105877">
        <ele>610.00000</ele>
        <time>2024-02-08T13:28:05Z</time>
      </trkpt>
      <trkpt lat="42.89258376" lon="13.48089591">
        <ele>609.00000</ele>
        <time>2024-02-08T13:28:06Z</time>
      </trkpt>
      <trkpt lat="42.89249223" lon="13.48078250">
        <ele>606.00000</ele>
        <time>2024-02-08T13:28:07Z</time>
      </trkpt>
      <trkpt lat="42.89235628" lon="13.48073967">
        <ele>604.00000</ele>
        <time>2024-02-08T13:28:08Z</time>
      </trkpt>
      <trkpt lat="42.89223139" lon="13.48076666">
        <ele>601.00000</ele>
        <time>2024-02-08T13:28:09Z</time>
      </trkpt>
      <trkpt lat="42.89196878" lon="13.48087160">
        <ele>596.00000</ele>
        <time>2024-02-08T13:28:11Z</time>
      </trkpt>
      <trkpt lat="42.89185227" lon="13.48095282">
        <ele>598.00000</ele>
        <time>2024-02-08T13:28:12Z</time>
      </trkpt>
      <trkpt lat="42.89175001" lon="13.48105927">
        <ele>599.00000</ele>
        <time>2024-02-08T13:28:13Z</time>
      </trkpt>
      <trkpt lat="42.89165597" lon="13.48120152">
        <ele>598.00000</ele>
        <time>2024-02-08T13:28:14Z</time>
      </trkpt>
      <trkpt lat="42.89146453" lon="13.48153201">
        <ele>599.00000</ele>
        <time>2024-02-08T13:28:16Z</time>
      </trkpt>
      <trkpt lat="42.89140812" lon="13.48171776">
        <ele>596.00000</ele>
        <time>2024-02-08T13:28:17Z</time>
      </trkpt>
      <trkpt lat="42.89133519" lon="13.48189570">
        <ele>594.00000</ele>
        <time>2024-02-08T13:28:18Z</time>
      </trkpt>
      <trkpt lat="42.89121366" lon="13.48225470">
        <ele>584.00000</ele>
        <time>2024-02-08T13:28:20Z</time>
      </trkpt>
      <trkpt lat="42.89113906" lon="13.48240583">
        <ele>579.00000</ele>
        <time>2024-02-08T13:28:21Z</time>
      </trkpt>
      <trkpt lat="42.89103613" lon="13.48249484">
        <ele>575.00000</ele>
        <time>2024-02-08T13:28:22Z</time>
      </trkpt>
      <trkpt lat="42.89092255" lon="13.48252376">
        <ele>575.00000</ele>
        <time>2024-02-08T13:28:24Z</time>
      </trkpt>
      <trkpt lat="42.89067545" lon="13.48240516">
        <ele>580.00000</ele>
        <time>2024-02-08T13:28:25Z</time>
      </trkpt>
      <trkpt lat="42.89054989" lon="13.48234950">
        <ele>582.00000</ele>
        <time>2024-02-08T13:28:26Z</time>
      </trkpt>
      <trkpt lat="42.89042836" lon="13.48231983">
        <ele>584.00000</ele>
        <time>2024-02-08T13:28:27Z</time>
      </trkpt>
      <trkpt lat="42.89031445" lon="13.48233768">
        <ele>584.00000</ele>
        <time>2024-02-08T13:28:28Z</time>
      </trkpt>
      <trkpt lat="42.89013172" lon="13.48256584">
        <ele>580.00000</ele>
        <time>2024-02-08T13:28:30Z</time>
      </trkpt>
      <trkpt lat="42.89005905" lon="13.48273918">
        <ele>577.00000</ele>
        <time>2024-02-08T13:28:31Z</time>
      </trkpt>
      <trkpt lat="42.88999845" lon="13.48291494">
        <ele>574.00000</ele>
        <time>2024-02-08T13:28:32Z</time>
      </trkpt>
      <trkpt lat="42.88991253" lon="13.48307076">
        <ele>574.00000</ele>
        <time>2024-02-08T13:28:33Z</time>
      </trkpt>
      <trkpt lat="42.88968840" lon="13.48331090">
        <ele>574.00000</ele>
        <time>2024-02-08T13:28:35Z</time>
      </trkpt>
      <trkpt lat="42.88940493" lon="13.48344963">
        <ele>569.00000</ele>
        <time>2024-02-08T13:28:37Z</time>
      </trkpt>
      <trkpt lat="42.88925606" lon="13.48346580">
        <ele>567.00000</ele>
        <time>2024-02-08T13:28:38Z</time>
      </trkpt>
      <trkpt lat="42.88898725" lon="13.48341191">
        <ele>565.00000</ele>
        <time>2024-02-08T13:28:40Z</time>
      </trkpt>
      <trkpt lat="42.88886563" lon="13.48334443">
        <ele>565.00000</ele>
        <time>2024-02-08T13:28:41Z</time>
      </trkpt>
      <trkpt lat="42.88874066" lon="13.48326338">
        <ele>566.00000</ele>
        <time>2024-02-08T13:28:42Z</time>
      </trkpt>
      <trkpt lat="42.88861292" lon="13.48319842">
        <ele>566.00000</ele>
        <time>2024-02-08T13:28:43Z</time>
      </trkpt>
      <trkpt lat="42.88848082" lon="13.48315810">
        <ele>565.00000</ele>
        <time>2024-02-08T13:28:44Z</time>
      </trkpt>
      <trkpt lat="42.88834730" lon="13.48312533">
        <ele>563.00000</ele>
        <time>2024-02-08T13:28:45Z</time>
      </trkpt>
      <trkpt lat="42.88808394" lon="13.48315307">
        <ele>564.00000</ele>
        <time>2024-02-08T13:28:47Z</time>
      </trkpt>
      <trkpt lat="42.88799148" lon="13.48325533">
        <ele>562.00000</ele>
        <time>2024-02-08T13:28:48Z</time>
      </trkpt>
      <trkpt lat="42.88778512" lon="13.48353613">
        <ele>553.00000</ele>
        <time>2024-02-08T13:28:50Z</time>
      </trkpt>
      <trkpt lat="42.88769862" lon="13.48359497">
        <ele>550.00000</ele>
        <time>2024-02-08T13:28:51Z</time>
      </trkpt>
      <trkpt lat="42.88761287" lon="13.48360410">
        <ele>549.00000</ele>
        <time>2024-02-08T13:28:52Z</time>
      </trkpt>
      <trkpt lat="42.88753719" lon="13.48354015">
        <ele>550.00000</ele>
        <time>2024-02-08T13:28:53Z</time>
      </trkpt>
      <trkpt lat="42.88748899" lon="13.48322675">
        <ele>558.00000</ele>
        <time>2024-02-08T13:28:55Z</time>
      </trkpt>
      <trkpt lat="42.88744339" lon="13.48309742">
        <ele>560.00000</ele>
        <time>2024-02-08T13:28:56Z</time>
      </trkpt>
      <trkpt lat="42.88738598" lon="13.48298971">
        <ele>560.00000</ele>
        <time>2024-02-08T13:28:57Z</time>
      </trkpt>
      <trkpt lat="42.88731289" lon="13.48290044">
        <ele>560.00000</ele>
        <time>2024-02-08T13:28:58Z</time>
      </trkpt>
      <trkpt lat="42.88722655" lon="13.48283112">
        <ele>559.00000</ele>
        <time>2024-02-08T13:28:59Z</time>
      </trkpt>
      <trkpt lat="42.88713167" lon="13.48281025">
        <ele>559.00000</ele>
        <time>2024-02-08T13:29:00Z</time>
      </trkpt>
      <trkpt lat="42.88705481" lon="13.48284311">
        <ele>557.00000</ele>
        <time>2024-02-08T13:29:01Z</time>
      </trkpt>
      <trkpt lat="42.88701072" lon="13.48292408">
        <ele>554.00000</ele>
        <time>2024-02-08T13:29:02Z</time>
      </trkpt>
      <trkpt lat="42.88703930" lon="13.48304335">
        <ele>551.00000</ele>
        <time>2024-02-08T13:29:03Z</time>
      </trkpt>
      <trkpt lat="42.88709169" lon="13.48315634">
        <ele>549.00000</ele>
        <time>2024-02-08T13:29:04Z</time>
      </trkpt>
      <trkpt lat="42.88716654" lon="13.48325768">
        <ele>547.00000</ele>
        <time>2024-02-08T13:29:05Z</time>
      </trkpt>
      <trkpt lat="42.88725078" lon="13.48337394">
        <ele>546.00000</ele>
        <time>2024-02-08T13:29:06Z</time>
      </trkpt>
      <trkpt lat="42.88732596" lon="13.48352129">
        <ele>544.00000</ele>
        <time>2024-02-08T13:29:07Z</time>
      </trkpt>
      <trkpt lat="42.88738061" lon="13.48367149">
        <ele>542.00000</ele>
        <time>2024-02-08T13:29:08Z</time>
      </trkpt>
      <trkpt lat="42.88743132" lon="13.48381139">
        <ele>539.00000</ele>
        <time>2024-02-08T13:29:09Z</time>
      </trkpt>
      <trkpt lat="42.88750424" lon="13.48393611">
        <ele>536.00000</ele>
        <time>2024-02-08T13:29:10Z</time>
      </trkpt>
      <trkpt lat="42.88760324" lon="13.48400048">
        <ele>535.00000</ele>
        <time>2024-02-08T13:29:11Z</time>
      </trkpt>
      <trkpt lat="42.88771170" lon="13.48399302">
        <ele>536.00000</ele>
        <time>2024-02-08T13:29:12Z</time>
      </trkpt>
      <trkpt lat="42.88782703" lon="13.48394768">
        <ele>537.00000</ele>
        <time>2024-02-08T13:29:13Z</time>
      </trkpt>
      <trkpt lat="42.88795360" lon="13.48389672">
        <ele>537.00000</ele>
        <time>2024-02-08T13:29:14Z</time>
      </trkpt>
      <trkpt lat="42.88809039" lon="13.48387098">
        <ele>538.00000</ele>
        <time>2024-02-08T13:29:15Z</time>
      </trkpt>
      <trkpt lat="42.88820288" lon="13.48393418">
        <ele>538.00000</ele>
        <time>2024-02-08T13:29:16Z</time>
      </trkpt>
      <trkpt lat="42.88829944" lon="13.48404332">
        <ele>537.00000</ele>
        <time>2024-02-08T13:29:17Z</time>
      </trkpt>
      <trkpt lat="42.88837756" lon="13.48417625">
        <ele>536.00000</ele>
        <time>2024-02-08T13:29:18Z</time>
      </trkpt>
      <trkpt lat="42.88845358" lon="13.48432067">
        <ele>536.00000</ele>
        <time>2024-02-08T13:29:19Z</time>
      </trkpt>
      <trkpt lat="42.88848543" lon="13.48448806">
        <ele>534.00000</ele>
        <time>2024-02-08T13:29:20Z</time>
      </trkpt>
      <trkpt lat="42.88854578" lon="13.48465402">
        <ele>533.00000</ele>
        <time>2024-02-08T13:29:21Z</time>
      </trkpt>
      <trkpt lat="42.88861049" lon="13.48481596">
        <ele>532.00000</ele>
        <time>2024-02-08T13:29:22Z</time>
      </trkpt>
      <trkpt lat="42.88868609" lon="13.48495770">
        <ele>531.00000</ele>
        <time>2024-02-08T13:29:23Z</time>
      </trkpt>
      <trkpt lat="42.88885893" lon="13.48523086">
        <ele>528.00000</ele>
        <time>2024-02-08T13:29:25Z</time>
      </trkpt>
      <trkpt lat="42.88895331" lon="13.48537503">
        <ele>527.00000</ele>
        <time>2024-02-08T13:29:26Z</time>
      </trkpt>
      <trkpt lat="42.88903025" lon="13.48549674">
        <ele>526.00000</ele>
        <time>2024-02-08T13:29:27Z</time>
      </trkpt>
      <trkpt lat="42.88912279" lon="13.48568240">
        <ele>526.00000</ele>
        <time>2024-02-08T13:29:28Z</time>
      </trkpt>
      <trkpt lat="42.88919873" lon="13.48583981">
        <ele>524.00000</ele>
        <time>2024-02-08T13:29:29Z</time>
      </trkpt>
      <trkpt lat="42.88928129" lon="13.48599077">
        <ele>523.00000</ele>
        <time>2024-02-08T13:29:30Z</time>
      </trkpt>
      <trkpt lat="42.88936343" lon="13.48613846">
        <ele>522.00000</ele>
        <time>2024-02-08T13:29:31Z</time>
      </trkpt>
      <trkpt lat="42.88945421" lon="13.48629813">
        <ele>521.00000</ele>
        <time>2024-02-08T13:29:32Z</time>
      </trkpt>
      <trkpt lat="42.88952319" lon="13.48645756">
        <ele>519.00000</ele>
        <time>2024-02-08T13:29:33Z</time>
      </trkpt>
      <trkpt lat="42.88958572" lon="13.48662561">
        <ele>517.00000</ele>
        <time>2024-02-08T13:29:34Z</time>
      </trkpt>
      <trkpt lat="42.88966921" lon="13.48676634">
        <ele>516.00000</ele>
        <time>2024-02-08T13:29:35Z</time>
      </trkpt>
      <trkpt lat="42.88978303" lon="13.48682787">
        <ele>515.00000</ele>
        <time>2024-02-08T13:29:36Z</time>
      </trkpt>
      <trkpt lat="42.88990591" lon="13.48685226">
        <ele>514.00000</ele>
        <time>2024-02-08T13:29:37Z</time>
      </trkpt>
      <trkpt lat="42.89002116" lon="13.48682108">
        <ele>515.00000</ele>
        <time>2024-02-08T13:29:38Z</time>
      </trkpt>
      <trkpt lat="42.89011311" lon="13.48674522">
        <ele>514.00000</ele>
        <time>2024-02-08T13:29:39Z</time>
      </trkpt>
      <trkpt lat="42.89018905" lon="13.48664145">
        <ele>514.00000</ele>
        <time>2024-02-08T13:29:40Z</time>
      </trkpt>
      <trkpt lat="42.89026524" lon="13.48651388">
        <ele>513.00000</ele>
        <time>2024-02-08T13:29:41Z</time>
      </trkpt>
      <trkpt lat="42.89029081" lon="13.48637793">
        <ele>514.00000</ele>
        <time>2024-02-08T13:29:42Z</time>
      </trkpt>
      <trkpt lat="42.89030548" lon="13.48624608">
        <ele>514.00000</ele>
        <time>2024-02-08T13:29:43Z</time>
      </trkpt>
      <trkpt lat="42.89033071" lon="13.48614240">
        <ele>513.00000</ele>
        <time>2024-02-08T13:29:44Z</time>
      </trkpt>
      <trkpt lat="42.89036465" lon="13.48608666">
        <ele>511.00000</ele>
        <time>2024-02-08T13:29:45Z</time>
      </trkpt>
      <trkpt lat="42.89041025" lon="13.48610518">
        <ele>509.00000</ele>
        <time>2024-02-08T13:29:46Z</time>
      </trkpt>
      <trkpt lat="42.89043808" lon="13.48618799">
        <ele>507.00000</ele>
        <time>2024-02-08T13:29:47Z</time>
      </trkpt>
      <trkpt lat="42.89043867" lon="13.48629570">
        <ele>506.00000</ele>
        <time>2024-02-08T13:29:48Z</time>
      </trkpt>
      <trkpt lat="42.89042928" lon="13.48641598">
        <ele>506.00000</ele>
        <time>2024-02-08T13:29:49Z</time>
      </trkpt>
      <trkpt lat="42.89042467" lon="13.48653852">
        <ele>505.00000</ele>
        <time>2024-02-08T13:29:50Z</time>
      </trkpt>
      <trkpt lat="42.89040916" lon="13.48666291">
        <ele>504.00000</ele>
        <time>2024-02-08T13:29:51Z</time>
      </trkpt>
      <trkpt lat="42.89037773" lon="13.48677833">
        <ele>504.00000</ele>
        <time>2024-02-08T13:29:52Z</time>
      </trkpt>
      <trkpt lat="42.89030187" lon="13.48689174">
        <ele>506.00000</ele>
        <time>2024-02-08T13:29:53Z</time>
      </trkpt>
      <trkpt lat="42.89020875" lon="13.48699919">
        <ele>506.00000</ele>
        <time>2024-02-08T13:29:54Z</time>
      </trkpt>
      <trkpt lat="42.89008763" lon="13.48706717">
        <ele>507.00000</ele>
        <time>2024-02-08T13:29:55Z</time>
      </trkpt>
      <trkpt lat="42.88995889" lon="13.48709207">
        <ele>507.00000</ele>
        <time>2024-02-08T13:29:56Z</time>
      </trkpt>
      <trkpt lat="42.88982746" lon="13.48706809">
        <ele>509.00000</ele>
        <time>2024-02-08T13:29:57Z</time>
      </trkpt>
      <trkpt lat="42.88970818" lon="13.48705762">
        <ele>509.00000</ele>
        <time>2024-02-08T13:29:58Z</time>
      </trkpt>
      <trkpt lat="42.88959134" lon="13.48707086">
        <ele>508.00000</ele>
        <time>2024-02-08T13:29:59Z</time>
      </trkpt>
      <trkpt lat="42.88946921" lon="13.48707756">
        <ele>508.00000</ele>
        <time>2024-02-08T13:30:00Z</time>
      </trkpt>
      <trkpt lat="42.88934323" lon="13.48706466">
        <ele>506.00000</ele>
        <time>2024-02-08T13:30:01Z</time>
      </trkpt>
      <trkpt lat="42.88922220" lon="13.48701319">
        <ele>504.00000</ele>
        <time>2024-02-08T13:30:02Z</time>
      </trkpt>
      <trkpt lat="42.88910234" lon="13.48695326">
        <ele>502.00000</ele>
        <time>2024-02-08T13:30:03Z</time>
      </trkpt>
      <trkpt lat="42.88901450" lon="13.48693834">
        <ele>500.00000</ele>
        <time>2024-02-08T13:30:04Z</time>
      </trkpt>
      <trkpt lat="42.88896932" lon="13.48700271">
        <ele>498.00000</ele>
        <time>2024-02-08T13:30:05Z</time>
      </trkpt>
      <trkpt lat="42.88900930" lon="13.48712685">
        <ele>498.00000</ele>
        <time>2024-02-08T13:30:06Z</time>
      </trkpt>
      <trkpt lat="42.88906420" lon="13.48720581">
        <ele>498.00000</ele>
        <time>2024-02-08T13:30:07Z</time>
      </trkpt>
      <trkpt lat="42.88915565" lon="13.48729482">
        <ele>499.00000</ele>
        <time>2024-02-08T13:30:08Z</time>
      </trkpt>
      <trkpt lat="42.88922547" lon="13.48738476">
        <ele>498.00000</ele>
        <time>2024-02-08T13:30:09Z</time>
      </trkpt>
      <trkpt lat="42.88928263" lon="13.48749381">
        <ele>496.00000</ele>
        <time>2024-02-08T13:30:10Z</time>
      </trkpt>
      <trkpt lat="42.88930501" lon="13.48759766">
        <ele>495.00000</ele>
        <time>2024-02-08T13:30:11Z</time>
      </trkpt>
      <trkpt lat="42.88932312" lon="13.48775994">
        <ele>492.00000</ele>
        <time>2024-02-08T13:30:12Z</time>
      </trkpt>
      <trkpt lat="42.88931943" lon="13.48789815">
        <ele>490.00000</ele>
        <time>2024-02-08T13:30:13Z</time>
      </trkpt>
      <trkpt lat="42.88931524" lon="13.48804442">
        <ele>488.00000</ele>
        <time>2024-02-08T13:30:14Z</time>
      </trkpt>
      <trkpt lat="42.88929831" lon="13.48819211">
        <ele>487.00000</ele>
        <time>2024-02-08T13:30:15Z</time>
      </trkpt>
      <trkpt lat="42.88926528" lon="13.48833569">
        <ele>486.00000</ele>
        <time>2024-02-08T13:30:16Z</time>
      </trkpt>
      <trkpt lat="42.88921826" lon="13.48842378">
        <ele>487.00000</ele>
        <time>2024-02-08T13:30:17Z</time>
      </trkpt>
      <trkpt lat="42.88912581" lon="13.48853476">
        <ele>488.00000</ele>
        <time>2024-02-08T13:30:18Z</time>
      </trkpt>
      <trkpt lat="42.88902464" lon="13.48859067">
        <ele>489.00000</ele>
        <time>2024-02-08T13:30:19Z</time>
      </trkpt>
      <trkpt lat="42.88888508" lon="13.48858254">
        <ele>491.00000</ele>
        <time>2024-02-08T13:30:20Z</time>
      </trkpt>
      <trkpt lat="42.88875105" lon="13.48849603">
        <ele>491.00000</ele>
        <time>2024-02-08T13:30:21Z</time>
      </trkpt>
      <trkpt lat="42.88863044" lon="13.48843300">
        <ele>491.00000</ele>
        <time>2024-02-08T13:30:22Z</time>
      </trkpt>
      <trkpt lat="42.88850597" lon="13.48839855">
        <ele>490.00000</ele>
        <time>2024-02-08T13:30:23Z</time>
      </trkpt>
      <trkpt lat="42.88838694" lon="13.48839503">
        <ele>488.00000</ele>
        <time>2024-02-08T13:30:24Z</time>
      </trkpt>
      <trkpt lat="42.88827278" lon="13.48842252">
        <ele>486.00000</ele>
        <time>2024-02-08T13:30:25Z</time>
      </trkpt>
      <trkpt lat="42.88816474" lon="13.48850240">
        <ele>484.00000</ele>
        <time>2024-02-08T13:30:26Z</time>
      </trkpt>
      <trkpt lat="42.88807841" lon="13.48862193">
        <ele>481.00000</ele>
        <time>2024-02-08T13:30:27Z</time>
      </trkpt>
      <trkpt lat="42.88807790" lon="13.48878328">
        <ele>480.00000</ele>
        <time>2024-02-08T13:30:28Z</time>
      </trkpt>
      <trkpt lat="42.88814471" lon="13.48893198">
        <ele>481.00000</ele>
        <time>2024-02-08T13:30:29Z</time>
      </trkpt>
      <trkpt lat="42.88825032" lon="13.48904471">
        <ele>482.00000</ele>
        <time>2024-02-08T13:30:30Z</time>
      </trkpt>
      <trkpt lat="42.88835593" lon="13.48915041">
        <ele>484.00000</ele>
        <time>2024-02-08T13:30:31Z</time>
      </trkpt>
      <trkpt lat="42.88846540" lon="13.48926591">
        <ele>484.00000</ele>
        <time>2024-02-08T13:30:32Z</time>
      </trkpt>
      <trkpt lat="42.88854377" lon="13.48939608">
        <ele>484.00000</ele>
        <time>2024-02-08T13:30:33Z</time>
      </trkpt>
      <trkpt lat="42.88862382" lon="13.48953204">
        <ele>483.00000</ele>
        <time>2024-02-08T13:30:34Z</time>
      </trkpt>
      <trkpt lat="42.88870755" lon="13.48966405">
        <ele>482.00000</ele>
        <time>2024-02-08T13:30:35Z</time>
      </trkpt>
      <trkpt lat="42.88884283" lon="13.48991417">
        <ele>480.00000</ele>
        <time>2024-02-08T13:30:37Z</time>
      </trkpt>
      <trkpt lat="42.88885432" lon="13.49002917">
        <ele>479.00000</ele>
        <time>2024-02-08T13:30:38Z</time>
      </trkpt>
      <trkpt lat="42.88879808" lon="13.49011676">
        <ele>477.00000</ele>
        <time>2024-02-08T13:30:39Z</time>
      </trkpt>
      <trkpt lat="42.88871736" lon="13.49017015">
        <ele>475.00000</ele>
        <time>2024-02-08T13:30:40Z</time>
      </trkpt>
      <trkpt lat="42.88862172" lon="13.49018138">
        <ele>473.00000</ele>
        <time>2024-02-08T13:30:41Z</time>
      </trkpt>
      <trkpt lat="42.88851368" lon="13.49017862">
        <ele>472.00000</ele>
        <time>2024-02-08T13:30:42Z</time>
      </trkpt>
      <trkpt lat="42.88840455" lon="13.49018557">
        <ele>470.00000</ele>
        <time>2024-02-08T13:30:43Z</time>
      </trkpt>
      <trkpt lat="42.88829248" lon="13.49020661">
        <ele>468.00000</ele>
        <time>2024-02-08T13:30:44Z</time>
      </trkpt>
      <trkpt lat="42.88817605" lon="13.49023905">
        <ele>467.00000</ele>
        <time>2024-02-08T13:30:45Z</time>
      </trkpt>
      <trkpt lat="42.88805334" lon="13.49027937">
        <ele>465.00000</ele>
        <time>2024-02-08T13:30:46Z</time>
      </trkpt>
      <trkpt lat="42.88792686" lon="13.49032379">
        <ele>463.00000</ele>
        <time>2024-02-08T13:30:47Z</time>
      </trkpt>
      <trkpt lat="42.88765973" lon="13.49042044">
        <ele>459.00000</ele>
        <time>2024-02-08T13:30:49Z</time>
      </trkpt>
      <trkpt lat="42.88752252" lon="13.49046897">
        <ele>457.00000</ele>
        <time>2024-02-08T13:30:50Z</time>
      </trkpt>
      <trkpt lat="42.88740903" lon="13.49050895">
        <ele>456.00000</ele>
        <time>2024-02-08T13:30:51Z</time>
      </trkpt>
      <trkpt lat="42.88724030" lon="13.49056938">
        <ele>455.00000</ele>
        <time>2024-02-08T13:30:52Z</time>
      </trkpt>
      <trkpt lat="42.88695464" lon="13.49067206">
        <ele>454.00000</ele>
        <time>2024-02-08T13:30:54Z</time>
      </trkpt>
      <trkpt lat="42.88680779" lon="13.49072696">
        <ele>453.00000</ele>
        <time>2024-02-08T13:30:55Z</time>
      </trkpt>
      <trkpt lat="42.88666270" lon="13.49077926">
        <ele>452.00000</ele>
        <time>2024-02-08T13:30:56Z</time>
      </trkpt>
      <trkpt lat="42.88651795" lon="13.49083199">
        <ele>451.00000</ele>
        <time>2024-02-08T13:30:57Z</time>
      </trkpt>
      <trkpt lat="42.88637512" lon="13.49088429">
        <ele>451.00000</ele>
        <time>2024-02-08T13:30:58Z</time>
      </trkpt>
      <trkpt lat="42.88623087" lon="13.49093634">
        <ele>451.00000</ele>
        <time>2024-02-08T13:30:59Z</time>
      </trkpt>
      <trkpt lat="42.88608041" lon="13.49098445">
        <ele>451.00000</ele>
        <time>2024-02-08T13:31:00Z</time>
      </trkpt>
      <trkpt lat="42.88594345" lon="13.49103726">
        <ele>451.00000</ele>
        <time>2024-02-08T13:31:01Z</time>
      </trkpt>
      <trkpt lat="42.88580984" lon="13.49108981">
        <ele>451.00000</ele>
        <time>2024-02-08T13:31:02Z</time>
      </trkpt>
      <trkpt lat="42.88567883" lon="13.49114513">
        <ele>453.00000</ele>
        <time>2024-02-08T13:31:03Z</time>
      </trkpt>
      <trkpt lat="42.88555076" lon="13.49119073">
        <ele>455.00000</ele>
        <time>2024-02-08T13:31:04Z</time>
      </trkpt>
      <trkpt lat="42.88542411" lon="13.49123055">
        <ele>455.00000</ele>
        <time>2024-02-08T13:31:05Z</time>
      </trkpt>
      <trkpt lat="42.88529402" lon="13.49125435">
        <ele>455.00000</ele>
        <time>2024-02-08T13:31:06Z</time>
      </trkpt>
      <trkpt lat="42.88516293" lon="13.49126634">
        <ele>453.00000</ele>
        <time>2024-02-08T13:31:07Z</time>
      </trkpt>
      <trkpt lat="42.88503276" lon="13.49127380">
        <ele>451.00000</ele>
        <time>2024-02-08T13:31:08Z</time>
      </trkpt>
      <trkpt lat="42.88490342" lon="13.49128008">
        <ele>449.00000</ele>
        <time>2024-02-08T13:31:09Z</time>
      </trkpt>
      <trkpt lat="42.88477208" lon="13.49129190">
        <ele>447.00000</ele>
        <time>2024-02-08T13:31:10Z</time>
      </trkpt>
      <trkpt lat="42.88464258" lon="13.49131378">
        <ele>446.00000</ele>
        <time>2024-02-08T13:31:11Z</time>
      </trkpt>
      <trkpt lat="42.88454409" lon="13.49133633">
        <ele>446.00000</ele>
        <time>2024-02-08T13:31:12Z</time>
      </trkpt>
      <trkpt lat="42.88440009" lon="13.49139014">
        <ele>445.00000</ele>
        <time>2024-02-08T13:31:13Z</time>
      </trkpt>
      <trkpt lat="42.88428442" lon="13.49146096">
        <ele>443.00000</ele>
        <time>2024-02-08T13:31:14Z</time>
      </trkpt>
      <trkpt lat="42.88418048" lon="13.49155233">
        <ele>442.00000</ele>
        <time>2024-02-08T13:31:15Z</time>
      </trkpt>
      <trkpt lat="42.88407999" lon="13.49165459">
        <ele>441.00000</ele>
        <time>2024-02-08T13:31:16Z</time>
      </trkpt>
      <trkpt lat="42.88397748" lon="13.49175827">
        <ele>441.00000</ele>
        <time>2024-02-08T13:31:17Z</time>
      </trkpt>
      <trkpt lat="42.88387555" lon="13.49185014">
        <ele>440.00000</ele>
        <time>2024-02-08T13:31:18Z</time>
      </trkpt>
      <trkpt lat="42.88377631" lon="13.49192650">
        <ele>441.00000</ele>
        <time>2024-02-08T13:31:19Z</time>
      </trkpt>
      <trkpt lat="42.88367615" lon="13.49198886">
        <ele>441.00000</ele>
        <time>2024-02-08T13:31:20Z</time>
      </trkpt>
      <trkpt lat="42.88357581" lon="13.49204141">
        <ele>441.00000</ele>
        <time>2024-02-08T13:31:21Z</time>
      </trkpt>
      <trkpt lat="42.88347087" lon="13.49208726">
        <ele>440.00000</ele>
        <time>2024-02-08T13:31:22Z</time>
      </trkpt>
      <trkpt lat="42.88336291" lon="13.49212347">
        <ele>439.00000</ele>
        <time>2024-02-08T13:31:23Z</time>
      </trkpt>
      <trkpt lat="42.88325118" lon="13.49215247">
        <ele>438.00000</ele>
        <time>2024-02-08T13:31:24Z</time>
      </trkpt>
      <trkpt lat="42.88314775" lon="13.49216991">
        <ele>437.00000</ele>
        <time>2024-02-08T13:31:25Z</time>
      </trkpt>
      <trkpt lat="42.88304499" lon="13.49217745">
        <ele>437.00000</ele>
        <time>2024-02-08T13:31:26Z</time>
      </trkpt>
      <trkpt lat="42.88294097" lon="13.49218374">
        <ele>436.00000</ele>
        <time>2024-02-08T13:31:27Z</time>
      </trkpt>
      <trkpt lat="42.88283586" lon="13.49218809">
        <ele>435.00000</ele>
        <time>2024-02-08T13:31:28Z</time>
      </trkpt>
      <trkpt lat="42.88273092" lon="13.49218851">
        <ele>435.00000</ele>
        <time>2024-02-08T13:31:29Z</time>
      </trkpt>
      <trkpt lat="42.88261910" lon="13.49218659">
        <ele>434.00000</ele>
        <time>2024-02-08T13:31:30Z</time>
      </trkpt>
      <trkpt lat="42.88250310" lon="13.49217711">
        <ele>433.00000</ele>
        <time>2024-02-08T13:31:31Z</time>
      </trkpt>
      <trkpt lat="42.88239355" lon="13.49217234">
        <ele>432.00000</ele>
        <time>2024-02-08T13:31:32Z</time>
      </trkpt>
      <trkpt lat="42.88228232" lon="13.49217158">
        <ele>432.00000</ele>
        <time>2024-02-08T13:31:33Z</time>
      </trkpt>
      <trkpt lat="42.88216841" lon="13.49217016">
        <ele>431.00000</ele>
        <time>2024-02-08T13:31:34Z</time>
      </trkpt>
      <trkpt lat="42.88205366" lon="13.49216555">
        <ele>431.00000</ele>
        <time>2024-02-08T13:31:35Z</time>
      </trkpt>
      <trkpt lat="42.88193958" lon="13.49216504">
        <ele>430.00000</ele>
        <time>2024-02-08T13:31:36Z</time>
      </trkpt>
      <trkpt lat="42.88182685" lon="13.49216488">
        <ele>429.00000</ele>
        <time>2024-02-08T13:31:37Z</time>
      </trkpt>
      <trkpt lat="42.88171679" lon="13.49216152">
        <ele>428.00000</ele>
        <time>2024-02-08T13:31:38Z</time>
      </trkpt>
      <trkpt lat="42.88160716" lon="13.49215608">
        <ele>427.00000</ele>
        <time>2024-02-08T13:31:39Z</time>
      </trkpt>
      <trkpt lat="42.88150213" lon="13.49215339">
        <ele>426.00000</ele>
        <time>2024-02-08T13:31:40Z</time>
      </trkpt>
      <trkpt lat="42.88140909" lon="13.49216161">
        <ele>425.00000</ele>
        <time>2024-02-08T13:31:41Z</time>
      </trkpt>
      <trkpt lat="42.88132737" lon="13.49219497">
        <ele>424.00000</ele>
        <time>2024-02-08T13:31:42Z</time>
      </trkpt>
      <trkpt lat="42.88126409" lon="13.49224953">
        <ele>423.00000</ele>
        <time>2024-02-08T13:31:43Z</time>
      </trkpt>
      <trkpt lat="42.88123458" lon="13.49232547">
        <ele>422.00000</ele>
        <time>2024-02-08T13:31:44Z</time>
      </trkpt>
      <trkpt lat="42.88121849" lon="13.49243276">
        <ele>422.00000</ele>
        <time>2024-02-08T13:31:45Z</time>
      </trkpt>
      <trkpt lat="42.88122050" lon="13.49254013">
        <ele>422.00000</ele>
        <time>2024-02-08T13:31:46Z</time>
      </trkpt>
      <trkpt lat="42.88122628" lon="13.49264985">
        <ele>422.00000</ele>
        <time>2024-02-08T13:31:47Z</time>
      </trkpt>
      <trkpt lat="42.88123223" lon="13.49276544">
        <ele>422.00000</ele>
        <time>2024-02-08T13:31:48Z</time>
      </trkpt>
      <trkpt lat="42.88126786" lon="13.49288379">
        <ele>422.00000</ele>
        <time>2024-02-08T13:31:49Z</time>
      </trkpt>
      <trkpt lat="42.88130122" lon="13.49300064">
        <ele>422.00000</ele>
        <time>2024-02-08T13:31:50Z</time>
      </trkpt>
      <trkpt lat="42.88134480" lon="13.49310600">
        <ele>422.00000</ele>
        <time>2024-02-08T13:31:51Z</time>
      </trkpt>
      <trkpt lat="42.88139929" lon="13.49320675">
        <ele>423.00000</ele>
        <time>2024-02-08T13:31:52Z</time>
      </trkpt>
      <trkpt lat="42.88145343" lon="13.49328109">
        <ele>423.00000</ele>
        <time>2024-02-08T13:31:53Z</time>
      </trkpt>
      <trkpt lat="42.88153918" lon="13.49338369">
        <ele>423.00000</ele>
        <time>2024-02-08T13:31:54Z</time>
      </trkpt>
      <trkpt lat="42.88161344" lon="13.49347312">
        <ele>423.00000</ele>
        <time>2024-02-08T13:31:55Z</time>
      </trkpt>
      <trkpt lat="42.88168243" lon="13.49357890">
        <ele>423.00000</ele>
        <time>2024-02-08T13:31:56Z</time>
      </trkpt>
      <trkpt lat="42.88174160" lon="13.49367035">
        <ele>423.00000</ele>
        <time>2024-02-08T13:31:57Z</time>
      </trkpt>
      <trkpt lat="42.88189013" lon="13.49394762">
        <ele>423.00000</ele>
        <time>2024-02-08T13:31:59Z</time>
      </trkpt>
      <trkpt lat="42.88191813" lon="13.49408165">
        <ele>422.00000</ele>
        <time>2024-02-08T13:32:00Z</time>
      </trkpt>
      <trkpt lat="42.88192810" lon="13.49419472">
        <ele>422.00000</ele>
        <time>2024-02-08T13:32:01Z</time>
      </trkpt>
      <trkpt lat="42.88193522" lon="13.49436328">
        <ele>422.00000</ele>
        <time>2024-02-08T13:32:02Z</time>
      </trkpt>
      <trkpt lat="42.88192751" lon="13.49449915">
        <ele>422.00000</ele>
        <time>2024-02-08T13:32:03Z</time>
      </trkpt>
      <trkpt lat="42.88190312" lon="13.49462874">
        <ele>421.00000</ele>
        <time>2024-02-08T13:32:04Z</time>
      </trkpt>
      <trkpt lat="42.88187948" lon="13.49475723">
        <ele>421.00000</ele>
        <time>2024-02-08T13:32:05Z</time>
      </trkpt>
      <trkpt lat="42.88186104" lon="13.49488346">
        <ele>421.00000</ele>
        <time>2024-02-08T13:32:06Z</time>
      </trkpt>
      <trkpt lat="42.88184160" lon="13.49498941">
        <ele>421.00000</ele>
        <time>2024-02-08T13:32:07Z</time>
      </trkpt>
      <trkpt lat="42.88181008" lon="13.49507348">
        <ele>420.00000</ele>
        <time>2024-02-08T13:32:08Z</time>
      </trkpt>
      <trkpt lat="42.88180019" lon="13.49513802">
        <ele>420.00000</ele>
        <time>2024-02-08T13:32:09Z</time>
      </trkpt>
      <trkpt lat="42.88179500" lon="13.49518278">
        <ele>420.00000</ele>
        <time>2024-02-08T13:32:10Z</time>
      </trkpt>
      <trkpt lat="42.88178703" lon="13.49517398">
        <ele>420.00000</ele>
        <time>2024-02-08T13:32:11Z</time>
      </trkpt>
      <trkpt lat="42.88178469" lon="13.49516225">
        <ele>420.00000</ele>
        <time>2024-02-08T13:32:12Z</time>
      </trkpt>
      <trkpt lat="42.88178720" lon="13.49513785">
        <ele>420.00000</ele>
        <time>2024-02-08T13:32:13Z</time>
      </trkpt>
      <trkpt lat="42.88179282" lon="13.49511145">
        <ele>420.00000</ele>
        <time>2024-02-08T13:32:14Z</time>
      </trkpt>
      <trkpt lat="42.88179449" lon="13.49508421">
        <ele>420.00000</ele>
        <time>2024-02-08T13:32:15Z</time>
      </trkpt>
      <trkpt lat="42.88179248" lon="13.49505932">
        <ele>420.00000</ele>
        <time>2024-02-08T13:32:16Z</time>
      </trkpt>
      <trkpt lat="42.88179667" lon="13.49503057">
        <ele>420.00000</ele>
        <time>2024-02-08T13:32:17Z</time>
      </trkpt>
      <trkpt lat="42.88180313" lon="13.49501104">
        <ele>420.00000</ele>
        <time>2024-02-08T13:32:18Z</time>
      </trkpt>
      <trkpt lat="42.88180715" lon="13.49499377">
        <ele>420.00000</ele>
        <time>2024-02-08T13:32:19Z</time>
      </trkpt>
      <trkpt lat="42.88180832" lon="13.49498581">
        <ele>421.00000</ele>
        <time>2024-02-08T13:32:20Z</time>
      </trkpt>
      <trkpt lat="42.88181042" lon="13.49498480">
        <ele>421.00000</ele>
        <time>2024-02-08T13:32:21Z</time>
      </trkpt>
      <trkpt lat="42.88181184" lon="13.49498581">
        <ele>421.00000</ele>
        <time>2024-02-08T13:32:22Z</time>
      </trkpt>
      <trkpt lat="42.88181176" lon="13.49498840">
        <ele>421.00000</ele>
        <time>2024-02-08T13:32:24Z</time>
      </trkpt>
      <trkpt lat="42.88180707" lon="13.49500391">
        <ele>420.00000</ele>
        <time>2024-02-08T13:32:25Z</time>
      </trkpt>
      <trkpt lat="42.88180447" lon="13.49501095">
        <ele>420.00000</ele>
        <time>2024-02-08T13:32:26Z</time>
      </trkpt>
      <trkpt lat="42.88178594" lon="13.49510265">
        <ele>420.00000</ele>
        <time>2024-02-08T13:32:32Z</time>
      </trkpt>
      <trkpt lat="42.88177588" lon="13.49514523">
        <ele>420.00000</ele>
        <time>2024-02-08T13:32:33Z</time>
      </trkpt>
      <trkpt lat="42.88176759" lon="13.49518982">
        <ele>420.00000</ele>
        <time>2024-02-08T13:32:34Z</time>
      </trkpt>
      <trkpt lat="42.88175300" lon="13.49523802">
        <ele>420.00000</ele>
        <time>2024-02-08T13:32:35Z</time>
      </trkpt>
      <trkpt lat="42.88173389" lon="13.49528940">
        <ele>420.00000</ele>
        <time>2024-02-08T13:32:36Z</time>
      </trkpt>
      <trkpt lat="42.88171797" lon="13.49533785">
        <ele>420.00000</ele>
        <time>2024-02-08T13:32:37Z</time>
      </trkpt>
      <trkpt lat="42.88170045" lon="13.49538680">
        <ele>420.00000</ele>
        <time>2024-02-08T13:32:38Z</time>
      </trkpt>
      <trkpt lat="42.88166658" lon="13.49547472">
        <ele>420.00000</ele>
        <time>2024-02-08T13:32:40Z</time>
      </trkpt>
      <trkpt lat="42.88164169" lon="13.49551923">
        <ele>420.00000</ele>
        <time>2024-02-08T13:32:41Z</time>
      </trkpt>
      <trkpt lat="42.88161445" lon="13.49555628">
        <ele>420.00000</ele>
        <time>2024-02-08T13:32:42Z</time>
      </trkpt>
      <trkpt lat="42.88158092" lon="13.49558779">
        <ele>420.00000</ele>
        <time>2024-02-08T13:32:43Z</time>
      </trkpt>
      <trkpt lat="42.88154371" lon="13.49560800">
        <ele>420.00000</ele>
        <time>2024-02-08T13:32:44Z</time>
      </trkpt>
      <trkpt lat="42.88149476" lon="13.49561856">
        <ele>419.00000</ele>
        <time>2024-02-08T13:32:45Z</time>
      </trkpt>
      <trkpt lat="42.88144371" lon="13.49562233">
        <ele>419.00000</ele>
        <time>2024-02-08T13:32:46Z</time>
      </trkpt>
      <trkpt lat="42.88139476" lon="13.49561797">
        <ele>419.00000</ele>
        <time>2024-02-08T13:32:47Z</time>
      </trkpt>
      <trkpt lat="42.88131857" lon="13.49561621">
        <ele>418.00000</ele>
        <time>2024-02-08T13:32:48Z</time>
      </trkpt>
      <trkpt lat="42.88125185" lon="13.49560984">
        <ele>417.00000</ele>
        <time>2024-02-08T13:32:49Z</time>
      </trkpt>
      <trkpt lat="42.88117985" lon="13.49559827">
        <ele>416.00000</ele>
        <time>2024-02-08T13:32:50Z</time>
      </trkpt>
      <trkpt lat="42.88110625" lon="13.49558444">
        <ele>415.00000</ele>
        <time>2024-02-08T13:32:51Z</time>
      </trkpt>
      <trkpt lat="42.88103023" lon="13.49556927">
        <ele>415.00000</ele>
        <time>2024-02-08T13:32:52Z</time>
      </trkpt>
      <trkpt lat="42.88094515" lon="13.49554966">
        <ele>414.00000</ele>
        <time>2024-02-08T13:32:53Z</time>
      </trkpt>
      <trkpt lat="42.88086033" lon="13.49552853">
        <ele>414.00000</ele>
        <time>2024-02-08T13:32:54Z</time>
      </trkpt>
      <trkpt lat="42.88077098" lon="13.49550465">
        <ele>413.00000</ele>
        <time>2024-02-08T13:32:55Z</time>
      </trkpt>
      <trkpt lat="42.88068020" lon="13.49548310">
        <ele>412.00000</ele>
        <time>2024-02-08T13:32:56Z</time>
      </trkpt>
      <trkpt lat="42.88060703" lon="13.49546684">
        <ele>411.00000</ele>
        <time>2024-02-08T13:32:57Z</time>
      </trkpt>
      <trkpt lat="42.88049211" lon="13.49544161">
        <ele>409.00000</ele>
        <time>2024-02-08T13:32:58Z</time>
      </trkpt>
      <trkpt lat="42.88039580" lon="13.49542217">
        <ele>407.00000</ele>
        <time>2024-02-08T13:32:59Z</time>
      </trkpt>
      <trkpt lat="42.88029891" lon="13.49540465">
        <ele>406.00000</ele>
        <time>2024-02-08T13:33:00Z</time>
      </trkpt>
      <trkpt lat="42.88020134" lon="13.49539543">
        <ele>405.00000</ele>
        <time>2024-02-08T13:33:01Z</time>
      </trkpt>
      <trkpt lat="42.88010504" lon="13.49540381">
        <ele>404.00000</ele>
        <time>2024-02-08T13:33:02Z</time>
      </trkpt>
      <trkpt lat="42.88000999" lon="13.49543332">
        <ele>403.00000</ele>
        <time>2024-02-08T13:33:03Z</time>
      </trkpt>
      <trkpt lat="42.87991921" lon="13.49549140">
        <ele>402.00000</ele>
        <time>2024-02-08T13:33:04Z</time>
      </trkpt>
      <trkpt lat="42.87983262" lon="13.49558059">
        <ele>402.00000</ele>
        <time>2024-02-08T13:33:05Z</time>
      </trkpt>
      <trkpt lat="42.87968100" lon="13.49581025">
        <ele>402.00000</ele>
        <time>2024-02-08T13:33:07Z</time>
      </trkpt>
      <trkpt lat="42.87960958" lon="13.49592860">
        <ele>402.00000</ele>
        <time>2024-02-08T13:33:08Z</time>
      </trkpt>
      <trkpt lat="42.87953758" lon="13.49604855">
        <ele>401.00000</ele>
        <time>2024-02-08T13:33:09Z</time>
      </trkpt>
      <trkpt lat="42.87946273" lon="13.49617159">
        <ele>401.00000</ele>
        <time>2024-02-08T13:33:10Z</time>
      </trkpt>
      <trkpt lat="42.87938796" lon="13.49629280">
        <ele>400.00000</ele>
        <time>2024-02-08T13:33:11Z</time>
      </trkpt>
      <trkpt lat="42.87930808" lon="13.49640847">
        <ele>400.00000</ele>
        <time>2024-02-08T13:33:12Z</time>
      </trkpt>
      <trkpt lat="42.87921974" lon="13.49651307">
        <ele>400.00000</ele>
        <time>2024-02-08T13:33:13Z</time>
      </trkpt>
      <trkpt lat="42.87912502" lon="13.49660075">
        <ele>400.00000</ele>
        <time>2024-02-08T13:33:14Z</time>
      </trkpt>
      <trkpt lat="42.87902436" lon="13.49667250">
        <ele>399.00000</ele>
        <time>2024-02-08T13:33:15Z</time>
      </trkpt>
      <trkpt lat="42.87891657" lon="13.49672505">
        <ele>397.00000</ele>
        <time>2024-02-08T13:33:16Z</time>
      </trkpt>
      <trkpt lat="42.87880551" lon="13.49676612">
        <ele>397.00000</ele>
        <time>2024-02-08T13:33:17Z</time>
      </trkpt>
      <trkpt lat="42.87869361" lon="13.49680225">
        <ele>396.00000</ele>
        <time>2024-02-08T13:33:18Z</time>
      </trkpt>
      <trkpt lat="42.87846445" lon="13.49686813">
        <ele>398.00000</ele>
        <time>2024-02-08T13:33:20Z</time>
      </trkpt>
      <trkpt lat="42.87835062" lon="13.49690157">
        <ele>399.00000</ele>
        <time>2024-02-08T13:33:21Z</time>
      </trkpt>
      <trkpt lat="42.87824308" lon="13.49693267">
        <ele>398.00000</ele>
        <time>2024-02-08T13:33:22Z</time>
      </trkpt>
      <trkpt lat="42.87813462" lon="13.49695949">
        <ele>397.00000</ele>
        <time>2024-02-08T13:33:23Z</time>
      </trkpt>
      <trkpt lat="42.87802465" lon="13.49698556">
        <ele>396.00000</ele>
        <time>2024-02-08T13:33:24Z</time>
      </trkpt>
      <trkpt lat="42.87791652" lon="13.49701247">
        <ele>392.00000</ele>
        <time>2024-02-08T13:33:25Z</time>
      </trkpt>
      <trkpt lat="42.87781041" lon="13.49703962">
        <ele>388.00000</ele>
        <time>2024-02-08T13:33:26Z</time>
      </trkpt>
      <trkpt lat="42.87771075" lon="13.49706896">
        <ele>385.00000</ele>
        <time>2024-02-08T13:33:27Z</time>
      </trkpt>
      <trkpt lat="42.87762416" lon="13.49711531">
        <ele>383.00000</ele>
        <time>2024-02-08T13:33:28Z</time>
      </trkpt>
      <trkpt lat="42.87756071" lon="13.49720072">
        <ele>382.00000</ele>
        <time>2024-02-08T13:33:29Z</time>
      </trkpt>
      <trkpt lat="42.87753774" lon="13.49731237">
        <ele>381.00000</ele>
        <time>2024-02-08T13:33:30Z</time>
      </trkpt>
      <trkpt lat="42.87756825" lon="13.49742997">
        <ele>382.00000</ele>
        <time>2024-02-08T13:33:31Z</time>
      </trkpt>
      <trkpt lat="42.87763346" lon="13.49753114">
        <ele>384.00000</ele>
        <time>2024-02-08T13:33:32Z</time>
      </trkpt>
      <trkpt lat="42.87770831" lon="13.49762988">
        <ele>386.00000</ele>
        <time>2024-02-08T13:33:33Z</time>
      </trkpt>
      <trkpt lat="42.87777906" lon="13.49774094">
        <ele>388.00000</ele>
        <time>2024-02-08T13:33:34Z</time>
      </trkpt>
      <trkpt lat="42.87782541" lon="13.49787170">
        <ele>389.00000</ele>
        <time>2024-02-08T13:33:35Z</time>
      </trkpt>
      <trkpt lat="42.87782155" lon="13.49801042">
        <ele>389.00000</ele>
        <time>2024-02-08T13:33:36Z</time>
      </trkpt>
      <trkpt lat="42.87777101" lon="13.49813221">
        <ele>387.00000</ele>
        <time>2024-02-08T13:33:37Z</time>
      </trkpt>
      <trkpt lat="42.87769725" lon="13.49823061">
        <ele>385.00000</ele>
        <time>2024-02-08T13:33:38Z</time>
      </trkpt>
      <trkpt lat="42.87761519" lon="13.49832591">
        <ele>382.00000</ele>
        <time>2024-02-08T13:33:39Z</time>
      </trkpt>
      <trkpt lat="42.87752810" lon="13.49842851">
        <ele>380.00000</ele>
        <time>2024-02-08T13:33:40Z</time>
      </trkpt>
      <trkpt lat="42.87744848" lon="13.49854795">
        <ele>379.00000</ele>
        <time>2024-02-08T13:33:41Z</time>
      </trkpt>
      <trkpt lat="42.87736952" lon="13.49867158">
        <ele>378.00000</ele>
        <time>2024-02-08T13:33:42Z</time>
      </trkpt>
      <trkpt lat="42.87729919" lon="13.49880536">
        <ele>379.00000</ele>
        <time>2024-02-08T13:33:43Z</time>
      </trkpt>
      <trkpt lat="42.87724622" lon="13.49895514">
        <ele>378.00000</ele>
        <time>2024-02-08T13:33:44Z</time>
      </trkpt>
      <trkpt lat="42.87721060" lon="13.49911750">
        <ele>377.00000</ele>
        <time>2024-02-08T13:33:45Z</time>
      </trkpt>
      <trkpt lat="42.87718445" lon="13.49928497">
        <ele>377.00000</ele>
        <time>2024-02-08T13:33:46Z</time>
      </trkpt>
      <trkpt lat="42.87716575" lon="13.49945596">
        <ele>377.00000</ele>
        <time>2024-02-08T13:33:47Z</time>
      </trkpt>
      <trkpt lat="42.87714396" lon="13.49962611">
        <ele>376.00000</ele>
        <time>2024-02-08T13:33:48Z</time>
      </trkpt>
      <trkpt lat="42.87712317" lon="13.49979509">
        <ele>376.00000</ele>
        <time>2024-02-08T13:33:49Z</time>
      </trkpt>
      <trkpt lat="42.87710230" lon="13.49995971">
        <ele>376.00000</ele>
        <time>2024-02-08T13:33:50Z</time>
      </trkpt>
      <trkpt lat="42.87707976" lon="13.50012106">
        <ele>375.00000</ele>
        <time>2024-02-08T13:33:51Z</time>
      </trkpt>
      <trkpt lat="42.87705218" lon="13.50027982">
        <ele>374.00000</ele>
        <time>2024-02-08T13:33:52Z</time>
      </trkpt>
      <trkpt lat="42.87702720" lon="13.50044343">
        <ele>372.00000</ele>
        <time>2024-02-08T13:33:53Z</time>
      </trkpt>
      <trkpt lat="42.87700247" lon="13.50060855">
        <ele>370.00000</ele>
        <time>2024-02-08T13:33:54Z</time>
      </trkpt>
      <trkpt lat="42.87697842" lon="13.50077795">
        <ele>368.00000</ele>
        <time>2024-02-08T13:33:55Z</time>
      </trkpt>
      <trkpt lat="42.87695788" lon="13.50094668">
        <ele>367.00000</ele>
        <time>2024-02-08T13:33:56Z</time>
      </trkpt>
      <trkpt lat="42.87694456" lon="13.50108372">
        <ele>366.00000</ele>
        <time>2024-02-08T13:33:57Z</time>
      </trkpt>
      <trkpt lat="42.87692243" lon="13.50128087">
        <ele>364.00000</ele>
        <time>2024-02-08T13:33:58Z</time>
      </trkpt>
      <trkpt lat="42.87690055" lon="13.50144331">
        <ele>363.00000</ele>
        <time>2024-02-08T13:33:59Z</time>
      </trkpt>
      <trkpt lat="42.87688060" lon="13.50160659">
        <ele>362.00000</ele>
        <time>2024-02-08T13:34:00Z</time>
      </trkpt>
      <trkpt lat="42.87686954" lon="13.50177858">
        <ele>361.00000</ele>
        <time>2024-02-08T13:34:01Z</time>
      </trkpt>
      <trkpt lat="42.87685395" lon="13.50194614">
        <ele>360.00000</ele>
        <time>2024-02-08T13:34:02Z</time>
      </trkpt>
      <trkpt lat="42.87683735" lon="13.50211193">
        <ele>360.00000</ele>
        <time>2024-02-08T13:34:03Z</time>
      </trkpt>
      <trkpt lat="42.87682277" lon="13.50227907">
        <ele>361.00000</ele>
        <time>2024-02-08T13:34:04Z</time>
      </trkpt>
      <trkpt lat="42.87680852" lon="13.50245065">
        <ele>362.00000</ele>
        <time>2024-02-08T13:34:05Z</time>
      </trkpt>
      <trkpt lat="42.87679611" lon="13.50259037">
        <ele>362.00000</ele>
        <time>2024-02-08T13:34:06Z</time>
      </trkpt>
      <trkpt lat="42.87677491" lon="13.50279665">
        <ele>360.00000</ele>
        <time>2024-02-08T13:34:07Z</time>
      </trkpt>
      <trkpt lat="42.87675571" lon="13.50296890">
        <ele>358.00000</ele>
        <time>2024-02-08T13:34:08Z</time>
      </trkpt>
      <trkpt lat="42.87673660" lon="13.50314240">
        <ele>356.00000</ele>
        <time>2024-02-08T13:34:09Z</time>
      </trkpt>
      <trkpt lat="42.87671933" lon="13.50331733">
        <ele>356.00000</ele>
        <time>2024-02-08T13:34:10Z</time>
      </trkpt>
      <trkpt lat="42.87670408" lon="13.50349243">
        <ele>355.00000</ele>
        <time>2024-02-08T13:34:11Z</time>
      </trkpt>
      <trkpt lat="42.87668849" lon="13.50366778">
        <ele>354.00000</ele>
        <time>2024-02-08T13:34:12Z</time>
      </trkpt>
      <trkpt lat="42.87667072" lon="13.50384254">
        <ele>354.00000</ele>
        <time>2024-02-08T13:34:13Z</time>
      </trkpt>
      <trkpt lat="42.87665043" lon="13.50401672">
        <ele>353.00000</ele>
        <time>2024-02-08T13:34:14Z</time>
      </trkpt>
      <trkpt lat="42.87662914" lon="13.50415427">
        <ele>353.00000</ele>
        <time>2024-02-08T13:34:15Z</time>
      </trkpt>
      <trkpt lat="42.87658933" lon="13.50435602">
        <ele>352.00000</ele>
        <time>2024-02-08T13:34:16Z</time>
      </trkpt>
      <trkpt lat="42.87654809" lon="13.50451813">
        <ele>351.00000</ele>
        <time>2024-02-08T13:34:17Z</time>
      </trkpt>
      <trkpt lat="42.87650409" lon="13.50467889">
        <ele>350.00000</ele>
        <time>2024-02-08T13:34:18Z</time>
      </trkpt>
      <trkpt lat="42.87645799" lon="13.50483546">
        <ele>349.00000</ele>
        <time>2024-02-08T13:34:19Z</time>
      </trkpt>
      <trkpt lat="42.87641725" lon="13.50495952">
        <ele>349.00000</ele>
        <time>2024-02-08T13:34:20Z</time>
      </trkpt>
      <trkpt lat="42.87636486" lon="13.50511173">
        <ele>347.00000</ele>
        <time>2024-02-08T13:34:21Z</time>
      </trkpt>
      <trkpt lat="42.87630317" lon="13.50529639">
        <ele>346.00000</ele>
        <time>2024-02-08T13:34:22Z</time>
      </trkpt>
      <trkpt lat="42.87625305" lon="13.50544810">
        <ele>345.00000</ele>
        <time>2024-02-08T13:34:23Z</time>
      </trkpt>
      <trkpt lat="42.87620452" lon="13.50559847">
        <ele>344.00000</ele>
        <time>2024-02-08T13:34:24Z</time>
      </trkpt>
      <trkpt lat="42.87615599" lon="13.50574725">
        <ele>343.00000</ele>
        <time>2024-02-08T13:34:25Z</time>
      </trkpt>
      <trkpt lat="42.87610678" lon="13.50589745">
        <ele>342.00000</ele>
        <time>2024-02-08T13:34:26Z</time>
      </trkpt>
      <trkpt lat="42.87605859" lon="13.50605101">
        <ele>341.00000</ele>
        <time>2024-02-08T13:34:27Z</time>
      </trkpt>
      <trkpt lat="42.87601224" lon="13.50620515">
        <ele>341.00000</ele>
        <time>2024-02-08T13:34:28Z</time>
      </trkpt>
      <trkpt lat="42.87596521" lon="13.50635636">
        <ele>341.00000</ele>
        <time>2024-02-08T13:34:29Z</time>
      </trkpt>
      <trkpt lat="42.87591802" lon="13.50650556">
        <ele>341.00000</ele>
        <time>2024-02-08T13:34:30Z</time>
      </trkpt>
      <trkpt lat="42.87588031" lon="13.50662550">
        <ele>342.00000</ele>
        <time>2024-02-08T13:34:31Z</time>
      </trkpt>
      <trkpt lat="42.87582674" lon="13.50680873">
        <ele>342.00000</ele>
        <time>2024-02-08T13:34:32Z</time>
      </trkpt>
      <trkpt lat="42.87579037" lon="13.50696891">
        <ele>342.00000</ele>
        <time>2024-02-08T13:34:33Z</time>
      </trkpt>
      <trkpt lat="42.87577260" lon="13.50713546">
        <ele>340.00000</ele>
        <time>2024-02-08T13:34:34Z</time>
      </trkpt>
      <trkpt lat="42.87578023" lon="13.50726672">
        <ele>339.00000</ele>
        <time>2024-02-08T13:34:35Z</time>
      </trkpt>
      <trkpt lat="42.87581501" lon="13.50745565">
        <ele>337.00000</ele>
        <time>2024-02-08T13:34:36Z</time>
      </trkpt>
      <trkpt lat="42.87585918" lon="13.50761029">
        <ele>336.00000</ele>
        <time>2024-02-08T13:34:37Z</time>
      </trkpt>
      <trkpt lat="42.87590931" lon="13.50776393">
        <ele>336.00000</ele>
        <time>2024-02-08T13:34:38Z</time>
      </trkpt>
      <trkpt lat="42.87596002" lon="13.50791766">
        <ele>338.00000</ele>
        <time>2024-02-08T13:34:39Z</time>
      </trkpt>
      <trkpt lat="42.87600142" lon="13.50807264">
        <ele>341.00000</ele>
        <time>2024-02-08T13:34:40Z</time>
      </trkpt>
      <trkpt lat="42.87601727" lon="13.50822980">
        <ele>344.00000</ele>
        <time>2024-02-08T13:34:41Z</time>
      </trkpt>
      <trkpt lat="42.87599564" lon="13.50838243">
        <ele>345.00000</ele>
        <time>2024-02-08T13:34:42Z</time>
      </trkpt>
      <trkpt lat="42.87593697" lon="13.50851621">
        <ele>346.00000</ele>
        <time>2024-02-08T13:34:43Z</time>
      </trkpt>
      <trkpt lat="42.87586656" lon="13.50864035">
        <ele>345.00000</ele>
        <time>2024-02-08T13:34:44Z</time>
      </trkpt>
      <trkpt lat="42.87579447" lon="13.50876297">
        <ele>346.00000</ele>
        <time>2024-02-08T13:34:45Z</time>
      </trkpt>
      <trkpt lat="42.87571845" lon="13.50887973">
        <ele>346.00000</ele>
        <time>2024-02-08T13:34:46Z</time>
      </trkpt>
      <trkpt lat="42.87562969" lon="13.50898593">
        <ele>345.00000</ele>
        <time>2024-02-08T13:34:47Z</time>
      </trkpt>
      <trkpt lat="42.87552701" lon="13.50906874">
        <ele>344.00000</ele>
        <time>2024-02-08T13:34:48Z</time>
      </trkpt>
      <trkpt lat="42.87541595" lon="13.50913764">
        <ele>342.00000</ele>
        <time>2024-02-08T13:34:49Z</time>
      </trkpt>
      <trkpt lat="42.87530489" lon="13.50920160">
        <ele>340.00000</ele>
        <time>2024-02-08T13:34:50Z</time>
      </trkpt>
      <trkpt lat="42.87518997" lon="13.50926186">
        <ele>337.00000</ele>
        <time>2024-02-08T13:34:51Z</time>
      </trkpt>
      <trkpt lat="42.87508009" lon="13.50932716">
        <ele>335.00000</ele>
        <time>2024-02-08T13:34:52Z</time>
      </trkpt>
      <trkpt lat="42.87498109" lon="13.50940369">
        <ele>334.00000</ele>
        <time>2024-02-08T13:34:53Z</time>
      </trkpt>
      <trkpt lat="42.87488965" lon="13.50949974">
        <ele>332.00000</ele>
        <time>2024-02-08T13:34:54Z</time>
      </trkpt>
      <trkpt lat="42.87481027" lon="13.50961516">
        <ele>330.00000</ele>
        <time>2024-02-08T13:34:55Z</time>
      </trkpt>
      <trkpt lat="42.87473651" lon="13.50973955">
        <ele>329.00000</ele>
        <time>2024-02-08T13:34:56Z</time>
      </trkpt>
      <trkpt lat="42.87466091" lon="13.50986352">
        <ele>330.00000</ele>
        <time>2024-02-08T13:34:57Z</time>
      </trkpt>
      <trkpt lat="42.87458321" lon="13.50998874">
        <ele>330.00000</ele>
        <time>2024-02-08T13:34:58Z</time>
      </trkpt>
      <trkpt lat="42.87450425" lon="13.51010860">
        <ele>331.00000</ele>
        <time>2024-02-08T13:34:59Z</time>
      </trkpt>
      <trkpt lat="42.87442848" lon="13.51023140">
        <ele>330.00000</ele>
        <time>2024-02-08T13:35:00Z</time>
      </trkpt>
      <trkpt lat="42.87435639" lon="13.51036241">
        <ele>330.00000</ele>
        <time>2024-02-08T13:35:01Z</time>
      </trkpt>
      <trkpt lat="42.87429763" lon="13.51050524">
        <ele>331.00000</ele>
        <time>2024-02-08T13:35:02Z</time>
      </trkpt>
      <trkpt lat="42.87425346" lon="13.51065326">
        <ele>331.00000</ele>
        <time>2024-02-08T13:35:03Z</time>
      </trkpt>
      <trkpt lat="42.87422044" lon="13.51080615">
        <ele>331.00000</ele>
        <time>2024-02-08T13:35:04Z</time>
      </trkpt>
      <trkpt lat="42.87419370" lon="13.51095878">
        <ele>330.00000</ele>
        <time>2024-02-08T13:35:05Z</time>
      </trkpt>
      <trkpt lat="42.87417400" lon="13.51111359">
        <ele>330.00000</ele>
        <time>2024-02-08T13:35:06Z</time>
      </trkpt>
      <trkpt lat="42.87415011" lon="13.51126422">
        <ele>328.00000</ele>
        <time>2024-02-08T13:35:07Z</time>
      </trkpt>
      <trkpt lat="42.87413578" lon="13.51142046">
        <ele>328.00000</ele>
        <time>2024-02-08T13:35:08Z</time>
      </trkpt>
      <trkpt lat="42.87410804" lon="13.51158013">
        <ele>327.00000</ele>
        <time>2024-02-08T13:35:09Z</time>
      </trkpt>
      <trkpt lat="42.87406370" lon="13.51172698">
        <ele>327.00000</ele>
        <time>2024-02-08T13:35:10Z</time>
      </trkpt>
      <trkpt lat="42.87399605" lon="13.51185665">
        <ele>327.00000</ele>
        <time>2024-02-08T13:35:11Z</time>
      </trkpt>
      <trkpt lat="42.87391592" lon="13.51198053">
        <ele>327.00000</ele>
        <time>2024-02-08T13:35:12Z</time>
      </trkpt>
      <trkpt lat="42.87383856" lon="13.51210325">
        <ele>327.00000</ele>
        <time>2024-02-08T13:35:13Z</time>
      </trkpt>
      <trkpt lat="42.87377527" lon="13.51223166">
        <ele>326.00000</ele>
        <time>2024-02-08T13:35:14Z</time>
      </trkpt>
      <trkpt lat="42.87371652" lon="13.51236786">
        <ele>327.00000</ele>
        <time>2024-02-08T13:35:15Z</time>
      </trkpt>
      <trkpt lat="42.87366371" lon="13.51251706">
        <ele>327.00000</ele>
        <time>2024-02-08T13:35:16Z</time>
      </trkpt>
      <trkpt lat="42.87362356" lon="13.51267363">
        <ele>327.00000</ele>
        <time>2024-02-08T13:35:17Z</time>
      </trkpt>
      <trkpt lat="42.87358811" lon="13.51282987">
        <ele>327.00000</ele>
        <time>2024-02-08T13:35:18Z</time>
      </trkpt>
      <trkpt lat="42.87354595" lon="13.51298267">
        <ele>328.00000</ele>
        <time>2024-02-08T13:35:19Z</time>
      </trkpt>
      <trkpt lat="42.87349591" lon="13.51313103">
        <ele>327.00000</ele>
        <time>2024-02-08T13:35:20Z</time>
      </trkpt>
      <trkpt lat="42.87344385" lon="13.51327302">
        <ele>325.00000</ele>
        <time>2024-02-08T13:35:21Z</time>
      </trkpt>
      <trkpt lat="42.87339507" lon="13.51341702">
        <ele>325.00000</ele>
        <time>2024-02-08T13:35:22Z</time>
      </trkpt>
      <trkpt lat="42.87333732" lon="13.51372146">
        <ele>324.00000</ele>
        <time>2024-02-08T13:35:24Z</time>
      </trkpt>
      <trkpt lat="42.87331528" lon="13.51388071">
        <ele>323.00000</ele>
        <time>2024-02-08T13:35:25Z</time>
      </trkpt>
      <trkpt lat="42.87329968" lon="13.51403997">
        <ele>321.00000</ele>
        <time>2024-02-08T13:35:26Z</time>
      </trkpt>
      <trkpt lat="42.87328820" lon="13.51420207">
        <ele>319.00000</ele>
        <time>2024-02-08T13:35:27Z</time>
      </trkpt>
      <trkpt lat="42.87327948" lon="13.51436376">
        <ele>317.00000</ele>
        <time>2024-02-08T13:35:28Z</time>
      </trkpt>
      <trkpt lat="42.87328007" lon="13.51452629">
        <ele>314.00000</ele>
        <time>2024-02-08T13:35:29Z</time>
      </trkpt>
      <trkpt lat="42.87328007" lon="13.51468957">
        <ele>311.00000</ele>
        <time>2024-02-08T13:35:30Z</time>
      </trkpt>
      <trkpt lat="42.87328518" lon="13.51485276">
        <ele>308.00000</ele>
        <time>2024-02-08T13:35:31Z</time>
      </trkpt>
      <trkpt lat="42.87328653" lon="13.51501302">
        <ele>306.00000</ele>
        <time>2024-02-08T13:35:32Z</time>
      </trkpt>
      <trkpt lat="42.87328544" lon="13.51517270">
        <ele>305.00000</ele>
        <time>2024-02-08T13:35:33Z</time>
      </trkpt>
      <trkpt lat="42.87328016" lon="13.51533606">
        <ele>305.00000</ele>
        <time>2024-02-08T13:35:34Z</time>
      </trkpt>
      <trkpt lat="42.87326456" lon="13.51550135">
        <ele>306.00000</ele>
        <time>2024-02-08T13:35:35Z</time>
      </trkpt>
      <trkpt lat="42.87323372" lon="13.51566203">
        <ele>307.00000</ele>
        <time>2024-02-08T13:35:36Z</time>
      </trkpt>
      <trkpt lat="42.87318343" lon="13.51580838">
        <ele>309.00000</ele>
        <time>2024-02-08T13:35:37Z</time>
      </trkpt>
      <trkpt lat="42.87312165" lon="13.51594610">
        <ele>310.00000</ele>
        <time>2024-02-08T13:35:38Z</time>
      </trkpt>
      <trkpt lat="42.87305024" lon="13.51607937">
        <ele>312.00000</ele>
        <time>2024-02-08T13:35:39Z</time>
      </trkpt>
      <trkpt lat="42.87297078" lon="13.51620526">
        <ele>312.00000</ele>
        <time>2024-02-08T13:35:40Z</time>
      </trkpt>
      <trkpt lat="42.87288931" lon="13.51632848">
        <ele>312.00000</ele>
        <time>2024-02-08T13:35:41Z</time>
      </trkpt>
      <trkpt lat="42.87281194" lon="13.51645077">
        <ele>311.00000</ele>
        <time>2024-02-08T13:35:42Z</time>
      </trkpt>
      <trkpt lat="42.87273751" lon="13.51657566">
        <ele>311.00000</ele>
        <time>2024-02-08T13:35:43Z</time>
      </trkpt>
      <trkpt lat="42.87266056" lon="13.51670240">
        <ele>310.00000</ele>
        <time>2024-02-08T13:35:44Z</time>
      </trkpt>
      <trkpt lat="42.87259561" lon="13.51683366">
        <ele>310.00000</ele>
        <time>2024-02-08T13:35:45Z</time>
      </trkpt>
      <trkpt lat="42.87253039" lon="13.51696886">
        <ele>309.00000</ele>
        <time>2024-02-08T13:35:46Z</time>
      </trkpt>
      <trkpt lat="42.87248580" lon="13.51711328">
        <ele>308.00000</ele>
        <time>2024-02-08T13:35:47Z</time>
      </trkpt>
      <trkpt lat="42.87244993" lon="13.51726172">
        <ele>308.00000</ele>
        <time>2024-02-08T13:35:48Z</time>
      </trkpt>
      <trkpt lat="42.87241891" lon="13.51741117">
        <ele>307.00000</ele>
        <time>2024-02-08T13:35:49Z</time>
      </trkpt>
      <trkpt lat="42.87238497" lon="13.51756053">
        <ele>306.00000</ele>
        <time>2024-02-08T13:35:50Z</time>
      </trkpt>
      <trkpt lat="42.87233250" lon="13.51770026">
        <ele>306.00000</ele>
        <time>2024-02-08T13:35:51Z</time>
      </trkpt>
      <trkpt lat="42.87225094" lon="13.51780881">
        <ele>305.00000</ele>
        <time>2024-02-08T13:35:52Z</time>
      </trkpt>
      <trkpt lat="42.87215983" lon="13.51789657">
        <ele>305.00000</ele>
        <time>2024-02-08T13:35:53Z</time>
      </trkpt>
      <trkpt lat="42.87206335" lon="13.51795658">
        <ele>305.00000</ele>
        <time>2024-02-08T13:35:54Z</time>
      </trkpt>
      <trkpt lat="42.87194131" lon="13.51797041">
        <ele>303.00000</ele>
        <time>2024-02-08T13:35:55Z</time>
      </trkpt>
      <trkpt lat="42.87183210" lon="13.51799346">
        <ele>303.00000</ele>
        <time>2024-02-08T13:35:56Z</time>
      </trkpt>
      <trkpt lat="42.87173353" lon="13.51804551">
        <ele>302.00000</ele>
        <time>2024-02-08T13:35:57Z</time>
      </trkpt>
      <trkpt lat="42.87164040" lon="13.51812472">
        <ele>302.00000</ele>
        <time>2024-02-08T13:35:58Z</time>
      </trkpt>
      <trkpt lat="42.87155432" lon="13.51822103">
        <ele>301.00000</ele>
        <time>2024-02-08T13:35:59Z</time>
      </trkpt>
      <trkpt lat="42.87147218" lon="13.51833418">
        <ele>300.00000</ele>
        <time>2024-02-08T13:36:00Z</time>
      </trkpt>
      <trkpt lat="42.87138383" lon="13.51846670">
        <ele>299.00000</ele>
        <time>2024-02-08T13:36:01Z</time>
      </trkpt>
      <trkpt lat="42.87132290" lon="13.51862680">
        <ele>299.00000</ele>
        <time>2024-02-08T13:36:02Z</time>
      </trkpt>
      <trkpt lat="42.87128635" lon="13.51878999">
        <ele>297.00000</ele>
        <time>2024-02-08T13:36:03Z</time>
      </trkpt>
      <trkpt lat="42.87126062" lon="13.51895805">
        <ele>295.00000</ele>
        <time>2024-02-08T13:36:04Z</time>
      </trkpt>
      <trkpt lat="42.87124210" lon="13.51912326">
        <ele>293.00000</ele>
        <time>2024-02-08T13:36:05Z</time>
      </trkpt>
      <trkpt lat="42.87121988" lon="13.51928461">
        <ele>291.00000</ele>
        <time>2024-02-08T13:36:06Z</time>
      </trkpt>
      <trkpt lat="42.87119667" lon="13.51944210">
        <ele>289.00000</ele>
        <time>2024-02-08T13:36:07Z</time>
      </trkpt>
      <trkpt lat="42.87117253" lon="13.51959792">
        <ele>290.00000</ele>
        <time>2024-02-08T13:36:08Z</time>
      </trkpt>
      <trkpt lat="42.87114243" lon="13.51975232">
        <ele>291.00000</ele>
        <time>2024-02-08T13:36:09Z</time>
      </trkpt>
      <trkpt lat="42.87109952" lon="13.51989649">
        <ele>292.00000</ele>
        <time>2024-02-08T13:36:10Z</time>
      </trkpt>
      <trkpt lat="42.87103045" lon="13.52000822">
        <ele>292.00000</ele>
        <time>2024-02-08T13:36:11Z</time>
      </trkpt>
      <trkpt lat="42.87093917" lon="13.52009656">
        <ele>291.00000</ele>
        <time>2024-02-08T13:36:12Z</time>
      </trkpt>
      <trkpt lat="42.87083448" lon="13.52016882">
        <ele>289.00000</ele>
        <time>2024-02-08T13:36:13Z</time>
      </trkpt>
      <trkpt lat="42.87073499" lon="13.52023897">
        <ele>288.00000</ele>
        <time>2024-02-08T13:36:14Z</time>
      </trkpt>
      <trkpt lat="42.87063131" lon="13.52031298">
        <ele>287.00000</ele>
        <time>2024-02-08T13:36:15Z</time>
      </trkpt>
      <trkpt lat="42.87052393" lon="13.52039194">
        <ele>286.00000</ele>
        <time>2024-02-08T13:36:16Z</time>
      </trkpt>
      <trkpt lat="42.87042343" lon="13.52047484">
        <ele>285.00000</ele>
        <time>2024-02-08T13:36:17Z</time>
      </trkpt>
      <trkpt lat="42.87023073" lon="13.52064424">
        <ele>283.00000</ele>
        <time>2024-02-08T13:36:19Z</time>
      </trkpt>
      <trkpt lat="42.87014180" lon="13.52073811">
        <ele>283.00000</ele>
        <time>2024-02-08T13:36:20Z</time>
      </trkpt>
      <trkpt lat="42.87006754" lon="13.52083761">
        <ele>283.00000</ele>
        <time>2024-02-08T13:36:21Z</time>
      </trkpt>
      <trkpt lat="42.86999789" lon="13.52093953">
        <ele>282.00000</ele>
        <time>2024-02-08T13:36:22Z</time>
      </trkpt>
      <trkpt lat="42.86994173" lon="13.52105026">
        <ele>282.00000</ele>
        <time>2024-02-08T13:36:23Z</time>
      </trkpt>
      <trkpt lat="42.86989537" lon="13.52116014">
        <ele>283.00000</ele>
        <time>2024-02-08T13:36:24Z</time>
      </trkpt>
      <trkpt lat="42.86985665" lon="13.52126919">
        <ele>283.00000</ele>
        <time>2024-02-08T13:36:25Z</time>
      </trkpt>
      <trkpt lat="42.86982103" lon="13.52137464">
        <ele>283.00000</ele>
        <time>2024-02-08T13:36:26Z</time>
      </trkpt>
      <trkpt lat="42.86979706" lon="13.52148058">
        <ele>284.00000</ele>
        <time>2024-02-08T13:36:27Z</time>
      </trkpt>
      <trkpt lat="42.86976822" lon="13.52157505">
        <ele>284.00000</ele>
        <time>2024-02-08T13:36:28Z</time>
      </trkpt>
      <trkpt lat="42.86974467" lon="13.52166725">
        <ele>285.00000</ele>
        <time>2024-02-08T13:36:29Z</time>
      </trkpt>
      <trkpt lat="42.86973319" lon="13.52175811">
        <ele>286.00000</ele>
        <time>2024-02-08T13:36:30Z</time>
      </trkpt>
      <trkpt lat="42.86973034" lon="13.52184629">
        <ele>287.00000</ele>
        <time>2024-02-08T13:36:31Z</time>
      </trkpt>
      <trkpt lat="42.86972891" lon="13.52192784">
        <ele>288.00000</ele>
        <time>2024-02-08T13:36:32Z</time>
      </trkpt>
      <trkpt lat="42.86972656" lon="13.52200596">
        <ele>289.00000</ele>
        <time>2024-02-08T13:36:33Z</time>
      </trkpt>
      <trkpt lat="42.86973754" lon="13.52208517">
        <ele>289.00000</ele>
        <time>2024-02-08T13:36:34Z</time>
      </trkpt>
      <trkpt lat="42.86975498" lon="13.52216220">
        <ele>288.00000</ele>
        <time>2024-02-08T13:36:35Z</time>
      </trkpt>
      <trkpt lat="42.86977493" lon="13.52224267">
        <ele>288.00000</ele>
        <time>2024-02-08T13:36:36Z</time>
      </trkpt>
      <trkpt lat="42.86979228" lon="13.52232489">
        <ele>288.00000</ele>
        <time>2024-02-08T13:36:37Z</time>
      </trkpt>
      <trkpt lat="42.86981156" lon="13.52240745">
        <ele>288.00000</ele>
        <time>2024-02-08T13:36:38Z</time>
      </trkpt>
      <trkpt lat="42.86983134" lon="13.52249387">
        <ele>288.00000</ele>
        <time>2024-02-08T13:36:39Z</time>
      </trkpt>
      <trkpt lat="42.86984517" lon="13.52257342">
        <ele>289.00000</ele>
        <time>2024-02-08T13:36:40Z</time>
      </trkpt>
      <trkpt lat="42.86986109" lon="13.52265095">
        <ele>290.00000</ele>
        <time>2024-02-08T13:36:41Z</time>
      </trkpt>
      <trkpt lat="42.86987794" lon="13.52272898">
        <ele>291.00000</ele>
        <time>2024-02-08T13:36:42Z</time>
      </trkpt>
      <trkpt lat="42.86989144" lon="13.52280543">
        <ele>291.00000</ele>
        <time>2024-02-08T13:36:43Z</time>
      </trkpt>
      <trkpt lat="42.86990225" lon="13.52287692">
        <ele>292.00000</ele>
        <time>2024-02-08T13:36:44Z</time>
      </trkpt>
      <trkpt lat="42.86991524" lon="13.52294532">
        <ele>293.00000</ele>
        <time>2024-02-08T13:36:45Z</time>
      </trkpt>
      <trkpt lat="42.86993125" lon="13.52301556">
        <ele>294.00000</ele>
        <time>2024-02-08T13:36:46Z</time>
      </trkpt>
      <trkpt lat="42.86994156" lon="13.52308630">
        <ele>295.00000</ele>
        <time>2024-02-08T13:36:47Z</time>
      </trkpt>
      <trkpt lat="42.86995338" lon="13.52315663">
        <ele>296.00000</ele>
        <time>2024-02-08T13:36:48Z</time>
      </trkpt>
      <trkpt lat="42.86996453" lon="13.52322972">
        <ele>297.00000</ele>
        <time>2024-02-08T13:36:49Z</time>
      </trkpt>
      <trkpt lat="42.86998146" lon="13.52330214">
        <ele>298.00000</ele>
        <time>2024-02-08T13:36:50Z</time>
      </trkpt>
      <trkpt lat="42.86999596" lon="13.52337305">
        <ele>298.00000</ele>
        <time>2024-02-08T13:36:51Z</time>
      </trkpt>
      <trkpt lat="42.87001088" lon="13.52344178">
        <ele>298.00000</ele>
        <time>2024-02-08T13:36:52Z</time>
      </trkpt>
      <trkpt lat="42.87002840" lon="13.52351160">
        <ele>298.00000</ele>
        <time>2024-02-08T13:36:53Z</time>
      </trkpt>
      <trkpt lat="42.87004063" lon="13.52358385">
        <ele>299.00000</ele>
        <time>2024-02-08T13:36:54Z</time>
      </trkpt>
      <trkpt lat="42.87005413" lon="13.52366021">
        <ele>299.00000</ele>
        <time>2024-02-08T13:36:55Z</time>
      </trkpt>
      <trkpt lat="42.87006821" lon="13.52373666">
        <ele>299.00000</ele>
        <time>2024-02-08T13:36:56Z</time>
      </trkpt>
      <trkpt lat="42.87008095" lon="13.52380271">
        <ele>299.00000</ele>
        <time>2024-02-08T13:36:57Z</time>
      </trkpt>
      <trkpt lat="42.87008799" lon="13.52389834">
        <ele>299.00000</ele>
        <time>2024-02-08T13:36:58Z</time>
      </trkpt>
      <trkpt lat="42.87009084" lon="13.52397839">
        <ele>299.00000</ele>
        <time>2024-02-08T13:36:59Z</time>
      </trkpt>
      <trkpt lat="42.87009864" lon="13.52406053">
        <ele>298.00000</ele>
        <time>2024-02-08T13:37:00Z</time>
      </trkpt>
      <trkpt lat="42.87011071" lon="13.52414167">
        <ele>298.00000</ele>
        <time>2024-02-08T13:37:01Z</time>
      </trkpt>
      <trkpt lat="42.87011255" lon="13.52422306">
        <ele>298.00000</ele>
        <time>2024-02-08T13:37:02Z</time>
      </trkpt>
      <trkpt lat="42.87011766" lon="13.52430596">
        <ele>298.00000</ele>
        <time>2024-02-08T13:37:03Z</time>
      </trkpt>
      <trkpt lat="42.87012965" lon="13.52439296">
        <ele>297.00000</ele>
        <time>2024-02-08T13:37:04Z</time>
      </trkpt>
      <trkpt lat="42.87014440" lon="13.52448072">
        <ele>297.00000</ele>
        <time>2024-02-08T13:37:05Z</time>
      </trkpt>
      <trkpt lat="42.87015924" lon="13.52457107">
        <ele>298.00000</ele>
        <time>2024-02-08T13:37:06Z</time>
      </trkpt>
      <trkpt lat="42.87017759" lon="13.52465598">
        <ele>298.00000</ele>
        <time>2024-02-08T13:37:07Z</time>
      </trkpt>
      <trkpt lat="42.87019595" lon="13.52473611">
        <ele>299.00000</ele>
        <time>2024-02-08T13:37:08Z</time>
      </trkpt>
      <trkpt lat="42.87020869" lon="13.52481625">
        <ele>300.00000</ele>
        <time>2024-02-08T13:37:09Z</time>
      </trkpt>
      <trkpt lat="42.87021640" lon="13.52489755">
        <ele>301.00000</ele>
        <time>2024-02-08T13:37:10Z</time>
      </trkpt>
      <trkpt lat="42.87022043" lon="13.52496561">
        <ele>302.00000</ele>
        <time>2024-02-08T13:37:11Z</time>
      </trkpt>
      <trkpt lat="42.87022721" lon="13.52506946">
        <ele>304.00000</ele>
        <time>2024-02-08T13:37:12Z</time>
      </trkpt>
      <trkpt lat="42.87025270" lon="13.52516259">
        <ele>305.00000</ele>
        <time>2024-02-08T13:37:13Z</time>
      </trkpt>
      <trkpt lat="42.87028421" lon="13.52525806">
        <ele>306.00000</ele>
        <time>2024-02-08T13:37:14Z</time>
      </trkpt>
      <trkpt lat="42.87029620" lon="13.52534523">
        <ele>307.00000</ele>
        <time>2024-02-08T13:37:15Z</time>
      </trkpt>
      <trkpt lat="42.87031296" lon="13.52543039">
        <ele>307.00000</ele>
        <time>2024-02-08T13:37:16Z</time>
      </trkpt>
      <trkpt lat="42.87032620" lon="13.52551613">
        <ele>307.00000</ele>
        <time>2024-02-08T13:37:17Z</time>
      </trkpt>
      <trkpt lat="42.87034012" lon="13.52560020">
        <ele>307.00000</ele>
        <time>2024-02-08T13:37:18Z</time>
      </trkpt>
      <trkpt lat="42.87035713" lon="13.52568486">
        <ele>307.00000</ele>
        <time>2024-02-08T13:37:19Z</time>
      </trkpt>
      <trkpt lat="42.87037775" lon="13.52576734">
        <ele>307.00000</ele>
        <time>2024-02-08T13:37:20Z</time>
      </trkpt>
      <trkpt lat="42.87039661" lon="13.52585233">
        <ele>307.00000</ele>
        <time>2024-02-08T13:37:21Z</time>
      </trkpt>
      <trkpt lat="42.87041597" lon="13.52593925">
        <ele>306.00000</ele>
        <time>2024-02-08T13:37:22Z</time>
      </trkpt>
      <trkpt lat="42.87043835" lon="13.52602441">
        <ele>305.00000</ele>
        <time>2024-02-08T13:37:23Z</time>
      </trkpt>
      <trkpt lat="42.87045654" lon="13.52610572">
        <ele>305.00000</ele>
        <time>2024-02-08T13:37:24Z</time>
      </trkpt>
      <trkpt lat="42.87046761" lon="13.52618727">
        <ele>305.00000</ele>
        <time>2024-02-08T13:37:25Z</time>
      </trkpt>
      <trkpt lat="42.87048035" lon="13.52627160">
        <ele>305.00000</ele>
        <time>2024-02-08T13:37:26Z</time>
      </trkpt>
      <trkpt lat="42.87048915" lon="13.52635759">
        <ele>305.00000</ele>
        <time>2024-02-08T13:37:27Z</time>
      </trkpt>
      <trkpt lat="42.87050616" lon="13.52644124">
        <ele>305.00000</ele>
        <time>2024-02-08T13:37:28Z</time>
      </trkpt>
      <trkpt lat="42.87052603" lon="13.52652473">
        <ele>305.00000</ele>
        <time>2024-02-08T13:37:29Z</time>
      </trkpt>
      <trkpt lat="42.87054221" lon="13.52659086">
        <ele>305.00000</ele>
        <time>2024-02-08T13:37:30Z</time>
      </trkpt>
      <trkpt lat="42.87056341" lon="13.52669170">
        <ele>306.00000</ele>
        <time>2024-02-08T13:37:31Z</time>
      </trkpt>
      <trkpt lat="42.87057825" lon="13.52677820">
        <ele>306.00000</ele>
        <time>2024-02-08T13:37:32Z</time>
      </trkpt>
      <trkpt lat="42.87060197" lon="13.52686629">
        <ele>306.00000</ele>
        <time>2024-02-08T13:37:33Z</time>
      </trkpt>
      <trkpt lat="42.87062435" lon="13.52695816">
        <ele>307.00000</ele>
        <time>2024-02-08T13:37:34Z</time>
      </trkpt>
      <trkpt lat="42.87064027" lon="13.52703150">
        <ele>308.00000</ele>
        <time>2024-02-08T13:37:35Z</time>
      </trkpt>
      <trkpt lat="42.87066064" lon="13.52713761">
        <ele>310.00000</ele>
        <time>2024-02-08T13:37:36Z</time>
      </trkpt>
      <trkpt lat="42.87068294" lon="13.52722571">
        <ele>311.00000</ele>
        <time>2024-02-08T13:37:37Z</time>
      </trkpt>
      <trkpt lat="42.87070834" lon="13.52731363">
        <ele>311.00000</ele>
        <time>2024-02-08T13:37:38Z</time>
      </trkpt>
      <trkpt lat="42.87073390" lon="13.52740366">
        <ele>311.00000</ele>
        <time>2024-02-08T13:37:39Z</time>
      </trkpt>
      <trkpt lat="42.87075360" lon="13.52747918">
        <ele>311.00000</ele>
        <time>2024-02-08T13:37:40Z</time>
      </trkpt>
      <trkpt lat="42.87077380" lon="13.52759619">
        <ele>309.00000</ele>
        <time>2024-02-08T13:37:41Z</time>
      </trkpt>
      <trkpt lat="42.87078126" lon="13.52769501">
        <ele>308.00000</ele>
        <time>2024-02-08T13:37:42Z</time>
      </trkpt>
      <trkpt lat="42.87078998" lon="13.52779140">
        <ele>306.00000</ele>
        <time>2024-02-08T13:37:43Z</time>
      </trkpt>
      <trkpt lat="42.87079861" lon="13.52788603">
        <ele>305.00000</ele>
        <time>2024-02-08T13:37:44Z</time>
      </trkpt>
      <trkpt lat="42.87080984" lon="13.52798301">
        <ele>304.00000</ele>
        <time>2024-02-08T13:37:45Z</time>
      </trkpt>
      <trkpt lat="42.87081914" lon="13.52805862">
        <ele>303.00000</ele>
        <time>2024-02-08T13:37:46Z</time>
      </trkpt>
      <trkpt lat="42.87083331" lon="13.52816934">
        <ele>302.00000</ele>
        <time>2024-02-08T13:37:47Z</time>
      </trkpt>
      <trkpt lat="42.87084320" lon="13.52825953">
        <ele>302.00000</ele>
        <time>2024-02-08T13:37:48Z</time>
      </trkpt>
      <trkpt lat="42.87085024" lon="13.52834930">
        <ele>302.00000</ele>
        <time>2024-02-08T13:37:49Z</time>
      </trkpt>
      <trkpt lat="42.87085971" lon="13.52842750">
        <ele>303.00000</ele>
        <time>2024-02-08T13:37:50Z</time>
      </trkpt>
      <trkpt lat="42.87087279" lon="13.52852147">
        <ele>303.00000</ele>
        <time>2024-02-08T13:37:51Z</time>
      </trkpt>
      <trkpt lat="42.87088201" lon="13.52863538">
        <ele>304.00000</ele>
        <time>2024-02-08T13:37:52Z</time>
      </trkpt>
      <trkpt lat="42.87089383" lon="13.52873370">
        <ele>305.00000</ele>
        <time>2024-02-08T13:37:53Z</time>
      </trkpt>
      <trkpt lat="42.87090003" lon="13.52883352">
        <ele>306.00000</ele>
        <time>2024-02-08T13:37:54Z</time>
      </trkpt>
      <trkpt lat="42.87090472" lon="13.52891131">
        <ele>307.00000</ele>
        <time>2024-02-08T13:37:55Z</time>
      </trkpt>
      <trkpt lat="42.87091621" lon="13.52903561">
        <ele>308.00000</ele>
        <time>2024-02-08T13:37:56Z</time>
      </trkpt>
      <trkpt lat="42.87092576" lon="13.52913913">
        <ele>309.00000</ele>
        <time>2024-02-08T13:37:57Z</time>
      </trkpt>
      <trkpt lat="42.87091646" lon="13.52924885">
        <ele>310.00000</ele>
        <time>2024-02-08T13:37:58Z</time>
      </trkpt>
      <trkpt lat="42.87092392" lon="13.52933300">
        <ele>310.00000</ele>
        <time>2024-02-08T13:37:59Z</time>
      </trkpt>
      <trkpt lat="42.87094697" lon="13.52944934">
        <ele>309.00000</ele>
        <time>2024-02-08T13:38:00Z</time>
      </trkpt>
      <trkpt lat="42.87096843" lon="13.52952604">
        <ele>309.00000</ele>
        <time>2024-02-08T13:38:01Z</time>
      </trkpt>
      <trkpt lat="42.87100489" lon="13.52964925">
        <ele>307.00000</ele>
        <time>2024-02-08T13:38:02Z</time>
      </trkpt>
      <trkpt lat="42.87102626" lon="13.52975578">
        <ele>307.00000</ele>
        <time>2024-02-08T13:38:03Z</time>
      </trkpt>
      <trkpt lat="42.87104688" lon="13.52986123">
        <ele>306.00000</ele>
        <time>2024-02-08T13:38:04Z</time>
      </trkpt>
      <trkpt lat="42.87106708" lon="13.52997170">
        <ele>305.00000</ele>
        <time>2024-02-08T13:38:05Z</time>
      </trkpt>
      <trkpt lat="42.87108359" lon="13.53008645">
        <ele>305.00000</ele>
        <time>2024-02-08T13:38:06Z</time>
      </trkpt>
      <trkpt lat="42.87111134" lon="13.53019902">
        <ele>305.00000</ele>
        <time>2024-02-08T13:38:07Z</time>
      </trkpt>
      <trkpt lat="42.87113984" lon="13.53030346">
        <ele>305.00000</ele>
        <time>2024-02-08T13:38:08Z</time>
      </trkpt>
      <trkpt lat="42.87117529" lon="13.53040840">
        <ele>306.00000</ele>
        <time>2024-02-08T13:38:09Z</time>
      </trkpt>
      <trkpt lat="42.87121242" lon="13.53052214">
        <ele>307.00000</ele>
        <time>2024-02-08T13:38:10Z</time>
      </trkpt>
      <trkpt lat="42.87124763" lon="13.53064008">
        <ele>307.00000</ele>
        <time>2024-02-08T13:38:11Z</time>
      </trkpt>
      <trkpt lat="42.87126808" lon="13.53076907">
        <ele>307.00000</ele>
        <time>2024-02-08T13:38:12Z</time>
      </trkpt>
      <trkpt lat="42.87129021" lon="13.53088382">
        <ele>307.00000</ele>
        <time>2024-02-08T13:38:13Z</time>
      </trkpt>
      <trkpt lat="42.87131376" lon="13.53099999">
        <ele>306.00000</ele>
        <time>2024-02-08T13:38:14Z</time>
      </trkpt>
      <trkpt lat="42.87133790" lon="13.53111265">
        <ele>305.00000</ele>
        <time>2024-02-08T13:38:15Z</time>
      </trkpt>
      <trkpt lat="42.87136271" lon="13.53123494">
        <ele>304.00000</ele>
        <time>2024-02-08T13:38:16Z</time>
      </trkpt>
      <trkpt lat="42.87137939" lon="13.53136016">
        <ele>304.00000</ele>
        <time>2024-02-08T13:38:17Z</time>
      </trkpt>
      <trkpt lat="42.87139104" lon="13.53148832">
        <ele>303.00000</ele>
        <time>2024-02-08T13:38:18Z</time>
      </trkpt>
      <trkpt lat="42.87139347" lon="13.53161950">
        <ele>303.00000</ele>
        <time>2024-02-08T13:38:19Z</time>
      </trkpt>
      <trkpt lat="42.87138643" lon="13.53172578">
        <ele>303.00000</ele>
        <time>2024-02-08T13:38:20Z</time>
      </trkpt>
      <trkpt lat="42.87137872" lon="13.53188730">
        <ele>303.00000</ele>
        <time>2024-02-08T13:38:21Z</time>
      </trkpt>
      <trkpt lat="42.87136707" lon="13.53202175">
        <ele>302.00000</ele>
        <time>2024-02-08T13:38:22Z</time>
      </trkpt>
      <trkpt lat="42.87135483" lon="13.53215393">
        <ele>300.00000</ele>
        <time>2024-02-08T13:38:23Z</time>
      </trkpt>
      <trkpt lat="42.87134494" lon="13.53225879">
        <ele>298.00000</ele>
        <time>2024-02-08T13:38:24Z</time>
      </trkpt>
      <trkpt lat="42.87133346" lon="13.53239106">
        <ele>298.00000</ele>
        <time>2024-02-08T13:38:25Z</time>
      </trkpt>
      <trkpt lat="42.87132441" lon="13.53255241">
        <ele>297.00000</ele>
        <time>2024-02-08T13:38:26Z</time>
      </trkpt>
      <trkpt lat="42.87131795" lon="13.53268501">
        <ele>296.00000</ele>
        <time>2024-02-08T13:38:27Z</time>
      </trkpt>
      <trkpt lat="42.87131158" lon="13.53281468">
        <ele>296.00000</ele>
        <time>2024-02-08T13:38:28Z</time>
      </trkpt>
      <trkpt lat="42.87129641" lon="13.53294275">
        <ele>295.00000</ele>
        <time>2024-02-08T13:38:29Z</time>
      </trkpt>
      <trkpt lat="42.87127428" lon="13.53304451">
        <ele>294.00000</ele>
        <time>2024-02-08T13:38:30Z</time>
      </trkpt>
      <trkpt lat="42.87121796" lon="13.53317962">
        <ele>293.00000</ele>
        <time>2024-02-08T13:38:31Z</time>
      </trkpt>
      <trkpt lat="42.87115098" lon="13.53326613">
        <ele>292.00000</ele>
        <time>2024-02-08T13:38:32Z</time>
      </trkpt>
      <trkpt lat="42.87105644" lon="13.53331927">
        <ele>293.00000</ele>
        <time>2024-02-08T13:38:33Z</time>
      </trkpt>
      <trkpt lat="42.87095543" lon="13.53336017">
        <ele>294.00000</ele>
        <time>2024-02-08T13:38:34Z</time>
      </trkpt>
      <trkpt lat="42.87085318" lon="13.53340091">
        <ele>294.00000</ele>
        <time>2024-02-08T13:38:35Z</time>
      </trkpt>
      <trkpt lat="42.87075620" lon="13.53344667">
        <ele>295.00000</ele>
        <time>2024-02-08T13:38:36Z</time>
      </trkpt>
      <trkpt lat="42.87066626" lon="13.53350493">
        <ele>295.00000</ele>
        <time>2024-02-08T13:38:37Z</time>
      </trkpt>
      <trkpt lat="42.87057867" lon="13.53358212">
        <ele>294.00000</ele>
        <time>2024-02-08T13:38:38Z</time>
      </trkpt>
      <trkpt lat="42.87050248" lon="13.53368497">
        <ele>293.00000</ele>
        <time>2024-02-08T13:38:39Z</time>
      </trkpt>
      <trkpt lat="42.87044573" lon="13.53380911">
        <ele>292.00000</ele>
        <time>2024-02-08T13:38:40Z</time>
      </trkpt>
      <trkpt lat="42.87040080" lon="13.53394774">
        <ele>291.00000</ele>
        <time>2024-02-08T13:38:41Z</time>
      </trkpt>
      <trkpt lat="42.87037448" lon="13.53409669">
        <ele>290.00000</ele>
        <time>2024-02-08T13:38:42Z</time>
      </trkpt>
      <trkpt lat="42.87036091" lon="13.53424572">
        <ele>289.00000</ele>
        <time>2024-02-08T13:38:43Z</time>
      </trkpt>
      <trkpt lat="42.87036258" lon="13.53438846">
        <ele>288.00000</ele>
        <time>2024-02-08T13:38:44Z</time>
      </trkpt>
      <trkpt lat="42.87036895" lon="13.53449919">
        <ele>288.00000</ele>
        <time>2024-02-08T13:38:45Z</time>
      </trkpt>
      <trkpt lat="42.87036946" lon="13.53466574">
        <ele>287.00000</ele>
        <time>2024-02-08T13:38:46Z</time>
      </trkpt>
      <trkpt lat="42.87036920" lon="13.53480236">
        <ele>287.00000</ele>
        <time>2024-02-08T13:38:47Z</time>
      </trkpt>
      <trkpt lat="42.87036468" lon="13.53493253">
        <ele>288.00000</ele>
        <time>2024-02-08T13:38:48Z</time>
      </trkpt>
      <trkpt lat="42.87036325" lon="13.53506530">
        <ele>288.00000</ele>
        <time>2024-02-08T13:38:49Z</time>
      </trkpt>
      <trkpt lat="42.87035898" lon="13.53519648">
        <ele>289.00000</ele>
        <time>2024-02-08T13:38:50Z</time>
      </trkpt>
      <trkpt lat="42.87035940" lon="13.53532724">
        <ele>289.00000</ele>
        <time>2024-02-08T13:38:51Z</time>
      </trkpt>
      <trkpt lat="42.87036627" lon="13.53545942">
        <ele>290.00000</ele>
        <time>2024-02-08T13:38:52Z</time>
      </trkpt>
      <trkpt lat="42.87037901" lon="13.53558557">
        <ele>290.00000</ele>
        <time>2024-02-08T13:38:53Z</time>
      </trkpt>
      <trkpt lat="42.87040483" lon="13.53571834">
        <ele>291.00000</ele>
        <time>2024-02-08T13:38:54Z</time>
      </trkpt>
      <trkpt lat="42.87042369" lon="13.53584105">
        <ele>292.00000</ele>
        <time>2024-02-08T13:38:55Z</time>
      </trkpt>
      <trkpt lat="42.87044079" lon="13.53595755">
        <ele>292.00000</ele>
        <time>2024-02-08T13:38:56Z</time>
      </trkpt>
      <trkpt lat="42.87045654" lon="13.53607339">
        <ele>292.00000</ele>
        <time>2024-02-08T13:38:57Z</time>
      </trkpt>
      <trkpt lat="42.87046962" lon="13.53616467">
        <ele>293.00000</ele>
        <time>2024-02-08T13:38:58Z</time>
      </trkpt>
      <trkpt lat="42.87049024" lon="13.53630205">
        <ele>294.00000</ele>
        <time>2024-02-08T13:38:59Z</time>
      </trkpt>
      <trkpt lat="42.87050373" lon="13.53639115">
        <ele>294.00000</ele>
        <time>2024-02-08T13:39:00Z</time>
      </trkpt>
      <trkpt lat="42.87052385" lon="13.53652727">
        <ele>294.00000</ele>
        <time>2024-02-08T13:39:01Z</time>
      </trkpt>
      <trkpt lat="42.87054573" lon="13.53664487">
        <ele>294.00000</ele>
        <time>2024-02-08T13:39:02Z</time>
      </trkpt>
      <trkpt lat="42.87056584" lon="13.53676163">
        <ele>294.00000</ele>
        <time>2024-02-08T13:39:03Z</time>
      </trkpt>
      <trkpt lat="42.87058789" lon="13.53687948">
        <ele>294.00000</ele>
        <time>2024-02-08T13:39:04Z</time>
      </trkpt>
      <trkpt lat="42.87060976" lon="13.53699725">
        <ele>294.00000</ele>
        <time>2024-02-08T13:39:05Z</time>
      </trkpt>
      <trkpt lat="42.87063240" lon="13.53711367">
        <ele>294.00000</ele>
        <time>2024-02-08T13:39:06Z</time>
      </trkpt>
      <trkpt lat="42.87065587" lon="13.53722708">
        <ele>294.00000</ele>
        <time>2024-02-08T13:39:07Z</time>
      </trkpt>
      <trkpt lat="42.87068336" lon="13.53733831">
        <ele>294.00000</ele>
        <time>2024-02-08T13:39:08Z</time>
      </trkpt>
      <trkpt lat="42.87071806" lon="13.53744568">
        <ele>294.00000</ele>
        <time>2024-02-08T13:39:09Z</time>
      </trkpt>
      <trkpt lat="42.87076215" lon="13.53754710">
        <ele>294.00000</ele>
        <time>2024-02-08T13:39:10Z</time>
      </trkpt>
      <trkpt lat="42.87081671" lon="13.53763435">
        <ele>294.00000</ele>
        <time>2024-02-08T13:39:11Z</time>
      </trkpt>
      <trkpt lat="42.87087874" lon="13.53770694">
        <ele>294.00000</ele>
        <time>2024-02-08T13:39:12Z</time>
      </trkpt>
      <trkpt lat="42.87093364" lon="13.53775363">
        <ele>294.00000</ele>
        <time>2024-02-08T13:39:13Z</time>
      </trkpt>
      <trkpt lat="42.87100413" lon="13.53780359">
        <ele>294.00000</ele>
        <time>2024-02-08T13:39:14Z</time>
      </trkpt>
      <trkpt lat="42.87109768" lon="13.53786427">
        <ele>294.00000</ele>
        <time>2024-02-08T13:39:15Z</time>
      </trkpt>
      <trkpt lat="42.87118284" lon="13.53791716">
        <ele>293.00000</ele>
        <time>2024-02-08T13:39:16Z</time>
      </trkpt>
      <trkpt lat="42.87127026" lon="13.53796603">
        <ele>293.00000</ele>
        <time>2024-02-08T13:39:17Z</time>
      </trkpt>
      <trkpt lat="42.87134234" lon="13.53800643">
        <ele>293.00000</ele>
        <time>2024-02-08T13:39:18Z</time>
      </trkpt>
      <trkpt lat="42.87143094" lon="13.53806560">
        <ele>292.00000</ele>
        <time>2024-02-08T13:39:19Z</time>
      </trkpt>
      <trkpt lat="42.87151887" lon="13.53813559">
        <ele>291.00000</ele>
        <time>2024-02-08T13:39:20Z</time>
      </trkpt>
      <trkpt lat="42.87161408" lon="13.53824095">
        <ele>290.00000</ele>
        <time>2024-02-08T13:39:21Z</time>
      </trkpt>
      <trkpt lat="42.87167737" lon="13.53835151">
        <ele>290.00000</ele>
        <time>2024-02-08T13:39:22Z</time>
      </trkpt>
      <trkpt lat="42.87171668" lon="13.53844547">
        <ele>290.00000</ele>
        <time>2024-02-08T13:39:23Z</time>
      </trkpt>
      <trkpt lat="42.87176052" lon="13.53856801">
        <ele>289.00000</ele>
        <time>2024-02-08T13:39:24Z</time>
      </trkpt>
      <trkpt lat="42.87179974" lon="13.53869802">
        <ele>288.00000</ele>
        <time>2024-02-08T13:39:25Z</time>
      </trkpt>
      <trkpt lat="42.87184517" lon="13.53885116">
        <ele>287.00000</ele>
        <time>2024-02-08T13:39:26Z</time>
      </trkpt>
      <trkpt lat="42.87188189" lon="13.53897655">
        <ele>287.00000</ele>
        <time>2024-02-08T13:39:27Z</time>
      </trkpt>
      <trkpt lat="42.87190703" lon="13.53907847">
        <ele>287.00000</ele>
        <time>2024-02-08T13:39:28Z</time>
      </trkpt>
      <trkpt lat="42.87193913" lon="13.53920236">
        <ele>288.00000</ele>
        <time>2024-02-08T13:39:29Z</time>
      </trkpt>
      <trkpt lat="42.87197710" lon="13.53934971">
        <ele>288.00000</ele>
        <time>2024-02-08T13:39:30Z</time>
      </trkpt>
      <trkpt lat="42.87201457" lon="13.53947376">
        <ele>288.00000</ele>
        <time>2024-02-08T13:39:31Z</time>
      </trkpt>
      <trkpt lat="42.87205045" lon="13.53959907">
        <ele>287.00000</ele>
        <time>2024-02-08T13:39:32Z</time>
      </trkpt>
      <trkpt lat="42.87208012" lon="13.53970083">
        <ele>287.00000</ele>
        <time>2024-02-08T13:39:33Z</time>
      </trkpt>
      <trkpt lat="42.87211633" lon="13.53982815">
        <ele>286.00000</ele>
        <time>2024-02-08T13:39:34Z</time>
      </trkpt>
      <trkpt lat="42.87215547" lon="13.53998322">
        <ele>286.00000</ele>
        <time>2024-02-08T13:39:35Z</time>
      </trkpt>
      <trkpt lat="42.87218288" lon="13.54011766">
        <ele>285.00000</ele>
        <time>2024-02-08T13:39:36Z</time>
      </trkpt>
      <trkpt lat="42.87219696" lon="13.54025512">
        <ele>284.00000</ele>
        <time>2024-02-08T13:39:37Z</time>
      </trkpt>
      <trkpt lat="42.87219512" lon="13.54036660">
        <ele>283.00000</ele>
        <time>2024-02-08T13:39:38Z</time>
      </trkpt>
      <trkpt lat="42.87217911" lon="13.54050465">
        <ele>282.00000</ele>
        <time>2024-02-08T13:39:39Z</time>
      </trkpt>
      <trkpt lat="42.87214558" lon="13.54066475">
        <ele>280.00000</ele>
        <time>2024-02-08T13:39:40Z</time>
      </trkpt>
      <trkpt lat="42.87210501" lon="13.54079341">
        <ele>279.00000</ele>
        <time>2024-02-08T13:39:41Z</time>
      </trkpt>
      <trkpt lat="42.87206838" lon="13.54091939">
        <ele>279.00000</ele>
        <time>2024-02-08T13:39:42Z</time>
      </trkpt>
      <trkpt lat="42.87203293" lon="13.54104110">
        <ele>278.00000</ele>
        <time>2024-02-08T13:39:43Z</time>
      </trkpt>
      <trkpt lat="42.87199957" lon="13.54115987">
        <ele>279.00000</ele>
        <time>2024-02-08T13:39:44Z</time>
      </trkpt>
      <trkpt lat="42.87196872" lon="13.54127554">
        <ele>280.00000</ele>
        <time>2024-02-08T13:39:45Z</time>
      </trkpt>
      <trkpt lat="42.87193846" lon="13.54138643">
        <ele>281.00000</ele>
        <time>2024-02-08T13:39:46Z</time>
      </trkpt>
      <trkpt lat="42.87191575" lon="13.54149489">
        <ele>282.00000</ele>
        <time>2024-02-08T13:39:47Z</time>
      </trkpt>
      <trkpt lat="42.87190712" lon="13.54160503">
        <ele>284.00000</ele>
        <time>2024-02-08T13:39:48Z</time>
      </trkpt>
      <trkpt lat="42.87191106" lon="13.54171299">
        <ele>286.00000</ele>
        <time>2024-02-08T13:39:49Z</time>
      </trkpt>
      <trkpt lat="42.87192028" lon="13.54181751">
        <ele>288.00000</ele>
        <time>2024-02-08T13:39:50Z</time>
      </trkpt>
      <trkpt lat="42.87193947" lon="13.54191281">
        <ele>289.00000</ele>
        <time>2024-02-08T13:39:51Z</time>
      </trkpt>
      <trkpt lat="42.87197249" lon="13.54199806">
        <ele>289.00000</ele>
        <time>2024-02-08T13:39:52Z</time>
      </trkpt>
      <trkpt lat="42.87200896" lon="13.54207651">
        <ele>289.00000</ele>
        <time>2024-02-08T13:39:53Z</time>
      </trkpt>
      <trkpt lat="42.87202320" lon="13.54214549">
        <ele>290.00000</ele>
        <time>2024-02-08T13:39:54Z</time>
      </trkpt>
      <trkpt lat="42.87203628" lon="13.54225597">
        <ele>291.00000</ele>
        <time>2024-02-08T13:39:55Z</time>
      </trkpt>
      <trkpt lat="42.87203821" lon="13.54235085">
        <ele>292.00000</ele>
        <time>2024-02-08T13:39:56Z</time>
      </trkpt>
      <trkpt lat="42.87203234" lon="13.54244431">
        <ele>293.00000</ele>
        <time>2024-02-08T13:39:57Z</time>
      </trkpt>
      <trkpt lat="42.87201717" lon="13.54253693">
        <ele>294.00000</ele>
        <time>2024-02-08T13:39:58Z</time>
      </trkpt>
      <trkpt lat="42.87200041" lon="13.54262628">
        <ele>296.00000</ele>
        <time>2024-02-08T13:39:59Z</time>
      </trkpt>
      <trkpt lat="42.87199001" lon="13.54271764">
        <ele>297.00000</ele>
        <time>2024-02-08T13:40:00Z</time>
      </trkpt>
      <trkpt lat="42.87197912" lon="13.54281328">
        <ele>297.00000</ele>
        <time>2024-02-08T13:40:01Z</time>
      </trkpt>
      <trkpt lat="42.87196763" lon="13.54290833">
        <ele>297.00000</ele>
        <time>2024-02-08T13:40:02Z</time>
      </trkpt>
      <trkpt lat="42.87195967" lon="13.54300447">
        <ele>297.00000</ele>
        <time>2024-02-08T13:40:03Z</time>
      </trkpt>
      <trkpt lat="42.87195917" lon="13.54308268">
        <ele>296.00000</ele>
        <time>2024-02-08T13:40:04Z</time>
      </trkpt>
      <trkpt lat="42.87196260" lon="13.54319835">
        <ele>297.00000</ele>
        <time>2024-02-08T13:40:05Z</time>
      </trkpt>
      <trkpt lat="42.87197325" lon="13.54329750">
        <ele>297.00000</ele>
        <time>2024-02-08T13:40:06Z</time>
      </trkpt>
      <trkpt lat="42.87199303" lon="13.54340136">
        <ele>296.00000</ele>
        <time>2024-02-08T13:40:07Z</time>
      </trkpt>
      <trkpt lat="42.87202220" lon="13.54350403">
        <ele>295.00000</ele>
        <time>2024-02-08T13:40:08Z</time>
      </trkpt>
      <trkpt lat="42.87205455" lon="13.54360696">
        <ele>294.00000</ele>
        <time>2024-02-08T13:40:09Z</time>
      </trkpt>
      <trkpt lat="42.87208951" lon="13.54370763">
        <ele>294.00000</ele>
        <time>2024-02-08T13:40:10Z</time>
      </trkpt>
      <trkpt lat="42.87212513" lon="13.54380629">
        <ele>293.00000</ele>
        <time>2024-02-08T13:40:11Z</time>
      </trkpt>
      <trkpt lat="42.87216025" lon="13.54390653">
        <ele>293.00000</ele>
        <time>2024-02-08T13:40:12Z</time>
      </trkpt>
      <trkpt lat="42.87219143" lon="13.54398876">
        <ele>293.00000</ele>
        <time>2024-02-08T13:40:13Z</time>
      </trkpt>
      <trkpt lat="42.87223694" lon="13.54411214">
        <ele>293.00000</ele>
        <time>2024-02-08T13:40:14Z</time>
      </trkpt>
      <trkpt lat="42.87227097" lon="13.54421465">
        <ele>293.00000</ele>
        <time>2024-02-08T13:40:15Z</time>
      </trkpt>
      <trkpt lat="42.87230400" lon="13.54431825">
        <ele>292.00000</ele>
        <time>2024-02-08T13:40:16Z</time>
      </trkpt>
      <trkpt lat="42.87233786" lon="13.54442395">
        <ele>293.00000</ele>
        <time>2024-02-08T13:40:17Z</time>
      </trkpt>
      <trkpt lat="42.87237089" lon="13.54452948">
        <ele>292.00000</ele>
        <time>2024-02-08T13:40:18Z</time>
      </trkpt>
      <trkpt lat="42.87240819" lon="13.54463685">
        <ele>292.00000</ele>
        <time>2024-02-08T13:40:19Z</time>
      </trkpt>
      <trkpt lat="42.87243777" lon="13.54474338">
        <ele>292.00000</ele>
        <time>2024-02-08T13:40:20Z</time>
      </trkpt>
      <trkpt lat="42.87246359" lon="13.54485453">
        <ele>292.00000</ele>
        <time>2024-02-08T13:40:21Z</time>
      </trkpt>
      <trkpt lat="42.87248237" lon="13.54494614">
        <ele>292.00000</ele>
        <time>2024-02-08T13:40:22Z</time>
      </trkpt>
      <trkpt lat="42.87251221" lon="13.54508377">
        <ele>291.00000</ele>
        <time>2024-02-08T13:40:23Z</time>
      </trkpt>
      <trkpt lat="42.87253308" lon="13.54520288">
        <ele>291.00000</ele>
        <time>2024-02-08T13:40:24Z</time>
      </trkpt>
      <trkpt lat="42.87255043" lon="13.54532366">
        <ele>291.00000</ele>
        <time>2024-02-08T13:40:25Z</time>
      </trkpt>
      <trkpt lat="42.87256124" lon="13.54544419">
        <ele>291.00000</ele>
        <time>2024-02-08T13:40:26Z</time>
      </trkpt>
      <trkpt lat="42.87256862" lon="13.54553966">
        <ele>291.00000</ele>
        <time>2024-02-08T13:40:27Z</time>
      </trkpt>
      <trkpt lat="42.87257465" lon="13.54565860">
        <ele>291.00000</ele>
        <time>2024-02-08T13:40:28Z</time>
      </trkpt>
      <trkpt lat="42.87257658" lon="13.54577947">
        <ele>291.00000</ele>
        <time>2024-02-08T13:40:29Z</time>
      </trkpt>
      <trkpt lat="42.87257566" lon="13.54592246">
        <ele>291.00000</ele>
        <time>2024-02-08T13:40:30Z</time>
      </trkpt>
      <trkpt lat="42.87257289" lon="13.54604065">
        <ele>291.00000</ele>
        <time>2024-02-08T13:40:31Z</time>
      </trkpt>
      <trkpt lat="42.87257364" lon="13.54613763">
        <ele>291.00000</ele>
        <time>2024-02-08T13:40:32Z</time>
      </trkpt>
      <trkpt lat="42.87257121" lon="13.54627853">
        <ele>291.00000</ele>
        <time>2024-02-08T13:40:33Z</time>
      </trkpt>
      <trkpt lat="42.87257054" lon="13.54639604">
        <ele>291.00000</ele>
        <time>2024-02-08T13:40:34Z</time>
      </trkpt>
      <trkpt lat="42.87256878" lon="13.54651280">
        <ele>291.00000</ele>
        <time>2024-02-08T13:40:35Z</time>
      </trkpt>
      <trkpt lat="42.87257348" lon="13.54662990">
        <ele>292.00000</ele>
        <time>2024-02-08T13:40:36Z</time>
      </trkpt>
      <trkpt lat="42.87259083" lon="13.54674490">
        <ele>292.00000</ele>
        <time>2024-02-08T13:40:37Z</time>
      </trkpt>
      <trkpt lat="42.87261933" lon="13.54683307">
        <ele>293.00000</ele>
        <time>2024-02-08T13:40:38Z</time>
      </trkpt>
      <trkpt lat="42.87267297" lon="13.54695335">
        <ele>293.00000</ele>
        <time>2024-02-08T13:40:39Z</time>
      </trkpt>
      <trkpt lat="42.87272720" lon="13.54704765">
        <ele>293.00000</ele>
        <time>2024-02-08T13:40:40Z</time>
      </trkpt>
      <trkpt lat="42.87278411" lon="13.54713650">
        <ele>293.00000</ele>
        <time>2024-02-08T13:40:41Z</time>
      </trkpt>
      <trkpt lat="42.87284505" lon="13.54722082">
        <ele>292.00000</ele>
        <time>2024-02-08T13:40:42Z</time>
      </trkpt>
      <trkpt lat="42.87289207" lon="13.54728855">
        <ele>291.00000</ele>
        <time>2024-02-08T13:40:43Z</time>
      </trkpt>
      <trkpt lat="42.87295871" lon="13.54739240">
        <ele>290.00000</ele>
        <time>2024-02-08T13:40:44Z</time>
      </trkpt>
      <trkpt lat="42.87300682" lon="13.54748242">
        <ele>289.00000</ele>
        <time>2024-02-08T13:40:45Z</time>
      </trkpt>
      <trkpt lat="42.87304831" lon="13.54758334">
        <ele>289.00000</ele>
        <time>2024-02-08T13:40:46Z</time>
      </trkpt>
      <trkpt lat="42.87307564" lon="13.54766649">
        <ele>289.00000</ele>
        <time>2024-02-08T13:40:47Z</time>
      </trkpt>
      <trkpt lat="42.87310338" lon="13.54777126">
        <ele>288.00000</ele>
        <time>2024-02-08T13:40:48Z</time>
      </trkpt>
      <trkpt lat="42.87311419" lon="13.54790244">
        <ele>287.00000</ele>
        <time>2024-02-08T13:40:49Z</time>
      </trkpt>
      <trkpt lat="42.87309257" lon="13.54801149">
        <ele>288.00000</ele>
        <time>2024-02-08T13:40:50Z</time>
      </trkpt>
      <trkpt lat="42.87305250" lon="13.54811651">
        <ele>289.00000</ele>
        <time>2024-02-08T13:40:51Z</time>
      </trkpt>
      <trkpt lat="42.87301286" lon="13.54819815">
        <ele>290.00000</ele>
        <time>2024-02-08T13:40:52Z</time>
      </trkpt>
      <trkpt lat="42.87296399" lon="13.54829982">
        <ele>291.00000</ele>
        <time>2024-02-08T13:40:53Z</time>
      </trkpt>
      <trkpt lat="42.87290020" lon="13.54842212">
        <ele>293.00000</ele>
        <time>2024-02-08T13:40:54Z</time>
      </trkpt>
      <trkpt lat="42.87284882" lon="13.54852613">
        <ele>296.00000</ele>
        <time>2024-02-08T13:40:55Z</time>
      </trkpt>
      <trkpt lat="42.87280624" lon="13.54863057">
        <ele>298.00000</ele>
        <time>2024-02-08T13:40:56Z</time>
      </trkpt>
      <trkpt lat="42.87276349" lon="13.54873878">
        <ele>300.00000</ele>
        <time>2024-02-08T13:40:57Z</time>
      </trkpt>
      <trkpt lat="42.87274447" lon="13.54884951">
        <ele>301.00000</ele>
        <time>2024-02-08T13:40:58Z</time>
      </trkpt>
      <trkpt lat="42.87275813" lon="13.54896333">
        <ele>302.00000</ele>
        <time>2024-02-08T13:40:59Z</time>
      </trkpt>
      <trkpt lat="42.87279484" lon="13.54907356">
        <ele>301.00000</ele>
        <time>2024-02-08T13:41:00Z</time>
      </trkpt>
      <trkpt lat="42.87284614" lon="13.54917238">
        <ele>300.00000</ele>
        <time>2024-02-08T13:41:01Z</time>
      </trkpt>
      <trkpt lat="42.87290339" lon="13.54926140">
        <ele>299.00000</ele>
        <time>2024-02-08T13:41:02Z</time>
      </trkpt>
      <trkpt lat="42.87295460" lon="13.54932946">
        <ele>297.00000</ele>
        <time>2024-02-08T13:41:03Z</time>
      </trkpt>
      <trkpt lat="42.87303264" lon="13.54943540">
        <ele>296.00000</ele>
        <time>2024-02-08T13:41:04Z</time>
      </trkpt>
      <trkpt lat="42.87310472" lon="13.54953037">
        <ele>294.00000</ele>
        <time>2024-02-08T13:41:05Z</time>
      </trkpt>
      <trkpt lat="42.87317387" lon="13.54962978">
        <ele>293.00000</ele>
        <time>2024-02-08T13:41:06Z</time>
      </trkpt>
      <trkpt lat="42.87324277" lon="13.54972508">
        <ele>292.00000</ele>
        <time>2024-02-08T13:41:07Z</time>
      </trkpt>
      <trkpt lat="42.87330999" lon="13.54982558">
        <ele>290.00000</ele>
        <time>2024-02-08T13:41:08Z</time>
      </trkpt>
      <trkpt lat="42.87337160" lon="13.54993522">
        <ele>288.00000</ele>
        <time>2024-02-08T13:41:09Z</time>
      </trkpt>
      <trkpt lat="42.87342499" lon="13.55005005">
        <ele>285.00000</ele>
        <time>2024-02-08T13:41:10Z</time>
      </trkpt>
      <trkpt lat="42.87347193" lon="13.55016656">
        <ele>282.00000</ele>
        <time>2024-02-08T13:41:11Z</time>
      </trkpt>
      <trkpt lat="42.87351627" lon="13.55028432">
        <ele>279.00000</ele>
        <time>2024-02-08T13:41:12Z</time>
      </trkpt>
      <trkpt lat="42.87354251" lon="13.55041206">
        <ele>276.00000</ele>
        <time>2024-02-08T13:41:13Z</time>
      </trkpt>
      <trkpt lat="42.87354544" lon="13.55053712">
        <ele>275.00000</ele>
        <time>2024-02-08T13:41:14Z</time>
      </trkpt>
      <trkpt lat="42.87351066" lon="13.55064785">
        <ele>276.00000</ele>
        <time>2024-02-08T13:41:15Z</time>
      </trkpt>
      <trkpt lat="42.87344293" lon="13.55072261">
        <ele>279.00000</ele>
        <time>2024-02-08T13:41:16Z</time>
      </trkpt>
      <trkpt lat="42.87334327" lon="13.55076226">
        <ele>283.00000</ele>
        <time>2024-02-08T13:41:17Z</time>
      </trkpt>
      <trkpt lat="42.87326255" lon="13.55078715">
        <ele>285.00000</ele>
        <time>2024-02-08T13:41:18Z</time>
      </trkpt>
      <trkpt lat="42.87314655" lon="13.55081607">
        <ele>288.00000</ele>
        <time>2024-02-08T13:41:19Z</time>
      </trkpt>
      <trkpt lat="42.87306197" lon="13.55083225">
        <ele>289.00000</ele>
        <time>2024-02-08T13:41:20Z</time>
      </trkpt>
      <trkpt lat="42.87294999" lon="13.55086477">
        <ele>292.00000</ele>
        <time>2024-02-08T13:41:21Z</time>
      </trkpt>
      <trkpt lat="42.87287497" lon="13.55089427">
        <ele>293.00000</ele>
        <time>2024-02-08T13:41:22Z</time>
      </trkpt>
      <trkpt lat="42.87278856" lon="13.55093996">
        <ele>294.00000</ele>
        <time>2024-02-08T13:41:23Z</time>
      </trkpt>
      <trkpt lat="42.87269602" lon="13.55100919">
        <ele>295.00000</ele>
        <time>2024-02-08T13:41:24Z</time>
      </trkpt>
      <trkpt lat="42.87262477" lon="13.55108236">
        <ele>295.00000</ele>
        <time>2024-02-08T13:41:25Z</time>
      </trkpt>
      <trkpt lat="42.87255344" lon="13.55116853">
        <ele>295.00000</ele>
        <time>2024-02-08T13:41:26Z</time>
      </trkpt>
      <trkpt lat="42.87248530" lon="13.55126953">
        <ele>296.00000</ele>
        <time>2024-02-08T13:41:27Z</time>
      </trkpt>
      <trkpt lat="42.87242470" lon="13.55138118">
        <ele>296.00000</ele>
        <time>2024-02-08T13:41:28Z</time>
      </trkpt>
      <trkpt lat="42.87237156" lon="13.55149911">
        <ele>296.00000</ele>
        <time>2024-02-08T13:41:29Z</time>
      </trkpt>
      <trkpt lat="42.87233183" lon="13.55162166">
        <ele>295.00000</ele>
        <time>2024-02-08T13:41:30Z</time>
      </trkpt>
      <trkpt lat="42.87230182" lon="13.55174663">
        <ele>295.00000</ele>
        <time>2024-02-08T13:41:31Z</time>
      </trkpt>
      <trkpt lat="42.87228003" lon="13.55187202">
        <ele>296.00000</ele>
        <time>2024-02-08T13:41:32Z</time>
      </trkpt>
      <trkpt lat="42.87225421" lon="13.55200194">
        <ele>298.00000</ele>
        <time>2024-02-08T13:41:33Z</time>
      </trkpt>
      <trkpt lat="42.87225907" lon="13.55213111">
        <ele>298.00000</ele>
        <time>2024-02-08T13:41:34Z</time>
      </trkpt>
      <trkpt lat="42.87229092" lon="13.55225617">
        <ele>296.00000</ele>
        <time>2024-02-08T13:41:35Z</time>
      </trkpt>
      <trkpt lat="42.87233426" lon="13.55237343">
        <ele>294.00000</ele>
        <time>2024-02-08T13:41:36Z</time>
      </trkpt>
      <trkpt lat="42.87237675" lon="13.55248457">
        <ele>292.00000</ele>
        <time>2024-02-08T13:41:37Z</time>
      </trkpt>
      <trkpt lat="42.87241799" lon="13.55259572">
        <ele>290.00000</ele>
        <time>2024-02-08T13:41:38Z</time>
      </trkpt>
      <trkpt lat="42.87247105" lon="13.55270904">
        <ele>287.00000</ele>
        <time>2024-02-08T13:41:39Z</time>
      </trkpt>
      <trkpt lat="42.87250500" lon="13.55282505">
        <ele>285.00000</ele>
        <time>2024-02-08T13:41:40Z</time>
      </trkpt>
      <trkpt lat="42.87251849" lon="13.55294549">
        <ele>284.00000</ele>
        <time>2024-02-08T13:41:41Z</time>
      </trkpt>
      <trkpt lat="42.87252101" lon="13.55307064">
        <ele>283.00000</ele>
        <time>2024-02-08T13:41:42Z</time>
      </trkpt>
      <trkpt lat="42.87250525" lon="13.55319410">
        <ele>282.00000</ele>
        <time>2024-02-08T13:41:43Z</time>
      </trkpt>
      <trkpt lat="42.87246108" lon="13.55330307">
        <ele>283.00000</ele>
        <time>2024-02-08T13:41:44Z</time>
      </trkpt>
      <trkpt lat="42.87240508" lon="13.55339183">
        <ele>283.00000</ele>
        <time>2024-02-08T13:41:45Z</time>
      </trkpt>
      <trkpt lat="42.87232311" lon="13.55344899">
        <ele>286.00000</ele>
        <time>2024-02-08T13:41:46Z</time>
      </trkpt>
      <trkpt lat="42.87222487" lon="13.55347699">
        <ele>290.00000</ele>
        <time>2024-02-08T13:41:47Z</time>
      </trkpt>
      <trkpt lat="42.87215019" lon="13.55350239">
        <ele>291.00000</ele>
        <time>2024-02-08T13:41:48Z</time>
      </trkpt>
      <trkpt lat="42.87206503" lon="13.55354899">
        <ele>293.00000</ele>
        <time>2024-02-08T13:41:49Z</time>
      </trkpt>
      <trkpt lat="42.87198146" lon="13.55360247">
        <ele>294.00000</ele>
        <time>2024-02-08T13:41:50Z</time>
      </trkpt>
      <trkpt lat="42.87189220" lon="13.55365645">
        <ele>294.00000</ele>
        <time>2024-02-08T13:41:51Z</time>
      </trkpt>
      <trkpt lat="42.87180016" lon="13.55373364">
        <ele>294.00000</ele>
        <time>2024-02-08T13:41:52Z</time>
      </trkpt>
      <trkpt lat="42.87173839" lon="13.55378871">
        <ele>294.00000</ele>
        <time>2024-02-08T13:41:53Z</time>
      </trkpt>
      <trkpt lat="42.87163202" lon="13.55387404">
        <ele>294.00000</ele>
        <time>2024-02-08T13:41:54Z</time>
      </trkpt>
      <trkpt lat="42.87155206" lon="13.55395275">
        <ele>293.00000</ele>
        <time>2024-02-08T13:41:55Z</time>
      </trkpt>
      <trkpt lat="42.87147369" lon="13.55402709">
        <ele>292.00000</ele>
        <time>2024-02-08T13:41:56Z</time>
      </trkpt>
      <trkpt lat="42.87139574" lon="13.55409591">
        <ele>291.00000</ele>
        <time>2024-02-08T13:41:57Z</time>
      </trkpt>
      <trkpt lat="42.87131158" lon="13.55413547">
        <ele>289.00000</ele>
        <time>2024-02-08T13:41:58Z</time>
      </trkpt>
      <trkpt lat="42.87123547" lon="13.55415098">
        <ele>289.00000</ele>
        <time>2024-02-08T13:41:59Z</time>
      </trkpt>
      <trkpt lat="42.87115333" lon="13.55415659">
        <ele>289.00000</ele>
        <time>2024-02-08T13:42:00Z</time>
      </trkpt>
      <trkpt lat="42.87103364" lon="13.55414059">
        <ele>289.00000</ele>
        <time>2024-02-08T13:42:01Z</time>
      </trkpt>
      <trkpt lat="42.87092694" lon="13.55411712">
        <ele>290.00000</ele>
        <time>2024-02-08T13:42:02Z</time>
      </trkpt>
      <trkpt lat="42.87082979" lon="13.55408845">
        <ele>292.00000</ele>
        <time>2024-02-08T13:42:03Z</time>
      </trkpt>
      <trkpt lat="42.87072041" lon="13.55406012">
        <ele>294.00000</ele>
        <time>2024-02-08T13:42:04Z</time>
      </trkpt>
      <trkpt lat="42.87062804" lon="13.55402869">
        <ele>297.00000</ele>
        <time>2024-02-08T13:42:05Z</time>
      </trkpt>
      <trkpt lat="42.87052704" lon="13.55400111">
        <ele>299.00000</ele>
        <time>2024-02-08T13:42:06Z</time>
      </trkpt>
      <trkpt lat="42.87042846" lon="13.55398451">
        <ele>300.00000</ele>
        <time>2024-02-08T13:42:07Z</time>
      </trkpt>
      <trkpt lat="42.87033115" lon="13.55397965">
        <ele>300.00000</ele>
        <time>2024-02-08T13:42:08Z</time>
      </trkpt>
      <trkpt lat="42.87023325" lon="13.55399575">
        <ele>300.00000</ele>
        <time>2024-02-08T13:42:09Z</time>
      </trkpt>
      <trkpt lat="42.87013946" lon="13.55403036">
        <ele>300.00000</ele>
        <time>2024-02-08T13:42:10Z</time>
      </trkpt>
      <trkpt lat="42.87005891" lon="13.55408627">
        <ele>299.00000</ele>
        <time>2024-02-08T13:42:11Z</time>
      </trkpt>
      <trkpt lat="42.86996754" lon="13.55415685">
        <ele>298.00000</ele>
        <time>2024-02-08T13:42:12Z</time>
      </trkpt>
      <trkpt lat="42.86988875" lon="13.55423664">
        <ele>299.00000</ele>
        <time>2024-02-08T13:42:13Z</time>
      </trkpt>
      <trkpt lat="42.86979613" lon="13.55431786">
        <ele>301.00000</ele>
        <time>2024-02-08T13:42:14Z</time>
      </trkpt>
      <trkpt lat="42.86971106" lon="13.55441476">
        <ele>303.00000</ele>
        <time>2024-02-08T13:42:15Z</time>
      </trkpt>
      <trkpt lat="42.86962464" lon="13.55452020">
        <ele>306.00000</ele>
        <time>2024-02-08T13:42:16Z</time>
      </trkpt>
      <trkpt lat="42.86955750" lon="13.55464115">
        <ele>307.00000</ele>
        <time>2024-02-08T13:42:17Z</time>
      </trkpt>
      <trkpt lat="42.86954149" lon="13.55476973">
        <ele>305.00000</ele>
        <time>2024-02-08T13:42:18Z</time>
      </trkpt>
      <trkpt lat="42.86955272" lon="13.55490594">
        <ele>302.00000</ele>
        <time>2024-02-08T13:42:19Z</time>
      </trkpt>
      <trkpt lat="42.86954560" lon="13.55504499">
        <ele>300.00000</ele>
        <time>2024-02-08T13:42:20Z</time>
      </trkpt>
      <trkpt lat="42.86954627" lon="13.55518220">
        <ele>298.00000</ele>
        <time>2024-02-08T13:42:21Z</time>
      </trkpt>
      <trkpt lat="42.86954711" lon="13.55532185">
        <ele>297.00000</ele>
        <time>2024-02-08T13:42:22Z</time>
      </trkpt>
      <trkpt lat="42.86953973" lon="13.55545663">
        <ele>297.00000</ele>
        <time>2024-02-08T13:42:23Z</time>
      </trkpt>
      <trkpt lat="42.86955348" lon="13.55558948">
        <ele>295.00000</ele>
        <time>2024-02-08T13:42:24Z</time>
      </trkpt>
      <trkpt lat="42.86956513" lon="13.55572653">
        <ele>294.00000</ele>
        <time>2024-02-08T13:42:25Z</time>
      </trkpt>
      <trkpt lat="42.86956823" lon="13.55586122">
        <ele>294.00000</ele>
        <time>2024-02-08T13:42:26Z</time>
      </trkpt>
      <trkpt lat="42.86957007" lon="13.55599458">
        <ele>294.00000</ele>
        <time>2024-02-08T13:42:27Z</time>
      </trkpt>
      <trkpt lat="42.86957066" lon="13.55612928">
        <ele>295.00000</ele>
        <time>2024-02-08T13:42:28Z</time>
      </trkpt>
      <trkpt lat="42.86957167" lon="13.55626045">
        <ele>295.00000</ele>
        <time>2024-02-08T13:42:29Z</time>
      </trkpt>
      <trkpt lat="42.86959153" lon="13.55638886">
        <ele>294.00000</ele>
        <time>2024-02-08T13:42:30Z</time>
      </trkpt>
      <trkpt lat="42.86962137" lon="13.55651803">
        <ele>294.00000</ele>
        <time>2024-02-08T13:42:31Z</time>
      </trkpt>
      <trkpt lat="42.86967032" lon="13.55663940">
        <ele>293.00000</ele>
        <time>2024-02-08T13:42:32Z</time>
      </trkpt>
      <trkpt lat="42.86973377" lon="13.55674484">
        <ele>292.00000</ele>
        <time>2024-02-08T13:42:33Z</time>
      </trkpt>
      <trkpt lat="42.86980854" lon="13.55682900">
        <ele>290.00000</ele>
        <time>2024-02-08T13:42:34Z</time>
      </trkpt>
      <trkpt lat="42.86988674" lon="13.55691013">
        <ele>288.00000</ele>
        <time>2024-02-08T13:42:35Z</time>
      </trkpt>
      <trkpt lat="42.86996268" lon="13.55698708">
        <ele>287.00000</ele>
        <time>2024-02-08T13:42:36Z</time>
      </trkpt>
      <trkpt lat="42.87003519" lon="13.55706050">
        <ele>285.00000</ele>
        <time>2024-02-08T13:42:37Z</time>
      </trkpt>
      <trkpt lat="42.87007525" lon="13.55715581">
        <ele>284.00000</ele>
        <time>2024-02-08T13:42:38Z</time>
      </trkpt>
      <trkpt lat="42.87008321" lon="13.55727399">
        <ele>285.00000</ele>
        <time>2024-02-08T13:42:39Z</time>
      </trkpt>
      <trkpt lat="42.87007215" lon="13.55739436">
        <ele>286.00000</ele>
        <time>2024-02-08T13:42:40Z</time>
      </trkpt>
      <trkpt lat="42.87004441" lon="13.55751480">
        <ele>287.00000</ele>
        <time>2024-02-08T13:42:41Z</time>
      </trkpt>
      <trkpt lat="42.87000191" lon="13.55762595">
        <ele>288.00000</ele>
        <time>2024-02-08T13:42:42Z</time>
      </trkpt>
      <trkpt lat="42.86994231" lon="13.55772527">
        <ele>289.00000</ele>
        <time>2024-02-08T13:42:43Z</time>
      </trkpt>
      <trkpt lat="42.86987476" lon="13.55781354">
        <ele>290.00000</ele>
        <time>2024-02-08T13:42:44Z</time>
      </trkpt>
      <trkpt lat="42.86980485" lon="13.55789618">
        <ele>290.00000</ele>
        <time>2024-02-08T13:42:45Z</time>
      </trkpt>
      <trkpt lat="42.86973134" lon="13.55797983">
        <ele>290.00000</ele>
        <time>2024-02-08T13:42:46Z</time>
      </trkpt>
      <trkpt lat="42.86965984" lon="13.55806734">
        <ele>289.00000</ele>
        <time>2024-02-08T13:42:47Z</time>
      </trkpt>
      <trkpt lat="42.86958927" lon="13.55816155">
        <ele>288.00000</ele>
        <time>2024-02-08T13:42:48Z</time>
      </trkpt>
      <trkpt lat="42.86952129" lon="13.55825920">
        <ele>287.00000</ele>
        <time>2024-02-08T13:42:49Z</time>
      </trkpt>
      <trkpt lat="42.86947242" lon="13.55835308">
        <ele>286.00000</ele>
        <time>2024-02-08T13:42:50Z</time>
      </trkpt>
      <trkpt lat="42.86941761" lon="13.55848233">
        <ele>284.00000</ele>
        <time>2024-02-08T13:42:51Z</time>
      </trkpt>
      <trkpt lat="42.86936547" lon="13.55862868">
        <ele>282.00000</ele>
        <time>2024-02-08T13:42:52Z</time>
      </trkpt>
      <trkpt lat="42.86930973" lon="13.55882531">
        <ele>279.00000</ele>
        <time>2024-02-08T13:42:53Z</time>
      </trkpt>
      <trkpt lat="42.86927369" lon="13.55899848">
        <ele>277.00000</ele>
        <time>2024-02-08T13:42:54Z</time>
      </trkpt>
      <trkpt lat="42.86923714" lon="13.55917040">
        <ele>275.00000</ele>
        <time>2024-02-08T13:42:55Z</time>
      </trkpt>
      <trkpt lat="42.86919155" lon="13.55933904">
        <ele>274.00000</ele>
        <time>2024-02-08T13:42:56Z</time>
      </trkpt>
      <trkpt lat="42.86913790" lon="13.55950416">
        <ele>274.00000</ele>
        <time>2024-02-08T13:42:57Z</time>
      </trkpt>
      <trkpt lat="42.86908694" lon="13.55963501">
        <ele>272.00000</ele>
        <time>2024-02-08T13:42:58Z</time>
      </trkpt>
      <trkpt lat="42.86900698" lon="13.55982754">
        <ele>270.00000</ele>
        <time>2024-02-08T13:42:59Z</time>
      </trkpt>
      <trkpt lat="42.86893447" lon="13.55997632">
        <ele>268.00000</ele>
        <time>2024-02-08T13:43:00Z</time>
      </trkpt>
      <trkpt lat="42.86886356" lon="13.56008687">
        <ele>267.00000</ele>
        <time>2024-02-08T13:43:01Z</time>
      </trkpt>
      <trkpt lat="42.86875292" lon="13.56025259">
        <ele>266.00000</ele>
        <time>2024-02-08T13:43:02Z</time>
      </trkpt>
      <trkpt lat="42.86866751" lon="13.56039248">
        <ele>265.00000</ele>
        <time>2024-02-08T13:43:03Z</time>
      </trkpt>
      <trkpt lat="42.86858084" lon="13.56053036">
        <ele>265.00000</ele>
        <time>2024-02-08T13:43:04Z</time>
      </trkpt>
      <trkpt lat="42.86849602" lon="13.56066145">
        <ele>263.00000</ele>
        <time>2024-02-08T13:43:05Z</time>
      </trkpt>
      <trkpt lat="42.86842670" lon="13.56076849">
        <ele>261.00000</ele>
        <time>2024-02-08T13:43:06Z</time>
      </trkpt>
      <trkpt lat="42.86834212" lon="13.56089699">
        <ele>260.00000</ele>
        <time>2024-02-08T13:43:07Z</time>
      </trkpt>
      <trkpt lat="42.86823668" lon="13.56104115">
        <ele>255.00000</ele>
        <time>2024-02-08T13:43:08Z</time>
      </trkpt>
      <trkpt lat="42.86814708" lon="13.56116395">
        <ele>252.00000</ele>
        <time>2024-02-08T13:43:09Z</time>
      </trkpt>
      <trkpt lat="42.86805898" lon="13.56128666">
        <ele>249.00000</ele>
        <time>2024-02-08T13:43:10Z</time>
      </trkpt>
      <trkpt lat="42.86797516" lon="13.56141474">
        <ele>247.00000</ele>
        <time>2024-02-08T13:43:11Z</time>
      </trkpt>
      <trkpt lat="42.86788959" lon="13.56153544">
        <ele>246.00000</ele>
        <time>2024-02-08T13:43:12Z</time>
      </trkpt>
      <trkpt lat="42.86780443" lon="13.56164826">
        <ele>244.00000</ele>
        <time>2024-02-08T13:43:13Z</time>
      </trkpt>
      <trkpt lat="42.86772455" lon="13.56177281">
        <ele>242.00000</ele>
        <time>2024-02-08T13:43:14Z</time>
      </trkpt>
      <trkpt lat="42.86766579" lon="13.56189192">
        <ele>241.00000</ele>
        <time>2024-02-08T13:43:15Z</time>
      </trkpt>
      <trkpt lat="42.86765355" lon="13.56203424">
        <ele>241.00000</ele>
        <time>2024-02-08T13:43:16Z</time>
      </trkpt>
      <trkpt lat="42.86765690" lon="13.56217917">
        <ele>241.00000</ele>
        <time>2024-02-08T13:43:17Z</time>
      </trkpt>
      <trkpt lat="42.86767652" lon="13.56231680">
        <ele>241.00000</ele>
        <time>2024-02-08T13:43:18Z</time>
      </trkpt>
      <trkpt lat="42.86772446" lon="13.56244286">
        <ele>240.00000</ele>
        <time>2024-02-08T13:43:19Z</time>
      </trkpt>
      <trkpt lat="42.86779127" lon="13.56257395">
        <ele>240.00000</ele>
        <time>2024-02-08T13:43:20Z</time>
      </trkpt>
      <trkpt lat="42.86784533" lon="13.56268049">
        <ele>240.00000</ele>
        <time>2024-02-08T13:43:21Z</time>
      </trkpt>
      <trkpt lat="42.86792169" lon="13.56283916">
        <ele>241.00000</ele>
        <time>2024-02-08T13:43:22Z</time>
      </trkpt>
      <trkpt lat="42.86798464" lon="13.56297813">
        <ele>242.00000</ele>
        <time>2024-02-08T13:43:23Z</time>
      </trkpt>
      <trkpt lat="42.86804180" lon="13.56312414">
        <ele>243.00000</ele>
        <time>2024-02-08T13:43:24Z</time>
      </trkpt>
      <trkpt lat="42.86808237" lon="13.56327770">
        <ele>242.00000</ele>
        <time>2024-02-08T13:43:25Z</time>
      </trkpt>
      <trkpt lat="42.86810936" lon="13.56343620">
        <ele>241.00000</ele>
        <time>2024-02-08T13:43:26Z</time>
      </trkpt>
      <trkpt lat="42.86812746" lon="13.56359722">
        <ele>239.00000</ele>
        <time>2024-02-08T13:43:27Z</time>
      </trkpt>
      <trkpt lat="42.86814054" lon="13.56376100">
        <ele>237.00000</ele>
        <time>2024-02-08T13:43:28Z</time>
      </trkpt>
      <trkpt lat="42.86814800" lon="13.56392562">
        <ele>235.00000</ele>
        <time>2024-02-08T13:43:29Z</time>
      </trkpt>
      <trkpt lat="42.86815362" lon="13.56409133">
        <ele>234.00000</ele>
        <time>2024-02-08T13:43:30Z</time>
      </trkpt>
      <trkpt lat="42.86815957" lon="13.56425335">
        <ele>233.00000</ele>
        <time>2024-02-08T13:43:31Z</time>
      </trkpt>
      <trkpt lat="42.86816175" lon="13.56440817">
        <ele>234.00000</ele>
        <time>2024-02-08T13:43:32Z</time>
      </trkpt>
      <trkpt lat="42.86815051" lon="13.56455485">
        <ele>234.00000</ele>
        <time>2024-02-08T13:43:33Z</time>
      </trkpt>
      <trkpt lat="42.86812009" lon="13.56468955">
        <ele>235.00000</ele>
        <time>2024-02-08T13:43:34Z</time>
      </trkpt>
      <trkpt lat="42.86806309" lon="13.56480346">
        <ele>236.00000</ele>
        <time>2024-02-08T13:43:35Z</time>
      </trkpt>
      <trkpt lat="42.86796812" lon="13.56484511">
        <ele>237.00000</ele>
        <time>2024-02-08T13:43:36Z</time>
      </trkpt>
      <trkpt lat="42.86786335" lon="13.56481016">
        <ele>237.00000</ele>
        <time>2024-02-08T13:43:37Z</time>
      </trkpt>
      <trkpt lat="42.86775891" lon="13.56474084">
        <ele>237.00000</ele>
        <time>2024-02-08T13:43:38Z</time>
      </trkpt>
      <trkpt lat="42.86765825" lon="13.56467731">
        <ele>235.00000</ele>
        <time>2024-02-08T13:43:39Z</time>
      </trkpt>
      <trkpt lat="42.86755406" lon="13.56462811">
        <ele>234.00000</ele>
        <time>2024-02-08T13:43:40Z</time>
      </trkpt>
      <trkpt lat="42.86746563" lon="13.56461763">
        <ele>233.00000</ele>
        <time>2024-02-08T13:43:41Z</time>
      </trkpt>
      <trkpt lat="42.86732750" lon="13.56464286">
        <ele>231.00000</ele>
        <time>2024-02-08T13:43:42Z</time>
      </trkpt>
      <trkpt lat="42.86720965" lon="13.56468343">
        <ele>230.00000</ele>
        <time>2024-02-08T13:43:43Z</time>
      </trkpt>
      <trkpt lat="42.86709121" lon="13.56473380">
        <ele>229.00000</ele>
        <time>2024-02-08T13:43:44Z</time>
      </trkpt>
      <trkpt lat="42.86696766" lon="13.56477336">
        <ele>227.00000</ele>
        <time>2024-02-08T13:43:45Z</time>
      </trkpt>
      <trkpt lat="42.86683816" lon="13.56479692">
        <ele>225.00000</ele>
        <time>2024-02-08T13:43:46Z</time>
      </trkpt>
      <trkpt lat="42.86670170" lon="13.56480069">
        <ele>224.00000</ele>
        <time>2024-02-08T13:43:47Z</time>
      </trkpt>
      <trkpt lat="42.86656340" lon="13.56479331">
        <ele>222.00000</ele>
        <time>2024-02-08T13:43:48Z</time>
      </trkpt>
      <trkpt lat="42.86642686" lon="13.56478351">
        <ele>220.00000</ele>
        <time>2024-02-08T13:43:49Z</time>
      </trkpt>
      <trkpt lat="42.86631312" lon="13.56477596">
        <ele>218.00000</ele>
        <time>2024-02-08T13:43:50Z</time>
      </trkpt>
      <trkpt lat="42.86613819" lon="13.56477714">
        <ele>216.00000</ele>
        <time>2024-02-08T13:43:51Z</time>
      </trkpt>
      <trkpt lat="42.86604230" lon="13.56478284">
        <ele>215.00000</ele>
        <time>2024-02-08T13:43:52Z</time>
      </trkpt>
      <trkpt lat="42.86591816" lon="13.56478627">
        <ele>213.00000</ele>
        <time>2024-02-08T13:43:53Z</time>
      </trkpt>
      <trkpt lat="42.86582755" lon="13.56478770">
        <ele>211.00000</ele>
        <time>2024-02-08T13:43:54Z</time>
      </trkpt>
      <trkpt lat="42.86576410" lon="13.56480513">
        <ele>211.00000</ele>
        <time>2024-02-08T13:43:55Z</time>
      </trkpt>
      <trkpt lat="42.86569981" lon="13.56486674">
        <ele>210.00000</ele>
        <time>2024-02-08T13:43:56Z</time>
      </trkpt>
      <trkpt lat="42.86566528" lon="13.56498467">
        <ele>210.00000</ele>
        <time>2024-02-08T13:43:57Z</time>
      </trkpt>
      <trkpt lat="42.86568515" lon="13.56508366">
        <ele>211.00000</ele>
        <time>2024-02-08T13:43:58Z</time>
      </trkpt>
      <trkpt lat="42.86573334" lon="13.56516312">
        <ele>211.00000</ele>
        <time>2024-02-08T13:43:59Z</time>
      </trkpt>
      <trkpt lat="42.86577969" lon="13.56520671">
        <ele>212.00000</ele>
        <time>2024-02-08T13:44:00Z</time>
      </trkpt>
      <trkpt lat="42.86586334" lon="13.56524619">
        <ele>213.00000</ele>
        <time>2024-02-08T13:44:01Z</time>
      </trkpt>
      <trkpt lat="42.86596032" lon="13.56529371">
        <ele>215.00000</ele>
        <time>2024-02-08T13:44:02Z</time>
      </trkpt>
      <trkpt lat="42.86604582" lon="13.56533546">
        <ele>216.00000</ele>
        <time>2024-02-08T13:44:03Z</time>
      </trkpt>
      <trkpt lat="42.86613400" lon="13.56537804">
        <ele>217.00000</ele>
        <time>2024-02-08T13:44:04Z</time>
      </trkpt>
      <trkpt lat="42.86621002" lon="13.56541433">
        <ele>218.00000</ele>
        <time>2024-02-08T13:44:05Z</time>
      </trkpt>
      <trkpt lat="42.86631278" lon="13.56547954">
        <ele>219.00000</ele>
        <time>2024-02-08T13:44:06Z</time>
      </trkpt>
      <trkpt lat="42.86637238" lon="13.56555959">
        <ele>219.00000</ele>
        <time>2024-02-08T13:44:07Z</time>
      </trkpt>
      <trkpt lat="42.86640725" lon="13.56567802">
        <ele>218.00000</ele>
        <time>2024-02-08T13:44:08Z</time>
      </trkpt>
      <trkpt lat="42.86642292" lon="13.56580568">
        <ele>217.00000</ele>
        <time>2024-02-08T13:44:09Z</time>
      </trkpt>
      <trkpt lat="42.86641571" lon="13.56593032">
        <ele>216.00000</ele>
        <time>2024-02-08T13:44:10Z</time>
      </trkpt>
      <trkpt lat="42.86638168" lon="13.56604834">
        <ele>214.00000</ele>
        <time>2024-02-08T13:44:11Z</time>
      </trkpt>
      <trkpt lat="42.86633089" lon="13.56616074">
        <ele>213.00000</ele>
        <time>2024-02-08T13:44:12Z</time>
      </trkpt>
      <trkpt lat="42.86626107" lon="13.56626492">
        <ele>212.00000</ele>
        <time>2024-02-08T13:44:13Z</time>
      </trkpt>
      <trkpt lat="42.86618412" lon="13.56636567">
        <ele>211.00000</ele>
        <time>2024-02-08T13:44:14Z</time>
      </trkpt>
      <trkpt lat="42.86611556" lon="13.56644413">
        <ele>211.00000</ele>
        <time>2024-02-08T13:44:15Z</time>
      </trkpt>
      <trkpt lat="42.86602218" lon="13.56656810">
        <ele>210.00000</ele>
        <time>2024-02-08T13:44:16Z</time>
      </trkpt>
      <trkpt lat="42.86594364" lon="13.56667555">
        <ele>211.00000</ele>
        <time>2024-02-08T13:44:17Z</time>
      </trkpt>
      <trkpt lat="42.86584918" lon="13.56676382">
        <ele>211.00000</ele>
        <time>2024-02-08T13:44:18Z</time>
      </trkpt>
      <trkpt lat="42.86574700" lon="13.56683238">
        <ele>212.00000</ele>
        <time>2024-02-08T13:44:19Z</time>
      </trkpt>
      <trkpt lat="42.86564005" lon="13.56683858">
        <ele>213.00000</ele>
        <time>2024-02-08T13:44:20Z</time>
      </trkpt>
      <trkpt lat="42.86553326" lon="13.56678334">
        <ele>213.00000</ele>
        <time>2024-02-08T13:44:21Z</time>
      </trkpt>
      <trkpt lat="42.86542958" lon="13.56668033">
        <ele>212.00000</ele>
        <time>2024-02-08T13:44:22Z</time>
      </trkpt>
      <trkpt lat="42.86533864" lon="13.56655812">
        <ele>211.00000</ele>
        <time>2024-02-08T13:44:23Z</time>
      </trkpt>
      <trkpt lat="42.86526219" lon="13.56643390">
        <ele>209.00000</ele>
        <time>2024-02-08T13:44:24Z</time>
      </trkpt>
      <trkpt lat="42.86517553" lon="13.56631614">
        <ele>208.00000</ele>
        <time>2024-02-08T13:44:25Z</time>
      </trkpt>
      <trkpt lat="42.86508399" lon="13.56619728">
        <ele>207.00000</ele>
        <time>2024-02-08T13:44:26Z</time>
      </trkpt>
      <trkpt lat="42.86498928" lon="13.56608932">
        <ele>206.00000</ele>
        <time>2024-02-08T13:44:27Z</time>
      </trkpt>
      <trkpt lat="42.86488283" lon="13.56599561">
        <ele>204.00000</ele>
        <time>2024-02-08T13:44:28Z</time>
      </trkpt>
      <trkpt lat="42.86476414" lon="13.56592495">
        <ele>202.00000</ele>
        <time>2024-02-08T13:44:29Z</time>
      </trkpt>
      <trkpt lat="42.86464797" lon="13.56588556">
        <ele>201.00000</ele>
        <time>2024-02-08T13:44:30Z</time>
      </trkpt>
      <trkpt lat="42.86452987" lon="13.56589931">
        <ele>199.00000</ele>
        <time>2024-02-08T13:44:31Z</time>
      </trkpt>
      <trkpt lat="42.86441579" lon="13.56596284">
        <ele>198.00000</ele>
        <time>2024-02-08T13:44:32Z</time>
      </trkpt>
      <trkpt lat="42.86431085" lon="13.56604029">
        <ele>198.00000</ele>
        <time>2024-02-08T13:44:33Z</time>
      </trkpt>
      <trkpt lat="42.86420825" lon="13.56612696">
        <ele>197.00000</ele>
        <time>2024-02-08T13:44:34Z</time>
      </trkpt>
      <trkpt lat="42.86410088" lon="13.56620851">
        <ele>197.00000</ele>
        <time>2024-02-08T13:44:35Z</time>
      </trkpt>
      <trkpt lat="42.86399343" lon="13.56627255">
        <ele>197.00000</ele>
        <time>2024-02-08T13:44:36Z</time>
      </trkpt>
      <trkpt lat="42.86388907" lon="13.56627725">
        <ele>197.00000</ele>
        <time>2024-02-08T13:44:37Z</time>
      </trkpt>
      <trkpt lat="42.86379662" lon="13.56623869">
        <ele>198.00000</ele>
        <time>2024-02-08T13:44:38Z</time>
      </trkpt>
      <trkpt lat="42.86373853" lon="13.56613006">
        <ele>198.00000</ele>
        <time>2024-02-08T13:44:39Z</time>
      </trkpt>
      <trkpt lat="42.86371934" lon="13.56598522">
        <ele>198.00000</ele>
        <time>2024-02-08T13:44:40Z</time>
      </trkpt>
      <trkpt lat="42.86371079" lon="13.56583242">
        <ele>197.00000</ele>
        <time>2024-02-08T13:44:41Z</time>
      </trkpt>
      <trkpt lat="42.86372219" lon="13.56568389">
        <ele>195.00000</ele>
        <time>2024-02-08T13:44:42Z</time>
      </trkpt>
      <trkpt lat="42.86371707" lon="13.56554551">
        <ele>194.00000</ele>
        <time>2024-02-08T13:44:43Z</time>
      </trkpt>
      <trkpt lat="42.86367977" lon="13.56541584">
        <ele>193.00000</ele>
        <time>2024-02-08T13:44:44Z</time>
      </trkpt>
      <trkpt lat="42.86362814" lon="13.56530821">
        <ele>192.00000</ele>
        <time>2024-02-08T13:44:45Z</time>
      </trkpt>
      <trkpt lat="42.86355346" lon="13.56522171">
        <ele>192.00000</ele>
        <time>2024-02-08T13:44:46Z</time>
      </trkpt>
      <trkpt lat="42.86346260" lon="13.56514410">
        <ele>192.00000</ele>
        <time>2024-02-08T13:44:47Z</time>
      </trkpt>
      <trkpt lat="42.86335221" lon="13.56507838">
        <ele>192.00000</ele>
        <time>2024-02-08T13:44:48Z</time>
      </trkpt>
      <trkpt lat="42.86323931" lon="13.56501962">
        <ele>192.00000</ele>
        <time>2024-02-08T13:44:49Z</time>
      </trkpt>
      <trkpt lat="42.86312749" lon="13.56496816">
        <ele>191.00000</ele>
        <time>2024-02-08T13:44:50Z</time>
      </trkpt>
      <trkpt lat="42.86301484" lon="13.56492985">
        <ele>190.00000</ele>
        <time>2024-02-08T13:44:51Z</time>
      </trkpt>
      <trkpt lat="42.86290344" lon="13.56490823">
        <ele>188.00000</ele>
        <time>2024-02-08T13:44:52Z</time>
      </trkpt>
      <trkpt lat="42.86278794" lon="13.56490253">
        <ele>187.00000</ele>
        <time>2024-02-08T13:44:53Z</time>
      </trkpt>
      <trkpt lat="42.86267034" lon="13.56490999">
        <ele>186.00000</ele>
        <time>2024-02-08T13:44:54Z</time>
      </trkpt>
      <trkpt lat="42.86255585" lon="13.56492030">
        <ele>184.00000</ele>
        <time>2024-02-08T13:44:55Z</time>
      </trkpt>
      <trkpt lat="42.86244302" lon="13.56493254">
        <ele>182.00000</ele>
        <time>2024-02-08T13:44:56Z</time>
      </trkpt>
      <trkpt lat="42.86232719" lon="13.56494578">
        <ele>181.00000</ele>
        <time>2024-02-08T13:44:57Z</time>
      </trkpt>
      <trkpt lat="42.86221009" lon="13.56495810">
        <ele>179.00000</ele>
        <time>2024-02-08T13:44:58Z</time>
      </trkpt>
      <trkpt lat="42.86209300" lon="13.56496908">
        <ele>177.00000</ele>
        <time>2024-02-08T13:44:59Z</time>
      </trkpt>
      <trkpt lat="42.86197473" lon="13.56498367">
        <ele>176.00000</ele>
        <time>2024-02-08T13:45:00Z</time>
      </trkpt>
      <trkpt lat="42.86185889" lon="13.56500001">
        <ele>175.00000</ele>
        <time>2024-02-08T13:45:01Z</time>
      </trkpt>
      <trkpt lat="42.86174347" lon="13.56501099">
        <ele>175.00000</ele>
        <time>2024-02-08T13:45:02Z</time>
      </trkpt>
      <trkpt lat="42.86162621" lon="13.56501409">
        <ele>175.00000</ele>
        <time>2024-02-08T13:45:03Z</time>
      </trkpt>
      <trkpt lat="42.86150878" lon="13.56500177">
        <ele>174.00000</ele>
        <time>2024-02-08T13:45:04Z</time>
      </trkpt>
      <trkpt lat="42.86139386" lon="13.56497386">
        <ele>173.00000</ele>
        <time>2024-02-08T13:45:05Z</time>
      </trkpt>
      <trkpt lat="42.86127828" lon="13.56493002">
        <ele>172.00000</ele>
        <time>2024-02-08T13:45:06Z</time>
      </trkpt>
      <trkpt lat="42.86116722" lon="13.56487085">
        <ele>171.00000</ele>
        <time>2024-02-08T13:45:07Z</time>
      </trkpt>
      <trkpt lat="42.86106403" lon="13.56480094">
        <ele>170.00000</ele>
        <time>2024-02-08T13:45:08Z</time>
      </trkpt>
      <trkpt lat="42.86095733" lon="13.56472198">
        <ele>169.00000</ele>
        <time>2024-02-08T13:45:09Z</time>
      </trkpt>
      <trkpt lat="42.86085491" lon="13.56463213">
        <ele>169.00000</ele>
        <time>2024-02-08T13:45:10Z</time>
      </trkpt>
      <trkpt lat="42.86075566" lon="13.56454202">
        <ele>168.00000</ele>
        <time>2024-02-08T13:45:11Z</time>
      </trkpt>
      <trkpt lat="42.86066405" lon="13.56445888">
        <ele>168.00000</ele>
        <time>2024-02-08T13:45:12Z</time>
      </trkpt>
      <trkpt lat="42.86057889" lon="13.56438310">
        <ele>168.00000</ele>
        <time>2024-02-08T13:45:13Z</time>
      </trkpt>
      <trkpt lat="42.86051343" lon="13.56433072">
        <ele>167.00000</ele>
        <time>2024-02-08T13:45:14Z</time>
      </trkpt>
      <trkpt lat="42.86041930" lon="13.56426626">
        <ele>167.00000</ele>
        <time>2024-02-08T13:45:15Z</time>
      </trkpt>
      <trkpt lat="42.86033749" lon="13.56423726">
        <ele>167.00000</ele>
        <time>2024-02-08T13:45:16Z</time>
      </trkpt>
      <trkpt lat="42.86025803" lon="13.56423751">
        <ele>167.00000</ele>
        <time>2024-02-08T13:45:17Z</time>
      </trkpt>
      <trkpt lat="42.86017731" lon="13.56424514">
        <ele>167.00000</ele>
        <time>2024-02-08T13:45:18Z</time>
      </trkpt>
      <trkpt lat="42.86009333" lon="13.56424245">
        <ele>166.00000</ele>
        <time>2024-02-08T13:45:19Z</time>
      </trkpt>
      <trkpt lat="42.86001764" lon="13.56420490">
        <ele>166.00000</ele>
        <time>2024-02-08T13:45:20Z</time>
      </trkpt>
      <trkpt lat="42.85995578" lon="13.56413978">
        <ele>167.00000</ele>
        <time>2024-02-08T13:45:21Z</time>
      </trkpt>
      <trkpt lat="42.85990314" lon="13.56405462">
        <ele>168.00000</ele>
        <time>2024-02-08T13:45:22Z</time>
      </trkpt>
      <trkpt lat="42.85985796" lon="13.56396434">
        <ele>168.00000</ele>
        <time>2024-02-08T13:45:23Z</time>
      </trkpt>
      <trkpt lat="42.85980993" lon="13.56387265">
        <ele>168.00000</ele>
        <time>2024-02-08T13:45:24Z</time>
      </trkpt>
      <trkpt lat="42.85975629" lon="13.56378329">
        <ele>168.00000</ele>
        <time>2024-02-08T13:45:25Z</time>
      </trkpt>
      <trkpt lat="42.85970164" lon="13.56369654">
        <ele>168.00000</ele>
        <time>2024-02-08T13:45:26Z</time>
      </trkpt>
      <trkpt lat="42.85964431" lon="13.56360811">
        <ele>169.00000</ele>
        <time>2024-02-08T13:45:27Z</time>
      </trkpt>
      <trkpt lat="42.85958739" lon="13.56351918">
        <ele>168.00000</ele>
        <time>2024-02-08T13:45:28Z</time>
      </trkpt>
      <trkpt lat="42.85952654" lon="13.56343519">
        <ele>168.00000</ele>
        <time>2024-02-08T13:45:29Z</time>
      </trkpt>
      <trkpt lat="42.85946510" lon="13.56334718">
        <ele>167.00000</ele>
        <time>2024-02-08T13:45:30Z</time>
      </trkpt>
      <trkpt lat="42.85940291" lon="13.56325926">
        <ele>167.00000</ele>
        <time>2024-02-08T13:45:31Z</time>
      </trkpt>
      <trkpt lat="42.85934030" lon="13.56317628">
        <ele>167.00000</ele>
        <time>2024-02-08T13:45:32Z</time>
      </trkpt>
      <trkpt lat="42.85927458" lon="13.56309464">
        <ele>167.00000</ele>
        <time>2024-02-08T13:45:33Z</time>
      </trkpt>
      <trkpt lat="42.85920878" lon="13.56301358">
        <ele>167.00000</ele>
        <time>2024-02-08T13:45:34Z</time>
      </trkpt>
      <trkpt lat="42.85914475" lon="13.56293488">
        <ele>167.00000</ele>
        <time>2024-02-08T13:45:35Z</time>
      </trkpt>
      <trkpt lat="42.85907719" lon="13.56285265">
        <ele>167.00000</ele>
        <time>2024-02-08T13:45:36Z</time>
      </trkpt>
      <trkpt lat="42.85900720" lon="13.56276975">
        <ele>166.00000</ele>
        <time>2024-02-08T13:45:37Z</time>
      </trkpt>
      <trkpt lat="42.85893755" lon="13.56268996">
        <ele>166.00000</ele>
        <time>2024-02-08T13:45:38Z</time>
      </trkpt>
      <trkpt lat="42.85886588" lon="13.56261259">
        <ele>165.00000</ele>
        <time>2024-02-08T13:45:39Z</time>
      </trkpt>
      <trkpt lat="42.85879195" lon="13.56254093">
        <ele>164.00000</ele>
        <time>2024-02-08T13:45:40Z</time>
      </trkpt>
      <trkpt lat="42.85871635" lon="13.56247588">
        <ele>164.00000</ele>
        <time>2024-02-08T13:45:41Z</time>
      </trkpt>
      <trkpt lat="42.85863605" lon="13.56241436">
        <ele>163.00000</ele>
        <time>2024-02-08T13:45:42Z</time>
      </trkpt>
      <trkpt lat="42.85855751" lon="13.56235359">
        <ele>162.00000</ele>
        <time>2024-02-08T13:45:43Z</time>
      </trkpt>
      <trkpt lat="42.85847973" lon="13.56229132">
        <ele>161.00000</ele>
        <time>2024-02-08T13:45:44Z</time>
      </trkpt>
      <trkpt lat="42.85839742" lon="13.56222728">
        <ele>160.00000</ele>
        <time>2024-02-08T13:45:45Z</time>
      </trkpt>
      <trkpt lat="42.85831427" lon="13.56216735">
        <ele>159.00000</ele>
        <time>2024-02-08T13:45:46Z</time>
      </trkpt>
      <trkpt lat="42.85823137" lon="13.56211286">
        <ele>159.00000</ele>
        <time>2024-02-08T13:45:47Z</time>
      </trkpt>
      <trkpt lat="42.85814747" lon="13.56205981">
        <ele>159.00000</ele>
        <time>2024-02-08T13:45:48Z</time>
      </trkpt>
      <trkpt lat="42.85806214" lon="13.56200960">
        <ele>159.00000</ele>
        <time>2024-02-08T13:45:49Z</time>
      </trkpt>
      <trkpt lat="42.85797497" lon="13.56196325">
        <ele>159.00000</ele>
        <time>2024-02-08T13:45:50Z</time>
      </trkpt>
      <trkpt lat="42.85788570" lon="13.56191673">
        <ele>159.00000</ele>
        <time>2024-02-08T13:45:51Z</time>
      </trkpt>
      <trkpt lat="42.85779761" lon="13.56187323">
        <ele>159.00000</ele>
        <time>2024-02-08T13:45:52Z</time>
      </trkpt>
      <trkpt lat="42.85770842" lon="13.56183006">
        <ele>159.00000</ele>
        <time>2024-02-08T13:45:53Z</time>
      </trkpt>
      <trkpt lat="42.85762016" lon="13.56179092">
        <ele>159.00000</ele>
        <time>2024-02-08T13:45:54Z</time>
      </trkpt>
      <trkpt lat="42.85753064" lon="13.56175127">
        <ele>159.00000</ele>
        <time>2024-02-08T13:45:55Z</time>
      </trkpt>
      <trkpt lat="42.85743978" lon="13.56171053">
        <ele>159.00000</ele>
        <time>2024-02-08T13:45:56Z</time>
      </trkpt>
      <trkpt lat="42.85734800" lon="13.56166862">
        <ele>159.00000</ele>
        <time>2024-02-08T13:45:57Z</time>
      </trkpt>
      <trkpt lat="42.85725781" lon="13.56162361">
        <ele>158.00000</ele>
        <time>2024-02-08T13:45:58Z</time>
      </trkpt>
      <trkpt lat="42.85716821" lon="13.56157592">
        <ele>158.00000</ele>
        <time>2024-02-08T13:45:59Z</time>
      </trkpt>
      <trkpt lat="42.85707626" lon="13.56153175">
        <ele>157.00000</ele>
        <time>2024-02-08T13:46:00Z</time>
      </trkpt>
      <trkpt lat="42.85698289" lon="13.56149110">
        <ele>156.00000</ele>
        <time>2024-02-08T13:46:01Z</time>
      </trkpt>
      <trkpt lat="42.85688909" lon="13.56144885">
        <ele>156.00000</ele>
        <time>2024-02-08T13:46:02Z</time>
      </trkpt>
      <trkpt lat="42.85679505" lon="13.56140568">
        <ele>156.00000</ele>
        <time>2024-02-08T13:46:03Z</time>
      </trkpt>
      <trkpt lat="42.85670184" lon="13.56136369">
        <ele>156.00000</ele>
        <time>2024-02-08T13:46:04Z</time>
      </trkpt>
      <trkpt lat="42.85661031" lon="13.56132245">
        <ele>155.00000</ele>
        <time>2024-02-08T13:46:05Z</time>
      </trkpt>
      <trkpt lat="42.85652004" lon="13.56128113">
        <ele>153.00000</ele>
        <time>2024-02-08T13:46:06Z</time>
      </trkpt>
      <trkpt lat="42.85643035" lon="13.56123955">
        <ele>151.00000</ele>
        <time>2024-02-08T13:46:07Z</time>
      </trkpt>
      <trkpt lat="42.85634201" lon="13.56119798">
        <ele>149.00000</ele>
        <time>2024-02-08T13:46:08Z</time>
      </trkpt>
      <trkpt lat="42.85625190" lon="13.56115808">
        <ele>147.00000</ele>
        <time>2024-02-08T13:46:09Z</time>
      </trkpt>
      <trkpt lat="42.85616213" lon="13.56111634">
        <ele>146.00000</ele>
        <time>2024-02-08T13:46:10Z</time>
      </trkpt>
      <trkpt lat="42.85607622" lon="13.56107435">
        <ele>145.00000</ele>
        <time>2024-02-08T13:46:11Z</time>
      </trkpt>
      <trkpt lat="42.85598829" lon="13.56103126">
        <ele>145.00000</ele>
        <time>2024-02-08T13:46:12Z</time>
      </trkpt>
      <trkpt lat="42.85589927" lon="13.56098935">
        <ele>144.00000</ele>
        <time>2024-02-08T13:46:13Z</time>
      </trkpt>
      <trkpt lat="42.85581202" lon="13.56094694">
        <ele>144.00000</ele>
        <time>2024-02-08T13:46:14Z</time>
      </trkpt>
      <trkpt lat="42.85572510" lon="13.56090595">
        <ele>144.00000</ele>
        <time>2024-02-08T13:46:15Z</time>
      </trkpt>
      <trkpt lat="42.85563776" lon="13.56086656">
        <ele>145.00000</ele>
        <time>2024-02-08T13:46:16Z</time>
      </trkpt>
      <trkpt lat="42.85555277" lon="13.56082825">
        <ele>146.00000</ele>
        <time>2024-02-08T13:46:17Z</time>
      </trkpt>
      <trkpt lat="42.85548504" lon="13.56079833">
        <ele>147.00000</ele>
        <time>2024-02-08T13:46:18Z</time>
      </trkpt>
      <trkpt lat="42.85540265" lon="13.56076246">
        <ele>149.00000</ele>
        <time>2024-02-08T13:46:19Z</time>
      </trkpt>
      <trkpt lat="42.85530307" lon="13.56072013">
        <ele>152.00000</ele>
        <time>2024-02-08T13:46:20Z</time>
      </trkpt>
      <trkpt lat="42.85522051" lon="13.56068191">
        <ele>153.00000</ele>
        <time>2024-02-08T13:46:21Z</time>
      </trkpt>
      <trkpt lat="42.85513912" lon="13.56064268">
        <ele>154.00000</ele>
        <time>2024-02-08T13:46:22Z</time>
      </trkpt>
      <trkpt lat="42.85507223" lon="13.56061158">
        <ele>155.00000</ele>
        <time>2024-02-08T13:46:23Z</time>
      </trkpt>
      <trkpt lat="42.85499017" lon="13.56057311">
        <ele>157.00000</ele>
        <time>2024-02-08T13:46:24Z</time>
      </trkpt>
      <trkpt lat="42.85489487" lon="13.56052466">
        <ele>157.00000</ele>
        <time>2024-02-08T13:46:25Z</time>
      </trkpt>
      <trkpt lat="42.85481683" lon="13.56048585">
        <ele>157.00000</ele>
        <time>2024-02-08T13:46:26Z</time>
      </trkpt>
      <trkpt lat="42.85473779" lon="13.56044721">
        <ele>158.00000</ele>
        <time>2024-02-08T13:46:27Z</time>
      </trkpt>
      <trkpt lat="42.85467778" lon="13.56041737">
        <ele>158.00000</ele>
        <time>2024-02-08T13:46:28Z</time>
      </trkpt>
      <trkpt lat="42.85460259" lon="13.56037689">
        <ele>158.00000</ele>
        <time>2024-02-08T13:46:29Z</time>
      </trkpt>
      <trkpt lat="42.85451475" lon="13.56032366">
        <ele>158.00000</ele>
        <time>2024-02-08T13:46:30Z</time>
      </trkpt>
      <trkpt lat="42.85444158" lon="13.56027765">
        <ele>159.00000</ele>
        <time>2024-02-08T13:46:31Z</time>
      </trkpt>
      <trkpt lat="42.85437016" lon="13.56022769">
        <ele>159.00000</ele>
        <time>2024-02-08T13:46:32Z</time>
      </trkpt>
      <trkpt lat="42.85430470" lon="13.56017966">
        <ele>160.00000</ele>
        <time>2024-02-08T13:46:33Z</time>
      </trkpt>
      <trkpt lat="42.85424686" lon="13.56013331">
        <ele>161.00000</ele>
        <time>2024-02-08T13:46:34Z</time>
      </trkpt>
      <trkpt lat="42.85419423" lon="13.56008872">
        <ele>163.00000</ele>
        <time>2024-02-08T13:46:35Z</time>
      </trkpt>
      <trkpt lat="42.85414310" lon="13.56004639">
        <ele>164.00000</ele>
        <time>2024-02-08T13:46:36Z</time>
      </trkpt>
      <trkpt lat="42.85409281" lon="13.56001974">
        <ele>165.00000</ele>
        <time>2024-02-08T13:46:37Z</time>
      </trkpt>
      <trkpt lat="42.85404235" lon="13.56001890">
        <ele>165.00000</ele>
        <time>2024-02-08T13:46:38Z</time>
      </trkpt>
      <trkpt lat="42.85399499" lon="13.56003549">
        <ele>166.00000</ele>
        <time>2024-02-08T13:46:39Z</time>
      </trkpt>
      <trkpt lat="42.85395861" lon="13.56005628">
        <ele>166.00000</ele>
        <time>2024-02-08T13:46:40Z</time>
      </trkpt>
      <trkpt lat="42.85392877" lon="13.56007615">
        <ele>167.00000</ele>
        <time>2024-02-08T13:46:41Z</time>
      </trkpt>
      <trkpt lat="42.85390715" lon="13.56009609">
        <ele>167.00000</ele>
        <time>2024-02-08T13:46:42Z</time>
      </trkpt>
      <trkpt lat="42.85389323" lon="13.56011529">
        <ele>167.00000</ele>
        <time>2024-02-08T13:46:43Z</time>
      </trkpt>
      <trkpt lat="42.85387907" lon="13.56013415">
        <ele>167.00000</ele>
        <time>2024-02-08T13:46:44Z</time>
      </trkpt>
      <trkpt lat="42.85386239" lon="13.56015267">
        <ele>167.00000</ele>
        <time>2024-02-08T13:46:45Z</time>
      </trkpt>
      <trkpt lat="42.85384328" lon="13.56017597">
        <ele>167.00000</ele>
        <time>2024-02-08T13:46:46Z</time>
      </trkpt>
      <trkpt lat="42.85382417" lon="13.56021244">
        <ele>167.00000</ele>
        <time>2024-02-08T13:46:47Z</time>
      </trkpt>
      <trkpt lat="42.85381570" lon="13.56026248">
        <ele>167.00000</ele>
        <time>2024-02-08T13:46:48Z</time>
      </trkpt>
      <trkpt lat="42.85381855" lon="13.56032953">
        <ele>167.00000</ele>
        <time>2024-02-08T13:46:49Z</time>
      </trkpt>
      <trkpt lat="42.85382718" lon="13.56039734">
        <ele>166.00000</ele>
        <time>2024-02-08T13:46:50Z</time>
      </trkpt>
      <trkpt lat="42.85383875" lon="13.56046741">
        <ele>166.00000</ele>
        <time>2024-02-08T13:46:51Z</time>
      </trkpt>
      <trkpt lat="42.85385233" lon="13.56053179">
        <ele>166.00000</ele>
        <time>2024-02-08T13:46:52Z</time>
      </trkpt>
      <trkpt lat="42.85386222" lon="13.56059205">
        <ele>166.00000</ele>
        <time>2024-02-08T13:46:53Z</time>
      </trkpt>
      <trkpt lat="42.85387194" lon="13.56065232">
        <ele>166.00000</ele>
        <time>2024-02-08T13:46:54Z</time>
      </trkpt>
      <trkpt lat="42.85387848" lon="13.56070923">
        <ele>166.00000</ele>
        <time>2024-02-08T13:46:55Z</time>
      </trkpt>
      <trkpt lat="42.85388032" lon="13.56075969">
        <ele>166.00000</ele>
        <time>2024-02-08T13:46:56Z</time>
      </trkpt>
      <trkpt lat="42.85388452" lon="13.56081233">
        <ele>166.00000</ele>
        <time>2024-02-08T13:46:57Z</time>
      </trkpt>
      <trkpt lat="42.85389214" lon="13.56087067">
        <ele>165.00000</ele>
        <time>2024-02-08T13:46:58Z</time>
      </trkpt>
      <trkpt lat="42.85390203" lon="13.56093060">
        <ele>165.00000</ele>
        <time>2024-02-08T13:46:59Z</time>
      </trkpt>
      <trkpt lat="42.85390187" lon="13.56099304">
        <ele>165.00000</ele>
        <time>2024-02-08T13:47:00Z</time>
      </trkpt>
      <trkpt lat="42.85390891" lon="13.56106664">
        <ele>165.00000</ele>
        <time>2024-02-08T13:47:01Z</time>
      </trkpt>
      <trkpt lat="42.85391536" lon="13.56114442">
        <ele>164.00000</ele>
        <time>2024-02-08T13:47:02Z</time>
      </trkpt>
      <trkpt lat="42.85393858" lon="13.56122346">
        <ele>164.00000</ele>
        <time>2024-02-08T13:47:03Z</time>
      </trkpt>
      <trkpt lat="42.85394679" lon="13.56130594">
        <ele>164.00000</ele>
        <time>2024-02-08T13:47:04Z</time>
      </trkpt>
      <trkpt lat="42.85394537" lon="13.56138599">
        <ele>164.00000</ele>
        <time>2024-02-08T13:47:05Z</time>
      </trkpt>
      <trkpt lat="42.85396800" lon="13.56147584">
        <ele>163.00000</ele>
        <time>2024-02-08T13:47:06Z</time>
      </trkpt>
      <trkpt lat="42.85397957" lon="13.56155932">
        <ele>163.00000</ele>
        <time>2024-02-08T13:47:07Z</time>
      </trkpt>
      <trkpt lat="42.85399105" lon="13.56164566">
        <ele>163.00000</ele>
        <time>2024-02-08T13:47:08Z</time>
      </trkpt>
      <trkpt lat="42.85400195" lon="13.56172755">
        <ele>163.00000</ele>
        <time>2024-02-08T13:47:09Z</time>
      </trkpt>
      <trkpt lat="42.85397705" lon="13.56180659">
        <ele>163.00000</ele>
        <time>2024-02-08T13:47:10Z</time>
      </trkpt>
      <trkpt lat="42.85394118" lon="13.56187993">
        <ele>163.00000</ele>
        <time>2024-02-08T13:47:11Z</time>
      </trkpt>
      <trkpt lat="42.85393388" lon="13.56196291">
        <ele>163.00000</ele>
        <time>2024-02-08T13:47:12Z</time>
      </trkpt>
      <trkpt lat="42.85397529" lon="13.56204195">
        <ele>163.00000</ele>
        <time>2024-02-08T13:47:13Z</time>
      </trkpt>
      <trkpt lat="42.85401435" lon="13.56212150">
        <ele>163.00000</ele>
        <time>2024-02-08T13:47:14Z</time>
      </trkpt>
      <trkpt lat="42.85405693" lon="13.56219191">
        <ele>162.00000</ele>
        <time>2024-02-08T13:47:15Z</time>
      </trkpt>
      <trkpt lat="42.85410563" lon="13.56226575">
        <ele>162.00000</ele>
        <time>2024-02-08T13:47:16Z</time>
      </trkpt>
      <trkpt lat="42.85412692" lon="13.56235016">
        <ele>162.00000</ele>
        <time>2024-02-08T13:47:17Z</time>
      </trkpt>
      <trkpt lat="42.85413673" lon="13.56243431">
        <ele>162.00000</ele>
        <time>2024-02-08T13:47:18Z</time>
      </trkpt>
      <trkpt lat="42.85414746" lon="13.56252039">
        <ele>162.00000</ele>
        <time>2024-02-08T13:47:19Z</time>
      </trkpt>
      <trkpt lat="42.85416137" lon="13.56260689">
        <ele>162.00000</ele>
        <time>2024-02-08T13:47:20Z</time>
      </trkpt>
      <trkpt lat="42.85417461" lon="13.56269088">
        <ele>161.00000</ele>
        <time>2024-02-08T13:47:21Z</time>
      </trkpt>
      <trkpt lat="42.85418241" lon="13.56277554">
        <ele>160.00000</ele>
        <time>2024-02-08T13:47:22Z</time>
      </trkpt>
      <trkpt lat="42.85418702" lon="13.56286070">
        <ele>160.00000</ele>
        <time>2024-02-08T13:47:23Z</time>
      </trkpt>
      <trkpt lat="42.85420110" lon="13.56294267">
        <ele>160.00000</ele>
        <time>2024-02-08T13:47:24Z</time>
      </trkpt>
      <trkpt lat="42.85421837" lon="13.56302264">
        <ele>159.00000</ele>
        <time>2024-02-08T13:47:25Z</time>
      </trkpt>
      <trkpt lat="42.85423119" lon="13.56309891">
        <ele>159.00000</ele>
        <time>2024-02-08T13:47:26Z</time>
      </trkpt>
      <trkpt lat="42.85424209" lon="13.56317594">
        <ele>159.00000</ele>
        <time>2024-02-08T13:47:27Z</time>
      </trkpt>
      <trkpt lat="42.85425248" lon="13.56325197">
        <ele>159.00000</ele>
        <time>2024-02-08T13:47:28Z</time>
      </trkpt>
      <trkpt lat="42.85426254" lon="13.56333151">
        <ele>158.00000</ele>
        <time>2024-02-08T13:47:29Z</time>
      </trkpt>
      <trkpt lat="42.85427796" lon="13.56341340">
        <ele>159.00000</ele>
        <time>2024-02-08T13:47:30Z</time>
      </trkpt>
      <trkpt lat="42.85429012" lon="13.56349781">
        <ele>159.00000</ele>
        <time>2024-02-08T13:47:31Z</time>
      </trkpt>
      <trkpt lat="42.85430319" lon="13.56358707">
        <ele>159.00000</ele>
        <time>2024-02-08T13:47:32Z</time>
      </trkpt>
      <trkpt lat="42.85431518" lon="13.56367064">
        <ele>160.00000</ele>
        <time>2024-02-08T13:47:33Z</time>
      </trkpt>
      <trkpt lat="42.85432783" lon="13.56375614">
        <ele>161.00000</ele>
        <time>2024-02-08T13:47:34Z</time>
      </trkpt>
      <trkpt lat="42.85434166" lon="13.56384364">
        <ele>162.00000</ele>
        <time>2024-02-08T13:47:35Z</time>
      </trkpt>
      <trkpt lat="42.85435784" lon="13.56392746">
        <ele>162.00000</ele>
        <time>2024-02-08T13:47:36Z</time>
      </trkpt>
      <trkpt lat="42.85437377" lon="13.56401304">
        <ele>163.00000</ele>
        <time>2024-02-08T13:47:37Z</time>
      </trkpt>
      <trkpt lat="42.85438969" lon="13.56410508">
        <ele>164.00000</ele>
        <time>2024-02-08T13:47:38Z</time>
      </trkpt>
      <trkpt lat="42.85440319" lon="13.56419862">
        <ele>164.00000</ele>
        <time>2024-02-08T13:47:39Z</time>
      </trkpt>
      <trkpt lat="42.85441635" lon="13.56428646">
        <ele>164.00000</ele>
        <time>2024-02-08T13:47:40Z</time>
      </trkpt>
      <trkpt lat="42.85442892" lon="13.56437455">
        <ele>164.00000</ele>
        <time>2024-02-08T13:47:41Z</time>
      </trkpt>
      <trkpt lat="42.85443956" lon="13.56446768">
        <ele>164.00000</ele>
        <time>2024-02-08T13:47:42Z</time>
      </trkpt>
      <trkpt lat="42.85445054" lon="13.56456021">
        <ele>164.00000</ele>
        <time>2024-02-08T13:47:43Z</time>
      </trkpt>
      <trkpt lat="42.85446605" lon="13.56465166">
        <ele>164.00000</ele>
        <time>2024-02-08T13:47:44Z</time>
      </trkpt>
      <trkpt lat="42.85448282" lon="13.56474663">
        <ele>163.00000</ele>
        <time>2024-02-08T13:47:45Z</time>
      </trkpt>
      <trkpt lat="42.85449530" lon="13.56483950">
        <ele>162.00000</ele>
        <time>2024-02-08T13:47:46Z</time>
      </trkpt>
      <trkpt lat="42.85450603" lon="13.56493446">
        <ele>162.00000</ele>
        <time>2024-02-08T13:47:47Z</time>
      </trkpt>
      <trkpt lat="42.85451802" lon="13.56502968">
        <ele>161.00000</ele>
        <time>2024-02-08T13:47:48Z</time>
      </trkpt>
      <trkpt lat="42.85453185" lon="13.56512675">
        <ele>160.00000</ele>
        <time>2024-02-08T13:47:49Z</time>
      </trkpt>
      <trkpt lat="42.85454702" lon="13.56522398">
        <ele>160.00000</ele>
        <time>2024-02-08T13:47:50Z</time>
      </trkpt>
      <trkpt lat="42.85455959" lon="13.56531601">
        <ele>160.00000</ele>
        <time>2024-02-08T13:47:51Z</time>
      </trkpt>
      <trkpt lat="42.85457108" lon="13.56540771">
        <ele>159.00000</ele>
        <time>2024-02-08T13:47:52Z</time>
      </trkpt>
      <trkpt lat="42.85458667" lon="13.56550058">
        <ele>159.00000</ele>
        <time>2024-02-08T13:47:53Z</time>
      </trkpt>
      <trkpt lat="42.85460108" lon="13.56558884">
        <ele>159.00000</ele>
        <time>2024-02-08T13:47:54Z</time>
      </trkpt>
      <trkpt lat="42.85461718" lon="13.56568339">
        <ele>159.00000</ele>
        <time>2024-02-08T13:47:55Z</time>
      </trkpt>
      <trkpt lat="42.85463470" lon="13.56578581">
        <ele>159.00000</ele>
        <time>2024-02-08T13:47:56Z</time>
      </trkpt>
      <trkpt lat="42.85464366" lon="13.56587181">
        <ele>159.00000</ele>
        <time>2024-02-08T13:47:57Z</time>
      </trkpt>
      <trkpt lat="42.85465791" lon="13.56599880">
        <ele>159.00000</ele>
        <time>2024-02-08T13:47:58Z</time>
      </trkpt>
      <trkpt lat="42.85467979" lon="13.56610491">
        <ele>159.00000</ele>
        <time>2024-02-08T13:47:59Z</time>
      </trkpt>
      <trkpt lat="42.85469756" lon="13.56621078">
        <ele>159.00000</ele>
        <time>2024-02-08T13:48:00Z</time>
      </trkpt>
      <trkpt lat="42.85471080" lon="13.56631505">
        <ele>159.00000</ele>
        <time>2024-02-08T13:48:01Z</time>
      </trkpt>
      <trkpt lat="42.85471994" lon="13.56642259">
        <ele>160.00000</ele>
        <time>2024-02-08T13:48:02Z</time>
      </trkpt>
      <trkpt lat="42.85473100" lon="13.56652895">
        <ele>159.00000</ele>
        <time>2024-02-08T13:48:03Z</time>
      </trkpt>
      <trkpt lat="42.85474425" lon="13.56663859">
        <ele>159.00000</ele>
        <time>2024-02-08T13:48:04Z</time>
      </trkpt>
      <trkpt lat="42.85476302" lon="13.56674688">
        <ele>159.00000</ele>
        <time>2024-02-08T13:48:05Z</time>
      </trkpt>
      <trkpt lat="42.85478498" lon="13.56685350">
        <ele>159.00000</ele>
        <time>2024-02-08T13:48:06Z</time>
      </trkpt>
      <trkpt lat="42.85478297" lon="13.56696481">
        <ele>159.00000</ele>
        <time>2024-02-08T13:48:07Z</time>
      </trkpt>
      <trkpt lat="42.85478490" lon="13.56707839">
        <ele>159.00000</ele>
        <time>2024-02-08T13:48:08Z</time>
      </trkpt>
      <trkpt lat="42.85478054" lon="13.56719062">
        <ele>159.00000</ele>
        <time>2024-02-08T13:48:09Z</time>
      </trkpt>
      <trkpt lat="42.85475347" lon="13.56729724">
        <ele>159.00000</ele>
        <time>2024-02-08T13:48:10Z</time>
      </trkpt>
      <trkpt lat="42.85471441" lon="13.56739749">
        <ele>159.00000</ele>
        <time>2024-02-08T13:48:11Z</time>
      </trkpt>
      <trkpt lat="42.85467585" lon="13.56749170">
        <ele>159.00000</ele>
        <time>2024-02-08T13:48:12Z</time>
      </trkpt>
      <trkpt lat="42.85462749" lon="13.56757963">
        <ele>158.00000</ele>
        <time>2024-02-08T13:48:13Z</time>
      </trkpt>
      <trkpt lat="42.85457611" lon="13.56766252">
        <ele>158.00000</ele>
        <time>2024-02-08T13:48:14Z</time>
      </trkpt>
      <trkpt lat="42.85452355" lon="13.56773989">
        <ele>157.00000</ele>
        <time>2024-02-08T13:48:15Z</time>
      </trkpt>
      <trkpt lat="42.85447309" lon="13.56781667">
        <ele>156.00000</ele>
        <time>2024-02-08T13:48:16Z</time>
      </trkpt>
      <trkpt lat="42.85443495" lon="13.56789998">
        <ele>156.00000</ele>
        <time>2024-02-08T13:48:17Z</time>
      </trkpt>
      <trkpt lat="42.85439321" lon="13.56798975">
        <ele>156.00000</ele>
        <time>2024-02-08T13:48:18Z</time>
      </trkpt>
      <trkpt lat="42.85434862" lon="13.56808003">
        <ele>155.00000</ele>
        <time>2024-02-08T13:48:19Z</time>
      </trkpt>
      <trkpt lat="42.85431006" lon="13.56817340">
        <ele>155.00000</ele>
        <time>2024-02-08T13:48:20Z</time>
      </trkpt>
      <trkpt lat="42.85427536" lon="13.56826870">
        <ele>155.00000</ele>
        <time>2024-02-08T13:48:21Z</time>
      </trkpt>
      <trkpt lat="42.85424276" lon="13.56836333">
        <ele>155.00000</ele>
        <time>2024-02-08T13:48:22Z</time>
      </trkpt>
      <trkpt lat="42.85421585" lon="13.56845704">
        <ele>155.00000</ele>
        <time>2024-02-08T13:48:23Z</time>
      </trkpt>
      <trkpt lat="42.85419423" lon="13.56855059">
        <ele>155.00000</ele>
        <time>2024-02-08T13:48:24Z</time>
      </trkpt>
      <trkpt lat="42.85417570" lon="13.56864714">
        <ele>156.00000</ele>
        <time>2024-02-08T13:48:25Z</time>
      </trkpt>
      <trkpt lat="42.85415877" lon="13.56874362">
        <ele>156.00000</ele>
        <time>2024-02-08T13:48:26Z</time>
      </trkpt>
      <trkpt lat="42.85414544" lon="13.56883825">
        <ele>157.00000</ele>
        <time>2024-02-08T13:48:27Z</time>
      </trkpt>
      <trkpt lat="42.85413706" lon="13.56893473">
        <ele>158.00000</ele>
        <time>2024-02-08T13:48:28Z</time>
      </trkpt>
      <trkpt lat="42.85412625" lon="13.56902869">
        <ele>159.00000</ele>
        <time>2024-02-08T13:48:29Z</time>
      </trkpt>
      <trkpt lat="42.85411619" lon="13.56912273">
        <ele>159.00000</ele>
        <time>2024-02-08T13:48:30Z</time>
      </trkpt>
      <trkpt lat="42.85410236" lon="13.56921921">
        <ele>160.00000</ele>
        <time>2024-02-08T13:48:31Z</time>
      </trkpt>
      <trkpt lat="42.85408576" lon="13.56931099">
        <ele>160.00000</ele>
        <time>2024-02-08T13:48:32Z</time>
      </trkpt>
      <trkpt lat="42.85406917" lon="13.56940755">
        <ele>161.00000</ele>
        <time>2024-02-08T13:48:33Z</time>
      </trkpt>
      <trkpt lat="42.85404679" lon="13.56950017">
        <ele>161.00000</ele>
        <time>2024-02-08T13:48:34Z</time>
      </trkpt>
      <trkpt lat="42.85400941" lon="13.56959371">
        <ele>162.00000</ele>
        <time>2024-02-08T13:48:35Z</time>
      </trkpt>
      <trkpt lat="42.85399918" lon="13.56969388">
        <ele>162.00000</ele>
        <time>2024-02-08T13:48:36Z</time>
      </trkpt>
      <trkpt lat="42.85401569" lon="13.56979924">
        <ele>162.00000</ele>
        <time>2024-02-08T13:48:37Z</time>
      </trkpt>
      <trkpt lat="42.85402617" lon="13.56989798">
        <ele>162.00000</ele>
        <time>2024-02-08T13:48:38Z</time>
      </trkpt>
      <trkpt lat="42.85402533" lon="13.56999789">
        <ele>163.00000</ele>
        <time>2024-02-08T13:48:39Z</time>
      </trkpt>
      <trkpt lat="42.85401578" lon="13.57009168">
        <ele>163.00000</ele>
        <time>2024-02-08T13:48:40Z</time>
      </trkpt>
      <trkpt lat="42.85400253" lon="13.57018816">
        <ele>163.00000</ele>
        <time>2024-02-08T13:48:41Z</time>
      </trkpt>
      <trkpt lat="42.85398996" lon="13.57028773">
        <ele>163.00000</ele>
        <time>2024-02-08T13:48:42Z</time>
      </trkpt>
      <trkpt lat="42.85397915" lon="13.57038555">
        <ele>162.00000</ele>
        <time>2024-02-08T13:48:43Z</time>
      </trkpt>
      <trkpt lat="42.85396188" lon="13.57048396">
        <ele>162.00000</ele>
        <time>2024-02-08T13:48:44Z</time>
      </trkpt>
      <trkpt lat="42.85395174" lon="13.57057775">
        <ele>162.00000</ele>
        <time>2024-02-08T13:48:45Z</time>
      </trkpt>
      <trkpt lat="42.85393598" lon="13.57067666">
        <ele>162.00000</ele>
        <time>2024-02-08T13:48:46Z</time>
      </trkpt>
      <trkpt lat="42.85392215" lon="13.57077422">
        <ele>161.00000</ele>
        <time>2024-02-08T13:48:47Z</time>
      </trkpt>
      <trkpt lat="42.85390991" lon="13.57087246">
        <ele>161.00000</ele>
        <time>2024-02-08T13:48:48Z</time>
      </trkpt>
      <trkpt lat="42.85390145" lon="13.57096885">
        <ele>162.00000</ele>
        <time>2024-02-08T13:48:49Z</time>
      </trkpt>
      <trkpt lat="42.85389130" lon="13.57106524">
        <ele>162.00000</ele>
        <time>2024-02-08T13:48:50Z</time>
      </trkpt>
      <trkpt lat="42.85388024" lon="13.57116079">
        <ele>163.00000</ele>
        <time>2024-02-08T13:48:51Z</time>
      </trkpt>
      <trkpt lat="42.85387546" lon="13.57125794">
        <ele>163.00000</ele>
        <time>2024-02-08T13:48:52Z</time>
      </trkpt>
      <trkpt lat="42.85386825" lon="13.57135324">
        <ele>164.00000</ele>
        <time>2024-02-08T13:48:53Z</time>
      </trkpt>
      <trkpt lat="42.85385652" lon="13.57144586">
        <ele>164.00000</ele>
        <time>2024-02-08T13:48:54Z</time>
      </trkpt>
      <trkpt lat="42.85385518" lon="13.57154318">
        <ele>164.00000</ele>
        <time>2024-02-08T13:48:55Z</time>
      </trkpt>
      <trkpt lat="42.85386029" lon="13.57164468">
        <ele>165.00000</ele>
        <time>2024-02-08T13:48:56Z</time>
      </trkpt>
      <trkpt lat="42.85386440" lon="13.57174920">
        <ele>164.00000</ele>
        <time>2024-02-08T13:48:57Z</time>
      </trkpt>
      <trkpt lat="42.85385015" lon="13.57184769">
        <ele>164.00000</ele>
        <time>2024-02-08T13:48:58Z</time>
      </trkpt>
      <trkpt lat="42.85382651" lon="13.57194392">
        <ele>163.00000</ele>
        <time>2024-02-08T13:48:59Z</time>
      </trkpt>
      <trkpt lat="42.85381612" lon="13.57202480">
        <ele>163.00000</ele>
        <time>2024-02-08T13:49:00Z</time>
      </trkpt>
      <trkpt lat="42.85380380" lon="13.57214894">
        <ele>162.00000</ele>
        <time>2024-02-08T13:49:01Z</time>
      </trkpt>
      <trkpt lat="42.85378888" lon="13.57225220">
        <ele>161.00000</ele>
        <time>2024-02-08T13:49:02Z</time>
      </trkpt>
      <trkpt lat="42.85376063" lon="13.57235195">
        <ele>161.00000</ele>
        <time>2024-02-08T13:49:03Z</time>
      </trkpt>
      <trkpt lat="42.85373046" lon="13.57245496">
        <ele>161.00000</ele>
        <time>2024-02-08T13:49:04Z</time>
      </trkpt>
      <trkpt lat="42.85372626" lon="13.57256166">
        <ele>161.00000</ele>
        <time>2024-02-08T13:49:05Z</time>
      </trkpt>
      <trkpt lat="42.85373129" lon="13.57266861">
        <ele>162.00000</ele>
        <time>2024-02-08T13:49:06Z</time>
      </trkpt>
      <trkpt lat="42.85372308" lon="13.57276811">
        <ele>162.00000</ele>
        <time>2024-02-08T13:49:07Z</time>
      </trkpt>
      <trkpt lat="42.85371394" lon="13.57287028">
        <ele>162.00000</ele>
        <time>2024-02-08T13:49:08Z</time>
      </trkpt>
      <trkpt lat="42.85369869" lon="13.57297296">
        <ele>163.00000</ele>
        <time>2024-02-08T13:49:09Z</time>
      </trkpt>
      <trkpt lat="42.85367924" lon="13.57307824">
        <ele>163.00000</ele>
        <time>2024-02-08T13:49:10Z</time>
      </trkpt>
      <trkpt lat="42.85366415" lon="13.57318075">
        <ele>164.00000</ele>
        <time>2024-02-08T13:49:11Z</time>
      </trkpt>
      <trkpt lat="42.85364404" lon="13.57328225">
        <ele>164.00000</ele>
        <time>2024-02-08T13:49:12Z</time>
      </trkpt>
      <trkpt lat="42.85363331" lon="13.57338485">
        <ele>164.00000</ele>
        <time>2024-02-08T13:49:13Z</time>
      </trkpt>
      <trkpt lat="42.85357455" lon="13.57348669">
        <ele>164.00000</ele>
        <time>2024-02-08T13:49:14Z</time>
      </trkpt>
      <trkpt lat="42.85354362" lon="13.57359465">
        <ele>164.00000</ele>
        <time>2024-02-08T13:49:15Z</time>
      </trkpt>
      <trkpt lat="42.85352694" lon="13.57370160">
        <ele>164.00000</ele>
        <time>2024-02-08T13:49:16Z</time>
      </trkpt>
      <trkpt lat="42.85351973" lon="13.57380989">
        <ele>163.00000</ele>
        <time>2024-02-08T13:49:17Z</time>
      </trkpt>
      <trkpt lat="42.85350297" lon="13.57391970">
        <ele>162.00000</ele>
        <time>2024-02-08T13:49:18Z</time>
      </trkpt>
      <trkpt lat="42.85349870" lon="13.57402900">
        <ele>162.00000</ele>
        <time>2024-02-08T13:49:19Z</time>
      </trkpt>
      <trkpt lat="42.85349325" lon="13.57412891">
        <ele>161.00000</ele>
        <time>2024-02-08T13:49:20Z</time>
      </trkpt>
      <trkpt lat="42.85349635" lon="13.57422740">
        <ele>161.00000</ele>
        <time>2024-02-08T13:49:21Z</time>
      </trkpt>
      <trkpt lat="42.85351261" lon="13.57432924">
        <ele>161.00000</ele>
        <time>2024-02-08T13:49:22Z</time>
      </trkpt>
      <trkpt lat="42.85352493" lon="13.57442814">
        <ele>161.00000</ele>
        <time>2024-02-08T13:49:23Z</time>
      </trkpt>
      <trkpt lat="42.85352787" lon="13.57451817">
        <ele>161.00000</ele>
        <time>2024-02-08T13:49:24Z</time>
      </trkpt>
      <trkpt lat="42.85353155" lon="13.57461171">
        <ele>162.00000</ele>
        <time>2024-02-08T13:49:25Z</time>
      </trkpt>
      <trkpt lat="42.85353558" lon="13.57470575">
        <ele>163.00000</ele>
        <time>2024-02-08T13:49:26Z</time>
      </trkpt>
      <trkpt lat="42.85354463" lon="13.57480416">
        <ele>163.00000</ele>
        <time>2024-02-08T13:49:27Z</time>
      </trkpt>
      <trkpt lat="42.85353817" lon="13.57490122">
        <ele>163.00000</ele>
        <time>2024-02-08T13:49:28Z</time>
      </trkpt>
      <trkpt lat="42.85353340" lon="13.57499057">
        <ele>163.00000</ele>
        <time>2024-02-08T13:49:29Z</time>
      </trkpt>
      <trkpt lat="42.85353499" lon="13.57508059">
        <ele>163.00000</ele>
        <time>2024-02-08T13:49:30Z</time>
      </trkpt>
      <trkpt lat="42.85354128" lon="13.57517112">
        <ele>163.00000</ele>
        <time>2024-02-08T13:49:31Z</time>
      </trkpt>
      <trkpt lat="42.85354781" lon="13.57524437">
        <ele>163.00000</ele>
        <time>2024-02-08T13:49:32Z</time>
      </trkpt>
      <trkpt lat="42.85355385" lon="13.57534957">
        <ele>163.00000</ele>
        <time>2024-02-08T13:49:33Z</time>
      </trkpt>
      <trkpt lat="42.85355980" lon="13.57543984">
        <ele>163.00000</ele>
        <time>2024-02-08T13:49:34Z</time>
      </trkpt>
      <trkpt lat="42.85356433" lon="13.57552919">
        <ele>162.00000</ele>
        <time>2024-02-08T13:49:35Z</time>
      </trkpt>
      <trkpt lat="42.85356709" lon="13.57561728">
        <ele>162.00000</ele>
        <time>2024-02-08T13:49:36Z</time>
      </trkpt>
      <trkpt lat="42.85356868" lon="13.57568719">
        <ele>161.00000</ele>
        <time>2024-02-08T13:49:37Z</time>
      </trkpt>
      <trkpt lat="42.85356575" lon="13.57578836">
        <ele>161.00000</ele>
        <time>2024-02-08T13:49:38Z</time>
      </trkpt>
      <trkpt lat="42.85356810" lon="13.57587628">
        <ele>161.00000</ele>
        <time>2024-02-08T13:49:39Z</time>
      </trkpt>
      <trkpt lat="42.85357195" lon="13.57596212">
        <ele>161.00000</ele>
        <time>2024-02-08T13:49:40Z</time>
      </trkpt>
      <trkpt lat="42.85357397" lon="13.57604166">
        <ele>161.00000</ele>
        <time>2024-02-08T13:49:41Z</time>
      </trkpt>
      <trkpt lat="42.85357363" lon="13.57611944">
        <ele>161.00000</ele>
        <time>2024-02-08T13:49:42Z</time>
      </trkpt>
      <trkpt lat="42.85357329" lon="13.57619522">
        <ele>161.00000</ele>
        <time>2024-02-08T13:49:43Z</time>
      </trkpt>
      <trkpt lat="42.85357472" lon="13.57626194">
        <ele>161.00000</ele>
        <time>2024-02-08T13:49:44Z</time>
      </trkpt>
      <trkpt lat="42.85357547" lon="13.57631893">
        <ele>161.00000</ele>
        <time>2024-02-08T13:49:45Z</time>
      </trkpt>
      <trkpt lat="42.85357656" lon="13.57635657">
        <ele>162.00000</ele>
        <time>2024-02-08T13:49:46Z</time>
      </trkpt>
      <trkpt lat="42.85358059" lon="13.57640451">
        <ele>162.00000</ele>
        <time>2024-02-08T13:49:47Z</time>
      </trkpt>
      <trkpt lat="42.85358176" lon="13.57643829">
        <ele>162.00000</ele>
        <time>2024-02-08T13:49:48Z</time>
      </trkpt>
      <trkpt lat="42.85358151" lon="13.57646637">
        <ele>162.00000</ele>
        <time>2024-02-08T13:49:49Z</time>
      </trkpt>
      <trkpt lat="42.85357329" lon="13.57649353">
        <ele>162.00000</ele>
        <time>2024-02-08T13:49:50Z</time>
      </trkpt>
      <trkpt lat="42.85356567" lon="13.57651876">
        <ele>162.00000</ele>
        <time>2024-02-08T13:49:51Z</time>
      </trkpt>
      <trkpt lat="42.85355519" lon="13.57655187">
        <ele>162.00000</ele>
        <time>2024-02-08T13:49:52Z</time>
      </trkpt>
      <trkpt lat="42.85355494" lon="13.57658581">
        <ele>162.00000</ele>
        <time>2024-02-08T13:49:53Z</time>
      </trkpt>
      <trkpt lat="42.85355343" lon="13.57661716">
        <ele>162.00000</ele>
        <time>2024-02-08T13:49:54Z</time>
      </trkpt>
      <trkpt lat="42.85355494" lon="13.57665061">
        <ele>162.00000</ele>
        <time>2024-02-08T13:49:55Z</time>
      </trkpt>
      <trkpt lat="42.85356089" lon="13.57667743">
        <ele>161.00000</ele>
        <time>2024-02-08T13:49:56Z</time>
      </trkpt>
      <trkpt lat="42.85356231" lon="13.57671129">
        <ele>161.00000</ele>
        <time>2024-02-08T13:49:57Z</time>
      </trkpt>
      <trkpt lat="42.85356131" lon="13.57675706">
        <ele>161.00000</ele>
        <time>2024-02-08T13:49:58Z</time>
      </trkpt>
      <trkpt lat="42.85355385" lon="13.57678555">
        <ele>161.00000</ele>
        <time>2024-02-08T13:49:59Z</time>
      </trkpt>
      <trkpt lat="42.85355133" lon="13.57680710">
        <ele>160.00000</ele>
        <time>2024-02-08T13:50:00Z</time>
      </trkpt>
      <trkpt lat="42.85355125" lon="13.57682880">
        <ele>160.00000</ele>
        <time>2024-02-08T13:50:01Z</time>
      </trkpt>
      <trkpt lat="42.85355184" lon="13.57684649">
        <ele>160.00000</ele>
        <time>2024-02-08T13:50:02Z</time>
      </trkpt>
      <trkpt lat="42.85355628" lon="13.57686510">
        <ele>160.00000</ele>
        <time>2024-02-08T13:50:03Z</time>
      </trkpt>
      <trkpt lat="42.85356055" lon="13.57688429">
        <ele>160.00000</ele>
        <time>2024-02-08T13:50:04Z</time>
      </trkpt>
      <trkpt lat="42.85356097" lon="13.57689368">
        <ele>160.00000</ele>
        <time>2024-02-08T13:50:05Z</time>
      </trkpt>
      <trkpt lat="42.85356173" lon="13.57689494">
        <ele>160.00000</ele>
        <time>2024-02-08T13:50:09Z</time>
      </trkpt>
      <trkpt lat="42.85356349" lon="13.57689368">
        <ele>160.00000</ele>
        <time>2024-02-08T13:50:10Z</time>
      </trkpt>
      <trkpt lat="42.85356123" lon="13.57689485">
        <ele>160.00000</ele>
        <time>2024-02-08T13:50:11Z</time>
      </trkpt>
      <trkpt lat="42.85355879" lon="13.57689276">
        <ele>160.00000</ele>
        <time>2024-02-08T13:50:12Z</time>
      </trkpt>
      <trkpt lat="42.85356894" lon="13.57685504">
        <ele>160.00000</ele>
        <time>2024-02-08T14:01:51Z</time>
      </trkpt>
      <trkpt lat="42.85356894" lon="13.57682981">
        <ele>160.00000</ele>
        <time>2024-02-08T14:01:52Z</time>
      </trkpt>
      <trkpt lat="42.85357028" lon="13.57680534">
        <ele>161.00000</ele>
        <time>2024-02-08T14:01:53Z</time>
      </trkpt>
      <trkpt lat="42.85357388" lon="13.57677935">
        <ele>161.00000</ele>
        <time>2024-02-08T14:01:54Z</time>
      </trkpt>
      <trkpt lat="42.85357145" lon="13.57674599">
        <ele>161.00000</ele>
        <time>2024-02-08T14:01:55Z</time>
      </trkpt>
      <trkpt lat="42.85357363" lon="13.57671674">
        <ele>161.00000</ele>
        <time>2024-02-08T14:01:56Z</time>
      </trkpt>
      <trkpt lat="42.85358017" lon="13.57669210">
        <ele>161.00000</ele>
        <time>2024-02-08T14:01:57Z</time>
      </trkpt>
      <trkpt lat="42.85358419" lon="13.57666402">
        <ele>162.00000</ele>
        <time>2024-02-08T14:01:58Z</time>
      </trkpt>
      <trkpt lat="42.85358813" lon="13.57663569">
        <ele>162.00000</ele>
        <time>2024-02-08T14:01:59Z</time>
      </trkpt>
      <trkpt lat="42.85359081" lon="13.57660643">
        <ele>162.00000</ele>
        <time>2024-02-08T14:02:00Z</time>
      </trkpt>
      <trkpt lat="42.85359551" lon="13.57657156">
        <ele>162.00000</ele>
        <time>2024-02-08T14:02:01Z</time>
      </trkpt>
      <trkpt lat="42.85359928" lon="13.57654826">
        <ele>162.00000</ele>
        <time>2024-02-08T14:02:02Z</time>
      </trkpt>
      <trkpt lat="42.85359961" lon="13.57651029">
        <ele>162.00000</ele>
        <time>2024-02-08T14:02:03Z</time>
      </trkpt>
      <trkpt lat="42.85359995" lon="13.57648414">
        <ele>162.00000</ele>
        <time>2024-02-08T14:02:04Z</time>
      </trkpt>
      <trkpt lat="42.85360263" lon="13.57645095">
        <ele>162.00000</ele>
        <time>2024-02-08T14:02:05Z</time>
      </trkpt>
      <trkpt lat="42.85360188" lon="13.57641616">
        <ele>162.00000</ele>
        <time>2024-02-08T14:02:06Z</time>
      </trkpt>
      <trkpt lat="42.85360565" lon="13.57637928">
        <ele>161.00000</ele>
        <time>2024-02-08T14:02:07Z</time>
      </trkpt>
      <trkpt lat="42.85361252" lon="13.57633637">
        <ele>161.00000</ele>
        <time>2024-02-08T14:02:08Z</time>
      </trkpt>
      <trkpt lat="42.85361730" lon="13.57628180">
        <ele>161.00000</ele>
        <time>2024-02-08T14:02:09Z</time>
      </trkpt>
      <trkpt lat="42.85361914" lon="13.57622237">
        <ele>161.00000</ele>
        <time>2024-02-08T14:02:10Z</time>
      </trkpt>
      <trkpt lat="42.85362015" lon="13.57616228">
        <ele>161.00000</ele>
        <time>2024-02-08T14:02:11Z</time>
      </trkpt>
      <trkpt lat="42.85362409" lon="13.57610452">
        <ele>160.00000</ele>
        <time>2024-02-08T14:02:12Z</time>
      </trkpt>
      <trkpt lat="42.85362811" lon="13.57604593">
        <ele>160.00000</ele>
        <time>2024-02-08T14:02:13Z</time>
      </trkpt>
      <trkpt lat="42.85362342" lon="13.57597050">
        <ele>160.00000</ele>
        <time>2024-02-08T14:02:14Z</time>
      </trkpt>
      <trkpt lat="42.85362099" lon="13.57592473">
        <ele>160.00000</ele>
        <time>2024-02-08T14:02:15Z</time>
      </trkpt>
      <trkpt lat="42.85361856" lon="13.57587084">
        <ele>160.00000</ele>
        <time>2024-02-08T14:02:16Z</time>
      </trkpt>
      <trkpt lat="42.85361965" lon="13.57580646">
        <ele>161.00000</ele>
        <time>2024-02-08T14:02:17Z</time>
      </trkpt>
      <trkpt lat="42.85362007" lon="13.57575139">
        <ele>161.00000</ele>
        <time>2024-02-08T14:02:18Z</time>
      </trkpt>
      <trkpt lat="42.85361713" lon="13.57571133">
        <ele>161.00000</ele>
        <time>2024-02-08T14:02:19Z</time>
      </trkpt>
      <trkpt lat="42.85362794" lon="13.57566573">
        <ele>161.00000</ele>
        <time>2024-02-08T14:02:20Z</time>
      </trkpt>
      <trkpt lat="42.85365510" lon="13.57562231">
        <ele>161.00000</ele>
        <time>2024-02-08T14:02:21Z</time>
      </trkpt>
      <trkpt lat="42.85369215" lon="13.57560195">
        <ele>160.00000</ele>
        <time>2024-02-08T14:02:22Z</time>
      </trkpt>
      <trkpt lat="42.85371948" lon="13.57559465">
        <ele>160.00000</ele>
        <time>2024-02-08T14:02:23Z</time>
      </trkpt>
      <trkpt lat="42.85375795" lon="13.57559096">
        <ele>160.00000</ele>
        <time>2024-02-08T14:02:24Z</time>
      </trkpt>
      <trkpt lat="42.85377572" lon="13.57558853">
        <ele>160.00000</ele>
        <time>2024-02-08T14:02:25Z</time>
      </trkpt>
      <trkpt lat="42.85379433" lon="13.57557822">
        <ele>159.00000</ele>
        <time>2024-02-08T14:02:26Z</time>
      </trkpt>
      <trkpt lat="42.85381704" lon="13.57555937">
        <ele>159.00000</ele>
        <time>2024-02-08T14:02:27Z</time>
      </trkpt>
      <trkpt lat="42.85382794" lon="13.57554813">
        <ele>159.00000</ele>
        <time>2024-02-08T14:02:28Z</time>
      </trkpt>
      <trkpt lat="42.85382358" lon="13.57553279">
        <ele>159.00000</ele>
        <time>2024-02-08T14:02:29Z</time>
      </trkpt>
      <trkpt lat="42.85381771" lon="13.57551184">
        <ele>160.00000</ele>
        <time>2024-02-08T14:02:30Z</time>
      </trkpt>
      <trkpt lat="42.85381595" lon="13.57549265">
        <ele>160.00000</ele>
        <time>2024-02-08T14:02:31Z</time>
      </trkpt>
      <trkpt lat="42.85383313" lon="13.57547102">
        <ele>160.00000</ele>
        <time>2024-02-08T14:02:32Z</time>
      </trkpt>
      <trkpt lat="42.85385602" lon="13.57546767">
        <ele>159.00000</ele>
        <time>2024-02-08T14:02:33Z</time>
      </trkpt>
      <trkpt lat="42.85387571" lon="13.57546675">
        <ele>159.00000</ele>
        <time>2024-02-08T14:02:34Z</time>
      </trkpt>
      <trkpt lat="42.85389910" lon="13.57546540">
        <ele>159.00000</ele>
        <time>2024-02-08T14:02:35Z</time>
      </trkpt>
      <trkpt lat="42.85391720" lon="13.57546071">
        <ele>159.00000</ele>
        <time>2024-02-08T14:02:36Z</time>
      </trkpt>
      <trkpt lat="42.85393447" lon="13.57544420">
        <ele>159.00000</ele>
        <time>2024-02-08T14:02:37Z</time>
      </trkpt>
      <trkpt lat="42.85395207" lon="13.57542584">
        <ele>160.00000</ele>
        <time>2024-02-08T14:02:38Z</time>
      </trkpt>
      <trkpt lat="42.85395593" lon="13.57542391">
        <ele>160.00000</ele>
        <time>2024-02-08T14:02:39Z</time>
      </trkpt>
      <trkpt lat="42.85395978" lon="13.57543322">
        <ele>159.00000</ele>
        <time>2024-02-08T14:02:40Z</time>
      </trkpt>
      <trkpt lat="42.85396607" lon="13.57543749">
        <ele>159.00000</ele>
        <time>2024-02-08T14:02:41Z</time>
      </trkpt>
      <trkpt lat="42.85397755" lon="13.57544101">
        <ele>159.00000</ele>
        <time>2024-02-08T14:02:42Z</time>
      </trkpt>
      <trkpt lat="42.85399164" lon="13.57544428">
        <ele>159.00000</ele>
        <time>2024-02-08T14:02:43Z</time>
      </trkpt>
      <trkpt lat="42.85401033" lon="13.57544143">
        <ele>160.00000</ele>
        <time>2024-02-08T14:02:44Z</time>
      </trkpt>
      <trkpt lat="42.85403849" lon="13.57543565">
        <ele>160.00000</ele>
        <time>2024-02-08T14:02:45Z</time>
      </trkpt>
      <trkpt lat="42.85406305" lon="13.57542660">
        <ele>160.00000</ele>
        <time>2024-02-08T14:02:46Z</time>
      </trkpt>
      <trkpt lat="42.85408099" lon="13.57541972">
        <ele>160.00000</ele>
        <time>2024-02-08T14:02:47Z</time>
      </trkpt>
      <trkpt lat="42.85410077" lon="13.57541453">
        <ele>160.00000</ele>
        <time>2024-02-08T14:02:48Z</time>
      </trkpt>
      <trkpt lat="42.85411443" lon="13.57541067">
        <ele>160.00000</ele>
        <time>2024-02-08T14:02:49Z</time>
      </trkpt>
      <trkpt lat="42.85411912" lon="13.57540816">
        <ele>160.00000</ele>
        <time>2024-02-08T14:02:50Z</time>
      </trkpt>
      <trkpt lat="42.85412365" lon="13.57540749">
        <ele>160.00000</ele>
        <time>2024-02-08T14:02:52Z</time>
      </trkpt>
      <trkpt lat="42.85420680" lon="13.57557009">
        <ele>159.00000</ele>
        <time>2024-02-08T14:03:31Z</time>
      </trkpt>
      <trkpt lat="42.85422298" lon="13.57559650">
        <ele>159.00000</ele>
        <time>2024-02-08T14:03:32Z</time>
      </trkpt>
      <trkpt lat="42.85423429" lon="13.57561888">
        <ele>159.00000</ele>
        <time>2024-02-08T14:03:33Z</time>
      </trkpt>
      <trkpt lat="42.85424485" lon="13.57564218">
        <ele>158.00000</ele>
        <time>2024-02-08T14:03:34Z</time>
      </trkpt>
      <trkpt lat="42.85425215" lon="13.57565852">
        <ele>158.00000</ele>
        <time>2024-02-08T14:03:35Z</time>
      </trkpt>
      <trkpt lat="42.85425508" lon="13.57566213">
        <ele>158.00000</ele>
        <time>2024-02-08T14:03:36Z</time>
      </trkpt>
      <trkpt lat="42.85426606" lon="13.57566121">
        <ele>158.00000</ele>
        <time>2024-02-08T14:03:38Z</time>
      </trkpt>
      <trkpt lat="42.85428651" lon="13.57558786">
        <ele>159.00000</ele>
        <time>2024-02-08T14:03:58Z</time>
      </trkpt>
      <trkpt lat="42.85430663" lon="13.57567403">
        <ele>159.00000</ele>
        <time>2024-02-08T14:04:06Z</time>
      </trkpt>
      <trkpt lat="42.85431141" lon="13.57569440">
        <ele>159.00000</ele>
        <time>2024-02-08T14:04:07Z</time>
      </trkpt>
      <trkpt lat="42.85432959" lon="13.57572130">
        <ele>158.00000</ele>
        <time>2024-02-08T14:04:08Z</time>
      </trkpt>
      <trkpt lat="42.85434435" lon="13.57574930">
        <ele>158.00000</ele>
        <time>2024-02-08T14:04:09Z</time>
      </trkpt>
      <trkpt lat="42.85436094" lon="13.57578618">
        <ele>158.00000</ele>
        <time>2024-02-08T14:04:10Z</time>
      </trkpt>
      <trkpt lat="42.85435826" lon="13.57581191">
        <ele>158.00000</ele>
        <time>2024-02-08T14:04:11Z</time>
      </trkpt>
      <trkpt lat="42.85436497" lon="13.57584469">
        <ele>158.00000</ele>
        <time>2024-02-08T14:04:12Z</time>
      </trkpt>
      <trkpt lat="42.85436329" lon="13.57586807">
        <ele>158.00000</ele>
        <time>2024-02-08T14:04:13Z</time>
      </trkpt>
      <trkpt lat="42.85433898" lon="13.57588886">
        <ele>158.00000</ele>
        <time>2024-02-08T14:04:14Z</time>
      </trkpt>
      <trkpt lat="42.85430185" lon="13.57589707">
        <ele>158.00000</ele>
        <time>2024-02-08T14:04:15Z</time>
      </trkpt>
      <trkpt lat="42.85427201" lon="13.57589313">
        <ele>158.00000</ele>
        <time>2024-02-08T14:04:16Z</time>
      </trkpt>
      <trkpt lat="42.85424393" lon="13.57588374">
        <ele>158.00000</ele>
        <time>2024-02-08T14:04:17Z</time>
      </trkpt>
      <trkpt lat="42.85422340" lon="13.57587042">
        <ele>158.00000</ele>
        <time>2024-02-08T14:04:18Z</time>
      </trkpt>
      <trkpt lat="42.85421929" lon="13.57586422">
        <ele>158.00000</ele>
        <time>2024-02-08T14:04:19Z</time>
      </trkpt>
      <trkpt lat="42.85420764" lon="13.57586438">
        <ele>158.00000</ele>
        <time>2024-02-08T14:04:21Z</time>
      </trkpt>
      <trkpt lat="42.85418274" lon="13.57586405">
        <ele>158.00000</ele>
        <time>2024-02-08T14:04:22Z</time>
      </trkpt>
      <trkpt lat="42.85416305" lon="13.57586841">
        <ele>158.00000</ele>
        <time>2024-02-08T14:04:23Z</time>
      </trkpt>
      <trkpt lat="42.85413958" lon="13.57587402">
        <ele>158.00000</ele>
        <time>2024-02-08T14:04:24Z</time>
      </trkpt>
      <trkpt lat="42.85413673" lon="13.57588433">
        <ele>158.00000</ele>
        <time>2024-02-08T14:04:25Z</time>
      </trkpt>
      <trkpt lat="42.85413203" lon="13.57590244">
        <ele>158.00000</ele>
        <time>2024-02-08T14:04:26Z</time>
      </trkpt>
      <trkpt lat="42.85410169" lon="13.57592649">
        <ele>158.00000</ele>
        <time>2024-02-08T14:04:27Z</time>
      </trkpt>
      <trkpt lat="42.85406908" lon="13.57593672">
        <ele>158.00000</ele>
        <time>2024-02-08T14:04:28Z</time>
      </trkpt>
      <trkpt lat="42.85403162" lon="13.57594904">
        <ele>158.00000</ele>
        <time>2024-02-08T14:04:29Z</time>
      </trkpt>
      <trkpt lat="42.85399750" lon="13.57596111">
        <ele>158.00000</ele>
        <time>2024-02-08T14:04:30Z</time>
      </trkpt>
      <trkpt lat="42.85399398" lon="13.57596773">
        <ele>158.00000</ele>
        <time>2024-02-08T14:04:31Z</time>
      </trkpt>
      <trkpt lat="42.85397571" lon="13.57597067">
        <ele>158.00000</ele>
        <time>2024-02-08T14:04:32Z</time>
      </trkpt>
      <trkpt lat="42.85397311" lon="13.57597067">
        <ele>158.00000</ele>
        <time>2024-02-08T14:04:33Z</time>
      </trkpt>
      <trkpt lat="42.85394252" lon="13.57597226">
        <ele>158.00000</ele>
        <time>2024-02-08T14:04:34Z</time>
      </trkpt>
      <trkpt lat="42.85392039" lon="13.57599791">
        <ele>158.00000</ele>
        <time>2024-02-08T14:04:35Z</time>
      </trkpt>
      <trkpt lat="42.85391746" lon="13.57599858">
        <ele>158.00000</ele>
        <time>2024-02-08T14:04:36Z</time>
      </trkpt>
      <trkpt lat="42.85376608" lon="13.57616052">
        <ele>160.00000</ele>
        <time>2024-02-08T14:05:22Z</time>
      </trkpt>
      <trkpt lat="42.85376440" lon="13.57621978">
        <ele>160.00000</ele>
        <time>2024-02-08T14:05:23Z</time>
      </trkpt>
      <trkpt lat="42.85376298" lon="13.57628591">
        <ele>160.00000</ele>
        <time>2024-02-08T14:05:24Z</time>
      </trkpt>
      <trkpt lat="42.85371470" lon="13.57637928">
        <ele>161.00000</ele>
        <time>2024-02-08T14:05:25Z</time>
      </trkpt>
      <trkpt lat="42.85370615" lon="13.57645296">
        <ele>161.00000</ele>
        <time>2024-02-08T14:05:26Z</time>
      </trkpt>
      <trkpt lat="42.85370204" lon="13.57653334">
        <ele>161.00000</ele>
        <time>2024-02-08T14:05:27Z</time>
      </trkpt>
      <trkpt lat="42.85369701" lon="13.57659813">
        <ele>161.00000</ele>
        <time>2024-02-08T14:05:28Z</time>
      </trkpt>
      <trkpt lat="42.85367262" lon="13.57665312">
        <ele>161.00000</ele>
        <time>2024-02-08T14:05:29Z</time>
      </trkpt>
      <trkpt lat="42.85365208" lon="13.57670526">
        <ele>161.00000</ele>
        <time>2024-02-08T14:05:30Z</time>
      </trkpt>
      <trkpt lat="42.85364898" lon="13.57675370">
        <ele>161.00000</ele>
        <time>2024-02-08T14:05:31Z</time>
      </trkpt>
      <trkpt lat="42.85364655" lon="13.57679477">
        <ele>161.00000</ele>
        <time>2024-02-08T14:05:32Z</time>
      </trkpt>
      <trkpt lat="42.85363918" lon="13.57683358">
        <ele>160.00000</ele>
        <time>2024-02-08T14:05:33Z</time>
      </trkpt>
      <trkpt lat="42.85363767" lon="13.57688471">
        <ele>160.00000</ele>
        <time>2024-02-08T14:05:34Z</time>
      </trkpt>
      <trkpt lat="42.85363893" lon="13.57693148">
        <ele>160.00000</ele>
        <time>2024-02-08T14:05:35Z</time>
      </trkpt>
      <trkpt lat="42.85364747" lon="13.57698303">
        <ele>159.00000</ele>
        <time>2024-02-08T14:05:36Z</time>
      </trkpt>
      <trkpt lat="42.85365519" lon="13.57703651">
        <ele>159.00000</ele>
        <time>2024-02-08T14:05:37Z</time>
      </trkpt>
      <trkpt lat="42.85366248" lon="13.57709862">
        <ele>159.00000</ele>
        <time>2024-02-08T14:05:38Z</time>
      </trkpt>
      <trkpt lat="42.85366575" lon="13.57715721">
        <ele>158.00000</ele>
        <time>2024-02-08T14:05:39Z</time>
      </trkpt>
      <trkpt lat="42.85366885" lon="13.57720758">
        <ele>158.00000</ele>
        <time>2024-02-08T14:05:40Z</time>
      </trkpt>
      <trkpt lat="42.85367229" lon="13.57726559">
        <ele>158.00000</ele>
        <time>2024-02-08T14:05:41Z</time>
      </trkpt>
      <trkpt lat="42.85367421" lon="13.57733365">
        <ele>157.00000</ele>
        <time>2024-02-08T14:05:42Z</time>
      </trkpt>
      <trkpt lat="42.85367111" lon="13.57738905">
        <ele>157.00000</ele>
        <time>2024-02-08T14:05:43Z</time>
      </trkpt>
      <trkpt lat="42.85367178" lon="13.57743641">
        <ele>157.00000</ele>
        <time>2024-02-08T14:05:44Z</time>
      </trkpt>
      <trkpt lat="42.85367530" lon="13.57749475">
        <ele>157.00000</ele>
        <time>2024-02-08T14:05:45Z</time>
      </trkpt>
      <trkpt lat="42.85367983" lon="13.57754546">
        <ele>157.00000</ele>
        <time>2024-02-08T14:05:46Z</time>
      </trkpt>
      <trkpt lat="42.85367983" lon="13.57759558">
        <ele>157.00000</ele>
        <time>2024-02-08T14:05:47Z</time>
      </trkpt>
      <trkpt lat="42.85368368" lon="13.57764587">
        <ele>157.00000</ele>
        <time>2024-02-08T14:05:48Z</time>
      </trkpt>
      <trkpt lat="42.85368930" lon="13.57770589">
        <ele>157.00000</ele>
        <time>2024-02-08T14:05:49Z</time>
      </trkpt>
      <trkpt lat="42.85369098" lon="13.57775333">
        <ele>157.00000</ele>
        <time>2024-02-08T14:05:50Z</time>
      </trkpt>
      <trkpt lat="42.85368042" lon="13.57780647">
        <ele>157.00000</ele>
        <time>2024-02-08T14:05:51Z</time>
      </trkpt>
      <trkpt lat="42.85367497" lon="13.57786078">
        <ele>157.00000</ele>
        <time>2024-02-08T14:05:52Z</time>
      </trkpt>
      <trkpt lat="42.85367715" lon="13.57792055">
        <ele>157.00000</ele>
        <time>2024-02-08T14:05:53Z</time>
      </trkpt>
      <trkpt lat="42.85367530" lon="13.57797235">
        <ele>157.00000</ele>
        <time>2024-02-08T14:05:54Z</time>
      </trkpt>
      <trkpt lat="42.85367346" lon="13.57801359">
        <ele>157.00000</ele>
        <time>2024-02-08T14:05:55Z</time>
      </trkpt>
      <trkpt lat="42.85367698" lon="13.57806053">
        <ele>157.00000</ele>
        <time>2024-02-08T14:05:56Z</time>
      </trkpt>
      <trkpt lat="42.85368033" lon="13.57810285">
        <ele>157.00000</ele>
        <time>2024-02-08T14:05:57Z</time>
      </trkpt>
      <trkpt lat="42.85368762" lon="13.57814904">
        <ele>157.00000</ele>
        <time>2024-02-08T14:05:58Z</time>
      </trkpt>
      <trkpt lat="42.85369005" lon="13.57818416">
        <ele>157.00000</ele>
        <time>2024-02-08T14:05:59Z</time>
      </trkpt>
      <trkpt lat="42.85369793" lon="13.57822473">
        <ele>158.00000</ele>
        <time>2024-02-08T14:06:00Z</time>
      </trkpt>
      <trkpt lat="42.85369953" lon="13.57825591">
        <ele>158.00000</ele>
        <time>2024-02-08T14:06:01Z</time>
      </trkpt>
      <trkpt lat="42.85370414" lon="13.57830201">
        <ele>158.00000</ele>
        <time>2024-02-08T14:06:02Z</time>
      </trkpt>
      <trkpt lat="42.85370715" lon="13.57836571">
        <ele>158.00000</ele>
        <time>2024-02-08T14:06:03Z</time>
      </trkpt>
      <trkpt lat="42.85370741" lon="13.57842304">
        <ele>158.00000</ele>
        <time>2024-02-08T14:06:04Z</time>
      </trkpt>
      <trkpt lat="42.85371026" lon="13.57847342">
        <ele>158.00000</ele>
        <time>2024-02-08T14:06:05Z</time>
      </trkpt>
      <trkpt lat="42.85371973" lon="13.57853746">
        <ele>158.00000</ele>
        <time>2024-02-08T14:06:06Z</time>
      </trkpt>
      <trkpt lat="42.85372576" lon="13.57861340">
        <ele>158.00000</ele>
        <time>2024-02-08T14:06:07Z</time>
      </trkpt>
      <trkpt lat="42.85373691" lon="13.57867525">
        <ele>158.00000</ele>
        <time>2024-02-08T14:06:08Z</time>
      </trkpt>
      <trkpt lat="42.85374445" lon="13.57872379">
        <ele>158.00000</ele>
        <time>2024-02-08T14:06:09Z</time>
      </trkpt>
      <trkpt lat="42.85375040" lon="13.57879478">
        <ele>158.00000</ele>
        <time>2024-02-08T14:06:10Z</time>
      </trkpt>
      <trkpt lat="42.85375275" lon="13.57883920">
        <ele>158.00000</ele>
        <time>2024-02-08T14:06:11Z</time>
      </trkpt>
      <trkpt lat="42.85375912" lon="13.57889444">
        <ele>157.00000</ele>
        <time>2024-02-08T14:06:12Z</time>
      </trkpt>
      <trkpt lat="42.85375535" lon="13.57895177">
        <ele>157.00000</ele>
        <time>2024-02-08T14:06:13Z</time>
      </trkpt>
      <trkpt lat="42.85373783" lon="13.57900885">
        <ele>157.00000</ele>
        <time>2024-02-08T14:06:14Z</time>
      </trkpt>
      <trkpt lat="42.85372476" lon="13.57906174">
        <ele>157.00000</ele>
        <time>2024-02-08T14:06:15Z</time>
      </trkpt>
      <trkpt lat="42.85371889" lon="13.57910382">
        <ele>157.00000</ele>
        <time>2024-02-08T14:06:16Z</time>
      </trkpt>
      <trkpt lat="42.85370967" lon="13.57913877">
        <ele>157.00000</ele>
        <time>2024-02-08T14:06:17Z</time>
      </trkpt>
      <trkpt lat="42.85367069" lon="13.57918697">
        <ele>157.00000</ele>
        <time>2024-02-08T14:06:18Z</time>
      </trkpt>
      <trkpt lat="42.85365410" lon="13.57922385">
        <ele>157.00000</ele>
        <time>2024-02-08T14:06:19Z</time>
      </trkpt>
      <trkpt lat="42.85365317" lon="13.57927909">
        <ele>157.00000</ele>
        <time>2024-02-08T14:06:20Z</time>
      </trkpt>
      <trkpt lat="42.85366499" lon="13.57934597">
        <ele>157.00000</ele>
        <time>2024-02-08T14:06:21Z</time>
      </trkpt>
      <trkpt lat="42.85368930" lon="13.57941261">
        <ele>157.00000</ele>
        <time>2024-02-08T14:06:22Z</time>
      </trkpt>
      <trkpt lat="42.85371654" lon="13.57948930">
        <ele>156.00000</ele>
        <time>2024-02-08T14:06:23Z</time>
      </trkpt>
      <trkpt lat="42.85372241" lon="13.57954077">
        <ele>156.00000</ele>
        <time>2024-02-08T14:06:24Z</time>
      </trkpt>
      <trkpt lat="42.85372383" lon="13.57961285">
        <ele>156.00000</ele>
        <time>2024-02-08T14:06:25Z</time>
      </trkpt>
      <trkpt lat="42.85372199" lon="13.57966641">
        <ele>156.00000</ele>
        <time>2024-02-08T14:06:26Z</time>
      </trkpt>
      <trkpt lat="42.85371973" lon="13.57973682">
        <ele>156.00000</ele>
        <time>2024-02-08T14:06:27Z</time>
      </trkpt>
      <trkpt lat="42.85373406" lon="13.57981997">
        <ele>156.00000</ele>
        <time>2024-02-08T14:06:28Z</time>
      </trkpt>
      <trkpt lat="42.85375225" lon="13.57987898">
        <ele>156.00000</ele>
        <time>2024-02-08T14:06:29Z</time>
      </trkpt>
      <trkpt lat="42.85375686" lon="13.57994494">
        <ele>156.00000</ele>
        <time>2024-02-08T14:06:30Z</time>
      </trkpt>
      <trkpt lat="42.85375988" lon="13.58001569">
        <ele>156.00000</ele>
        <time>2024-02-08T14:06:31Z</time>
      </trkpt>
      <trkpt lat="42.85376876" lon="13.58008727">
        <ele>157.00000</ele>
        <time>2024-02-08T14:06:32Z</time>
      </trkpt>
      <trkpt lat="42.85377907" lon="13.58015491">
        <ele>157.00000</ele>
        <time>2024-02-08T14:06:33Z</time>
      </trkpt>
      <trkpt lat="42.85376465" lon="13.58022071">
        <ele>158.00000</ele>
        <time>2024-02-08T14:06:34Z</time>
      </trkpt>
      <trkpt lat="42.85375636" lon="13.58029573">
        <ele>158.00000</ele>
        <time>2024-02-08T14:06:35Z</time>
      </trkpt>
      <trkpt lat="42.85375049" lon="13.58034459">
        <ele>159.00000</ele>
        <time>2024-02-08T14:06:36Z</time>
      </trkpt>
      <trkpt lat="42.85375887" lon="13.58040897">
        <ele>159.00000</ele>
        <time>2024-02-08T14:06:37Z</time>
      </trkpt>
      <trkpt lat="42.85376792" lon="13.58047963">
        <ele>160.00000</ele>
        <time>2024-02-08T14:06:38Z</time>
      </trkpt>
      <trkpt lat="42.85377262" lon="13.58054115">
        <ele>160.00000</ele>
        <time>2024-02-08T14:06:39Z</time>
      </trkpt>
      <trkpt lat="42.85377823" lon="13.58061457">
        <ele>160.00000</ele>
        <time>2024-02-08T14:06:40Z</time>
      </trkpt>
      <trkpt lat="42.85378376" lon="13.58066344">
        <ele>160.00000</ele>
        <time>2024-02-08T14:06:41Z</time>
      </trkpt>
      <trkpt lat="42.85378938" lon="13.58072362">
        <ele>160.00000</ele>
        <time>2024-02-08T14:06:42Z</time>
      </trkpt>
      <trkpt lat="42.85379827" lon="13.58078238">
        <ele>160.00000</ele>
        <time>2024-02-08T14:06:43Z</time>
      </trkpt>
      <trkpt lat="42.85380866" lon="13.58084885">
        <ele>160.00000</ele>
        <time>2024-02-08T14:06:44Z</time>
      </trkpt>
      <trkpt lat="42.85381092" lon="13.58090610">
        <ele>160.00000</ele>
        <time>2024-02-08T14:06:45Z</time>
      </trkpt>
      <trkpt lat="42.85381142" lon="13.58095161">
        <ele>160.00000</ele>
        <time>2024-02-08T14:06:46Z</time>
      </trkpt>
      <trkpt lat="42.85383850" lon="13.58100391">
        <ele>159.00000</ele>
        <time>2024-02-08T14:06:47Z</time>
      </trkpt>
      <trkpt lat="42.85384680" lon="13.58104658">
        <ele>159.00000</ele>
        <time>2024-02-08T14:06:48Z</time>
      </trkpt>
      <trkpt lat="42.85384546" lon="13.58111774">
        <ele>159.00000</ele>
        <time>2024-02-08T14:06:49Z</time>
      </trkpt>
      <trkpt lat="42.85383850" lon="13.58118236">
        <ele>159.00000</ele>
        <time>2024-02-08T14:06:50Z</time>
      </trkpt>
      <trkpt lat="42.85384009" lon="13.58123266">
        <ele>159.00000</ele>
        <time>2024-02-08T14:06:51Z</time>
      </trkpt>
      <trkpt lat="42.85383867" lon="13.58129996">
        <ele>159.00000</ele>
        <time>2024-02-08T14:06:52Z</time>
      </trkpt>
      <trkpt lat="42.85382903" lon="13.58137372">
        <ele>158.00000</ele>
        <time>2024-02-08T14:06:53Z</time>
      </trkpt>
      <trkpt lat="42.85383833" lon="13.58146408">
        <ele>158.00000</ele>
        <time>2024-02-08T14:06:54Z</time>
      </trkpt>
      <trkpt lat="42.85384269" lon="13.58152351">
        <ele>158.00000</ele>
        <time>2024-02-08T14:06:55Z</time>
      </trkpt>
      <trkpt lat="42.85384730" lon="13.58159450">
        <ele>157.00000</ele>
        <time>2024-02-08T14:06:56Z</time>
      </trkpt>
      <trkpt lat="42.85384931" lon="13.58168620">
        <ele>157.00000</ele>
        <time>2024-02-08T14:06:57Z</time>
      </trkpt>
      <trkpt lat="42.85385342" lon="13.58176474">
        <ele>156.00000</ele>
        <time>2024-02-08T14:06:58Z</time>
      </trkpt>
      <trkpt lat="42.85385442" lon="13.58182844">
        <ele>156.00000</ele>
        <time>2024-02-08T14:06:59Z</time>
      </trkpt>
      <trkpt lat="42.85384302" lon="13.58192374">
        <ele>155.00000</ele>
        <time>2024-02-08T14:07:00Z</time>
      </trkpt>
      <trkpt lat="42.85383984" lon="13.58199985">
        <ele>155.00000</ele>
        <time>2024-02-08T14:07:01Z</time>
      </trkpt>
      <trkpt lat="42.85382140" lon="13.58205970">
        <ele>154.00000</ele>
        <time>2024-02-08T14:07:02Z</time>
      </trkpt>
      <trkpt lat="42.85381754" lon="13.58213287">
        <ele>154.00000</ele>
        <time>2024-02-08T14:07:03Z</time>
      </trkpt>
      <trkpt lat="42.85381880" lon="13.58221602">
        <ele>153.00000</ele>
        <time>2024-02-08T14:07:04Z</time>
      </trkpt>
      <trkpt lat="42.85382509" lon="13.58230336">
        <ele>152.00000</ele>
        <time>2024-02-08T14:07:05Z</time>
      </trkpt>
      <trkpt lat="42.85382643" lon="13.58237712">
        <ele>152.00000</ele>
        <time>2024-02-08T14:07:06Z</time>
      </trkpt>
      <trkpt lat="42.85382936" lon="13.58245105">
        <ele>151.00000</ele>
        <time>2024-02-08T14:07:07Z</time>
      </trkpt>
      <trkpt lat="42.85383380" lon="13.58251484">
        <ele>151.00000</ele>
        <time>2024-02-08T14:07:08Z</time>
      </trkpt>
      <trkpt lat="42.85384059" lon="13.58259639">
        <ele>150.00000</ele>
        <time>2024-02-08T14:07:09Z</time>
      </trkpt>
      <trkpt lat="42.85384831" lon="13.58268725">
        <ele>150.00000</ele>
        <time>2024-02-08T14:07:10Z</time>
      </trkpt>
      <trkpt lat="42.85385702" lon="13.58276437">
        <ele>150.00000</ele>
        <time>2024-02-08T14:07:11Z</time>
      </trkpt>
      <trkpt lat="42.85386398" lon="13.58282815">
        <ele>150.00000</ele>
        <time>2024-02-08T14:07:12Z</time>
      </trkpt>
      <trkpt lat="42.85386658" lon="13.58290275">
        <ele>150.00000</ele>
        <time>2024-02-08T14:07:13Z</time>
      </trkpt>
      <trkpt lat="42.85386859" lon="13.58297660">
        <ele>150.00000</ele>
        <time>2024-02-08T14:07:14Z</time>
      </trkpt>
      <trkpt lat="42.85387353" lon="13.58306813">
        <ele>150.00000</ele>
        <time>2024-02-08T14:07:15Z</time>
      </trkpt>
      <trkpt lat="42.85387923" lon="13.58314608">
        <ele>150.00000</ele>
        <time>2024-02-08T14:07:16Z</time>
      </trkpt>
      <trkpt lat="42.85388393" lon="13.58322487">
        <ele>150.00000</ele>
        <time>2024-02-08T14:07:17Z</time>
      </trkpt>
      <trkpt lat="42.85388837" lon="13.58328798">
        <ele>150.00000</ele>
        <time>2024-02-08T14:07:18Z</time>
      </trkpt>
      <trkpt lat="42.85389650" lon="13.58336484">
        <ele>151.00000</ele>
        <time>2024-02-08T14:07:19Z</time>
      </trkpt>
      <trkpt lat="42.85390279" lon="13.58345361">
        <ele>151.00000</ele>
        <time>2024-02-08T14:07:20Z</time>
      </trkpt>
      <trkpt lat="42.85390924" lon="13.58352729">
        <ele>152.00000</ele>
        <time>2024-02-08T14:07:21Z</time>
      </trkpt>
      <trkpt lat="42.85391310" lon="13.58358386">
        <ele>152.00000</ele>
        <time>2024-02-08T14:07:22Z</time>
      </trkpt>
      <trkpt lat="42.85391871" lon="13.58365343">
        <ele>153.00000</ele>
        <time>2024-02-08T14:07:23Z</time>
      </trkpt>
      <trkpt lat="42.85392441" lon="13.58371605">
        <ele>154.00000</ele>
        <time>2024-02-08T14:07:24Z</time>
      </trkpt>
      <trkpt lat="42.85391922" lon="13.58376726">
        <ele>154.00000</ele>
        <time>2024-02-08T14:07:25Z</time>
      </trkpt>
      <trkpt lat="42.85392022" lon="13.58380842">
        <ele>155.00000</ele>
        <time>2024-02-08T14:07:26Z</time>
      </trkpt>
      <trkpt lat="42.85391570" lon="13.58382451">
        <ele>155.00000</ele>
        <time>2024-02-08T14:07:27Z</time>
      </trkpt>
      <trkpt lat="42.85391746" lon="13.58383666">
        <ele>155.00000</ele>
        <time>2024-02-08T14:07:28Z</time>
      </trkpt>
      <trkpt lat="42.85391871" lon="13.58384144">
        <ele>155.00000</ele>
        <time>2024-02-08T14:07:29Z</time>
      </trkpt>
      <trkpt lat="42.85394285" lon="13.58395376">
        <ele>156.00000</ele>
        <time>2024-02-08T14:07:47Z</time>
      </trkpt>
      <trkpt lat="42.85394654" lon="13.58401620">
        <ele>157.00000</ele>
        <time>2024-02-08T14:07:48Z</time>
      </trkpt>
      <trkpt lat="42.85394981" lon="13.58410019">
        <ele>159.00000</ele>
        <time>2024-02-08T14:07:49Z</time>
      </trkpt>
      <trkpt lat="42.85394746" lon="13.58419021">
        <ele>160.00000</ele>
        <time>2024-02-08T14:07:50Z</time>
      </trkpt>
      <trkpt lat="42.85394839" lon="13.58429683">
        <ele>160.00000</ele>
        <time>2024-02-08T14:07:51Z</time>
      </trkpt>
      <trkpt lat="42.85395325" lon="13.58436908">
        <ele>160.00000</ele>
        <time>2024-02-08T14:07:52Z</time>
      </trkpt>
      <trkpt lat="42.85395668" lon="13.58445902">
        <ele>160.00000</ele>
        <time>2024-02-08T14:07:53Z</time>
      </trkpt>
      <trkpt lat="42.85396020" lon="13.58455097">
        <ele>158.00000</ele>
        <time>2024-02-08T14:07:54Z</time>
      </trkpt>
      <trkpt lat="42.85396138" lon="13.58463848">
        <ele>157.00000</ele>
        <time>2024-02-08T14:07:55Z</time>
      </trkpt>
      <trkpt lat="42.85396481" lon="13.58472699">
        <ele>155.00000</ele>
        <time>2024-02-08T14:07:56Z</time>
      </trkpt>
      <trkpt lat="42.85396783" lon="13.58481114">
        <ele>152.00000</ele>
        <time>2024-02-08T14:07:57Z</time>
      </trkpt>
      <trkpt lat="42.85397076" lon="13.58490695">
        <ele>149.00000</ele>
        <time>2024-02-08T14:07:58Z</time>
      </trkpt>
      <trkpt lat="42.85397948" lon="13.58500787">
        <ele>146.00000</ele>
        <time>2024-02-08T14:07:59Z</time>
      </trkpt>
      <trkpt lat="42.85398677" lon="13.58510904">
        <ele>142.00000</ele>
        <time>2024-02-08T14:08:00Z</time>
      </trkpt>
      <trkpt lat="42.85399097" lon="13.58521766">
        <ele>138.00000</ele>
        <time>2024-02-08T14:08:01Z</time>
      </trkpt>
      <trkpt lat="42.85399097" lon="13.58532202">
        <ele>135.00000</ele>
        <time>2024-02-08T14:08:02Z</time>
      </trkpt>
      <trkpt lat="42.85399918" lon="13.58542185">
        <ele>132.00000</ele>
        <time>2024-02-08T14:08:03Z</time>
      </trkpt>
      <trkpt lat="42.85400446" lon="13.58552914">
        <ele>130.00000</ele>
        <time>2024-02-08T14:08:04Z</time>
      </trkpt>
      <trkpt lat="42.85400974" lon="13.58564682">
        <ele>130.00000</ele>
        <time>2024-02-08T14:08:05Z</time>
      </trkpt>
      <trkpt lat="42.85401376" lon="13.58576098">
        <ele>131.00000</ele>
        <time>2024-02-08T14:08:06Z</time>
      </trkpt>
      <trkpt lat="42.85401854" lon="13.58587313">
        <ele>133.00000</ele>
        <time>2024-02-08T14:08:07Z</time>
      </trkpt>
      <trkpt lat="42.85402449" lon="13.58598411">
        <ele>134.00000</ele>
        <time>2024-02-08T14:08:08Z</time>
      </trkpt>
      <trkpt lat="42.85403229" lon="13.58609517">
        <ele>136.00000</ele>
        <time>2024-02-08T14:08:09Z</time>
      </trkpt>
      <trkpt lat="42.85403807" lon="13.58620279">
        <ele>138.00000</ele>
        <time>2024-02-08T14:08:10Z</time>
      </trkpt>
      <trkpt lat="42.85403640" lon="13.58631033">
        <ele>140.00000</ele>
        <time>2024-02-08T14:08:11Z</time>
      </trkpt>
      <trkpt lat="42.85403296" lon="13.58642156">
        <ele>141.00000</ele>
        <time>2024-02-08T14:08:12Z</time>
      </trkpt>
      <trkpt lat="42.85403505" lon="13.58653698">
        <ele>144.00000</ele>
        <time>2024-02-08T14:08:13Z</time>
      </trkpt>
      <trkpt lat="42.85404662" lon="13.58665340">
        <ele>146.00000</ele>
        <time>2024-02-08T14:08:14Z</time>
      </trkpt>
      <trkpt lat="42.85405358" lon="13.58676832">
        <ele>148.00000</ele>
        <time>2024-02-08T14:08:15Z</time>
      </trkpt>
      <trkpt lat="42.85405894" lon="13.58687929">
        <ele>150.00000</ele>
        <time>2024-02-08T14:08:16Z</time>
      </trkpt>
      <trkpt lat="42.85406422" lon="13.58699077">
        <ele>151.00000</ele>
        <time>2024-02-08T14:08:17Z</time>
      </trkpt>
      <trkpt lat="42.85406925" lon="13.58709806">
        <ele>151.00000</ele>
        <time>2024-02-08T14:08:18Z</time>
      </trkpt>
      <trkpt lat="42.85407378" lon="13.58720275">
        <ele>151.00000</ele>
        <time>2024-02-08T14:08:19Z</time>
      </trkpt>
      <trkpt lat="42.85407705" lon="13.58730199">
        <ele>151.00000</ele>
        <time>2024-02-08T14:08:20Z</time>
      </trkpt>
      <trkpt lat="42.85408023" lon="13.58738841">
        <ele>150.00000</ele>
        <time>2024-02-08T14:08:21Z</time>
      </trkpt>
      <trkpt lat="42.85408241" lon="13.58746360">
        <ele>150.00000</ele>
        <time>2024-02-08T14:08:22Z</time>
      </trkpt>
      <trkpt lat="42.85408518" lon="13.58752830">
        <ele>149.00000</ele>
        <time>2024-02-08T14:08:23Z</time>
      </trkpt>
      <trkpt lat="42.85408945" lon="13.58760139">
        <ele>149.00000</ele>
        <time>2024-02-08T14:08:24Z</time>
      </trkpt>
      <trkpt lat="42.85409130" lon="13.58765722">
        <ele>149.00000</ele>
        <time>2024-02-08T14:08:25Z</time>
      </trkpt>
      <trkpt lat="42.85407545" lon="13.58771447">
        <ele>148.00000</ele>
        <time>2024-02-08T14:08:26Z</time>
      </trkpt>
      <trkpt lat="42.85405324" lon="13.58775964">
        <ele>148.00000</ele>
        <time>2024-02-08T14:08:27Z</time>
      </trkpt>
      <trkpt lat="42.85401695" lon="13.58781404">
        <ele>149.00000</ele>
        <time>2024-02-08T14:08:28Z</time>
      </trkpt>
      <trkpt lat="42.85398401" lon="13.58787129">
        <ele>149.00000</ele>
        <time>2024-02-08T14:08:29Z</time>
      </trkpt>
      <trkpt lat="42.85394101" lon="13.58791974">
        <ele>149.00000</ele>
        <time>2024-02-08T14:08:30Z</time>
      </trkpt>
      <trkpt lat="42.85389793" lon="13.58796215">
        <ele>149.00000</ele>
        <time>2024-02-08T14:08:31Z</time>
      </trkpt>
      <trkpt lat="42.85385283" lon="13.58799291">
        <ele>149.00000</ele>
        <time>2024-02-08T14:08:32Z</time>
      </trkpt>
      <trkpt lat="42.85379919" lon="13.58800297">
        <ele>149.00000</ele>
        <time>2024-02-08T14:08:33Z</time>
      </trkpt>
      <trkpt lat="42.85375267" lon="13.58799819">
        <ele>150.00000</ele>
        <time>2024-02-08T14:08:34Z</time>
      </trkpt>
      <trkpt lat="42.85371327" lon="13.58799342">
        <ele>150.00000</ele>
        <time>2024-02-08T14:08:35Z</time>
      </trkpt>
      <trkpt lat="42.85367446" lon="13.58799333">
        <ele>150.00000</ele>
        <time>2024-02-08T14:08:36Z</time>
      </trkpt>
      <trkpt lat="42.85363331" lon="13.58799283">
        <ele>151.00000</ele>
        <time>2024-02-08T14:08:37Z</time>
      </trkpt>
      <trkpt lat="42.85358738" lon="13.58798906">
        <ele>151.00000</ele>
        <time>2024-02-08T14:08:38Z</time>
      </trkpt>
      <trkpt lat="42.85352610" lon="13.58799291">
        <ele>152.00000</ele>
        <time>2024-02-08T14:08:39Z</time>
      </trkpt>
      <trkpt lat="42.85345419" lon="13.58798554">
        <ele>152.00000</ele>
        <time>2024-02-08T14:08:40Z</time>
      </trkpt>
      <trkpt lat="42.85337255" lon="13.58798730">
        <ele>153.00000</ele>
        <time>2024-02-08T14:08:41Z</time>
      </trkpt>
      <trkpt lat="42.85328764" lon="13.58799962">
        <ele>154.00000</ele>
        <time>2024-02-08T14:08:42Z</time>
      </trkpt>
      <trkpt lat="42.85319142" lon="13.58801177">
        <ele>154.00000</ele>
        <time>2024-02-08T14:08:43Z</time>
      </trkpt>
      <trkpt lat="42.85308807" lon="13.58802183">
        <ele>154.00000</ele>
        <time>2024-02-08T14:08:44Z</time>
      </trkpt>
      <trkpt lat="42.85300064" lon="13.58802611">
        <ele>154.00000</ele>
        <time>2024-02-08T14:08:45Z</time>
      </trkpt>
      <trkpt lat="42.85291641" lon="13.58802929">
        <ele>154.00000</ele>
        <time>2024-02-08T14:08:46Z</time>
      </trkpt>
      <trkpt lat="42.85281423" lon="13.58803139">
        <ele>154.00000</ele>
        <time>2024-02-08T14:08:47Z</time>
      </trkpt>
      <trkpt lat="42.85275363" lon="13.58803910">
        <ele>153.00000</ele>
        <time>2024-02-08T14:08:48Z</time>
      </trkpt>
      <trkpt lat="42.85268724" lon="13.58804983">
        <ele>153.00000</ele>
        <time>2024-02-08T14:08:49Z</time>
      </trkpt>
      <trkpt lat="42.85262153" lon="13.58804446">
        <ele>153.00000</ele>
        <time>2024-02-08T14:08:50Z</time>
      </trkpt>
      <trkpt lat="42.85255372" lon="13.58804748">
        <ele>153.00000</ele>
        <time>2024-02-08T14:08:51Z</time>
      </trkpt>
      <trkpt lat="42.85249069" lon="13.58805444">
        <ele>152.00000</ele>
        <time>2024-02-08T14:08:52Z</time>
      </trkpt>
      <trkpt lat="42.85241492" lon="13.58805620">
        <ele>152.00000</ele>
        <time>2024-02-08T14:08:53Z</time>
      </trkpt>
      <trkpt lat="42.85236488" lon="13.58805393">
        <ele>152.00000</ele>
        <time>2024-02-08T14:08:54Z</time>
      </trkpt>
      <trkpt lat="42.85231282" lon="13.58805469">
        <ele>151.00000</ele>
        <time>2024-02-08T14:08:55Z</time>
      </trkpt>
      <trkpt lat="42.85225331" lon="13.58804865">
        <ele>151.00000</ele>
        <time>2024-02-08T14:08:56Z</time>
      </trkpt>
      <trkpt lat="42.85217897" lon="13.58803994">
        <ele>151.00000</ele>
        <time>2024-02-08T14:08:57Z</time>
      </trkpt>
      <trkpt lat="42.85210973" lon="13.58803457">
        <ele>151.00000</ele>
        <time>2024-02-08T14:08:58Z</time>
      </trkpt>
      <trkpt lat="42.85203220" lon="13.58806349">
        <ele>151.00000</ele>
        <time>2024-02-08T14:08:59Z</time>
      </trkpt>
      <trkpt lat="42.85197042" lon="13.58809945">
        <ele>151.00000</ele>
        <time>2024-02-08T14:09:00Z</time>
      </trkpt>
      <trkpt lat="42.85191561" lon="13.58814957">
        <ele>151.00000</ele>
        <time>2024-02-08T14:09:01Z</time>
      </trkpt>
      <trkpt lat="42.85187504" lon="13.58823163">
        <ele>151.00000</ele>
        <time>2024-02-08T14:09:02Z</time>
      </trkpt>
      <trkpt lat="42.85184771" lon="13.58833347">
        <ele>151.00000</ele>
        <time>2024-02-08T14:09:03Z</time>
      </trkpt>
      <trkpt lat="42.85181863" lon="13.58843062">
        <ele>152.00000</ele>
        <time>2024-02-08T14:09:04Z</time>
      </trkpt>
      <trkpt lat="42.85179373" lon="13.58852994">
        <ele>152.00000</ele>
        <time>2024-02-08T14:09:05Z</time>
      </trkpt>
      <trkpt lat="42.85177144" lon="13.58863413">
        <ele>152.00000</ele>
        <time>2024-02-08T14:09:06Z</time>
      </trkpt>
      <trkpt lat="42.85174596" lon="13.58876539">
        <ele>153.00000</ele>
        <time>2024-02-08T14:09:07Z</time>
      </trkpt>
      <trkpt lat="42.85172106" lon="13.58887561">
        <ele>154.00000</ele>
        <time>2024-02-08T14:09:08Z</time>
      </trkpt>
      <trkpt lat="42.85169600" lon="13.58898667">
        <ele>154.00000</ele>
        <time>2024-02-08T14:09:09Z</time>
      </trkpt>
      <trkpt lat="42.85167513" lon="13.58907460">
        <ele>154.00000</ele>
        <time>2024-02-08T14:09:10Z</time>
      </trkpt>
      <trkpt lat="42.85165686" lon="13.58918708">
        <ele>155.00000</ele>
        <time>2024-02-08T14:09:11Z</time>
      </trkpt>
      <trkpt lat="42.85162953" lon="13.58932672">
        <ele>155.00000</ele>
        <time>2024-02-08T14:09:12Z</time>
      </trkpt>
      <trkpt lat="42.85160992" lon="13.58942069">
        <ele>155.00000</ele>
        <time>2024-02-08T14:09:13Z</time>
      </trkpt>
      <trkpt lat="42.85158636" lon="13.58956435">
        <ele>154.00000</ele>
        <time>2024-02-08T14:09:14Z</time>
      </trkpt>
      <trkpt lat="42.85157362" lon="13.58968790">
        <ele>154.00000</ele>
        <time>2024-02-08T14:09:15Z</time>
      </trkpt>
      <trkpt lat="42.85156432" lon="13.58978907">
        <ele>154.00000</ele>
        <time>2024-02-08T14:09:16Z</time>
      </trkpt>
      <trkpt lat="42.85155619" lon="13.58991681">
        <ele>154.00000</ele>
        <time>2024-02-08T14:09:17Z</time>
      </trkpt>
      <trkpt lat="42.85154873" lon="13.59004707">
        <ele>154.00000</ele>
        <time>2024-02-08T14:09:18Z</time>
      </trkpt>
      <trkpt lat="42.85153549" lon="13.59020314">
        <ele>154.00000</ele>
        <time>2024-02-08T14:09:19Z</time>
      </trkpt>
      <trkpt lat="42.85152182" lon="13.59033591">
        <ele>155.00000</ele>
        <time>2024-02-08T14:09:20Z</time>
      </trkpt>
      <trkpt lat="42.85151596" lon="13.59044043">
        <ele>155.00000</ele>
        <time>2024-02-08T14:09:21Z</time>
      </trkpt>
      <trkpt lat="42.85150464" lon="13.59057068">
        <ele>155.00000</ele>
        <time>2024-02-08T14:09:22Z</time>
      </trkpt>
      <trkpt lat="42.85148830" lon="13.59072181">
        <ele>155.00000</ele>
        <time>2024-02-08T14:09:23Z</time>
      </trkpt>
      <trkpt lat="42.85148628" lon="13.59085793">
        <ele>155.00000</ele>
        <time>2024-02-08T14:09:24Z</time>
      </trkpt>
      <trkpt lat="42.85146977" lon="13.59098911">
        <ele>155.00000</ele>
        <time>2024-02-08T14:09:25Z</time>
      </trkpt>
      <trkpt lat="42.85145988" lon="13.59108600">
        <ele>155.00000</ele>
        <time>2024-02-08T14:09:26Z</time>
      </trkpt>
      <trkpt lat="42.85145980" lon="13.59120310">
        <ele>154.00000</ele>
        <time>2024-02-08T14:09:27Z</time>
      </trkpt>
      <trkpt lat="42.85146474" lon="13.59131919">
        <ele>154.00000</ele>
        <time>2024-02-08T14:09:28Z</time>
      </trkpt>
      <trkpt lat="42.85145267" lon="13.59145397">
        <ele>153.00000</ele>
        <time>2024-02-08T14:09:29Z</time>
      </trkpt>
      <trkpt lat="42.85145184" lon="13.59154206">
        <ele>153.00000</ele>
        <time>2024-02-08T14:09:30Z</time>
      </trkpt>
      <trkpt lat="42.85145091" lon="13.59165027">
        <ele>152.00000</ele>
        <time>2024-02-08T14:09:31Z</time>
      </trkpt>
      <trkpt lat="42.85144513" lon="13.59174767">
        <ele>152.00000</ele>
        <time>2024-02-08T14:09:32Z</time>
      </trkpt>
      <trkpt lat="42.85143641" lon="13.59182596">
        <ele>151.00000</ele>
        <time>2024-02-08T14:09:33Z</time>
      </trkpt>
      <trkpt lat="42.85143272" lon="13.59188849">
        <ele>151.00000</ele>
        <time>2024-02-08T14:09:34Z</time>
      </trkpt>
      <trkpt lat="42.85143532" lon="13.59191539">
        <ele>151.00000</ele>
        <time>2024-02-08T14:09:35Z</time>
      </trkpt>
      <trkpt lat="42.85143549" lon="13.59192805">
        <ele>151.00000</ele>
        <time>2024-02-08T14:09:36Z</time>
      </trkpt>
      <trkpt lat="42.85143365" lon="13.59193802">
        <ele>151.00000</ele>
        <time>2024-02-08T14:09:37Z</time>
      </trkpt>
      <trkpt lat="42.85143231" lon="13.59194205">
        <ele>151.00000</ele>
        <time>2024-02-08T14:09:38Z</time>
      </trkpt>
      <trkpt lat="42.85143373" lon="13.59194959">
        <ele>150.00000</ele>
        <time>2024-02-08T14:09:42Z</time>
      </trkpt>
      <trkpt lat="42.85143272" lon="13.59197692">
        <ele>150.00000</ele>
        <time>2024-02-08T14:09:43Z</time>
      </trkpt>
      <trkpt lat="42.85142082" lon="13.59202167">
        <ele>150.00000</ele>
        <time>2024-02-08T14:09:44Z</time>
      </trkpt>
      <trkpt lat="42.85140029" lon="13.59209435">
        <ele>150.00000</ele>
        <time>2024-02-08T14:09:45Z</time>
      </trkpt>
      <trkpt lat="42.85138428" lon="13.59218479">
        <ele>150.00000</ele>
        <time>2024-02-08T14:09:46Z</time>
      </trkpt>
      <trkpt lat="42.85138503" lon="13.59227615">
        <ele>149.00000</ele>
        <time>2024-02-08T14:09:47Z</time>
      </trkpt>
      <trkpt lat="42.85138813" lon="13.59237137">
        <ele>149.00000</ele>
        <time>2024-02-08T14:09:48Z</time>
      </trkpt>
      <trkpt lat="42.85139207" lon="13.59246985">
        <ele>149.00000</ele>
        <time>2024-02-08T14:09:49Z</time>
      </trkpt>
      <trkpt lat="42.85138964" lon="13.59258737">
        <ele>149.00000</ele>
        <time>2024-02-08T14:09:50Z</time>
      </trkpt>
      <trkpt lat="42.85136852" lon="13.59266624">
        <ele>148.00000</ele>
        <time>2024-02-08T14:09:51Z</time>
      </trkpt>
      <trkpt lat="42.85132896" lon="13.59276205">
        <ele>148.00000</ele>
        <time>2024-02-08T14:09:52Z</time>
      </trkpt>
      <trkpt lat="42.85131789" lon="13.59286649">
        <ele>147.00000</ele>
        <time>2024-02-08T14:09:53Z</time>
      </trkpt>
      <trkpt lat="42.85130901" lon="13.59299976">
        <ele>147.00000</ele>
        <time>2024-02-08T14:09:54Z</time>
      </trkpt>
      <trkpt lat="42.85130490" lon="13.59311786">
        <ele>147.00000</ele>
        <time>2024-02-08T14:09:55Z</time>
      </trkpt>
      <trkpt lat="42.85129845" lon="13.59323965">
        <ele>146.00000</ele>
        <time>2024-02-08T14:09:56Z</time>
      </trkpt>
      <trkpt lat="42.85128772" lon="13.59333906">
        <ele>146.00000</ele>
        <time>2024-02-08T14:09:57Z</time>
      </trkpt>
      <trkpt lat="42.85127724" lon="13.59346621">
        <ele>146.00000</ele>
        <time>2024-02-08T14:09:58Z</time>
      </trkpt>
      <trkpt lat="42.85126676" lon="13.59359387">
        <ele>146.00000</ele>
        <time>2024-02-08T14:09:59Z</time>
      </trkpt>
      <trkpt lat="42.85125930" lon="13.59372597">
        <ele>145.00000</ele>
        <time>2024-02-08T14:10:00Z</time>
      </trkpt>
      <trkpt lat="42.85125100" lon="13.59390039">
        <ele>145.00000</ele>
        <time>2024-02-08T14:10:01Z</time>
      </trkpt>
      <trkpt lat="42.85124992" lon="13.59402755">
        <ele>145.00000</ele>
        <time>2024-02-08T14:10:02Z</time>
      </trkpt>
      <trkpt lat="42.85124296" lon="13.59419259">
        <ele>144.00000</ele>
        <time>2024-02-08T14:10:03Z</time>
      </trkpt>
      <trkpt lat="42.85123265" lon="13.59436182">
        <ele>143.00000</ele>
        <time>2024-02-08T14:10:04Z</time>
      </trkpt>
      <trkpt lat="42.85120524" lon="13.59453432">
        <ele>143.00000</ele>
        <time>2024-02-08T14:10:05Z</time>
      </trkpt>
      <trkpt lat="42.85119124" lon="13.59470430">
        <ele>142.00000</ele>
        <time>2024-02-08T14:10:06Z</time>
      </trkpt>
      <trkpt lat="42.85117146" lon="13.59487152">
        <ele>142.00000</ele>
        <time>2024-02-08T14:10:07Z</time>
      </trkpt>
      <trkpt lat="42.85113760" lon="13.59506699">
        <ele>141.00000</ele>
        <time>2024-02-08T14:10:08Z</time>
      </trkpt>
      <trkpt lat="42.85110566" lon="13.59519842">
        <ele>140.00000</ele>
        <time>2024-02-08T14:10:09Z</time>
      </trkpt>
      <trkpt lat="42.85106752" lon="13.59535683">
        <ele>139.00000</ele>
        <time>2024-02-08T14:10:10Z</time>
      </trkpt>
      <trkpt lat="42.85102335" lon="13.59554417">
        <ele>139.00000</ele>
        <time>2024-02-08T14:10:11Z</time>
      </trkpt>
      <trkpt lat="42.85098689" lon="13.59570091">
        <ele>139.00000</ele>
        <time>2024-02-08T14:10:12Z</time>
      </trkpt>
      <trkpt lat="42.85095931" lon="13.59586092">
        <ele>139.00000</ele>
        <time>2024-02-08T14:10:13Z</time>
      </trkpt>
      <trkpt lat="42.85093744" lon="13.59598673">
        <ele>139.00000</ele>
        <time>2024-02-08T14:10:14Z</time>
      </trkpt>
      <trkpt lat="42.85090299" lon="13.59614264">
        <ele>139.00000</ele>
        <time>2024-02-08T14:10:15Z</time>
      </trkpt>
      <trkpt lat="42.85085597" lon="13.59632042">
        <ele>139.00000</ele>
        <time>2024-02-08T14:10:16Z</time>
      </trkpt>
      <trkpt lat="42.85081741" lon="13.59644011">
        <ele>140.00000</ele>
        <time>2024-02-08T14:10:17Z</time>
      </trkpt>
      <trkpt lat="42.85077332" lon="13.59661521">
        <ele>140.00000</ele>
        <time>2024-02-08T14:10:18Z</time>
      </trkpt>
      <trkpt lat="42.85074231" lon="13.59673088">
        <ele>140.00000</ele>
        <time>2024-02-08T14:10:19Z</time>
      </trkpt>
      <trkpt lat="42.85070241" lon="13.59687672">
        <ele>140.00000</ele>
        <time>2024-02-08T14:10:20Z</time>
      </trkpt>
      <trkpt lat="42.85066293" lon="13.59701938">
        <ele>139.00000</ele>
        <time>2024-02-08T14:10:21Z</time>
      </trkpt>
      <trkpt lat="42.85061834" lon="13.59715802">
        <ele>139.00000</ele>
        <time>2024-02-08T14:10:22Z</time>
      </trkpt>
      <trkpt lat="42.85054164" lon="13.59731250">
        <ele>138.00000</ele>
        <time>2024-02-08T14:10:23Z</time>
      </trkpt>
      <trkpt lat="42.85048549" lon="13.59743798">
        <ele>137.00000</ele>
        <time>2024-02-08T14:10:24Z</time>
      </trkpt>
      <trkpt lat="42.85045397" lon="13.59754208">
        <ele>137.00000</ele>
        <time>2024-02-08T14:10:25Z</time>
      </trkpt>
      <trkpt lat="42.85041835" lon="13.59767049">
        <ele>136.00000</ele>
        <time>2024-02-08T14:10:26Z</time>
      </trkpt>
      <trkpt lat="42.85038197" lon="13.59779597">
        <ele>135.00000</ele>
        <time>2024-02-08T14:10:27Z</time>
      </trkpt>
      <trkpt lat="42.85033511" lon="13.59794408">
        <ele>135.00000</ele>
        <time>2024-02-08T14:10:28Z</time>
      </trkpt>
      <trkpt lat="42.85030125" lon="13.59804114">
        <ele>135.00000</ele>
        <time>2024-02-08T14:10:29Z</time>
      </trkpt>
      <trkpt lat="42.85025808" lon="13.59818321">
        <ele>135.00000</ele>
        <time>2024-02-08T14:10:30Z</time>
      </trkpt>
      <trkpt lat="42.85022850" lon="13.59827256">
        <ele>135.00000</ele>
        <time>2024-02-08T14:10:31Z</time>
      </trkpt>
      <trkpt lat="42.85016027" lon="13.59838698">
        <ele>135.00000</ele>
        <time>2024-02-08T14:10:32Z</time>
      </trkpt>
      <trkpt lat="42.85009439" lon="13.59842721">
        <ele>135.00000</ele>
        <time>2024-02-08T14:10:33Z</time>
      </trkpt>
      <trkpt lat="42.85001610" lon="13.59846032">
        <ele>135.00000</ele>
        <time>2024-02-08T14:10:34Z</time>
      </trkpt>
      <trkpt lat="42.84994862" lon="13.59850047">
        <ele>134.00000</ele>
        <time>2024-02-08T14:10:35Z</time>
      </trkpt>
      <trkpt lat="42.84989548" lon="13.59858077">
        <ele>134.00000</ele>
        <time>2024-02-08T14:10:36Z</time>
      </trkpt>
      <trkpt lat="42.84987310" lon="13.59865712">
        <ele>133.00000</ele>
        <time>2024-02-08T14:10:37Z</time>
      </trkpt>
      <trkpt lat="42.84985215" lon="13.59873130">
        <ele>133.00000</ele>
        <time>2024-02-08T14:10:38Z</time>
      </trkpt>
      <trkpt lat="42.84983421" lon="13.59879291">
        <ele>132.00000</ele>
        <time>2024-02-08T14:10:39Z</time>
      </trkpt>
      <trkpt lat="42.84980429" lon="13.59888830">
        <ele>132.00000</ele>
        <time>2024-02-08T14:10:40Z</time>
      </trkpt>
      <trkpt lat="42.84977755" lon="13.59897446">
        <ele>131.00000</ele>
        <time>2024-02-08T14:10:41Z</time>
      </trkpt>
      <trkpt lat="42.84975425" lon="13.59904412">
        <ele>131.00000</ele>
        <time>2024-02-08T14:10:42Z</time>
      </trkpt>
      <trkpt lat="42.84971837" lon="13.59914579">
        <ele>131.00000</ele>
        <time>2024-02-08T14:10:43Z</time>
      </trkpt>
      <trkpt lat="42.84968501" lon="13.59923187">
        <ele>130.00000</ele>
        <time>2024-02-08T14:10:44Z</time>
      </trkpt>
      <trkpt lat="42.84965719" lon="13.59930396">
        <ele>130.00000</ele>
        <time>2024-02-08T14:10:45Z</time>
      </trkpt>
      <trkpt lat="42.84961947" lon="13.59939666">
        <ele>130.00000</ele>
        <time>2024-02-08T14:10:46Z</time>
      </trkpt>
      <trkpt lat="42.84957261" lon="13.59951644">
        <ele>130.00000</ele>
        <time>2024-02-08T14:10:47Z</time>
      </trkpt>
      <trkpt lat="42.84954059" lon="13.59960319">
        <ele>129.00000</ele>
        <time>2024-02-08T14:10:48Z</time>
      </trkpt>
      <trkpt lat="42.84949474" lon="13.59974157">
        <ele>129.00000</ele>
        <time>2024-02-08T14:10:49Z</time>
      </trkpt>
      <trkpt lat="42.84946952" lon="13.59983763">
        <ele>129.00000</ele>
        <time>2024-02-08T14:10:50Z</time>
      </trkpt>
      <trkpt lat="42.84943113" lon="13.59998188">
        <ele>129.00000</ele>
        <time>2024-02-08T14:10:51Z</time>
      </trkpt>
      <trkpt lat="42.84940699" lon="13.60007962">
        <ele>128.00000</ele>
        <time>2024-02-08T14:10:52Z</time>
      </trkpt>
      <trkpt lat="42.84937765" lon="13.60022840">
        <ele>128.00000</ele>
        <time>2024-02-08T14:10:53Z</time>
      </trkpt>
      <trkpt lat="42.84935175" lon="13.60032864">
        <ele>128.00000</ele>
        <time>2024-02-08T14:10:54Z</time>
      </trkpt>
      <trkpt lat="42.84931814" lon="13.60045596">
        <ele>128.00000</ele>
        <time>2024-02-08T14:10:55Z</time>
      </trkpt>
      <trkpt lat="42.84927229" lon="13.60060835">
        <ele>128.00000</ele>
        <time>2024-02-08T14:10:56Z</time>
      </trkpt>
      <trkpt lat="42.84924379" lon="13.60071237">
        <ele>128.00000</ele>
        <time>2024-02-08T14:10:57Z</time>
      </trkpt>
      <trkpt lat="42.84920272" lon="13.60087246">
        <ele>127.00000</ele>
        <time>2024-02-08T14:10:58Z</time>
      </trkpt>
      <trkpt lat="42.84917498" lon="13.60098193">
        <ele>127.00000</ele>
        <time>2024-02-08T14:10:59Z</time>
      </trkpt>
      <trkpt lat="42.84914120" lon="13.60111931">
        <ele>126.00000</ele>
        <time>2024-02-08T14:11:00Z</time>
      </trkpt>
      <trkpt lat="42.84910934" lon="13.60125585">
        <ele>126.00000</ele>
        <time>2024-02-08T14:11:01Z</time>
      </trkpt>
      <trkpt lat="42.84907951" lon="13.60138879">
        <ele>125.00000</ele>
        <time>2024-02-08T14:11:02Z</time>
      </trkpt>
      <trkpt lat="42.84905193" lon="13.60151971">
        <ele>125.00000</ele>
        <time>2024-02-08T14:11:03Z</time>
      </trkpt>
      <trkpt lat="42.84902519" lon="13.60164653">
        <ele>125.00000</ele>
        <time>2024-02-08T14:11:04Z</time>
      </trkpt>
      <trkpt lat="42.84900189" lon="13.60177041">
        <ele>126.00000</ele>
        <time>2024-02-08T14:11:05Z</time>
      </trkpt>
      <trkpt lat="42.84898286" lon="13.60189053">
        <ele>126.00000</ele>
        <time>2024-02-08T14:11:06Z</time>
      </trkpt>
      <trkpt lat="42.84896434" lon="13.60199949">
        <ele>127.00000</ele>
        <time>2024-02-08T14:11:07Z</time>
      </trkpt>
      <trkpt lat="42.84894707" lon="13.60209588">
        <ele>127.00000</ele>
        <time>2024-02-08T14:11:08Z</time>
      </trkpt>
      <trkpt lat="42.84892486" lon="13.60220242">
        <ele>128.00000</ele>
        <time>2024-02-08T14:11:09Z</time>
      </trkpt>
      <trkpt lat="42.84890550" lon="13.60226419">
        <ele>128.00000</ele>
        <time>2024-02-08T14:11:10Z</time>
      </trkpt>
      <trkpt lat="42.84887867" lon="13.60232412">
        <ele>128.00000</ele>
        <time>2024-02-08T14:11:11Z</time>
      </trkpt>
      <trkpt lat="42.84883442" lon="13.60237835">
        <ele>128.00000</ele>
        <time>2024-02-08T14:11:12Z</time>
      </trkpt>
      <trkpt lat="42.84880743" lon="13.60241976">
        <ele>128.00000</ele>
        <time>2024-02-08T14:11:13Z</time>
      </trkpt>
      <trkpt lat="42.84878949" lon="13.60247852">
        <ele>128.00000</ele>
        <time>2024-02-08T14:11:14Z</time>
      </trkpt>
      <trkpt lat="42.84879737" lon="13.60253937">
        <ele>128.00000</ele>
        <time>2024-02-08T14:11:15Z</time>
      </trkpt>
      <trkpt lat="42.84881967" lon="13.60261213">
        <ele>128.00000</ele>
        <time>2024-02-08T14:11:16Z</time>
      </trkpt>
      <trkpt lat="42.84882914" lon="13.60270466">
        <ele>128.00000</ele>
        <time>2024-02-08T14:11:17Z</time>
      </trkpt>
      <trkpt lat="42.84881640" lon="13.60281664">
        <ele>128.00000</ele>
        <time>2024-02-08T14:11:18Z</time>
      </trkpt>
      <trkpt lat="42.84879033" lon="13.60296777">
        <ele>127.00000</ele>
        <time>2024-02-08T14:11:19Z</time>
      </trkpt>
      <trkpt lat="42.84876652" lon="13.60310314">
        <ele>127.00000</ele>
        <time>2024-02-08T14:11:20Z</time>
      </trkpt>
      <trkpt lat="42.84874842" lon="13.60321319">
        <ele>127.00000</ele>
        <time>2024-02-08T14:11:21Z</time>
      </trkpt>
      <trkpt lat="42.84871866" lon="13.60335350">
        <ele>127.00000</ele>
        <time>2024-02-08T14:11:22Z</time>
      </trkpt>
      <trkpt lat="42.84868958" lon="13.60350337">
        <ele>127.00000</ele>
        <time>2024-02-08T14:11:23Z</time>
      </trkpt>
      <trkpt lat="42.84865756" lon="13.60365877">
        <ele>127.00000</ele>
        <time>2024-02-08T14:11:24Z</time>
      </trkpt>
      <trkpt lat="42.84862412" lon="13.60381870">
        <ele>127.00000</ele>
        <time>2024-02-08T14:11:25Z</time>
      </trkpt>
      <trkpt lat="42.84859042" lon="13.60398081">
        <ele>127.00000</ele>
        <time>2024-02-08T14:11:26Z</time>
      </trkpt>
      <trkpt lat="42.84854985" lon="13.60418164">
        <ele>127.00000</ele>
        <time>2024-02-08T14:11:27Z</time>
      </trkpt>
      <trkpt lat="42.84852504" lon="13.60431818">
        <ele>127.00000</ele>
        <time>2024-02-08T14:11:28Z</time>
      </trkpt>
      <trkpt lat="42.84849537" lon="13.60448699">
        <ele>126.00000</ele>
        <time>2024-02-08T14:11:29Z</time>
      </trkpt>
      <trkpt lat="42.84846687" lon="13.60465798">
        <ele>126.00000</ele>
        <time>2024-02-08T14:11:30Z</time>
      </trkpt>
      <trkpt lat="42.84843435" lon="13.60485529">
        <ele>125.00000</ele>
        <time>2024-02-08T14:11:31Z</time>
      </trkpt>
      <trkpt lat="42.84840761" lon="13.60498529">
        <ele>125.00000</ele>
        <time>2024-02-08T14:11:32Z</time>
      </trkpt>
      <trkpt lat="42.84837040" lon="13.60514312">
        <ele>124.00000</ele>
        <time>2024-02-08T14:11:33Z</time>
      </trkpt>
      <trkpt lat="42.84832773" lon="13.60529459">
        <ele>124.00000</ele>
        <time>2024-02-08T14:11:34Z</time>
      </trkpt>
      <trkpt lat="42.84827426" lon="13.60543909">
        <ele>124.00000</ele>
        <time>2024-02-08T14:11:35Z</time>
      </trkpt>
      <trkpt lat="42.84821692" lon="13.60557949">
        <ele>124.00000</ele>
        <time>2024-02-08T14:11:36Z</time>
      </trkpt>
      <trkpt lat="42.84815951" lon="13.60571930">
        <ele>125.00000</ele>
        <time>2024-02-08T14:11:37Z</time>
      </trkpt>
      <trkpt lat="42.84809966" lon="13.60585936">
        <ele>125.00000</ele>
        <time>2024-02-08T14:11:38Z</time>
      </trkpt>
      <trkpt lat="42.84804116" lon="13.60599649">
        <ele>125.00000</ele>
        <time>2024-02-08T14:11:39Z</time>
      </trkpt>
      <trkpt lat="42.84797938" lon="13.60613873">
        <ele>124.00000</ele>
        <time>2024-02-08T14:11:40Z</time>
      </trkpt>
      <trkpt lat="42.84791945" lon="13.60627787">
        <ele>124.00000</ele>
        <time>2024-02-08T14:11:41Z</time>
      </trkpt>
      <trkpt lat="42.84785700" lon="13.60641005">
        <ele>124.00000</ele>
        <time>2024-02-08T14:11:42Z</time>
      </trkpt>
      <trkpt lat="42.84779364" lon="13.60653921">
        <ele>124.00000</ele>
        <time>2024-02-08T14:11:43Z</time>
      </trkpt>
      <trkpt lat="42.84772122" lon="13.60669487">
        <ele>123.00000</ele>
        <time>2024-02-08T14:11:44Z</time>
      </trkpt>
      <trkpt lat="42.84767721" lon="13.60680107">
        <ele>123.00000</ele>
        <time>2024-02-08T14:11:45Z</time>
      </trkpt>
      <trkpt lat="42.84762550" lon="13.60693291">
        <ele>123.00000</ele>
        <time>2024-02-08T14:11:46Z</time>
      </trkpt>
      <trkpt lat="42.84756775" lon="13.60708613">
        <ele>123.00000</ele>
        <time>2024-02-08T14:11:47Z</time>
      </trkpt>
      <trkpt lat="42.84753162" lon="13.60718529">
        <ele>123.00000</ele>
        <time>2024-02-08T14:11:48Z</time>
      </trkpt>
      <trkpt lat="42.84748904" lon="13.60730775">
        <ele>122.00000</ele>
        <time>2024-02-08T14:11:49Z</time>
      </trkpt>
      <trkpt lat="42.84745308" lon="13.60743013">
        <ele>122.00000</ele>
        <time>2024-02-08T14:11:50Z</time>
      </trkpt>
      <trkpt lat="42.84741989" lon="13.60754940">
        <ele>121.00000</ele>
        <time>2024-02-08T14:11:51Z</time>
      </trkpt>
      <trkpt lat="42.84738527" lon="13.60765996">
        <ele>121.00000</ele>
        <time>2024-02-08T14:11:52Z</time>
      </trkpt>
      <trkpt lat="42.84735317" lon="13.60776750">
        <ele>121.00000</ele>
        <time>2024-02-08T14:11:53Z</time>
      </trkpt>
      <trkpt lat="42.84731260" lon="13.60789113">
        <ele>121.00000</ele>
        <time>2024-02-08T14:11:54Z</time>
      </trkpt>
      <trkpt lat="42.84728435" lon="13.60797151">
        <ele>121.00000</ele>
        <time>2024-02-08T14:11:55Z</time>
      </trkpt>
      <trkpt lat="42.84724730" lon="13.60809238">
        <ele>121.00000</ele>
        <time>2024-02-08T14:11:56Z</time>
      </trkpt>
      <trkpt lat="42.84722870" lon="13.60817318">
        <ele>121.00000</ele>
        <time>2024-02-08T14:11:57Z</time>
      </trkpt>
      <trkpt lat="42.84720020" lon="13.60829061">
        <ele>121.00000</ele>
        <time>2024-02-08T14:11:58Z</time>
      </trkpt>
      <trkpt lat="42.84717882" lon="13.60837150">
        <ele>122.00000</ele>
        <time>2024-02-08T14:11:59Z</time>
      </trkpt>
      <trkpt lat="42.84714890" lon="13.60847217">
        <ele>122.00000</ele>
        <time>2024-02-08T14:12:00Z</time>
      </trkpt>
      <trkpt lat="42.84711864" lon="13.60857459">
        <ele>122.00000</ele>
        <time>2024-02-08T14:12:01Z</time>
      </trkpt>
      <trkpt lat="42.84708051" lon="13.60867903">
        <ele>122.00000</ele>
        <time>2024-02-08T14:12:02Z</time>
      </trkpt>
      <trkpt lat="42.84704195" lon="13.60878607">
        <ele>122.00000</ele>
        <time>2024-02-08T14:12:03Z</time>
      </trkpt>
      <trkpt lat="42.84700146" lon="13.60889679">
        <ele>122.00000</ele>
        <time>2024-02-08T14:12:04Z</time>
      </trkpt>
      <trkpt lat="42.84695872" lon="13.60902965">
        <ele>123.00000</ele>
        <time>2024-02-08T14:12:05Z</time>
      </trkpt>
      <trkpt lat="42.84693256" lon="13.60914708">
        <ele>123.00000</ele>
        <time>2024-02-08T14:12:06Z</time>
      </trkpt>
      <trkpt lat="42.84690951" lon="13.60926828">
        <ele>123.00000</ele>
        <time>2024-02-08T14:12:07Z</time>
      </trkpt>
      <trkpt lat="42.84688672" lon="13.60936325">
        <ele>123.00000</ele>
        <time>2024-02-08T14:12:08Z</time>
      </trkpt>
      <trkpt lat="42.84685461" lon="13.60950565">
        <ele>123.00000</ele>
        <time>2024-02-08T14:12:09Z</time>
      </trkpt>
      <trkpt lat="42.84683676" lon="13.60960188">
        <ele>123.00000</ele>
        <time>2024-02-08T14:12:10Z</time>
      </trkpt>
      <trkpt lat="42.84681103" lon="13.60974906">
        <ele>122.00000</ele>
        <time>2024-02-08T14:12:11Z</time>
      </trkpt>
      <trkpt lat="42.84679703" lon="13.60985040">
        <ele>122.00000</ele>
        <time>2024-02-08T14:12:12Z</time>
      </trkpt>
      <trkpt lat="42.84677406" lon="13.61000245">
        <ele>121.00000</ele>
        <time>2024-02-08T14:12:13Z</time>
      </trkpt>
      <trkpt lat="42.84675696" lon="13.61010286">
        <ele>120.00000</ele>
        <time>2024-02-08T14:12:14Z</time>
      </trkpt>
      <trkpt lat="42.84673701" lon="13.61022826">
        <ele>120.00000</ele>
        <time>2024-02-08T14:12:15Z</time>
      </trkpt>
      <trkpt lat="42.84671631" lon="13.61035491">
        <ele>119.00000</ele>
        <time>2024-02-08T14:12:16Z</time>
      </trkpt>
      <trkpt lat="42.84669569" lon="13.61048198">
        <ele>119.00000</ele>
        <time>2024-02-08T14:12:17Z</time>
      </trkpt>
      <trkpt lat="42.84667298" lon="13.61060972">
        <ele>119.00000</ele>
        <time>2024-02-08T14:12:18Z</time>
      </trkpt>
      <trkpt lat="42.84665102" lon="13.61076118">
        <ele>119.00000</ele>
        <time>2024-02-08T14:12:19Z</time>
      </trkpt>
      <trkpt lat="42.84662889" lon="13.61088615">
        <ele>118.00000</ele>
        <time>2024-02-08T14:12:20Z</time>
      </trkpt>
      <trkpt lat="42.84661103" lon="13.61098498">
        <ele>118.00000</ele>
        <time>2024-02-08T14:12:21Z</time>
      </trkpt>
      <trkpt lat="42.84658983" lon="13.61110735">
        <ele>118.00000</ele>
        <time>2024-02-08T14:12:22Z</time>
      </trkpt>
      <trkpt lat="42.84657021" lon="13.61123124">
        <ele>118.00000</ele>
        <time>2024-02-08T14:12:23Z</time>
      </trkpt>
      <trkpt lat="42.84655110" lon="13.61135520">
        <ele>118.00000</ele>
        <time>2024-02-08T14:12:24Z</time>
      </trkpt>
      <trkpt lat="42.84652571" lon="13.61150331">
        <ele>119.00000</ele>
        <time>2024-02-08T14:12:25Z</time>
      </trkpt>
      <trkpt lat="42.84650467" lon="13.61162636">
        <ele>119.00000</ele>
        <time>2024-02-08T14:12:26Z</time>
      </trkpt>
      <trkpt lat="42.84648866" lon="13.61172208">
        <ele>119.00000</ele>
        <time>2024-02-08T14:12:27Z</time>
      </trkpt>
      <trkpt lat="42.84647081" lon="13.61184370">
        <ele>119.00000</ele>
        <time>2024-02-08T14:12:28Z</time>
      </trkpt>
      <trkpt lat="42.84644985" lon="13.61199022">
        <ele>119.00000</ele>
        <time>2024-02-08T14:12:29Z</time>
      </trkpt>
      <trkpt lat="42.84643527" lon="13.61208711">
        <ele>120.00000</ele>
        <time>2024-02-08T14:12:30Z</time>
      </trkpt>
      <trkpt lat="42.84641758" lon="13.61221033">
        <ele>120.00000</ele>
        <time>2024-02-08T14:12:31Z</time>
      </trkpt>
      <trkpt lat="42.84639922" lon="13.61233094">
        <ele>120.00000</ele>
        <time>2024-02-08T14:12:32Z</time>
      </trkpt>
      <trkpt lat="42.84638095" lon="13.61245198">
        <ele>121.00000</ele>
        <time>2024-02-08T14:12:33Z</time>
      </trkpt>
      <trkpt lat="42.84635363" lon="13.61259321">
        <ele>121.00000</ele>
        <time>2024-02-08T14:12:34Z</time>
      </trkpt>
      <trkpt lat="42.84633334" lon="13.61270922">
        <ele>121.00000</ele>
        <time>2024-02-08T14:12:35Z</time>
      </trkpt>
      <trkpt lat="42.84631842" lon="13.61280117">
        <ele>121.00000</ele>
        <time>2024-02-08T14:12:36Z</time>
      </trkpt>
      <trkpt lat="42.84629847" lon="13.61291985">
        <ele>121.00000</ele>
        <time>2024-02-08T14:12:37Z</time>
      </trkpt>
      <trkpt lat="42.84627819" lon="13.61303980">
        <ele>121.00000</ele>
        <time>2024-02-08T14:12:38Z</time>
      </trkpt>
      <trkpt lat="42.84625397" lon="13.61318573">
        <ele>120.00000</ele>
        <time>2024-02-08T14:12:39Z</time>
      </trkpt>
      <trkpt lat="42.84623276" lon="13.61330752">
        <ele>120.00000</ele>
        <time>2024-02-08T14:12:40Z</time>
      </trkpt>
      <trkpt lat="42.84621625" lon="13.61340433">
        <ele>119.00000</ele>
        <time>2024-02-08T14:12:41Z</time>
      </trkpt>
      <trkpt lat="42.84619404" lon="13.61352545">
        <ele>119.00000</ele>
        <time>2024-02-08T14:12:42Z</time>
      </trkpt>
      <trkpt lat="42.84616797" lon="13.61364556">
        <ele>119.00000</ele>
        <time>2024-02-08T14:12:43Z</time>
      </trkpt>
      <trkpt lat="42.84613016" lon="13.61378654">
        <ele>118.00000</ele>
        <time>2024-02-08T14:12:44Z</time>
      </trkpt>
      <trkpt lat="42.84610494" lon="13.61387933">
        <ele>118.00000</ele>
        <time>2024-02-08T14:12:45Z</time>
      </trkpt>
      <trkpt lat="42.84606621" lon="13.61401579">
        <ele>117.00000</ele>
        <time>2024-02-08T14:12:46Z</time>
      </trkpt>
      <trkpt lat="42.84603847" lon="13.61410640">
        <ele>117.00000</ele>
        <time>2024-02-08T14:12:47Z</time>
      </trkpt>
      <trkpt lat="42.84600050" lon="13.61421796">
        <ele>116.00000</ele>
        <time>2024-02-08T14:12:48Z</time>
      </trkpt>
      <trkpt lat="42.84595859" lon="13.61434905">
        <ele>116.00000</ele>
        <time>2024-02-08T14:12:49Z</time>
      </trkpt>
      <trkpt lat="42.84591710" lon="13.61445584">
        <ele>116.00000</ele>
        <time>2024-02-08T14:12:50Z</time>
      </trkpt>
      <trkpt lat="42.84588047" lon="13.61453874">
        <ele>116.00000</ele>
        <time>2024-02-08T14:12:51Z</time>
      </trkpt>
      <trkpt lat="42.84583780" lon="13.61464527">
        <ele>116.00000</ele>
        <time>2024-02-08T14:12:52Z</time>
      </trkpt>
      <trkpt lat="42.84578961" lon="13.61474719">
        <ele>117.00000</ele>
        <time>2024-02-08T14:12:53Z</time>
      </trkpt>
      <trkpt lat="42.84572934" lon="13.61487108">
        <ele>117.00000</ele>
        <time>2024-02-08T14:12:54Z</time>
      </trkpt>
      <trkpt lat="42.84568349" lon="13.61497770">
        <ele>117.00000</ele>
        <time>2024-02-08T14:12:55Z</time>
      </trkpt>
      <trkpt lat="42.84564502" lon="13.61506361">
        <ele>117.00000</ele>
        <time>2024-02-08T14:12:56Z</time>
      </trkpt>
      <trkpt lat="42.84559548" lon="13.61516696">
        <ele>117.00000</ele>
        <time>2024-02-08T14:12:57Z</time>
      </trkpt>
      <trkpt lat="42.84554494" lon="13.61526972">
        <ele>117.00000</ele>
        <time>2024-02-08T14:12:58Z</time>
      </trkpt>
      <trkpt lat="42.84548660" lon="13.61539201">
        <ele>117.00000</ele>
        <time>2024-02-08T14:12:59Z</time>
      </trkpt>
      <trkpt lat="42.84544955" lon="13.61547399">
        <ele>117.00000</ele>
        <time>2024-02-08T14:13:00Z</time>
      </trkpt>
      <trkpt lat="42.84540572" lon="13.61558027">
        <ele>117.00000</ele>
        <time>2024-02-08T14:13:01Z</time>
      </trkpt>
      <trkpt lat="42.84535987" lon="13.61568513">
        <ele>117.00000</ele>
        <time>2024-02-08T14:13:02Z</time>
      </trkpt>
      <trkpt lat="42.84530933" lon="13.61578554">
        <ele>117.00000</ele>
        <time>2024-02-08T14:13:03Z</time>
      </trkpt>
      <trkpt lat="42.84526146" lon="13.61588621">
        <ele>117.00000</ele>
        <time>2024-02-08T14:13:04Z</time>
      </trkpt>
      <trkpt lat="42.84520690" lon="13.61600833">
        <ele>117.00000</ele>
        <time>2024-02-08T14:13:05Z</time>
      </trkpt>
      <trkpt lat="42.84515518" lon="13.61610774">
        <ele>118.00000</ele>
        <time>2024-02-08T14:13:06Z</time>
      </trkpt>
      <trkpt lat="42.84511403" lon="13.61618720">
        <ele>118.00000</ele>
        <time>2024-02-08T14:13:07Z</time>
      </trkpt>
      <trkpt lat="42.84505560" lon="13.61630120">
        <ele>118.00000</ele>
        <time>2024-02-08T14:13:08Z</time>
      </trkpt>
      <trkpt lat="42.84500448" lon="13.61639793">
        <ele>118.00000</ele>
        <time>2024-02-08T14:13:09Z</time>
      </trkpt>
      <trkpt lat="42.84495385" lon="13.61649507">
        <ele>118.00000</ele>
        <time>2024-02-08T14:13:10Z</time>
      </trkpt>
      <trkpt lat="42.84490213" lon="13.61659498">
        <ele>118.00000</ele>
        <time>2024-02-08T14:13:11Z</time>
      </trkpt>
      <trkpt lat="42.84486366" lon="13.61667805">
        <ele>118.00000</ele>
        <time>2024-02-08T14:13:12Z</time>
      </trkpt>
      <trkpt lat="42.84481354" lon="13.61677595">
        <ele>118.00000</ele>
        <time>2024-02-08T14:13:13Z</time>
      </trkpt>
      <trkpt lat="42.84474623" lon="13.61688449">
        <ele>118.00000</ele>
        <time>2024-02-08T14:13:14Z</time>
      </trkpt>
      <trkpt lat="42.84469552" lon="13.61695163">
        <ele>118.00000</ele>
        <time>2024-02-08T14:13:15Z</time>
      </trkpt>
      <trkpt lat="42.84461690" lon="13.61704794">
        <ele>118.00000</ele>
        <time>2024-02-08T14:13:16Z</time>
      </trkpt>
      <trkpt lat="42.84455839" lon="13.61710812">
        <ele>119.00000</ele>
        <time>2024-02-08T14:13:17Z</time>
      </trkpt>
      <trkpt lat="42.84449427" lon="13.61718725">
        <ele>120.00000</ele>
        <time>2024-02-08T14:13:18Z</time>
      </trkpt>
      <trkpt lat="42.84443191" lon="13.61729705">
        <ele>120.00000</ele>
        <time>2024-02-08T14:13:19Z</time>
      </trkpt>
      <trkpt lat="42.84440324" lon="13.61740082">
        <ele>120.00000</ele>
        <time>2024-02-08T14:13:20Z</time>
      </trkpt>
      <trkpt lat="42.84439486" lon="13.61748975">
        <ele>120.00000</ele>
        <time>2024-02-08T14:13:21Z</time>
      </trkpt>
      <trkpt lat="42.84439343" lon="13.61760475">
        <ele>119.00000</ele>
        <time>2024-02-08T14:13:22Z</time>
      </trkpt>
      <trkpt lat="42.84439813" lon="13.61772009">
        <ele>118.00000</ele>
        <time>2024-02-08T14:13:23Z</time>
      </trkpt>
      <trkpt lat="42.84440576" lon="13.61783852">
        <ele>117.00000</ele>
        <time>2024-02-08T14:13:24Z</time>
      </trkpt>
      <trkpt lat="42.84440861" lon="13.61795931">
        <ele>116.00000</ele>
        <time>2024-02-08T14:13:25Z</time>
      </trkpt>
      <trkpt lat="42.84440291" lon="13.61808252">
        <ele>114.00000</ele>
        <time>2024-02-08T14:13:26Z</time>
      </trkpt>
      <trkpt lat="42.84439167" lon="13.61820649">
        <ele>114.00000</ele>
        <time>2024-02-08T14:13:27Z</time>
      </trkpt>
      <trkpt lat="42.84437650" lon="13.61833088">
        <ele>113.00000</ele>
        <time>2024-02-08T14:13:28Z</time>
      </trkpt>
      <trkpt lat="42.84436024" lon="13.61845619">
        <ele>113.00000</ele>
        <time>2024-02-08T14:13:29Z</time>
      </trkpt>
      <trkpt lat="42.84434465" lon="13.61858242">
        <ele>113.00000</ele>
        <time>2024-02-08T14:13:30Z</time>
      </trkpt>
      <trkpt lat="42.84432998" lon="13.61870915">
        <ele>113.00000</ele>
        <time>2024-02-08T14:13:31Z</time>
      </trkpt>
      <trkpt lat="42.84431230" lon="13.61883756">
        <ele>114.00000</ele>
        <time>2024-02-08T14:13:32Z</time>
      </trkpt>
      <trkpt lat="42.84429193" lon="13.61896706">
        <ele>115.00000</ele>
        <time>2024-02-08T14:13:33Z</time>
      </trkpt>
      <trkpt lat="42.84427374" lon="13.61909841">
        <ele>115.00000</ele>
        <time>2024-02-08T14:13:34Z</time>
      </trkpt>
      <trkpt lat="42.84425572" lon="13.61923302">
        <ele>116.00000</ele>
        <time>2024-02-08T14:13:35Z</time>
      </trkpt>
      <trkpt lat="42.84423108" lon="13.61937132">
        <ele>116.00000</ele>
        <time>2024-02-08T14:13:36Z</time>
      </trkpt>
      <trkpt lat="42.84420635" lon="13.61951373">
        <ele>117.00000</ele>
        <time>2024-02-08T14:13:37Z</time>
      </trkpt>
      <trkpt lat="42.84417903" lon="13.61965321">
        <ele>117.00000</ele>
        <time>2024-02-08T14:13:38Z</time>
      </trkpt>
      <trkpt lat="42.84415346" lon="13.61978983">
        <ele>117.00000</ele>
        <time>2024-02-08T14:13:39Z</time>
      </trkpt>
      <trkpt lat="42.84412697" lon="13.61992453">
        <ele>117.00000</ele>
        <time>2024-02-08T14:13:40Z</time>
      </trkpt>
      <trkpt lat="42.84409940" lon="13.62005596">
        <ele>117.00000</ele>
        <time>2024-02-08T14:13:41Z</time>
      </trkpt>
      <trkpt lat="42.84406377" lon="13.62021203">
        <ele>117.00000</ele>
        <time>2024-02-08T14:13:42Z</time>
      </trkpt>
      <trkpt lat="42.84403678" lon="13.62031563">
        <ele>118.00000</ele>
        <time>2024-02-08T14:13:43Z</time>
      </trkpt>
      <trkpt lat="42.84399949" lon="13.62044194">
        <ele>118.00000</ele>
        <time>2024-02-08T14:13:44Z</time>
      </trkpt>
      <trkpt lat="42.84396093" lon="13.62057002">
        <ele>118.00000</ele>
        <time>2024-02-08T14:13:45Z</time>
      </trkpt>
      <trkpt lat="42.84391961" lon="13.62069650">
        <ele>119.00000</ele>
        <time>2024-02-08T14:13:46Z</time>
      </trkpt>
      <trkpt lat="42.84388214" lon="13.62081888">
        <ele>120.00000</ele>
        <time>2024-02-08T14:13:47Z</time>
      </trkpt>
      <trkpt lat="42.84384568" lon="13.62093656">
        <ele>121.00000</ele>
        <time>2024-02-08T14:13:48Z</time>
      </trkpt>
      <trkpt lat="42.84380804" lon="13.62104971">
        <ele>122.00000</ele>
        <time>2024-02-08T14:13:49Z</time>
      </trkpt>
      <trkpt lat="42.84377728" lon="13.62116664">
        <ele>122.00000</ele>
        <time>2024-02-08T14:13:50Z</time>
      </trkpt>
      <trkpt lat="42.84374803" lon="13.62128206">
        <ele>123.00000</ele>
        <time>2024-02-08T14:13:51Z</time>
      </trkpt>
      <trkpt lat="42.84371928" lon="13.62139136">
        <ele>123.00000</ele>
        <time>2024-02-08T14:13:52Z</time>
      </trkpt>
      <trkpt lat="42.84368986" lon="13.62149169">
        <ele>122.00000</ele>
        <time>2024-02-08T14:13:53Z</time>
      </trkpt>
      <trkpt lat="42.84365876" lon="13.62158305">
        <ele>122.00000</ele>
        <time>2024-02-08T14:13:54Z</time>
      </trkpt>
      <trkpt lat="42.84362968" lon="13.62167182">
        <ele>121.00000</ele>
        <time>2024-02-08T14:13:55Z</time>
      </trkpt>
      <trkpt lat="42.84360185" lon="13.62175832">
        <ele>121.00000</ele>
        <time>2024-02-08T14:13:56Z</time>
      </trkpt>
      <trkpt lat="42.84357343" lon="13.62184365">
        <ele>121.00000</ele>
        <time>2024-02-08T14:13:57Z</time>
      </trkpt>
      <trkpt lat="42.84354519" lon="13.62193149">
        <ele>120.00000</ele>
        <time>2024-02-08T14:13:58Z</time>
      </trkpt>
      <trkpt lat="42.84351593" lon="13.62202612">
        <ele>120.00000</ele>
        <time>2024-02-08T14:13:59Z</time>
      </trkpt>
      <trkpt lat="42.84348903" lon="13.62213073">
        <ele>120.00000</ele>
        <time>2024-02-08T14:14:00Z</time>
      </trkpt>
      <trkpt lat="42.84346614" lon="13.62224363">
        <ele>120.00000</ele>
        <time>2024-02-08T14:14:01Z</time>
      </trkpt>
      <trkpt lat="42.84344871" lon="13.62236056">
        <ele>121.00000</ele>
        <time>2024-02-08T14:14:02Z</time>
      </trkpt>
      <trkpt lat="42.84343153" lon="13.62247824">
        <ele>121.00000</ele>
        <time>2024-02-08T14:14:03Z</time>
      </trkpt>
      <trkpt lat="42.84340898" lon="13.62259299">
        <ele>122.00000</ele>
        <time>2024-02-08T14:14:04Z</time>
      </trkpt>
      <trkpt lat="42.84337453" lon="13.62269877">
        <ele>122.00000</ele>
        <time>2024-02-08T14:14:05Z</time>
      </trkpt>
      <trkpt lat="42.84333706" lon="13.62279600">
        <ele>122.00000</ele>
        <time>2024-02-08T14:14:06Z</time>
      </trkpt>
      <trkpt lat="42.84331041" lon="13.62289583">
        <ele>123.00000</ele>
        <time>2024-02-08T14:14:07Z</time>
      </trkpt>
      <trkpt lat="42.84330789" lon="13.62299029">
        <ele>123.00000</ele>
        <time>2024-02-08T14:14:08Z</time>
      </trkpt>
      <trkpt lat="42.84334125" lon="13.62306816">
        <ele>122.00000</ele>
        <time>2024-02-08T14:14:09Z</time>
      </trkpt>
      <trkpt lat="42.84339842" lon="13.62312214">
        <ele>121.00000</ele>
        <time>2024-02-08T14:14:10Z</time>
      </trkpt>
      <trkpt lat="42.84346715" lon="13.62313798">
        <ele>121.00000</ele>
        <time>2024-02-08T14:14:11Z</time>
      </trkpt>
      <trkpt lat="42.84352901" lon="13.62310655">
        <ele>120.00000</ele>
        <time>2024-02-08T14:14:12Z</time>
      </trkpt>
      <trkpt lat="42.84358978" lon="13.62305249">
        <ele>120.00000</ele>
        <time>2024-02-08T14:14:13Z</time>
      </trkpt>
      <trkpt lat="42.84365641" lon="13.62300127">
        <ele>119.00000</ele>
        <time>2024-02-08T14:14:14Z</time>
      </trkpt>
      <trkpt lat="42.84374769" lon="13.62297403">
        <ele>118.00000</ele>
        <time>2024-02-08T14:14:15Z</time>
      </trkpt>
      <trkpt lat="42.84381165" lon="13.62297722">
        <ele>117.00000</ele>
        <time>2024-02-08T14:14:16Z</time>
      </trkpt>
      <trkpt lat="42.84389169" lon="13.62298945">
        <ele>116.00000</ele>
        <time>2024-02-08T14:14:17Z</time>
      </trkpt>
      <trkpt lat="42.84396478" lon="13.62303187">
        <ele>116.00000</ele>
        <time>2024-02-08T14:14:18Z</time>
      </trkpt>
      <trkpt lat="42.84402128" lon="13.62312817">
        <ele>116.00000</ele>
        <time>2024-02-08T14:14:19Z</time>
      </trkpt>
      <trkpt lat="42.84402882" lon="13.62321870">
        <ele>116.00000</ele>
        <time>2024-02-08T14:14:20Z</time>
      </trkpt>
      <trkpt lat="42.84402186" lon="13.62333873">
        <ele>116.00000</ele>
        <time>2024-02-08T14:14:21Z</time>
      </trkpt>
      <trkpt lat="42.84400192" lon="13.62345607">
        <ele>116.00000</ele>
        <time>2024-02-08T14:14:22Z</time>
      </trkpt>
      <trkpt lat="42.84398381" lon="13.62357451">
        <ele>116.00000</ele>
        <time>2024-02-08T14:14:23Z</time>
      </trkpt>
      <trkpt lat="42.84397400" lon="13.62368993">
        <ele>116.00000</ele>
        <time>2024-02-08T14:14:24Z</time>
      </trkpt>
      <trkpt lat="42.84395934" lon="13.62380946">
        <ele>115.00000</ele>
        <time>2024-02-08T14:14:25Z</time>
      </trkpt>
      <trkpt lat="42.84394492" lon="13.62392948">
        <ele>114.00000</ele>
        <time>2024-02-08T14:14:26Z</time>
      </trkpt>
      <trkpt lat="42.84393805" lon="13.62404851">
        <ele>113.00000</ele>
        <time>2024-02-08T14:14:27Z</time>
      </trkpt>
      <trkpt lat="42.84393042" lon="13.62416979">
        <ele>113.00000</ele>
        <time>2024-02-08T14:14:28Z</time>
      </trkpt>
      <trkpt lat="42.84392531" lon="13.62429695">
        <ele>113.00000</ele>
        <time>2024-02-08T14:14:29Z</time>
      </trkpt>
      <trkpt lat="42.84392095" lon="13.62445067">
        <ele>113.00000</ele>
        <time>2024-02-08T14:14:30Z</time>
      </trkpt>
      <trkpt lat="42.84392120" lon="13.62455561">
        <ele>113.00000</ele>
        <time>2024-02-08T14:14:31Z</time>
      </trkpt>
      <trkpt lat="42.84392229" lon="13.62468595">
        <ele>113.00000</ele>
        <time>2024-02-08T14:14:32Z</time>
      </trkpt>
      <trkpt lat="42.84392430" lon="13.62481277">
        <ele>112.00000</ele>
        <time>2024-02-08T14:14:33Z</time>
      </trkpt>
      <trkpt lat="42.84393008" lon="13.62497035">
        <ele>112.00000</ele>
        <time>2024-02-08T14:14:34Z</time>
      </trkpt>
      <trkpt lat="42.84393578" lon="13.62510572">
        <ele>112.00000</ele>
        <time>2024-02-08T14:14:35Z</time>
      </trkpt>
      <trkpt lat="42.84394425" lon="13.62524385">
        <ele>112.00000</ele>
        <time>2024-02-08T14:14:36Z</time>
      </trkpt>
      <trkpt lat="42.84395464" lon="13.62538450">
        <ele>111.00000</ele>
        <time>2024-02-08T14:14:37Z</time>
      </trkpt>
      <trkpt lat="42.84396411" lon="13.62552599">
        <ele>111.00000</ele>
        <time>2024-02-08T14:14:38Z</time>
      </trkpt>
      <trkpt lat="42.84397409" lon="13.62566764">
        <ele>111.00000</ele>
        <time>2024-02-08T14:14:39Z</time>
      </trkpt>
      <trkpt lat="42.84398197" lon="13.62581005">
        <ele>110.00000</ele>
        <time>2024-02-08T14:14:40Z</time>
      </trkpt>
      <trkpt lat="42.84398918" lon="13.62595070">
        <ele>110.00000</ele>
        <time>2024-02-08T14:14:41Z</time>
      </trkpt>
      <trkpt lat="42.84399689" lon="13.62609143">
        <ele>110.00000</ele>
        <time>2024-02-08T14:14:42Z</time>
      </trkpt>
      <trkpt lat="42.84400426" lon="13.62623023">
        <ele>110.00000</ele>
        <time>2024-02-08T14:14:43Z</time>
      </trkpt>
      <trkpt lat="42.84401130" lon="13.62637029">
        <ele>110.00000</ele>
        <time>2024-02-08T14:14:44Z</time>
      </trkpt>
      <trkpt lat="42.84402078" lon="13.62651513">
        <ele>110.00000</ele>
        <time>2024-02-08T14:14:45Z</time>
      </trkpt>
      <trkpt lat="42.84402849" lon="13.62665863">
        <ele>110.00000</ele>
        <time>2024-02-08T14:14:46Z</time>
      </trkpt>
      <trkpt lat="42.84403435" lon="13.62679693">
        <ele>110.00000</ele>
        <time>2024-02-08T14:14:47Z</time>
      </trkpt>
      <trkpt lat="42.84404248" lon="13.62693306">
        <ele>111.00000</ele>
        <time>2024-02-08T14:14:48Z</time>
      </trkpt>
      <trkpt lat="42.84405229" lon="13.62706876">
        <ele>111.00000</ele>
        <time>2024-02-08T14:14:49Z</time>
      </trkpt>
      <trkpt lat="42.84406201" lon="13.62720337">
        <ele>111.00000</ele>
        <time>2024-02-08T14:14:50Z</time>
      </trkpt>
      <trkpt lat="42.84407258" lon="13.62733799">
        <ele>112.00000</ele>
        <time>2024-02-08T14:14:51Z</time>
      </trkpt>
      <trkpt lat="42.84408213" lon="13.62746916">
        <ele>112.00000</ele>
        <time>2024-02-08T14:14:52Z</time>
      </trkpt>
      <trkpt lat="42.84409118" lon="13.62760134">
        <ele>111.00000</ele>
        <time>2024-02-08T14:14:53Z</time>
      </trkpt>
      <trkpt lat="42.84410174" lon="13.62773763">
        <ele>111.00000</ele>
        <time>2024-02-08T14:14:54Z</time>
      </trkpt>
      <trkpt lat="42.84411214" lon="13.62787434">
        <ele>111.00000</ele>
        <time>2024-02-08T14:14:55Z</time>
      </trkpt>
      <trkpt lat="42.84411985" lon="13.62801147">
        <ele>110.00000</ele>
        <time>2024-02-08T14:14:56Z</time>
      </trkpt>
      <trkpt lat="42.84412940" lon="13.62814852">
        <ele>110.00000</ele>
        <time>2024-02-08T14:14:57Z</time>
      </trkpt>
      <trkpt lat="42.84413938" lon="13.62828430">
        <ele>111.00000</ele>
        <time>2024-02-08T14:14:58Z</time>
      </trkpt>
      <trkpt lat="42.84415162" lon="13.62842068">
        <ele>112.00000</ele>
        <time>2024-02-08T14:14:59Z</time>
      </trkpt>
      <trkpt lat="42.84416494" lon="13.62855797">
        <ele>112.00000</ele>
        <time>2024-02-08T14:15:00Z</time>
      </trkpt>
      <trkpt lat="42.84418020" lon="13.62869669">
        <ele>112.00000</ele>
        <time>2024-02-08T14:15:01Z</time>
      </trkpt>
      <trkpt lat="42.84419780" lon="13.62883659">
        <ele>112.00000</ele>
        <time>2024-02-08T14:15:02Z</time>
      </trkpt>
      <trkpt lat="42.84421490" lon="13.62897464">
        <ele>111.00000</ele>
        <time>2024-02-08T14:15:03Z</time>
      </trkpt>
      <trkpt lat="42.84423359" lon="13.62911352">
        <ele>110.00000</ele>
        <time>2024-02-08T14:15:04Z</time>
      </trkpt>
      <trkpt lat="42.84425480" lon="13.62925392">
        <ele>108.00000</ele>
        <time>2024-02-08T14:15:05Z</time>
      </trkpt>
      <trkpt lat="42.84427785" lon="13.62939717">
        <ele>107.00000</ele>
        <time>2024-02-08T14:15:06Z</time>
      </trkpt>
      <trkpt lat="42.84430023" lon="13.62954293">
        <ele>106.00000</ele>
        <time>2024-02-08T14:15:07Z</time>
      </trkpt>
      <trkpt lat="42.84432236" lon="13.62968777">
        <ele>107.00000</ele>
        <time>2024-02-08T14:15:08Z</time>
      </trkpt>
      <trkpt lat="42.84434641" lon="13.62983093">
        <ele>107.00000</ele>
        <time>2024-02-08T14:15:09Z</time>
      </trkpt>
      <trkpt lat="42.84437265" lon="13.62997460">
        <ele>108.00000</ele>
        <time>2024-02-08T14:15:10Z</time>
      </trkpt>
      <trkpt lat="42.84439880" lon="13.63011692">
        <ele>108.00000</ele>
        <time>2024-02-08T14:15:11Z</time>
      </trkpt>
      <trkpt lat="42.84442562" lon="13.63025623">
        <ele>108.00000</ele>
        <time>2024-02-08T14:15:12Z</time>
      </trkpt>
      <trkpt lat="42.84445102" lon="13.63039772">
        <ele>109.00000</ele>
        <time>2024-02-08T14:15:13Z</time>
      </trkpt>
      <trkpt lat="42.84447407" lon="13.63053954">
        <ele>109.00000</ele>
        <time>2024-02-08T14:15:14Z</time>
      </trkpt>
      <trkpt lat="42.84449888" lon="13.63068102">
        <ele>108.00000</ele>
        <time>2024-02-08T14:15:15Z</time>
      </trkpt>
      <trkpt lat="42.84453148" lon="13.63084799">
        <ele>108.00000</ele>
        <time>2024-02-08T14:15:16Z</time>
      </trkpt>
      <trkpt lat="42.84455277" lon="13.63096006">
        <ele>108.00000</ele>
        <time>2024-02-08T14:15:17Z</time>
      </trkpt>
      <trkpt lat="42.84458111" lon="13.63110221">
        <ele>108.00000</ele>
        <time>2024-02-08T14:15:18Z</time>
      </trkpt>
      <trkpt lat="42.84460826" lon="13.63124278">
        <ele>109.00000</ele>
        <time>2024-02-08T14:15:19Z</time>
      </trkpt>
      <trkpt lat="42.84463425" lon="13.63138502">
        <ele>109.00000</ele>
        <time>2024-02-08T14:15:20Z</time>
      </trkpt>
      <trkpt lat="42.84465981" lon="13.63152969">
        <ele>109.00000</ele>
        <time>2024-02-08T14:15:21Z</time>
      </trkpt>
      <trkpt lat="42.84468487" lon="13.63167135">
        <ele>109.00000</ele>
        <time>2024-02-08T14:15:22Z</time>
      </trkpt>
      <trkpt lat="42.84470885" lon="13.63181090">
        <ele>109.00000</ele>
        <time>2024-02-08T14:15:23Z</time>
      </trkpt>
      <trkpt lat="42.84473424" lon="13.63195247">
        <ele>109.00000</ele>
        <time>2024-02-08T14:15:24Z</time>
      </trkpt>
      <trkpt lat="42.84476031" lon="13.63209270">
        <ele>109.00000</ele>
        <time>2024-02-08T14:15:25Z</time>
      </trkpt>
      <trkpt lat="42.84478562" lon="13.63223277">
        <ele>108.00000</ele>
        <time>2024-02-08T14:15:26Z</time>
      </trkpt>
      <trkpt lat="42.84480867" lon="13.63237224">
        <ele>107.00000</ele>
        <time>2024-02-08T14:15:27Z</time>
      </trkpt>
      <trkpt lat="42.84483298" lon="13.63251079">
        <ele>107.00000</ele>
        <time>2024-02-08T14:15:28Z</time>
      </trkpt>
      <trkpt lat="42.84485779" lon="13.63265102">
        <ele>106.00000</ele>
        <time>2024-02-08T14:15:29Z</time>
      </trkpt>
      <trkpt lat="42.84488118" lon="13.63279134">
        <ele>106.00000</ele>
        <time>2024-02-08T14:15:30Z</time>
      </trkpt>
      <trkpt lat="42.84490398" lon="13.63293006">
        <ele>105.00000</ele>
        <time>2024-02-08T14:15:31Z</time>
      </trkpt>
      <trkpt lat="42.84492895" lon="13.63306710">
        <ele>105.00000</ele>
        <time>2024-02-08T14:15:32Z</time>
      </trkpt>
      <trkpt lat="42.84495326" lon="13.63320305">
        <ele>105.00000</ele>
        <time>2024-02-08T14:15:33Z</time>
      </trkpt>
      <trkpt lat="42.84497656" lon="13.63333725">
        <ele>105.00000</ele>
        <time>2024-02-08T14:15:34Z</time>
      </trkpt>
      <trkpt lat="42.84499819" lon="13.63346901">
        <ele>105.00000</ele>
        <time>2024-02-08T14:15:35Z</time>
      </trkpt>
      <trkpt lat="42.84501755" lon="13.63360145">
        <ele>105.00000</ele>
        <time>2024-02-08T14:15:36Z</time>
      </trkpt>
      <trkpt lat="42.84503716" lon="13.63373396">
        <ele>106.00000</ele>
        <time>2024-02-08T14:15:37Z</time>
      </trkpt>
      <trkpt lat="42.84505527" lon="13.63386875">
        <ele>106.00000</ele>
        <time>2024-02-08T14:15:38Z</time>
      </trkpt>
      <trkpt lat="42.84506885" lon="13.63400185">
        <ele>106.00000</ele>
        <time>2024-02-08T14:15:39Z</time>
      </trkpt>
      <trkpt lat="42.84508100" lon="13.63413219">
        <ele>107.00000</ele>
        <time>2024-02-08T14:15:40Z</time>
      </trkpt>
      <trkpt lat="42.84509215" lon="13.63426286">
        <ele>107.00000</ele>
        <time>2024-02-08T14:15:41Z</time>
      </trkpt>
      <trkpt lat="42.84510179" lon="13.63439136">
        <ele>108.00000</ele>
        <time>2024-02-08T14:15:42Z</time>
      </trkpt>
      <trkpt lat="42.84511067" lon="13.63452010">
        <ele>108.00000</ele>
        <time>2024-02-08T14:15:43Z</time>
      </trkpt>
      <trkpt lat="42.84511805" lon="13.63464893">
        <ele>108.00000</ele>
        <time>2024-02-08T14:15:44Z</time>
      </trkpt>
      <trkpt lat="42.84512300" lon="13.63477215">
        <ele>107.00000</ele>
        <time>2024-02-08T14:15:45Z</time>
      </trkpt>
      <trkpt lat="42.84512526" lon="13.63489955">
        <ele>107.00000</ele>
        <time>2024-02-08T14:15:46Z</time>
      </trkpt>
      <trkpt lat="42.84512517" lon="13.63502997">
        <ele>107.00000</ele>
        <time>2024-02-08T14:15:47Z</time>
      </trkpt>
      <trkpt lat="42.84512509" lon="13.63515822">
        <ele>107.00000</ele>
        <time>2024-02-08T14:15:48Z</time>
      </trkpt>
      <trkpt lat="42.84512258" lon="13.63528026">
        <ele>107.00000</ele>
        <time>2024-02-08T14:15:49Z</time>
      </trkpt>
      <trkpt lat="42.84511663" lon="13.63540280">
        <ele>107.00000</ele>
        <time>2024-02-08T14:15:50Z</time>
      </trkpt>
      <trkpt lat="42.84511302" lon="13.63552853">
        <ele>107.00000</ele>
        <time>2024-02-08T14:15:51Z</time>
      </trkpt>
      <trkpt lat="42.84510799" lon="13.63565116">
        <ele>107.00000</ele>
        <time>2024-02-08T14:15:52Z</time>
      </trkpt>
      <trkpt lat="42.84509936" lon="13.63576976">
        <ele>107.00000</ele>
        <time>2024-02-08T14:15:53Z</time>
      </trkpt>
      <trkpt lat="42.84509156" lon="13.63589121">
        <ele>107.00000</ele>
        <time>2024-02-08T14:15:54Z</time>
      </trkpt>
      <trkpt lat="42.84508595" lon="13.63601250">
        <ele>107.00000</ele>
        <time>2024-02-08T14:15:55Z</time>
      </trkpt>
      <trkpt lat="42.84507631" lon="13.63612624">
        <ele>106.00000</ele>
        <time>2024-02-08T14:15:56Z</time>
      </trkpt>
      <trkpt lat="42.84507128" lon="13.63624200">
        <ele>106.00000</ele>
        <time>2024-02-08T14:15:57Z</time>
      </trkpt>
      <trkpt lat="42.84506608" lon="13.63635725">
        <ele>105.00000</ele>
        <time>2024-02-08T14:15:58Z</time>
      </trkpt>
      <trkpt lat="42.84505946" lon="13.63647443">
        <ele>105.00000</ele>
        <time>2024-02-08T14:15:59Z</time>
      </trkpt>
      <trkpt lat="42.84504982" lon="13.63658708">
        <ele>105.00000</ele>
        <time>2024-02-08T14:16:00Z</time>
      </trkpt>
      <trkpt lat="42.84504337" lon="13.63670099">
        <ele>104.00000</ele>
        <time>2024-02-08T14:16:01Z</time>
      </trkpt>
      <trkpt lat="42.84503784" lon="13.63681264">
        <ele>104.00000</ele>
        <time>2024-02-08T14:16:02Z</time>
      </trkpt>
      <trkpt lat="42.84503230" lon="13.63692487">
        <ele>104.00000</ele>
        <time>2024-02-08T14:16:03Z</time>
      </trkpt>
      <trkpt lat="42.84502702" lon="13.63703560">
        <ele>104.00000</ele>
        <time>2024-02-08T14:16:04Z</time>
      </trkpt>
      <trkpt lat="42.84501998" lon="13.63714557">
        <ele>104.00000</ele>
        <time>2024-02-08T14:16:05Z</time>
      </trkpt>
      <trkpt lat="42.84501135" lon="13.63725495">
        <ele>104.00000</ele>
        <time>2024-02-08T14:16:06Z</time>
      </trkpt>
      <trkpt lat="42.84500129" lon="13.63736685">
        <ele>104.00000</ele>
        <time>2024-02-08T14:16:07Z</time>
      </trkpt>
      <trkpt lat="42.84498763" lon="13.63747606">
        <ele>104.00000</ele>
        <time>2024-02-08T14:16:08Z</time>
      </trkpt>
      <trkpt lat="42.84498117" lon="13.63758570">
        <ele>104.00000</ele>
        <time>2024-02-08T14:16:09Z</time>
      </trkpt>
      <trkpt lat="42.84498126" lon="13.63769575">
        <ele>104.00000</ele>
        <time>2024-02-08T14:16:10Z</time>
      </trkpt>
      <trkpt lat="42.84497858" lon="13.63780447">
        <ele>104.00000</ele>
        <time>2024-02-08T14:16:11Z</time>
      </trkpt>
      <trkpt lat="42.84497346" lon="13.63791209">
        <ele>104.00000</ele>
        <time>2024-02-08T14:16:12Z</time>
      </trkpt>
      <trkpt lat="42.84496927" lon="13.63802231">
        <ele>104.00000</ele>
        <time>2024-02-08T14:16:13Z</time>
      </trkpt>
      <trkpt lat="42.84496433" lon="13.63813430">
        <ele>104.00000</ele>
        <time>2024-02-08T14:16:14Z</time>
      </trkpt>
      <trkpt lat="42.84496081" lon="13.63824997">
        <ele>104.00000</ele>
        <time>2024-02-08T14:16:15Z</time>
      </trkpt>
      <trkpt lat="42.84495737" lon="13.63836631">
        <ele>104.00000</ele>
        <time>2024-02-08T14:16:16Z</time>
      </trkpt>
      <trkpt lat="42.84495452" lon="13.63848323">
        <ele>104.00000</ele>
        <time>2024-02-08T14:16:17Z</time>
      </trkpt>
      <trkpt lat="42.84494949" lon="13.63859773">
        <ele>104.00000</ele>
        <time>2024-02-08T14:16:18Z</time>
      </trkpt>
      <trkpt lat="42.84494287" lon="13.63871189">
        <ele>104.00000</ele>
        <time>2024-02-08T14:16:19Z</time>
      </trkpt>
      <trkpt lat="42.84493616" lon="13.63882513">
        <ele>104.00000</ele>
        <time>2024-02-08T14:16:20Z</time>
      </trkpt>
      <trkpt lat="42.84493088" lon="13.63893921">
        <ele>104.00000</ele>
        <time>2024-02-08T14:16:21Z</time>
      </trkpt>
      <trkpt lat="42.84492585" lon="13.63905237">
        <ele>104.00000</ele>
        <time>2024-02-08T14:16:22Z</time>
      </trkpt>
      <trkpt lat="42.84492074" lon="13.63916301">
        <ele>104.00000</ele>
        <time>2024-02-08T14:16:23Z</time>
      </trkpt>
      <trkpt lat="42.84491630" lon="13.63927222">
        <ele>104.00000</ele>
        <time>2024-02-08T14:16:24Z</time>
      </trkpt>
      <trkpt lat="42.84491152" lon="13.63937540">
        <ele>104.00000</ele>
        <time>2024-02-08T14:16:25Z</time>
      </trkpt>
      <trkpt lat="42.84490616" lon="13.63947607">
        <ele>104.00000</ele>
        <time>2024-02-08T14:16:26Z</time>
      </trkpt>
      <trkpt lat="42.84489853" lon="13.63957322">
        <ele>105.00000</ele>
        <time>2024-02-08T14:16:27Z</time>
      </trkpt>
      <trkpt lat="42.84489182" lon="13.63967296">
        <ele>105.00000</ele>
        <time>2024-02-08T14:16:28Z</time>
      </trkpt>
      <trkpt lat="42.84488520" lon="13.63977430">
        <ele>105.00000</ele>
        <time>2024-02-08T14:16:29Z</time>
      </trkpt>
      <trkpt lat="42.84487674" lon="13.63987287">
        <ele>105.00000</ele>
        <time>2024-02-08T14:16:30Z</time>
      </trkpt>
      <trkpt lat="42.84487296" lon="13.63997370">
        <ele>105.00000</ele>
        <time>2024-02-08T14:16:31Z</time>
      </trkpt>
      <trkpt lat="42.84487154" lon="13.64007303">
        <ele>105.00000</ele>
        <time>2024-02-08T14:16:32Z</time>
      </trkpt>
      <trkpt lat="42.84486986" lon="13.64016682">
        <ele>105.00000</ele>
        <time>2024-02-08T14:16:33Z</time>
      </trkpt>
      <trkpt lat="42.84486860" lon="13.64025944">
        <ele>105.00000</ele>
        <time>2024-02-08T14:16:34Z</time>
      </trkpt>
      <trkpt lat="42.84486902" lon="13.64034938">
        <ele>105.00000</ele>
        <time>2024-02-08T14:16:35Z</time>
      </trkpt>
      <trkpt lat="42.84486995" lon="13.64043571">
        <ele>105.00000</ele>
        <time>2024-02-08T14:16:36Z</time>
      </trkpt>
      <trkpt lat="42.84487405" lon="13.64052062">
        <ele>105.00000</ele>
        <time>2024-02-08T14:16:37Z</time>
      </trkpt>
      <trkpt lat="42.84487615" lon="13.64060319">
        <ele>105.00000</ele>
        <time>2024-02-08T14:16:38Z</time>
      </trkpt>
      <trkpt lat="42.84487665" lon="13.64068516">
        <ele>105.00000</ele>
        <time>2024-02-08T14:16:39Z</time>
      </trkpt>
      <trkpt lat="42.84487900" lon="13.64076755">
        <ele>105.00000</ele>
        <time>2024-02-08T14:16:40Z</time>
      </trkpt>
      <trkpt lat="42.84488428" lon="13.64085070">
        <ele>105.00000</ele>
        <time>2024-02-08T14:16:41Z</time>
      </trkpt>
      <trkpt lat="42.84489182" lon="13.64093117">
        <ele>105.00000</ele>
        <time>2024-02-08T14:16:42Z</time>
      </trkpt>
      <trkpt lat="42.84489945" lon="13.64100895">
        <ele>105.00000</ele>
        <time>2024-02-08T14:16:43Z</time>
      </trkpt>
      <trkpt lat="42.84490884" lon="13.64108758">
        <ele>105.00000</ele>
        <time>2024-02-08T14:16:44Z</time>
      </trkpt>
      <trkpt lat="42.84491831" lon="13.64116687">
        <ele>105.00000</ele>
        <time>2024-02-08T14:16:45Z</time>
      </trkpt>
      <trkpt lat="42.84492585" lon="13.64124390">
        <ele>105.00000</ele>
        <time>2024-02-08T14:16:46Z</time>
      </trkpt>
      <trkpt lat="42.84493616" lon="13.64132001">
        <ele>105.00000</ele>
        <time>2024-02-08T14:16:47Z</time>
      </trkpt>
      <trkpt lat="42.84494371" lon="13.64139058">
        <ele>105.00000</ele>
        <time>2024-02-08T14:16:48Z</time>
      </trkpt>
      <trkpt lat="42.84494991" lon="13.64145990">
        <ele>106.00000</ele>
        <time>2024-02-08T14:16:49Z</time>
      </trkpt>
      <trkpt lat="42.84495695" lon="13.64152662">
        <ele>106.00000</ele>
        <time>2024-02-08T14:16:50Z</time>
      </trkpt>
      <trkpt lat="42.84496181" lon="13.64159133">
        <ele>106.00000</ele>
        <time>2024-02-08T14:16:51Z</time>
      </trkpt>
      <trkpt lat="42.84496835" lon="13.64165562">
        <ele>106.00000</ele>
        <time>2024-02-08T14:16:52Z</time>
      </trkpt>
      <trkpt lat="42.84497480" lon="13.64172267">
        <ele>106.00000</ele>
        <time>2024-02-08T14:16:53Z</time>
      </trkpt>
      <trkpt lat="42.84498662" lon="13.64178453">
        <ele>106.00000</ele>
        <time>2024-02-08T14:16:54Z</time>
      </trkpt>
      <trkpt lat="42.84500950" lon="13.64183926">
        <ele>107.00000</ele>
        <time>2024-02-08T14:16:55Z</time>
      </trkpt>
      <trkpt lat="42.84504647" lon="13.64187254">
        <ele>107.00000</ele>
        <time>2024-02-08T14:16:56Z</time>
      </trkpt>
      <trkpt lat="42.84509391" lon="13.64187355">
        <ele>107.00000</ele>
        <time>2024-02-08T14:16:57Z</time>
      </trkpt>
      <trkpt lat="42.84514060" lon="13.64186047">
        <ele>107.00000</ele>
        <time>2024-02-08T14:16:58Z</time>
      </trkpt>
      <trkpt lat="42.84517656" lon="13.64184153">
        <ele>107.00000</ele>
        <time>2024-02-08T14:16:59Z</time>
      </trkpt>
      <trkpt lat="42.84520187" lon="13.64183616">
        <ele>107.00000</ele>
        <time>2024-02-08T14:17:00Z</time>
      </trkpt>
      <trkpt lat="42.84521972" lon="13.64185066">
        <ele>107.00000</ele>
        <time>2024-02-08T14:17:01Z</time>
      </trkpt>
      <trkpt lat="42.84523925" lon="13.64186676">
        <ele>107.00000</ele>
        <time>2024-02-08T14:17:02Z</time>
      </trkpt>
      <trkpt lat="42.84526297" lon="13.64186776">
        <ele>107.00000</ele>
        <time>2024-02-08T14:17:03Z</time>
      </trkpt>
      <trkpt lat="42.84529005" lon="13.64186123">
        <ele>107.00000</ele>
        <time>2024-02-08T14:17:04Z</time>
      </trkpt>
      <trkpt lat="42.84532022" lon="13.64185393">
        <ele>107.00000</ele>
        <time>2024-02-08T14:17:05Z</time>
      </trkpt>
      <trkpt lat="42.84535191" lon="13.64184672">
        <ele>107.00000</ele>
        <time>2024-02-08T14:17:06Z</time>
      </trkpt>
      <trkpt lat="42.84538099" lon="13.64183491">
        <ele>107.00000</ele>
        <time>2024-02-08T14:17:07Z</time>
      </trkpt>
      <trkpt lat="42.84540781" lon="13.64182493">
        <ele>107.00000</ele>
        <time>2024-02-08T14:17:08Z</time>
      </trkpt>
      <trkpt lat="42.84543313" lon="13.64181378">
        <ele>106.00000</ele>
        <time>2024-02-08T14:17:09Z</time>
      </trkpt>
      <trkpt lat="42.84546020" lon="13.64180440">
        <ele>106.00000</ele>
        <time>2024-02-08T14:17:10Z</time>
      </trkpt>
      <trkpt lat="42.84548702" lon="13.64179559">
        <ele>106.00000</ele>
        <time>2024-02-08T14:17:11Z</time>
      </trkpt>
      <trkpt lat="42.84550781" lon="13.64178830">
        <ele>106.00000</ele>
        <time>2024-02-08T14:17:12Z</time>
      </trkpt>
      <trkpt lat="42.84553186" lon="13.64178621">
        <ele>106.00000</ele>
        <time>2024-02-08T14:17:13Z</time>
      </trkpt>
      <trkpt lat="42.84555919" lon="13.64177858">
        <ele>106.00000</ele>
        <time>2024-02-08T14:17:14Z</time>
      </trkpt>
      <trkpt lat="42.84558643" lon="13.64176517">
        <ele>106.00000</ele>
        <time>2024-02-08T14:17:15Z</time>
      </trkpt>
      <trkpt lat="42.84561409" lon="13.64175016">
        <ele>106.00000</ele>
        <time>2024-02-08T14:17:16Z</time>
      </trkpt>
      <trkpt lat="42.84563974" lon="13.64173466">
        <ele>105.00000</ele>
        <time>2024-02-08T14:17:17Z</time>
      </trkpt>
      <trkpt lat="42.84566606" lon="13.64172024">
        <ele>105.00000</ele>
        <time>2024-02-08T14:17:18Z</time>
      </trkpt>
      <trkpt lat="42.84568215" lon="13.64170758">
        <ele>105.00000</ele>
        <time>2024-02-08T14:17:19Z</time>
      </trkpt>
      <trkpt lat="42.84569489" lon="13.64170071">
        <ele>105.00000</ele>
        <time>2024-02-08T14:17:20Z</time>
      </trkpt>
      <trkpt lat="42.84571761" lon="13.64169945">
        <ele>105.00000</ele>
        <time>2024-02-08T14:17:21Z</time>
      </trkpt>
      <trkpt lat="42.84573789" lon="13.64170884">
        <ele>105.00000</ele>
        <time>2024-02-08T14:17:22Z</time>
      </trkpt>
      <trkpt lat="42.84574870" lon="13.64172544">
        <ele>105.00000</ele>
        <time>2024-02-08T14:17:23Z</time>
      </trkpt>
      <trkpt lat="42.84574460" lon="13.64174497">
        <ele>105.00000</ele>
        <time>2024-02-08T14:17:24Z</time>
      </trkpt>
      <trkpt lat="42.84572733" lon="13.64175561">
        <ele>105.00000</ele>
        <time>2024-02-08T14:17:25Z</time>
      </trkpt>
      <trkpt lat="42.84571191" lon="13.64175260">
        <ele>105.00000</ele>
        <time>2024-02-08T14:17:26Z</time>
      </trkpt>
      <trkpt lat="42.84569950" lon="13.64174648">
        <ele>105.00000</ele>
        <time>2024-02-08T14:17:27Z</time>
      </trkpt>
      <trkpt lat="42.84568626" lon="13.64173667">
        <ele>105.00000</ele>
        <time>2024-02-08T14:17:28Z</time>
      </trkpt>
      <trkpt lat="42.84567260" lon="13.64173525">
        <ele>105.00000</ele>
        <time>2024-02-08T14:17:29Z</time>
      </trkpt>
      <trkpt lat="42.84566011" lon="13.64173608">
        <ele>105.00000</ele>
        <time>2024-02-08T14:17:30Z</time>
      </trkpt>
      <trkpt lat="42.84564594" lon="13.64173550">
        <ele>105.00000</ele>
        <time>2024-02-08T14:17:31Z</time>
      </trkpt>
      <trkpt lat="42.84563773" lon="13.64174120">
        <ele>105.00000</ele>
        <time>2024-02-08T14:17:32Z</time>
      </trkpt>
      <trkpt lat="42.84563563" lon="13.64175016">
        <ele>106.00000</ele>
        <time>2024-02-08T14:17:33Z</time>
      </trkpt>
      <trkpt lat="42.84563454" lon="13.64176500">
        <ele>106.00000</ele>
        <time>2024-02-08T14:17:34Z</time>
      </trkpt>
      <trkpt lat="42.84563815" lon="13.64177824">
        <ele>106.00000</ele>
        <time>2024-02-08T14:17:35Z</time>
      </trkpt>
      <trkpt lat="42.84564862" lon="13.64178453">
        <ele>106.00000</ele>
        <time>2024-02-08T14:17:36Z</time>
      </trkpt>
      <trkpt lat="42.84565240" lon="13.64179559">
        <ele>106.00000</ele>
        <time>2024-02-08T14:17:37Z</time>
      </trkpt>
      <trkpt lat="42.84564594" lon="13.64180532">
        <ele>106.00000</ele>
        <time>2024-02-08T14:17:38Z</time>
      </trkpt>
      <trkpt lat="42.84564326" lon="13.64180347">
        <ele>106.00000</ele>
        <time>2024-02-08T14:17:39Z</time>
      </trkpt>
      <trkpt lat="42.84564410" lon="13.64178922">
        <ele>106.00000</ele>
        <time>2024-02-08T14:17:40Z</time>
      </trkpt>
      <trkpt lat="42.84564100" lon="13.64177187">
        <ele>106.00000</ele>
        <time>2024-02-08T14:17:41Z</time>
      </trkpt>
      <trkpt lat="42.84563974" lon="13.64175905">
        <ele>106.00000</ele>
        <time>2024-02-08T14:17:42Z</time>
      </trkpt>
      <trkpt lat="42.84563840" lon="13.64175595">
        <ele>106.00000</ele>
        <time>2024-02-08T14:17:43Z</time>
      </trkpt>
      <trkpt lat="42.84574401" lon="13.64172041">
        <ele>105.00000</ele>
        <time>2024-02-08T14:17:57Z</time>
      </trkpt>
      <trkpt lat="42.84576941" lon="13.64171119">
        <ele>105.00000</ele>
        <time>2024-02-08T14:17:58Z</time>
      </trkpt>
      <trkpt lat="42.84579690" lon="13.64169526">
        <ele>105.00000</ele>
        <time>2024-02-08T14:17:59Z</time>
      </trkpt>
      <trkpt lat="42.84582020" lon="13.64167607">
        <ele>105.00000</ele>
        <time>2024-02-08T14:18:00Z</time>
      </trkpt>
      <trkpt lat="42.84584652" lon="13.64166115">
        <ele>104.00000</ele>
        <time>2024-02-08T14:18:01Z</time>
      </trkpt>
      <trkpt lat="42.84586865" lon="13.64165268">
        <ele>104.00000</ele>
        <time>2024-02-08T14:18:02Z</time>
      </trkpt>
      <trkpt lat="42.84588416" lon="13.64164900">
        <ele>104.00000</ele>
        <time>2024-02-08T14:18:03Z</time>
      </trkpt>
      <trkpt lat="42.84589572" lon="13.64165721">
        <ele>104.00000</ele>
        <time>2024-02-08T14:18:04Z</time>
      </trkpt>
      <trkpt lat="42.84589824" lon="13.64167029">
        <ele>104.00000</ele>
        <time>2024-02-08T14:18:05Z</time>
      </trkpt>
      <trkpt lat="42.84589338" lon="13.64167548">
        <ele>104.00000</ele>
        <time>2024-02-08T14:18:06Z</time>
      </trkpt>
      <trkpt lat="42.84588349" lon="13.64167557">
        <ele>104.00000</ele>
        <time>2024-02-08T14:18:07Z</time>
      </trkpt>
      <trkpt lat="42.84587301" lon="13.64167171">
        <ele>104.00000</ele>
        <time>2024-02-08T14:18:08Z</time>
      </trkpt>
      <trkpt lat="42.84586597" lon="13.64166961">
        <ele>104.00000</ele>
        <time>2024-02-08T14:18:09Z</time>
      </trkpt>
      <trkpt lat="42.84585415" lon="13.64166425">
        <ele>104.00000</ele>
        <time>2024-02-08T14:18:10Z</time>
      </trkpt>
      <trkpt lat="42.84583579" lon="13.64165813">
        <ele>104.00000</ele>
        <time>2024-02-08T14:18:11Z</time>
      </trkpt>
      <trkpt lat="42.84581375" lon="13.64165461">
        <ele>104.00000</ele>
        <time>2024-02-08T14:18:12Z</time>
      </trkpt>
      <trkpt lat="42.84578978" lon="13.64165285">
        <ele>105.00000</ele>
        <time>2024-02-08T14:18:13Z</time>
      </trkpt>
      <trkpt lat="42.84576429" lon="13.64165780">
        <ele>105.00000</ele>
        <time>2024-02-08T14:18:14Z</time>
      </trkpt>
      <trkpt lat="42.84573697" lon="13.64166324">
        <ele>105.00000</ele>
        <time>2024-02-08T14:18:15Z</time>
      </trkpt>
      <trkpt lat="42.84571241" lon="13.64166836">
        <ele>105.00000</ele>
        <time>2024-02-08T14:18:16Z</time>
      </trkpt>
      <trkpt lat="42.84568911" lon="13.64167523">
        <ele>105.00000</ele>
        <time>2024-02-08T14:18:17Z</time>
      </trkpt>
      <trkpt lat="42.84567964" lon="13.64167934">
        <ele>105.00000</ele>
        <time>2024-02-08T14:18:18Z</time>
      </trkpt>
    </trkseg>
  </trk>
</gpx>

